<?xml version="1.0" encoding="UTF-8"?><gpx creator="Garmin Connect" version="1.1"
xsi:schemaLocation="http://www.topografix.com/GPX/1/1 http://www.topografix.com/GPX/11.xsd"
xmlns:ns3="http://www.garmin.com/xmlschemas/TrackPointExtension/v1"
xmlns="http://www.topografix.com/GPX/1/1"
xmlns:xsi="http://www.w3.org/2001/XMLSchema-instance"
xmlns:ns2="http://www.garmin.com/xmlschemas/GpxExtensions/v3"><metadata><time>2026-03-15T07:13:40.000Z</time></metadata><trk><type>20260315Mountain hike</type><extensions><totalTime>20775</totalTime><cumulativeDecrease>1075.8</cumulativeDecrease><cumulativeClimb>988.6</cumulativeClimb><totalDistance>11000</totalDistance><routeType>0</routeType></extensions><trkseg><trkpt lat="41.734695" lon="23.525209"><ele>2245.3</ele><time>2026-03-15T07:13:40.000Z</time></trkpt>
<trkpt lat="41.734695" lon="23.525207"><ele>2245.3</ele><time>2026-03-15T07:13:41.000Z</time></trkpt>
<trkpt lat="41.734695" lon="23.525209"><ele>2245.3</ele><time>2026-03-15T07:13:42.000Z</time></trkpt>
<trkpt lat="41.734695" lon="23.525209"><ele>2245.3</ele><time>2026-03-15T07:13:43.000Z</time></trkpt>
<trkpt lat="41.734694" lon="23.52521"><ele>2245.3</ele><time>2026-03-15T07:13:44.000Z</time></trkpt>
<trkpt lat="41.734693" lon="23.525213"><ele>2245.3</ele><time>2026-03-15T07:13:45.000Z</time></trkpt>
<trkpt lat="41.734692" lon="23.525215"><ele>2245.3</ele><time>2026-03-15T07:13:46.000Z</time></trkpt>
<trkpt lat="41.734692" lon="23.525217"><ele>2245.3</ele><time>2026-03-15T07:13:47.000Z</time></trkpt>
<trkpt lat="41.734691" lon="23.525219"><ele>2245.3</ele><time>2026-03-15T07:13:48.000Z</time></trkpt>
<trkpt lat="41.734691" lon="23.525221"><ele>2245.3</ele><time>2026-03-15T07:13:49.000Z</time></trkpt>
<trkpt lat="41.734691" lon="23.525221"><ele>2245.3</ele><time>2026-03-15T07:13:50.000Z</time></trkpt>
<trkpt lat="41.734691" lon="23.525221"><ele>2245.3</ele><time>2026-03-15T07:13:51.000Z</time></trkpt>
<trkpt lat="41.734691" lon="23.525221"><ele>2245.3</ele><time>2026-03-15T07:13:52.000Z</time></trkpt>
<trkpt lat="41.734691" lon="23.525221"><ele>2245.3</ele><time>2026-03-15T07:13:53.000Z</time></trkpt>
<trkpt lat="41.734691" lon="23.525221"><ele>2245.3</ele><time>2026-03-15T07:13:54.000Z</time></trkpt>
<trkpt lat="41.734691" lon="23.525221"><ele>2245.3</ele><time>2026-03-15T07:13:55.000Z</time></trkpt>
<trkpt lat="41.734691" lon="23.525221"><ele>2245.3</ele><time>2026-03-15T07:13:56.000Z</time></trkpt>
<trkpt lat="41.73469" lon="23.525222"><ele>2245.3</ele><time>2026-03-15T07:13:57.000Z</time></trkpt>
<trkpt lat="41.734689" lon="23.525224"><ele>2245.3</ele><time>2026-03-15T07:13:58.000Z</time></trkpt>
<trkpt lat="41.734688" lon="23.525228"><ele>2245.3</ele><time>2026-03-15T07:13:59.000Z</time></trkpt>
<trkpt lat="41.734684" lon="23.525234"><ele>2245.3</ele><time>2026-03-15T07:14:00.000Z</time></trkpt>
<trkpt lat="41.734679" lon="23.52524"><ele>2245.3</ele><time>2026-03-15T07:14:01.000Z</time></trkpt>
<trkpt lat="41.734671" lon="23.525244"><ele>2245.3</ele><time>2026-03-15T07:14:02.000Z</time></trkpt>
<trkpt lat="41.734662" lon="23.525247"><ele>2245.1</ele><time>2026-03-15T07:14:03.000Z</time></trkpt>
<trkpt lat="41.734651" lon="23.525247"><ele>2245.1</ele><time>2026-03-15T07:14:04.000Z</time></trkpt>
<trkpt lat="41.734641" lon="23.525245"><ele>2245.1</ele><time>2026-03-15T07:14:05.000Z</time></trkpt>
<trkpt lat="41.73463" lon="23.525243"><ele>2245.1</ele><time>2026-03-15T07:14:06.000Z</time></trkpt>
<trkpt lat="41.73462" lon="23.525241"><ele>2245.1</ele><time>2026-03-15T07:14:07.000Z</time></trkpt>
<trkpt lat="41.734611" lon="23.525239"><ele>2245</ele><time>2026-03-15T07:14:08.000Z</time></trkpt>
<trkpt lat="41.734604" lon="23.525236"><ele>2245</ele><time>2026-03-15T07:14:09.000Z</time></trkpt>
<trkpt lat="41.734599" lon="23.525232"><ele>2245</ele><time>2026-03-15T07:14:10.000Z</time></trkpt>
<trkpt lat="41.734596" lon="23.525226"><ele>2245</ele><time>2026-03-15T07:14:11.000Z</time></trkpt>
<trkpt lat="41.734594" lon="23.525222"><ele>2245</ele><time>2026-03-15T07:14:12.000Z</time></trkpt>
<trkpt lat="41.734592" lon="23.525217"><ele>2245.1</ele><time>2026-03-15T07:14:13.000Z</time></trkpt>
<trkpt lat="41.73459" lon="23.525214"><ele>2245.1</ele><time>2026-03-15T07:14:14.000Z</time></trkpt>
<trkpt lat="41.734588" lon="23.52521"><ele>2245.1</ele><time>2026-03-15T07:14:15.000Z</time></trkpt>
<trkpt lat="41.734586" lon="23.525208"><ele>2245.1</ele><time>2026-03-15T07:14:16.000Z</time></trkpt>
<trkpt lat="41.734585" lon="23.525204"><ele>2245.1</ele><time>2026-03-15T07:14:17.000Z</time></trkpt>
<trkpt lat="41.734583" lon="23.525201"><ele>2245.4</ele><time>2026-03-15T07:14:18.000Z</time></trkpt>
<trkpt lat="41.734579" lon="23.525197"><ele>2245.4</ele><time>2026-03-15T07:14:19.000Z</time></trkpt>
<trkpt lat="41.734574" lon="23.525193"><ele>2245.4</ele><time>2026-03-15T07:14:20.000Z</time></trkpt>
<trkpt lat="41.734568" lon="23.525189"><ele>2245.4</ele><time>2026-03-15T07:14:21.000Z</time></trkpt>
<trkpt lat="41.73456" lon="23.525183"><ele>2245.4</ele><time>2026-03-15T07:14:22.000Z</time></trkpt>
<trkpt lat="41.734553" lon="23.525178"><ele>2245.7</ele><time>2026-03-15T07:14:23.000Z</time></trkpt>
<trkpt lat="41.734545" lon="23.525173"><ele>2245.7</ele><time>2026-03-15T07:14:24.000Z</time></trkpt>
<trkpt lat="41.734538" lon="23.525167"><ele>2245.7</ele><time>2026-03-15T07:14:25.000Z</time></trkpt>
<trkpt lat="41.73453" lon="23.525161"><ele>2245.7</ele><time>2026-03-15T07:14:26.000Z</time></trkpt>
<trkpt lat="41.734521" lon="23.525154"><ele>2245.7</ele><time>2026-03-15T07:14:27.000Z</time></trkpt>
<trkpt lat="41.734513" lon="23.525147"><ele>2246.1</ele><time>2026-03-15T07:14:28.000Z</time></trkpt>
<trkpt lat="41.734506" lon="23.52514"><ele>2246.1</ele><time>2026-03-15T07:14:29.000Z</time></trkpt>
<trkpt lat="41.734498" lon="23.525133"><ele>2246.1</ele><time>2026-03-15T07:14:30.000Z</time></trkpt>
<trkpt lat="41.73449" lon="23.525127"><ele>2246.1</ele><time>2026-03-15T07:14:31.000Z</time></trkpt>
<trkpt lat="41.734482" lon="23.525122"><ele>2246.1</ele><time>2026-03-15T07:14:32.000Z</time></trkpt>
<trkpt lat="41.734474" lon="23.525117"><ele>2246.6</ele><time>2026-03-15T07:14:33.000Z</time></trkpt>
<trkpt lat="41.734467" lon="23.525113"><ele>2246.6</ele><time>2026-03-15T07:14:34.000Z</time></trkpt>
<trkpt lat="41.734459" lon="23.525108"><ele>2246.6</ele><time>2026-03-15T07:14:35.000Z</time></trkpt>
<trkpt lat="41.734452" lon="23.525104"><ele>2246.6</ele><time>2026-03-15T07:14:36.000Z</time></trkpt>
<trkpt lat="41.734444" lon="23.525098"><ele>2246.6</ele><time>2026-03-15T07:14:37.000Z</time></trkpt>
<trkpt lat="41.734435" lon="23.525093"><ele>2246.8</ele><time>2026-03-15T07:14:38.000Z</time></trkpt>
<trkpt lat="41.734426" lon="23.525088"><ele>2246.8</ele><time>2026-03-15T07:14:39.000Z</time></trkpt>
<trkpt lat="41.734417" lon="23.525083"><ele>2246.8</ele><time>2026-03-15T07:14:40.000Z</time></trkpt>
<trkpt lat="41.734408" lon="23.525079"><ele>2246.8</ele><time>2026-03-15T07:14:41.000Z</time></trkpt>
<trkpt lat="41.734398" lon="23.525074"><ele>2246.8</ele><time>2026-03-15T07:14:42.000Z</time></trkpt>
<trkpt lat="41.734391" lon="23.525084"><ele>2247.5</ele><time>2026-03-15T07:14:43.000Z</time></trkpt>
<trkpt lat="41.734382" lon="23.525093"><ele>2247.5</ele><time>2026-03-15T07:14:44.000Z</time></trkpt>
<trkpt lat="41.734374" lon="23.525103"><ele>2247.5</ele><time>2026-03-15T07:14:45.000Z</time></trkpt>
<trkpt lat="41.734366" lon="23.525113"><ele>2247.5</ele><time>2026-03-15T07:14:46.000Z</time></trkpt>
<trkpt lat="41.734358" lon="23.525123"><ele>2247.5</ele><time>2026-03-15T07:14:47.000Z</time></trkpt>
<trkpt lat="41.734349" lon="23.525118"><ele>2248.3</ele><time>2026-03-15T07:14:48.000Z</time></trkpt>
<trkpt lat="41.73434" lon="23.525112"><ele>2248.3</ele><time>2026-03-15T07:14:49.000Z</time></trkpt>
<trkpt lat="41.734332" lon="23.525106"><ele>2248.3</ele><time>2026-03-15T07:14:50.000Z</time></trkpt>
<trkpt lat="41.734325" lon="23.525099"><ele>2248.3</ele><time>2026-03-15T07:14:51.000Z</time></trkpt>
<trkpt lat="41.734317" lon="23.525092"><ele>2248.3</ele><time>2026-03-15T07:14:52.000Z</time></trkpt>
<trkpt lat="41.73431" lon="23.525083"><ele>2248.6</ele><time>2026-03-15T07:14:53.000Z</time></trkpt>
<trkpt lat="41.734303" lon="23.525075"><ele>2248.6</ele><time>2026-03-15T07:14:54.000Z</time></trkpt>
<trkpt lat="41.734297" lon="23.525068"><ele>2248.6</ele><time>2026-03-15T07:14:55.000Z</time></trkpt>
<trkpt lat="41.73429" lon="23.52506"><ele>2248.6</ele><time>2026-03-15T07:14:56.000Z</time></trkpt>
<trkpt lat="41.734283" lon="23.525052"><ele>2248.6</ele><time>2026-03-15T07:14:57.000Z</time></trkpt>
<trkpt lat="41.734276" lon="23.525044"><ele>2249.1</ele><time>2026-03-15T07:14:58.000Z</time></trkpt>
<trkpt lat="41.734269" lon="23.525036"><ele>2249.1</ele><time>2026-03-15T07:14:59.000Z</time></trkpt>
<trkpt lat="41.734262" lon="23.525028"><ele>2249.1</ele><time>2026-03-15T07:15:00.000Z</time></trkpt>
<trkpt lat="41.734254" lon="23.525021"><ele>2249.1</ele><time>2026-03-15T07:15:01.000Z</time></trkpt>
<trkpt lat="41.734247" lon="23.525013"><ele>2249.1</ele><time>2026-03-15T07:15:02.000Z</time></trkpt>
<trkpt lat="41.734239" lon="23.525007"><ele>2249.6</ele><time>2026-03-15T07:15:03.000Z</time></trkpt>
<trkpt lat="41.734231" lon="23.525001"><ele>2249.6</ele><time>2026-03-15T07:15:04.000Z</time></trkpt>
<trkpt lat="41.734223" lon="23.524995"><ele>2249.6</ele><time>2026-03-15T07:15:05.000Z</time></trkpt>
<trkpt lat="41.734216" lon="23.524988"><ele>2249.6</ele><time>2026-03-15T07:15:06.000Z</time></trkpt>
<trkpt lat="41.734209" lon="23.524981"><ele>2249.6</ele><time>2026-03-15T07:15:07.000Z</time></trkpt>
<trkpt lat="41.734202" lon="23.524974"><ele>2250</ele><time>2026-03-15T07:15:08.000Z</time></trkpt>
<trkpt lat="41.734196" lon="23.524966"><ele>2250</ele><time>2026-03-15T07:15:09.000Z</time></trkpt>
<trkpt lat="41.73419" lon="23.524958"><ele>2250</ele><time>2026-03-15T07:15:10.000Z</time></trkpt>
<trkpt lat="41.734184" lon="23.524952"><ele>2250</ele><time>2026-03-15T07:15:11.000Z</time></trkpt>
<trkpt lat="41.734177" lon="23.524947"><ele>2250</ele><time>2026-03-15T07:15:12.000Z</time></trkpt>
<trkpt lat="41.73417" lon="23.524943"><ele>2250.7</ele><time>2026-03-15T07:15:13.000Z</time></trkpt>
<trkpt lat="41.734161" lon="23.524939"><ele>2250.7</ele><time>2026-03-15T07:15:14.000Z</time></trkpt>
<trkpt lat="41.734153" lon="23.524934"><ele>2250.7</ele><time>2026-03-15T07:15:15.000Z</time></trkpt>
<trkpt lat="41.734144" lon="23.524927"><ele>2250.7</ele><time>2026-03-15T07:15:16.000Z</time></trkpt>
<trkpt lat="41.734136" lon="23.524919"><ele>2250.7</ele><time>2026-03-15T07:15:17.000Z</time></trkpt>
<trkpt lat="41.734128" lon="23.524911"><ele>2251.4</ele><time>2026-03-15T07:15:18.000Z</time></trkpt>
<trkpt lat="41.73412" lon="23.524903"><ele>2251.4</ele><time>2026-03-15T07:15:19.000Z</time></trkpt>
<trkpt lat="41.734112" lon="23.524898"><ele>2251.4</ele><time>2026-03-15T07:15:20.000Z</time></trkpt>
<trkpt lat="41.734104" lon="23.524892"><ele>2251.4</ele><time>2026-03-15T07:15:21.000Z</time></trkpt>
<trkpt lat="41.734095" lon="23.524887"><ele>2251.4</ele><time>2026-03-15T07:15:22.000Z</time></trkpt>
<trkpt lat="41.734086" lon="23.524882"><ele>2251.8</ele><time>2026-03-15T07:15:23.000Z</time></trkpt>
<trkpt lat="41.734077" lon="23.524877"><ele>2251.8</ele><time>2026-03-15T07:15:24.000Z</time></trkpt>
<trkpt lat="41.734068" lon="23.524872"><ele>2251.8</ele><time>2026-03-15T07:15:25.000Z</time></trkpt>
<trkpt lat="41.734059" lon="23.524867"><ele>2251.8</ele><time>2026-03-15T07:15:26.000Z</time></trkpt>
<trkpt lat="41.73405" lon="23.524862"><ele>2251.8</ele><time>2026-03-15T07:15:27.000Z</time></trkpt>
<trkpt lat="41.734042" lon="23.524856"><ele>2252.4</ele><time>2026-03-15T07:15:28.000Z</time></trkpt>
<trkpt lat="41.734033" lon="23.524851"><ele>2252.4</ele><time>2026-03-15T07:15:29.000Z</time></trkpt>
<trkpt lat="41.734025" lon="23.524845"><ele>2252.4</ele><time>2026-03-15T07:15:30.000Z</time></trkpt>
<trkpt lat="41.734017" lon="23.524838"><ele>2252.4</ele><time>2026-03-15T07:15:31.000Z</time></trkpt>
<trkpt lat="41.73401" lon="23.524833"><ele>2252.4</ele><time>2026-03-15T07:15:32.000Z</time></trkpt>
<trkpt lat="41.734004" lon="23.524829"><ele>2252.9</ele><time>2026-03-15T07:15:33.000Z</time></trkpt>
<trkpt lat="41.734" lon="23.524825"><ele>2252.9</ele><time>2026-03-15T07:15:34.000Z</time></trkpt>
<trkpt lat="41.733994" lon="23.524821"><ele>2252.9</ele><time>2026-03-15T07:15:35.000Z</time></trkpt>
<trkpt lat="41.733989" lon="23.52482"><ele>2252.9</ele><time>2026-03-15T07:15:36.000Z</time></trkpt>
<trkpt lat="41.733984" lon="23.524818"><ele>2252.9</ele><time>2026-03-15T07:15:37.000Z</time></trkpt>
<trkpt lat="41.733977" lon="23.524816"><ele>2253.1</ele><time>2026-03-15T07:15:38.000Z</time></trkpt>
<trkpt lat="41.73397" lon="23.524814"><ele>2253.1</ele><time>2026-03-15T07:15:39.000Z</time></trkpt>
<trkpt lat="41.733963" lon="23.52481"><ele>2253.1</ele><time>2026-03-15T07:15:40.000Z</time></trkpt>
<trkpt lat="41.733956" lon="23.524806"><ele>2253.1</ele><time>2026-03-15T07:15:41.000Z</time></trkpt>
<trkpt lat="41.733948" lon="23.524801"><ele>2253.1</ele><time>2026-03-15T07:15:42.000Z</time></trkpt>
<trkpt lat="41.73394" lon="23.524795"><ele>2253.7</ele><time>2026-03-15T07:15:43.000Z</time></trkpt>
<trkpt lat="41.733931" lon="23.524789"><ele>2253.7</ele><time>2026-03-15T07:15:44.000Z</time></trkpt>
<trkpt lat="41.733922" lon="23.524783"><ele>2253.7</ele><time>2026-03-15T07:15:45.000Z</time></trkpt>
<trkpt lat="41.733913" lon="23.524776"><ele>2253.7</ele><time>2026-03-15T07:15:46.000Z</time></trkpt>
<trkpt lat="41.733904" lon="23.524768"><ele>2253.7</ele><time>2026-03-15T07:15:47.000Z</time></trkpt>
<trkpt lat="41.733896" lon="23.524761"><ele>2254.1</ele><time>2026-03-15T07:15:48.000Z</time></trkpt>
<trkpt lat="41.733888" lon="23.524753"><ele>2254.1</ele><time>2026-03-15T07:15:49.000Z</time></trkpt>
<trkpt lat="41.733881" lon="23.524747"><ele>2254.1</ele><time>2026-03-15T07:15:50.000Z</time></trkpt>
<trkpt lat="41.733873" lon="23.524741"><ele>2254.1</ele><time>2026-03-15T07:15:51.000Z</time></trkpt>
<trkpt lat="41.733866" lon="23.524736"><ele>2254.1</ele><time>2026-03-15T07:15:52.000Z</time></trkpt>
<trkpt lat="41.733857" lon="23.524731"><ele>2254.2</ele><time>2026-03-15T07:15:53.000Z</time></trkpt>
<trkpt lat="41.733849" lon="23.524727"><ele>2254.2</ele><time>2026-03-15T07:15:54.000Z</time></trkpt>
<trkpt lat="41.73384" lon="23.524722"><ele>2254.2</ele><time>2026-03-15T07:15:55.000Z</time></trkpt>
<trkpt lat="41.73383" lon="23.524718"><ele>2254.2</ele><time>2026-03-15T07:15:56.000Z</time></trkpt>
<trkpt lat="41.733821" lon="23.524714"><ele>2254.2</ele><time>2026-03-15T07:15:57.000Z</time></trkpt>
<trkpt lat="41.733813" lon="23.52471"><ele>2254.3</ele><time>2026-03-15T07:15:58.000Z</time></trkpt>
<trkpt lat="41.733805" lon="23.524707"><ele>2254.3</ele><time>2026-03-15T07:15:59.000Z</time></trkpt>
<trkpt lat="41.733797" lon="23.524705"><ele>2254.3</ele><time>2026-03-15T07:16:00.000Z</time></trkpt>
<trkpt lat="41.733789" lon="23.524703"><ele>2254.3</ele><time>2026-03-15T07:16:01.000Z</time></trkpt>
<trkpt lat="41.73378" lon="23.5247"><ele>2254.3</ele><time>2026-03-15T07:16:02.000Z</time></trkpt>
<trkpt lat="41.73377" lon="23.524698"><ele>2254.4</ele><time>2026-03-15T07:16:03.000Z</time></trkpt>
<trkpt lat="41.73376" lon="23.524697"><ele>2254.4</ele><time>2026-03-15T07:16:04.000Z</time></trkpt>
<trkpt lat="41.733749" lon="23.524696"><ele>2254.4</ele><time>2026-03-15T07:16:05.000Z</time></trkpt>
<trkpt lat="41.733738" lon="23.524695"><ele>2254.4</ele><time>2026-03-15T07:16:06.000Z</time></trkpt>
<trkpt lat="41.733728" lon="23.524694"><ele>2254.4</ele><time>2026-03-15T07:16:07.000Z</time></trkpt>
<trkpt lat="41.733718" lon="23.524692"><ele>2254.5</ele><time>2026-03-15T07:16:08.000Z</time></trkpt>
<trkpt lat="41.733708" lon="23.524688"><ele>2254.5</ele><time>2026-03-15T07:16:09.000Z</time></trkpt>
<trkpt lat="41.7337" lon="23.524683"><ele>2254.5</ele><time>2026-03-15T07:16:10.000Z</time></trkpt>
<trkpt lat="41.733691" lon="23.524679"><ele>2254.5</ele><time>2026-03-15T07:16:11.000Z</time></trkpt>
<trkpt lat="41.733682" lon="23.524676"><ele>2254.5</ele><time>2026-03-15T07:16:12.000Z</time></trkpt>
<trkpt lat="41.733672" lon="23.524675"><ele>2254.6</ele><time>2026-03-15T07:16:13.000Z</time></trkpt>
<trkpt lat="41.733662" lon="23.524675"><ele>2254.6</ele><time>2026-03-15T07:16:14.000Z</time></trkpt>
<trkpt lat="41.733652" lon="23.524678"><ele>2254.6</ele><time>2026-03-15T07:16:15.000Z</time></trkpt>
<trkpt lat="41.733642" lon="23.524681"><ele>2254.6</ele><time>2026-03-15T07:16:16.000Z</time></trkpt>
<trkpt lat="41.733634" lon="23.524687"><ele>2254.6</ele><time>2026-03-15T07:16:17.000Z</time></trkpt>
<trkpt lat="41.733628" lon="23.524694"><ele>2254.6</ele><time>2026-03-15T07:16:18.000Z</time></trkpt>
<trkpt lat="41.733622" lon="23.5247"><ele>2254.6</ele><time>2026-03-15T07:16:19.000Z</time></trkpt>
<trkpt lat="41.733619" lon="23.524705"><ele>2254.6</ele><time>2026-03-15T07:16:20.000Z</time></trkpt>
<trkpt lat="41.733617" lon="23.524708"><ele>2254.6</ele><time>2026-03-15T07:16:21.000Z</time></trkpt>
<trkpt lat="41.733616" lon="23.524709"><ele>2254.6</ele><time>2026-03-15T07:16:22.000Z</time></trkpt>
<trkpt lat="41.733616" lon="23.524708"><ele>2254.7</ele><time>2026-03-15T07:16:23.000Z</time></trkpt>
<trkpt lat="41.733617" lon="23.524706"><ele>2254.7</ele><time>2026-03-15T07:16:24.000Z</time></trkpt>
<trkpt lat="41.733618" lon="23.524706"><ele>2254.7</ele><time>2026-03-15T07:16:25.000Z</time></trkpt>
<trkpt lat="41.733619" lon="23.524705"><ele>2254.7</ele><time>2026-03-15T07:16:26.000Z</time></trkpt>
<trkpt lat="41.73362" lon="23.524704"><ele>2254.7</ele><time>2026-03-15T07:16:27.000Z</time></trkpt>
<trkpt lat="41.73362" lon="23.524703"><ele>2254.9</ele><time>2026-03-15T07:16:28.000Z</time></trkpt>
<trkpt lat="41.733619" lon="23.524703"><ele>2254.9</ele><time>2026-03-15T07:16:29.000Z</time></trkpt>
<trkpt lat="41.733617" lon="23.524702"><ele>2254.9</ele><time>2026-03-15T07:16:30.000Z</time></trkpt>
<trkpt lat="41.733616" lon="23.524702"><ele>2254.9</ele><time>2026-03-15T07:16:31.000Z</time></trkpt>
<trkpt lat="41.733615" lon="23.524703"><ele>2254.9</ele><time>2026-03-15T07:16:32.000Z</time></trkpt>
<trkpt lat="41.733614" lon="23.524704"><ele>2254.8</ele><time>2026-03-15T07:16:33.000Z</time></trkpt>
<trkpt lat="41.733613" lon="23.524705"><ele>2254.8</ele><time>2026-03-15T07:16:34.000Z</time></trkpt>
<trkpt lat="41.733613" lon="23.524706"><ele>2254.8</ele><time>2026-03-15T07:16:35.000Z</time></trkpt>
<trkpt lat="41.733613" lon="23.524706"><ele>2254.8</ele><time>2026-03-15T07:16:36.000Z</time></trkpt>
<trkpt lat="41.733613" lon="23.524707"><ele>2254.8</ele><time>2026-03-15T07:16:37.000Z</time></trkpt>
<trkpt lat="41.733613" lon="23.524707"><ele>2254.7</ele><time>2026-03-15T07:16:38.000Z</time></trkpt>
<trkpt lat="41.733614" lon="23.524707"><ele>2254.7</ele><time>2026-03-15T07:16:39.000Z</time></trkpt>
<trkpt lat="41.733614" lon="23.524707"><ele>2254.7</ele><time>2026-03-15T07:16:40.000Z</time></trkpt>
<trkpt lat="41.733613" lon="23.524707"><ele>2254.7</ele><time>2026-03-15T07:16:41.000Z</time></trkpt>
<trkpt lat="41.733612" lon="23.524707"><ele>2254.7</ele><time>2026-03-15T07:16:42.000Z</time></trkpt>
<trkpt lat="41.733612" lon="23.524707"><ele>2254.4</ele><time>2026-03-15T07:16:43.000Z</time></trkpt>
<trkpt lat="41.733611" lon="23.524708"><ele>2254.4</ele><time>2026-03-15T07:16:44.000Z</time></trkpt>
<trkpt lat="41.733611" lon="23.524708"><ele>2254.4</ele><time>2026-03-15T07:16:45.000Z</time></trkpt>
<trkpt lat="41.733612" lon="23.524707"><ele>2254.4</ele><time>2026-03-15T07:16:46.000Z</time></trkpt>
<trkpt lat="41.733612" lon="23.524706"><ele>2254.4</ele><time>2026-03-15T07:16:47.000Z</time></trkpt>
<trkpt lat="41.733613" lon="23.524705"><ele>2254.5</ele><time>2026-03-15T07:16:48.000Z</time></trkpt>
<trkpt lat="41.733615" lon="23.524704"><ele>2254.5</ele><time>2026-03-15T07:16:49.000Z</time></trkpt>
<trkpt lat="41.733616" lon="23.524702"><ele>2254.5</ele><time>2026-03-15T07:16:50.000Z</time></trkpt>
<trkpt lat="41.733617" lon="23.524701"><ele>2254.5</ele><time>2026-03-15T07:16:51.000Z</time></trkpt>
<trkpt lat="41.733617" lon="23.5247"><ele>2254.5</ele><time>2026-03-15T07:16:52.000Z</time></trkpt>
<trkpt lat="41.733617" lon="23.5247"><ele>2254.5</ele><time>2026-03-15T07:16:53.000Z</time></trkpt>
<trkpt lat="41.733617" lon="23.5247"><ele>2254.5</ele><time>2026-03-15T07:16:54.000Z</time></trkpt>
<trkpt lat="41.733616" lon="23.5247"><ele>2254.5</ele><time>2026-03-15T07:16:55.000Z</time></trkpt>
<trkpt lat="41.733615" lon="23.524701"><ele>2254.5</ele><time>2026-03-15T07:16:56.000Z</time></trkpt>
<trkpt lat="41.733614" lon="23.524703"><ele>2254.5</ele><time>2026-03-15T07:16:57.000Z</time></trkpt>
<trkpt lat="41.733613" lon="23.524704"><ele>2254.6</ele><time>2026-03-15T07:16:58.000Z</time></trkpt>
<trkpt lat="41.733612" lon="23.524706"><ele>2254.6</ele><time>2026-03-15T07:16:59.000Z</time></trkpt>
<trkpt lat="41.733611" lon="23.524707"><ele>2254.6</ele><time>2026-03-15T07:17:00.000Z</time></trkpt>
<trkpt lat="41.733611" lon="23.524708"><ele>2254.6</ele><time>2026-03-15T07:17:01.000Z</time></trkpt>
<trkpt lat="41.733611" lon="23.524708"><ele>2254.6</ele><time>2026-03-15T07:17:02.000Z</time></trkpt>
<trkpt lat="41.733611" lon="23.524707"><ele>2254.5</ele><time>2026-03-15T07:17:03.000Z</time></trkpt>
<trkpt lat="41.733611" lon="23.524707"><ele>2254.5</ele><time>2026-03-15T07:17:04.000Z</time></trkpt>
<trkpt lat="41.733611" lon="23.524707"><ele>2254.5</ele><time>2026-03-15T07:17:05.000Z</time></trkpt>
<trkpt lat="41.733611" lon="23.524707"><ele>2254.5</ele><time>2026-03-15T07:17:06.000Z</time></trkpt>
<trkpt lat="41.733611" lon="23.524707"><ele>2254.5</ele><time>2026-03-15T07:17:07.000Z</time></trkpt>
<trkpt lat="41.733611" lon="23.524707"><ele>2254.5</ele><time>2026-03-15T07:17:08.000Z</time></trkpt>
<trkpt lat="41.733611" lon="23.524707"><ele>2254.5</ele><time>2026-03-15T07:17:09.000Z</time></trkpt>
<trkpt lat="41.733611" lon="23.524707"><ele>2254.5</ele><time>2026-03-15T07:17:10.000Z</time></trkpt>
<trkpt lat="41.733611" lon="23.524707"><ele>2254.5</ele><time>2026-03-15T07:17:11.000Z</time></trkpt>
<trkpt lat="41.733612" lon="23.524708"><ele>2254.5</ele><time>2026-03-15T07:17:12.000Z</time></trkpt>
<trkpt lat="41.733612" lon="23.524708"><ele>2254.6</ele><time>2026-03-15T07:17:13.000Z</time></trkpt>
<trkpt lat="41.733613" lon="23.524708"><ele>2254.6</ele><time>2026-03-15T07:17:14.000Z</time></trkpt>
<trkpt lat="41.733614" lon="23.52471"><ele>2254.6</ele><time>2026-03-15T07:17:15.000Z</time></trkpt>
<trkpt lat="41.733614" lon="23.524711"><ele>2254.6</ele><time>2026-03-15T07:17:16.000Z</time></trkpt>
<trkpt lat="41.733615" lon="23.524712"><ele>2254.6</ele><time>2026-03-15T07:17:17.000Z</time></trkpt>
<trkpt lat="41.733616" lon="23.524713"><ele>2254.7</ele><time>2026-03-15T07:17:18.000Z</time></trkpt>
<trkpt lat="41.733616" lon="23.524715"><ele>2254.7</ele><time>2026-03-15T07:17:19.000Z</time></trkpt>
<trkpt lat="41.733616" lon="23.524715"><ele>2254.7</ele><time>2026-03-15T07:17:20.000Z</time></trkpt>
<trkpt lat="41.733616" lon="23.524716"><ele>2254.7</ele><time>2026-03-15T07:17:21.000Z</time></trkpt>
<trkpt lat="41.733616" lon="23.524716"><ele>2254.7</ele><time>2026-03-15T07:17:22.000Z</time></trkpt>
<trkpt lat="41.733616" lon="23.524717"><ele>2254.7</ele><time>2026-03-15T07:17:23.000Z</time></trkpt>
<trkpt lat="41.733616" lon="23.524717"><ele>2254.7</ele><time>2026-03-15T07:17:24.000Z</time></trkpt>
<trkpt lat="41.733616" lon="23.524717"><ele>2254.7</ele><time>2026-03-15T07:17:25.000Z</time></trkpt>
<trkpt lat="41.733616" lon="23.524717"><ele>2254.7</ele><time>2026-03-15T07:17:26.000Z</time></trkpt>
<trkpt lat="41.733616" lon="23.524717"><ele>2254.7</ele><time>2026-03-15T07:17:27.000Z</time></trkpt>
<trkpt lat="41.733615" lon="23.524717"><ele>2254.5</ele><time>2026-03-15T07:17:28.000Z</time></trkpt>
<trkpt lat="41.733615" lon="23.524717"><ele>2254.5</ele><time>2026-03-15T07:17:29.000Z</time></trkpt>
<trkpt lat="41.733616" lon="23.524717"><ele>2254.5</ele><time>2026-03-15T07:17:30.000Z</time></trkpt>
<trkpt lat="41.733616" lon="23.524718"><ele>2254.5</ele><time>2026-03-15T07:17:31.000Z</time></trkpt>
<trkpt lat="41.733616" lon="23.524718"><ele>2254.5</ele><time>2026-03-15T07:17:32.000Z</time></trkpt>
<trkpt lat="41.733617" lon="23.524718"><ele>2254.4</ele><time>2026-03-15T07:17:33.000Z</time></trkpt>
<trkpt lat="41.733617" lon="23.524719"><ele>2254.4</ele><time>2026-03-15T07:17:34.000Z</time></trkpt>
<trkpt lat="41.733617" lon="23.524719"><ele>2254.4</ele><time>2026-03-15T07:17:35.000Z</time></trkpt>
<trkpt lat="41.733617" lon="23.524719"><ele>2254.4</ele><time>2026-03-15T07:17:36.000Z</time></trkpt>
<trkpt lat="41.733617" lon="23.524719"><ele>2254.4</ele><time>2026-03-15T07:17:37.000Z</time></trkpt>
<trkpt lat="41.733617" lon="23.524719"><ele>2254.3</ele><time>2026-03-15T07:17:38.000Z</time></trkpt>
<trkpt lat="41.733618" lon="23.524719"><ele>2254.3</ele><time>2026-03-15T07:17:39.000Z</time></trkpt>
<trkpt lat="41.733618" lon="23.524718"><ele>2254.3</ele><time>2026-03-15T07:17:40.000Z</time></trkpt>
<trkpt lat="41.733619" lon="23.524718"><ele>2254.3</ele><time>2026-03-15T07:17:41.000Z</time></trkpt>
<trkpt lat="41.733619" lon="23.524719"><ele>2254.3</ele><time>2026-03-15T07:17:42.000Z</time></trkpt>
<trkpt lat="41.733619" lon="23.52472"><ele>2254.4</ele><time>2026-03-15T07:17:43.000Z</time></trkpt>
<trkpt lat="41.733618" lon="23.524722"><ele>2254.4</ele><time>2026-03-15T07:17:44.000Z</time></trkpt>
<trkpt lat="41.733617" lon="23.524724"><ele>2254.4</ele><time>2026-03-15T07:17:45.000Z</time></trkpt>
<trkpt lat="41.733616" lon="23.524726"><ele>2254.4</ele><time>2026-03-15T07:17:46.000Z</time></trkpt>
<trkpt lat="41.733616" lon="23.524727"><ele>2254.4</ele><time>2026-03-15T07:17:47.000Z</time></trkpt>
<trkpt lat="41.733616" lon="23.524727"><ele>2254.4</ele><time>2026-03-15T07:17:48.000Z</time></trkpt>
<trkpt lat="41.733616" lon="23.524727"><ele>2254.4</ele><time>2026-03-15T07:17:49.000Z</time></trkpt>
<trkpt lat="41.733616" lon="23.524727"><ele>2254.4</ele><time>2026-03-15T07:17:50.000Z</time></trkpt>
<trkpt lat="41.733616" lon="23.524727"><ele>2254.4</ele><time>2026-03-15T07:17:51.000Z</time></trkpt>
<trkpt lat="41.733616" lon="23.524727"><ele>2254.4</ele><time>2026-03-15T07:17:52.000Z</time></trkpt>
<trkpt lat="41.733616" lon="23.524727"><ele>2254.5</ele><time>2026-03-15T07:17:53.000Z</time></trkpt>
<trkpt lat="41.733616" lon="23.524727"><ele>2254.5</ele><time>2026-03-15T07:17:54.000Z</time></trkpt>
<trkpt lat="41.733616" lon="23.524727"><ele>2254.5</ele><time>2026-03-15T07:17:55.000Z</time></trkpt>
<trkpt lat="41.733616" lon="23.524727"><ele>2254.5</ele><time>2026-03-15T07:17:56.000Z</time></trkpt>
<trkpt lat="41.733616" lon="23.524727"><ele>2254.5</ele><time>2026-03-15T07:17:57.000Z</time></trkpt>
<trkpt lat="41.733616" lon="23.524727"><ele>2254.5</ele><time>2026-03-15T07:17:58.000Z</time></trkpt>
<trkpt lat="41.733616" lon="23.524726"><ele>2254.5</ele><time>2026-03-15T07:17:59.000Z</time></trkpt>
<trkpt lat="41.733616" lon="23.524726"><ele>2254.5</ele><time>2026-03-15T07:18:00.000Z</time></trkpt>
<trkpt lat="41.733616" lon="23.524725"><ele>2254.5</ele><time>2026-03-15T07:18:01.000Z</time></trkpt>
<trkpt lat="41.733616" lon="23.524725"><ele>2254.5</ele><time>2026-03-15T07:18:02.000Z</time></trkpt>
<trkpt lat="41.733616" lon="23.524724"><ele>2254.4</ele><time>2026-03-15T07:18:03.000Z</time></trkpt>
<trkpt lat="41.733616" lon="23.524724"><ele>2254.4</ele><time>2026-03-15T07:18:04.000Z</time></trkpt>
<trkpt lat="41.733616" lon="23.524724"><ele>2254.4</ele><time>2026-03-15T07:18:05.000Z</time></trkpt>
<trkpt lat="41.733616" lon="23.524724"><ele>2254.4</ele><time>2026-03-15T07:18:06.000Z</time></trkpt>
<trkpt lat="41.733616" lon="23.524724"><ele>2254.4</ele><time>2026-03-15T07:18:07.000Z</time></trkpt>
<trkpt lat="41.733616" lon="23.524724"><ele>2254.3</ele><time>2026-03-15T07:18:08.000Z</time></trkpt>
<trkpt lat="41.733616" lon="23.524724"><ele>2254.3</ele><time>2026-03-15T07:18:09.000Z</time></trkpt>
<trkpt lat="41.733617" lon="23.524724"><ele>2254.3</ele><time>2026-03-15T07:18:10.000Z</time></trkpt>
<trkpt lat="41.733617" lon="23.524723"><ele>2254.3</ele><time>2026-03-15T07:18:11.000Z</time></trkpt>
<trkpt lat="41.733618" lon="23.524723"><ele>2254.3</ele><time>2026-03-15T07:18:12.000Z</time></trkpt>
<trkpt lat="41.733619" lon="23.524723"><ele>2254.1</ele><time>2026-03-15T07:18:13.000Z</time></trkpt>
<trkpt lat="41.733619" lon="23.524722"><ele>2254.1</ele><time>2026-03-15T07:18:14.000Z</time></trkpt>
<trkpt lat="41.733619" lon="23.524722"><ele>2254.1</ele><time>2026-03-15T07:18:15.000Z</time></trkpt>
<trkpt lat="41.73362" lon="23.524722"><ele>2254.1</ele><time>2026-03-15T07:18:16.000Z</time></trkpt>
<trkpt lat="41.73362" lon="23.524721"><ele>2254.1</ele><time>2026-03-15T07:18:17.000Z</time></trkpt>
<trkpt lat="41.733621" lon="23.524722"><ele>2253.9</ele><time>2026-03-15T07:18:18.000Z</time></trkpt>
<trkpt lat="41.733622" lon="23.524722"><ele>2253.9</ele><time>2026-03-15T07:18:19.000Z</time></trkpt>
<trkpt lat="41.733622" lon="23.524723"><ele>2253.9</ele><time>2026-03-15T07:18:20.000Z</time></trkpt>
<trkpt lat="41.733622" lon="23.524723"><ele>2253.9</ele><time>2026-03-15T07:18:21.000Z</time></trkpt>
<trkpt lat="41.733622" lon="23.524724"><ele>2253.9</ele><time>2026-03-15T07:18:22.000Z</time></trkpt>
<trkpt lat="41.733622" lon="23.524725"><ele>2253.9</ele><time>2026-03-15T07:18:23.000Z</time></trkpt>
<trkpt lat="41.733622" lon="23.524725"><ele>2253.9</ele><time>2026-03-15T07:18:24.000Z</time></trkpt>
<trkpt lat="41.733622" lon="23.524725"><ele>2253.9</ele><time>2026-03-15T07:18:25.000Z</time></trkpt>
<trkpt lat="41.733621" lon="23.524726"><ele>2253.9</ele><time>2026-03-15T07:18:26.000Z</time></trkpt>
<trkpt lat="41.733621" lon="23.524726"><ele>2253.9</ele><time>2026-03-15T07:18:27.000Z</time></trkpt>
<trkpt lat="41.733621" lon="23.524726"><ele>2253.8</ele><time>2026-03-15T07:18:28.000Z</time></trkpt>
<trkpt lat="41.733621" lon="23.524726"><ele>2253.8</ele><time>2026-03-15T07:18:29.000Z</time></trkpt>
<trkpt lat="41.733621" lon="23.524726"><ele>2253.8</ele><time>2026-03-15T07:18:30.000Z</time></trkpt>
<trkpt lat="41.733621" lon="23.524726"><ele>2253.8</ele><time>2026-03-15T07:18:31.000Z</time></trkpt>
<trkpt lat="41.733621" lon="23.524726"><ele>2253.8</ele><time>2026-03-15T07:18:32.000Z</time></trkpt>
<trkpt lat="41.733621" lon="23.524726"><ele>2253.5</ele><time>2026-03-15T07:18:33.000Z</time></trkpt>
<trkpt lat="41.733621" lon="23.524725"><ele>2253.5</ele><time>2026-03-15T07:18:34.000Z</time></trkpt>
<trkpt lat="41.733621" lon="23.524725"><ele>2253.5</ele><time>2026-03-15T07:18:35.000Z</time></trkpt>
<trkpt lat="41.733621" lon="23.524725"><ele>2253.5</ele><time>2026-03-15T07:18:36.000Z</time></trkpt>
<trkpt lat="41.733621" lon="23.524725"><ele>2253.5</ele><time>2026-03-15T07:18:37.000Z</time></trkpt>
<trkpt lat="41.733621" lon="23.524725"><ele>2253.4</ele><time>2026-03-15T07:18:38.000Z</time></trkpt>
<trkpt lat="41.733621" lon="23.524725"><ele>2253.4</ele><time>2026-03-15T07:18:39.000Z</time></trkpt>
<trkpt lat="41.733621" lon="23.524725"><ele>2253.4</ele><time>2026-03-15T07:18:40.000Z</time></trkpt>
<trkpt lat="41.733621" lon="23.524725"><ele>2253.4</ele><time>2026-03-15T07:18:41.000Z</time></trkpt>
<trkpt lat="41.733621" lon="23.524725"><ele>2253.4</ele><time>2026-03-15T07:18:42.000Z</time></trkpt>
<trkpt lat="41.73362" lon="23.524725"><ele>2253.2</ele><time>2026-03-15T07:18:43.000Z</time></trkpt>
<trkpt lat="41.73362" lon="23.524725"><ele>2253.2</ele><time>2026-03-15T07:18:44.000Z</time></trkpt>
<trkpt lat="41.73362" lon="23.524725"><ele>2253.2</ele><time>2026-03-15T07:18:45.000Z</time></trkpt>
<trkpt lat="41.733621" lon="23.524725"><ele>2253.2</ele><time>2026-03-15T07:18:46.000Z</time></trkpt>
<trkpt lat="41.733621" lon="23.524725"><ele>2253.2</ele><time>2026-03-15T07:18:47.000Z</time></trkpt>
<trkpt lat="41.733621" lon="23.524725"><ele>2253.3</ele><time>2026-03-15T07:18:48.000Z</time></trkpt>
<trkpt lat="41.733621" lon="23.524725"><ele>2253.3</ele><time>2026-03-15T07:18:49.000Z</time></trkpt>
<trkpt lat="41.733621" lon="23.524724"><ele>2253.3</ele><time>2026-03-15T07:18:50.000Z</time></trkpt>
<trkpt lat="41.733622" lon="23.524724"><ele>2253.3</ele><time>2026-03-15T07:18:51.000Z</time></trkpt>
<trkpt lat="41.733622" lon="23.524724"><ele>2253.3</ele><time>2026-03-15T07:18:52.000Z</time></trkpt>
<trkpt lat="41.733622" lon="23.524723"><ele>2253.4</ele><time>2026-03-15T07:18:53.000Z</time></trkpt>
<trkpt lat="41.733623" lon="23.524723"><ele>2253.4</ele><time>2026-03-15T07:18:54.000Z</time></trkpt>
<trkpt lat="41.733625" lon="23.524724"><ele>2253.4</ele><time>2026-03-15T07:18:55.000Z</time></trkpt>
<trkpt lat="41.733628" lon="23.524724"><ele>2253.4</ele><time>2026-03-15T07:18:56.000Z</time></trkpt>
<trkpt lat="41.73363" lon="23.524725"><ele>2253.4</ele><time>2026-03-15T07:18:57.000Z</time></trkpt>
<trkpt lat="41.733632" lon="23.524726"><ele>2253.4</ele><time>2026-03-15T07:18:58.000Z</time></trkpt>
<trkpt lat="41.733633" lon="23.524727"><ele>2253.4</ele><time>2026-03-15T07:18:59.000Z</time></trkpt>
<trkpt lat="41.733634" lon="23.524728"><ele>2253.4</ele><time>2026-03-15T07:19:00.000Z</time></trkpt>
<trkpt lat="41.733634" lon="23.524728"><ele>2253.4</ele><time>2026-03-15T07:19:01.000Z</time></trkpt>
<trkpt lat="41.733634" lon="23.524728"><ele>2253.4</ele><time>2026-03-15T07:19:02.000Z</time></trkpt>
<trkpt lat="41.733634" lon="23.524729"><ele>2253.5</ele><time>2026-03-15T07:19:03.000Z</time></trkpt>
<trkpt lat="41.733634" lon="23.524729"><ele>2253.5</ele><time>2026-03-15T07:19:04.000Z</time></trkpt>
<trkpt lat="41.733634" lon="23.524729"><ele>2253.5</ele><time>2026-03-15T07:19:05.000Z</time></trkpt>
<trkpt lat="41.733633" lon="23.524729"><ele>2253.5</ele><time>2026-03-15T07:19:06.000Z</time></trkpt>
<trkpt lat="41.733633" lon="23.524729"><ele>2253.5</ele><time>2026-03-15T07:19:07.000Z</time></trkpt>
<trkpt lat="41.733633" lon="23.52473"><ele>2253.5</ele><time>2026-03-15T07:19:08.000Z</time></trkpt>
<trkpt lat="41.733632" lon="23.52473"><ele>2253.5</ele><time>2026-03-15T07:19:09.000Z</time></trkpt>
<trkpt lat="41.733632" lon="23.52473"><ele>2253.5</ele><time>2026-03-15T07:19:10.000Z</time></trkpt>
<trkpt lat="41.733632" lon="23.52473"><ele>2253.5</ele><time>2026-03-15T07:19:11.000Z</time></trkpt>
<trkpt lat="41.733632" lon="23.52473"><ele>2253.5</ele><time>2026-03-15T07:19:12.000Z</time></trkpt>
<trkpt lat="41.73363" lon="23.52473"><ele>2253.5</ele><time>2026-03-15T07:19:13.000Z</time></trkpt>
<trkpt lat="41.733629" lon="23.524731"><ele>2253.5</ele><time>2026-03-15T07:19:14.000Z</time></trkpt>
<trkpt lat="41.733628" lon="23.524731"><ele>2253.5</ele><time>2026-03-15T07:19:15.000Z</time></trkpt>
<trkpt lat="41.733626" lon="23.524732"><ele>2253.5</ele><time>2026-03-15T07:19:16.000Z</time></trkpt>
<trkpt lat="41.733626" lon="23.524732"><ele>2253.5</ele><time>2026-03-15T07:19:17.000Z</time></trkpt>
<trkpt lat="41.733626" lon="23.524733"><ele>2253.4</ele><time>2026-03-15T07:19:18.000Z</time></trkpt>
<trkpt lat="41.733626" lon="23.524733"><ele>2253.4</ele><time>2026-03-15T07:19:19.000Z</time></trkpt>
<trkpt lat="41.733626" lon="23.524733"><ele>2253.4</ele><time>2026-03-15T07:19:20.000Z</time></trkpt>
<trkpt lat="41.733626" lon="23.524732"><ele>2253.4</ele><time>2026-03-15T07:19:21.000Z</time></trkpt>
<trkpt lat="41.733625" lon="23.524732"><ele>2253.4</ele><time>2026-03-15T07:19:22.000Z</time></trkpt>
<trkpt lat="41.733625" lon="23.524731"><ele>2253.3</ele><time>2026-03-15T07:19:23.000Z</time></trkpt>
<trkpt lat="41.733624" lon="23.52473"><ele>2253.3</ele><time>2026-03-15T07:19:24.000Z</time></trkpt>
<trkpt lat="41.733624" lon="23.524729"><ele>2253.3</ele><time>2026-03-15T07:19:25.000Z</time></trkpt>
<trkpt lat="41.733623" lon="23.524728"><ele>2253.3</ele><time>2026-03-15T07:19:26.000Z</time></trkpt>
<trkpt lat="41.733623" lon="23.524727"><ele>2253.3</ele><time>2026-03-15T07:19:27.000Z</time></trkpt>
<trkpt lat="41.733622" lon="23.524726"><ele>2253.3</ele><time>2026-03-15T07:19:28.000Z</time></trkpt>
<trkpt lat="41.733622" lon="23.524726"><ele>2253.3</ele><time>2026-03-15T07:19:29.000Z</time></trkpt>
<trkpt lat="41.733622" lon="23.524725"><ele>2253.3</ele><time>2026-03-15T07:19:30.000Z</time></trkpt>
<trkpt lat="41.733622" lon="23.524725"><ele>2253.3</ele><time>2026-03-15T07:19:31.000Z</time></trkpt>
<trkpt lat="41.733622" lon="23.524725"><ele>2253.3</ele><time>2026-03-15T07:19:32.000Z</time></trkpt>
<trkpt lat="41.733622" lon="23.524725"><ele>2253.3</ele><time>2026-03-15T07:19:33.000Z</time></trkpt>
<trkpt lat="41.733622" lon="23.524725"><ele>2253.3</ele><time>2026-03-15T07:19:34.000Z</time></trkpt>
<trkpt lat="41.733622" lon="23.524725"><ele>2253.3</ele><time>2026-03-15T07:19:35.000Z</time></trkpt>
<trkpt lat="41.733622" lon="23.524725"><ele>2253.3</ele><time>2026-03-15T07:19:36.000Z</time></trkpt>
<trkpt lat="41.733622" lon="23.524725"><ele>2253.3</ele><time>2026-03-15T07:19:37.000Z</time></trkpt>
<trkpt lat="41.733622" lon="23.524725"><ele>2253.3</ele><time>2026-03-15T07:19:38.000Z</time></trkpt>
<trkpt lat="41.733622" lon="23.524725"><ele>2253.3</ele><time>2026-03-15T07:19:39.000Z</time></trkpt>
<trkpt lat="41.733621" lon="23.524725"><ele>2253.3</ele><time>2026-03-15T07:19:40.000Z</time></trkpt>
<trkpt lat="41.733621" lon="23.524724"><ele>2253.3</ele><time>2026-03-15T07:19:41.000Z</time></trkpt>
<trkpt lat="41.73362" lon="23.524724"><ele>2253.3</ele><time>2026-03-15T07:19:42.000Z</time></trkpt>
<trkpt lat="41.73362" lon="23.524725"><ele>2253.3</ele><time>2026-03-15T07:19:43.000Z</time></trkpt>
<trkpt lat="41.73362" lon="23.524725"><ele>2253.3</ele><time>2026-03-15T07:19:44.000Z</time></trkpt>
<trkpt lat="41.733621" lon="23.524726"><ele>2253.3</ele><time>2026-03-15T07:19:45.000Z</time></trkpt>
<trkpt lat="41.733622" lon="23.524727"><ele>2253.3</ele><time>2026-03-15T07:19:46.000Z</time></trkpt>
<trkpt lat="41.733622" lon="23.524728"><ele>2253.3</ele><time>2026-03-15T07:19:47.000Z</time></trkpt>
<trkpt lat="41.733623" lon="23.524728"><ele>2253.4</ele><time>2026-03-15T07:19:48.000Z</time></trkpt>
<trkpt lat="41.733623" lon="23.524729"><ele>2253.4</ele><time>2026-03-15T07:19:49.000Z</time></trkpt>
<trkpt lat="41.733623" lon="23.524729"><ele>2253.4</ele><time>2026-03-15T07:19:50.000Z</time></trkpt>
<trkpt lat="41.733623" lon="23.524731"><ele>2253.4</ele><time>2026-03-15T07:19:51.000Z</time></trkpt>
<trkpt lat="41.733623" lon="23.524731"><ele>2253.4</ele><time>2026-03-15T07:19:52.000Z</time></trkpt>
<trkpt lat="41.733623" lon="23.524732"><ele>2253.4</ele><time>2026-03-15T07:19:53.000Z</time></trkpt>
<trkpt lat="41.733623" lon="23.524733"><ele>2253.4</ele><time>2026-03-15T07:19:54.000Z</time></trkpt>
<trkpt lat="41.733623" lon="23.524734"><ele>2253.4</ele><time>2026-03-15T07:19:55.000Z</time></trkpt>
<trkpt lat="41.733623" lon="23.524734"><ele>2253.4</ele><time>2026-03-15T07:19:56.000Z</time></trkpt>
<trkpt lat="41.733622" lon="23.524734"><ele>2253.4</ele><time>2026-03-15T07:19:57.000Z</time></trkpt>
<trkpt lat="41.733621" lon="23.524734"><ele>2253.6</ele><time>2026-03-15T07:19:58.000Z</time></trkpt>
<trkpt lat="41.73362" lon="23.524734"><ele>2253.6</ele><time>2026-03-15T07:19:59.000Z</time></trkpt>
<trkpt lat="41.733619" lon="23.524733"><ele>2253.6</ele><time>2026-03-15T07:20:00.000Z</time></trkpt>
<trkpt lat="41.733618" lon="23.524732"><ele>2253.6</ele><time>2026-03-15T07:20:01.000Z</time></trkpt>
<trkpt lat="41.733618" lon="23.524731"><ele>2253.6</ele><time>2026-03-15T07:20:02.000Z</time></trkpt>
<trkpt lat="41.733617" lon="23.52473"><ele>2253.5</ele><time>2026-03-15T07:20:03.000Z</time></trkpt>
<trkpt lat="41.733617" lon="23.52473"><ele>2253.5</ele><time>2026-03-15T07:20:04.000Z</time></trkpt>
<trkpt lat="41.733617" lon="23.52473"><ele>2253.5</ele><time>2026-03-15T07:20:05.000Z</time></trkpt>
<trkpt lat="41.733617" lon="23.52473"><ele>2253.5</ele><time>2026-03-15T07:20:06.000Z</time></trkpt>
<trkpt lat="41.733617" lon="23.524729"><ele>2253.5</ele><time>2026-03-15T07:20:07.000Z</time></trkpt>
<trkpt lat="41.733617" lon="23.524729"><ele>2253.4</ele><time>2026-03-15T07:20:08.000Z</time></trkpt>
<trkpt lat="41.733617" lon="23.524729"><ele>2253.4</ele><time>2026-03-15T07:20:09.000Z</time></trkpt>
<trkpt lat="41.733617" lon="23.524729"><ele>2253.4</ele><time>2026-03-15T07:20:10.000Z</time></trkpt>
<trkpt lat="41.733617" lon="23.524729"><ele>2253.4</ele><time>2026-03-15T07:20:11.000Z</time></trkpt>
<trkpt lat="41.733617" lon="23.524729"><ele>2253.4</ele><time>2026-03-15T07:20:12.000Z</time></trkpt>
<trkpt lat="41.733617" lon="23.52473"><ele>2253.2</ele><time>2026-03-15T07:20:13.000Z</time></trkpt>
<trkpt lat="41.733616" lon="23.52473"><ele>2253.2</ele><time>2026-03-15T07:20:14.000Z</time></trkpt>
<trkpt lat="41.733616" lon="23.52473"><ele>2253.2</ele><time>2026-03-15T07:20:15.000Z</time></trkpt>
<trkpt lat="41.733616" lon="23.52473"><ele>2253.2</ele><time>2026-03-15T07:20:16.000Z</time></trkpt>
<trkpt lat="41.733615" lon="23.52473"><ele>2253.2</ele><time>2026-03-15T07:20:17.000Z</time></trkpt>
<trkpt lat="41.733615" lon="23.52473"><ele>2253.2</ele><time>2026-03-15T07:20:18.000Z</time></trkpt>
<trkpt lat="41.733615" lon="23.52473"><ele>2253.2</ele><time>2026-03-15T07:20:19.000Z</time></trkpt>
<trkpt lat="41.733616" lon="23.524731"><ele>2253.2</ele><time>2026-03-15T07:20:20.000Z</time></trkpt>
<trkpt lat="41.733616" lon="23.524731"><ele>2253.2</ele><time>2026-03-15T07:20:21.000Z</time></trkpt>
<trkpt lat="41.733616" lon="23.524731"><ele>2253.2</ele><time>2026-03-15T07:20:22.000Z</time></trkpt>
<trkpt lat="41.733617" lon="23.524732"><ele>2253.3</ele><time>2026-03-15T07:20:23.000Z</time></trkpt>
<trkpt lat="41.733617" lon="23.524732"><ele>2253.3</ele><time>2026-03-15T07:20:24.000Z</time></trkpt>
<trkpt lat="41.733617" lon="23.524732"><ele>2253.3</ele><time>2026-03-15T07:20:25.000Z</time></trkpt>
<trkpt lat="41.733618" lon="23.524732"><ele>2253.3</ele><time>2026-03-15T07:20:26.000Z</time></trkpt>
<trkpt lat="41.733618" lon="23.524732"><ele>2253.3</ele><time>2026-03-15T07:20:27.000Z</time></trkpt>
<trkpt lat="41.733618" lon="23.524732"><ele>2253.7</ele><time>2026-03-15T07:20:28.000Z</time></trkpt>
<trkpt lat="41.733618" lon="23.524732"><ele>2253.7</ele><time>2026-03-15T07:20:29.000Z</time></trkpt>
<trkpt lat="41.733618" lon="23.524732"><ele>2253.7</ele><time>2026-03-15T07:20:30.000Z</time></trkpt>
<trkpt lat="41.733618" lon="23.524732"><ele>2253.7</ele><time>2026-03-15T07:20:31.000Z</time></trkpt>
<trkpt lat="41.733618" lon="23.524732"><ele>2253.7</ele><time>2026-03-15T07:20:32.000Z</time></trkpt>
<trkpt lat="41.733618" lon="23.524733"><ele>2254.1</ele><time>2026-03-15T07:20:33.000Z</time></trkpt>
<trkpt lat="41.733618" lon="23.524733"><ele>2254.1</ele><time>2026-03-15T07:20:34.000Z</time></trkpt>
<trkpt lat="41.733618" lon="23.524733"><ele>2254.1</ele><time>2026-03-15T07:20:35.000Z</time></trkpt>
<trkpt lat="41.733618" lon="23.524733"><ele>2254.1</ele><time>2026-03-15T07:20:36.000Z</time></trkpt>
<trkpt lat="41.733618" lon="23.524733"><ele>2254.1</ele><time>2026-03-15T07:20:37.000Z</time></trkpt>
<trkpt lat="41.733618" lon="23.524733"><ele>2254.3</ele><time>2026-03-15T07:20:38.000Z</time></trkpt>
<trkpt lat="41.733618" lon="23.524733"><ele>2254.3</ele><time>2026-03-15T07:20:39.000Z</time></trkpt>
<trkpt lat="41.733618" lon="23.524734"><ele>2254.3</ele><time>2026-03-15T07:20:40.000Z</time></trkpt>
<trkpt lat="41.733619" lon="23.524734"><ele>2254.3</ele><time>2026-03-15T07:20:41.000Z</time></trkpt>
<trkpt lat="41.733619" lon="23.524735"><ele>2254.3</ele><time>2026-03-15T07:20:42.000Z</time></trkpt>
<trkpt lat="41.733619" lon="23.524735"><ele>2254.6</ele><time>2026-03-15T07:20:43.000Z</time></trkpt>
<trkpt lat="41.733618" lon="23.524735"><ele>2254.6</ele><time>2026-03-15T07:20:44.000Z</time></trkpt>
<trkpt lat="41.733617" lon="23.524734"><ele>2254.6</ele><time>2026-03-15T07:20:45.000Z</time></trkpt>
<trkpt lat="41.733617" lon="23.524732"><ele>2254.6</ele><time>2026-03-15T07:20:46.000Z</time></trkpt>
<trkpt lat="41.733616" lon="23.52473"><ele>2254.6</ele><time>2026-03-15T07:20:47.000Z</time></trkpt>
<trkpt lat="41.733615" lon="23.524728"><ele>2254.4</ele><time>2026-03-15T07:20:48.000Z</time></trkpt>
<trkpt lat="41.733615" lon="23.524726"><ele>2254.4</ele><time>2026-03-15T07:20:49.000Z</time></trkpt>
<trkpt lat="41.733615" lon="23.524725"><ele>2254.4</ele><time>2026-03-15T07:20:50.000Z</time></trkpt>
<trkpt lat="41.733615" lon="23.524724"><ele>2254.4</ele><time>2026-03-15T07:20:51.000Z</time></trkpt>
<trkpt lat="41.733615" lon="23.524723"><ele>2254.4</ele><time>2026-03-15T07:20:52.000Z</time></trkpt>
<trkpt lat="41.733615" lon="23.524723"><ele>2254.3</ele><time>2026-03-15T07:20:53.000Z</time></trkpt>
<trkpt lat="41.733615" lon="23.524723"><ele>2254.3</ele><time>2026-03-15T07:20:54.000Z</time></trkpt>
<trkpt lat="41.733615" lon="23.524723"><ele>2254.3</ele><time>2026-03-15T07:20:55.000Z</time></trkpt>
<trkpt lat="41.733615" lon="23.524723"><ele>2254.3</ele><time>2026-03-15T07:20:56.000Z</time></trkpt>
<trkpt lat="41.733616" lon="23.524723"><ele>2254.3</ele><time>2026-03-15T07:20:57.000Z</time></trkpt>
<trkpt lat="41.733617" lon="23.524723"><ele>2253.9</ele><time>2026-03-15T07:20:58.000Z</time></trkpt>
<trkpt lat="41.733619" lon="23.524724"><ele>2253.9</ele><time>2026-03-15T07:20:59.000Z</time></trkpt>
<trkpt lat="41.733621" lon="23.524725"><ele>2253.9</ele><time>2026-03-15T07:21:00.000Z</time></trkpt>
<trkpt lat="41.733623" lon="23.524726"><ele>2253.9</ele><time>2026-03-15T07:21:01.000Z</time></trkpt>
<trkpt lat="41.733624" lon="23.524727"><ele>2253.9</ele><time>2026-03-15T07:21:02.000Z</time></trkpt>
<trkpt lat="41.733624" lon="23.524728"><ele>2253.6</ele><time>2026-03-15T07:21:03.000Z</time></trkpt>
<trkpt lat="41.733624" lon="23.524728"><ele>2253.6</ele><time>2026-03-15T07:21:04.000Z</time></trkpt>
<trkpt lat="41.733624" lon="23.524728"><ele>2253.6</ele><time>2026-03-15T07:21:05.000Z</time></trkpt>
<trkpt lat="41.733624" lon="23.524728"><ele>2253.6</ele><time>2026-03-15T07:21:06.000Z</time></trkpt>
<trkpt lat="41.733624" lon="23.524728"><ele>2253.6</ele><time>2026-03-15T07:21:07.000Z</time></trkpt>
<trkpt lat="41.733624" lon="23.524728"><ele>2253.4</ele><time>2026-03-15T07:21:08.000Z</time></trkpt>
<trkpt lat="41.733624" lon="23.524728"><ele>2253.4</ele><time>2026-03-15T07:21:09.000Z</time></trkpt>
<trkpt lat="41.733624" lon="23.524728"><ele>2253.4</ele><time>2026-03-15T07:21:10.000Z</time></trkpt>
<trkpt lat="41.733624" lon="23.524728"><ele>2253.4</ele><time>2026-03-15T07:21:11.000Z</time></trkpt>
<trkpt lat="41.733624" lon="23.524728"><ele>2253.4</ele><time>2026-03-15T07:21:12.000Z</time></trkpt>
<trkpt lat="41.733624" lon="23.524728"><ele>2253.1</ele><time>2026-03-15T07:21:13.000Z</time></trkpt>
<trkpt lat="41.733624" lon="23.524728"><ele>2253.1</ele><time>2026-03-15T07:21:14.000Z</time></trkpt>
<trkpt lat="41.733624" lon="23.524728"><ele>2253.1</ele><time>2026-03-15T07:21:15.000Z</time></trkpt>
<trkpt lat="41.733624" lon="23.524728"><ele>2253.1</ele><time>2026-03-15T07:21:16.000Z</time></trkpt>
<trkpt lat="41.733624" lon="23.524728"><ele>2253.1</ele><time>2026-03-15T07:21:17.000Z</time></trkpt>
<trkpt lat="41.733624" lon="23.524728"><ele>2253</ele><time>2026-03-15T07:21:18.000Z</time></trkpt>
<trkpt lat="41.733624" lon="23.524728"><ele>2253</ele><time>2026-03-15T07:21:19.000Z</time></trkpt>
<trkpt lat="41.733624" lon="23.524728"><ele>2253</ele><time>2026-03-15T07:21:20.000Z</time></trkpt>
<trkpt lat="41.733623" lon="23.524729"><ele>2253</ele><time>2026-03-15T07:21:21.000Z</time></trkpt>
<trkpt lat="41.733623" lon="23.52473"><ele>2253</ele><time>2026-03-15T07:21:22.000Z</time></trkpt>
<trkpt lat="41.733622" lon="23.52473"><ele>2253.1</ele><time>2026-03-15T07:21:23.000Z</time></trkpt>
<trkpt lat="41.733621" lon="23.52473"><ele>2253.1</ele><time>2026-03-15T07:21:24.000Z</time></trkpt>
<trkpt lat="41.73362" lon="23.52473"><ele>2253.1</ele><time>2026-03-15T07:21:25.000Z</time></trkpt>
<trkpt lat="41.73362" lon="23.524728"><ele>2253.1</ele><time>2026-03-15T07:21:26.000Z</time></trkpt>
<trkpt lat="41.73362" lon="23.524726"><ele>2253.1</ele><time>2026-03-15T07:21:27.000Z</time></trkpt>
<trkpt lat="41.73362" lon="23.524726"><ele>2253.3</ele><time>2026-03-15T07:21:28.000Z</time></trkpt>
<trkpt lat="41.73362" lon="23.524724"><ele>2253.3</ele><time>2026-03-15T07:21:29.000Z</time></trkpt>
<trkpt lat="41.73362" lon="23.524724"><ele>2253.3</ele><time>2026-03-15T07:21:30.000Z</time></trkpt>
<trkpt lat="41.733621" lon="23.524724"><ele>2253.3</ele><time>2026-03-15T07:21:31.000Z</time></trkpt>
<trkpt lat="41.733622" lon="23.524724"><ele>2253.3</ele><time>2026-03-15T07:21:32.000Z</time></trkpt>
<trkpt lat="41.733622" lon="23.524724"><ele>2253.4</ele><time>2026-03-15T07:21:33.000Z</time></trkpt>
<trkpt lat="41.733623" lon="23.524724"><ele>2253.4</ele><time>2026-03-15T07:21:34.000Z</time></trkpt>
<trkpt lat="41.733623" lon="23.524724"><ele>2253.4</ele><time>2026-03-15T07:21:35.000Z</time></trkpt>
<trkpt lat="41.733623" lon="23.524724"><ele>2253.4</ele><time>2026-03-15T07:21:36.000Z</time></trkpt>
<trkpt lat="41.733623" lon="23.524723"><ele>2253.4</ele><time>2026-03-15T07:21:37.000Z</time></trkpt>
<trkpt lat="41.733623" lon="23.524724"><ele>2253.4</ele><time>2026-03-15T07:21:38.000Z</time></trkpt>
<trkpt lat="41.733623" lon="23.524724"><ele>2253.4</ele><time>2026-03-15T07:21:39.000Z</time></trkpt>
<trkpt lat="41.733623" lon="23.524724"><ele>2253.4</ele><time>2026-03-15T07:21:40.000Z</time></trkpt>
<trkpt lat="41.733623" lon="23.524724"><ele>2253.4</ele><time>2026-03-15T07:21:41.000Z</time></trkpt>
<trkpt lat="41.733623" lon="23.524724"><ele>2253.4</ele><time>2026-03-15T07:21:42.000Z</time></trkpt>
<trkpt lat="41.733622" lon="23.524724"><ele>2253.4</ele><time>2026-03-15T07:21:43.000Z</time></trkpt>
<trkpt lat="41.733622" lon="23.524724"><ele>2253.4</ele><time>2026-03-15T07:21:44.000Z</time></trkpt>
<trkpt lat="41.733621" lon="23.524724"><ele>2253.4</ele><time>2026-03-15T07:21:45.000Z</time></trkpt>
<trkpt lat="41.733621" lon="23.524724"><ele>2253.4</ele><time>2026-03-15T07:21:46.000Z</time></trkpt>
<trkpt lat="41.733622" lon="23.524724"><ele>2253.4</ele><time>2026-03-15T07:21:47.000Z</time></trkpt>
<trkpt lat="41.733622" lon="23.524724"><ele>2253.6</ele><time>2026-03-15T07:21:48.000Z</time></trkpt>
<trkpt lat="41.733622" lon="23.524723"><ele>2253.6</ele><time>2026-03-15T07:21:49.000Z</time></trkpt>
<trkpt lat="41.733622" lon="23.524723"><ele>2253.6</ele><time>2026-03-15T07:21:50.000Z</time></trkpt>
<trkpt lat="41.733622" lon="23.524723"><ele>2253.6</ele><time>2026-03-15T07:21:51.000Z</time></trkpt>
<trkpt lat="41.733622" lon="23.524723"><ele>2253.6</ele><time>2026-03-15T07:21:52.000Z</time></trkpt>
<trkpt lat="41.733622" lon="23.524723"><ele>2253.8</ele><time>2026-03-15T07:21:53.000Z</time></trkpt>
<trkpt lat="41.733622" lon="23.524723"><ele>2253.8</ele><time>2026-03-15T07:21:54.000Z</time></trkpt>
<trkpt lat="41.733622" lon="23.524723"><ele>2253.8</ele><time>2026-03-15T07:21:55.000Z</time></trkpt>
<trkpt lat="41.733622" lon="23.524723"><ele>2253.8</ele><time>2026-03-15T07:21:56.000Z</time></trkpt>
<trkpt lat="41.733622" lon="23.524723"><ele>2253.8</ele><time>2026-03-15T07:21:57.000Z</time></trkpt>
<trkpt lat="41.733622" lon="23.524723"><ele>2253.8</ele><time>2026-03-15T07:21:58.000Z</time></trkpt>
<trkpt lat="41.733622" lon="23.524723"><ele>2253.8</ele><time>2026-03-15T07:21:59.000Z</time></trkpt>
<trkpt lat="41.733622" lon="23.524723"><ele>2253.8</ele><time>2026-03-15T07:22:00.000Z</time></trkpt>
<trkpt lat="41.733622" lon="23.524723"><ele>2253.8</ele><time>2026-03-15T07:22:01.000Z</time></trkpt>
<trkpt lat="41.733622" lon="23.524723"><ele>2253.8</ele><time>2026-03-15T07:22:02.000Z</time></trkpt>
<trkpt lat="41.733622" lon="23.524723"><ele>2253.6</ele><time>2026-03-15T07:22:03.000Z</time></trkpt>
<trkpt lat="41.733622" lon="23.524723"><ele>2253.6</ele><time>2026-03-15T07:22:04.000Z</time></trkpt>
<trkpt lat="41.733622" lon="23.524723"><ele>2253.6</ele><time>2026-03-15T07:22:05.000Z</time></trkpt>
<trkpt lat="41.733622" lon="23.524723"><ele>2253.6</ele><time>2026-03-15T07:22:06.000Z</time></trkpt>
<trkpt lat="41.733622" lon="23.524723"><ele>2253.6</ele><time>2026-03-15T07:22:07.000Z</time></trkpt>
<trkpt lat="41.733622" lon="23.524723"><ele>2253.5</ele><time>2026-03-15T07:22:08.000Z</time></trkpt>
<trkpt lat="41.733622" lon="23.524723"><ele>2253.5</ele><time>2026-03-15T07:22:09.000Z</time></trkpt>
<trkpt lat="41.733622" lon="23.524723"><ele>2253.5</ele><time>2026-03-15T07:22:10.000Z</time></trkpt>
<trkpt lat="41.733622" lon="23.524723"><ele>2253.5</ele><time>2026-03-15T07:22:11.000Z</time></trkpt>
<trkpt lat="41.733622" lon="23.524723"><ele>2253.5</ele><time>2026-03-15T07:22:12.000Z</time></trkpt>
<trkpt lat="41.733622" lon="23.524723"><ele>2253.3</ele><time>2026-03-15T07:22:13.000Z</time></trkpt>
<trkpt lat="41.733621" lon="23.524723"><ele>2253.3</ele><time>2026-03-15T07:22:14.000Z</time></trkpt>
<trkpt lat="41.733621" lon="23.524722"><ele>2253.3</ele><time>2026-03-15T07:22:15.000Z</time></trkpt>
<trkpt lat="41.73362" lon="23.524722"><ele>2253.3</ele><time>2026-03-15T07:22:16.000Z</time></trkpt>
<trkpt lat="41.73362" lon="23.524721"><ele>2253.3</ele><time>2026-03-15T07:22:17.000Z</time></trkpt>
<trkpt lat="41.733619" lon="23.52472"><ele>2253.3</ele><time>2026-03-15T07:22:18.000Z</time></trkpt>
<trkpt lat="41.733619" lon="23.524719"><ele>2253.3</ele><time>2026-03-15T07:22:19.000Z</time></trkpt>
<trkpt lat="41.733618" lon="23.524718"><ele>2253.3</ele><time>2026-03-15T07:22:20.000Z</time></trkpt>
<trkpt lat="41.733618" lon="23.524717"><ele>2253.3</ele><time>2026-03-15T07:22:21.000Z</time></trkpt>
<trkpt lat="41.733617" lon="23.524717"><ele>2253.3</ele><time>2026-03-15T07:22:22.000Z</time></trkpt>
<trkpt lat="41.733617" lon="23.524716"><ele>2253.2</ele><time>2026-03-15T07:22:23.000Z</time></trkpt>
<trkpt lat="41.733617" lon="23.524716"><ele>2253.2</ele><time>2026-03-15T07:22:24.000Z</time></trkpt>
<trkpt lat="41.733617" lon="23.524716"><ele>2253.2</ele><time>2026-03-15T07:22:25.000Z</time></trkpt>
<trkpt lat="41.733616" lon="23.524716"><ele>2253.2</ele><time>2026-03-15T07:22:26.000Z</time></trkpt>
<trkpt lat="41.733614" lon="23.524716"><ele>2253.2</ele><time>2026-03-15T07:22:27.000Z</time></trkpt>
<trkpt lat="41.733613" lon="23.524716"><ele>2253.2</ele><time>2026-03-15T07:22:28.000Z</time></trkpt>
<trkpt lat="41.733611" lon="23.524716"><ele>2253.2</ele><time>2026-03-15T07:22:29.000Z</time></trkpt>
<trkpt lat="41.733609" lon="23.524715"><ele>2253.2</ele><time>2026-03-15T07:22:30.000Z</time></trkpt>
<trkpt lat="41.733608" lon="23.524714"><ele>2253.2</ele><time>2026-03-15T07:22:31.000Z</time></trkpt>
<trkpt lat="41.733606" lon="23.524713"><ele>2253.2</ele><time>2026-03-15T07:22:32.000Z</time></trkpt>
<trkpt lat="41.733603" lon="23.52471"><ele>2253.2</ele><time>2026-03-15T07:22:33.000Z</time></trkpt>
<trkpt lat="41.7336" lon="23.52471"><ele>2253.2</ele><time>2026-03-15T07:22:34.000Z</time></trkpt>
<trkpt lat="41.733597" lon="23.52471"><ele>2253.2</ele><time>2026-03-15T07:22:35.000Z</time></trkpt>
<trkpt lat="41.733595" lon="23.52471"><ele>2253.2</ele><time>2026-03-15T07:22:36.000Z</time></trkpt>
<trkpt lat="41.733592" lon="23.52471"><ele>2253.2</ele><time>2026-03-15T07:22:37.000Z</time></trkpt>
<trkpt lat="41.733591" lon="23.524711"><ele>2253.3</ele><time>2026-03-15T07:22:38.000Z</time></trkpt>
<trkpt lat="41.73359" lon="23.524712"><ele>2253.3</ele><time>2026-03-15T07:22:39.000Z</time></trkpt>
<trkpt lat="41.733588" lon="23.524713"><ele>2253.3</ele><time>2026-03-15T07:22:40.000Z</time></trkpt>
<trkpt lat="41.733587" lon="23.524714"><ele>2253.3</ele><time>2026-03-15T07:22:41.000Z</time></trkpt>
<trkpt lat="41.733587" lon="23.524714"><ele>2253.3</ele><time>2026-03-15T07:22:42.000Z</time></trkpt>
<trkpt lat="41.733587" lon="23.524714"><ele>2253.6</ele><time>2026-03-15T07:22:43.000Z</time></trkpt>
<trkpt lat="41.733588" lon="23.524714"><ele>2253.6</ele><time>2026-03-15T07:22:44.000Z</time></trkpt>
<trkpt lat="41.733589" lon="23.524715"><ele>2253.6</ele><time>2026-03-15T07:22:45.000Z</time></trkpt>
<trkpt lat="41.733602" lon="23.524734"><ele>2253</ele><time>2026-03-15T07:30:54.000Z</time></trkpt>
<trkpt lat="41.733602" lon="23.524734"><ele>2253</ele><time>2026-03-15T07:30:55.000Z</time></trkpt>
<trkpt lat="41.733604" lon="23.524736"><ele>2253</ele><time>2026-03-15T07:30:56.000Z</time></trkpt>
<trkpt lat="41.733604" lon="23.524736"><ele>2253</ele><time>2026-03-15T07:30:57.000Z</time></trkpt>
<trkpt lat="41.733605" lon="23.524737"><ele>2253</ele><time>2026-03-15T07:30:58.000Z</time></trkpt>
<trkpt lat="41.733605" lon="23.524736"><ele>2252.9</ele><time>2026-03-15T07:30:59.000Z</time></trkpt>
<trkpt lat="41.733604" lon="23.524736"><ele>2252.8</ele><time>2026-03-15T07:31:00.000Z</time></trkpt>
<trkpt lat="41.733604" lon="23.524735"><ele>2252.7</ele><time>2026-03-15T07:31:01.000Z</time></trkpt>
<trkpt lat="41.733604" lon="23.524734"><ele>2252.5</ele><time>2026-03-15T07:31:02.000Z</time></trkpt>
<trkpt lat="41.733605" lon="23.524734"><ele>2252.4</ele><time>2026-03-15T07:31:03.000Z</time></trkpt>
<trkpt lat="41.733606" lon="23.524733"><ele>2252.4</ele><time>2026-03-15T07:31:04.000Z</time></trkpt>
<trkpt lat="41.733606" lon="23.524733"><ele>2252.4</ele><time>2026-03-15T07:31:05.000Z</time></trkpt>
<trkpt lat="41.733607" lon="23.524733"><ele>2252.4</ele><time>2026-03-15T07:31:06.000Z</time></trkpt>
<trkpt lat="41.733607" lon="23.524733"><ele>2252.3</ele><time>2026-03-15T07:31:07.000Z</time></trkpt>
<trkpt lat="41.733607" lon="23.524733"><ele>2252.3</ele><time>2026-03-15T07:31:08.000Z</time></trkpt>
<trkpt lat="41.733607" lon="23.524734"><ele>2252.3</ele><time>2026-03-15T07:31:09.000Z</time></trkpt>
<trkpt lat="41.733607" lon="23.524734"><ele>2252.4</ele><time>2026-03-15T07:31:10.000Z</time></trkpt>
<trkpt lat="41.733607" lon="23.524734"><ele>2252.5</ele><time>2026-03-15T07:31:11.000Z</time></trkpt>
<trkpt lat="41.733607" lon="23.524734"><ele>2252.6</ele><time>2026-03-15T07:31:12.000Z</time></trkpt>
<trkpt lat="41.733607" lon="23.524734"><ele>2253</ele><time>2026-03-15T07:31:13.000Z</time></trkpt>
<trkpt lat="41.733607" lon="23.524734"><ele>2253.4</ele><time>2026-03-15T07:31:14.000Z</time></trkpt>
<trkpt lat="41.733607" lon="23.524735"><ele>2253.7</ele><time>2026-03-15T07:31:15.000Z</time></trkpt>
<trkpt lat="41.733607" lon="23.524735"><ele>2254.4</ele><time>2026-03-15T07:31:16.000Z</time></trkpt>
<trkpt lat="41.733607" lon="23.524735"><ele>2255.3</ele><time>2026-03-15T07:31:17.000Z</time></trkpt>
<trkpt lat="41.733607" lon="23.524735"><ele>2255.8</ele><time>2026-03-15T07:31:18.000Z</time></trkpt>
<trkpt lat="41.733607" lon="23.524735"><ele>2256.8</ele><time>2026-03-15T07:31:19.000Z</time></trkpt>
<trkpt lat="41.733607" lon="23.524735"><ele>2257.4</ele><time>2026-03-15T07:31:20.000Z</time></trkpt>
<trkpt lat="41.733607" lon="23.524735"><ele>2257.6</ele><time>2026-03-15T07:31:21.000Z</time></trkpt>
<trkpt lat="41.733607" lon="23.524735"><ele>2257.9</ele><time>2026-03-15T07:31:22.000Z</time></trkpt>
<trkpt lat="41.733607" lon="23.524737"><ele>2258</ele><time>2026-03-15T07:31:23.000Z</time></trkpt>
<trkpt lat="41.733608" lon="23.524741"><ele>2258</ele><time>2026-03-15T07:31:24.000Z</time></trkpt>
<trkpt lat="41.733607" lon="23.524748"><ele>2258.1</ele><time>2026-03-15T07:31:25.000Z</time></trkpt>
<trkpt lat="41.733605" lon="23.524756"><ele>2258.4</ele><time>2026-03-15T07:31:26.000Z</time></trkpt>
<trkpt lat="41.733602" lon="23.524768"><ele>2258.6</ele><time>2026-03-15T07:31:27.000Z</time></trkpt>
<trkpt lat="41.733596" lon="23.52478"><ele>2259</ele><time>2026-03-15T07:31:28.000Z</time></trkpt>
<trkpt lat="41.733588" lon="23.52479"><ele>2259.3</ele><time>2026-03-15T07:31:29.000Z</time></trkpt>
<trkpt lat="41.733579" lon="23.524799"><ele>2259.4</ele><time>2026-03-15T07:31:30.000Z</time></trkpt>
<trkpt lat="41.733569" lon="23.524805"><ele>2259.8</ele><time>2026-03-15T07:31:31.000Z</time></trkpt>
<trkpt lat="41.73356" lon="23.524808"><ele>2260</ele><time>2026-03-15T07:31:32.000Z</time></trkpt>
<trkpt lat="41.733552" lon="23.524809"><ele>2260.2</ele><time>2026-03-15T07:31:33.000Z</time></trkpt>
<trkpt lat="41.733546" lon="23.52481"><ele>2260.5</ele><time>2026-03-15T07:31:34.000Z</time></trkpt>
<trkpt lat="41.73354" lon="23.524811"><ele>2260.8</ele><time>2026-03-15T07:31:35.000Z</time></trkpt>
<trkpt lat="41.733533" lon="23.524812"><ele>2261</ele><time>2026-03-15T07:31:36.000Z</time></trkpt>
<trkpt lat="41.733525" lon="23.524813"><ele>2261</ele><time>2026-03-15T07:31:37.000Z</time></trkpt>
<trkpt lat="41.733516" lon="23.524817"><ele>2261</ele><time>2026-03-15T07:31:38.000Z</time></trkpt>
<trkpt lat="41.733506" lon="23.52482"><ele>2261</ele><time>2026-03-15T07:31:39.000Z</time></trkpt>
<trkpt lat="41.733495" lon="23.524824"><ele>2261</ele><time>2026-03-15T07:31:40.000Z</time></trkpt>
<trkpt lat="41.733485" lon="23.524827"><ele>2261.1</ele><time>2026-03-15T07:31:41.000Z</time></trkpt>
<trkpt lat="41.733475" lon="23.52483"><ele>2261.2</ele><time>2026-03-15T07:31:42.000Z</time></trkpt>
<trkpt lat="41.733465" lon="23.524832"><ele>2261.5</ele><time>2026-03-15T07:31:43.000Z</time></trkpt>
<trkpt lat="41.733455" lon="23.524833"><ele>2262</ele><time>2026-03-15T07:31:44.000Z</time></trkpt>
<trkpt lat="41.733444" lon="23.524833"><ele>2262.4</ele><time>2026-03-15T07:31:45.000Z</time></trkpt>
<trkpt lat="41.733433" lon="23.524835"><ele>2263</ele><time>2026-03-15T07:31:46.000Z</time></trkpt>
<trkpt lat="41.733423" lon="23.524837"><ele>2263.6</ele><time>2026-03-15T07:31:47.000Z</time></trkpt>
<trkpt lat="41.733411" lon="23.52484"><ele>2263.8</ele><time>2026-03-15T07:31:48.000Z</time></trkpt>
<trkpt lat="41.7334" lon="23.524844"><ele>2264.5</ele><time>2026-03-15T07:31:49.000Z</time></trkpt>
<trkpt lat="41.733389" lon="23.524849"><ele>2265.1</ele><time>2026-03-15T07:31:50.000Z</time></trkpt>
<trkpt lat="41.733378" lon="23.524855"><ele>2265.4</ele><time>2026-03-15T07:31:51.000Z</time></trkpt>
<trkpt lat="41.733368" lon="23.524862"><ele>2265.8</ele><time>2026-03-15T07:31:52.000Z</time></trkpt>
<trkpt lat="41.733358" lon="23.524869"><ele>2266</ele><time>2026-03-15T07:31:53.000Z</time></trkpt>
<trkpt lat="41.733347" lon="23.524876"><ele>2266.1</ele><time>2026-03-15T07:31:54.000Z</time></trkpt>
<trkpt lat="41.733336" lon="23.524882"><ele>2266.5</ele><time>2026-03-15T07:31:55.000Z</time></trkpt>
<trkpt lat="41.733324" lon="23.524888"><ele>2267.1</ele><time>2026-03-15T07:31:56.000Z</time></trkpt>
<trkpt lat="41.733311" lon="23.524894"><ele>2267.5</ele><time>2026-03-15T07:31:57.000Z</time></trkpt>
<trkpt lat="41.733298" lon="23.5249"><ele>2268.3</ele><time>2026-03-15T07:31:58.000Z</time></trkpt>
<trkpt lat="41.733285" lon="23.524905"><ele>2269.1</ele><time>2026-03-15T07:31:59.000Z</time></trkpt>
<trkpt lat="41.733273" lon="23.52491"><ele>2269.5</ele><time>2026-03-15T07:32:00.000Z</time></trkpt>
<trkpt lat="41.73326" lon="23.524914"><ele>2270.3</ele><time>2026-03-15T07:32:01.000Z</time></trkpt>
<trkpt lat="41.733247" lon="23.524918"><ele>2271.1</ele><time>2026-03-15T07:32:02.000Z</time></trkpt>
<trkpt lat="41.733234" lon="23.524922"><ele>2271.6</ele><time>2026-03-15T07:32:03.000Z</time></trkpt>
<trkpt lat="41.733221" lon="23.524926"><ele>2272.4</ele><time>2026-03-15T07:32:04.000Z</time></trkpt>
<trkpt lat="41.733208" lon="23.524929"><ele>2273</ele><time>2026-03-15T07:32:05.000Z</time></trkpt>
<trkpt lat="41.733197" lon="23.524933"><ele>2273.3</ele><time>2026-03-15T07:32:06.000Z</time></trkpt>
<trkpt lat="41.733186" lon="23.524937"><ele>2273.7</ele><time>2026-03-15T07:32:07.000Z</time></trkpt>
<trkpt lat="41.733175" lon="23.52494"><ele>2274.3</ele><time>2026-03-15T07:32:08.000Z</time></trkpt>
<trkpt lat="41.733164" lon="23.524943"><ele>2274.7</ele><time>2026-03-15T07:32:09.000Z</time></trkpt>
<trkpt lat="41.733152" lon="23.524947"><ele>2275.5</ele><time>2026-03-15T07:32:10.000Z</time></trkpt>
<trkpt lat="41.73314" lon="23.52495"><ele>2276.1</ele><time>2026-03-15T07:32:11.000Z</time></trkpt>
<trkpt lat="41.733128" lon="23.524955"><ele>2276.4</ele><time>2026-03-15T07:32:12.000Z</time></trkpt>
<trkpt lat="41.733116" lon="23.524959"><ele>2276.9</ele><time>2026-03-15T07:32:13.000Z</time></trkpt>
<trkpt lat="41.733105" lon="23.524963"><ele>2277.4</ele><time>2026-03-15T07:32:14.000Z</time></trkpt>
<trkpt lat="41.733094" lon="23.524967"><ele>2277.7</ele><time>2026-03-15T07:32:15.000Z</time></trkpt>
<trkpt lat="41.733082" lon="23.52497"><ele>2278.2</ele><time>2026-03-15T07:32:16.000Z</time></trkpt>
<trkpt lat="41.73307" lon="23.524972"><ele>2278.9</ele><time>2026-03-15T07:32:17.000Z</time></trkpt>
<trkpt lat="41.733059" lon="23.524975"><ele>2279.3</ele><time>2026-03-15T07:32:18.000Z</time></trkpt>
<trkpt lat="41.733047" lon="23.524978"><ele>2280</ele><time>2026-03-15T07:32:19.000Z</time></trkpt>
<trkpt lat="41.733035" lon="23.524982"><ele>2280.8</ele><time>2026-03-15T07:32:20.000Z</time></trkpt>
<trkpt lat="41.733024" lon="23.524986"><ele>2281.1</ele><time>2026-03-15T07:32:21.000Z</time></trkpt>
<trkpt lat="41.733013" lon="23.52499"><ele>2281.8</ele><time>2026-03-15T07:32:22.000Z</time></trkpt>
<trkpt lat="41.733002" lon="23.524994"><ele>2282.5</ele><time>2026-03-15T07:32:23.000Z</time></trkpt>
<trkpt lat="41.732991" lon="23.524998"><ele>2282.8</ele><time>2026-03-15T07:32:24.000Z</time></trkpt>
<trkpt lat="41.73298" lon="23.525004"><ele>2283.3</ele><time>2026-03-15T07:32:25.000Z</time></trkpt>
<trkpt lat="41.73297" lon="23.525009"><ele>2283.9</ele><time>2026-03-15T07:32:26.000Z</time></trkpt>
<trkpt lat="41.73296" lon="23.525016"><ele>2284.2</ele><time>2026-03-15T07:32:27.000Z</time></trkpt>
<trkpt lat="41.73295" lon="23.525022"><ele>2285</ele><time>2026-03-15T07:32:28.000Z</time></trkpt>
<trkpt lat="41.732941" lon="23.525028"><ele>2285.7</ele><time>2026-03-15T07:32:29.000Z</time></trkpt>
<trkpt lat="41.732932" lon="23.525034"><ele>2286</ele><time>2026-03-15T07:32:30.000Z</time></trkpt>
<trkpt lat="41.732922" lon="23.52504"><ele>2286.7</ele><time>2026-03-15T07:32:31.000Z</time></trkpt>
<trkpt lat="41.732912" lon="23.525044"><ele>2287.6</ele><time>2026-03-15T07:32:32.000Z</time></trkpt>
<trkpt lat="41.732902" lon="23.525048"><ele>2287.6</ele><time>2026-03-15T07:32:33.000Z</time></trkpt>
<trkpt lat="41.732891" lon="23.525052"><ele>2287.6</ele><time>2026-03-15T07:32:34.000Z</time></trkpt>
<trkpt lat="41.732881" lon="23.525056"><ele>2287.6</ele><time>2026-03-15T07:32:35.000Z</time></trkpt>
<trkpt lat="41.732871" lon="23.52506"><ele>2287.6</ele><time>2026-03-15T07:32:36.000Z</time></trkpt>
<trkpt lat="41.732861" lon="23.525064"><ele>2287.6</ele><time>2026-03-15T07:32:37.000Z</time></trkpt>
<trkpt lat="41.732851" lon="23.525068"><ele>2287.6</ele><time>2026-03-15T07:32:38.000Z</time></trkpt>
<trkpt lat="41.732842" lon="23.525073"><ele>2287.6</ele><time>2026-03-15T07:32:39.000Z</time></trkpt>
<trkpt lat="41.732833" lon="23.525078"><ele>2287.6</ele><time>2026-03-15T07:32:40.000Z</time></trkpt>
<trkpt lat="41.732826" lon="23.525082"><ele>2287.6</ele><time>2026-03-15T07:32:41.000Z</time></trkpt>
<trkpt lat="41.732818" lon="23.525087"><ele>2287.6</ele><time>2026-03-15T07:32:42.000Z</time></trkpt>
<trkpt lat="41.732811" lon="23.525091"><ele>2287.6</ele><time>2026-03-15T07:32:43.000Z</time></trkpt>
<trkpt lat="41.732804" lon="23.525096"><ele>2287.6</ele><time>2026-03-15T07:32:44.000Z</time></trkpt>
<trkpt lat="41.732797" lon="23.525099"><ele>2287.6</ele><time>2026-03-15T07:32:45.000Z</time></trkpt>
<trkpt lat="41.732789" lon="23.525101"><ele>2287.6</ele><time>2026-03-15T07:32:46.000Z</time></trkpt>
<trkpt lat="41.732781" lon="23.525103"><ele>2287.6</ele><time>2026-03-15T07:32:47.000Z</time></trkpt>
<trkpt lat="41.732773" lon="23.525105"><ele>2287.6</ele><time>2026-03-15T07:32:48.000Z</time></trkpt>
<trkpt lat="41.732764" lon="23.525106"><ele>2287.6</ele><time>2026-03-15T07:32:49.000Z</time></trkpt>
<trkpt lat="41.732755" lon="23.525107"><ele>2287.6</ele><time>2026-03-15T07:32:50.000Z</time></trkpt>
<trkpt lat="41.732746" lon="23.525108"><ele>2287.6</ele><time>2026-03-15T07:32:51.000Z</time></trkpt>
<trkpt lat="41.732736" lon="23.525109"><ele>2287.6</ele><time>2026-03-15T07:32:52.000Z</time></trkpt>
<trkpt lat="41.732727" lon="23.525111"><ele>2287.6</ele><time>2026-03-15T07:32:53.000Z</time></trkpt>
<trkpt lat="41.732717" lon="23.525112"><ele>2287.6</ele><time>2026-03-15T07:32:54.000Z</time></trkpt>
<trkpt lat="41.732708" lon="23.525113"><ele>2287.6</ele><time>2026-03-15T07:32:55.000Z</time></trkpt>
<trkpt lat="41.732698" lon="23.525113"><ele>2287.6</ele><time>2026-03-15T07:32:56.000Z</time></trkpt>
<trkpt lat="41.732689" lon="23.525113"><ele>2287.6</ele><time>2026-03-15T07:32:57.000Z</time></trkpt>
<trkpt lat="41.73268" lon="23.525113"><ele>2287.6</ele><time>2026-03-15T07:32:58.000Z</time></trkpt>
<trkpt lat="41.73267" lon="23.525113"><ele>2287.6</ele><time>2026-03-15T07:32:59.000Z</time></trkpt>
<trkpt lat="41.73266" lon="23.525114"><ele>2287.6</ele><time>2026-03-15T07:33:00.000Z</time></trkpt>
<trkpt lat="41.73265" lon="23.525114"><ele>2287.6</ele><time>2026-03-15T07:33:01.000Z</time></trkpt>
<trkpt lat="41.73264" lon="23.525115"><ele>2287.6</ele><time>2026-03-15T07:33:02.000Z</time></trkpt>
<trkpt lat="41.73263" lon="23.525115"><ele>2287.6</ele><time>2026-03-15T07:33:03.000Z</time></trkpt>
<trkpt lat="41.732621" lon="23.525115"><ele>2287.6</ele><time>2026-03-15T07:33:04.000Z</time></trkpt>
<trkpt lat="41.732611" lon="23.525116"><ele>2287.6</ele><time>2026-03-15T07:33:05.000Z</time></trkpt>
<trkpt lat="41.732601" lon="23.525117"><ele>2287.6</ele><time>2026-03-15T07:33:06.000Z</time></trkpt>
<trkpt lat="41.732591" lon="23.525119"><ele>2287.6</ele><time>2026-03-15T07:33:07.000Z</time></trkpt>
<trkpt lat="41.73258" lon="23.525121"><ele>2287.6</ele><time>2026-03-15T07:33:08.000Z</time></trkpt>
<trkpt lat="41.732568" lon="23.525124"><ele>2287.6</ele><time>2026-03-15T07:33:09.000Z</time></trkpt>
<trkpt lat="41.732557" lon="23.525126"><ele>2287.6</ele><time>2026-03-15T07:33:10.000Z</time></trkpt>
<trkpt lat="41.732546" lon="23.525129"><ele>2287.6</ele><time>2026-03-15T07:33:11.000Z</time></trkpt>
<trkpt lat="41.732535" lon="23.525131"><ele>2287.6</ele><time>2026-03-15T07:33:12.000Z</time></trkpt>
<trkpt lat="41.732523" lon="23.525133"><ele>2287.6</ele><time>2026-03-15T07:33:13.000Z</time></trkpt>
<trkpt lat="41.732512" lon="23.525135"><ele>2287.6</ele><time>2026-03-15T07:33:14.000Z</time></trkpt>
<trkpt lat="41.7325" lon="23.525138"><ele>2287.6</ele><time>2026-03-15T07:33:15.000Z</time></trkpt>
<trkpt lat="41.732489" lon="23.52514"><ele>2287.6</ele><time>2026-03-15T07:33:16.000Z</time></trkpt>
<trkpt lat="41.732479" lon="23.525143"><ele>2287.6</ele><time>2026-03-15T07:33:17.000Z</time></trkpt>
<trkpt lat="41.732468" lon="23.525145"><ele>2287.6</ele><time>2026-03-15T07:33:18.000Z</time></trkpt>
<trkpt lat="41.732457" lon="23.525146"><ele>2287.6</ele><time>2026-03-15T07:33:19.000Z</time></trkpt>
<trkpt lat="41.732446" lon="23.525147"><ele>2287.6</ele><time>2026-03-15T07:33:20.000Z</time></trkpt>
<trkpt lat="41.732434" lon="23.525148"><ele>2287.6</ele><time>2026-03-15T07:33:21.000Z</time></trkpt>
<trkpt lat="41.732424" lon="23.525148"><ele>2287.6</ele><time>2026-03-15T07:33:22.000Z</time></trkpt>
<trkpt lat="41.732413" lon="23.525148"><ele>2287.6</ele><time>2026-03-15T07:33:23.000Z</time></trkpt>
<trkpt lat="41.732403" lon="23.525148"><ele>2287.6</ele><time>2026-03-15T07:33:24.000Z</time></trkpt>
<trkpt lat="41.732393" lon="23.525148"><ele>2287.6</ele><time>2026-03-15T07:33:25.000Z</time></trkpt>
<trkpt lat="41.732384" lon="23.525149"><ele>2287.6</ele><time>2026-03-15T07:33:26.000Z</time></trkpt>
<trkpt lat="41.732375" lon="23.52515"><ele>2287.6</ele><time>2026-03-15T07:33:27.000Z</time></trkpt>
<trkpt lat="41.732367" lon="23.525151"><ele>2287.6</ele><time>2026-03-15T07:33:28.000Z</time></trkpt>
<trkpt lat="41.732359" lon="23.525153"><ele>2287.6</ele><time>2026-03-15T07:33:29.000Z</time></trkpt>
<trkpt lat="41.732352" lon="23.525156"><ele>2287.6</ele><time>2026-03-15T07:33:30.000Z</time></trkpt>
<trkpt lat="41.732344" lon="23.525159"><ele>2287.6</ele><time>2026-03-15T07:33:31.000Z</time></trkpt>
<trkpt lat="41.732336" lon="23.525162"><ele>2287.6</ele><time>2026-03-15T07:33:32.000Z</time></trkpt>
<trkpt lat="41.732329" lon="23.525167"><ele>2287.6</ele><time>2026-03-15T07:33:33.000Z</time></trkpt>
<trkpt lat="41.73232" lon="23.525172"><ele>2287.6</ele><time>2026-03-15T07:33:34.000Z</time></trkpt>
<trkpt lat="41.732312" lon="23.525177"><ele>2287.6</ele><time>2026-03-15T07:33:35.000Z</time></trkpt>
<trkpt lat="41.732303" lon="23.525182"><ele>2287.6</ele><time>2026-03-15T07:33:36.000Z</time></trkpt>
<trkpt lat="41.732294" lon="23.525187"><ele>2287.6</ele><time>2026-03-15T07:33:37.000Z</time></trkpt>
<trkpt lat="41.732284" lon="23.525191"><ele>2287.6</ele><time>2026-03-15T07:33:38.000Z</time></trkpt>
<trkpt lat="41.732274" lon="23.525194"><ele>2287.6</ele><time>2026-03-15T07:33:39.000Z</time></trkpt>
<trkpt lat="41.732263" lon="23.525198"><ele>2287.6</ele><time>2026-03-15T07:33:40.000Z</time></trkpt>
<trkpt lat="41.732251" lon="23.5252"><ele>2287.6</ele><time>2026-03-15T07:33:41.000Z</time></trkpt>
<trkpt lat="41.73224" lon="23.525203"><ele>2287.6</ele><time>2026-03-15T07:33:42.000Z</time></trkpt>
<trkpt lat="41.732228" lon="23.525206"><ele>2287.6</ele><time>2026-03-15T07:33:43.000Z</time></trkpt>
<trkpt lat="41.732216" lon="23.525209"><ele>2287.6</ele><time>2026-03-15T07:33:44.000Z</time></trkpt>
<trkpt lat="41.732204" lon="23.525212"><ele>2287.6</ele><time>2026-03-15T07:33:45.000Z</time></trkpt>
<trkpt lat="41.732193" lon="23.525216"><ele>2287.6</ele><time>2026-03-15T07:33:46.000Z</time></trkpt>
<trkpt lat="41.732181" lon="23.52522"><ele>2287.6</ele><time>2026-03-15T07:33:47.000Z</time></trkpt>
<trkpt lat="41.73217" lon="23.525225"><ele>2287.6</ele><time>2026-03-15T07:33:48.000Z</time></trkpt>
<trkpt lat="41.732159" lon="23.525228"><ele>2287.6</ele><time>2026-03-15T07:33:49.000Z</time></trkpt>
<trkpt lat="41.732148" lon="23.52523"><ele>2287.6</ele><time>2026-03-15T07:33:50.000Z</time></trkpt>
<trkpt lat="41.732137" lon="23.525232"><ele>2287.6</ele><time>2026-03-15T07:33:51.000Z</time></trkpt>
<trkpt lat="41.732127" lon="23.525233"><ele>2287.6</ele><time>2026-03-15T07:33:52.000Z</time></trkpt>
<trkpt lat="41.732117" lon="23.525234"><ele>2287.6</ele><time>2026-03-15T07:33:53.000Z</time></trkpt>
<trkpt lat="41.732106" lon="23.525234"><ele>2287.6</ele><time>2026-03-15T07:33:54.000Z</time></trkpt>
<trkpt lat="41.732096" lon="23.525235"><ele>2287.6</ele><time>2026-03-15T07:33:55.000Z</time></trkpt>
<trkpt lat="41.732086" lon="23.525237"><ele>2287.6</ele><time>2026-03-15T07:33:56.000Z</time></trkpt>
<trkpt lat="41.732076" lon="23.525239"><ele>2287.6</ele><time>2026-03-15T07:33:57.000Z</time></trkpt>
<trkpt lat="41.732066" lon="23.525242"><ele>2287.6</ele><time>2026-03-15T07:33:58.000Z</time></trkpt>
<trkpt lat="41.732056" lon="23.525245"><ele>2287.6</ele><time>2026-03-15T07:33:59.000Z</time></trkpt>
<trkpt lat="41.732045" lon="23.525248"><ele>2287.6</ele><time>2026-03-15T07:34:00.000Z</time></trkpt>
<trkpt lat="41.732035" lon="23.525251"><ele>2287.6</ele><time>2026-03-15T07:34:01.000Z</time></trkpt>
<trkpt lat="41.732024" lon="23.525254"><ele>2287.6</ele><time>2026-03-15T07:34:02.000Z</time></trkpt>
<trkpt lat="41.732014" lon="23.525255"><ele>2287.6</ele><time>2026-03-15T07:34:03.000Z</time></trkpt>
<trkpt lat="41.732005" lon="23.525257"><ele>2287.6</ele><time>2026-03-15T07:34:04.000Z</time></trkpt>
<trkpt lat="41.731995" lon="23.525258"><ele>2287.6</ele><time>2026-03-15T07:34:05.000Z</time></trkpt>
<trkpt lat="41.731986" lon="23.525258"><ele>2287.6</ele><time>2026-03-15T07:34:06.000Z</time></trkpt>
<trkpt lat="41.731977" lon="23.525259"><ele>2287.6</ele><time>2026-03-15T07:34:07.000Z</time></trkpt>
<trkpt lat="41.731969" lon="23.525259"><ele>2287.6</ele><time>2026-03-15T07:34:08.000Z</time></trkpt>
<trkpt lat="41.731961" lon="23.525259"><ele>2287.6</ele><time>2026-03-15T07:34:09.000Z</time></trkpt>
<trkpt lat="41.731954" lon="23.525258"><ele>2287.6</ele><time>2026-03-15T07:34:10.000Z</time></trkpt>
<trkpt lat="41.731947" lon="23.525258"><ele>2287.6</ele><time>2026-03-15T07:34:11.000Z</time></trkpt>
<trkpt lat="41.731941" lon="23.525256"><ele>2287.6</ele><time>2026-03-15T07:34:12.000Z</time></trkpt>
<trkpt lat="41.731936" lon="23.525255"><ele>2287.6</ele><time>2026-03-15T07:34:13.000Z</time></trkpt>
<trkpt lat="41.731932" lon="23.525254"><ele>2287.6</ele><time>2026-03-15T07:34:14.000Z</time></trkpt>
<trkpt lat="41.731929" lon="23.525254"><ele>2287.6</ele><time>2026-03-15T07:34:15.000Z</time></trkpt>
<trkpt lat="41.731927" lon="23.525254"><ele>2287.6</ele><time>2026-03-15T07:34:16.000Z</time></trkpt>
<trkpt lat="41.731927" lon="23.525254"><ele>2287.6</ele><time>2026-03-15T07:34:17.000Z</time></trkpt>
<trkpt lat="41.731926" lon="23.525254"><ele>2287.6</ele><time>2026-03-15T07:34:18.000Z</time></trkpt>
<trkpt lat="41.731926" lon="23.525254"><ele>2287.6</ele><time>2026-03-15T07:34:19.000Z</time></trkpt>
<trkpt lat="41.731926" lon="23.525254"><ele>2287.6</ele><time>2026-03-15T07:34:20.000Z</time></trkpt>
<trkpt lat="41.731926" lon="23.525254"><ele>2287.6</ele><time>2026-03-15T07:34:21.000Z</time></trkpt>
<trkpt lat="41.731926" lon="23.525254"><ele>2287.6</ele><time>2026-03-15T07:34:22.000Z</time></trkpt>
<trkpt lat="41.731926" lon="23.525254"><ele>2287.6</ele><time>2026-03-15T07:34:23.000Z</time></trkpt>
<trkpt lat="41.731926" lon="23.525254"><ele>2287.6</ele><time>2026-03-15T07:34:24.000Z</time></trkpt>
<trkpt lat="41.731926" lon="23.525254"><ele>2287.6</ele><time>2026-03-15T07:34:25.000Z</time></trkpt>
<trkpt lat="41.731926" lon="23.525254"><ele>2287.6</ele><time>2026-03-15T07:34:26.000Z</time></trkpt>
<trkpt lat="41.731926" lon="23.525254"><ele>2287.6</ele><time>2026-03-15T07:34:27.000Z</time></trkpt>
<trkpt lat="41.731926" lon="23.525254"><ele>2287.6</ele><time>2026-03-15T07:34:28.000Z</time></trkpt>
<trkpt lat="41.731926" lon="23.525254"><ele>2287.6</ele><time>2026-03-15T07:34:29.000Z</time></trkpt>
<trkpt lat="41.731926" lon="23.525254"><ele>2287.6</ele><time>2026-03-15T07:34:30.000Z</time></trkpt>
<trkpt lat="41.731926" lon="23.525254"><ele>2287.6</ele><time>2026-03-15T07:34:31.000Z</time></trkpt>
<trkpt lat="41.731926" lon="23.525254"><ele>2287.6</ele><time>2026-03-15T07:34:32.000Z</time></trkpt>
<trkpt lat="41.731926" lon="23.525254"><ele>2287.6</ele><time>2026-03-15T07:34:33.000Z</time></trkpt>
<trkpt lat="41.731926" lon="23.525254"><ele>2287.6</ele><time>2026-03-15T07:34:34.000Z</time></trkpt>
<trkpt lat="41.731926" lon="23.525254"><ele>2287.6</ele><time>2026-03-15T07:34:35.000Z</time></trkpt>
<trkpt lat="41.731926" lon="23.525254"><ele>2287.6</ele><time>2026-03-15T07:34:36.000Z</time></trkpt>
<trkpt lat="41.731926" lon="23.525254"><ele>2287.6</ele><time>2026-03-15T07:34:37.000Z</time></trkpt>
<trkpt lat="41.731926" lon="23.525255"><ele>2287.6</ele><time>2026-03-15T07:34:38.000Z</time></trkpt>
<trkpt lat="41.731926" lon="23.525255"><ele>2287.6</ele><time>2026-03-15T07:34:39.000Z</time></trkpt>
<trkpt lat="41.731926" lon="23.525256"><ele>2287.6</ele><time>2026-03-15T07:34:40.000Z</time></trkpt>
<trkpt lat="41.731926" lon="23.525256"><ele>2287.6</ele><time>2026-03-15T07:34:41.000Z</time></trkpt>
<trkpt lat="41.731924" lon="23.525256"><ele>2287.6</ele><time>2026-03-15T07:34:42.000Z</time></trkpt>
<trkpt lat="41.731923" lon="23.525255"><ele>2287.6</ele><time>2026-03-15T07:34:43.000Z</time></trkpt>
<trkpt lat="41.731919" lon="23.525254"><ele>2287.6</ele><time>2026-03-15T07:34:44.000Z</time></trkpt>
<trkpt lat="41.731913" lon="23.525254"><ele>2287.6</ele><time>2026-03-15T07:34:45.000Z</time></trkpt>
<trkpt lat="41.731906" lon="23.525253"><ele>2287.6</ele><time>2026-03-15T07:34:46.000Z</time></trkpt>
<trkpt lat="41.731899" lon="23.525253"><ele>2287.6</ele><time>2026-03-15T07:34:47.000Z</time></trkpt>
<trkpt lat="41.73189" lon="23.525254"><ele>2287.6</ele><time>2026-03-15T07:34:48.000Z</time></trkpt>
<trkpt lat="41.731881" lon="23.525255"><ele>2287.6</ele><time>2026-03-15T07:34:49.000Z</time></trkpt>
<trkpt lat="41.731873" lon="23.525257"><ele>2287.6</ele><time>2026-03-15T07:34:50.000Z</time></trkpt>
<trkpt lat="41.731865" lon="23.525259"><ele>2287.6</ele><time>2026-03-15T07:34:51.000Z</time></trkpt>
<trkpt lat="41.731856" lon="23.52526"><ele>2287.6</ele><time>2026-03-15T07:34:52.000Z</time></trkpt>
<trkpt lat="41.731847" lon="23.525262"><ele>2287.6</ele><time>2026-03-15T07:34:53.000Z</time></trkpt>
<trkpt lat="41.731839" lon="23.525263"><ele>2287.6</ele><time>2026-03-15T07:34:54.000Z</time></trkpt>
<trkpt lat="41.73183" lon="23.525264"><ele>2287.6</ele><time>2026-03-15T07:34:55.000Z</time></trkpt>
<trkpt lat="41.731822" lon="23.525265"><ele>2287.6</ele><time>2026-03-15T07:34:56.000Z</time></trkpt>
<trkpt lat="41.731813" lon="23.525267"><ele>2287.6</ele><time>2026-03-15T07:34:57.000Z</time></trkpt>
<trkpt lat="41.731804" lon="23.525268"><ele>2287.6</ele><time>2026-03-15T07:34:58.000Z</time></trkpt>
<trkpt lat="41.731795" lon="23.525269"><ele>2287.6</ele><time>2026-03-15T07:34:59.000Z</time></trkpt>
<trkpt lat="41.731786" lon="23.525269"><ele>2287.6</ele><time>2026-03-15T07:35:00.000Z</time></trkpt>
<trkpt lat="41.731776" lon="23.52527"><ele>2287.6</ele><time>2026-03-15T07:35:01.000Z</time></trkpt>
<trkpt lat="41.731767" lon="23.525271"><ele>2287.6</ele><time>2026-03-15T07:35:02.000Z</time></trkpt>
<trkpt lat="41.731758" lon="23.525272"><ele>2287.6</ele><time>2026-03-15T07:35:03.000Z</time></trkpt>
<trkpt lat="41.731749" lon="23.525274"><ele>2287.6</ele><time>2026-03-15T07:35:04.000Z</time></trkpt>
<trkpt lat="41.73174" lon="23.525278"><ele>2287.6</ele><time>2026-03-15T07:35:05.000Z</time></trkpt>
<trkpt lat="41.731731" lon="23.52528"><ele>2287.6</ele><time>2026-03-15T07:35:06.000Z</time></trkpt>
<trkpt lat="41.731722" lon="23.525284"><ele>2287.6</ele><time>2026-03-15T07:35:07.000Z</time></trkpt>
<trkpt lat="41.731713" lon="23.525287"><ele>2287.6</ele><time>2026-03-15T07:35:08.000Z</time></trkpt>
<trkpt lat="41.731704" lon="23.52529"><ele>2287.6</ele><time>2026-03-15T07:35:09.000Z</time></trkpt>
<trkpt lat="41.731695" lon="23.525293"><ele>2287.6</ele><time>2026-03-15T07:35:10.000Z</time></trkpt>
<trkpt lat="41.731686" lon="23.525296"><ele>2287.6</ele><time>2026-03-15T07:35:11.000Z</time></trkpt>
<trkpt lat="41.731678" lon="23.525298"><ele>2287.6</ele><time>2026-03-15T07:35:12.000Z</time></trkpt>
<trkpt lat="41.73167" lon="23.5253"><ele>2287.6</ele><time>2026-03-15T07:35:13.000Z</time></trkpt>
<trkpt lat="41.731661" lon="23.525302"><ele>2287.6</ele><time>2026-03-15T07:35:14.000Z</time></trkpt>
<trkpt lat="41.731653" lon="23.525303"><ele>2287.6</ele><time>2026-03-15T07:35:15.000Z</time></trkpt>
<trkpt lat="41.731646" lon="23.525304"><ele>2287.6</ele><time>2026-03-15T07:35:16.000Z</time></trkpt>
<trkpt lat="41.731637" lon="23.525304"><ele>2287.6</ele><time>2026-03-15T07:35:17.000Z</time></trkpt>
<trkpt lat="41.731628" lon="23.525305"><ele>2287.6</ele><time>2026-03-15T07:35:18.000Z</time></trkpt>
<trkpt lat="41.731619" lon="23.525305"><ele>2287.6</ele><time>2026-03-15T07:35:19.000Z</time></trkpt>
<trkpt lat="41.731612" lon="23.525307"><ele>2287.6</ele><time>2026-03-15T07:35:20.000Z</time></trkpt>
<trkpt lat="41.731603" lon="23.525308"><ele>2287.6</ele><time>2026-03-15T07:35:21.000Z</time></trkpt>
<trkpt lat="41.731595" lon="23.52531"><ele>2287.6</ele><time>2026-03-15T07:35:22.000Z</time></trkpt>
<trkpt lat="41.731587" lon="23.525312"><ele>2287.6</ele><time>2026-03-15T07:35:23.000Z</time></trkpt>
<trkpt lat="41.731578" lon="23.525312"><ele>2287.6</ele><time>2026-03-15T07:35:24.000Z</time></trkpt>
<trkpt lat="41.731569" lon="23.525311"><ele>2287.6</ele><time>2026-03-15T07:35:25.000Z</time></trkpt>
<trkpt lat="41.73156" lon="23.525311"><ele>2287.6</ele><time>2026-03-15T07:35:26.000Z</time></trkpt>
<trkpt lat="41.731552" lon="23.52531"><ele>2287.6</ele><time>2026-03-15T07:35:27.000Z</time></trkpt>
<trkpt lat="41.731543" lon="23.525309"><ele>2287.6</ele><time>2026-03-15T07:35:28.000Z</time></trkpt>
<trkpt lat="41.731535" lon="23.525307"><ele>2287.6</ele><time>2026-03-15T07:35:29.000Z</time></trkpt>
<trkpt lat="41.731528" lon="23.525307"><ele>2287.6</ele><time>2026-03-15T07:35:30.000Z</time></trkpt>
<trkpt lat="41.731524" lon="23.525306"><ele>2287.6</ele><time>2026-03-15T07:35:31.000Z</time></trkpt>
<trkpt lat="41.731521" lon="23.525305"><ele>2287.6</ele><time>2026-03-15T07:35:32.000Z</time></trkpt>
<trkpt lat="41.73152" lon="23.525305"><ele>2287.6</ele><time>2026-03-15T07:35:33.000Z</time></trkpt>
<trkpt lat="41.731521" lon="23.525306"><ele>2287.6</ele><time>2026-03-15T07:35:34.000Z</time></trkpt>
<trkpt lat="41.731521" lon="23.525306"><ele>2287.6</ele><time>2026-03-15T07:35:35.000Z</time></trkpt>
<trkpt lat="41.731521" lon="23.525306"><ele>2287.6</ele><time>2026-03-15T07:35:36.000Z</time></trkpt>
<trkpt lat="41.731521" lon="23.525306"><ele>2287.6</ele><time>2026-03-15T07:35:37.000Z</time></trkpt>
<trkpt lat="41.731522" lon="23.525306"><ele>2287.6</ele><time>2026-03-15T07:35:38.000Z</time></trkpt>
<trkpt lat="41.731522" lon="23.525306"><ele>2287.6</ele><time>2026-03-15T07:35:39.000Z</time></trkpt>
<trkpt lat="41.731522" lon="23.525306"><ele>2287.6</ele><time>2026-03-15T07:35:40.000Z</time></trkpt>
<trkpt lat="41.731522" lon="23.525306"><ele>2287.6</ele><time>2026-03-15T07:35:41.000Z</time></trkpt>
<trkpt lat="41.731522" lon="23.525306"><ele>2287.6</ele><time>2026-03-15T07:35:42.000Z</time></trkpt>
<trkpt lat="41.73152" lon="23.525306"><ele>2287.6</ele><time>2026-03-15T07:35:43.000Z</time></trkpt>
<trkpt lat="41.731516" lon="23.525306"><ele>2287.6</ele><time>2026-03-15T07:35:44.000Z</time></trkpt>
<trkpt lat="41.731511" lon="23.525305"><ele>2287.6</ele><time>2026-03-15T07:35:45.000Z</time></trkpt>
<trkpt lat="41.731504" lon="23.525305"><ele>2287.6</ele><time>2026-03-15T07:35:46.000Z</time></trkpt>
<trkpt lat="41.731495" lon="23.525304"><ele>2287.6</ele><time>2026-03-15T07:35:47.000Z</time></trkpt>
<trkpt lat="41.731486" lon="23.525305"><ele>2287.6</ele><time>2026-03-15T07:35:48.000Z</time></trkpt>
<trkpt lat="41.731477" lon="23.525306"><ele>2287.6</ele><time>2026-03-15T07:35:49.000Z</time></trkpt>
<trkpt lat="41.731467" lon="23.525307"><ele>2287.6</ele><time>2026-03-15T07:35:50.000Z</time></trkpt>
<trkpt lat="41.731457" lon="23.525308"><ele>2287.6</ele><time>2026-03-15T07:35:51.000Z</time></trkpt>
<trkpt lat="41.731447" lon="23.52531"><ele>2287.6</ele><time>2026-03-15T07:35:52.000Z</time></trkpt>
<trkpt lat="41.731439" lon="23.525312"><ele>2287.6</ele><time>2026-03-15T07:35:53.000Z</time></trkpt>
<trkpt lat="41.731429" lon="23.525313"><ele>2287.6</ele><time>2026-03-15T07:35:54.000Z</time></trkpt>
<trkpt lat="41.731421" lon="23.525314"><ele>2287.6</ele><time>2026-03-15T07:35:55.000Z</time></trkpt>
<trkpt lat="41.731412" lon="23.525315"><ele>2287.6</ele><time>2026-03-15T07:35:56.000Z</time></trkpt>
<trkpt lat="41.731404" lon="23.525315"><ele>2287.6</ele><time>2026-03-15T07:35:57.000Z</time></trkpt>
<trkpt lat="41.731396" lon="23.525316"><ele>2287.6</ele><time>2026-03-15T07:35:58.000Z</time></trkpt>
<trkpt lat="41.731387" lon="23.525316"><ele>2287.6</ele><time>2026-03-15T07:35:59.000Z</time></trkpt>
<trkpt lat="41.731378" lon="23.525316"><ele>2287.6</ele><time>2026-03-15T07:36:00.000Z</time></trkpt>
<trkpt lat="41.731369" lon="23.525318"><ele>2287.6</ele><time>2026-03-15T07:36:01.000Z</time></trkpt>
<trkpt lat="41.73136" lon="23.525319"><ele>2287.6</ele><time>2026-03-15T07:36:02.000Z</time></trkpt>
<trkpt lat="41.731351" lon="23.525321"><ele>2287.6</ele><time>2026-03-15T07:36:03.000Z</time></trkpt>
<trkpt lat="41.731342" lon="23.525322"><ele>2287.6</ele><time>2026-03-15T07:36:04.000Z</time></trkpt>
<trkpt lat="41.731333" lon="23.525323"><ele>2287.6</ele><time>2026-03-15T07:36:05.000Z</time></trkpt>
<trkpt lat="41.731325" lon="23.525323"><ele>2287.6</ele><time>2026-03-15T07:36:06.000Z</time></trkpt>
<trkpt lat="41.731317" lon="23.525323"><ele>2287.6</ele><time>2026-03-15T07:36:07.000Z</time></trkpt>
<trkpt lat="41.731308" lon="23.525324"><ele>2287.6</ele><time>2026-03-15T07:36:08.000Z</time></trkpt>
<trkpt lat="41.731299" lon="23.525325"><ele>2287.6</ele><time>2026-03-15T07:36:09.000Z</time></trkpt>
<trkpt lat="41.731291" lon="23.525325"><ele>2287.6</ele><time>2026-03-15T07:36:10.000Z</time></trkpt>
<trkpt lat="41.731283" lon="23.525326"><ele>2287.6</ele><time>2026-03-15T07:36:11.000Z</time></trkpt>
<trkpt lat="41.731274" lon="23.525326"><ele>2287.6</ele><time>2026-03-15T07:36:12.000Z</time></trkpt>
<trkpt lat="41.731265" lon="23.525327"><ele>2287.6</ele><time>2026-03-15T07:36:13.000Z</time></trkpt>
<trkpt lat="41.731257" lon="23.525327"><ele>2287.6</ele><time>2026-03-15T07:36:14.000Z</time></trkpt>
<trkpt lat="41.731249" lon="23.525329"><ele>2287.6</ele><time>2026-03-15T07:36:15.000Z</time></trkpt>
<trkpt lat="41.731239" lon="23.52533"><ele>2287.6</ele><time>2026-03-15T07:36:16.000Z</time></trkpt>
<trkpt lat="41.73123" lon="23.525333"><ele>2287.6</ele><time>2026-03-15T07:36:17.000Z</time></trkpt>
<trkpt lat="41.731221" lon="23.525335"><ele>2287.6</ele><time>2026-03-15T07:36:18.000Z</time></trkpt>
<trkpt lat="41.731212" lon="23.525338"><ele>2287.6</ele><time>2026-03-15T07:36:19.000Z</time></trkpt>
<trkpt lat="41.731203" lon="23.525341"><ele>2287.6</ele><time>2026-03-15T07:36:20.000Z</time></trkpt>
<trkpt lat="41.731194" lon="23.525343"><ele>2287.6</ele><time>2026-03-15T07:36:21.000Z</time></trkpt>
<trkpt lat="41.731185" lon="23.525345"><ele>2287.6</ele><time>2026-03-15T07:36:22.000Z</time></trkpt>
<trkpt lat="41.731177" lon="23.525347"><ele>2287.6</ele><time>2026-03-15T07:36:23.000Z</time></trkpt>
<trkpt lat="41.731168" lon="23.525349"><ele>2287.6</ele><time>2026-03-15T07:36:24.000Z</time></trkpt>
<trkpt lat="41.73116" lon="23.525351"><ele>2287.6</ele><time>2026-03-15T07:36:25.000Z</time></trkpt>
<trkpt lat="41.731151" lon="23.525355"><ele>2287.6</ele><time>2026-03-15T07:36:26.000Z</time></trkpt>
<trkpt lat="41.731144" lon="23.525359"><ele>2287.6</ele><time>2026-03-15T07:36:27.000Z</time></trkpt>
<trkpt lat="41.731136" lon="23.525364"><ele>2287.6</ele><time>2026-03-15T07:36:28.000Z</time></trkpt>
<trkpt lat="41.731128" lon="23.525369"><ele>2287.6</ele><time>2026-03-15T07:36:29.000Z</time></trkpt>
<trkpt lat="41.731121" lon="23.525374"><ele>2287.6</ele><time>2026-03-15T07:36:30.000Z</time></trkpt>
<trkpt lat="41.731113" lon="23.525377"><ele>2287.6</ele><time>2026-03-15T07:36:31.000Z</time></trkpt>
<trkpt lat="41.731106" lon="23.525379"><ele>2287.6</ele><time>2026-03-15T07:36:32.000Z</time></trkpt>
<trkpt lat="41.731099" lon="23.52538"><ele>2287.6</ele><time>2026-03-15T07:36:33.000Z</time></trkpt>
<trkpt lat="41.731091" lon="23.52538"><ele>2287.6</ele><time>2026-03-15T07:36:34.000Z</time></trkpt>
<trkpt lat="41.731085" lon="23.52538"><ele>2287.6</ele><time>2026-03-15T07:36:35.000Z</time></trkpt>
<trkpt lat="41.731079" lon="23.525379"><ele>2287.6</ele><time>2026-03-15T07:36:36.000Z</time></trkpt>
<trkpt lat="41.731072" lon="23.525378"><ele>2287.6</ele><time>2026-03-15T07:36:37.000Z</time></trkpt>
<trkpt lat="41.731066" lon="23.525378"><ele>2287.6</ele><time>2026-03-15T07:36:38.000Z</time></trkpt>
<trkpt lat="41.73106" lon="23.525378"><ele>2287.6</ele><time>2026-03-15T07:36:39.000Z</time></trkpt>
<trkpt lat="41.731053" lon="23.525378"><ele>2287.6</ele><time>2026-03-15T07:36:40.000Z</time></trkpt>
<trkpt lat="41.731046" lon="23.525377"><ele>2287.6</ele><time>2026-03-15T07:36:41.000Z</time></trkpt>
<trkpt lat="41.73104" lon="23.525375"><ele>2287.6</ele><time>2026-03-15T07:36:42.000Z</time></trkpt>
<trkpt lat="41.731033" lon="23.525375"><ele>2287.6</ele><time>2026-03-15T07:36:43.000Z</time></trkpt>
<trkpt lat="41.731026" lon="23.525374"><ele>2287.6</ele><time>2026-03-15T07:36:44.000Z</time></trkpt>
<trkpt lat="41.731019" lon="23.525374"><ele>2287.6</ele><time>2026-03-15T07:36:45.000Z</time></trkpt>
<trkpt lat="41.731013" lon="23.525374"><ele>2287.6</ele><time>2026-03-15T07:36:46.000Z</time></trkpt>
<trkpt lat="41.731007" lon="23.525374"><ele>2287.6</ele><time>2026-03-15T07:36:47.000Z</time></trkpt>
<trkpt lat="41.730999" lon="23.525373"><ele>2287.6</ele><time>2026-03-15T07:36:48.000Z</time></trkpt>
<trkpt lat="41.730991" lon="23.525371"><ele>2287.6</ele><time>2026-03-15T07:36:49.000Z</time></trkpt>
<trkpt lat="41.730984" lon="23.52537"><ele>2287.6</ele><time>2026-03-15T07:36:50.000Z</time></trkpt>
<trkpt lat="41.730976" lon="23.525369"><ele>2287.6</ele><time>2026-03-15T07:36:51.000Z</time></trkpt>
<trkpt lat="41.730967" lon="23.525368"><ele>2287.6</ele><time>2026-03-15T07:36:52.000Z</time></trkpt>
<trkpt lat="41.730959" lon="23.525367"><ele>2287.6</ele><time>2026-03-15T07:36:53.000Z</time></trkpt>
<trkpt lat="41.730952" lon="23.525367"><ele>2287.6</ele><time>2026-03-15T07:36:54.000Z</time></trkpt>
<trkpt lat="41.730944" lon="23.525365"><ele>2287.6</ele><time>2026-03-15T07:36:55.000Z</time></trkpt>
<trkpt lat="41.730935" lon="23.525363"><ele>2287.6</ele><time>2026-03-15T07:36:56.000Z</time></trkpt>
<trkpt lat="41.730928" lon="23.525361"><ele>2287.6</ele><time>2026-03-15T07:36:57.000Z</time></trkpt>
<trkpt lat="41.73092" lon="23.525358"><ele>2287.6</ele><time>2026-03-15T07:36:58.000Z</time></trkpt>
<trkpt lat="41.730912" lon="23.525356"><ele>2287.6</ele><time>2026-03-15T07:36:59.000Z</time></trkpt>
<trkpt lat="41.730903" lon="23.525354"><ele>2287.6</ele><time>2026-03-15T07:37:00.000Z</time></trkpt>
<trkpt lat="41.730894" lon="23.525353"><ele>2287.6</ele><time>2026-03-15T07:37:01.000Z</time></trkpt>
<trkpt lat="41.730886" lon="23.525352"><ele>2287.6</ele><time>2026-03-15T07:37:02.000Z</time></trkpt>
<trkpt lat="41.730877" lon="23.525351"><ele>2287.6</ele><time>2026-03-15T07:37:03.000Z</time></trkpt>
<trkpt lat="41.730869" lon="23.52535"><ele>2287.6</ele><time>2026-03-15T07:37:04.000Z</time></trkpt>
<trkpt lat="41.73086" lon="23.525348"><ele>2287.6</ele><time>2026-03-15T07:37:05.000Z</time></trkpt>
<trkpt lat="41.730852" lon="23.525347"><ele>2287.6</ele><time>2026-03-15T07:37:06.000Z</time></trkpt>
<trkpt lat="41.730845" lon="23.525347"><ele>2287.6</ele><time>2026-03-15T07:37:07.000Z</time></trkpt>
<trkpt lat="41.730838" lon="23.525345"><ele>2287.6</ele><time>2026-03-15T07:37:08.000Z</time></trkpt>
<trkpt lat="41.73083" lon="23.525344"><ele>2287.6</ele><time>2026-03-15T07:37:09.000Z</time></trkpt>
<trkpt lat="41.730823" lon="23.525343"><ele>2287.6</ele><time>2026-03-15T07:37:10.000Z</time></trkpt>
<trkpt lat="41.730816" lon="23.525342"><ele>2287.6</ele><time>2026-03-15T07:37:11.000Z</time></trkpt>
<trkpt lat="41.730808" lon="23.52534"><ele>2287.6</ele><time>2026-03-15T07:37:12.000Z</time></trkpt>
<trkpt lat="41.7308" lon="23.525338"><ele>2287.6</ele><time>2026-03-15T07:37:13.000Z</time></trkpt>
<trkpt lat="41.730793" lon="23.525338"><ele>2287.6</ele><time>2026-03-15T07:37:14.000Z</time></trkpt>
<trkpt lat="41.730785" lon="23.525337"><ele>2287.6</ele><time>2026-03-15T07:37:15.000Z</time></trkpt>
<trkpt lat="41.730777" lon="23.525335"><ele>2287.6</ele><time>2026-03-15T07:37:16.000Z</time></trkpt>
<trkpt lat="41.730769" lon="23.525334"><ele>2287.6</ele><time>2026-03-15T07:37:17.000Z</time></trkpt>
<trkpt lat="41.730762" lon="23.525333"><ele>2287.6</ele><time>2026-03-15T07:37:18.000Z</time></trkpt>
<trkpt lat="41.730754" lon="23.525332"><ele>2287.6</ele><time>2026-03-15T07:37:19.000Z</time></trkpt>
<trkpt lat="41.730745" lon="23.52533"><ele>2287.6</ele><time>2026-03-15T07:37:20.000Z</time></trkpt>
<trkpt lat="41.730737" lon="23.525329"><ele>2287.6</ele><time>2026-03-15T07:37:21.000Z</time></trkpt>
<trkpt lat="41.730729" lon="23.525328"><ele>2287.6</ele><time>2026-03-15T07:37:22.000Z</time></trkpt>
<trkpt lat="41.73072" lon="23.525327"><ele>2287.6</ele><time>2026-03-15T07:37:23.000Z</time></trkpt>
<trkpt lat="41.730711" lon="23.525325"><ele>2287.6</ele><time>2026-03-15T07:37:24.000Z</time></trkpt>
<trkpt lat="41.730702" lon="23.525324"><ele>2287.6</ele><time>2026-03-15T07:37:25.000Z</time></trkpt>
<trkpt lat="41.730693" lon="23.525322"><ele>2287.6</ele><time>2026-03-15T07:37:26.000Z</time></trkpt>
<trkpt lat="41.730683" lon="23.525319"><ele>2287.6</ele><time>2026-03-15T07:37:27.000Z</time></trkpt>
<trkpt lat="41.730674" lon="23.525317"><ele>2287.6</ele><time>2026-03-15T07:37:28.000Z</time></trkpt>
<trkpt lat="41.730665" lon="23.525313"><ele>2287.6</ele><time>2026-03-15T07:37:29.000Z</time></trkpt>
<trkpt lat="41.730657" lon="23.52531"><ele>2287.6</ele><time>2026-03-15T07:37:30.000Z</time></trkpt>
<trkpt lat="41.730649" lon="23.525307"><ele>2287.6</ele><time>2026-03-15T07:37:31.000Z</time></trkpt>
<trkpt lat="41.730643" lon="23.525305"><ele>2287.6</ele><time>2026-03-15T07:37:32.000Z</time></trkpt>
<trkpt lat="41.730635" lon="23.525303"><ele>2287.6</ele><time>2026-03-15T07:37:33.000Z</time></trkpt>
<trkpt lat="41.730628" lon="23.5253"><ele>2287.6</ele><time>2026-03-15T07:37:34.000Z</time></trkpt>
<trkpt lat="41.73062" lon="23.525298"><ele>2287.6</ele><time>2026-03-15T07:37:35.000Z</time></trkpt>
<trkpt lat="41.730611" lon="23.525297"><ele>2287.6</ele><time>2026-03-15T07:37:36.000Z</time></trkpt>
<trkpt lat="41.730602" lon="23.525295"><ele>2287.6</ele><time>2026-03-15T07:37:37.000Z</time></trkpt>
<trkpt lat="41.730593" lon="23.525293"><ele>2287.6</ele><time>2026-03-15T07:37:38.000Z</time></trkpt>
<trkpt lat="41.730583" lon="23.525292"><ele>2287.6</ele><time>2026-03-15T07:37:39.000Z</time></trkpt>
<trkpt lat="41.730574" lon="23.525291"><ele>2287.6</ele><time>2026-03-15T07:37:40.000Z</time></trkpt>
<trkpt lat="41.730564" lon="23.525288"><ele>2287.6</ele><time>2026-03-15T07:37:41.000Z</time></trkpt>
<trkpt lat="41.730555" lon="23.525286"><ele>2287.6</ele><time>2026-03-15T07:37:42.000Z</time></trkpt>
<trkpt lat="41.730546" lon="23.525283"><ele>2287.6</ele><time>2026-03-15T07:37:43.000Z</time></trkpt>
<trkpt lat="41.730536" lon="23.52528"><ele>2287.6</ele><time>2026-03-15T07:37:44.000Z</time></trkpt>
<trkpt lat="41.730526" lon="23.525277"><ele>2287.6</ele><time>2026-03-15T07:37:45.000Z</time></trkpt>
<trkpt lat="41.730515" lon="23.525273"><ele>2287.6</ele><time>2026-03-15T07:37:46.000Z</time></trkpt>
<trkpt lat="41.730505" lon="23.52527"><ele>2287.6</ele><time>2026-03-15T07:37:47.000Z</time></trkpt>
<trkpt lat="41.730495" lon="23.525266"><ele>2287.6</ele><time>2026-03-15T07:37:48.000Z</time></trkpt>
<trkpt lat="41.730487" lon="23.525262"><ele>2287.6</ele><time>2026-03-15T07:37:49.000Z</time></trkpt>
<trkpt lat="41.730478" lon="23.525258"><ele>2287.6</ele><time>2026-03-15T07:37:50.000Z</time></trkpt>
<trkpt lat="41.73047" lon="23.525253"><ele>2287.6</ele><time>2026-03-15T07:37:51.000Z</time></trkpt>
<trkpt lat="41.730462" lon="23.525249"><ele>2287.6</ele><time>2026-03-15T07:37:52.000Z</time></trkpt>
<trkpt lat="41.730453" lon="23.525245"><ele>2287.6</ele><time>2026-03-15T07:37:53.000Z</time></trkpt>
<trkpt lat="41.730444" lon="23.525241"><ele>2287.6</ele><time>2026-03-15T07:37:54.000Z</time></trkpt>
<trkpt lat="41.730435" lon="23.525237"><ele>2287.6</ele><time>2026-03-15T07:37:55.000Z</time></trkpt>
<trkpt lat="41.730427" lon="23.525233"><ele>2287.6</ele><time>2026-03-15T07:37:56.000Z</time></trkpt>
<trkpt lat="41.730418" lon="23.525229"><ele>2287.6</ele><time>2026-03-15T07:37:57.000Z</time></trkpt>
<trkpt lat="41.730409" lon="23.525224"><ele>2287.6</ele><time>2026-03-15T07:37:58.000Z</time></trkpt>
<trkpt lat="41.730401" lon="23.525221"><ele>2287.6</ele><time>2026-03-15T07:37:59.000Z</time></trkpt>
<trkpt lat="41.730392" lon="23.525218"><ele>2287.6</ele><time>2026-03-15T07:38:00.000Z</time></trkpt>
<trkpt lat="41.730383" lon="23.525215"><ele>2287.6</ele><time>2026-03-15T07:38:01.000Z</time></trkpt>
<trkpt lat="41.730375" lon="23.525211"><ele>2287.6</ele><time>2026-03-15T07:38:02.000Z</time></trkpt>
<trkpt lat="41.730367" lon="23.525208"><ele>2287.6</ele><time>2026-03-15T07:38:03.000Z</time></trkpt>
<trkpt lat="41.730359" lon="23.525205"><ele>2287.6</ele><time>2026-03-15T07:38:04.000Z</time></trkpt>
<trkpt lat="41.730351" lon="23.525201"><ele>2287.6</ele><time>2026-03-15T07:38:05.000Z</time></trkpt>
<trkpt lat="41.730343" lon="23.525198"><ele>2287.6</ele><time>2026-03-15T07:38:06.000Z</time></trkpt>
<trkpt lat="41.730335" lon="23.525195"><ele>2287.6</ele><time>2026-03-15T07:38:07.000Z</time></trkpt>
<trkpt lat="41.730327" lon="23.525191"><ele>2287.6</ele><time>2026-03-15T07:38:08.000Z</time></trkpt>
<trkpt lat="41.730319" lon="23.525188"><ele>2287.6</ele><time>2026-03-15T07:38:09.000Z</time></trkpt>
<trkpt lat="41.730312" lon="23.525186"><ele>2287.6</ele><time>2026-03-15T07:38:10.000Z</time></trkpt>
<trkpt lat="41.730304" lon="23.525183"><ele>2287.6</ele><time>2026-03-15T07:38:11.000Z</time></trkpt>
<trkpt lat="41.730297" lon="23.52518"><ele>2287.6</ele><time>2026-03-15T07:38:12.000Z</time></trkpt>
<trkpt lat="41.73029" lon="23.525178"><ele>2287.6</ele><time>2026-03-15T07:38:13.000Z</time></trkpt>
<trkpt lat="41.730283" lon="23.525176"><ele>2287.6</ele><time>2026-03-15T07:38:14.000Z</time></trkpt>
<trkpt lat="41.730276" lon="23.525173"><ele>2287.6</ele><time>2026-03-15T07:38:15.000Z</time></trkpt>
<trkpt lat="41.73027" lon="23.525171"><ele>2287.6</ele><time>2026-03-15T07:38:16.000Z</time></trkpt>
<trkpt lat="41.730263" lon="23.525168"><ele>2287.6</ele><time>2026-03-15T07:38:17.000Z</time></trkpt>
<trkpt lat="41.730257" lon="23.525164"><ele>2287.6</ele><time>2026-03-15T07:38:18.000Z</time></trkpt>
<trkpt lat="41.73025" lon="23.525159"><ele>2287.6</ele><time>2026-03-15T07:38:19.000Z</time></trkpt>
<trkpt lat="41.730243" lon="23.525155"><ele>2287.6</ele><time>2026-03-15T07:38:20.000Z</time></trkpt>
<trkpt lat="41.730235" lon="23.525151"><ele>2287.6</ele><time>2026-03-15T07:38:21.000Z</time></trkpt>
<trkpt lat="41.730227" lon="23.525148"><ele>2287.6</ele><time>2026-03-15T07:38:22.000Z</time></trkpt>
<trkpt lat="41.73022" lon="23.525145"><ele>2287.6</ele><time>2026-03-15T07:38:23.000Z</time></trkpt>
<trkpt lat="41.730213" lon="23.525141"><ele>2287.6</ele><time>2026-03-15T07:38:24.000Z</time></trkpt>
<trkpt lat="41.730205" lon="23.525136"><ele>2287.6</ele><time>2026-03-15T07:38:25.000Z</time></trkpt>
<trkpt lat="41.730197" lon="23.52513"><ele>2287.6</ele><time>2026-03-15T07:38:26.000Z</time></trkpt>
<trkpt lat="41.730189" lon="23.525125"><ele>2287.6</ele><time>2026-03-15T07:38:27.000Z</time></trkpt>
<trkpt lat="41.730182" lon="23.525121"><ele>2287.6</ele><time>2026-03-15T07:38:28.000Z</time></trkpt>
<trkpt lat="41.730173" lon="23.525117"><ele>2287.6</ele><time>2026-03-15T07:38:29.000Z</time></trkpt>
<trkpt lat="41.730165" lon="23.525113"><ele>2287.6</ele><time>2026-03-15T07:38:30.000Z</time></trkpt>
<trkpt lat="41.730158" lon="23.525111"><ele>2287.6</ele><time>2026-03-15T07:38:31.000Z</time></trkpt>
<trkpt lat="41.73015" lon="23.525108"><ele>2287.6</ele><time>2026-03-15T07:38:32.000Z</time></trkpt>
<trkpt lat="41.730142" lon="23.525105"><ele>2287.6</ele><time>2026-03-15T07:38:33.000Z</time></trkpt>
<trkpt lat="41.730134" lon="23.525101"><ele>2287.6</ele><time>2026-03-15T07:38:34.000Z</time></trkpt>
<trkpt lat="41.730126" lon="23.525098"><ele>2287.6</ele><time>2026-03-15T07:38:35.000Z</time></trkpt>
<trkpt lat="41.730119" lon="23.525095"><ele>2287.6</ele><time>2026-03-15T07:38:36.000Z</time></trkpt>
<trkpt lat="41.730111" lon="23.525091"><ele>2287.6</ele><time>2026-03-15T07:38:37.000Z</time></trkpt>
<trkpt lat="41.730103" lon="23.525087"><ele>2287.6</ele><time>2026-03-15T07:38:38.000Z</time></trkpt>
<trkpt lat="41.730097" lon="23.525085"><ele>2287.6</ele><time>2026-03-15T07:38:39.000Z</time></trkpt>
<trkpt lat="41.730089" lon="23.525082"><ele>2287.6</ele><time>2026-03-15T07:38:40.000Z</time></trkpt>
<trkpt lat="41.730082" lon="23.525079"><ele>2287.6</ele><time>2026-03-15T07:38:41.000Z</time></trkpt>
<trkpt lat="41.730074" lon="23.525076"><ele>2287.6</ele><time>2026-03-15T07:38:42.000Z</time></trkpt>
<trkpt lat="41.730068" lon="23.525073"><ele>2287.6</ele><time>2026-03-15T07:38:43.000Z</time></trkpt>
<trkpt lat="41.730061" lon="23.525069"><ele>2287.6</ele><time>2026-03-15T07:38:44.000Z</time></trkpt>
<trkpt lat="41.730053" lon="23.525064"><ele>2287.6</ele><time>2026-03-15T07:38:45.000Z</time></trkpt>
<trkpt lat="41.730045" lon="23.525059"><ele>2287.6</ele><time>2026-03-15T07:38:46.000Z</time></trkpt>
<trkpt lat="41.730038" lon="23.525056"><ele>2287.6</ele><time>2026-03-15T07:38:47.000Z</time></trkpt>
<trkpt lat="41.730029" lon="23.525052"><ele>2287.6</ele><time>2026-03-15T07:38:48.000Z</time></trkpt>
<trkpt lat="41.730019" lon="23.525048"><ele>2287.6</ele><time>2026-03-15T07:38:49.000Z</time></trkpt>
<trkpt lat="41.73001" lon="23.525046"><ele>2287.6</ele><time>2026-03-15T07:38:50.000Z</time></trkpt>
<trkpt lat="41.730002" lon="23.525044"><ele>2287.6</ele><time>2026-03-15T07:38:51.000Z</time></trkpt>
<trkpt lat="41.729993" lon="23.525041"><ele>2287.6</ele><time>2026-03-15T07:38:52.000Z</time></trkpt>
<trkpt lat="41.729985" lon="23.525038"><ele>2287.6</ele><time>2026-03-15T07:38:53.000Z</time></trkpt>
<trkpt lat="41.729977" lon="23.525037"><ele>2287.6</ele><time>2026-03-15T07:38:54.000Z</time></trkpt>
<trkpt lat="41.729968" lon="23.525035"><ele>2287.6</ele><time>2026-03-15T07:38:55.000Z</time></trkpt>
<trkpt lat="41.72996" lon="23.525032"><ele>2287.6</ele><time>2026-03-15T07:38:56.000Z</time></trkpt>
<trkpt lat="41.729952" lon="23.52503"><ele>2287.6</ele><time>2026-03-15T07:38:57.000Z</time></trkpt>
<trkpt lat="41.729944" lon="23.525027"><ele>2287.6</ele><time>2026-03-15T07:38:58.000Z</time></trkpt>
<trkpt lat="41.729937" lon="23.525023"><ele>2287.6</ele><time>2026-03-15T07:38:59.000Z</time></trkpt>
<trkpt lat="41.729929" lon="23.52502"><ele>2287.6</ele><time>2026-03-15T07:39:00.000Z</time></trkpt>
<trkpt lat="41.729922" lon="23.525017"><ele>2287.6</ele><time>2026-03-15T07:39:01.000Z</time></trkpt>
<trkpt lat="41.729914" lon="23.525014"><ele>2287.6</ele><time>2026-03-15T07:39:02.000Z</time></trkpt>
<trkpt lat="41.729907" lon="23.525011"><ele>2287.6</ele><time>2026-03-15T07:39:03.000Z</time></trkpt>
<trkpt lat="41.7299" lon="23.525009"><ele>2287.6</ele><time>2026-03-15T07:39:04.000Z</time></trkpt>
<trkpt lat="41.729893" lon="23.525008"><ele>2287.6</ele><time>2026-03-15T07:39:05.000Z</time></trkpt>
<trkpt lat="41.729884" lon="23.525006"><ele>2287.6</ele><time>2026-03-15T07:39:06.000Z</time></trkpt>
<trkpt lat="41.729877" lon="23.525005"><ele>2287.6</ele><time>2026-03-15T07:39:07.000Z</time></trkpt>
<trkpt lat="41.729869" lon="23.525004"><ele>2287.6</ele><time>2026-03-15T07:39:08.000Z</time></trkpt>
<trkpt lat="41.729861" lon="23.525003"><ele>2287.6</ele><time>2026-03-15T07:39:09.000Z</time></trkpt>
<trkpt lat="41.729852" lon="23.525001"><ele>2287.6</ele><time>2026-03-15T07:39:10.000Z</time></trkpt>
<trkpt lat="41.729844" lon="23.524999"><ele>2288.1</ele><time>2026-03-15T07:39:11.000Z</time></trkpt>
<trkpt lat="41.729836" lon="23.524998"><ele>2288.1</ele><time>2026-03-15T07:39:12.000Z</time></trkpt>
<trkpt lat="41.729828" lon="23.524996"><ele>2288.1</ele><time>2026-03-15T07:39:13.000Z</time></trkpt>
<trkpt lat="41.729822" lon="23.524995"><ele>2288.1</ele><time>2026-03-15T07:39:14.000Z</time></trkpt>
<trkpt lat="41.729816" lon="23.524994"><ele>2288.1</ele><time>2026-03-15T07:39:15.000Z</time></trkpt>
<trkpt lat="41.729809" lon="23.524992"><ele>2289</ele><time>2026-03-15T07:39:16.000Z</time></trkpt>
<trkpt lat="41.729803" lon="23.524991"><ele>2289</ele><time>2026-03-15T07:39:17.000Z</time></trkpt>
<trkpt lat="41.729797" lon="23.524989"><ele>2289</ele><time>2026-03-15T07:39:18.000Z</time></trkpt>
<trkpt lat="41.72979" lon="23.524986"><ele>2289</ele><time>2026-03-15T07:39:19.000Z</time></trkpt>
<trkpt lat="41.729782" lon="23.524984"><ele>2289</ele><time>2026-03-15T07:39:20.000Z</time></trkpt>
<trkpt lat="41.729774" lon="23.524982"><ele>2289.9</ele><time>2026-03-15T07:39:21.000Z</time></trkpt>
<trkpt lat="41.729765" lon="23.524978"><ele>2289.9</ele><time>2026-03-15T07:39:22.000Z</time></trkpt>
<trkpt lat="41.729756" lon="23.524974"><ele>2289.9</ele><time>2026-03-15T07:39:23.000Z</time></trkpt>
<trkpt lat="41.729747" lon="23.524971"><ele>2289.9</ele><time>2026-03-15T07:39:24.000Z</time></trkpt>
<trkpt lat="41.729739" lon="23.524968"><ele>2289.9</ele><time>2026-03-15T07:39:25.000Z</time></trkpt>
<trkpt lat="41.729729" lon="23.524965"><ele>2290.2</ele><time>2026-03-15T07:39:26.000Z</time></trkpt>
<trkpt lat="41.72972" lon="23.524961"><ele>2290.2</ele><time>2026-03-15T07:39:27.000Z</time></trkpt>
<trkpt lat="41.729711" lon="23.524959"><ele>2290.2</ele><time>2026-03-15T07:39:28.000Z</time></trkpt>
<trkpt lat="41.729703" lon="23.524957"><ele>2290.2</ele><time>2026-03-15T07:39:29.000Z</time></trkpt>
<trkpt lat="41.729695" lon="23.524954"><ele>2290.2</ele><time>2026-03-15T07:39:30.000Z</time></trkpt>
<trkpt lat="41.729686" lon="23.524951"><ele>2290.9</ele><time>2026-03-15T07:39:31.000Z</time></trkpt>
<trkpt lat="41.729678" lon="23.524948"><ele>2290.9</ele><time>2026-03-15T07:39:32.000Z</time></trkpt>
<trkpt lat="41.729669" lon="23.524944"><ele>2290.9</ele><time>2026-03-15T07:39:33.000Z</time></trkpt>
<trkpt lat="41.72966" lon="23.52494"><ele>2290.9</ele><time>2026-03-15T07:39:34.000Z</time></trkpt>
<trkpt lat="41.729651" lon="23.524936"><ele>2290.9</ele><time>2026-03-15T07:39:35.000Z</time></trkpt>
<trkpt lat="41.729641" lon="23.524932"><ele>2291.7</ele><time>2026-03-15T07:39:36.000Z</time></trkpt>
<trkpt lat="41.729631" lon="23.524929"><ele>2291.7</ele><time>2026-03-15T07:39:37.000Z</time></trkpt>
<trkpt lat="41.729621" lon="23.524925"><ele>2291.7</ele><time>2026-03-15T07:39:38.000Z</time></trkpt>
<trkpt lat="41.729611" lon="23.524923"><ele>2291.7</ele><time>2026-03-15T07:39:39.000Z</time></trkpt>
<trkpt lat="41.729601" lon="23.52492"><ele>2291.7</ele><time>2026-03-15T07:39:40.000Z</time></trkpt>
<trkpt lat="41.729593" lon="23.524918"><ele>2292.1</ele><time>2026-03-15T07:39:41.000Z</time></trkpt>
<trkpt lat="41.729584" lon="23.524917"><ele>2292.1</ele><time>2026-03-15T07:39:42.000Z</time></trkpt>
<trkpt lat="41.729576" lon="23.524916"><ele>2292.1</ele><time>2026-03-15T07:39:43.000Z</time></trkpt>
<trkpt lat="41.729568" lon="23.524914"><ele>2292.1</ele><time>2026-03-15T07:39:44.000Z</time></trkpt>
<trkpt lat="41.729559" lon="23.524913"><ele>2292.1</ele><time>2026-03-15T07:39:45.000Z</time></trkpt>
<trkpt lat="41.72955" lon="23.524911"><ele>2293.1</ele><time>2026-03-15T07:39:46.000Z</time></trkpt>
<trkpt lat="41.729541" lon="23.524908"><ele>2293.1</ele><time>2026-03-15T07:39:47.000Z</time></trkpt>
<trkpt lat="41.729533" lon="23.524906"><ele>2293.1</ele><time>2026-03-15T07:39:48.000Z</time></trkpt>
<trkpt lat="41.729525" lon="23.524903"><ele>2293.1</ele><time>2026-03-15T07:39:49.000Z</time></trkpt>
<trkpt lat="41.729516" lon="23.524901"><ele>2293.1</ele><time>2026-03-15T07:39:50.000Z</time></trkpt>
<trkpt lat="41.729508" lon="23.524899"><ele>2294.1</ele><time>2026-03-15T07:39:51.000Z</time></trkpt>
<trkpt lat="41.7295" lon="23.524897"><ele>2294.1</ele><time>2026-03-15T07:39:52.000Z</time></trkpt>
<trkpt lat="41.729491" lon="23.524895"><ele>2294.1</ele><time>2026-03-15T07:39:53.000Z</time></trkpt>
<trkpt lat="41.729482" lon="23.524892"><ele>2294.1</ele><time>2026-03-15T07:39:54.000Z</time></trkpt>
<trkpt lat="41.729474" lon="23.52489"><ele>2294.1</ele><time>2026-03-15T07:39:55.000Z</time></trkpt>
<trkpt lat="41.729466" lon="23.524888"><ele>2294.6</ele><time>2026-03-15T07:39:56.000Z</time></trkpt>
<trkpt lat="41.729458" lon="23.524886"><ele>2294.6</ele><time>2026-03-15T07:39:57.000Z</time></trkpt>
<trkpt lat="41.729451" lon="23.524885"><ele>2294.6</ele><time>2026-03-15T07:39:58.000Z</time></trkpt>
<trkpt lat="41.729444" lon="23.524882"><ele>2294.6</ele><time>2026-03-15T07:39:59.000Z</time></trkpt>
<trkpt lat="41.729437" lon="23.52488"><ele>2294.6</ele><time>2026-03-15T07:40:00.000Z</time></trkpt>
<trkpt lat="41.729431" lon="23.524879"><ele>2295.6</ele><time>2026-03-15T07:40:01.000Z</time></trkpt>
<trkpt lat="41.729424" lon="23.524877"><ele>2295.6</ele><time>2026-03-15T07:40:02.000Z</time></trkpt>
<trkpt lat="41.729416" lon="23.524875"><ele>2295.6</ele><time>2026-03-15T07:40:03.000Z</time></trkpt>
<trkpt lat="41.729411" lon="23.524873"><ele>2295.6</ele><time>2026-03-15T07:40:04.000Z</time></trkpt>
<trkpt lat="41.729407" lon="23.524872"><ele>2295.6</ele><time>2026-03-15T07:40:05.000Z</time></trkpt>
<trkpt lat="41.729403" lon="23.52487"><ele>2296.7</ele><time>2026-03-15T07:40:06.000Z</time></trkpt>
<trkpt lat="41.729398" lon="23.524869"><ele>2296.7</ele><time>2026-03-15T07:40:07.000Z</time></trkpt>
<trkpt lat="41.729394" lon="23.524869"><ele>2296.7</ele><time>2026-03-15T07:40:08.000Z</time></trkpt>
<trkpt lat="41.729387" lon="23.524868"><ele>2296.7</ele><time>2026-03-15T07:40:09.000Z</time></trkpt>
<trkpt lat="41.729379" lon="23.524866"><ele>2296.7</ele><time>2026-03-15T07:40:10.000Z</time></trkpt>
<trkpt lat="41.72937" lon="23.524866"><ele>2297.1</ele><time>2026-03-15T07:40:11.000Z</time></trkpt>
<trkpt lat="41.729362" lon="23.524866"><ele>2297.1</ele><time>2026-03-15T07:40:12.000Z</time></trkpt>
<trkpt lat="41.729353" lon="23.524865"><ele>2297.1</ele><time>2026-03-15T07:40:13.000Z</time></trkpt>
<trkpt lat="41.729343" lon="23.524864"><ele>2297.1</ele><time>2026-03-15T07:40:14.000Z</time></trkpt>
<trkpt lat="41.729334" lon="23.524863"><ele>2297.1</ele><time>2026-03-15T07:40:15.000Z</time></trkpt>
<trkpt lat="41.729326" lon="23.52486"><ele>2297.7</ele><time>2026-03-15T07:40:16.000Z</time></trkpt>
<trkpt lat="41.729317" lon="23.524856"><ele>2297.7</ele><time>2026-03-15T07:40:17.000Z</time></trkpt>
<trkpt lat="41.72931" lon="23.524853"><ele>2297.7</ele><time>2026-03-15T07:40:18.000Z</time></trkpt>
<trkpt lat="41.729303" lon="23.52485"><ele>2297.7</ele><time>2026-03-15T07:40:19.000Z</time></trkpt>
<trkpt lat="41.729295" lon="23.524848"><ele>2297.7</ele><time>2026-03-15T07:40:20.000Z</time></trkpt>
<trkpt lat="41.729286" lon="23.524847"><ele>2298.3</ele><time>2026-03-15T07:40:21.000Z</time></trkpt>
<trkpt lat="41.729277" lon="23.524846"><ele>2298.3</ele><time>2026-03-15T07:40:22.000Z</time></trkpt>
<trkpt lat="41.729269" lon="23.524846"><ele>2298.3</ele><time>2026-03-15T07:40:23.000Z</time></trkpt>
<trkpt lat="41.72926" lon="23.524847"><ele>2298.3</ele><time>2026-03-15T07:40:24.000Z</time></trkpt>
<trkpt lat="41.729251" lon="23.524847"><ele>2298.3</ele><time>2026-03-15T07:40:25.000Z</time></trkpt>
<trkpt lat="41.729242" lon="23.524847"><ele>2298.6</ele><time>2026-03-15T07:40:26.000Z</time></trkpt>
<trkpt lat="41.729234" lon="23.524846"><ele>2298.6</ele><time>2026-03-15T07:40:27.000Z</time></trkpt>
<trkpt lat="41.729226" lon="23.524844"><ele>2298.6</ele><time>2026-03-15T07:40:28.000Z</time></trkpt>
<trkpt lat="41.729218" lon="23.524844"><ele>2298.6</ele><time>2026-03-15T07:40:29.000Z</time></trkpt>
<trkpt lat="41.72921" lon="23.524843"><ele>2298.6</ele><time>2026-03-15T07:40:30.000Z</time></trkpt>
<trkpt lat="41.729203" lon="23.524842"><ele>2299.5</ele><time>2026-03-15T07:40:31.000Z</time></trkpt>
<trkpt lat="41.729195" lon="23.524841"><ele>2299.5</ele><time>2026-03-15T07:40:32.000Z</time></trkpt>
<trkpt lat="41.729187" lon="23.52484"><ele>2299.5</ele><time>2026-03-15T07:40:33.000Z</time></trkpt>
<trkpt lat="41.72918" lon="23.524839"><ele>2299.5</ele><time>2026-03-15T07:40:34.000Z</time></trkpt>
<trkpt lat="41.729172" lon="23.524837"><ele>2299.5</ele><time>2026-03-15T07:40:35.000Z</time></trkpt>
<trkpt lat="41.729163" lon="23.524835"><ele>2300.4</ele><time>2026-03-15T07:40:36.000Z</time></trkpt>
<trkpt lat="41.729155" lon="23.524835"><ele>2300.4</ele><time>2026-03-15T07:40:37.000Z</time></trkpt>
<trkpt lat="41.729148" lon="23.524834"><ele>2300.4</ele><time>2026-03-15T07:40:38.000Z</time></trkpt>
<trkpt lat="41.72914" lon="23.524834"><ele>2300.4</ele><time>2026-03-15T07:40:39.000Z</time></trkpt>
<trkpt lat="41.729132" lon="23.524834"><ele>2300.4</ele><time>2026-03-15T07:40:40.000Z</time></trkpt>
<trkpt lat="41.729125" lon="23.524834"><ele>2300.8</ele><time>2026-03-15T07:40:41.000Z</time></trkpt>
<trkpt lat="41.729118" lon="23.524833"><ele>2300.8</ele><time>2026-03-15T07:40:42.000Z</time></trkpt>
<trkpt lat="41.72911" lon="23.524831"><ele>2300.8</ele><time>2026-03-15T07:40:43.000Z</time></trkpt>
<trkpt lat="41.729102" lon="23.52483"><ele>2300.8</ele><time>2026-03-15T07:40:44.000Z</time></trkpt>
<trkpt lat="41.729094" lon="23.524828"><ele>2300.8</ele><time>2026-03-15T07:40:45.000Z</time></trkpt>
<trkpt lat="41.729086" lon="23.524826"><ele>2301.7</ele><time>2026-03-15T07:40:46.000Z</time></trkpt>
<trkpt lat="41.729077" lon="23.524824"><ele>2301.7</ele><time>2026-03-15T07:40:47.000Z</time></trkpt>
<trkpt lat="41.72907" lon="23.524824"><ele>2301.7</ele><time>2026-03-15T07:40:48.000Z</time></trkpt>
<trkpt lat="41.729062" lon="23.524823"><ele>2301.7</ele><time>2026-03-15T07:40:49.000Z</time></trkpt>
<trkpt lat="41.729053" lon="23.524824"><ele>2301.7</ele><time>2026-03-15T07:40:50.000Z</time></trkpt>
<trkpt lat="41.729046" lon="23.524824"><ele>2302.6</ele><time>2026-03-15T07:40:51.000Z</time></trkpt>
<trkpt lat="41.729038" lon="23.524824"><ele>2302.6</ele><time>2026-03-15T07:40:52.000Z</time></trkpt>
<trkpt lat="41.72903" lon="23.524823"><ele>2302.6</ele><time>2026-03-15T07:40:53.000Z</time></trkpt>
<trkpt lat="41.729022" lon="23.524821"><ele>2302.6</ele><time>2026-03-15T07:40:54.000Z</time></trkpt>
<trkpt lat="41.729015" lon="23.524818"><ele>2302.6</ele><time>2026-03-15T07:40:55.000Z</time></trkpt>
<trkpt lat="41.729008" lon="23.524815"><ele>2303.1</ele><time>2026-03-15T07:40:56.000Z</time></trkpt>
<trkpt lat="41.729001" lon="23.524813"><ele>2303.1</ele><time>2026-03-15T07:40:57.000Z</time></trkpt>
<trkpt lat="41.728994" lon="23.524811"><ele>2303.1</ele><time>2026-03-15T07:40:58.000Z</time></trkpt>
<trkpt lat="41.728987" lon="23.524809"><ele>2303.1</ele><time>2026-03-15T07:40:59.000Z</time></trkpt>
<trkpt lat="41.728979" lon="23.524806"><ele>2303.1</ele><time>2026-03-15T07:41:00.000Z</time></trkpt>
<trkpt lat="41.728972" lon="23.524805"><ele>2304</ele><time>2026-03-15T07:41:01.000Z</time></trkpt>
<trkpt lat="41.728965" lon="23.524803"><ele>2304</ele><time>2026-03-15T07:41:02.000Z</time></trkpt>
<trkpt lat="41.728957" lon="23.524801"><ele>2304</ele><time>2026-03-15T07:41:03.000Z</time></trkpt>
<trkpt lat="41.728949" lon="23.524799"><ele>2304</ele><time>2026-03-15T07:41:04.000Z</time></trkpt>
<trkpt lat="41.728942" lon="23.524798"><ele>2304</ele><time>2026-03-15T07:41:05.000Z</time></trkpt>
<trkpt lat="41.728934" lon="23.524796"><ele>2304.7</ele><time>2026-03-15T07:41:06.000Z</time></trkpt>
<trkpt lat="41.728925" lon="23.524795"><ele>2304.7</ele><time>2026-03-15T07:41:07.000Z</time></trkpt>
<trkpt lat="41.728917" lon="23.524794"><ele>2304.7</ele><time>2026-03-15T07:41:08.000Z</time></trkpt>
<trkpt lat="41.728909" lon="23.524792"><ele>2304.7</ele><time>2026-03-15T07:41:09.000Z</time></trkpt>
<trkpt lat="41.7289" lon="23.524789"><ele>2304.7</ele><time>2026-03-15T07:41:10.000Z</time></trkpt>
<trkpt lat="41.728892" lon="23.524787"><ele>2305</ele><time>2026-03-15T07:41:11.000Z</time></trkpt>
<trkpt lat="41.728884" lon="23.524785"><ele>2305</ele><time>2026-03-15T07:41:12.000Z</time></trkpt>
<trkpt lat="41.728875" lon="23.524781"><ele>2305</ele><time>2026-03-15T07:41:13.000Z</time></trkpt>
<trkpt lat="41.728867" lon="23.524778"><ele>2305</ele><time>2026-03-15T07:41:14.000Z</time></trkpt>
<trkpt lat="41.72886" lon="23.524775"><ele>2305</ele><time>2026-03-15T07:41:15.000Z</time></trkpt>
<trkpt lat="41.728851" lon="23.524772"><ele>2305.8</ele><time>2026-03-15T07:41:16.000Z</time></trkpt>
<trkpt lat="41.728843" lon="23.524768"><ele>2305.8</ele><time>2026-03-15T07:41:17.000Z</time></trkpt>
<trkpt lat="41.728836" lon="23.524765"><ele>2305.8</ele><time>2026-03-15T07:41:18.000Z</time></trkpt>
<trkpt lat="41.728829" lon="23.524762"><ele>2305.8</ele><time>2026-03-15T07:41:19.000Z</time></trkpt>
<trkpt lat="41.728822" lon="23.524759"><ele>2305.8</ele><time>2026-03-15T07:41:20.000Z</time></trkpt>
<trkpt lat="41.728815" lon="23.524757"><ele>2306.7</ele><time>2026-03-15T07:41:21.000Z</time></trkpt>
<trkpt lat="41.728808" lon="23.524755"><ele>2306.7</ele><time>2026-03-15T07:41:22.000Z</time></trkpt>
<trkpt lat="41.7288" lon="23.524753"><ele>2306.7</ele><time>2026-03-15T07:41:23.000Z</time></trkpt>
<trkpt lat="41.728793" lon="23.52475"><ele>2306.7</ele><time>2026-03-15T07:41:24.000Z</time></trkpt>
<trkpt lat="41.728786" lon="23.524749"><ele>2306.7</ele><time>2026-03-15T07:41:25.000Z</time></trkpt>
<trkpt lat="41.728779" lon="23.524745"><ele>2307.2</ele><time>2026-03-15T07:41:26.000Z</time></trkpt>
<trkpt lat="41.728772" lon="23.524743"><ele>2307.2</ele><time>2026-03-15T07:41:27.000Z</time></trkpt>
<trkpt lat="41.728765" lon="23.524741"><ele>2307.2</ele><time>2026-03-15T07:41:28.000Z</time></trkpt>
<trkpt lat="41.728758" lon="23.524738"><ele>2307.2</ele><time>2026-03-15T07:41:29.000Z</time></trkpt>
<trkpt lat="41.728751" lon="23.524737"><ele>2307.2</ele><time>2026-03-15T07:41:30.000Z</time></trkpt>
<trkpt lat="41.728745" lon="23.524735"><ele>2308.2</ele><time>2026-03-15T07:41:31.000Z</time></trkpt>
<trkpt lat="41.728737" lon="23.524733"><ele>2308.2</ele><time>2026-03-15T07:41:32.000Z</time></trkpt>
<trkpt lat="41.728731" lon="23.524731"><ele>2308.2</ele><time>2026-03-15T07:41:33.000Z</time></trkpt>
<trkpt lat="41.728725" lon="23.52473"><ele>2308.2</ele><time>2026-03-15T07:41:34.000Z</time></trkpt>
<trkpt lat="41.728719" lon="23.524726"><ele>2308.2</ele><time>2026-03-15T07:41:35.000Z</time></trkpt>
<trkpt lat="41.728712" lon="23.524723"><ele>2309.1</ele><time>2026-03-15T07:41:36.000Z</time></trkpt>
<trkpt lat="41.728706" lon="23.52472"><ele>2309.1</ele><time>2026-03-15T07:41:37.000Z</time></trkpt>
<trkpt lat="41.7287" lon="23.524716"><ele>2309.1</ele><time>2026-03-15T07:41:38.000Z</time></trkpt>
<trkpt lat="41.728694" lon="23.524713"><ele>2309.1</ele><time>2026-03-15T07:41:39.000Z</time></trkpt>
<trkpt lat="41.728687" lon="23.524711"><ele>2309.1</ele><time>2026-03-15T07:41:40.000Z</time></trkpt>
<trkpt lat="41.728681" lon="23.524707"><ele>2309.6</ele><time>2026-03-15T07:41:41.000Z</time></trkpt>
<trkpt lat="41.728675" lon="23.524704"><ele>2309.6</ele><time>2026-03-15T07:41:42.000Z</time></trkpt>
<trkpt lat="41.72867" lon="23.524701"><ele>2309.6</ele><time>2026-03-15T07:41:43.000Z</time></trkpt>
<trkpt lat="41.728664" lon="23.524697"><ele>2309.6</ele><time>2026-03-15T07:41:44.000Z</time></trkpt>
<trkpt lat="41.72866" lon="23.524694"><ele>2309.6</ele><time>2026-03-15T07:41:45.000Z</time></trkpt>
<trkpt lat="41.728656" lon="23.52469"><ele>2310.5</ele><time>2026-03-15T07:41:46.000Z</time></trkpt>
<trkpt lat="41.728652" lon="23.524688"><ele>2310.5</ele><time>2026-03-15T07:41:47.000Z</time></trkpt>
<trkpt lat="41.728648" lon="23.524686"><ele>2310.5</ele><time>2026-03-15T07:41:48.000Z</time></trkpt>
<trkpt lat="41.728644" lon="23.524684"><ele>2310.5</ele><time>2026-03-15T07:41:49.000Z</time></trkpt>
<trkpt lat="41.728639" lon="23.524683"><ele>2310.5</ele><time>2026-03-15T07:41:50.000Z</time></trkpt>
<trkpt lat="41.728635" lon="23.524682"><ele>2311.5</ele><time>2026-03-15T07:41:51.000Z</time></trkpt>
<trkpt lat="41.72863" lon="23.52468"><ele>2311.5</ele><time>2026-03-15T07:41:52.000Z</time></trkpt>
<trkpt lat="41.728627" lon="23.524678"><ele>2311.5</ele><time>2026-03-15T07:41:53.000Z</time></trkpt>
<trkpt lat="41.728623" lon="23.524676"><ele>2311.5</ele><time>2026-03-15T07:41:54.000Z</time></trkpt>
<trkpt lat="41.728619" lon="23.524674"><ele>2311.5</ele><time>2026-03-15T07:41:55.000Z</time></trkpt>
<trkpt lat="41.728615" lon="23.524672"><ele>2312.1</ele><time>2026-03-15T07:41:56.000Z</time></trkpt>
<trkpt lat="41.728611" lon="23.52467"><ele>2312.1</ele><time>2026-03-15T07:41:57.000Z</time></trkpt>
<trkpt lat="41.728607" lon="23.524667"><ele>2312.1</ele><time>2026-03-15T07:41:58.000Z</time></trkpt>
<trkpt lat="41.728603" lon="23.524665"><ele>2312.1</ele><time>2026-03-15T07:41:59.000Z</time></trkpt>
<trkpt lat="41.728599" lon="23.524662"><ele>2312.1</ele><time>2026-03-15T07:42:00.000Z</time></trkpt>
<trkpt lat="41.728595" lon="23.52466"><ele>2313.1</ele><time>2026-03-15T07:42:01.000Z</time></trkpt>
<trkpt lat="41.728591" lon="23.524657"><ele>2313.1</ele><time>2026-03-15T07:42:02.000Z</time></trkpt>
<trkpt lat="41.728587" lon="23.524654"><ele>2313.1</ele><time>2026-03-15T07:42:03.000Z</time></trkpt>
<trkpt lat="41.728583" lon="23.524651"><ele>2313.1</ele><time>2026-03-15T07:42:04.000Z</time></trkpt>
<trkpt lat="41.728579" lon="23.524649"><ele>2313.1</ele><time>2026-03-15T07:42:05.000Z</time></trkpt>
<trkpt lat="41.728575" lon="23.524645"><ele>2314.1</ele><time>2026-03-15T07:42:06.000Z</time></trkpt>
<trkpt lat="41.728571" lon="23.524642"><ele>2314.1</ele><time>2026-03-15T07:42:07.000Z</time></trkpt>
<trkpt lat="41.728567" lon="23.524638"><ele>2314.1</ele><time>2026-03-15T07:42:08.000Z</time></trkpt>
<trkpt lat="41.728563" lon="23.524634"><ele>2314.1</ele><time>2026-03-15T07:42:09.000Z</time></trkpt>
<trkpt lat="41.728559" lon="23.52463"><ele>2314.1</ele><time>2026-03-15T07:42:10.000Z</time></trkpt>
<trkpt lat="41.728555" lon="23.524626"><ele>2314.6</ele><time>2026-03-15T07:42:11.000Z</time></trkpt>
<trkpt lat="41.72855" lon="23.524621"><ele>2314.6</ele><time>2026-03-15T07:42:12.000Z</time></trkpt>
<trkpt lat="41.728546" lon="23.524618"><ele>2314.6</ele><time>2026-03-15T07:42:13.000Z</time></trkpt>
<trkpt lat="41.728541" lon="23.524615"><ele>2314.6</ele><time>2026-03-15T07:42:14.000Z</time></trkpt>
<trkpt lat="41.728536" lon="23.524612"><ele>2314.6</ele><time>2026-03-15T07:42:15.000Z</time></trkpt>
<trkpt lat="41.728531" lon="23.524609"><ele>2315.5</ele><time>2026-03-15T07:42:16.000Z</time></trkpt>
<trkpt lat="41.728527" lon="23.524606"><ele>2315.5</ele><time>2026-03-15T07:42:17.000Z</time></trkpt>
<trkpt lat="41.728521" lon="23.524603"><ele>2315.5</ele><time>2026-03-15T07:42:18.000Z</time></trkpt>
<trkpt lat="41.728516" lon="23.5246"><ele>2315.5</ele><time>2026-03-15T07:42:19.000Z</time></trkpt>
<trkpt lat="41.728511" lon="23.524596"><ele>2315.5</ele><time>2026-03-15T07:42:20.000Z</time></trkpt>
<trkpt lat="41.728506" lon="23.524592"><ele>2316.4</ele><time>2026-03-15T07:42:21.000Z</time></trkpt>
<trkpt lat="41.728501" lon="23.524588"><ele>2316.4</ele><time>2026-03-15T07:42:22.000Z</time></trkpt>
<trkpt lat="41.728496" lon="23.524584"><ele>2316.4</ele><time>2026-03-15T07:42:23.000Z</time></trkpt>
<trkpt lat="41.728492" lon="23.52458"><ele>2316.4</ele><time>2026-03-15T07:42:24.000Z</time></trkpt>
<trkpt lat="41.728487" lon="23.524577"><ele>2316.4</ele><time>2026-03-15T07:42:25.000Z</time></trkpt>
<trkpt lat="41.728482" lon="23.524574"><ele>2316.8</ele><time>2026-03-15T07:42:26.000Z</time></trkpt>
<trkpt lat="41.728476" lon="23.524571"><ele>2316.8</ele><time>2026-03-15T07:42:27.000Z</time></trkpt>
<trkpt lat="41.728471" lon="23.524567"><ele>2316.8</ele><time>2026-03-15T07:42:28.000Z</time></trkpt>
<trkpt lat="41.728466" lon="23.524564"><ele>2316.8</ele><time>2026-03-15T07:42:29.000Z</time></trkpt>
<trkpt lat="41.728462" lon="23.52456"><ele>2316.8</ele><time>2026-03-15T07:42:30.000Z</time></trkpt>
<trkpt lat="41.728457" lon="23.524557"><ele>2317.8</ele><time>2026-03-15T07:42:31.000Z</time></trkpt>
<trkpt lat="41.728453" lon="23.524555"><ele>2317.8</ele><time>2026-03-15T07:42:32.000Z</time></trkpt>
<trkpt lat="41.728449" lon="23.524554"><ele>2317.8</ele><time>2026-03-15T07:42:33.000Z</time></trkpt>
<trkpt lat="41.728445" lon="23.524553"><ele>2317.8</ele><time>2026-03-15T07:42:34.000Z</time></trkpt>
<trkpt lat="41.72844" lon="23.524552"><ele>2317.8</ele><time>2026-03-15T07:42:35.000Z</time></trkpt>
<trkpt lat="41.728437" lon="23.524552"><ele>2318.7</ele><time>2026-03-15T07:42:36.000Z</time></trkpt>
<trkpt lat="41.728433" lon="23.52455"><ele>2318.7</ele><time>2026-03-15T07:42:37.000Z</time></trkpt>
<trkpt lat="41.72843" lon="23.524548"><ele>2318.7</ele><time>2026-03-15T07:42:38.000Z</time></trkpt>
<trkpt lat="41.728426" lon="23.524546"><ele>2318.7</ele><time>2026-03-15T07:42:39.000Z</time></trkpt>
<trkpt lat="41.728422" lon="23.524544"><ele>2318.7</ele><time>2026-03-15T07:42:40.000Z</time></trkpt>
<trkpt lat="41.728418" lon="23.524541"><ele>2319.1</ele><time>2026-03-15T07:42:41.000Z</time></trkpt>
<trkpt lat="41.728414" lon="23.524539"><ele>2319.1</ele><time>2026-03-15T07:42:42.000Z</time></trkpt>
<trkpt lat="41.72841" lon="23.524536"><ele>2319.1</ele><time>2026-03-15T07:42:43.000Z</time></trkpt>
<trkpt lat="41.728406" lon="23.524533"><ele>2319.1</ele><time>2026-03-15T07:42:44.000Z</time></trkpt>
<trkpt lat="41.728402" lon="23.524529"><ele>2319.1</ele><time>2026-03-15T07:42:45.000Z</time></trkpt>
<trkpt lat="41.728398" lon="23.524526"><ele>2319.9</ele><time>2026-03-15T07:42:46.000Z</time></trkpt>
<trkpt lat="41.728395" lon="23.524523"><ele>2319.9</ele><time>2026-03-15T07:42:47.000Z</time></trkpt>
<trkpt lat="41.728392" lon="23.52452"><ele>2319.9</ele><time>2026-03-15T07:42:48.000Z</time></trkpt>
<trkpt lat="41.728389" lon="23.524518"><ele>2319.9</ele><time>2026-03-15T07:42:49.000Z</time></trkpt>
<trkpt lat="41.728386" lon="23.524516"><ele>2319.9</ele><time>2026-03-15T07:42:50.000Z</time></trkpt>
<trkpt lat="41.728383" lon="23.524513"><ele>2320.9</ele><time>2026-03-15T07:42:51.000Z</time></trkpt>
<trkpt lat="41.728379" lon="23.524512"><ele>2320.9</ele><time>2026-03-15T07:42:52.000Z</time></trkpt>
<trkpt lat="41.728375" lon="23.524509"><ele>2320.9</ele><time>2026-03-15T07:42:53.000Z</time></trkpt>
<trkpt lat="41.728371" lon="23.524506"><ele>2320.9</ele><time>2026-03-15T07:42:54.000Z</time></trkpt>
<trkpt lat="41.728366" lon="23.524502"><ele>2320.9</ele><time>2026-03-15T07:42:55.000Z</time></trkpt>
<trkpt lat="41.728362" lon="23.5245"><ele>2321.4</ele><time>2026-03-15T07:42:56.000Z</time></trkpt>
<trkpt lat="41.728357" lon="23.524497"><ele>2321.4</ele><time>2026-03-15T07:42:57.000Z</time></trkpt>
<trkpt lat="41.728353" lon="23.524494"><ele>2321.4</ele><time>2026-03-15T07:42:58.000Z</time></trkpt>
<trkpt lat="41.728349" lon="23.524492"><ele>2321.4</ele><time>2026-03-15T07:42:59.000Z</time></trkpt>
<trkpt lat="41.728345" lon="23.524489"><ele>2321.4</ele><time>2026-03-15T07:43:00.000Z</time></trkpt>
<trkpt lat="41.728342" lon="23.524487"><ele>2322.4</ele><time>2026-03-15T07:43:01.000Z</time></trkpt>
<trkpt lat="41.728338" lon="23.524484"><ele>2322.4</ele><time>2026-03-15T07:43:02.000Z</time></trkpt>
<trkpt lat="41.728335" lon="23.524481"><ele>2322.4</ele><time>2026-03-15T07:43:03.000Z</time></trkpt>
<trkpt lat="41.728332" lon="23.524478"><ele>2322.4</ele><time>2026-03-15T07:43:04.000Z</time></trkpt>
<trkpt lat="41.728328" lon="23.524476"><ele>2322.4</ele><time>2026-03-15T07:43:05.000Z</time></trkpt>
<trkpt lat="41.728325" lon="23.524474"><ele>2323.2</ele><time>2026-03-15T07:43:06.000Z</time></trkpt>
<trkpt lat="41.728322" lon="23.524473"><ele>2323.2</ele><time>2026-03-15T07:43:07.000Z</time></trkpt>
<trkpt lat="41.728318" lon="23.524472"><ele>2323.2</ele><time>2026-03-15T07:43:08.000Z</time></trkpt>
<trkpt lat="41.728315" lon="23.524471"><ele>2323.2</ele><time>2026-03-15T07:43:09.000Z</time></trkpt>
<trkpt lat="41.728312" lon="23.52447"><ele>2323.2</ele><time>2026-03-15T07:43:10.000Z</time></trkpt>
<trkpt lat="41.728309" lon="23.524468"><ele>2323.6</ele><time>2026-03-15T07:43:11.000Z</time></trkpt>
<trkpt lat="41.728306" lon="23.524466"><ele>2323.6</ele><time>2026-03-15T07:43:12.000Z</time></trkpt>
<trkpt lat="41.728302" lon="23.524464"><ele>2323.6</ele><time>2026-03-15T07:43:13.000Z</time></trkpt>
<trkpt lat="41.728298" lon="23.524462"><ele>2323.6</ele><time>2026-03-15T07:43:14.000Z</time></trkpt>
<trkpt lat="41.728294" lon="23.524461"><ele>2323.6</ele><time>2026-03-15T07:43:15.000Z</time></trkpt>
<trkpt lat="41.728289" lon="23.524458"><ele>2324.5</ele><time>2026-03-15T07:43:16.000Z</time></trkpt>
<trkpt lat="41.728285" lon="23.524455"><ele>2324.5</ele><time>2026-03-15T07:43:17.000Z</time></trkpt>
<trkpt lat="41.728281" lon="23.524451"><ele>2324.5</ele><time>2026-03-15T07:43:18.000Z</time></trkpt>
<trkpt lat="41.728278" lon="23.524448"><ele>2324.5</ele><time>2026-03-15T07:43:19.000Z</time></trkpt>
<trkpt lat="41.728275" lon="23.524443"><ele>2324.5</ele><time>2026-03-15T07:43:20.000Z</time></trkpt>
<trkpt lat="41.728271" lon="23.524439"><ele>2325.5</ele><time>2026-03-15T07:43:21.000Z</time></trkpt>
<trkpt lat="41.728269" lon="23.524435"><ele>2325.5</ele><time>2026-03-15T07:43:22.000Z</time></trkpt>
<trkpt lat="41.728266" lon="23.524432"><ele>2325.5</ele><time>2026-03-15T07:43:23.000Z</time></trkpt>
<trkpt lat="41.728263" lon="23.524429"><ele>2325.5</ele><time>2026-03-15T07:43:24.000Z</time></trkpt>
<trkpt lat="41.72826" lon="23.524426"><ele>2325.5</ele><time>2026-03-15T07:43:25.000Z</time></trkpt>
<trkpt lat="41.728256" lon="23.524424"><ele>2325.9</ele><time>2026-03-15T07:43:26.000Z</time></trkpt>
<trkpt lat="41.728251" lon="23.52442"><ele>2325.9</ele><time>2026-03-15T07:43:27.000Z</time></trkpt>
<trkpt lat="41.728246" lon="23.524417"><ele>2325.9</ele><time>2026-03-15T07:43:28.000Z</time></trkpt>
<trkpt lat="41.728241" lon="23.524414"><ele>2325.9</ele><time>2026-03-15T07:43:29.000Z</time></trkpt>
<trkpt lat="41.728236" lon="23.52441"><ele>2325.9</ele><time>2026-03-15T07:43:30.000Z</time></trkpt>
<trkpt lat="41.728232" lon="23.524408"><ele>2326.8</ele><time>2026-03-15T07:43:31.000Z</time></trkpt>
<trkpt lat="41.728228" lon="23.524409"><ele>2326.8</ele><time>2026-03-15T07:43:32.000Z</time></trkpt>
<trkpt lat="41.728225" lon="23.52441"><ele>2326.8</ele><time>2026-03-15T07:43:33.000Z</time></trkpt>
<trkpt lat="41.728223" lon="23.524411"><ele>2326.8</ele><time>2026-03-15T07:43:34.000Z</time></trkpt>
<trkpt lat="41.728219" lon="23.524412"><ele>2326.8</ele><time>2026-03-15T07:43:35.000Z</time></trkpt>
<trkpt lat="41.728216" lon="23.524412"><ele>2327.8</ele><time>2026-03-15T07:43:36.000Z</time></trkpt>
<trkpt lat="41.728213" lon="23.52441"><ele>2327.8</ele><time>2026-03-15T07:43:37.000Z</time></trkpt>
<trkpt lat="41.728209" lon="23.524406"><ele>2327.8</ele><time>2026-03-15T07:43:38.000Z</time></trkpt>
<trkpt lat="41.728205" lon="23.524403"><ele>2327.8</ele><time>2026-03-15T07:43:39.000Z</time></trkpt>
<trkpt lat="41.728201" lon="23.524398"><ele>2327.8</ele><time>2026-03-15T07:43:40.000Z</time></trkpt>
<trkpt lat="41.728197" lon="23.524394"><ele>2328.2</ele><time>2026-03-15T07:43:41.000Z</time></trkpt>
<trkpt lat="41.728192" lon="23.524391"><ele>2328.2</ele><time>2026-03-15T07:43:42.000Z</time></trkpt>
<trkpt lat="41.728187" lon="23.524387"><ele>2328.2</ele><time>2026-03-15T07:43:43.000Z</time></trkpt>
<trkpt lat="41.728183" lon="23.524383"><ele>2328.2</ele><time>2026-03-15T07:43:44.000Z</time></trkpt>
<trkpt lat="41.728179" lon="23.524379"><ele>2328.2</ele><time>2026-03-15T07:43:45.000Z</time></trkpt>
<trkpt lat="41.728175" lon="23.524375"><ele>2329.1</ele><time>2026-03-15T07:43:46.000Z</time></trkpt>
<trkpt lat="41.728172" lon="23.524371"><ele>2329.1</ele><time>2026-03-15T07:43:47.000Z</time></trkpt>
<trkpt lat="41.728169" lon="23.524367"><ele>2329.1</ele><time>2026-03-15T07:43:48.000Z</time></trkpt>
<trkpt lat="41.728166" lon="23.524362"><ele>2329.1</ele><time>2026-03-15T07:43:49.000Z</time></trkpt>
<trkpt lat="41.728162" lon="23.524358"><ele>2329.1</ele><time>2026-03-15T07:43:50.000Z</time></trkpt>
<trkpt lat="41.728159" lon="23.524354"><ele>2329.9</ele><time>2026-03-15T07:43:51.000Z</time></trkpt>
<trkpt lat="41.728155" lon="23.524351"><ele>2329.9</ele><time>2026-03-15T07:43:52.000Z</time></trkpt>
<trkpt lat="41.728151" lon="23.524347"><ele>2329.9</ele><time>2026-03-15T07:43:53.000Z</time></trkpt>
<trkpt lat="41.728148" lon="23.524345"><ele>2329.9</ele><time>2026-03-15T07:43:54.000Z</time></trkpt>
<trkpt lat="41.728146" lon="23.524344"><ele>2329.9</ele><time>2026-03-15T07:43:55.000Z</time></trkpt>
<trkpt lat="41.728145" lon="23.524346"><ele>2330.3</ele><time>2026-03-15T07:43:56.000Z</time></trkpt>
<trkpt lat="41.728145" lon="23.524349"><ele>2330.3</ele><time>2026-03-15T07:43:57.000Z</time></trkpt>
<trkpt lat="41.728145" lon="23.524353"><ele>2330.3</ele><time>2026-03-15T07:43:58.000Z</time></trkpt>
<trkpt lat="41.728145" lon="23.524357"><ele>2330.3</ele><time>2026-03-15T07:43:59.000Z</time></trkpt>
<trkpt lat="41.728146" lon="23.524359"><ele>2330.3</ele><time>2026-03-15T07:44:00.000Z</time></trkpt>
<trkpt lat="41.728146" lon="23.524361"><ele>2331.2</ele><time>2026-03-15T07:44:01.000Z</time></trkpt>
<trkpt lat="41.728146" lon="23.524361"><ele>2331.2</ele><time>2026-03-15T07:44:02.000Z</time></trkpt>
<trkpt lat="41.728146" lon="23.524362"><ele>2331.2</ele><time>2026-03-15T07:44:03.000Z</time></trkpt>
<trkpt lat="41.728145" lon="23.524363"><ele>2331.2</ele><time>2026-03-15T07:44:04.000Z</time></trkpt>
<trkpt lat="41.728143" lon="23.524362"><ele>2331.2</ele><time>2026-03-15T07:44:05.000Z</time></trkpt>
<trkpt lat="41.72814" lon="23.52436"><ele>2331.9</ele><time>2026-03-15T07:44:06.000Z</time></trkpt>
<trkpt lat="41.728136" lon="23.524358"><ele>2331.9</ele><time>2026-03-15T07:44:07.000Z</time></trkpt>
<trkpt lat="41.728132" lon="23.524355"><ele>2331.9</ele><time>2026-03-15T07:44:08.000Z</time></trkpt>
<trkpt lat="41.728129" lon="23.524352"><ele>2331.9</ele><time>2026-03-15T07:44:09.000Z</time></trkpt>
<trkpt lat="41.728124" lon="23.52435"><ele>2331.9</ele><time>2026-03-15T07:44:10.000Z</time></trkpt>
<trkpt lat="41.728121" lon="23.524347"><ele>2332.1</ele><time>2026-03-15T07:44:11.000Z</time></trkpt>
<trkpt lat="41.728117" lon="23.524344"><ele>2332.1</ele><time>2026-03-15T07:44:12.000Z</time></trkpt>
<trkpt lat="41.728113" lon="23.524339"><ele>2332.1</ele><time>2026-03-15T07:44:13.000Z</time></trkpt>
<trkpt lat="41.728109" lon="23.524334"><ele>2332.1</ele><time>2026-03-15T07:44:14.000Z</time></trkpt>
<trkpt lat="41.728106" lon="23.524327"><ele>2332.1</ele><time>2026-03-15T07:44:15.000Z</time></trkpt>
<trkpt lat="41.728102" lon="23.524321"><ele>2332.7</ele><time>2026-03-15T07:44:16.000Z</time></trkpt>
<trkpt lat="41.728099" lon="23.524316"><ele>2332.7</ele><time>2026-03-15T07:44:17.000Z</time></trkpt>
<trkpt lat="41.728095" lon="23.524311"><ele>2332.7</ele><time>2026-03-15T07:44:18.000Z</time></trkpt>
<trkpt lat="41.728091" lon="23.524305"><ele>2332.7</ele><time>2026-03-15T07:44:19.000Z</time></trkpt>
<trkpt lat="41.728088" lon="23.5243"><ele>2332.7</ele><time>2026-03-15T07:44:20.000Z</time></trkpt>
<trkpt lat="41.728084" lon="23.524294"><ele>2333.4</ele><time>2026-03-15T07:44:21.000Z</time></trkpt>
<trkpt lat="41.72808" lon="23.524289"><ele>2333.4</ele><time>2026-03-15T07:44:22.000Z</time></trkpt>
<trkpt lat="41.728076" lon="23.524284"><ele>2333.4</ele><time>2026-03-15T07:44:23.000Z</time></trkpt>
<trkpt lat="41.728074" lon="23.524281"><ele>2333.4</ele><time>2026-03-15T07:44:24.000Z</time></trkpt>
<trkpt lat="41.728072" lon="23.52428"><ele>2333.4</ele><time>2026-03-15T07:44:25.000Z</time></trkpt>
<trkpt lat="41.728071" lon="23.52428"><ele>2333.8</ele><time>2026-03-15T07:44:26.000Z</time></trkpt>
<trkpt lat="41.728072" lon="23.524281"><ele>2333.8</ele><time>2026-03-15T07:44:27.000Z</time></trkpt>
<trkpt lat="41.728072" lon="23.524284"><ele>2333.8</ele><time>2026-03-15T07:44:28.000Z</time></trkpt>
<trkpt lat="41.728072" lon="23.524285"><ele>2333.8</ele><time>2026-03-15T07:44:29.000Z</time></trkpt>
<trkpt lat="41.72807" lon="23.524286"><ele>2333.8</ele><time>2026-03-15T07:44:30.000Z</time></trkpt>
<trkpt lat="41.728066" lon="23.524285"><ele>2334.7</ele><time>2026-03-15T07:44:31.000Z</time></trkpt>
<trkpt lat="41.728064" lon="23.524284"><ele>2334.7</ele><time>2026-03-15T07:44:32.000Z</time></trkpt>
<trkpt lat="41.728061" lon="23.524283"><ele>2334.7</ele><time>2026-03-15T07:44:33.000Z</time></trkpt>
<trkpt lat="41.728057" lon="23.52428"><ele>2334.7</ele><time>2026-03-15T07:44:34.000Z</time></trkpt>
<trkpt lat="41.728054" lon="23.524277"><ele>2334.7</ele><time>2026-03-15T07:44:35.000Z</time></trkpt>
<trkpt lat="41.728051" lon="23.524276"><ele>2335.4</ele><time>2026-03-15T07:44:36.000Z</time></trkpt>
<trkpt lat="41.728047" lon="23.524272"><ele>2335.4</ele><time>2026-03-15T07:44:37.000Z</time></trkpt>
<trkpt lat="41.728041" lon="23.524268"><ele>2335.4</ele><time>2026-03-15T07:44:38.000Z</time></trkpt>
<trkpt lat="41.728036" lon="23.524265"><ele>2335.4</ele><time>2026-03-15T07:44:39.000Z</time></trkpt>
<trkpt lat="41.72803" lon="23.524262"><ele>2335.4</ele><time>2026-03-15T07:44:40.000Z</time></trkpt>
<trkpt lat="41.728024" lon="23.524258"><ele>2335.7</ele><time>2026-03-15T07:44:41.000Z</time></trkpt>
<trkpt lat="41.728018" lon="23.524256"><ele>2335.7</ele><time>2026-03-15T07:44:42.000Z</time></trkpt>
<trkpt lat="41.728012" lon="23.524252"><ele>2335.7</ele><time>2026-03-15T07:44:43.000Z</time></trkpt>
<trkpt lat="41.728007" lon="23.524248"><ele>2335.7</ele><time>2026-03-15T07:44:44.000Z</time></trkpt>
<trkpt lat="41.728003" lon="23.524245"><ele>2335.7</ele><time>2026-03-15T07:44:45.000Z</time></trkpt>
<trkpt lat="41.727998" lon="23.52424"><ele>2336.1</ele><time>2026-03-15T07:44:46.000Z</time></trkpt>
<trkpt lat="41.727993" lon="23.524237"><ele>2336.1</ele><time>2026-03-15T07:44:47.000Z</time></trkpt>
<trkpt lat="41.727989" lon="23.524232"><ele>2336.1</ele><time>2026-03-15T07:44:48.000Z</time></trkpt>
<trkpt lat="41.727984" lon="23.524226"><ele>2336.1</ele><time>2026-03-15T07:44:49.000Z</time></trkpt>
<trkpt lat="41.727978" lon="23.52422"><ele>2336.1</ele><time>2026-03-15T07:44:50.000Z</time></trkpt>
<trkpt lat="41.727973" lon="23.524214"><ele>2336.7</ele><time>2026-03-15T07:44:51.000Z</time></trkpt>
<trkpt lat="41.727967" lon="23.524207"><ele>2336.7</ele><time>2026-03-15T07:44:52.000Z</time></trkpt>
<trkpt lat="41.727961" lon="23.524201"><ele>2336.7</ele><time>2026-03-15T07:44:53.000Z</time></trkpt>
<trkpt lat="41.727955" lon="23.524194"><ele>2336.7</ele><time>2026-03-15T07:44:54.000Z</time></trkpt>
<trkpt lat="41.72795" lon="23.524187"><ele>2336.7</ele><time>2026-03-15T07:44:55.000Z</time></trkpt>
<trkpt lat="41.727945" lon="23.524179"><ele>2337</ele><time>2026-03-15T07:44:56.000Z</time></trkpt>
<trkpt lat="41.72794" lon="23.524172"><ele>2337</ele><time>2026-03-15T07:44:57.000Z</time></trkpt>
<trkpt lat="41.727935" lon="23.524164"><ele>2337</ele><time>2026-03-15T07:44:58.000Z</time></trkpt>
<trkpt lat="41.72793" lon="23.524156"><ele>2337</ele><time>2026-03-15T07:44:59.000Z</time></trkpt>
<trkpt lat="41.727926" lon="23.524148"><ele>2337</ele><time>2026-03-15T07:45:00.000Z</time></trkpt>
<trkpt lat="41.727922" lon="23.524141"><ele>2337.9</ele><time>2026-03-15T07:45:01.000Z</time></trkpt>
<trkpt lat="41.727918" lon="23.524134"><ele>2337.9</ele><time>2026-03-15T07:45:02.000Z</time></trkpt>
<trkpt lat="41.727915" lon="23.524128"><ele>2337.9</ele><time>2026-03-15T07:45:03.000Z</time></trkpt>
<trkpt lat="41.727911" lon="23.524123"><ele>2337.9</ele><time>2026-03-15T07:45:04.000Z</time></trkpt>
<trkpt lat="41.727907" lon="23.524119"><ele>2337.9</ele><time>2026-03-15T07:45:05.000Z</time></trkpt>
<trkpt lat="41.727904" lon="23.524114"><ele>2339</ele><time>2026-03-15T07:45:06.000Z</time></trkpt>
<trkpt lat="41.7279" lon="23.524108"><ele>2339</ele><time>2026-03-15T07:45:07.000Z</time></trkpt>
<trkpt lat="41.727896" lon="23.524102"><ele>2339</ele><time>2026-03-15T07:45:08.000Z</time></trkpt>
<trkpt lat="41.727892" lon="23.524095"><ele>2339</ele><time>2026-03-15T07:45:09.000Z</time></trkpt>
<trkpt lat="41.727887" lon="23.524088"><ele>2339</ele><time>2026-03-15T07:45:10.000Z</time></trkpt>
<trkpt lat="41.727882" lon="23.524081"><ele>2339.5</ele><time>2026-03-15T07:45:11.000Z</time></trkpt>
<trkpt lat="41.727876" lon="23.524075"><ele>2339.5</ele><time>2026-03-15T07:45:12.000Z</time></trkpt>
<trkpt lat="41.727869" lon="23.524069"><ele>2339.5</ele><time>2026-03-15T07:45:13.000Z</time></trkpt>
<trkpt lat="41.727862" lon="23.524062"><ele>2339.5</ele><time>2026-03-15T07:45:14.000Z</time></trkpt>
<trkpt lat="41.727857" lon="23.524056"><ele>2339.5</ele><time>2026-03-15T07:45:15.000Z</time></trkpt>
<trkpt lat="41.727851" lon="23.52405"><ele>2340.6</ele><time>2026-03-15T07:45:16.000Z</time></trkpt>
<trkpt lat="41.727845" lon="23.524043"><ele>2340.6</ele><time>2026-03-15T07:45:17.000Z</time></trkpt>
<trkpt lat="41.727839" lon="23.524037"><ele>2340.6</ele><time>2026-03-15T07:45:18.000Z</time></trkpt>
<trkpt lat="41.727833" lon="23.524031"><ele>2340.6</ele><time>2026-03-15T07:45:19.000Z</time></trkpt>
<trkpt lat="41.727827" lon="23.524024"><ele>2340.6</ele><time>2026-03-15T07:45:20.000Z</time></trkpt>
<trkpt lat="41.727821" lon="23.524018"><ele>2341.6</ele><time>2026-03-15T07:45:21.000Z</time></trkpt>
<trkpt lat="41.727816" lon="23.524011"><ele>2341.6</ele><time>2026-03-15T07:45:22.000Z</time></trkpt>
<trkpt lat="41.72781" lon="23.524003"><ele>2341.6</ele><time>2026-03-15T07:45:23.000Z</time></trkpt>
<trkpt lat="41.727805" lon="23.523996"><ele>2341.6</ele><time>2026-03-15T07:45:24.000Z</time></trkpt>
<trkpt lat="41.7278" lon="23.523988"><ele>2341.6</ele><time>2026-03-15T07:45:25.000Z</time></trkpt>
<trkpt lat="41.727795" lon="23.523981"><ele>2342.1</ele><time>2026-03-15T07:45:26.000Z</time></trkpt>
<trkpt lat="41.727789" lon="23.523974"><ele>2342.1</ele><time>2026-03-15T07:45:27.000Z</time></trkpt>
<trkpt lat="41.727784" lon="23.523968"><ele>2342.1</ele><time>2026-03-15T07:45:28.000Z</time></trkpt>
<trkpt lat="41.727778" lon="23.523961"><ele>2342.1</ele><time>2026-03-15T07:45:29.000Z</time></trkpt>
<trkpt lat="41.727772" lon="23.523954"><ele>2342.1</ele><time>2026-03-15T07:45:30.000Z</time></trkpt>
<trkpt lat="41.727766" lon="23.523947"><ele>2343.1</ele><time>2026-03-15T07:45:31.000Z</time></trkpt>
<trkpt lat="41.72776" lon="23.523939"><ele>2343.1</ele><time>2026-03-15T07:45:32.000Z</time></trkpt>
<trkpt lat="41.727754" lon="23.523932"><ele>2343.1</ele><time>2026-03-15T07:45:33.000Z</time></trkpt>
<trkpt lat="41.727749" lon="23.523926"><ele>2343.1</ele><time>2026-03-15T07:45:34.000Z</time></trkpt>
<trkpt lat="41.727744" lon="23.523919"><ele>2343.1</ele><time>2026-03-15T07:45:35.000Z</time></trkpt>
<trkpt lat="41.727739" lon="23.523912"><ele>2344.1</ele><time>2026-03-15T07:45:36.000Z</time></trkpt>
<trkpt lat="41.727734" lon="23.523905"><ele>2344.1</ele><time>2026-03-15T07:45:37.000Z</time></trkpt>
<trkpt lat="41.72773" lon="23.523898"><ele>2344.1</ele><time>2026-03-15T07:45:38.000Z</time></trkpt>
<trkpt lat="41.727725" lon="23.523892"><ele>2344.1</ele><time>2026-03-15T07:45:39.000Z</time></trkpt>
<trkpt lat="41.727721" lon="23.523887"><ele>2344.1</ele><time>2026-03-15T07:45:40.000Z</time></trkpt>
<trkpt lat="41.727717" lon="23.523883"><ele>2344.6</ele><time>2026-03-15T07:45:41.000Z</time></trkpt>
<trkpt lat="41.727715" lon="23.523882"><ele>2344.6</ele><time>2026-03-15T07:45:42.000Z</time></trkpt>
<trkpt lat="41.727714" lon="23.523882"><ele>2344.6</ele><time>2026-03-15T07:45:43.000Z</time></trkpt>
<trkpt lat="41.727714" lon="23.523884"><ele>2344.6</ele><time>2026-03-15T07:45:44.000Z</time></trkpt>
<trkpt lat="41.727715" lon="23.523886"><ele>2344.6</ele><time>2026-03-15T07:45:45.000Z</time></trkpt>
<trkpt lat="41.727715" lon="23.523888"><ele>2345.4</ele><time>2026-03-15T07:45:46.000Z</time></trkpt>
<trkpt lat="41.727716" lon="23.523889"><ele>2345.4</ele><time>2026-03-15T07:45:47.000Z</time></trkpt>
<trkpt lat="41.727715" lon="23.52389"><ele>2345.4</ele><time>2026-03-15T07:45:48.000Z</time></trkpt>
<trkpt lat="41.727713" lon="23.523889"><ele>2345.4</ele><time>2026-03-15T07:45:49.000Z</time></trkpt>
<trkpt lat="41.727711" lon="23.523888"><ele>2345.4</ele><time>2026-03-15T07:45:50.000Z</time></trkpt>
<trkpt lat="41.727709" lon="23.523887"><ele>2346.1</ele><time>2026-03-15T07:45:51.000Z</time></trkpt>
<trkpt lat="41.727706" lon="23.523887"><ele>2346.1</ele><time>2026-03-15T07:45:52.000Z</time></trkpt>
<trkpt lat="41.727705" lon="23.523886"><ele>2346.1</ele><time>2026-03-15T07:45:53.000Z</time></trkpt>
<trkpt lat="41.727703" lon="23.523887"><ele>2346.1</ele><time>2026-03-15T07:45:54.000Z</time></trkpt>
<trkpt lat="41.727701" lon="23.523888"><ele>2346.1</ele><time>2026-03-15T07:45:55.000Z</time></trkpt>
<trkpt lat="41.727699" lon="23.523889"><ele>2346.3</ele><time>2026-03-15T07:45:56.000Z</time></trkpt>
<trkpt lat="41.727698" lon="23.523889"><ele>2346.3</ele><time>2026-03-15T07:45:57.000Z</time></trkpt>
<trkpt lat="41.727697" lon="23.52389"><ele>2346.3</ele><time>2026-03-15T07:45:58.000Z</time></trkpt>
<trkpt lat="41.727696" lon="23.52389"><ele>2346.3</ele><time>2026-03-15T07:45:59.000Z</time></trkpt>
<trkpt lat="41.727695" lon="23.523889"><ele>2346.3</ele><time>2026-03-15T07:46:00.000Z</time></trkpt>
<trkpt lat="41.727695" lon="23.523889"><ele>2346.6</ele><time>2026-03-15T07:46:01.000Z</time></trkpt>
<trkpt lat="41.727694" lon="23.523889"><ele>2346.6</ele><time>2026-03-15T07:46:02.000Z</time></trkpt>
<trkpt lat="41.727694" lon="23.523888"><ele>2346.6</ele><time>2026-03-15T07:46:03.000Z</time></trkpt>
<trkpt lat="41.727694" lon="23.523888"><ele>2346.6</ele><time>2026-03-15T07:46:04.000Z</time></trkpt>
<trkpt lat="41.727694" lon="23.523888"><ele>2346.6</ele><time>2026-03-15T07:46:05.000Z</time></trkpt>
<trkpt lat="41.727694" lon="23.523888"><ele>2346.7</ele><time>2026-03-15T07:46:06.000Z</time></trkpt>
<trkpt lat="41.727694" lon="23.523888"><ele>2346.7</ele><time>2026-03-15T07:46:07.000Z</time></trkpt>
<trkpt lat="41.727694" lon="23.523888"><ele>2346.7</ele><time>2026-03-15T07:46:08.000Z</time></trkpt>
<trkpt lat="41.727694" lon="23.523888"><ele>2346.7</ele><time>2026-03-15T07:46:09.000Z</time></trkpt>
<trkpt lat="41.727694" lon="23.523888"><ele>2346.7</ele><time>2026-03-15T07:46:10.000Z</time></trkpt>
<trkpt lat="41.727695" lon="23.52389"><ele>2346.7</ele><time>2026-03-15T07:46:11.000Z</time></trkpt>
<trkpt lat="41.727696" lon="23.523891"><ele>2346.7</ele><time>2026-03-15T07:46:12.000Z</time></trkpt>
<trkpt lat="41.727697" lon="23.523894"><ele>2346.7</ele><time>2026-03-15T07:46:13.000Z</time></trkpt>
<trkpt lat="41.727698" lon="23.523897"><ele>2346.7</ele><time>2026-03-15T07:46:14.000Z</time></trkpt>
<trkpt lat="41.727699" lon="23.5239"><ele>2346.7</ele><time>2026-03-15T07:46:15.000Z</time></trkpt>
<trkpt lat="41.7277" lon="23.523901"><ele>2346.7</ele><time>2026-03-15T07:46:16.000Z</time></trkpt>
<trkpt lat="41.7277" lon="23.523903"><ele>2346.7</ele><time>2026-03-15T07:46:17.000Z</time></trkpt>
<trkpt lat="41.7277" lon="23.523904"><ele>2346.7</ele><time>2026-03-15T07:46:18.000Z</time></trkpt>
<trkpt lat="41.727699" lon="23.523905"><ele>2346.7</ele><time>2026-03-15T07:46:19.000Z</time></trkpt>
<trkpt lat="41.727699" lon="23.523905"><ele>2346.7</ele><time>2026-03-15T07:46:20.000Z</time></trkpt>
<trkpt lat="41.727699" lon="23.523905"><ele>2346.8</ele><time>2026-03-15T07:46:21.000Z</time></trkpt>
<trkpt lat="41.727699" lon="23.523905"><ele>2346.8</ele><time>2026-03-15T07:46:22.000Z</time></trkpt>
<trkpt lat="41.727699" lon="23.523905"><ele>2346.8</ele><time>2026-03-15T07:46:23.000Z</time></trkpt>
<trkpt lat="41.727698" lon="23.523906"><ele>2346.8</ele><time>2026-03-15T07:46:24.000Z</time></trkpt>
<trkpt lat="41.727698" lon="23.523906"><ele>2346.8</ele><time>2026-03-15T07:46:25.000Z</time></trkpt>
<trkpt lat="41.727698" lon="23.523906"><ele>2346.9</ele><time>2026-03-15T07:46:26.000Z</time></trkpt>
<trkpt lat="41.727697" lon="23.523906"><ele>2346.9</ele><time>2026-03-15T07:46:27.000Z</time></trkpt>
<trkpt lat="41.727697" lon="23.523906"><ele>2346.9</ele><time>2026-03-15T07:46:28.000Z</time></trkpt>
<trkpt lat="41.727698" lon="23.523906"><ele>2346.9</ele><time>2026-03-15T07:46:29.000Z</time></trkpt>
<trkpt lat="41.727698" lon="23.523905"><ele>2346.9</ele><time>2026-03-15T07:46:30.000Z</time></trkpt>
<trkpt lat="41.727699" lon="23.523905"><ele>2347</ele><time>2026-03-15T07:46:31.000Z</time></trkpt>
<trkpt lat="41.7277" lon="23.523904"><ele>2347</ele><time>2026-03-15T07:46:32.000Z</time></trkpt>
<trkpt lat="41.7277" lon="23.523903"><ele>2347</ele><time>2026-03-15T07:46:33.000Z</time></trkpt>
<trkpt lat="41.727701" lon="23.523903"><ele>2347</ele><time>2026-03-15T07:46:34.000Z</time></trkpt>
<trkpt lat="41.727701" lon="23.523902"><ele>2347</ele><time>2026-03-15T07:46:35.000Z</time></trkpt>
<trkpt lat="41.727702" lon="23.523901"><ele>2347.1</ele><time>2026-03-15T07:46:36.000Z</time></trkpt>
<trkpt lat="41.727702" lon="23.5239"><ele>2347.1</ele><time>2026-03-15T07:46:37.000Z</time></trkpt>
<trkpt lat="41.727701" lon="23.523899"><ele>2347.1</ele><time>2026-03-15T07:46:38.000Z</time></trkpt>
<trkpt lat="41.727701" lon="23.523898"><ele>2347.1</ele><time>2026-03-15T07:46:39.000Z</time></trkpt>
<trkpt lat="41.7277" lon="23.523897"><ele>2347.1</ele><time>2026-03-15T07:46:40.000Z</time></trkpt>
<trkpt lat="41.727698" lon="23.523897"><ele>2347</ele><time>2026-03-15T07:46:41.000Z</time></trkpt>
<trkpt lat="41.727698" lon="23.523898"><ele>2347</ele><time>2026-03-15T07:46:42.000Z</time></trkpt>
<trkpt lat="41.727697" lon="23.5239"><ele>2347</ele><time>2026-03-15T07:46:43.000Z</time></trkpt>
<trkpt lat="41.727697" lon="23.523901"><ele>2347</ele><time>2026-03-15T07:46:44.000Z</time></trkpt>
<trkpt lat="41.727696" lon="23.523903"><ele>2347</ele><time>2026-03-15T07:46:45.000Z</time></trkpt>
<trkpt lat="41.727696" lon="23.523903"><ele>2346.9</ele><time>2026-03-15T07:46:46.000Z</time></trkpt>
<trkpt lat="41.727696" lon="23.523904"><ele>2346.9</ele><time>2026-03-15T07:46:47.000Z</time></trkpt>
<trkpt lat="41.727696" lon="23.523904"><ele>2346.9</ele><time>2026-03-15T07:46:48.000Z</time></trkpt>
<trkpt lat="41.727696" lon="23.523904"><ele>2346.9</ele><time>2026-03-15T07:46:49.000Z</time></trkpt>
<trkpt lat="41.727696" lon="23.523903"><ele>2346.9</ele><time>2026-03-15T07:46:50.000Z</time></trkpt>
<trkpt lat="41.727696" lon="23.523903"><ele>2346.7</ele><time>2026-03-15T07:46:51.000Z</time></trkpt>
<trkpt lat="41.727697" lon="23.523902"><ele>2346.7</ele><time>2026-03-15T07:46:52.000Z</time></trkpt>
<trkpt lat="41.727697" lon="23.523901"><ele>2346.7</ele><time>2026-03-15T07:46:53.000Z</time></trkpt>
<trkpt lat="41.727697" lon="23.523901"><ele>2346.7</ele><time>2026-03-15T07:46:54.000Z</time></trkpt>
<trkpt lat="41.727697" lon="23.523901"><ele>2346.7</ele><time>2026-03-15T07:46:55.000Z</time></trkpt>
<trkpt lat="41.727697" lon="23.523901"><ele>2346.7</ele><time>2026-03-15T07:46:56.000Z</time></trkpt>
<trkpt lat="41.727696" lon="23.523902"><ele>2346.7</ele><time>2026-03-15T07:46:57.000Z</time></trkpt>
<trkpt lat="41.727696" lon="23.523902"><ele>2346.7</ele><time>2026-03-15T07:46:58.000Z</time></trkpt>
<trkpt lat="41.727695" lon="23.523903"><ele>2346.7</ele><time>2026-03-15T07:46:59.000Z</time></trkpt>
<trkpt lat="41.727695" lon="23.523903"><ele>2346.7</ele><time>2026-03-15T07:47:00.000Z</time></trkpt>
<trkpt lat="41.727694" lon="23.523904"><ele>2346.8</ele><time>2026-03-15T07:47:01.000Z</time></trkpt>
<trkpt lat="41.727694" lon="23.523904"><ele>2346.8</ele><time>2026-03-15T07:47:02.000Z</time></trkpt>
<trkpt lat="41.727693" lon="23.523904"><ele>2346.8</ele><time>2026-03-15T07:47:03.000Z</time></trkpt>
<trkpt lat="41.727693" lon="23.523904"><ele>2346.8</ele><time>2026-03-15T07:47:04.000Z</time></trkpt>
<trkpt lat="41.727693" lon="23.523904"><ele>2346.8</ele><time>2026-03-15T07:47:05.000Z</time></trkpt>
<trkpt lat="41.727693" lon="23.523904"><ele>2346.9</ele><time>2026-03-15T07:47:06.000Z</time></trkpt>
<trkpt lat="41.727694" lon="23.523904"><ele>2346.9</ele><time>2026-03-15T07:47:07.000Z</time></trkpt>
<trkpt lat="41.727693" lon="23.523904"><ele>2346.9</ele><time>2026-03-15T07:47:08.000Z</time></trkpt>
<trkpt lat="41.727693" lon="23.523905"><ele>2346.9</ele><time>2026-03-15T07:47:09.000Z</time></trkpt>
<trkpt lat="41.727692" lon="23.523905"><ele>2346.9</ele><time>2026-03-15T07:47:10.000Z</time></trkpt>
<trkpt lat="41.727691" lon="23.523905"><ele>2346.9</ele><time>2026-03-15T07:47:11.000Z</time></trkpt>
<trkpt lat="41.72769" lon="23.523906"><ele>2346.9</ele><time>2026-03-15T07:47:12.000Z</time></trkpt>
<trkpt lat="41.727689" lon="23.523906"><ele>2346.9</ele><time>2026-03-15T07:47:13.000Z</time></trkpt>
<trkpt lat="41.72769" lon="23.523904"><ele>2346.9</ele><time>2026-03-15T07:47:14.000Z</time></trkpt>
<trkpt lat="41.72769" lon="23.523904"><ele>2346.9</ele><time>2026-03-15T07:47:15.000Z</time></trkpt>
<trkpt lat="41.727692" lon="23.523904"><ele>2346.8</ele><time>2026-03-15T07:47:16.000Z</time></trkpt>
<trkpt lat="41.727694" lon="23.523903"><ele>2346.8</ele><time>2026-03-15T07:47:17.000Z</time></trkpt>
<trkpt lat="41.727696" lon="23.523902"><ele>2346.8</ele><time>2026-03-15T07:47:18.000Z</time></trkpt>
<trkpt lat="41.727697" lon="23.523902"><ele>2346.8</ele><time>2026-03-15T07:47:19.000Z</time></trkpt>
<trkpt lat="41.727699" lon="23.523901"><ele>2346.8</ele><time>2026-03-15T07:47:20.000Z</time></trkpt>
<trkpt lat="41.7277" lon="23.523899"><ele>2346.8</ele><time>2026-03-15T07:47:21.000Z</time></trkpt>
<trkpt lat="41.7277" lon="23.523899"><ele>2346.8</ele><time>2026-03-15T07:47:22.000Z</time></trkpt>
<trkpt lat="41.727701" lon="23.523898"><ele>2346.8</ele><time>2026-03-15T07:47:23.000Z</time></trkpt>
<trkpt lat="41.7277" lon="23.523898"><ele>2346.8</ele><time>2026-03-15T07:47:24.000Z</time></trkpt>
<trkpt lat="41.7277" lon="23.523899"><ele>2346.8</ele><time>2026-03-15T07:47:25.000Z</time></trkpt>
<trkpt lat="41.7277" lon="23.523899"><ele>2346.7</ele><time>2026-03-15T07:47:26.000Z</time></trkpt>
<trkpt lat="41.727699" lon="23.523899"><ele>2346.7</ele><time>2026-03-15T07:47:27.000Z</time></trkpt>
<trkpt lat="41.727698" lon="23.523899"><ele>2346.7</ele><time>2026-03-15T07:47:28.000Z</time></trkpt>
<trkpt lat="41.727697" lon="23.523898"><ele>2346.7</ele><time>2026-03-15T07:47:29.000Z</time></trkpt>
<trkpt lat="41.727696" lon="23.523898"><ele>2346.7</ele><time>2026-03-15T07:47:30.000Z</time></trkpt>
<trkpt lat="41.727695" lon="23.523898"><ele>2346.6</ele><time>2026-03-15T07:47:31.000Z</time></trkpt>
<trkpt lat="41.727695" lon="23.523898"><ele>2346.6</ele><time>2026-03-15T07:47:32.000Z</time></trkpt>
<trkpt lat="41.727695" lon="23.523899"><ele>2346.6</ele><time>2026-03-15T07:47:33.000Z</time></trkpt>
<trkpt lat="41.727695" lon="23.523899"><ele>2346.6</ele><time>2026-03-15T07:47:34.000Z</time></trkpt>
<trkpt lat="41.727694" lon="23.5239"><ele>2346.6</ele><time>2026-03-15T07:47:35.000Z</time></trkpt>
<trkpt lat="41.727694" lon="23.5239"><ele>2346.5</ele><time>2026-03-15T07:47:36.000Z</time></trkpt>
<trkpt lat="41.727694" lon="23.5239"><ele>2346.5</ele><time>2026-03-15T07:47:37.000Z</time></trkpt>
<trkpt lat="41.727693" lon="23.523901"><ele>2346.5</ele><time>2026-03-15T07:47:38.000Z</time></trkpt>
<trkpt lat="41.727693" lon="23.523901"><ele>2346.5</ele><time>2026-03-15T07:47:39.000Z</time></trkpt>
<trkpt lat="41.727693" lon="23.523901"><ele>2346.5</ele><time>2026-03-15T07:47:40.000Z</time></trkpt>
<trkpt lat="41.727693" lon="23.523901"><ele>2346.5</ele><time>2026-03-15T07:47:41.000Z</time></trkpt>
<trkpt lat="41.727693" lon="23.523901"><ele>2346.5</ele><time>2026-03-15T07:47:42.000Z</time></trkpt>
<trkpt lat="41.727693" lon="23.523901"><ele>2346.5</ele><time>2026-03-15T07:47:43.000Z</time></trkpt>
<trkpt lat="41.727693" lon="23.523901"><ele>2346.5</ele><time>2026-03-15T07:47:44.000Z</time></trkpt>
<trkpt lat="41.727693" lon="23.523901"><ele>2346.5</ele><time>2026-03-15T07:47:45.000Z</time></trkpt>
<trkpt lat="41.727693" lon="23.523901"><ele>2346.3</ele><time>2026-03-15T07:47:46.000Z</time></trkpt>
<trkpt lat="41.727693" lon="23.523901"><ele>2346.3</ele><time>2026-03-15T07:47:47.000Z</time></trkpt>
<trkpt lat="41.727693" lon="23.523901"><ele>2346.3</ele><time>2026-03-15T07:47:48.000Z</time></trkpt>
<trkpt lat="41.727693" lon="23.523901"><ele>2346.3</ele><time>2026-03-15T07:47:49.000Z</time></trkpt>
<trkpt lat="41.727694" lon="23.523901"><ele>2346.3</ele><time>2026-03-15T07:47:50.000Z</time></trkpt>
<trkpt lat="41.727694" lon="23.523901"><ele>2346.2</ele><time>2026-03-15T07:47:51.000Z</time></trkpt>
<trkpt lat="41.727693" lon="23.523902"><ele>2346.2</ele><time>2026-03-15T07:47:52.000Z</time></trkpt>
<trkpt lat="41.727693" lon="23.523903"><ele>2346.2</ele><time>2026-03-15T07:47:53.000Z</time></trkpt>
<trkpt lat="41.727692" lon="23.523904"><ele>2346.2</ele><time>2026-03-15T07:47:54.000Z</time></trkpt>
<trkpt lat="41.727691" lon="23.523905"><ele>2346.2</ele><time>2026-03-15T07:47:55.000Z</time></trkpt>
<trkpt lat="41.727691" lon="23.523906"><ele>2346.1</ele><time>2026-03-15T07:47:56.000Z</time></trkpt>
<trkpt lat="41.72769" lon="23.523906"><ele>2346.1</ele><time>2026-03-15T07:47:57.000Z</time></trkpt>
<trkpt lat="41.72769" lon="23.523906"><ele>2346.1</ele><time>2026-03-15T07:47:58.000Z</time></trkpt>
<trkpt lat="41.72769" lon="23.523906"><ele>2346.1</ele><time>2026-03-15T07:47:59.000Z</time></trkpt>
<trkpt lat="41.72769" lon="23.523906"><ele>2346.1</ele><time>2026-03-15T07:48:00.000Z</time></trkpt>
<trkpt lat="41.72769" lon="23.523906"><ele>2346.1</ele><time>2026-03-15T07:48:01.000Z</time></trkpt>
<trkpt lat="41.72769" lon="23.523906"><ele>2346.1</ele><time>2026-03-15T07:48:02.000Z</time></trkpt>
<trkpt lat="41.72769" lon="23.523906"><ele>2346.1</ele><time>2026-03-15T07:48:03.000Z</time></trkpt>
<trkpt lat="41.72769" lon="23.523906"><ele>2346.1</ele><time>2026-03-15T07:48:04.000Z</time></trkpt>
<trkpt lat="41.72769" lon="23.523906"><ele>2346.1</ele><time>2026-03-15T07:48:05.000Z</time></trkpt>
<trkpt lat="41.72769" lon="23.523906"><ele>2346.2</ele><time>2026-03-15T07:48:06.000Z</time></trkpt>
<trkpt lat="41.72769" lon="23.523906"><ele>2346.2</ele><time>2026-03-15T07:48:07.000Z</time></trkpt>
<trkpt lat="41.72769" lon="23.523906"><ele>2346.2</ele><time>2026-03-15T07:48:08.000Z</time></trkpt>
<trkpt lat="41.72769" lon="23.523906"><ele>2346.2</ele><time>2026-03-15T07:48:09.000Z</time></trkpt>
<trkpt lat="41.72769" lon="23.523906"><ele>2346.2</ele><time>2026-03-15T07:48:10.000Z</time></trkpt>
<trkpt lat="41.72769" lon="23.523906"><ele>2346.2</ele><time>2026-03-15T07:48:11.000Z</time></trkpt>
<trkpt lat="41.72769" lon="23.523906"><ele>2346.2</ele><time>2026-03-15T07:48:12.000Z</time></trkpt>
<trkpt lat="41.72769" lon="23.523906"><ele>2346.2</ele><time>2026-03-15T07:48:13.000Z</time></trkpt>
<trkpt lat="41.72769" lon="23.523906"><ele>2346.2</ele><time>2026-03-15T07:48:14.000Z</time></trkpt>
<trkpt lat="41.72769" lon="23.523906"><ele>2346.2</ele><time>2026-03-15T07:48:15.000Z</time></trkpt>
<trkpt lat="41.72769" lon="23.523906"><ele>2346.1</ele><time>2026-03-15T07:48:16.000Z</time></trkpt>
<trkpt lat="41.72769" lon="23.523906"><ele>2346.1</ele><time>2026-03-15T07:48:17.000Z</time></trkpt>
<trkpt lat="41.72769" lon="23.523906"><ele>2346.1</ele><time>2026-03-15T07:48:18.000Z</time></trkpt>
<trkpt lat="41.72769" lon="23.523906"><ele>2346.1</ele><time>2026-03-15T07:48:19.000Z</time></trkpt>
<trkpt lat="41.72769" lon="23.523906"><ele>2346.1</ele><time>2026-03-15T07:48:20.000Z</time></trkpt>
<trkpt lat="41.72769" lon="23.523906"><ele>2346</ele><time>2026-03-15T07:48:21.000Z</time></trkpt>
<trkpt lat="41.72769" lon="23.523906"><ele>2346</ele><time>2026-03-15T07:48:22.000Z</time></trkpt>
<trkpt lat="41.72769" lon="23.523906"><ele>2346</ele><time>2026-03-15T07:48:23.000Z</time></trkpt>
<trkpt lat="41.72769" lon="23.523906"><ele>2346</ele><time>2026-03-15T07:48:24.000Z</time></trkpt>
<trkpt lat="41.72769" lon="23.523906"><ele>2346</ele><time>2026-03-15T07:48:25.000Z</time></trkpt>
<trkpt lat="41.72769" lon="23.523906"><ele>2346</ele><time>2026-03-15T07:48:26.000Z</time></trkpt>
<trkpt lat="41.72769" lon="23.523906"><ele>2346</ele><time>2026-03-15T07:48:27.000Z</time></trkpt>
<trkpt lat="41.72769" lon="23.523906"><ele>2346</ele><time>2026-03-15T07:48:28.000Z</time></trkpt>
<trkpt lat="41.72769" lon="23.523906"><ele>2346</ele><time>2026-03-15T07:48:29.000Z</time></trkpt>
<trkpt lat="41.72769" lon="23.523906"><ele>2346</ele><time>2026-03-15T07:48:30.000Z</time></trkpt>
<trkpt lat="41.72769" lon="23.523906"><ele>2346.2</ele><time>2026-03-15T07:48:31.000Z</time></trkpt>
<trkpt lat="41.72769" lon="23.523907"><ele>2346.2</ele><time>2026-03-15T07:48:32.000Z</time></trkpt>
<trkpt lat="41.72769" lon="23.523907"><ele>2346.2</ele><time>2026-03-15T07:48:33.000Z</time></trkpt>
<trkpt lat="41.72769" lon="23.523907"><ele>2346.2</ele><time>2026-03-15T07:48:34.000Z</time></trkpt>
<trkpt lat="41.72769" lon="23.523907"><ele>2346.2</ele><time>2026-03-15T07:48:35.000Z</time></trkpt>
<trkpt lat="41.72769" lon="23.523907"><ele>2346.4</ele><time>2026-03-15T07:48:36.000Z</time></trkpt>
<trkpt lat="41.72769" lon="23.523907"><ele>2346.4</ele><time>2026-03-15T07:48:37.000Z</time></trkpt>
<trkpt lat="41.727691" lon="23.523907"><ele>2346.4</ele><time>2026-03-15T07:48:38.000Z</time></trkpt>
<trkpt lat="41.727691" lon="23.523908"><ele>2346.4</ele><time>2026-03-15T07:48:39.000Z</time></trkpt>
<trkpt lat="41.727691" lon="23.523908"><ele>2346.4</ele><time>2026-03-15T07:48:40.000Z</time></trkpt>
<trkpt lat="41.727692" lon="23.523908"><ele>2346.5</ele><time>2026-03-15T07:48:41.000Z</time></trkpt>
<trkpt lat="41.727692" lon="23.523908"><ele>2346.5</ele><time>2026-03-15T07:48:42.000Z</time></trkpt>
<trkpt lat="41.727692" lon="23.523908"><ele>2346.5</ele><time>2026-03-15T07:48:43.000Z</time></trkpt>
<trkpt lat="41.727692" lon="23.523908"><ele>2346.5</ele><time>2026-03-15T07:48:44.000Z</time></trkpt>
<trkpt lat="41.727692" lon="23.523908"><ele>2346.5</ele><time>2026-03-15T07:48:45.000Z</time></trkpt>
<trkpt lat="41.727692" lon="23.523908"><ele>2346.6</ele><time>2026-03-15T07:48:46.000Z</time></trkpt>
<trkpt lat="41.727693" lon="23.523908"><ele>2346.6</ele><time>2026-03-15T07:48:47.000Z</time></trkpt>
<trkpt lat="41.727693" lon="23.523908"><ele>2346.6</ele><time>2026-03-15T07:48:48.000Z</time></trkpt>
<trkpt lat="41.727693" lon="23.523908"><ele>2346.6</ele><time>2026-03-15T07:48:49.000Z</time></trkpt>
<trkpt lat="41.727693" lon="23.523908"><ele>2346.6</ele><time>2026-03-15T07:48:50.000Z</time></trkpt>
<trkpt lat="41.727693" lon="23.523908"><ele>2346.6</ele><time>2026-03-15T07:48:51.000Z</time></trkpt>
<trkpt lat="41.727693" lon="23.523908"><ele>2346.6</ele><time>2026-03-15T07:48:52.000Z</time></trkpt>
<trkpt lat="41.727693" lon="23.523909"><ele>2346.6</ele><time>2026-03-15T07:48:53.000Z</time></trkpt>
<trkpt lat="41.727693" lon="23.523909"><ele>2346.6</ele><time>2026-03-15T07:48:54.000Z</time></trkpt>
<trkpt lat="41.727693" lon="23.52391"><ele>2346.6</ele><time>2026-03-15T07:48:55.000Z</time></trkpt>
<trkpt lat="41.727693" lon="23.52391"><ele>2346.7</ele><time>2026-03-15T07:48:56.000Z</time></trkpt>
<trkpt lat="41.727692" lon="23.52391"><ele>2346.7</ele><time>2026-03-15T07:48:57.000Z</time></trkpt>
<trkpt lat="41.727692" lon="23.523911"><ele>2346.7</ele><time>2026-03-15T07:48:58.000Z</time></trkpt>
<trkpt lat="41.72769" lon="23.523911"><ele>2346.7</ele><time>2026-03-15T07:48:59.000Z</time></trkpt>
<trkpt lat="41.727689" lon="23.523911"><ele>2346.7</ele><time>2026-03-15T07:49:00.000Z</time></trkpt>
<trkpt lat="41.727688" lon="23.523911"><ele>2347</ele><time>2026-03-15T07:49:01.000Z</time></trkpt>
<trkpt lat="41.727688" lon="23.523911"><ele>2347</ele><time>2026-03-15T07:49:02.000Z</time></trkpt>
<trkpt lat="41.727688" lon="23.523912"><ele>2347</ele><time>2026-03-15T07:49:03.000Z</time></trkpt>
<trkpt lat="41.727688" lon="23.523912"><ele>2347</ele><time>2026-03-15T07:49:04.000Z</time></trkpt>
<trkpt lat="41.727688" lon="23.523913"><ele>2347</ele><time>2026-03-15T07:49:05.000Z</time></trkpt>
<trkpt lat="41.727689" lon="23.523913"><ele>2347.2</ele><time>2026-03-15T07:49:06.000Z</time></trkpt>
<trkpt lat="41.727689" lon="23.523913"><ele>2347.2</ele><time>2026-03-15T07:49:07.000Z</time></trkpt>
<trkpt lat="41.727689" lon="23.523912"><ele>2347.2</ele><time>2026-03-15T07:49:08.000Z</time></trkpt>
<trkpt lat="41.727689" lon="23.523912"><ele>2347.2</ele><time>2026-03-15T07:49:09.000Z</time></trkpt>
<trkpt lat="41.727688" lon="23.523911"><ele>2347.2</ele><time>2026-03-15T07:49:10.000Z</time></trkpt>
<trkpt lat="41.727688" lon="23.523911"><ele>2347.3</ele><time>2026-03-15T07:49:11.000Z</time></trkpt>
<trkpt lat="41.727689" lon="23.523912"><ele>2347.3</ele><time>2026-03-15T07:49:12.000Z</time></trkpt>
<trkpt lat="41.727689" lon="23.523912"><ele>2347.3</ele><time>2026-03-15T07:49:13.000Z</time></trkpt>
<trkpt lat="41.727689" lon="23.523913"><ele>2347.3</ele><time>2026-03-15T07:49:14.000Z</time></trkpt>
<trkpt lat="41.72769" lon="23.523914"><ele>2347.3</ele><time>2026-03-15T07:49:15.000Z</time></trkpt>
<trkpt lat="41.72769" lon="23.523914"><ele>2347.2</ele><time>2026-03-15T07:49:16.000Z</time></trkpt>
<trkpt lat="41.72769" lon="23.523914"><ele>2347.2</ele><time>2026-03-15T07:49:17.000Z</time></trkpt>
<trkpt lat="41.72769" lon="23.523914"><ele>2347.2</ele><time>2026-03-15T07:49:18.000Z</time></trkpt>
<trkpt lat="41.72769" lon="23.523914"><ele>2347.2</ele><time>2026-03-15T07:49:19.000Z</time></trkpt>
<trkpt lat="41.72769" lon="23.523914"><ele>2347.2</ele><time>2026-03-15T07:49:20.000Z</time></trkpt>
<trkpt lat="41.72769" lon="23.523914"><ele>2346.9</ele><time>2026-03-15T07:49:21.000Z</time></trkpt>
<trkpt lat="41.72769" lon="23.523914"><ele>2346.9</ele><time>2026-03-15T07:49:22.000Z</time></trkpt>
<trkpt lat="41.72769" lon="23.523914"><ele>2346.9</ele><time>2026-03-15T07:49:23.000Z</time></trkpt>
<trkpt lat="41.72769" lon="23.523914"><ele>2346.9</ele><time>2026-03-15T07:49:24.000Z</time></trkpt>
<trkpt lat="41.72769" lon="23.523914"><ele>2346.9</ele><time>2026-03-15T07:49:25.000Z</time></trkpt>
<trkpt lat="41.72769" lon="23.523914"><ele>2346.8</ele><time>2026-03-15T07:49:26.000Z</time></trkpt>
<trkpt lat="41.72769" lon="23.523914"><ele>2346.8</ele><time>2026-03-15T07:49:27.000Z</time></trkpt>
<trkpt lat="41.72769" lon="23.523914"><ele>2346.8</ele><time>2026-03-15T07:49:28.000Z</time></trkpt>
<trkpt lat="41.72769" lon="23.523914"><ele>2346.8</ele><time>2026-03-15T07:49:29.000Z</time></trkpt>
<trkpt lat="41.72769" lon="23.523914"><ele>2346.8</ele><time>2026-03-15T07:49:30.000Z</time></trkpt>
<trkpt lat="41.72769" lon="23.523914"><ele>2346.5</ele><time>2026-03-15T07:49:31.000Z</time></trkpt>
<trkpt lat="41.72769" lon="23.523914"><ele>2346.5</ele><time>2026-03-15T07:49:32.000Z</time></trkpt>
<trkpt lat="41.72769" lon="23.523914"><ele>2346.5</ele><time>2026-03-15T07:49:33.000Z</time></trkpt>
<trkpt lat="41.72769" lon="23.523914"><ele>2346.5</ele><time>2026-03-15T07:49:34.000Z</time></trkpt>
<trkpt lat="41.72769" lon="23.523914"><ele>2346.5</ele><time>2026-03-15T07:49:35.000Z</time></trkpt>
<trkpt lat="41.72769" lon="23.523914"><ele>2346.4</ele><time>2026-03-15T07:49:36.000Z</time></trkpt>
<trkpt lat="41.72769" lon="23.523913"><ele>2346.4</ele><time>2026-03-15T07:49:37.000Z</time></trkpt>
<trkpt lat="41.727691" lon="23.523913"><ele>2346.4</ele><time>2026-03-15T07:49:38.000Z</time></trkpt>
<trkpt lat="41.727691" lon="23.523913"><ele>2346.4</ele><time>2026-03-15T07:49:39.000Z</time></trkpt>
<trkpt lat="41.727692" lon="23.523912"><ele>2346.4</ele><time>2026-03-15T07:49:40.000Z</time></trkpt>
<trkpt lat="41.727692" lon="23.523912"><ele>2346.4</ele><time>2026-03-15T07:49:41.000Z</time></trkpt>
<trkpt lat="41.727692" lon="23.523912"><ele>2346.4</ele><time>2026-03-15T07:49:42.000Z</time></trkpt>
<trkpt lat="41.727692" lon="23.523912"><ele>2346.4</ele><time>2026-03-15T07:49:43.000Z</time></trkpt>
<trkpt lat="41.727692" lon="23.523911"><ele>2346.4</ele><time>2026-03-15T07:49:44.000Z</time></trkpt>
<trkpt lat="41.727692" lon="23.523911"><ele>2346.4</ele><time>2026-03-15T07:49:45.000Z</time></trkpt>
<trkpt lat="41.727691" lon="23.52391"><ele>2346.6</ele><time>2026-03-15T07:49:46.000Z</time></trkpt>
<trkpt lat="41.727691" lon="23.523909"><ele>2346.6</ele><time>2026-03-15T07:49:47.000Z</time></trkpt>
<trkpt lat="41.727691" lon="23.523908"><ele>2346.6</ele><time>2026-03-15T07:49:48.000Z</time></trkpt>
<trkpt lat="41.727691" lon="23.523907"><ele>2346.6</ele><time>2026-03-15T07:49:49.000Z</time></trkpt>
<trkpt lat="41.727692" lon="23.523906"><ele>2346.6</ele><time>2026-03-15T07:49:50.000Z</time></trkpt>
<trkpt lat="41.727693" lon="23.523907"><ele>2347</ele><time>2026-03-15T07:49:51.000Z</time></trkpt>
<trkpt lat="41.727693" lon="23.523907"><ele>2347</ele><time>2026-03-15T07:49:52.000Z</time></trkpt>
<trkpt lat="41.727693" lon="23.523907"><ele>2347</ele><time>2026-03-15T07:49:53.000Z</time></trkpt>
<trkpt lat="41.727693" lon="23.523907"><ele>2347</ele><time>2026-03-15T07:49:54.000Z</time></trkpt>
<trkpt lat="41.727692" lon="23.523908"><ele>2347</ele><time>2026-03-15T07:49:55.000Z</time></trkpt>
<trkpt lat="41.727692" lon="23.523908"><ele>2347.1</ele><time>2026-03-15T07:49:56.000Z</time></trkpt>
<trkpt lat="41.727692" lon="23.523908"><ele>2347.1</ele><time>2026-03-15T07:49:57.000Z</time></trkpt>
<trkpt lat="41.727693" lon="23.523908"><ele>2347.1</ele><time>2026-03-15T07:49:58.000Z</time></trkpt>
<trkpt lat="41.727693" lon="23.523908"><ele>2347.1</ele><time>2026-03-15T07:49:59.000Z</time></trkpt>
<trkpt lat="41.727693" lon="23.523908"><ele>2347.1</ele><time>2026-03-15T07:50:00.000Z</time></trkpt>
<trkpt lat="41.727693" lon="23.523908"><ele>2347.2</ele><time>2026-03-15T07:50:01.000Z</time></trkpt>
<trkpt lat="41.727693" lon="23.523908"><ele>2347.2</ele><time>2026-03-15T07:50:02.000Z</time></trkpt>
<trkpt lat="41.727693" lon="23.523908"><ele>2347.2</ele><time>2026-03-15T07:50:03.000Z</time></trkpt>
<trkpt lat="41.727693" lon="23.523908"><ele>2347.2</ele><time>2026-03-15T07:50:04.000Z</time></trkpt>
<trkpt lat="41.727693" lon="23.523908"><ele>2347.2</ele><time>2026-03-15T07:50:05.000Z</time></trkpt>
<trkpt lat="41.727693" lon="23.523908"><ele>2347</ele><time>2026-03-15T07:50:06.000Z</time></trkpt>
<trkpt lat="41.727693" lon="23.523908"><ele>2347</ele><time>2026-03-15T07:50:07.000Z</time></trkpt>
<trkpt lat="41.727693" lon="23.523908"><ele>2347</ele><time>2026-03-15T07:50:08.000Z</time></trkpt>
<trkpt lat="41.727693" lon="23.523908"><ele>2347</ele><time>2026-03-15T07:50:09.000Z</time></trkpt>
<trkpt lat="41.727693" lon="23.523908"><ele>2347</ele><time>2026-03-15T07:50:10.000Z</time></trkpt>
<trkpt lat="41.727693" lon="23.523908"><ele>2346.9</ele><time>2026-03-15T07:50:11.000Z</time></trkpt>
<trkpt lat="41.727693" lon="23.523908"><ele>2346.9</ele><time>2026-03-15T07:50:12.000Z</time></trkpt>
<trkpt lat="41.727693" lon="23.523908"><ele>2346.9</ele><time>2026-03-15T07:50:13.000Z</time></trkpt>
<trkpt lat="41.727693" lon="23.523908"><ele>2346.9</ele><time>2026-03-15T07:50:14.000Z</time></trkpt>
<trkpt lat="41.727693" lon="23.523908"><ele>2346.9</ele><time>2026-03-15T07:50:15.000Z</time></trkpt>
<trkpt lat="41.727693" lon="23.523908"><ele>2346.7</ele><time>2026-03-15T07:50:16.000Z</time></trkpt>
<trkpt lat="41.727693" lon="23.523908"><ele>2346.7</ele><time>2026-03-15T07:50:17.000Z</time></trkpt>
<trkpt lat="41.727693" lon="23.523908"><ele>2346.7</ele><time>2026-03-15T07:50:18.000Z</time></trkpt>
<trkpt lat="41.727693" lon="23.523908"><ele>2346.7</ele><time>2026-03-15T07:50:19.000Z</time></trkpt>
<trkpt lat="41.727693" lon="23.523908"><ele>2346.7</ele><time>2026-03-15T07:50:20.000Z</time></trkpt>
<trkpt lat="41.727693" lon="23.523908"><ele>2346.8</ele><time>2026-03-15T07:50:21.000Z</time></trkpt>
<trkpt lat="41.727693" lon="23.523908"><ele>2346.8</ele><time>2026-03-15T07:50:22.000Z</time></trkpt>
<trkpt lat="41.727693" lon="23.523908"><ele>2346.8</ele><time>2026-03-15T07:50:23.000Z</time></trkpt>
<trkpt lat="41.727693" lon="23.523908"><ele>2346.8</ele><time>2026-03-15T07:50:24.000Z</time></trkpt>
<trkpt lat="41.727693" lon="23.523908"><ele>2346.8</ele><time>2026-03-15T07:50:25.000Z</time></trkpt>
<trkpt lat="41.727693" lon="23.523908"><ele>2346.9</ele><time>2026-03-15T07:50:26.000Z</time></trkpt>
<trkpt lat="41.727693" lon="23.523908"><ele>2346.9</ele><time>2026-03-15T07:50:27.000Z</time></trkpt>
<trkpt lat="41.727693" lon="23.523908"><ele>2346.9</ele><time>2026-03-15T07:50:28.000Z</time></trkpt>
<trkpt lat="41.727693" lon="23.523908"><ele>2346.9</ele><time>2026-03-15T07:50:29.000Z</time></trkpt>
<trkpt lat="41.727693" lon="23.523908"><ele>2346.9</ele><time>2026-03-15T07:50:30.000Z</time></trkpt>
<trkpt lat="41.727693" lon="23.523908"><ele>2346.9</ele><time>2026-03-15T07:50:31.000Z</time></trkpt>
<trkpt lat="41.727693" lon="23.523908"><ele>2346.9</ele><time>2026-03-15T07:50:32.000Z</time></trkpt>
<trkpt lat="41.727693" lon="23.523908"><ele>2346.9</ele><time>2026-03-15T07:50:33.000Z</time></trkpt>
<trkpt lat="41.727693" lon="23.523908"><ele>2346.9</ele><time>2026-03-15T07:50:34.000Z</time></trkpt>
<trkpt lat="41.727693" lon="23.523908"><ele>2346.9</ele><time>2026-03-15T07:50:35.000Z</time></trkpt>
<trkpt lat="41.727693" lon="23.523908"><ele>2346.8</ele><time>2026-03-15T07:50:36.000Z</time></trkpt>
<trkpt lat="41.727693" lon="23.523908"><ele>2346.8</ele><time>2026-03-15T07:50:37.000Z</time></trkpt>
<trkpt lat="41.727693" lon="23.523908"><ele>2346.8</ele><time>2026-03-15T07:50:38.000Z</time></trkpt>
<trkpt lat="41.727693" lon="23.523908"><ele>2346.8</ele><time>2026-03-15T07:50:39.000Z</time></trkpt>
<trkpt lat="41.727693" lon="23.523908"><ele>2346.8</ele><time>2026-03-15T07:50:40.000Z</time></trkpt>
<trkpt lat="41.727693" lon="23.523908"><ele>2346.8</ele><time>2026-03-15T07:50:41.000Z</time></trkpt>
<trkpt lat="41.727693" lon="23.523908"><ele>2346.8</ele><time>2026-03-15T07:50:42.000Z</time></trkpt>
<trkpt lat="41.727693" lon="23.523908"><ele>2346.8</ele><time>2026-03-15T07:50:43.000Z</time></trkpt>
<trkpt lat="41.727693" lon="23.523908"><ele>2346.8</ele><time>2026-03-15T07:50:44.000Z</time></trkpt>
<trkpt lat="41.727693" lon="23.523908"><ele>2346.8</ele><time>2026-03-15T07:50:45.000Z</time></trkpt>
<trkpt lat="41.727693" lon="23.523908"><ele>2346.7</ele><time>2026-03-15T07:50:46.000Z</time></trkpt>
<trkpt lat="41.727693" lon="23.523908"><ele>2346.7</ele><time>2026-03-15T07:50:47.000Z</time></trkpt>
<trkpt lat="41.727693" lon="23.523908"><ele>2346.7</ele><time>2026-03-15T07:50:48.000Z</time></trkpt>
<trkpt lat="41.727693" lon="23.523908"><ele>2346.7</ele><time>2026-03-15T07:50:49.000Z</time></trkpt>
<trkpt lat="41.727693" lon="23.523908"><ele>2346.7</ele><time>2026-03-15T07:50:50.000Z</time></trkpt>
<trkpt lat="41.727693" lon="23.523908"><ele>2346.6</ele><time>2026-03-15T07:50:51.000Z</time></trkpt>
<trkpt lat="41.727692" lon="23.523907"><ele>2346.6</ele><time>2026-03-15T07:50:52.000Z</time></trkpt>
<trkpt lat="41.727692" lon="23.523907"><ele>2346.6</ele><time>2026-03-15T07:50:53.000Z</time></trkpt>
<trkpt lat="41.727692" lon="23.523907"><ele>2346.6</ele><time>2026-03-15T07:50:54.000Z</time></trkpt>
<trkpt lat="41.727691" lon="23.523907"><ele>2346.6</ele><time>2026-03-15T07:50:55.000Z</time></trkpt>
<trkpt lat="41.727691" lon="23.523907"><ele>2346.7</ele><time>2026-03-15T07:50:56.000Z</time></trkpt>
<trkpt lat="41.727692" lon="23.523908"><ele>2346.7</ele><time>2026-03-15T07:50:57.000Z</time></trkpt>
<trkpt lat="41.727693" lon="23.523908"><ele>2346.7</ele><time>2026-03-15T07:50:58.000Z</time></trkpt>
<trkpt lat="41.727694" lon="23.523908"><ele>2346.7</ele><time>2026-03-15T07:50:59.000Z</time></trkpt>
<trkpt lat="41.727695" lon="23.523909"><ele>2346.7</ele><time>2026-03-15T07:51:00.000Z</time></trkpt>
<trkpt lat="41.727695" lon="23.523908"><ele>2346.8</ele><time>2026-03-15T07:51:01.000Z</time></trkpt>
<trkpt lat="41.727695" lon="23.523908"><ele>2346.8</ele><time>2026-03-15T07:51:02.000Z</time></trkpt>
<trkpt lat="41.727695" lon="23.523908"><ele>2346.8</ele><time>2026-03-15T07:51:03.000Z</time></trkpt>
<trkpt lat="41.727694" lon="23.52391"><ele>2346.8</ele><time>2026-03-15T07:51:04.000Z</time></trkpt>
<trkpt lat="41.727693" lon="23.523911"><ele>2346.8</ele><time>2026-03-15T07:51:05.000Z</time></trkpt>
<trkpt lat="41.727692" lon="23.523913"><ele>2347</ele><time>2026-03-15T07:51:06.000Z</time></trkpt>
<trkpt lat="41.72769" lon="23.523914"><ele>2347</ele><time>2026-03-15T07:51:07.000Z</time></trkpt>
<trkpt lat="41.727688" lon="23.523915"><ele>2347</ele><time>2026-03-15T07:51:08.000Z</time></trkpt>
<trkpt lat="41.727688" lon="23.523915"><ele>2347</ele><time>2026-03-15T07:51:09.000Z</time></trkpt>
<trkpt lat="41.727687" lon="23.523916"><ele>2347</ele><time>2026-03-15T07:51:10.000Z</time></trkpt>
<trkpt lat="41.727687" lon="23.523916"><ele>2347</ele><time>2026-03-15T07:51:11.000Z</time></trkpt>
<trkpt lat="41.727686" lon="23.523917"><ele>2347</ele><time>2026-03-15T07:51:12.000Z</time></trkpt>
<trkpt lat="41.727686" lon="23.523917"><ele>2347</ele><time>2026-03-15T07:51:13.000Z</time></trkpt>
<trkpt lat="41.727686" lon="23.523917"><ele>2347</ele><time>2026-03-15T07:51:14.000Z</time></trkpt>
<trkpt lat="41.727686" lon="23.523917"><ele>2347</ele><time>2026-03-15T07:51:15.000Z</time></trkpt>
<trkpt lat="41.727686" lon="23.523917"><ele>2346.8</ele><time>2026-03-15T07:51:16.000Z</time></trkpt>
<trkpt lat="41.727687" lon="23.523916"><ele>2346.8</ele><time>2026-03-15T07:51:17.000Z</time></trkpt>
<trkpt lat="41.727688" lon="23.523916"><ele>2346.8</ele><time>2026-03-15T07:51:18.000Z</time></trkpt>
<trkpt lat="41.727689" lon="23.523915"><ele>2346.8</ele><time>2026-03-15T07:51:19.000Z</time></trkpt>
<trkpt lat="41.72769" lon="23.523914"><ele>2346.8</ele><time>2026-03-15T07:51:20.000Z</time></trkpt>
<trkpt lat="41.727692" lon="23.523913"><ele>2346.6</ele><time>2026-03-15T07:51:21.000Z</time></trkpt>
<trkpt lat="41.727692" lon="23.523911"><ele>2346.6</ele><time>2026-03-15T07:51:22.000Z</time></trkpt>
<trkpt lat="41.727693" lon="23.52391"><ele>2346.6</ele><time>2026-03-15T07:51:23.000Z</time></trkpt>
<trkpt lat="41.727694" lon="23.523909"><ele>2346.6</ele><time>2026-03-15T07:51:24.000Z</time></trkpt>
<trkpt lat="41.727694" lon="23.523909"><ele>2346.6</ele><time>2026-03-15T07:51:25.000Z</time></trkpt>
<trkpt lat="41.727695" lon="23.52391"><ele>2346.5</ele><time>2026-03-15T07:51:26.000Z</time></trkpt>
<trkpt lat="41.727695" lon="23.52391"><ele>2346.5</ele><time>2026-03-15T07:51:27.000Z</time></trkpt>
<trkpt lat="41.727695" lon="23.523911"><ele>2346.5</ele><time>2026-03-15T07:51:28.000Z</time></trkpt>
<trkpt lat="41.727695" lon="23.523911"><ele>2346.5</ele><time>2026-03-15T07:51:29.000Z</time></trkpt>
<trkpt lat="41.727695" lon="23.523911"><ele>2346.5</ele><time>2026-03-15T07:51:30.000Z</time></trkpt>
<trkpt lat="41.727695" lon="23.52391"><ele>2346.6</ele><time>2026-03-15T07:51:31.000Z</time></trkpt>
<trkpt lat="41.727694" lon="23.523909"><ele>2346.6</ele><time>2026-03-15T07:51:32.000Z</time></trkpt>
<trkpt lat="41.727694" lon="23.523908"><ele>2346.6</ele><time>2026-03-15T07:51:33.000Z</time></trkpt>
<trkpt lat="41.727694" lon="23.523908"><ele>2346.6</ele><time>2026-03-15T07:51:34.000Z</time></trkpt>
<trkpt lat="41.727694" lon="23.523907"><ele>2346.6</ele><time>2026-03-15T07:51:35.000Z</time></trkpt>
<trkpt lat="41.727695" lon="23.523908"><ele>2346.8</ele><time>2026-03-15T07:51:36.000Z</time></trkpt>
<trkpt lat="41.727695" lon="23.523907"><ele>2346.8</ele><time>2026-03-15T07:51:37.000Z</time></trkpt>
<trkpt lat="41.727695" lon="23.523907"><ele>2346.8</ele><time>2026-03-15T07:51:38.000Z</time></trkpt>
<trkpt lat="41.727694" lon="23.523905"><ele>2346.8</ele><time>2026-03-15T07:51:39.000Z</time></trkpt>
<trkpt lat="41.727693" lon="23.523904"><ele>2346.8</ele><time>2026-03-15T07:51:40.000Z</time></trkpt>
<trkpt lat="41.727693" lon="23.523903"><ele>2346.9</ele><time>2026-03-15T07:51:41.000Z</time></trkpt>
<trkpt lat="41.727693" lon="23.523903"><ele>2346.9</ele><time>2026-03-15T07:51:42.000Z</time></trkpt>
<trkpt lat="41.727693" lon="23.523903"><ele>2346.9</ele><time>2026-03-15T07:51:43.000Z</time></trkpt>
<trkpt lat="41.727693" lon="23.523903"><ele>2346.9</ele><time>2026-03-15T07:51:44.000Z</time></trkpt>
<trkpt lat="41.727693" lon="23.523903"><ele>2346.9</ele><time>2026-03-15T07:51:45.000Z</time></trkpt>
<trkpt lat="41.727693" lon="23.523903"><ele>2347.2</ele><time>2026-03-15T07:51:46.000Z</time></trkpt>
<trkpt lat="41.727693" lon="23.523903"><ele>2347.2</ele><time>2026-03-15T07:51:47.000Z</time></trkpt>
<trkpt lat="41.727693" lon="23.523903"><ele>2347.2</ele><time>2026-03-15T07:51:48.000Z</time></trkpt>
<trkpt lat="41.727693" lon="23.523903"><ele>2347.2</ele><time>2026-03-15T07:51:49.000Z</time></trkpt>
<trkpt lat="41.727693" lon="23.523903"><ele>2347.2</ele><time>2026-03-15T07:51:50.000Z</time></trkpt>
<trkpt lat="41.727693" lon="23.523903"><ele>2347.4</ele><time>2026-03-15T07:51:51.000Z</time></trkpt>
<trkpt lat="41.727693" lon="23.523903"><ele>2347.4</ele><time>2026-03-15T07:51:52.000Z</time></trkpt>
<trkpt lat="41.727694" lon="23.523903"><ele>2347.4</ele><time>2026-03-15T07:51:53.000Z</time></trkpt>
<trkpt lat="41.727694" lon="23.523904"><ele>2347.4</ele><time>2026-03-15T07:51:54.000Z</time></trkpt>
<trkpt lat="41.727695" lon="23.523905"><ele>2347.4</ele><time>2026-03-15T07:51:55.000Z</time></trkpt>
<trkpt lat="41.727695" lon="23.523906"><ele>2347.4</ele><time>2026-03-15T07:51:56.000Z</time></trkpt>
<trkpt lat="41.727696" lon="23.523907"><ele>2347.4</ele><time>2026-03-15T07:51:57.000Z</time></trkpt>
<trkpt lat="41.727696" lon="23.523907"><ele>2347.4</ele><time>2026-03-15T07:51:58.000Z</time></trkpt>
<trkpt lat="41.727696" lon="23.523907"><ele>2347.4</ele><time>2026-03-15T07:51:59.000Z</time></trkpt>
<trkpt lat="41.727696" lon="23.523907"><ele>2347.4</ele><time>2026-03-15T07:52:00.000Z</time></trkpt>
<trkpt lat="41.727696" lon="23.523907"><ele>2347.3</ele><time>2026-03-15T07:52:01.000Z</time></trkpt>
<trkpt lat="41.727696" lon="23.523907"><ele>2347.3</ele><time>2026-03-15T07:52:02.000Z</time></trkpt>
<trkpt lat="41.727696" lon="23.523907"><ele>2347.3</ele><time>2026-03-15T07:52:03.000Z</time></trkpt>
<trkpt lat="41.727696" lon="23.523907"><ele>2347.3</ele><time>2026-03-15T07:52:04.000Z</time></trkpt>
<trkpt lat="41.727696" lon="23.523907"><ele>2347.3</ele><time>2026-03-15T07:52:05.000Z</time></trkpt>
<trkpt lat="41.727696" lon="23.523907"><ele>2347.3</ele><time>2026-03-15T07:52:06.000Z</time></trkpt>
<trkpt lat="41.727696" lon="23.523907"><ele>2347.3</ele><time>2026-03-15T07:52:07.000Z</time></trkpt>
<trkpt lat="41.727696" lon="23.523907"><ele>2347.3</ele><time>2026-03-15T07:52:08.000Z</time></trkpt>
<trkpt lat="41.727696" lon="23.523907"><ele>2347.3</ele><time>2026-03-15T07:52:09.000Z</time></trkpt>
<trkpt lat="41.727696" lon="23.523907"><ele>2347.3</ele><time>2026-03-15T07:52:10.000Z</time></trkpt>
<trkpt lat="41.727696" lon="23.523907"><ele>2347.2</ele><time>2026-03-15T07:52:11.000Z</time></trkpt>
<trkpt lat="41.727696" lon="23.523907"><ele>2347.2</ele><time>2026-03-15T07:52:12.000Z</time></trkpt>
<trkpt lat="41.727696" lon="23.523907"><ele>2347.2</ele><time>2026-03-15T07:52:13.000Z</time></trkpt>
<trkpt lat="41.727696" lon="23.523907"><ele>2347.2</ele><time>2026-03-15T07:52:14.000Z</time></trkpt>
<trkpt lat="41.727696" lon="23.523907"><ele>2347.2</ele><time>2026-03-15T07:52:15.000Z</time></trkpt>
<trkpt lat="41.727696" lon="23.523907"><ele>2347.2</ele><time>2026-03-15T07:52:16.000Z</time></trkpt>
<trkpt lat="41.727696" lon="23.523907"><ele>2347.2</ele><time>2026-03-15T07:52:17.000Z</time></trkpt>
<trkpt lat="41.727696" lon="23.523907"><ele>2347.2</ele><time>2026-03-15T07:52:18.000Z</time></trkpt>
<trkpt lat="41.727696" lon="23.523907"><ele>2347.2</ele><time>2026-03-15T07:52:19.000Z</time></trkpt>
<trkpt lat="41.727696" lon="23.523907"><ele>2347.2</ele><time>2026-03-15T07:52:20.000Z</time></trkpt>
<trkpt lat="41.727696" lon="23.523907"><ele>2347.2</ele><time>2026-03-15T07:52:21.000Z</time></trkpt>
<trkpt lat="41.727696" lon="23.523907"><ele>2347.2</ele><time>2026-03-15T07:52:22.000Z</time></trkpt>
<trkpt lat="41.727696" lon="23.523906"><ele>2347.2</ele><time>2026-03-15T07:52:23.000Z</time></trkpt>
<trkpt lat="41.727696" lon="23.523905"><ele>2347.2</ele><time>2026-03-15T07:52:24.000Z</time></trkpt>
<trkpt lat="41.727695" lon="23.523904"><ele>2347.2</ele><time>2026-03-15T07:52:25.000Z</time></trkpt>
<trkpt lat="41.727695" lon="23.523904"><ele>2347.2</ele><time>2026-03-15T07:52:26.000Z</time></trkpt>
<trkpt lat="41.727695" lon="23.523903"><ele>2347.2</ele><time>2026-03-15T07:52:27.000Z</time></trkpt>
<trkpt lat="41.727695" lon="23.523902"><ele>2347.2</ele><time>2026-03-15T07:52:28.000Z</time></trkpt>
<trkpt lat="41.727695" lon="23.523902"><ele>2347.2</ele><time>2026-03-15T07:52:29.000Z</time></trkpt>
<trkpt lat="41.727695" lon="23.523902"><ele>2347.2</ele><time>2026-03-15T07:52:30.000Z</time></trkpt>
<trkpt lat="41.727695" lon="23.523902"><ele>2347.4</ele><time>2026-03-15T07:52:31.000Z</time></trkpt>
<trkpt lat="41.727695" lon="23.523902"><ele>2347.4</ele><time>2026-03-15T07:52:32.000Z</time></trkpt>
<trkpt lat="41.727695" lon="23.523902"><ele>2347.4</ele><time>2026-03-15T07:52:33.000Z</time></trkpt>
<trkpt lat="41.727695" lon="23.523902"><ele>2347.4</ele><time>2026-03-15T07:52:34.000Z</time></trkpt>
<trkpt lat="41.727695" lon="23.523902"><ele>2347.4</ele><time>2026-03-15T07:52:35.000Z</time></trkpt>
<trkpt lat="41.727695" lon="23.523902"><ele>2347.5</ele><time>2026-03-15T07:52:36.000Z</time></trkpt>
<trkpt lat="41.727695" lon="23.523902"><ele>2347.5</ele><time>2026-03-15T07:52:37.000Z</time></trkpt>
<trkpt lat="41.727695" lon="23.523902"><ele>2347.5</ele><time>2026-03-15T07:52:38.000Z</time></trkpt>
<trkpt lat="41.727695" lon="23.523902"><ele>2347.5</ele><time>2026-03-15T07:52:39.000Z</time></trkpt>
<trkpt lat="41.727695" lon="23.523902"><ele>2347.5</ele><time>2026-03-15T07:52:40.000Z</time></trkpt>
<trkpt lat="41.727695" lon="23.523902"><ele>2347.5</ele><time>2026-03-15T07:52:41.000Z</time></trkpt>
<trkpt lat="41.727695" lon="23.523902"><ele>2347.5</ele><time>2026-03-15T07:52:42.000Z</time></trkpt>
<trkpt lat="41.727695" lon="23.523902"><ele>2347.5</ele><time>2026-03-15T07:52:43.000Z</time></trkpt>
<trkpt lat="41.727695" lon="23.523902"><ele>2347.5</ele><time>2026-03-15T07:52:44.000Z</time></trkpt>
<trkpt lat="41.727695" lon="23.523902"><ele>2347.5</ele><time>2026-03-15T07:52:45.000Z</time></trkpt>
<trkpt lat="41.727695" lon="23.523902"><ele>2347.4</ele><time>2026-03-15T07:52:46.000Z</time></trkpt>
<trkpt lat="41.727695" lon="23.523903"><ele>2347.4</ele><time>2026-03-15T07:52:47.000Z</time></trkpt>
<trkpt lat="41.727695" lon="23.523903"><ele>2347.4</ele><time>2026-03-15T07:52:48.000Z</time></trkpt>
<trkpt lat="41.727695" lon="23.523903"><ele>2347.4</ele><time>2026-03-15T07:52:49.000Z</time></trkpt>
<trkpt lat="41.727695" lon="23.523903"><ele>2347.4</ele><time>2026-03-15T07:52:50.000Z</time></trkpt>
<trkpt lat="41.727695" lon="23.523904"><ele>2347.3</ele><time>2026-03-15T07:52:51.000Z</time></trkpt>
<trkpt lat="41.727695" lon="23.523904"><ele>2347.3</ele><time>2026-03-15T07:52:52.000Z</time></trkpt>
<trkpt lat="41.727695" lon="23.523904"><ele>2347.3</ele><time>2026-03-15T07:52:53.000Z</time></trkpt>
<trkpt lat="41.727695" lon="23.523904"><ele>2347.3</ele><time>2026-03-15T07:52:54.000Z</time></trkpt>
<trkpt lat="41.727695" lon="23.523904"><ele>2347.3</ele><time>2026-03-15T07:52:55.000Z</time></trkpt>
<trkpt lat="41.727695" lon="23.523904"><ele>2347.3</ele><time>2026-03-15T07:52:56.000Z</time></trkpt>
<trkpt lat="41.727695" lon="23.523904"><ele>2347.3</ele><time>2026-03-15T07:52:57.000Z</time></trkpt>
<trkpt lat="41.727695" lon="23.523904"><ele>2347.3</ele><time>2026-03-15T07:52:58.000Z</time></trkpt>
<trkpt lat="41.727695" lon="23.523904"><ele>2347.3</ele><time>2026-03-15T07:52:59.000Z</time></trkpt>
<trkpt lat="41.727695" lon="23.523904"><ele>2347.3</ele><time>2026-03-15T07:53:00.000Z</time></trkpt>
<trkpt lat="41.727695" lon="23.523904"><ele>2347.2</ele><time>2026-03-15T07:53:01.000Z</time></trkpt>
<trkpt lat="41.727695" lon="23.523904"><ele>2347.2</ele><time>2026-03-15T07:53:02.000Z</time></trkpt>
<trkpt lat="41.727695" lon="23.523904"><ele>2347.2</ele><time>2026-03-15T07:53:03.000Z</time></trkpt>
<trkpt lat="41.727695" lon="23.523904"><ele>2347.2</ele><time>2026-03-15T07:53:04.000Z</time></trkpt>
<trkpt lat="41.727695" lon="23.523904"><ele>2347.2</ele><time>2026-03-15T07:53:05.000Z</time></trkpt>
<trkpt lat="41.727695" lon="23.523904"><ele>2347.1</ele><time>2026-03-15T07:53:06.000Z</time></trkpt>
<trkpt lat="41.727695" lon="23.523904"><ele>2347.1</ele><time>2026-03-15T07:53:07.000Z</time></trkpt>
<trkpt lat="41.727695" lon="23.523904"><ele>2347.1</ele><time>2026-03-15T07:53:08.000Z</time></trkpt>
<trkpt lat="41.727695" lon="23.523904"><ele>2347.1</ele><time>2026-03-15T07:53:09.000Z</time></trkpt>
<trkpt lat="41.727695" lon="23.523904"><ele>2347.1</ele><time>2026-03-15T07:53:10.000Z</time></trkpt>
<trkpt lat="41.727695" lon="23.523904"><ele>2347.2</ele><time>2026-03-15T07:53:11.000Z</time></trkpt>
<trkpt lat="41.727695" lon="23.523904"><ele>2347.2</ele><time>2026-03-15T07:53:12.000Z</time></trkpt>
<trkpt lat="41.727695" lon="23.523904"><ele>2347.2</ele><time>2026-03-15T07:53:13.000Z</time></trkpt>
<trkpt lat="41.727695" lon="23.523904"><ele>2347.2</ele><time>2026-03-15T07:53:14.000Z</time></trkpt>
<trkpt lat="41.727695" lon="23.523904"><ele>2347.2</ele><time>2026-03-15T07:53:15.000Z</time></trkpt>
<trkpt lat="41.727695" lon="23.523904"><ele>2347.3</ele><time>2026-03-15T07:53:16.000Z</time></trkpt>
<trkpt lat="41.727695" lon="23.523904"><ele>2347.3</ele><time>2026-03-15T07:53:17.000Z</time></trkpt>
<trkpt lat="41.727695" lon="23.523904"><ele>2347.3</ele><time>2026-03-15T07:53:18.000Z</time></trkpt>
<trkpt lat="41.727695" lon="23.523904"><ele>2347.3</ele><time>2026-03-15T07:53:19.000Z</time></trkpt>
<trkpt lat="41.727695" lon="23.523904"><ele>2347.3</ele><time>2026-03-15T07:53:20.000Z</time></trkpt>
<trkpt lat="41.727695" lon="23.523904"><ele>2347.3</ele><time>2026-03-15T07:53:21.000Z</time></trkpt>
<trkpt lat="41.727695" lon="23.523904"><ele>2347.3</ele><time>2026-03-15T07:53:22.000Z</time></trkpt>
<trkpt lat="41.727695" lon="23.523905"><ele>2347.3</ele><time>2026-03-15T07:53:23.000Z</time></trkpt>
<trkpt lat="41.727694" lon="23.523905"><ele>2347.3</ele><time>2026-03-15T07:53:24.000Z</time></trkpt>
<trkpt lat="41.727694" lon="23.523905"><ele>2347.3</ele><time>2026-03-15T07:53:25.000Z</time></trkpt>
<trkpt lat="41.727694" lon="23.523906"><ele>2347.2</ele><time>2026-03-15T07:53:26.000Z</time></trkpt>
<trkpt lat="41.727693" lon="23.523906"><ele>2347.2</ele><time>2026-03-15T07:53:27.000Z</time></trkpt>
<trkpt lat="41.727693" lon="23.523906"><ele>2347.2</ele><time>2026-03-15T07:53:28.000Z</time></trkpt>
<trkpt lat="41.727693" lon="23.523905"><ele>2347.2</ele><time>2026-03-15T07:53:29.000Z</time></trkpt>
<trkpt lat="41.727692" lon="23.523902"><ele>2347.2</ele><time>2026-03-15T07:53:30.000Z</time></trkpt>
<trkpt lat="41.727691" lon="23.523896"><ele>2347.2</ele><time>2026-03-15T07:53:31.000Z</time></trkpt>
<trkpt lat="41.72769" lon="23.523888"><ele>2347.2</ele><time>2026-03-15T07:53:32.000Z</time></trkpt>
<trkpt lat="41.727687" lon="23.523876"><ele>2347.2</ele><time>2026-03-15T07:53:33.000Z</time></trkpt>
<trkpt lat="41.727685" lon="23.523863"><ele>2347.2</ele><time>2026-03-15T07:53:34.000Z</time></trkpt>
<trkpt lat="41.727681" lon="23.523848"><ele>2347.2</ele><time>2026-03-15T07:53:35.000Z</time></trkpt>
<trkpt lat="41.727676" lon="23.523834"><ele>2347.1</ele><time>2026-03-15T07:53:36.000Z</time></trkpt>
<trkpt lat="41.727672" lon="23.523821"><ele>2347.1</ele><time>2026-03-15T07:53:37.000Z</time></trkpt>
<trkpt lat="41.727668" lon="23.523807"><ele>2347.1</ele><time>2026-03-15T07:53:38.000Z</time></trkpt>
<trkpt lat="41.727664" lon="23.523793"><ele>2347.1</ele><time>2026-03-15T07:53:39.000Z</time></trkpt>
<trkpt lat="41.727661" lon="23.523779"><ele>2347.1</ele><time>2026-03-15T07:53:40.000Z</time></trkpt>
<trkpt lat="41.727658" lon="23.523765"><ele>2347.1</ele><time>2026-03-15T07:53:41.000Z</time></trkpt>
<trkpt lat="41.727655" lon="23.523751"><ele>2347.1</ele><time>2026-03-15T07:53:42.000Z</time></trkpt>
<trkpt lat="41.727652" lon="23.523736"><ele>2347.1</ele><time>2026-03-15T07:53:43.000Z</time></trkpt>
<trkpt lat="41.727648" lon="23.523722"><ele>2347.1</ele><time>2026-03-15T07:53:44.000Z</time></trkpt>
<trkpt lat="41.727644" lon="23.523709"><ele>2347.1</ele><time>2026-03-15T07:53:45.000Z</time></trkpt>
<trkpt lat="41.72764" lon="23.523696"><ele>2347.1</ele><time>2026-03-15T07:53:46.000Z</time></trkpt>
<trkpt lat="41.727636" lon="23.523683"><ele>2347.1</ele><time>2026-03-15T07:53:47.000Z</time></trkpt>
<trkpt lat="41.727632" lon="23.523672"><ele>2347.1</ele><time>2026-03-15T07:53:48.000Z</time></trkpt>
<trkpt lat="41.727628" lon="23.52366"><ele>2347.1</ele><time>2026-03-15T07:53:49.000Z</time></trkpt>
<trkpt lat="41.727624" lon="23.523649"><ele>2347.1</ele><time>2026-03-15T07:53:50.000Z</time></trkpt>
<trkpt lat="41.72762" lon="23.523637"><ele>2347.3</ele><time>2026-03-15T07:53:51.000Z</time></trkpt>
<trkpt lat="41.727616" lon="23.523626"><ele>2347.3</ele><time>2026-03-15T07:53:52.000Z</time></trkpt>
<trkpt lat="41.727612" lon="23.523614"><ele>2347.3</ele><time>2026-03-15T07:53:53.000Z</time></trkpt>
<trkpt lat="41.727607" lon="23.523603"><ele>2347.3</ele><time>2026-03-15T07:53:54.000Z</time></trkpt>
<trkpt lat="41.727602" lon="23.523591"><ele>2347.3</ele><time>2026-03-15T07:53:55.000Z</time></trkpt>
<trkpt lat="41.727597" lon="23.523579"><ele>2347.5</ele><time>2026-03-15T07:53:56.000Z</time></trkpt>
<trkpt lat="41.727592" lon="23.523567"><ele>2347.5</ele><time>2026-03-15T07:53:57.000Z</time></trkpt>
<trkpt lat="41.727586" lon="23.523556"><ele>2347.5</ele><time>2026-03-15T07:53:58.000Z</time></trkpt>
<trkpt lat="41.727579" lon="23.523545"><ele>2347.5</ele><time>2026-03-15T07:53:59.000Z</time></trkpt>
<trkpt lat="41.727572" lon="23.523534"><ele>2347.5</ele><time>2026-03-15T07:54:00.000Z</time></trkpt>
<trkpt lat="41.727566" lon="23.523522"><ele>2348.1</ele><time>2026-03-15T07:54:01.000Z</time></trkpt>
<trkpt lat="41.727559" lon="23.523511"><ele>2348.1</ele><time>2026-03-15T07:54:02.000Z</time></trkpt>
<trkpt lat="41.727553" lon="23.5235"><ele>2348.1</ele><time>2026-03-15T07:54:03.000Z</time></trkpt>
<trkpt lat="41.727547" lon="23.523488"><ele>2348.1</ele><time>2026-03-15T07:54:04.000Z</time></trkpt>
<trkpt lat="41.727541" lon="23.523475"><ele>2348.1</ele><time>2026-03-15T07:54:05.000Z</time></trkpt>
<trkpt lat="41.727534" lon="23.523463"><ele>2348.6</ele><time>2026-03-15T07:54:06.000Z</time></trkpt>
<trkpt lat="41.727528" lon="23.52345"><ele>2348.6</ele><time>2026-03-15T07:54:07.000Z</time></trkpt>
<trkpt lat="41.727522" lon="23.523437"><ele>2348.6</ele><time>2026-03-15T07:54:08.000Z</time></trkpt>
<trkpt lat="41.727515" lon="23.523424"><ele>2348.6</ele><time>2026-03-15T07:54:09.000Z</time></trkpt>
<trkpt lat="41.727509" lon="23.523412"><ele>2348.6</ele><time>2026-03-15T07:54:10.000Z</time></trkpt>
<trkpt lat="41.727503" lon="23.523399"><ele>2348.8</ele><time>2026-03-15T07:54:11.000Z</time></trkpt>
<trkpt lat="41.727498" lon="23.523386"><ele>2348.8</ele><time>2026-03-15T07:54:12.000Z</time></trkpt>
<trkpt lat="41.727494" lon="23.523373"><ele>2348.8</ele><time>2026-03-15T07:54:13.000Z</time></trkpt>
<trkpt lat="41.727489" lon="23.52336"><ele>2348.8</ele><time>2026-03-15T07:54:14.000Z</time></trkpt>
<trkpt lat="41.727485" lon="23.523346"><ele>2348.8</ele><time>2026-03-15T07:54:15.000Z</time></trkpt>
<trkpt lat="41.72748" lon="23.523332"><ele>2349.4</ele><time>2026-03-15T07:54:16.000Z</time></trkpt>
<trkpt lat="41.727475" lon="23.523318"><ele>2349.4</ele><time>2026-03-15T07:54:17.000Z</time></trkpt>
<trkpt lat="41.72747" lon="23.523304"><ele>2349.4</ele><time>2026-03-15T07:54:18.000Z</time></trkpt>
<trkpt lat="41.727464" lon="23.523291"><ele>2349.4</ele><time>2026-03-15T07:54:19.000Z</time></trkpt>
<trkpt lat="41.727458" lon="23.523277"><ele>2349.4</ele><time>2026-03-15T07:54:20.000Z</time></trkpt>
<trkpt lat="41.727453" lon="23.523264"><ele>2350.1</ele><time>2026-03-15T07:54:21.000Z</time></trkpt>
<trkpt lat="41.727447" lon="23.523249"><ele>2350.1</ele><time>2026-03-15T07:54:22.000Z</time></trkpt>
<trkpt lat="41.727441" lon="23.523234"><ele>2350.1</ele><time>2026-03-15T07:54:23.000Z</time></trkpt>
<trkpt lat="41.727435" lon="23.523219"><ele>2350.1</ele><time>2026-03-15T07:54:24.000Z</time></trkpt>
<trkpt lat="41.72743" lon="23.523204"><ele>2350.1</ele><time>2026-03-15T07:54:25.000Z</time></trkpt>
<trkpt lat="41.727425" lon="23.523189"><ele>2350.4</ele><time>2026-03-15T07:54:26.000Z</time></trkpt>
<trkpt lat="41.72742" lon="23.523173"><ele>2350.4</ele><time>2026-03-15T07:54:27.000Z</time></trkpt>
<trkpt lat="41.727415" lon="23.523157"><ele>2350.4</ele><time>2026-03-15T07:54:28.000Z</time></trkpt>
<trkpt lat="41.727411" lon="23.52314"><ele>2350.4</ele><time>2026-03-15T07:54:29.000Z</time></trkpt>
<trkpt lat="41.727407" lon="23.523123"><ele>2350.4</ele><time>2026-03-15T07:54:30.000Z</time></trkpt>
<trkpt lat="41.727403" lon="23.523106"><ele>2350.9</ele><time>2026-03-15T07:54:31.000Z</time></trkpt>
<trkpt lat="41.727399" lon="23.523089"><ele>2350.9</ele><time>2026-03-15T07:54:32.000Z</time></trkpt>
<trkpt lat="41.727396" lon="23.523073"><ele>2350.9</ele><time>2026-03-15T07:54:33.000Z</time></trkpt>
<trkpt lat="41.727392" lon="23.523057"><ele>2350.9</ele><time>2026-03-15T07:54:34.000Z</time></trkpt>
<trkpt lat="41.727388" lon="23.523041"><ele>2350.9</ele><time>2026-03-15T07:54:35.000Z</time></trkpt>
<trkpt lat="41.727384" lon="23.523026"><ele>2351.5</ele><time>2026-03-15T07:54:36.000Z</time></trkpt>
<trkpt lat="41.72738" lon="23.523011"><ele>2351.5</ele><time>2026-03-15T07:54:37.000Z</time></trkpt>
<trkpt lat="41.727378" lon="23.522996"><ele>2351.5</ele><time>2026-03-15T07:54:38.000Z</time></trkpt>
<trkpt lat="41.727375" lon="23.522983"><ele>2351.5</ele><time>2026-03-15T07:54:39.000Z</time></trkpt>
<trkpt lat="41.727373" lon="23.52297"><ele>2351.5</ele><time>2026-03-15T07:54:40.000Z</time></trkpt>
<trkpt lat="41.72737" lon="23.522957"><ele>2351.8</ele><time>2026-03-15T07:54:41.000Z</time></trkpt>
<trkpt lat="41.727367" lon="23.522945"><ele>2351.8</ele><time>2026-03-15T07:54:42.000Z</time></trkpt>
<trkpt lat="41.727363" lon="23.522934"><ele>2351.8</ele><time>2026-03-15T07:54:43.000Z</time></trkpt>
<trkpt lat="41.727359" lon="23.522922"><ele>2351.8</ele><time>2026-03-15T07:54:44.000Z</time></trkpt>
<trkpt lat="41.727354" lon="23.52291"><ele>2351.8</ele><time>2026-03-15T07:54:45.000Z</time></trkpt>
<trkpt lat="41.72735" lon="23.522898"><ele>2352.6</ele><time>2026-03-15T07:54:46.000Z</time></trkpt>
<trkpt lat="41.727346" lon="23.522886"><ele>2352.6</ele><time>2026-03-15T07:54:47.000Z</time></trkpt>
<trkpt lat="41.727341" lon="23.522873"><ele>2352.6</ele><time>2026-03-15T07:54:48.000Z</time></trkpt>
<trkpt lat="41.727336" lon="23.522859"><ele>2352.6</ele><time>2026-03-15T07:54:49.000Z</time></trkpt>
<trkpt lat="41.727332" lon="23.522847"><ele>2352.6</ele><time>2026-03-15T07:54:50.000Z</time></trkpt>
<trkpt lat="41.727329" lon="23.522835"><ele>2353.2</ele><time>2026-03-15T07:54:51.000Z</time></trkpt>
<trkpt lat="41.727325" lon="23.522822"><ele>2353.2</ele><time>2026-03-15T07:54:52.000Z</time></trkpt>
<trkpt lat="41.727322" lon="23.522809"><ele>2353.2</ele><time>2026-03-15T07:54:53.000Z</time></trkpt>
<trkpt lat="41.727318" lon="23.522796"><ele>2353.2</ele><time>2026-03-15T07:54:54.000Z</time></trkpt>
<trkpt lat="41.727315" lon="23.522783"><ele>2353.2</ele><time>2026-03-15T07:54:55.000Z</time></trkpt>
<trkpt lat="41.727311" lon="23.52277"><ele>2353.5</ele><time>2026-03-15T07:54:56.000Z</time></trkpt>
<trkpt lat="41.727307" lon="23.522758"><ele>2353.5</ele><time>2026-03-15T07:54:57.000Z</time></trkpt>
<trkpt lat="41.727303" lon="23.522746"><ele>2353.5</ele><time>2026-03-15T07:54:58.000Z</time></trkpt>
<trkpt lat="41.727299" lon="23.522734"><ele>2353.5</ele><time>2026-03-15T07:54:59.000Z</time></trkpt>
<trkpt lat="41.727295" lon="23.522722"><ele>2353.5</ele><time>2026-03-15T07:55:00.000Z</time></trkpt>
<trkpt lat="41.727291" lon="23.522709"><ele>2354.2</ele><time>2026-03-15T07:55:01.000Z</time></trkpt>
<trkpt lat="41.727286" lon="23.522696"><ele>2354.2</ele><time>2026-03-15T07:55:02.000Z</time></trkpt>
<trkpt lat="41.727282" lon="23.522683"><ele>2354.2</ele><time>2026-03-15T07:55:03.000Z</time></trkpt>
<trkpt lat="41.727277" lon="23.522669"><ele>2354.2</ele><time>2026-03-15T07:55:04.000Z</time></trkpt>
<trkpt lat="41.727273" lon="23.522655"><ele>2354.2</ele><time>2026-03-15T07:55:05.000Z</time></trkpt>
<trkpt lat="41.727268" lon="23.522642"><ele>2354.8</ele><time>2026-03-15T07:55:06.000Z</time></trkpt>
<trkpt lat="41.727265" lon="23.522628"><ele>2354.8</ele><time>2026-03-15T07:55:07.000Z</time></trkpt>
<trkpt lat="41.72726" lon="23.522614"><ele>2354.8</ele><time>2026-03-15T07:55:08.000Z</time></trkpt>
<trkpt lat="41.727256" lon="23.522601"><ele>2354.8</ele><time>2026-03-15T07:55:09.000Z</time></trkpt>
<trkpt lat="41.727251" lon="23.522589"><ele>2354.8</ele><time>2026-03-15T07:55:10.000Z</time></trkpt>
<trkpt lat="41.727246" lon="23.522577"><ele>2355</ele><time>2026-03-15T07:55:11.000Z</time></trkpt>
<trkpt lat="41.72724" lon="23.522566"><ele>2355</ele><time>2026-03-15T07:55:12.000Z</time></trkpt>
<trkpt lat="41.727235" lon="23.522555"><ele>2355</ele><time>2026-03-15T07:55:13.000Z</time></trkpt>
<trkpt lat="41.72723" lon="23.522543"><ele>2355</ele><time>2026-03-15T07:55:14.000Z</time></trkpt>
<trkpt lat="41.727225" lon="23.522531"><ele>2355</ele><time>2026-03-15T07:55:15.000Z</time></trkpt>
<trkpt lat="41.727221" lon="23.522518"><ele>2355.4</ele><time>2026-03-15T07:55:16.000Z</time></trkpt>
<trkpt lat="41.727218" lon="23.522505"><ele>2355.4</ele><time>2026-03-15T07:55:17.000Z</time></trkpt>
<trkpt lat="41.727215" lon="23.522492"><ele>2355.4</ele><time>2026-03-15T07:55:18.000Z</time></trkpt>
<trkpt lat="41.727213" lon="23.52248"><ele>2355.4</ele><time>2026-03-15T07:55:19.000Z</time></trkpt>
<trkpt lat="41.727211" lon="23.522467"><ele>2355.4</ele><time>2026-03-15T07:55:20.000Z</time></trkpt>
<trkpt lat="41.727209" lon="23.522454"><ele>2355.7</ele><time>2026-03-15T07:55:21.000Z</time></trkpt>
<trkpt lat="41.727208" lon="23.522441"><ele>2355.7</ele><time>2026-03-15T07:55:22.000Z</time></trkpt>
<trkpt lat="41.727206" lon="23.522427"><ele>2355.7</ele><time>2026-03-15T07:55:23.000Z</time></trkpt>
<trkpt lat="41.727205" lon="23.522412"><ele>2355.7</ele><time>2026-03-15T07:55:24.000Z</time></trkpt>
<trkpt lat="41.727204" lon="23.522397"><ele>2355.7</ele><time>2026-03-15T07:55:25.000Z</time></trkpt>
<trkpt lat="41.727202" lon="23.522382"><ele>2355.8</ele><time>2026-03-15T07:55:26.000Z</time></trkpt>
<trkpt lat="41.7272" lon="23.522367"><ele>2355.8</ele><time>2026-03-15T07:55:27.000Z</time></trkpt>
<trkpt lat="41.727198" lon="23.522352"><ele>2355.8</ele><time>2026-03-15T07:55:28.000Z</time></trkpt>
<trkpt lat="41.727196" lon="23.522338"><ele>2355.8</ele><time>2026-03-15T07:55:29.000Z</time></trkpt>
<trkpt lat="41.727193" lon="23.522322"><ele>2355.8</ele><time>2026-03-15T07:55:30.000Z</time></trkpt>
<trkpt lat="41.72719" lon="23.522307"><ele>2356.2</ele><time>2026-03-15T07:55:31.000Z</time></trkpt>
<trkpt lat="41.727187" lon="23.522292"><ele>2356.2</ele><time>2026-03-15T07:55:32.000Z</time></trkpt>
<trkpt lat="41.727184" lon="23.522278"><ele>2356.2</ele><time>2026-03-15T07:55:33.000Z</time></trkpt>
<trkpt lat="41.727181" lon="23.522264"><ele>2356.2</ele><time>2026-03-15T07:55:34.000Z</time></trkpt>
<trkpt lat="41.727177" lon="23.522251"><ele>2356.2</ele><time>2026-03-15T07:55:35.000Z</time></trkpt>
<trkpt lat="41.727174" lon="23.522239"><ele>2356.8</ele><time>2026-03-15T07:55:36.000Z</time></trkpt>
<trkpt lat="41.727171" lon="23.522227"><ele>2356.8</ele><time>2026-03-15T07:55:37.000Z</time></trkpt>
<trkpt lat="41.727168" lon="23.522215"><ele>2356.8</ele><time>2026-03-15T07:55:38.000Z</time></trkpt>
<trkpt lat="41.727166" lon="23.522203"><ele>2356.8</ele><time>2026-03-15T07:55:39.000Z</time></trkpt>
<trkpt lat="41.727163" lon="23.522191"><ele>2356.8</ele><time>2026-03-15T07:55:40.000Z</time></trkpt>
<trkpt lat="41.727161" lon="23.522178"><ele>2357.2</ele><time>2026-03-15T07:55:41.000Z</time></trkpt>
<trkpt lat="41.72716" lon="23.522164"><ele>2357.2</ele><time>2026-03-15T07:55:42.000Z</time></trkpt>
<trkpt lat="41.727157" lon="23.522151"><ele>2357.2</ele><time>2026-03-15T07:55:43.000Z</time></trkpt>
<trkpt lat="41.727155" lon="23.522139"><ele>2357.2</ele><time>2026-03-15T07:55:44.000Z</time></trkpt>
<trkpt lat="41.727152" lon="23.522126"><ele>2357.2</ele><time>2026-03-15T07:55:45.000Z</time></trkpt>
<trkpt lat="41.727149" lon="23.522114"><ele>2357.9</ele><time>2026-03-15T07:55:46.000Z</time></trkpt>
<trkpt lat="41.727145" lon="23.522102"><ele>2357.9</ele><time>2026-03-15T07:55:47.000Z</time></trkpt>
<trkpt lat="41.727142" lon="23.522091"><ele>2357.9</ele><time>2026-03-15T07:55:48.000Z</time></trkpt>
<trkpt lat="41.727138" lon="23.522078"><ele>2357.9</ele><time>2026-03-15T07:55:49.000Z</time></trkpt>
<trkpt lat="41.727134" lon="23.522064"><ele>2357.9</ele><time>2026-03-15T07:55:50.000Z</time></trkpt>
<trkpt lat="41.727131" lon="23.522051"><ele>2358.5</ele><time>2026-03-15T07:55:51.000Z</time></trkpt>
<trkpt lat="41.727129" lon="23.522039"><ele>2358.5</ele><time>2026-03-15T07:55:52.000Z</time></trkpt>
<trkpt lat="41.727127" lon="23.522027"><ele>2358.5</ele><time>2026-03-15T07:55:53.000Z</time></trkpt>
<trkpt lat="41.727125" lon="23.522015"><ele>2358.5</ele><time>2026-03-15T07:55:54.000Z</time></trkpt>
<trkpt lat="41.727124" lon="23.522004"><ele>2358.5</ele><time>2026-03-15T07:55:55.000Z</time></trkpt>
<trkpt lat="41.727122" lon="23.521994"><ele>2358.9</ele><time>2026-03-15T07:55:56.000Z</time></trkpt>
<trkpt lat="41.72712" lon="23.521982"><ele>2358.9</ele><time>2026-03-15T07:55:57.000Z</time></trkpt>
<trkpt lat="41.727118" lon="23.52197"><ele>2358.9</ele><time>2026-03-15T07:55:58.000Z</time></trkpt>
<trkpt lat="41.727115" lon="23.521958"><ele>2358.9</ele><time>2026-03-15T07:55:59.000Z</time></trkpt>
<trkpt lat="41.727112" lon="23.521947"><ele>2358.9</ele><time>2026-03-15T07:56:00.000Z</time></trkpt>
<trkpt lat="41.727109" lon="23.521935"><ele>2359.7</ele><time>2026-03-15T07:56:01.000Z</time></trkpt>
<trkpt lat="41.727106" lon="23.521923"><ele>2359.7</ele><time>2026-03-15T07:56:02.000Z</time></trkpt>
<trkpt lat="41.727104" lon="23.521912"><ele>2359.7</ele><time>2026-03-15T07:56:03.000Z</time></trkpt>
<trkpt lat="41.727102" lon="23.521901"><ele>2359.7</ele><time>2026-03-15T07:56:04.000Z</time></trkpt>
<trkpt lat="41.727101" lon="23.521889"><ele>2359.7</ele><time>2026-03-15T07:56:05.000Z</time></trkpt>
<trkpt lat="41.7271" lon="23.521877"><ele>2360.7</ele><time>2026-03-15T07:56:06.000Z</time></trkpt>
<trkpt lat="41.727099" lon="23.521866"><ele>2360.7</ele><time>2026-03-15T07:56:07.000Z</time></trkpt>
<trkpt lat="41.727098" lon="23.521856"><ele>2360.7</ele><time>2026-03-15T07:56:08.000Z</time></trkpt>
<trkpt lat="41.727097" lon="23.521845"><ele>2360.7</ele><time>2026-03-15T07:56:09.000Z</time></trkpt>
<trkpt lat="41.727096" lon="23.521834"><ele>2360.7</ele><time>2026-03-15T07:56:10.000Z</time></trkpt>
<trkpt lat="41.727095" lon="23.521822"><ele>2361.2</ele><time>2026-03-15T07:56:11.000Z</time></trkpt>
<trkpt lat="41.727093" lon="23.521812"><ele>2361.2</ele><time>2026-03-15T07:56:12.000Z</time></trkpt>
<trkpt lat="41.727092" lon="23.5218"><ele>2361.2</ele><time>2026-03-15T07:56:13.000Z</time></trkpt>
<trkpt lat="41.72709" lon="23.521789"><ele>2361.2</ele><time>2026-03-15T07:56:14.000Z</time></trkpt>
<trkpt lat="41.727087" lon="23.521778"><ele>2361.2</ele><time>2026-03-15T07:56:15.000Z</time></trkpt>
<trkpt lat="41.727085" lon="23.521767"><ele>2362.2</ele><time>2026-03-15T07:56:16.000Z</time></trkpt>
<trkpt lat="41.727082" lon="23.521756"><ele>2362.2</ele><time>2026-03-15T07:56:17.000Z</time></trkpt>
<trkpt lat="41.72708" lon="23.521745"><ele>2362.2</ele><time>2026-03-15T07:56:18.000Z</time></trkpt>
<trkpt lat="41.727077" lon="23.521734"><ele>2362.2</ele><time>2026-03-15T07:56:19.000Z</time></trkpt>
<trkpt lat="41.727074" lon="23.521723"><ele>2362.2</ele><time>2026-03-15T07:56:20.000Z</time></trkpt>
<trkpt lat="41.727071" lon="23.521712"><ele>2363.3</ele><time>2026-03-15T07:56:21.000Z</time></trkpt>
<trkpt lat="41.727069" lon="23.521701"><ele>2363.3</ele><time>2026-03-15T07:56:22.000Z</time></trkpt>
<trkpt lat="41.727067" lon="23.521689"><ele>2363.3</ele><time>2026-03-15T07:56:23.000Z</time></trkpt>
<trkpt lat="41.727064" lon="23.521677"><ele>2363.3</ele><time>2026-03-15T07:56:24.000Z</time></trkpt>
<trkpt lat="41.727062" lon="23.521666"><ele>2363.3</ele><time>2026-03-15T07:56:25.000Z</time></trkpt>
<trkpt lat="41.727059" lon="23.521654"><ele>2363.9</ele><time>2026-03-15T07:56:26.000Z</time></trkpt>
<trkpt lat="41.727056" lon="23.521643"><ele>2363.9</ele><time>2026-03-15T07:56:27.000Z</time></trkpt>
<trkpt lat="41.727053" lon="23.521631"><ele>2363.9</ele><time>2026-03-15T07:56:28.000Z</time></trkpt>
<trkpt lat="41.72705" lon="23.52162"><ele>2363.9</ele><time>2026-03-15T07:56:29.000Z</time></trkpt>
<trkpt lat="41.727048" lon="23.521608"><ele>2363.9</ele><time>2026-03-15T07:56:30.000Z</time></trkpt>
<trkpt lat="41.727045" lon="23.521595"><ele>2365.1</ele><time>2026-03-15T07:56:31.000Z</time></trkpt>
<trkpt lat="41.727043" lon="23.521584"><ele>2365.1</ele><time>2026-03-15T07:56:32.000Z</time></trkpt>
<trkpt lat="41.72704" lon="23.521573"><ele>2365.1</ele><time>2026-03-15T07:56:33.000Z</time></trkpt>
<trkpt lat="41.727037" lon="23.521563"><ele>2365.1</ele><time>2026-03-15T07:56:34.000Z</time></trkpt>
<trkpt lat="41.727033" lon="23.521553"><ele>2365.1</ele><time>2026-03-15T07:56:35.000Z</time></trkpt>
<trkpt lat="41.727031" lon="23.521544"><ele>2366.2</ele><time>2026-03-15T07:56:36.000Z</time></trkpt>
<trkpt lat="41.727028" lon="23.521534"><ele>2366.2</ele><time>2026-03-15T07:56:37.000Z</time></trkpt>
<trkpt lat="41.727026" lon="23.521523"><ele>2366.2</ele><time>2026-03-15T07:56:38.000Z</time></trkpt>
<trkpt lat="41.727025" lon="23.521513"><ele>2366.2</ele><time>2026-03-15T07:56:39.000Z</time></trkpt>
<trkpt lat="41.727024" lon="23.521502"><ele>2366.2</ele><time>2026-03-15T07:56:40.000Z</time></trkpt>
<trkpt lat="41.727024" lon="23.521489"><ele>2366.7</ele><time>2026-03-15T07:56:41.000Z</time></trkpt>
<trkpt lat="41.727024" lon="23.521478"><ele>2366.7</ele><time>2026-03-15T07:56:42.000Z</time></trkpt>
<trkpt lat="41.727025" lon="23.521466"><ele>2366.7</ele><time>2026-03-15T07:56:43.000Z</time></trkpt>
<trkpt lat="41.727025" lon="23.521454"><ele>2366.7</ele><time>2026-03-15T07:56:44.000Z</time></trkpt>
<trkpt lat="41.727024" lon="23.521443"><ele>2366.7</ele><time>2026-03-15T07:56:45.000Z</time></trkpt>
<trkpt lat="41.727024" lon="23.521433"><ele>2367.8</ele><time>2026-03-15T07:56:46.000Z</time></trkpt>
<trkpt lat="41.727024" lon="23.521422"><ele>2367.8</ele><time>2026-03-15T07:56:47.000Z</time></trkpt>
<trkpt lat="41.727023" lon="23.521412"><ele>2367.8</ele><time>2026-03-15T07:56:48.000Z</time></trkpt>
<trkpt lat="41.727022" lon="23.521402"><ele>2367.8</ele><time>2026-03-15T07:56:49.000Z</time></trkpt>
<trkpt lat="41.727021" lon="23.521391"><ele>2367.8</ele><time>2026-03-15T07:56:50.000Z</time></trkpt>
<trkpt lat="41.727021" lon="23.52138"><ele>2369</ele><time>2026-03-15T07:56:51.000Z</time></trkpt>
<trkpt lat="41.727019" lon="23.52137"><ele>2369</ele><time>2026-03-15T07:56:52.000Z</time></trkpt>
<trkpt lat="41.727019" lon="23.52136"><ele>2369</ele><time>2026-03-15T07:56:53.000Z</time></trkpt>
<trkpt lat="41.727019" lon="23.521351"><ele>2369</ele><time>2026-03-15T07:56:54.000Z</time></trkpt>
<trkpt lat="41.727019" lon="23.521342"><ele>2369</ele><time>2026-03-15T07:56:55.000Z</time></trkpt>
<trkpt lat="41.727018" lon="23.521334"><ele>2369.5</ele><time>2026-03-15T07:56:56.000Z</time></trkpt>
<trkpt lat="41.727017" lon="23.521325"><ele>2369.5</ele><time>2026-03-15T07:56:57.000Z</time></trkpt>
<trkpt lat="41.727015" lon="23.521318"><ele>2369.5</ele><time>2026-03-15T07:56:58.000Z</time></trkpt>
<trkpt lat="41.727014" lon="23.521311"><ele>2369.5</ele><time>2026-03-15T07:56:59.000Z</time></trkpt>
<trkpt lat="41.727013" lon="23.521304"><ele>2369.5</ele><time>2026-03-15T07:57:00.000Z</time></trkpt>
<trkpt lat="41.727013" lon="23.521297"><ele>2370.5</ele><time>2026-03-15T07:57:01.000Z</time></trkpt>
<trkpt lat="41.727014" lon="23.521288"><ele>2370.5</ele><time>2026-03-15T07:57:02.000Z</time></trkpt>
<trkpt lat="41.727014" lon="23.521279"><ele>2370.5</ele><time>2026-03-15T07:57:03.000Z</time></trkpt>
<trkpt lat="41.727014" lon="23.521269"><ele>2370.5</ele><time>2026-03-15T07:57:04.000Z</time></trkpt>
<trkpt lat="41.727013" lon="23.521259"><ele>2370.5</ele><time>2026-03-15T07:57:05.000Z</time></trkpt>
<trkpt lat="41.727012" lon="23.521248"><ele>2371.5</ele><time>2026-03-15T07:57:06.000Z</time></trkpt>
<trkpt lat="41.727012" lon="23.521239"><ele>2371.5</ele><time>2026-03-15T07:57:07.000Z</time></trkpt>
<trkpt lat="41.727013" lon="23.521229"><ele>2371.5</ele><time>2026-03-15T07:57:08.000Z</time></trkpt>
<trkpt lat="41.727014" lon="23.521218"><ele>2371.5</ele><time>2026-03-15T07:57:09.000Z</time></trkpt>
<trkpt lat="41.727014" lon="23.521209"><ele>2371.5</ele><time>2026-03-15T07:57:10.000Z</time></trkpt>
<trkpt lat="41.727016" lon="23.5212"><ele>2372.1</ele><time>2026-03-15T07:57:11.000Z</time></trkpt>
<trkpt lat="41.727016" lon="23.52119"><ele>2372.1</ele><time>2026-03-15T07:57:12.000Z</time></trkpt>
<trkpt lat="41.727018" lon="23.521181"><ele>2372.1</ele><time>2026-03-15T07:57:13.000Z</time></trkpt>
<trkpt lat="41.727019" lon="23.521171"><ele>2372.1</ele><time>2026-03-15T07:57:14.000Z</time></trkpt>
<trkpt lat="41.727021" lon="23.521162"><ele>2372.1</ele><time>2026-03-15T07:57:15.000Z</time></trkpt>
<trkpt lat="41.727022" lon="23.521152"><ele>2373.2</ele><time>2026-03-15T07:57:16.000Z</time></trkpt>
<trkpt lat="41.727024" lon="23.521142"><ele>2373.2</ele><time>2026-03-15T07:57:17.000Z</time></trkpt>
<trkpt lat="41.727025" lon="23.521132"><ele>2373.2</ele><time>2026-03-15T07:57:18.000Z</time></trkpt>
<trkpt lat="41.727026" lon="23.521122"><ele>2373.2</ele><time>2026-03-15T07:57:19.000Z</time></trkpt>
<trkpt lat="41.727028" lon="23.521112"><ele>2373.2</ele><time>2026-03-15T07:57:20.000Z</time></trkpt>
<trkpt lat="41.727029" lon="23.521103"><ele>2374.4</ele><time>2026-03-15T07:57:21.000Z</time></trkpt>
<trkpt lat="41.727031" lon="23.521094"><ele>2374.4</ele><time>2026-03-15T07:57:22.000Z</time></trkpt>
<trkpt lat="41.727033" lon="23.521085"><ele>2374.4</ele><time>2026-03-15T07:57:23.000Z</time></trkpt>
<trkpt lat="41.727034" lon="23.521076"><ele>2374.4</ele><time>2026-03-15T07:57:24.000Z</time></trkpt>
<trkpt lat="41.727035" lon="23.521067"><ele>2374.4</ele><time>2026-03-15T07:57:25.000Z</time></trkpt>
<trkpt lat="41.727036" lon="23.521057"><ele>2375</ele><time>2026-03-15T07:57:26.000Z</time></trkpt>
<trkpt lat="41.727037" lon="23.521048"><ele>2375</ele><time>2026-03-15T07:57:27.000Z</time></trkpt>
<trkpt lat="41.727039" lon="23.521039"><ele>2375</ele><time>2026-03-15T07:57:28.000Z</time></trkpt>
<trkpt lat="41.72704" lon="23.521031"><ele>2375</ele><time>2026-03-15T07:57:29.000Z</time></trkpt>
<trkpt lat="41.72704" lon="23.521023"><ele>2375</ele><time>2026-03-15T07:57:30.000Z</time></trkpt>
<trkpt lat="41.72704" lon="23.521014"><ele>2376.1</ele><time>2026-03-15T07:57:31.000Z</time></trkpt>
<trkpt lat="41.727039" lon="23.521005"><ele>2376.1</ele><time>2026-03-15T07:57:32.000Z</time></trkpt>
<trkpt lat="41.727039" lon="23.520996"><ele>2376.1</ele><time>2026-03-15T07:57:33.000Z</time></trkpt>
<trkpt lat="41.727038" lon="23.520985"><ele>2376.1</ele><time>2026-03-15T07:57:34.000Z</time></trkpt>
<trkpt lat="41.727038" lon="23.520975"><ele>2376.1</ele><time>2026-03-15T07:57:35.000Z</time></trkpt>
<trkpt lat="41.727037" lon="23.520965"><ele>2377.2</ele><time>2026-03-15T07:57:36.000Z</time></trkpt>
<trkpt lat="41.727037" lon="23.520954"><ele>2377.2</ele><time>2026-03-15T07:57:37.000Z</time></trkpt>
<trkpt lat="41.727037" lon="23.520944"><ele>2377.2</ele><time>2026-03-15T07:57:38.000Z</time></trkpt>
<trkpt lat="41.727036" lon="23.520935"><ele>2377.2</ele><time>2026-03-15T07:57:39.000Z</time></trkpt>
<trkpt lat="41.727036" lon="23.520925"><ele>2377.2</ele><time>2026-03-15T07:57:40.000Z</time></trkpt>
<trkpt lat="41.727036" lon="23.520916"><ele>2377.7</ele><time>2026-03-15T07:57:41.000Z</time></trkpt>
<trkpt lat="41.727036" lon="23.520907"><ele>2377.7</ele><time>2026-03-15T07:57:42.000Z</time></trkpt>
<trkpt lat="41.727036" lon="23.520898"><ele>2377.7</ele><time>2026-03-15T07:57:43.000Z</time></trkpt>
<trkpt lat="41.727036" lon="23.52089"><ele>2377.7</ele><time>2026-03-15T07:57:44.000Z</time></trkpt>
<trkpt lat="41.727036" lon="23.520881"><ele>2377.7</ele><time>2026-03-15T07:57:45.000Z</time></trkpt>
<trkpt lat="41.727036" lon="23.520872"><ele>2378.6</ele><time>2026-03-15T07:57:46.000Z</time></trkpt>
<trkpt lat="41.727036" lon="23.520863"><ele>2378.6</ele><time>2026-03-15T07:57:47.000Z</time></trkpt>
<trkpt lat="41.727036" lon="23.520854"><ele>2378.6</ele><time>2026-03-15T07:57:48.000Z</time></trkpt>
<trkpt lat="41.727036" lon="23.520844"><ele>2378.6</ele><time>2026-03-15T07:57:49.000Z</time></trkpt>
<trkpt lat="41.727035" lon="23.520835"><ele>2378.6</ele><time>2026-03-15T07:57:50.000Z</time></trkpt>
<trkpt lat="41.727035" lon="23.520825"><ele>2379.6</ele><time>2026-03-15T07:57:51.000Z</time></trkpt>
<trkpt lat="41.727035" lon="23.520815"><ele>2379.6</ele><time>2026-03-15T07:57:52.000Z</time></trkpt>
<trkpt lat="41.727035" lon="23.520807"><ele>2379.6</ele><time>2026-03-15T07:57:53.000Z</time></trkpt>
<trkpt lat="41.727035" lon="23.520797"><ele>2379.6</ele><time>2026-03-15T07:57:54.000Z</time></trkpt>
<trkpt lat="41.727034" lon="23.520788"><ele>2379.6</ele><time>2026-03-15T07:57:55.000Z</time></trkpt>
<trkpt lat="41.727033" lon="23.520779"><ele>2380.1</ele><time>2026-03-15T07:57:56.000Z</time></trkpt>
<trkpt lat="41.727032" lon="23.520769"><ele>2380.1</ele><time>2026-03-15T07:57:57.000Z</time></trkpt>
<trkpt lat="41.72703" lon="23.520759"><ele>2380.1</ele><time>2026-03-15T07:57:58.000Z</time></trkpt>
<trkpt lat="41.727029" lon="23.52075"><ele>2380.1</ele><time>2026-03-15T07:57:59.000Z</time></trkpt>
<trkpt lat="41.727029" lon="23.520741"><ele>2380.1</ele><time>2026-03-15T07:58:00.000Z</time></trkpt>
<trkpt lat="41.727028" lon="23.520732"><ele>2381.1</ele><time>2026-03-15T07:58:01.000Z</time></trkpt>
<trkpt lat="41.727028" lon="23.520725"><ele>2381.1</ele><time>2026-03-15T07:58:02.000Z</time></trkpt>
<trkpt lat="41.727028" lon="23.520717"><ele>2381.1</ele><time>2026-03-15T07:58:03.000Z</time></trkpt>
<trkpt lat="41.727027" lon="23.520711"><ele>2381.1</ele><time>2026-03-15T07:58:04.000Z</time></trkpt>
<trkpt lat="41.727026" lon="23.520705"><ele>2381.1</ele><time>2026-03-15T07:58:05.000Z</time></trkpt>
<trkpt lat="41.727025" lon="23.5207"><ele>2382.1</ele><time>2026-03-15T07:58:06.000Z</time></trkpt>
<trkpt lat="41.727024" lon="23.520697"><ele>2382.1</ele><time>2026-03-15T07:58:07.000Z</time></trkpt>
<trkpt lat="41.727023" lon="23.520696"><ele>2382.1</ele><time>2026-03-15T07:58:08.000Z</time></trkpt>
<trkpt lat="41.727023" lon="23.520695"><ele>2382.1</ele><time>2026-03-15T07:58:09.000Z</time></trkpt>
<trkpt lat="41.727022" lon="23.520695"><ele>2382.1</ele><time>2026-03-15T07:58:10.000Z</time></trkpt>
<trkpt lat="41.727022" lon="23.520695"><ele>2382.6</ele><time>2026-03-15T07:58:11.000Z</time></trkpt>
<trkpt lat="41.727021" lon="23.520695"><ele>2382.6</ele><time>2026-03-15T07:58:12.000Z</time></trkpt>
<trkpt lat="41.727021" lon="23.520695"><ele>2382.6</ele><time>2026-03-15T07:58:13.000Z</time></trkpt>
<trkpt lat="41.727021" lon="23.520695"><ele>2382.6</ele><time>2026-03-15T07:58:14.000Z</time></trkpt>
<trkpt lat="41.727021" lon="23.520695"><ele>2382.6</ele><time>2026-03-15T07:58:15.000Z</time></trkpt>
<trkpt lat="41.727021" lon="23.520695"><ele>2383.5</ele><time>2026-03-15T07:58:16.000Z</time></trkpt>
<trkpt lat="41.72702" lon="23.520696"><ele>2383.5</ele><time>2026-03-15T07:58:17.000Z</time></trkpt>
<trkpt lat="41.727018" lon="23.520697"><ele>2383.5</ele><time>2026-03-15T07:58:18.000Z</time></trkpt>
<trkpt lat="41.727017" lon="23.520697"><ele>2383.5</ele><time>2026-03-15T07:58:19.000Z</time></trkpt>
<trkpt lat="41.727015" lon="23.520698"><ele>2383.5</ele><time>2026-03-15T07:58:20.000Z</time></trkpt>
<trkpt lat="41.727014" lon="23.520697"><ele>2384.2</ele><time>2026-03-15T07:58:21.000Z</time></trkpt>
<trkpt lat="41.727013" lon="23.520697"><ele>2384.2</ele><time>2026-03-15T07:58:22.000Z</time></trkpt>
<trkpt lat="41.727013" lon="23.520696"><ele>2384.2</ele><time>2026-03-15T07:58:23.000Z</time></trkpt>
<trkpt lat="41.727013" lon="23.520696"><ele>2384.2</ele><time>2026-03-15T07:58:24.000Z</time></trkpt>
<trkpt lat="41.727013" lon="23.520696"><ele>2384.2</ele><time>2026-03-15T07:58:25.000Z</time></trkpt>
<trkpt lat="41.727013" lon="23.520696"><ele>2384.4</ele><time>2026-03-15T07:58:26.000Z</time></trkpt>
<trkpt lat="41.727013" lon="23.520696"><ele>2384.4</ele><time>2026-03-15T07:58:27.000Z</time></trkpt>
<trkpt lat="41.727013" lon="23.520696"><ele>2384.4</ele><time>2026-03-15T07:58:28.000Z</time></trkpt>
<trkpt lat="41.727013" lon="23.520696"><ele>2384.4</ele><time>2026-03-15T07:58:29.000Z</time></trkpt>
<trkpt lat="41.727013" lon="23.520695"><ele>2384.4</ele><time>2026-03-15T07:58:30.000Z</time></trkpt>
<trkpt lat="41.727012" lon="23.520692"><ele>2384.8</ele><time>2026-03-15T07:58:31.000Z</time></trkpt>
<trkpt lat="41.72701" lon="23.520688"><ele>2384.8</ele><time>2026-03-15T07:58:32.000Z</time></trkpt>
<trkpt lat="41.727009" lon="23.520682"><ele>2384.8</ele><time>2026-03-15T07:58:33.000Z</time></trkpt>
<trkpt lat="41.727008" lon="23.520673"><ele>2384.8</ele><time>2026-03-15T07:58:34.000Z</time></trkpt>
<trkpt lat="41.727007" lon="23.520665"><ele>2384.8</ele><time>2026-03-15T07:58:35.000Z</time></trkpt>
<trkpt lat="41.727008" lon="23.520656"><ele>2384.8</ele><time>2026-03-15T07:58:36.000Z</time></trkpt>
<trkpt lat="41.727008" lon="23.520646"><ele>2384.8</ele><time>2026-03-15T07:58:37.000Z</time></trkpt>
<trkpt lat="41.727007" lon="23.520637"><ele>2384.8</ele><time>2026-03-15T07:58:38.000Z</time></trkpt>
<trkpt lat="41.727007" lon="23.52063"><ele>2384.8</ele><time>2026-03-15T07:58:39.000Z</time></trkpt>
<trkpt lat="41.727006" lon="23.52062"><ele>2384.8</ele><time>2026-03-15T07:58:40.000Z</time></trkpt>
<trkpt lat="41.727005" lon="23.520612"><ele>2384.8</ele><time>2026-03-15T07:58:41.000Z</time></trkpt>
<trkpt lat="41.727005" lon="23.520603"><ele>2384.8</ele><time>2026-03-15T07:58:42.000Z</time></trkpt>
<trkpt lat="41.727004" lon="23.520594"><ele>2384.8</ele><time>2026-03-15T07:58:43.000Z</time></trkpt>
<trkpt lat="41.727004" lon="23.520584"><ele>2384.8</ele><time>2026-03-15T07:58:44.000Z</time></trkpt>
<trkpt lat="41.727004" lon="23.520574"><ele>2384.8</ele><time>2026-03-15T07:58:45.000Z</time></trkpt>
<trkpt lat="41.727003" lon="23.520564"><ele>2384.9</ele><time>2026-03-15T07:58:46.000Z</time></trkpt>
<trkpt lat="41.727003" lon="23.520554"><ele>2384.9</ele><time>2026-03-15T07:58:47.000Z</time></trkpt>
<trkpt lat="41.727003" lon="23.520545"><ele>2384.9</ele><time>2026-03-15T07:58:48.000Z</time></trkpt>
<trkpt lat="41.727002" lon="23.520537"><ele>2384.9</ele><time>2026-03-15T07:58:49.000Z</time></trkpt>
<trkpt lat="41.727001" lon="23.520529"><ele>2384.9</ele><time>2026-03-15T07:58:50.000Z</time></trkpt>
<trkpt lat="41.727001" lon="23.520522"><ele>2385.6</ele><time>2026-03-15T07:58:51.000Z</time></trkpt>
<trkpt lat="41.727" lon="23.520514"><ele>2385.6</ele><time>2026-03-15T07:58:52.000Z</time></trkpt>
<trkpt lat="41.726998" lon="23.520506"><ele>2385.6</ele><time>2026-03-15T07:58:53.000Z</time></trkpt>
<trkpt lat="41.726998" lon="23.520497"><ele>2385.6</ele><time>2026-03-15T07:58:54.000Z</time></trkpt>
<trkpt lat="41.726997" lon="23.520487"><ele>2385.6</ele><time>2026-03-15T07:58:55.000Z</time></trkpt>
<trkpt lat="41.726998" lon="23.520479"><ele>2386</ele><time>2026-03-15T07:58:56.000Z</time></trkpt>
<trkpt lat="41.726999" lon="23.520472"><ele>2386</ele><time>2026-03-15T07:58:57.000Z</time></trkpt>
<trkpt lat="41.726999" lon="23.520466"><ele>2386</ele><time>2026-03-15T07:58:58.000Z</time></trkpt>
<trkpt lat="41.726999" lon="23.52046"><ele>2386</ele><time>2026-03-15T07:58:59.000Z</time></trkpt>
<trkpt lat="41.726999" lon="23.520454"><ele>2386</ele><time>2026-03-15T07:59:00.000Z</time></trkpt>
<trkpt lat="41.726997" lon="23.520448"><ele>2386.8</ele><time>2026-03-15T07:59:01.000Z</time></trkpt>
<trkpt lat="41.726996" lon="23.52044"><ele>2386.8</ele><time>2026-03-15T07:59:02.000Z</time></trkpt>
<trkpt lat="41.726996" lon="23.520432"><ele>2386.8</ele><time>2026-03-15T07:59:03.000Z</time></trkpt>
<trkpt lat="41.726995" lon="23.520423"><ele>2386.8</ele><time>2026-03-15T07:59:04.000Z</time></trkpt>
<trkpt lat="41.726995" lon="23.520416"><ele>2386.8</ele><time>2026-03-15T07:59:05.000Z</time></trkpt>
<trkpt lat="41.726994" lon="23.520408"><ele>2387.6</ele><time>2026-03-15T07:59:06.000Z</time></trkpt>
<trkpt lat="41.726993" lon="23.5204"><ele>2387.6</ele><time>2026-03-15T07:59:07.000Z</time></trkpt>
<trkpt lat="41.726991" lon="23.520392"><ele>2387.6</ele><time>2026-03-15T07:59:08.000Z</time></trkpt>
<trkpt lat="41.72699" lon="23.520384"><ele>2387.6</ele><time>2026-03-15T07:59:09.000Z</time></trkpt>
<trkpt lat="41.72699" lon="23.520374"><ele>2387.6</ele><time>2026-03-15T07:59:10.000Z</time></trkpt>
<trkpt lat="41.726989" lon="23.520365"><ele>2387.9</ele><time>2026-03-15T07:59:11.000Z</time></trkpt>
<trkpt lat="41.726988" lon="23.520357"><ele>2387.9</ele><time>2026-03-15T07:59:12.000Z</time></trkpt>
<trkpt lat="41.726988" lon="23.520348"><ele>2387.9</ele><time>2026-03-15T07:59:13.000Z</time></trkpt>
<trkpt lat="41.726987" lon="23.52034"><ele>2387.9</ele><time>2026-03-15T07:59:14.000Z</time></trkpt>
<trkpt lat="41.726986" lon="23.520331"><ele>2387.9</ele><time>2026-03-15T07:59:15.000Z</time></trkpt>
<trkpt lat="41.726985" lon="23.520323"><ele>2388.6</ele><time>2026-03-15T07:59:16.000Z</time></trkpt>
<trkpt lat="41.726984" lon="23.520316"><ele>2388.6</ele><time>2026-03-15T07:59:17.000Z</time></trkpt>
<trkpt lat="41.726984" lon="23.52031"><ele>2388.6</ele><time>2026-03-15T07:59:18.000Z</time></trkpt>
<trkpt lat="41.726983" lon="23.520306"><ele>2388.6</ele><time>2026-03-15T07:59:19.000Z</time></trkpt>
<trkpt lat="41.726983" lon="23.520303"><ele>2388.6</ele><time>2026-03-15T07:59:20.000Z</time></trkpt>
<trkpt lat="41.726983" lon="23.5203"><ele>2389.4</ele><time>2026-03-15T07:59:21.000Z</time></trkpt>
<trkpt lat="41.726983" lon="23.520296"><ele>2389.4</ele><time>2026-03-15T07:59:22.000Z</time></trkpt>
<trkpt lat="41.726983" lon="23.52029"><ele>2389.4</ele><time>2026-03-15T07:59:23.000Z</time></trkpt>
<trkpt lat="41.726983" lon="23.520283"><ele>2389.4</ele><time>2026-03-15T07:59:24.000Z</time></trkpt>
<trkpt lat="41.726984" lon="23.520274"><ele>2389.4</ele><time>2026-03-15T07:59:25.000Z</time></trkpt>
<trkpt lat="41.726984" lon="23.520264"><ele>2389.8</ele><time>2026-03-15T07:59:26.000Z</time></trkpt>
<trkpt lat="41.726985" lon="23.520255"><ele>2389.8</ele><time>2026-03-15T07:59:27.000Z</time></trkpt>
<trkpt lat="41.726986" lon="23.520246"><ele>2389.8</ele><time>2026-03-15T07:59:28.000Z</time></trkpt>
<trkpt lat="41.726986" lon="23.520237"><ele>2389.8</ele><time>2026-03-15T07:59:29.000Z</time></trkpt>
<trkpt lat="41.726987" lon="23.520227"><ele>2389.8</ele><time>2026-03-15T07:59:30.000Z</time></trkpt>
<trkpt lat="41.726988" lon="23.520218"><ele>2390.6</ele><time>2026-03-15T07:59:31.000Z</time></trkpt>
<trkpt lat="41.726988" lon="23.520209"><ele>2390.6</ele><time>2026-03-15T07:59:32.000Z</time></trkpt>
<trkpt lat="41.726989" lon="23.520199"><ele>2390.6</ele><time>2026-03-15T07:59:33.000Z</time></trkpt>
<trkpt lat="41.726989" lon="23.520189"><ele>2390.6</ele><time>2026-03-15T07:59:34.000Z</time></trkpt>
<trkpt lat="41.72699" lon="23.520181"><ele>2390.6</ele><time>2026-03-15T07:59:35.000Z</time></trkpt>
<trkpt lat="41.72699" lon="23.520171"><ele>2391.2</ele><time>2026-03-15T07:59:36.000Z</time></trkpt>
<trkpt lat="41.72699" lon="23.520161"><ele>2391.2</ele><time>2026-03-15T07:59:37.000Z</time></trkpt>
<trkpt lat="41.726989" lon="23.520151"><ele>2391.2</ele><time>2026-03-15T07:59:38.000Z</time></trkpt>
<trkpt lat="41.726989" lon="23.520141"><ele>2391.2</ele><time>2026-03-15T07:59:39.000Z</time></trkpt>
<trkpt lat="41.726989" lon="23.52013"><ele>2391.2</ele><time>2026-03-15T07:59:40.000Z</time></trkpt>
<trkpt lat="41.726988" lon="23.520121"><ele>2391.5</ele><time>2026-03-15T07:59:41.000Z</time></trkpt>
<trkpt lat="41.726988" lon="23.520113"><ele>2391.5</ele><time>2026-03-15T07:59:42.000Z</time></trkpt>
<trkpt lat="41.726988" lon="23.520105"><ele>2391.5</ele><time>2026-03-15T07:59:43.000Z</time></trkpt>
<trkpt lat="41.726987" lon="23.520097"><ele>2391.5</ele><time>2026-03-15T07:59:44.000Z</time></trkpt>
<trkpt lat="41.726987" lon="23.520089"><ele>2391.5</ele><time>2026-03-15T07:59:45.000Z</time></trkpt>
<trkpt lat="41.726986" lon="23.520081"><ele>2392.3</ele><time>2026-03-15T07:59:46.000Z</time></trkpt>
<trkpt lat="41.726986" lon="23.520073"><ele>2392.3</ele><time>2026-03-15T07:59:47.000Z</time></trkpt>
<trkpt lat="41.726985" lon="23.520064"><ele>2392.3</ele><time>2026-03-15T07:59:48.000Z</time></trkpt>
<trkpt lat="41.726985" lon="23.520055"><ele>2392.3</ele><time>2026-03-15T07:59:49.000Z</time></trkpt>
<trkpt lat="41.726985" lon="23.520045"><ele>2392.3</ele><time>2026-03-15T07:59:50.000Z</time></trkpt>
<trkpt lat="41.726985" lon="23.520036"><ele>2393.2</ele><time>2026-03-15T07:59:51.000Z</time></trkpt>
<trkpt lat="41.726986" lon="23.520026"><ele>2393.2</ele><time>2026-03-15T07:59:52.000Z</time></trkpt>
<trkpt lat="41.726986" lon="23.520016"><ele>2393.2</ele><time>2026-03-15T07:59:53.000Z</time></trkpt>
<trkpt lat="41.726986" lon="23.520007"><ele>2393.2</ele><time>2026-03-15T07:59:54.000Z</time></trkpt>
<trkpt lat="41.726987" lon="23.519997"><ele>2393.2</ele><time>2026-03-15T07:59:55.000Z</time></trkpt>
<trkpt lat="41.726988" lon="23.519987"><ele>2393.7</ele><time>2026-03-15T07:59:56.000Z</time></trkpt>
<trkpt lat="41.726989" lon="23.519977"><ele>2393.7</ele><time>2026-03-15T07:59:57.000Z</time></trkpt>
<trkpt lat="41.72699" lon="23.519968"><ele>2393.7</ele><time>2026-03-15T07:59:58.000Z</time></trkpt>
<trkpt lat="41.726991" lon="23.51996"><ele>2393.7</ele><time>2026-03-15T07:59:59.000Z</time></trkpt>
<trkpt lat="41.726992" lon="23.519951"><ele>2393.7</ele><time>2026-03-15T08:00:00.000Z</time></trkpt>
<trkpt lat="41.726993" lon="23.519943"><ele>2394.6</ele><time>2026-03-15T08:00:01.000Z</time></trkpt>
<trkpt lat="41.726994" lon="23.519935"><ele>2394.6</ele><time>2026-03-15T08:00:02.000Z</time></trkpt>
<trkpt lat="41.726995" lon="23.519927"><ele>2394.6</ele><time>2026-03-15T08:00:03.000Z</time></trkpt>
<trkpt lat="41.726995" lon="23.519919"><ele>2394.6</ele><time>2026-03-15T08:00:04.000Z</time></trkpt>
<trkpt lat="41.726996" lon="23.519912"><ele>2394.6</ele><time>2026-03-15T08:00:05.000Z</time></trkpt>
<trkpt lat="41.726996" lon="23.519904"><ele>2395.7</ele><time>2026-03-15T08:00:06.000Z</time></trkpt>
<trkpt lat="41.726996" lon="23.519896"><ele>2395.7</ele><time>2026-03-15T08:00:07.000Z</time></trkpt>
<trkpt lat="41.726996" lon="23.519888"><ele>2395.7</ele><time>2026-03-15T08:00:08.000Z</time></trkpt>
<trkpt lat="41.726996" lon="23.519879"><ele>2395.7</ele><time>2026-03-15T08:00:09.000Z</time></trkpt>
<trkpt lat="41.726996" lon="23.519871"><ele>2395.7</ele><time>2026-03-15T08:00:10.000Z</time></trkpt>
<trkpt lat="41.726996" lon="23.519861"><ele>2396.2</ele><time>2026-03-15T08:00:11.000Z</time></trkpt>
<trkpt lat="41.726997" lon="23.519853"><ele>2396.2</ele><time>2026-03-15T08:00:12.000Z</time></trkpt>
<trkpt lat="41.726998" lon="23.519844"><ele>2396.2</ele><time>2026-03-15T08:00:13.000Z</time></trkpt>
<trkpt lat="41.726999" lon="23.519836"><ele>2396.2</ele><time>2026-03-15T08:00:14.000Z</time></trkpt>
<trkpt lat="41.726999" lon="23.519828"><ele>2396.2</ele><time>2026-03-15T08:00:15.000Z</time></trkpt>
<trkpt lat="41.727001" lon="23.51982"><ele>2397.1</ele><time>2026-03-15T08:00:16.000Z</time></trkpt>
<trkpt lat="41.727002" lon="23.519813"><ele>2397.1</ele><time>2026-03-15T08:00:17.000Z</time></trkpt>
<trkpt lat="41.727004" lon="23.519805"><ele>2397.1</ele><time>2026-03-15T08:00:18.000Z</time></trkpt>
<trkpt lat="41.727006" lon="23.519797"><ele>2397.1</ele><time>2026-03-15T08:00:19.000Z</time></trkpt>
<trkpt lat="41.727008" lon="23.519788"><ele>2397.1</ele><time>2026-03-15T08:00:20.000Z</time></trkpt>
<trkpt lat="41.727009" lon="23.51978"><ele>2398</ele><time>2026-03-15T08:00:21.000Z</time></trkpt>
<trkpt lat="41.72701" lon="23.519772"><ele>2398</ele><time>2026-03-15T08:00:22.000Z</time></trkpt>
<trkpt lat="41.727011" lon="23.519763"><ele>2398</ele><time>2026-03-15T08:00:23.000Z</time></trkpt>
<trkpt lat="41.727011" lon="23.519755"><ele>2398</ele><time>2026-03-15T08:00:24.000Z</time></trkpt>
<trkpt lat="41.727012" lon="23.519746"><ele>2398</ele><time>2026-03-15T08:00:25.000Z</time></trkpt>
<trkpt lat="41.727013" lon="23.519737"><ele>2398.4</ele><time>2026-03-15T08:00:26.000Z</time></trkpt>
<trkpt lat="41.727014" lon="23.519728"><ele>2398.4</ele><time>2026-03-15T08:00:27.000Z</time></trkpt>
<trkpt lat="41.727015" lon="23.519718"><ele>2398.4</ele><time>2026-03-15T08:00:28.000Z</time></trkpt>
<trkpt lat="41.727015" lon="23.519708"><ele>2398.4</ele><time>2026-03-15T08:00:29.000Z</time></trkpt>
<trkpt lat="41.727017" lon="23.519698"><ele>2398.4</ele><time>2026-03-15T08:00:30.000Z</time></trkpt>
<trkpt lat="41.727017" lon="23.519688"><ele>2399.3</ele><time>2026-03-15T08:00:31.000Z</time></trkpt>
<trkpt lat="41.727018" lon="23.519679"><ele>2399.3</ele><time>2026-03-15T08:00:32.000Z</time></trkpt>
<trkpt lat="41.727018" lon="23.51967"><ele>2399.3</ele><time>2026-03-15T08:00:33.000Z</time></trkpt>
<trkpt lat="41.727019" lon="23.51966"><ele>2399.3</ele><time>2026-03-15T08:00:34.000Z</time></trkpt>
<trkpt lat="41.727019" lon="23.519652"><ele>2399.3</ele><time>2026-03-15T08:00:35.000Z</time></trkpt>
<trkpt lat="41.72702" lon="23.519643"><ele>2400.2</ele><time>2026-03-15T08:00:36.000Z</time></trkpt>
<trkpt lat="41.727021" lon="23.519635"><ele>2400.2</ele><time>2026-03-15T08:00:37.000Z</time></trkpt>
<trkpt lat="41.727022" lon="23.519627"><ele>2400.2</ele><time>2026-03-15T08:00:38.000Z</time></trkpt>
<trkpt lat="41.727023" lon="23.51962"><ele>2400.2</ele><time>2026-03-15T08:00:39.000Z</time></trkpt>
<trkpt lat="41.727024" lon="23.519613"><ele>2400.2</ele><time>2026-03-15T08:00:40.000Z</time></trkpt>
<trkpt lat="41.727025" lon="23.519607"><ele>2400.7</ele><time>2026-03-15T08:00:41.000Z</time></trkpt>
<trkpt lat="41.727025" lon="23.519601"><ele>2400.7</ele><time>2026-03-15T08:00:42.000Z</time></trkpt>
<trkpt lat="41.727025" lon="23.519595"><ele>2400.7</ele><time>2026-03-15T08:00:43.000Z</time></trkpt>
<trkpt lat="41.727025" lon="23.51959"><ele>2400.7</ele><time>2026-03-15T08:00:44.000Z</time></trkpt>
<trkpt lat="41.727025" lon="23.519584"><ele>2400.7</ele><time>2026-03-15T08:00:45.000Z</time></trkpt>
<trkpt lat="41.727026" lon="23.519577"><ele>2401.7</ele><time>2026-03-15T08:00:46.000Z</time></trkpt>
<trkpt lat="41.727028" lon="23.519569"><ele>2401.7</ele><time>2026-03-15T08:00:47.000Z</time></trkpt>
<trkpt lat="41.72703" lon="23.519561"><ele>2401.7</ele><time>2026-03-15T08:00:48.000Z</time></trkpt>
<trkpt lat="41.727031" lon="23.519554"><ele>2401.7</ele><time>2026-03-15T08:00:49.000Z</time></trkpt>
<trkpt lat="41.727031" lon="23.519546"><ele>2401.7</ele><time>2026-03-15T08:00:50.000Z</time></trkpt>
<trkpt lat="41.727031" lon="23.519539"><ele>2402.5</ele><time>2026-03-15T08:00:51.000Z</time></trkpt>
<trkpt lat="41.72703" lon="23.519532"><ele>2402.5</ele><time>2026-03-15T08:00:52.000Z</time></trkpt>
<trkpt lat="41.727028" lon="23.519526"><ele>2402.5</ele><time>2026-03-15T08:00:53.000Z</time></trkpt>
<trkpt lat="41.727027" lon="23.519521"><ele>2402.5</ele><time>2026-03-15T08:00:54.000Z</time></trkpt>
<trkpt lat="41.727026" lon="23.519517"><ele>2402.5</ele><time>2026-03-15T08:00:55.000Z</time></trkpt>
<trkpt lat="41.727026" lon="23.519514"><ele>2402.9</ele><time>2026-03-15T08:00:56.000Z</time></trkpt>
<trkpt lat="41.727026" lon="23.519512"><ele>2402.9</ele><time>2026-03-15T08:00:57.000Z</time></trkpt>
<trkpt lat="41.727027" lon="23.519512"><ele>2402.9</ele><time>2026-03-15T08:00:58.000Z</time></trkpt>
<trkpt lat="41.727027" lon="23.519511"><ele>2402.9</ele><time>2026-03-15T08:00:59.000Z</time></trkpt>
<trkpt lat="41.727028" lon="23.51951"><ele>2402.9</ele><time>2026-03-15T08:01:00.000Z</time></trkpt>
<trkpt lat="41.727028" lon="23.519511"><ele>2403.5</ele><time>2026-03-15T08:01:01.000Z</time></trkpt>
<trkpt lat="41.727027" lon="23.519512"><ele>2403.5</ele><time>2026-03-15T08:01:02.000Z</time></trkpt>
<trkpt lat="41.727027" lon="23.519513"><ele>2403.5</ele><time>2026-03-15T08:01:03.000Z</time></trkpt>
<trkpt lat="41.727026" lon="23.519514"><ele>2403.5</ele><time>2026-03-15T08:01:04.000Z</time></trkpt>
<trkpt lat="41.727026" lon="23.519516"><ele>2403.5</ele><time>2026-03-15T08:01:05.000Z</time></trkpt>
<trkpt lat="41.727026" lon="23.519517"><ele>2404.3</ele><time>2026-03-15T08:01:06.000Z</time></trkpt>
<trkpt lat="41.727026" lon="23.519518"><ele>2404.3</ele><time>2026-03-15T08:01:07.000Z</time></trkpt>
<trkpt lat="41.727027" lon="23.519519"><ele>2404.3</ele><time>2026-03-15T08:01:08.000Z</time></trkpt>
<trkpt lat="41.727027" lon="23.519519"><ele>2404.3</ele><time>2026-03-15T08:01:09.000Z</time></trkpt>
<trkpt lat="41.727027" lon="23.519519"><ele>2404.3</ele><time>2026-03-15T08:01:10.000Z</time></trkpt>
<trkpt lat="41.727027" lon="23.519518"><ele>2404.5</ele><time>2026-03-15T08:01:11.000Z</time></trkpt>
<trkpt lat="41.727028" lon="23.519517"><ele>2404.5</ele><time>2026-03-15T08:01:12.000Z</time></trkpt>
<trkpt lat="41.727029" lon="23.519517"><ele>2404.5</ele><time>2026-03-15T08:01:13.000Z</time></trkpt>
<trkpt lat="41.727029" lon="23.519516"><ele>2404.5</ele><time>2026-03-15T08:01:14.000Z</time></trkpt>
<trkpt lat="41.727029" lon="23.519516"><ele>2404.5</ele><time>2026-03-15T08:01:15.000Z</time></trkpt>
<trkpt lat="41.72703" lon="23.519517"><ele>2404.7</ele><time>2026-03-15T08:01:16.000Z</time></trkpt>
<trkpt lat="41.72703" lon="23.519517"><ele>2404.7</ele><time>2026-03-15T08:01:17.000Z</time></trkpt>
<trkpt lat="41.727031" lon="23.519518"><ele>2404.7</ele><time>2026-03-15T08:01:18.000Z</time></trkpt>
<trkpt lat="41.727031" lon="23.519519"><ele>2404.7</ele><time>2026-03-15T08:01:19.000Z</time></trkpt>
<trkpt lat="41.727031" lon="23.51952"><ele>2404.7</ele><time>2026-03-15T08:01:20.000Z</time></trkpt>
<trkpt lat="41.727029" lon="23.519521"><ele>2404.6</ele><time>2026-03-15T08:01:21.000Z</time></trkpt>
<trkpt lat="41.727028" lon="23.51952"><ele>2404.6</ele><time>2026-03-15T08:01:22.000Z</time></trkpt>
<trkpt lat="41.727026" lon="23.51952"><ele>2404.6</ele><time>2026-03-15T08:01:23.000Z</time></trkpt>
<trkpt lat="41.727025" lon="23.519519"><ele>2404.6</ele><time>2026-03-15T08:01:24.000Z</time></trkpt>
<trkpt lat="41.727024" lon="23.519517"><ele>2404.6</ele><time>2026-03-15T08:01:25.000Z</time></trkpt>
<trkpt lat="41.727023" lon="23.519514"><ele>2404.6</ele><time>2026-03-15T08:01:26.000Z</time></trkpt>
<trkpt lat="41.727023" lon="23.519512"><ele>2404.6</ele><time>2026-03-15T08:01:27.000Z</time></trkpt>
<trkpt lat="41.727022" lon="23.51951"><ele>2404.6</ele><time>2026-03-15T08:01:28.000Z</time></trkpt>
<trkpt lat="41.727022" lon="23.519508"><ele>2404.6</ele><time>2026-03-15T08:01:29.000Z</time></trkpt>
<trkpt lat="41.727022" lon="23.519506"><ele>2404.6</ele><time>2026-03-15T08:01:30.000Z</time></trkpt>
<trkpt lat="41.727023" lon="23.519506"><ele>2404.6</ele><time>2026-03-15T08:01:31.000Z</time></trkpt>
<trkpt lat="41.727023" lon="23.519507"><ele>2404.6</ele><time>2026-03-15T08:01:32.000Z</time></trkpt>
<trkpt lat="41.727024" lon="23.519508"><ele>2404.6</ele><time>2026-03-15T08:01:33.000Z</time></trkpt>
<trkpt lat="41.727025" lon="23.519509"><ele>2404.6</ele><time>2026-03-15T08:01:34.000Z</time></trkpt>
<trkpt lat="41.727025" lon="23.51951"><ele>2404.6</ele><time>2026-03-15T08:01:35.000Z</time></trkpt>
<trkpt lat="41.727026" lon="23.519511"><ele>2404.5</ele><time>2026-03-15T08:01:36.000Z</time></trkpt>
<trkpt lat="41.727026" lon="23.519511"><ele>2404.5</ele><time>2026-03-15T08:01:37.000Z</time></trkpt>
<trkpt lat="41.727026" lon="23.519511"><ele>2404.5</ele><time>2026-03-15T08:01:38.000Z</time></trkpt>
<trkpt lat="41.727026" lon="23.519512"><ele>2404.5</ele><time>2026-03-15T08:01:39.000Z</time></trkpt>
<trkpt lat="41.727027" lon="23.519511"><ele>2404.5</ele><time>2026-03-15T08:01:40.000Z</time></trkpt>
<trkpt lat="41.727027" lon="23.519512"><ele>2404.4</ele><time>2026-03-15T08:01:41.000Z</time></trkpt>
<trkpt lat="41.727028" lon="23.519512"><ele>2404.4</ele><time>2026-03-15T08:01:42.000Z</time></trkpt>
<trkpt lat="41.727028" lon="23.519512"><ele>2404.4</ele><time>2026-03-15T08:01:43.000Z</time></trkpt>
<trkpt lat="41.727029" lon="23.519513"><ele>2404.4</ele><time>2026-03-15T08:01:44.000Z</time></trkpt>
<trkpt lat="41.72703" lon="23.519514"><ele>2404.4</ele><time>2026-03-15T08:01:45.000Z</time></trkpt>
<trkpt lat="41.72703" lon="23.519516"><ele>2404.2</ele><time>2026-03-15T08:01:46.000Z</time></trkpt>
<trkpt lat="41.72703" lon="23.519518"><ele>2404.2</ele><time>2026-03-15T08:01:47.000Z</time></trkpt>
<trkpt lat="41.727031" lon="23.51952"><ele>2404.2</ele><time>2026-03-15T08:01:48.000Z</time></trkpt>
<trkpt lat="41.727031" lon="23.519522"><ele>2404.2</ele><time>2026-03-15T08:01:49.000Z</time></trkpt>
<trkpt lat="41.72703" lon="23.519523"><ele>2404.2</ele><time>2026-03-15T08:01:50.000Z</time></trkpt>
<trkpt lat="41.72703" lon="23.519522"><ele>2404.3</ele><time>2026-03-15T08:01:51.000Z</time></trkpt>
<trkpt lat="41.72703" lon="23.519521"><ele>2404.3</ele><time>2026-03-15T08:01:52.000Z</time></trkpt>
<trkpt lat="41.72703" lon="23.51952"><ele>2404.3</ele><time>2026-03-15T08:01:53.000Z</time></trkpt>
<trkpt lat="41.72703" lon="23.519519"><ele>2404.3</ele><time>2026-03-15T08:01:54.000Z</time></trkpt>
<trkpt lat="41.72703" lon="23.519518"><ele>2404.3</ele><time>2026-03-15T08:01:55.000Z</time></trkpt>
<trkpt lat="41.727029" lon="23.519518"><ele>2404.3</ele><time>2026-03-15T08:01:56.000Z</time></trkpt>
<trkpt lat="41.727028" lon="23.519517"><ele>2404.3</ele><time>2026-03-15T08:01:57.000Z</time></trkpt>
<trkpt lat="41.727026" lon="23.519516"><ele>2404.3</ele><time>2026-03-15T08:01:58.000Z</time></trkpt>
<trkpt lat="41.727025" lon="23.519515"><ele>2404.3</ele><time>2026-03-15T08:01:59.000Z</time></trkpt>
<trkpt lat="41.727025" lon="23.519516"><ele>2404.3</ele><time>2026-03-15T08:02:00.000Z</time></trkpt>
<trkpt lat="41.727024" lon="23.519516"><ele>2404.3</ele><time>2026-03-15T08:02:01.000Z</time></trkpt>
<trkpt lat="41.727025" lon="23.519518"><ele>2404.3</ele><time>2026-03-15T08:02:02.000Z</time></trkpt>
<trkpt lat="41.727026" lon="23.519519"><ele>2404.3</ele><time>2026-03-15T08:02:03.000Z</time></trkpt>
<trkpt lat="41.727026" lon="23.51952"><ele>2404.3</ele><time>2026-03-15T08:02:04.000Z</time></trkpt>
<trkpt lat="41.727027" lon="23.519522"><ele>2404.3</ele><time>2026-03-15T08:02:05.000Z</time></trkpt>
<trkpt lat="41.727028" lon="23.519524"><ele>2404.1</ele><time>2026-03-15T08:02:06.000Z</time></trkpt>
<trkpt lat="41.727029" lon="23.519524"><ele>2404.1</ele><time>2026-03-15T08:02:07.000Z</time></trkpt>
<trkpt lat="41.727029" lon="23.519525"><ele>2404.1</ele><time>2026-03-15T08:02:08.000Z</time></trkpt>
<trkpt lat="41.727029" lon="23.519525"><ele>2404.1</ele><time>2026-03-15T08:02:09.000Z</time></trkpt>
<trkpt lat="41.727029" lon="23.519525"><ele>2404.1</ele><time>2026-03-15T08:02:10.000Z</time></trkpt>
<trkpt lat="41.727029" lon="23.519525"><ele>2404</ele><time>2026-03-15T08:02:11.000Z</time></trkpt>
<trkpt lat="41.727029" lon="23.519525"><ele>2404</ele><time>2026-03-15T08:02:12.000Z</time></trkpt>
<trkpt lat="41.727029" lon="23.519525"><ele>2404</ele><time>2026-03-15T08:02:13.000Z</time></trkpt>
<trkpt lat="41.727029" lon="23.519525"><ele>2404</ele><time>2026-03-15T08:02:14.000Z</time></trkpt>
<trkpt lat="41.727029" lon="23.519524"><ele>2404</ele><time>2026-03-15T08:02:15.000Z</time></trkpt>
<trkpt lat="41.727029" lon="23.519524"><ele>2403.9</ele><time>2026-03-15T08:02:16.000Z</time></trkpt>
<trkpt lat="41.727029" lon="23.519524"><ele>2403.9</ele><time>2026-03-15T08:02:17.000Z</time></trkpt>
<trkpt lat="41.727029" lon="23.519524"><ele>2403.9</ele><time>2026-03-15T08:02:18.000Z</time></trkpt>
<trkpt lat="41.727029" lon="23.519525"><ele>2403.9</ele><time>2026-03-15T08:02:19.000Z</time></trkpt>
<trkpt lat="41.727029" lon="23.519525"><ele>2403.9</ele><time>2026-03-15T08:02:20.000Z</time></trkpt>
<trkpt lat="41.727028" lon="23.519525"><ele>2403.7</ele><time>2026-03-15T08:02:21.000Z</time></trkpt>
<trkpt lat="41.727028" lon="23.519525"><ele>2403.7</ele><time>2026-03-15T08:02:22.000Z</time></trkpt>
<trkpt lat="41.727028" lon="23.519525"><ele>2403.7</ele><time>2026-03-15T08:02:23.000Z</time></trkpt>
<trkpt lat="41.727027" lon="23.519525"><ele>2403.7</ele><time>2026-03-15T08:02:24.000Z</time></trkpt>
<trkpt lat="41.727027" lon="23.519525"><ele>2403.7</ele><time>2026-03-15T08:02:25.000Z</time></trkpt>
<trkpt lat="41.727027" lon="23.519525"><ele>2403.7</ele><time>2026-03-15T08:02:26.000Z</time></trkpt>
<trkpt lat="41.727026" lon="23.519525"><ele>2403.7</ele><time>2026-03-15T08:02:27.000Z</time></trkpt>
<trkpt lat="41.727026" lon="23.519526"><ele>2403.7</ele><time>2026-03-15T08:02:28.000Z</time></trkpt>
<trkpt lat="41.727026" lon="23.519526"><ele>2403.7</ele><time>2026-03-15T08:02:29.000Z</time></trkpt>
<trkpt lat="41.727026" lon="23.519526"><ele>2403.7</ele><time>2026-03-15T08:02:30.000Z</time></trkpt>
<trkpt lat="41.727026" lon="23.519526"><ele>2403.6</ele><time>2026-03-15T08:02:31.000Z</time></trkpt>
<trkpt lat="41.727026" lon="23.519526"><ele>2403.6</ele><time>2026-03-15T08:02:32.000Z</time></trkpt>
<trkpt lat="41.727026" lon="23.519526"><ele>2403.6</ele><time>2026-03-15T08:02:33.000Z</time></trkpt>
<trkpt lat="41.727026" lon="23.519526"><ele>2403.6</ele><time>2026-03-15T08:02:34.000Z</time></trkpt>
<trkpt lat="41.727026" lon="23.519526"><ele>2403.6</ele><time>2026-03-15T08:02:35.000Z</time></trkpt>
<trkpt lat="41.727026" lon="23.519525"><ele>2403.5</ele><time>2026-03-15T08:02:36.000Z</time></trkpt>
<trkpt lat="41.727025" lon="23.519524"><ele>2403.5</ele><time>2026-03-15T08:02:37.000Z</time></trkpt>
<trkpt lat="41.727025" lon="23.519524"><ele>2403.5</ele><time>2026-03-15T08:02:38.000Z</time></trkpt>
<trkpt lat="41.727025" lon="23.519523"><ele>2403.5</ele><time>2026-03-15T08:02:39.000Z</time></trkpt>
<trkpt lat="41.727025" lon="23.519522"><ele>2403.5</ele><time>2026-03-15T08:02:40.000Z</time></trkpt>
<trkpt lat="41.727026" lon="23.519522"><ele>2403.5</ele><time>2026-03-15T08:02:41.000Z</time></trkpt>
<trkpt lat="41.727026" lon="23.519522"><ele>2403.5</ele><time>2026-03-15T08:02:42.000Z</time></trkpt>
<trkpt lat="41.727026" lon="23.519522"><ele>2403.5</ele><time>2026-03-15T08:02:43.000Z</time></trkpt>
<trkpt lat="41.727026" lon="23.519522"><ele>2403.5</ele><time>2026-03-15T08:02:44.000Z</time></trkpt>
<trkpt lat="41.727027" lon="23.519522"><ele>2403.5</ele><time>2026-03-15T08:02:45.000Z</time></trkpt>
<trkpt lat="41.727026" lon="23.519522"><ele>2403.9</ele><time>2026-03-15T08:02:46.000Z</time></trkpt>
<trkpt lat="41.727026" lon="23.519522"><ele>2403.9</ele><time>2026-03-15T08:02:47.000Z</time></trkpt>
<trkpt lat="41.727026" lon="23.519522"><ele>2403.9</ele><time>2026-03-15T08:02:48.000Z</time></trkpt>
<trkpt lat="41.727026" lon="23.519522"><ele>2403.9</ele><time>2026-03-15T08:02:49.000Z</time></trkpt>
<trkpt lat="41.727026" lon="23.519522"><ele>2403.9</ele><time>2026-03-15T08:02:50.000Z</time></trkpt>
<trkpt lat="41.727026" lon="23.519522"><ele>2404.4</ele><time>2026-03-15T08:02:51.000Z</time></trkpt>
<trkpt lat="41.727026" lon="23.519523"><ele>2404.4</ele><time>2026-03-15T08:02:52.000Z</time></trkpt>
<trkpt lat="41.727026" lon="23.519523"><ele>2404.4</ele><time>2026-03-15T08:02:53.000Z</time></trkpt>
<trkpt lat="41.727026" lon="23.519523"><ele>2404.4</ele><time>2026-03-15T08:02:54.000Z</time></trkpt>
<trkpt lat="41.727026" lon="23.519523"><ele>2404.4</ele><time>2026-03-15T08:02:55.000Z</time></trkpt>
<trkpt lat="41.727027" lon="23.519523"><ele>2404.6</ele><time>2026-03-15T08:02:56.000Z</time></trkpt>
<trkpt lat="41.727027" lon="23.519523"><ele>2404.6</ele><time>2026-03-15T08:02:57.000Z</time></trkpt>
<trkpt lat="41.727027" lon="23.519522"><ele>2404.6</ele><time>2026-03-15T08:02:58.000Z</time></trkpt>
<trkpt lat="41.727026" lon="23.519522"><ele>2404.6</ele><time>2026-03-15T08:02:59.000Z</time></trkpt>
<trkpt lat="41.727026" lon="23.519521"><ele>2404.6</ele><time>2026-03-15T08:03:00.000Z</time></trkpt>
<trkpt lat="41.727026" lon="23.51952"><ele>2404.5</ele><time>2026-03-15T08:03:01.000Z</time></trkpt>
<trkpt lat="41.727025" lon="23.519519"><ele>2404.5</ele><time>2026-03-15T08:03:02.000Z</time></trkpt>
<trkpt lat="41.727026" lon="23.519519"><ele>2404.5</ele><time>2026-03-15T08:03:03.000Z</time></trkpt>
<trkpt lat="41.727026" lon="23.519518"><ele>2404.5</ele><time>2026-03-15T08:03:04.000Z</time></trkpt>
<trkpt lat="41.727026" lon="23.519518"><ele>2404.5</ele><time>2026-03-15T08:03:05.000Z</time></trkpt>
<trkpt lat="41.727026" lon="23.519519"><ele>2404.3</ele><time>2026-03-15T08:03:06.000Z</time></trkpt>
<trkpt lat="41.727026" lon="23.519519"><ele>2404.3</ele><time>2026-03-15T08:03:07.000Z</time></trkpt>
<trkpt lat="41.727026" lon="23.519519"><ele>2404.3</ele><time>2026-03-15T08:03:08.000Z</time></trkpt>
<trkpt lat="41.727026" lon="23.51952"><ele>2404.3</ele><time>2026-03-15T08:03:09.000Z</time></trkpt>
<trkpt lat="41.727026" lon="23.51952"><ele>2404.3</ele><time>2026-03-15T08:03:10.000Z</time></trkpt>
<trkpt lat="41.727026" lon="23.519519"><ele>2404.3</ele><time>2026-03-15T08:03:11.000Z</time></trkpt>
<trkpt lat="41.727027" lon="23.519519"><ele>2404.3</ele><time>2026-03-15T08:03:12.000Z</time></trkpt>
<trkpt lat="41.727028" lon="23.519518"><ele>2404.3</ele><time>2026-03-15T08:03:13.000Z</time></trkpt>
<trkpt lat="41.727028" lon="23.519518"><ele>2404.3</ele><time>2026-03-15T08:03:14.000Z</time></trkpt>
<trkpt lat="41.727029" lon="23.519517"><ele>2404.3</ele><time>2026-03-15T08:03:15.000Z</time></trkpt>
<trkpt lat="41.72703" lon="23.519518"><ele>2404.5</ele><time>2026-03-15T08:03:16.000Z</time></trkpt>
<trkpt lat="41.727031" lon="23.519518"><ele>2404.5</ele><time>2026-03-15T08:03:17.000Z</time></trkpt>
<trkpt lat="41.727032" lon="23.519518"><ele>2404.5</ele><time>2026-03-15T08:03:18.000Z</time></trkpt>
<trkpt lat="41.727033" lon="23.519518"><ele>2404.5</ele><time>2026-03-15T08:03:19.000Z</time></trkpt>
<trkpt lat="41.727034" lon="23.519517"><ele>2404.5</ele><time>2026-03-15T08:03:20.000Z</time></trkpt>
<trkpt lat="41.727034" lon="23.519517"><ele>2404.5</ele><time>2026-03-15T08:03:21.000Z</time></trkpt>
<trkpt lat="41.727035" lon="23.519517"><ele>2404.5</ele><time>2026-03-15T08:03:22.000Z</time></trkpt>
<trkpt lat="41.727035" lon="23.519517"><ele>2404.5</ele><time>2026-03-15T08:03:23.000Z</time></trkpt>
<trkpt lat="41.727035" lon="23.519516"><ele>2404.5</ele><time>2026-03-15T08:03:24.000Z</time></trkpt>
<trkpt lat="41.727035" lon="23.519516"><ele>2404.5</ele><time>2026-03-15T08:03:25.000Z</time></trkpt>
<trkpt lat="41.727035" lon="23.519516"><ele>2404.4</ele><time>2026-03-15T08:03:26.000Z</time></trkpt>
<trkpt lat="41.727035" lon="23.519516"><ele>2404.4</ele><time>2026-03-15T08:03:27.000Z</time></trkpt>
<trkpt lat="41.727035" lon="23.519516"><ele>2404.4</ele><time>2026-03-15T08:03:28.000Z</time></trkpt>
<trkpt lat="41.727035" lon="23.519515"><ele>2404.4</ele><time>2026-03-15T08:03:29.000Z</time></trkpt>
<trkpt lat="41.727035" lon="23.519514"><ele>2404.4</ele><time>2026-03-15T08:03:30.000Z</time></trkpt>
<trkpt lat="41.727035" lon="23.519513"><ele>2404.5</ele><time>2026-03-15T08:03:31.000Z</time></trkpt>
<trkpt lat="41.727035" lon="23.519512"><ele>2404.5</ele><time>2026-03-15T08:03:32.000Z</time></trkpt>
<trkpt lat="41.727035" lon="23.519512"><ele>2404.5</ele><time>2026-03-15T08:03:33.000Z</time></trkpt>
<trkpt lat="41.727035" lon="23.519512"><ele>2404.5</ele><time>2026-03-15T08:03:34.000Z</time></trkpt>
<trkpt lat="41.727035" lon="23.519513"><ele>2404.5</ele><time>2026-03-15T08:03:35.000Z</time></trkpt>
<trkpt lat="41.727035" lon="23.519513"><ele>2404.5</ele><time>2026-03-15T08:03:36.000Z</time></trkpt>
<trkpt lat="41.727035" lon="23.519513"><ele>2404.5</ele><time>2026-03-15T08:03:37.000Z</time></trkpt>
<trkpt lat="41.727035" lon="23.519513"><ele>2404.5</ele><time>2026-03-15T08:03:38.000Z</time></trkpt>
<trkpt lat="41.727035" lon="23.519513"><ele>2404.5</ele><time>2026-03-15T08:03:39.000Z</time></trkpt>
<trkpt lat="41.727035" lon="23.519513"><ele>2404.5</ele><time>2026-03-15T08:03:40.000Z</time></trkpt>
<trkpt lat="41.727035" lon="23.519513"><ele>2404.5</ele><time>2026-03-15T08:03:41.000Z</time></trkpt>
<trkpt lat="41.727035" lon="23.519513"><ele>2404.5</ele><time>2026-03-15T08:03:42.000Z</time></trkpt>
<trkpt lat="41.727036" lon="23.519511"><ele>2404.5</ele><time>2026-03-15T08:03:43.000Z</time></trkpt>
<trkpt lat="41.727037" lon="23.519506"><ele>2404.5</ele><time>2026-03-15T08:03:44.000Z</time></trkpt>
<trkpt lat="41.727038" lon="23.519499"><ele>2404.5</ele><time>2026-03-15T08:03:45.000Z</time></trkpt>
<trkpt lat="41.727039" lon="23.519489"><ele>2404.4</ele><time>2026-03-15T08:03:46.000Z</time></trkpt>
<trkpt lat="41.72704" lon="23.519477"><ele>2404.4</ele><time>2026-03-15T08:03:47.000Z</time></trkpt>
<trkpt lat="41.727041" lon="23.519466"><ele>2404.4</ele><time>2026-03-15T08:03:48.000Z</time></trkpt>
<trkpt lat="41.72704" lon="23.519454"><ele>2404.4</ele><time>2026-03-15T08:03:49.000Z</time></trkpt>
<trkpt lat="41.727041" lon="23.519443"><ele>2404.4</ele><time>2026-03-15T08:03:50.000Z</time></trkpt>
<trkpt lat="41.727041" lon="23.519432"><ele>2404.5</ele><time>2026-03-15T08:03:51.000Z</time></trkpt>
<trkpt lat="41.727041" lon="23.519421"><ele>2404.5</ele><time>2026-03-15T08:03:52.000Z</time></trkpt>
<trkpt lat="41.727041" lon="23.51941"><ele>2404.5</ele><time>2026-03-15T08:03:53.000Z</time></trkpt>
<trkpt lat="41.727042" lon="23.5194"><ele>2404.5</ele><time>2026-03-15T08:03:54.000Z</time></trkpt>
<trkpt lat="41.727042" lon="23.51939"><ele>2404.5</ele><time>2026-03-15T08:03:55.000Z</time></trkpt>
<trkpt lat="41.727042" lon="23.51938"><ele>2404.7</ele><time>2026-03-15T08:03:56.000Z</time></trkpt>
<trkpt lat="41.727042" lon="23.51937"><ele>2404.7</ele><time>2026-03-15T08:03:57.000Z</time></trkpt>
<trkpt lat="41.727042" lon="23.519359"><ele>2404.7</ele><time>2026-03-15T08:03:58.000Z</time></trkpt>
<trkpt lat="41.727043" lon="23.519348"><ele>2404.7</ele><time>2026-03-15T08:03:59.000Z</time></trkpt>
<trkpt lat="41.727044" lon="23.519337"><ele>2404.7</ele><time>2026-03-15T08:04:00.000Z</time></trkpt>
<trkpt lat="41.727046" lon="23.519327"><ele>2405.2</ele><time>2026-03-15T08:04:01.000Z</time></trkpt>
<trkpt lat="41.727048" lon="23.519316"><ele>2405.2</ele><time>2026-03-15T08:04:02.000Z</time></trkpt>
<trkpt lat="41.727051" lon="23.519305"><ele>2405.2</ele><time>2026-03-15T08:04:03.000Z</time></trkpt>
<trkpt lat="41.727053" lon="23.519294"><ele>2405.2</ele><time>2026-03-15T08:04:04.000Z</time></trkpt>
<trkpt lat="41.727055" lon="23.519284"><ele>2405.2</ele><time>2026-03-15T08:04:05.000Z</time></trkpt>
<trkpt lat="41.727057" lon="23.519273"><ele>2406.3</ele><time>2026-03-15T08:04:06.000Z</time></trkpt>
<trkpt lat="41.727058" lon="23.519262"><ele>2406.3</ele><time>2026-03-15T08:04:07.000Z</time></trkpt>
<trkpt lat="41.72706" lon="23.519252"><ele>2406.3</ele><time>2026-03-15T08:04:08.000Z</time></trkpt>
<trkpt lat="41.727062" lon="23.519241"><ele>2406.3</ele><time>2026-03-15T08:04:09.000Z</time></trkpt>
<trkpt lat="41.727064" lon="23.51923"><ele>2406.3</ele><time>2026-03-15T08:04:10.000Z</time></trkpt>
<trkpt lat="41.727066" lon="23.51922"><ele>2406.8</ele><time>2026-03-15T08:04:11.000Z</time></trkpt>
<trkpt lat="41.727069" lon="23.51921"><ele>2406.8</ele><time>2026-03-15T08:04:12.000Z</time></trkpt>
<trkpt lat="41.727072" lon="23.519201"><ele>2406.8</ele><time>2026-03-15T08:04:13.000Z</time></trkpt>
<trkpt lat="41.727075" lon="23.519192"><ele>2406.8</ele><time>2026-03-15T08:04:14.000Z</time></trkpt>
<trkpt lat="41.727077" lon="23.519183"><ele>2406.8</ele><time>2026-03-15T08:04:15.000Z</time></trkpt>
<trkpt lat="41.727079" lon="23.519174"><ele>2408</ele><time>2026-03-15T08:04:16.000Z</time></trkpt>
<trkpt lat="41.727082" lon="23.519164"><ele>2408</ele><time>2026-03-15T08:04:17.000Z</time></trkpt>
<trkpt lat="41.727084" lon="23.519155"><ele>2408</ele><time>2026-03-15T08:04:18.000Z</time></trkpt>
<trkpt lat="41.727085" lon="23.519146"><ele>2408</ele><time>2026-03-15T08:04:19.000Z</time></trkpt>
<trkpt lat="41.727087" lon="23.519135"><ele>2408</ele><time>2026-03-15T08:04:20.000Z</time></trkpt>
<trkpt lat="41.727089" lon="23.519124"><ele>2408.9</ele><time>2026-03-15T08:04:21.000Z</time></trkpt>
<trkpt lat="41.72709" lon="23.519114"><ele>2408.9</ele><time>2026-03-15T08:04:22.000Z</time></trkpt>
<trkpt lat="41.727092" lon="23.519104"><ele>2408.9</ele><time>2026-03-15T08:04:23.000Z</time></trkpt>
<trkpt lat="41.727094" lon="23.519095"><ele>2408.9</ele><time>2026-03-15T08:04:24.000Z</time></trkpt>
<trkpt lat="41.727096" lon="23.519087"><ele>2408.9</ele><time>2026-03-15T08:04:25.000Z</time></trkpt>
<trkpt lat="41.727097" lon="23.519078"><ele>2409.4</ele><time>2026-03-15T08:04:26.000Z</time></trkpt>
<trkpt lat="41.727099" lon="23.519069"><ele>2409.4</ele><time>2026-03-15T08:04:27.000Z</time></trkpt>
<trkpt lat="41.727101" lon="23.519059"><ele>2409.4</ele><time>2026-03-15T08:04:28.000Z</time></trkpt>
<trkpt lat="41.727102" lon="23.51905"><ele>2409.4</ele><time>2026-03-15T08:04:29.000Z</time></trkpt>
<trkpt lat="41.727104" lon="23.51904"><ele>2409.4</ele><time>2026-03-15T08:04:30.000Z</time></trkpt>
<trkpt lat="41.727106" lon="23.519029"><ele>2410.2</ele><time>2026-03-15T08:04:31.000Z</time></trkpt>
<trkpt lat="41.727107" lon="23.51902"><ele>2410.2</ele><time>2026-03-15T08:04:32.000Z</time></trkpt>
<trkpt lat="41.727108" lon="23.519009"><ele>2410.2</ele><time>2026-03-15T08:04:33.000Z</time></trkpt>
<trkpt lat="41.72711" lon="23.518997"><ele>2410.2</ele><time>2026-03-15T08:04:34.000Z</time></trkpt>
<trkpt lat="41.727111" lon="23.518985"><ele>2410.2</ele><time>2026-03-15T08:04:35.000Z</time></trkpt>
<trkpt lat="41.727112" lon="23.518974"><ele>2411.2</ele><time>2026-03-15T08:04:36.000Z</time></trkpt>
<trkpt lat="41.727114" lon="23.518962"><ele>2411.2</ele><time>2026-03-15T08:04:37.000Z</time></trkpt>
<trkpt lat="41.727115" lon="23.51895"><ele>2411.2</ele><time>2026-03-15T08:04:38.000Z</time></trkpt>
<trkpt lat="41.727116" lon="23.518939"><ele>2411.2</ele><time>2026-03-15T08:04:39.000Z</time></trkpt>
<trkpt lat="41.727118" lon="23.518929"><ele>2411.2</ele><time>2026-03-15T08:04:40.000Z</time></trkpt>
<trkpt lat="41.72712" lon="23.518918"><ele>2411.7</ele><time>2026-03-15T08:04:41.000Z</time></trkpt>
<trkpt lat="41.727122" lon="23.518908"><ele>2411.7</ele><time>2026-03-15T08:04:42.000Z</time></trkpt>
<trkpt lat="41.727124" lon="23.518898"><ele>2411.7</ele><time>2026-03-15T08:04:43.000Z</time></trkpt>
<trkpt lat="41.727127" lon="23.518888"><ele>2411.7</ele><time>2026-03-15T08:04:44.000Z</time></trkpt>
<trkpt lat="41.727129" lon="23.518878"><ele>2411.7</ele><time>2026-03-15T08:04:45.000Z</time></trkpt>
<trkpt lat="41.727131" lon="23.518869"><ele>2412.8</ele><time>2026-03-15T08:04:46.000Z</time></trkpt>
<trkpt lat="41.727133" lon="23.518859"><ele>2412.8</ele><time>2026-03-15T08:04:47.000Z</time></trkpt>
<trkpt lat="41.727135" lon="23.518848"><ele>2412.8</ele><time>2026-03-15T08:04:48.000Z</time></trkpt>
<trkpt lat="41.727137" lon="23.518838"><ele>2412.8</ele><time>2026-03-15T08:04:49.000Z</time></trkpt>
<trkpt lat="41.727138" lon="23.518829"><ele>2412.8</ele><time>2026-03-15T08:04:50.000Z</time></trkpt>
<trkpt lat="41.727141" lon="23.518818"><ele>2414</ele><time>2026-03-15T08:04:51.000Z</time></trkpt>
<trkpt lat="41.727143" lon="23.518808"><ele>2414</ele><time>2026-03-15T08:04:52.000Z</time></trkpt>
<trkpt lat="41.727146" lon="23.518799"><ele>2414</ele><time>2026-03-15T08:04:53.000Z</time></trkpt>
<trkpt lat="41.727149" lon="23.518788"><ele>2414</ele><time>2026-03-15T08:04:54.000Z</time></trkpt>
<trkpt lat="41.727153" lon="23.518778"><ele>2414</ele><time>2026-03-15T08:04:55.000Z</time></trkpt>
<trkpt lat="41.727156" lon="23.518768"><ele>2414.6</ele><time>2026-03-15T08:04:56.000Z</time></trkpt>
<trkpt lat="41.727158" lon="23.518759"><ele>2414.6</ele><time>2026-03-15T08:04:57.000Z</time></trkpt>
<trkpt lat="41.727161" lon="23.518749"><ele>2414.6</ele><time>2026-03-15T08:04:58.000Z</time></trkpt>
<trkpt lat="41.727163" lon="23.518739"><ele>2414.6</ele><time>2026-03-15T08:04:59.000Z</time></trkpt>
<trkpt lat="41.727165" lon="23.518729"><ele>2414.6</ele><time>2026-03-15T08:05:00.000Z</time></trkpt>
<trkpt lat="41.727167" lon="23.518719"><ele>2415.7</ele><time>2026-03-15T08:05:01.000Z</time></trkpt>
<trkpt lat="41.727168" lon="23.518708"><ele>2415.7</ele><time>2026-03-15T08:05:02.000Z</time></trkpt>
<trkpt lat="41.727169" lon="23.518697"><ele>2415.7</ele><time>2026-03-15T08:05:03.000Z</time></trkpt>
<trkpt lat="41.72717" lon="23.518686"><ele>2415.7</ele><time>2026-03-15T08:05:04.000Z</time></trkpt>
<trkpt lat="41.727171" lon="23.518675"><ele>2415.7</ele><time>2026-03-15T08:05:05.000Z</time></trkpt>
<trkpt lat="41.727173" lon="23.518663"><ele>2416.8</ele><time>2026-03-15T08:05:06.000Z</time></trkpt>
<trkpt lat="41.727174" lon="23.518653"><ele>2416.8</ele><time>2026-03-15T08:05:07.000Z</time></trkpt>
<trkpt lat="41.727177" lon="23.518643"><ele>2416.8</ele><time>2026-03-15T08:05:08.000Z</time></trkpt>
<trkpt lat="41.727179" lon="23.518632"><ele>2416.8</ele><time>2026-03-15T08:05:09.000Z</time></trkpt>
<trkpt lat="41.72718" lon="23.518623"><ele>2416.8</ele><time>2026-03-15T08:05:10.000Z</time></trkpt>
<trkpt lat="41.727182" lon="23.518614"><ele>2417.4</ele><time>2026-03-15T08:05:11.000Z</time></trkpt>
<trkpt lat="41.727184" lon="23.518604"><ele>2417.4</ele><time>2026-03-15T08:05:12.000Z</time></trkpt>
<trkpt lat="41.727185" lon="23.518593"><ele>2417.4</ele><time>2026-03-15T08:05:13.000Z</time></trkpt>
<trkpt lat="41.727187" lon="23.518584"><ele>2417.4</ele><time>2026-03-15T08:05:14.000Z</time></trkpt>
<trkpt lat="41.727189" lon="23.518572"><ele>2417.4</ele><time>2026-03-15T08:05:15.000Z</time></trkpt>
<trkpt lat="41.727192" lon="23.518561"><ele>2418.6</ele><time>2026-03-15T08:05:16.000Z</time></trkpt>
<trkpt lat="41.727195" lon="23.51855"><ele>2418.6</ele><time>2026-03-15T08:05:17.000Z</time></trkpt>
<trkpt lat="41.727199" lon="23.518539"><ele>2418.6</ele><time>2026-03-15T08:05:18.000Z</time></trkpt>
<trkpt lat="41.727202" lon="23.518527"><ele>2418.6</ele><time>2026-03-15T08:05:19.000Z</time></trkpt>
<trkpt lat="41.727206" lon="23.518516"><ele>2418.6</ele><time>2026-03-15T08:05:20.000Z</time></trkpt>
<trkpt lat="41.72721" lon="23.518504"><ele>2419.7</ele><time>2026-03-15T08:05:21.000Z</time></trkpt>
<trkpt lat="41.727214" lon="23.518492"><ele>2419.7</ele><time>2026-03-15T08:05:22.000Z</time></trkpt>
<trkpt lat="41.727217" lon="23.518481"><ele>2419.7</ele><time>2026-03-15T08:05:23.000Z</time></trkpt>
<trkpt lat="41.727221" lon="23.518468"><ele>2419.7</ele><time>2026-03-15T08:05:24.000Z</time></trkpt>
<trkpt lat="41.727224" lon="23.518456"><ele>2419.7</ele><time>2026-03-15T08:05:25.000Z</time></trkpt>
<trkpt lat="41.727227" lon="23.518446"><ele>2420.3</ele><time>2026-03-15T08:05:26.000Z</time></trkpt>
<trkpt lat="41.72723" lon="23.518435"><ele>2420.3</ele><time>2026-03-15T08:05:27.000Z</time></trkpt>
<trkpt lat="41.727233" lon="23.518423"><ele>2420.3</ele><time>2026-03-15T08:05:28.000Z</time></trkpt>
<trkpt lat="41.727235" lon="23.518411"><ele>2420.3</ele><time>2026-03-15T08:05:29.000Z</time></trkpt>
<trkpt lat="41.727237" lon="23.5184"><ele>2420.3</ele><time>2026-03-15T08:05:30.000Z</time></trkpt>
<trkpt lat="41.72724" lon="23.518388"><ele>2421.4</ele><time>2026-03-15T08:05:31.000Z</time></trkpt>
<trkpt lat="41.727242" lon="23.518375"><ele>2421.4</ele><time>2026-03-15T08:05:32.000Z</time></trkpt>
<trkpt lat="41.727246" lon="23.518364"><ele>2421.4</ele><time>2026-03-15T08:05:33.000Z</time></trkpt>
<trkpt lat="41.72725" lon="23.518354"><ele>2421.4</ele><time>2026-03-15T08:05:34.000Z</time></trkpt>
<trkpt lat="41.727254" lon="23.518345"><ele>2421.4</ele><time>2026-03-15T08:05:35.000Z</time></trkpt>
<trkpt lat="41.727257" lon="23.518335"><ele>2422.8</ele><time>2026-03-15T08:05:36.000Z</time></trkpt>
<trkpt lat="41.72726" lon="23.518326"><ele>2422.8</ele><time>2026-03-15T08:05:37.000Z</time></trkpt>
<trkpt lat="41.727261" lon="23.518317"><ele>2422.8</ele><time>2026-03-15T08:05:38.000Z</time></trkpt>
<trkpt lat="41.727264" lon="23.518307"><ele>2422.8</ele><time>2026-03-15T08:05:39.000Z</time></trkpt>
<trkpt lat="41.727266" lon="23.518297"><ele>2422.8</ele><time>2026-03-15T08:05:40.000Z</time></trkpt>
<trkpt lat="41.727269" lon="23.518289"><ele>2423.5</ele><time>2026-03-15T08:05:41.000Z</time></trkpt>
<trkpt lat="41.727273" lon="23.518281"><ele>2423.5</ele><time>2026-03-15T08:05:42.000Z</time></trkpt>
<trkpt lat="41.727278" lon="23.518273"><ele>2423.5</ele><time>2026-03-15T08:05:43.000Z</time></trkpt>
<trkpt lat="41.727283" lon="23.518267"><ele>2423.5</ele><time>2026-03-15T08:05:44.000Z</time></trkpt>
<trkpt lat="41.727288" lon="23.518262"><ele>2423.5</ele><time>2026-03-15T08:05:45.000Z</time></trkpt>
<trkpt lat="41.727293" lon="23.518255"><ele>2425</ele><time>2026-03-15T08:05:46.000Z</time></trkpt>
<trkpt lat="41.727298" lon="23.518248"><ele>2425</ele><time>2026-03-15T08:05:47.000Z</time></trkpt>
<trkpt lat="41.727302" lon="23.51824"><ele>2425</ele><time>2026-03-15T08:05:48.000Z</time></trkpt>
<trkpt lat="41.727305" lon="23.518231"><ele>2425</ele><time>2026-03-15T08:05:49.000Z</time></trkpt>
<trkpt lat="41.727307" lon="23.518221"><ele>2425</ele><time>2026-03-15T08:05:50.000Z</time></trkpt>
<trkpt lat="41.727309" lon="23.51821"><ele>2426.4</ele><time>2026-03-15T08:05:51.000Z</time></trkpt>
<trkpt lat="41.72731" lon="23.5182"><ele>2426.4</ele><time>2026-03-15T08:05:52.000Z</time></trkpt>
<trkpt lat="41.727312" lon="23.518191"><ele>2426.4</ele><time>2026-03-15T08:05:53.000Z</time></trkpt>
<trkpt lat="41.727313" lon="23.518181"><ele>2426.4</ele><time>2026-03-15T08:05:54.000Z</time></trkpt>
<trkpt lat="41.727312" lon="23.518169"><ele>2426.4</ele><time>2026-03-15T08:05:55.000Z</time></trkpt>
<trkpt lat="41.727312" lon="23.518158"><ele>2427.1</ele><time>2026-03-15T08:05:56.000Z</time></trkpt>
<trkpt lat="41.727311" lon="23.518146"><ele>2427.1</ele><time>2026-03-15T08:05:57.000Z</time></trkpt>
<trkpt lat="41.727312" lon="23.518134"><ele>2427.1</ele><time>2026-03-15T08:05:58.000Z</time></trkpt>
<trkpt lat="41.727313" lon="23.518122"><ele>2427.1</ele><time>2026-03-15T08:05:59.000Z</time></trkpt>
<trkpt lat="41.727315" lon="23.518113"><ele>2427.1</ele><time>2026-03-15T08:06:00.000Z</time></trkpt>
<trkpt lat="41.727319" lon="23.518105"><ele>2428.4</ele><time>2026-03-15T08:06:01.000Z</time></trkpt>
<trkpt lat="41.727322" lon="23.518098"><ele>2428.4</ele><time>2026-03-15T08:06:02.000Z</time></trkpt>
<trkpt lat="41.727326" lon="23.518091"><ele>2428.4</ele><time>2026-03-15T08:06:03.000Z</time></trkpt>
<trkpt lat="41.72733" lon="23.518085"><ele>2428.4</ele><time>2026-03-15T08:06:04.000Z</time></trkpt>
<trkpt lat="41.727333" lon="23.518077"><ele>2428.4</ele><time>2026-03-15T08:06:05.000Z</time></trkpt>
<trkpt lat="41.727337" lon="23.518069"><ele>2429.7</ele><time>2026-03-15T08:06:06.000Z</time></trkpt>
<trkpt lat="41.727341" lon="23.518059"><ele>2429.7</ele><time>2026-03-15T08:06:07.000Z</time></trkpt>
<trkpt lat="41.727344" lon="23.518048"><ele>2429.7</ele><time>2026-03-15T08:06:08.000Z</time></trkpt>
<trkpt lat="41.727346" lon="23.518038"><ele>2429.7</ele><time>2026-03-15T08:06:09.000Z</time></trkpt>
<trkpt lat="41.727349" lon="23.518028"><ele>2429.7</ele><time>2026-03-15T08:06:10.000Z</time></trkpt>
<trkpt lat="41.727352" lon="23.518017"><ele>2430.3</ele><time>2026-03-15T08:06:11.000Z</time></trkpt>
<trkpt lat="41.727354" lon="23.518008"><ele>2430.3</ele><time>2026-03-15T08:06:12.000Z</time></trkpt>
<trkpt lat="41.727357" lon="23.517999"><ele>2430.3</ele><time>2026-03-15T08:06:13.000Z</time></trkpt>
<trkpt lat="41.72736" lon="23.517989"><ele>2430.3</ele><time>2026-03-15T08:06:14.000Z</time></trkpt>
<trkpt lat="41.727364" lon="23.517978"><ele>2430.3</ele><time>2026-03-15T08:06:15.000Z</time></trkpt>
<trkpt lat="41.727366" lon="23.517968"><ele>2431.8</ele><time>2026-03-15T08:06:16.000Z</time></trkpt>
<trkpt lat="41.727369" lon="23.517959"><ele>2431.8</ele><time>2026-03-15T08:06:17.000Z</time></trkpt>
<trkpt lat="41.727373" lon="23.517949"><ele>2431.8</ele><time>2026-03-15T08:06:18.000Z</time></trkpt>
<trkpt lat="41.727376" lon="23.51794"><ele>2431.8</ele><time>2026-03-15T08:06:19.000Z</time></trkpt>
<trkpt lat="41.72738" lon="23.517933"><ele>2431.8</ele><time>2026-03-15T08:06:20.000Z</time></trkpt>
<trkpt lat="41.727383" lon="23.517925"><ele>2433.2</ele><time>2026-03-15T08:06:21.000Z</time></trkpt>
<trkpt lat="41.727386" lon="23.517918"><ele>2433.2</ele><time>2026-03-15T08:06:22.000Z</time></trkpt>
<trkpt lat="41.727389" lon="23.51791"><ele>2433.2</ele><time>2026-03-15T08:06:23.000Z</time></trkpt>
<trkpt lat="41.727391" lon="23.517903"><ele>2433.2</ele><time>2026-03-15T08:06:24.000Z</time></trkpt>
<trkpt lat="41.727394" lon="23.517895"><ele>2433.2</ele><time>2026-03-15T08:06:25.000Z</time></trkpt>
<trkpt lat="41.727395" lon="23.517888"><ele>2433.9</ele><time>2026-03-15T08:06:26.000Z</time></trkpt>
<trkpt lat="41.727396" lon="23.517882"><ele>2433.9</ele><time>2026-03-15T08:06:27.000Z</time></trkpt>
<trkpt lat="41.727397" lon="23.517875"><ele>2433.9</ele><time>2026-03-15T08:06:28.000Z</time></trkpt>
<trkpt lat="41.727398" lon="23.517867"><ele>2433.9</ele><time>2026-03-15T08:06:29.000Z</time></trkpt>
<trkpt lat="41.727398" lon="23.517859"><ele>2433.9</ele><time>2026-03-15T08:06:30.000Z</time></trkpt>
<trkpt lat="41.7274" lon="23.517851"><ele>2435.1</ele><time>2026-03-15T08:06:31.000Z</time></trkpt>
<trkpt lat="41.727403" lon="23.517842"><ele>2435.1</ele><time>2026-03-15T08:06:32.000Z</time></trkpt>
<trkpt lat="41.727404" lon="23.517834"><ele>2435.1</ele><time>2026-03-15T08:06:33.000Z</time></trkpt>
<trkpt lat="41.727406" lon="23.517827"><ele>2435.1</ele><time>2026-03-15T08:06:34.000Z</time></trkpt>
<trkpt lat="41.727408" lon="23.517818"><ele>2435.1</ele><time>2026-03-15T08:06:35.000Z</time></trkpt>
<trkpt lat="41.727409" lon="23.517809"><ele>2436.4</ele><time>2026-03-15T08:06:36.000Z</time></trkpt>
<trkpt lat="41.727411" lon="23.517802"><ele>2436.4</ele><time>2026-03-15T08:06:37.000Z</time></trkpt>
<trkpt lat="41.727413" lon="23.517793"><ele>2436.4</ele><time>2026-03-15T08:06:38.000Z</time></trkpt>
<trkpt lat="41.727415" lon="23.517784"><ele>2436.4</ele><time>2026-03-15T08:06:39.000Z</time></trkpt>
<trkpt lat="41.727417" lon="23.517777"><ele>2436.4</ele><time>2026-03-15T08:06:40.000Z</time></trkpt>
<trkpt lat="41.72742" lon="23.517768"><ele>2437</ele><time>2026-03-15T08:06:41.000Z</time></trkpt>
<trkpt lat="41.727422" lon="23.517759"><ele>2437</ele><time>2026-03-15T08:06:42.000Z</time></trkpt>
<trkpt lat="41.727423" lon="23.517751"><ele>2437</ele><time>2026-03-15T08:06:43.000Z</time></trkpt>
<trkpt lat="41.727426" lon="23.517744"><ele>2437</ele><time>2026-03-15T08:06:44.000Z</time></trkpt>
<trkpt lat="41.727428" lon="23.517736"><ele>2437</ele><time>2026-03-15T08:06:45.000Z</time></trkpt>
<trkpt lat="41.727431" lon="23.51773"><ele>2438.3</ele><time>2026-03-15T08:06:46.000Z</time></trkpt>
<trkpt lat="41.727434" lon="23.517724"><ele>2438.3</ele><time>2026-03-15T08:06:47.000Z</time></trkpt>
<trkpt lat="41.727437" lon="23.517717"><ele>2438.3</ele><time>2026-03-15T08:06:48.000Z</time></trkpt>
<trkpt lat="41.727439" lon="23.517711"><ele>2438.3</ele><time>2026-03-15T08:06:49.000Z</time></trkpt>
<trkpt lat="41.727441" lon="23.517704"><ele>2438.3</ele><time>2026-03-15T08:06:50.000Z</time></trkpt>
<trkpt lat="41.727443" lon="23.517697"><ele>2439.4</ele><time>2026-03-15T08:06:51.000Z</time></trkpt>
<trkpt lat="41.727445" lon="23.51769"><ele>2439.4</ele><time>2026-03-15T08:06:52.000Z</time></trkpt>
<trkpt lat="41.727446" lon="23.517683"><ele>2439.4</ele><time>2026-03-15T08:06:53.000Z</time></trkpt>
<trkpt lat="41.727448" lon="23.517676"><ele>2439.4</ele><time>2026-03-15T08:06:54.000Z</time></trkpt>
<trkpt lat="41.72745" lon="23.517669"><ele>2439.4</ele><time>2026-03-15T08:06:55.000Z</time></trkpt>
<trkpt lat="41.727452" lon="23.517663"><ele>2440</ele><time>2026-03-15T08:06:56.000Z</time></trkpt>
<trkpt lat="41.727455" lon="23.517656"><ele>2440</ele><time>2026-03-15T08:06:57.000Z</time></trkpt>
<trkpt lat="41.727458" lon="23.517651"><ele>2440</ele><time>2026-03-15T08:06:58.000Z</time></trkpt>
<trkpt lat="41.727461" lon="23.517646"><ele>2440</ele><time>2026-03-15T08:06:59.000Z</time></trkpt>
<trkpt lat="41.727463" lon="23.51764"><ele>2440</ele><time>2026-03-15T08:07:00.000Z</time></trkpt>
<trkpt lat="41.727467" lon="23.517633"><ele>2441.1</ele><time>2026-03-15T08:07:01.000Z</time></trkpt>
<trkpt lat="41.727469" lon="23.517628"><ele>2441.1</ele><time>2026-03-15T08:07:02.000Z</time></trkpt>
<trkpt lat="41.727471" lon="23.517621"><ele>2441.1</ele><time>2026-03-15T08:07:03.000Z</time></trkpt>
<trkpt lat="41.727472" lon="23.517613"><ele>2441.1</ele><time>2026-03-15T08:07:04.000Z</time></trkpt>
<trkpt lat="41.727473" lon="23.517607"><ele>2441.1</ele><time>2026-03-15T08:07:05.000Z</time></trkpt>
<trkpt lat="41.727474" lon="23.5176"><ele>2442.3</ele><time>2026-03-15T08:07:06.000Z</time></trkpt>
<trkpt lat="41.727476" lon="23.517593"><ele>2442.3</ele><time>2026-03-15T08:07:07.000Z</time></trkpt>
<trkpt lat="41.727478" lon="23.517585"><ele>2442.3</ele><time>2026-03-15T08:07:08.000Z</time></trkpt>
<trkpt lat="41.727482" lon="23.517578"><ele>2442.3</ele><time>2026-03-15T08:07:09.000Z</time></trkpt>
<trkpt lat="41.727485" lon="23.51757"><ele>2442.3</ele><time>2026-03-15T08:07:10.000Z</time></trkpt>
<trkpt lat="41.727488" lon="23.517562"><ele>2442.9</ele><time>2026-03-15T08:07:11.000Z</time></trkpt>
<trkpt lat="41.72749" lon="23.517554"><ele>2442.9</ele><time>2026-03-15T08:07:12.000Z</time></trkpt>
<trkpt lat="41.727493" lon="23.517546"><ele>2442.9</ele><time>2026-03-15T08:07:13.000Z</time></trkpt>
<trkpt lat="41.727496" lon="23.517539"><ele>2442.9</ele><time>2026-03-15T08:07:14.000Z</time></trkpt>
<trkpt lat="41.727499" lon="23.517533"><ele>2442.9</ele><time>2026-03-15T08:07:15.000Z</time></trkpt>
<trkpt lat="41.727502" lon="23.517528"><ele>2444.1</ele><time>2026-03-15T08:07:16.000Z</time></trkpt>
<trkpt lat="41.727505" lon="23.517522"><ele>2444.1</ele><time>2026-03-15T08:07:17.000Z</time></trkpt>
<trkpt lat="41.727506" lon="23.517515"><ele>2444.1</ele><time>2026-03-15T08:07:18.000Z</time></trkpt>
<trkpt lat="41.727508" lon="23.517509"><ele>2444.1</ele><time>2026-03-15T08:07:19.000Z</time></trkpt>
<trkpt lat="41.727509" lon="23.517501"><ele>2444.1</ele><time>2026-03-15T08:07:20.000Z</time></trkpt>
<trkpt lat="41.727511" lon="23.517493"><ele>2445.3</ele><time>2026-03-15T08:07:21.000Z</time></trkpt>
<trkpt lat="41.727513" lon="23.517486"><ele>2445.3</ele><time>2026-03-15T08:07:22.000Z</time></trkpt>
<trkpt lat="41.727514" lon="23.517479"><ele>2445.3</ele><time>2026-03-15T08:07:23.000Z</time></trkpt>
<trkpt lat="41.727516" lon="23.517472"><ele>2445.3</ele><time>2026-03-15T08:07:24.000Z</time></trkpt>
<trkpt lat="41.727517" lon="23.517464"><ele>2445.3</ele><time>2026-03-15T08:07:25.000Z</time></trkpt>
<trkpt lat="41.727518" lon="23.517457"><ele>2445.8</ele><time>2026-03-15T08:07:26.000Z</time></trkpt>
<trkpt lat="41.727519" lon="23.517449"><ele>2445.8</ele><time>2026-03-15T08:07:27.000Z</time></trkpt>
<trkpt lat="41.727519" lon="23.517442"><ele>2445.8</ele><time>2026-03-15T08:07:28.000Z</time></trkpt>
<trkpt lat="41.72752" lon="23.517435"><ele>2445.8</ele><time>2026-03-15T08:07:29.000Z</time></trkpt>
<trkpt lat="41.72752" lon="23.517428"><ele>2445.8</ele><time>2026-03-15T08:07:30.000Z</time></trkpt>
<trkpt lat="41.72752" lon="23.517421"><ele>2447</ele><time>2026-03-15T08:07:31.000Z</time></trkpt>
<trkpt lat="41.72752" lon="23.517415"><ele>2447</ele><time>2026-03-15T08:07:32.000Z</time></trkpt>
<trkpt lat="41.727521" lon="23.517408"><ele>2447</ele><time>2026-03-15T08:07:33.000Z</time></trkpt>
<trkpt lat="41.727521" lon="23.517402"><ele>2447</ele><time>2026-03-15T08:07:34.000Z</time></trkpt>
<trkpt lat="41.727522" lon="23.517397"><ele>2447</ele><time>2026-03-15T08:07:35.000Z</time></trkpt>
<trkpt lat="41.727523" lon="23.517392"><ele>2448.1</ele><time>2026-03-15T08:07:36.000Z</time></trkpt>
<trkpt lat="41.727524" lon="23.517387"><ele>2448.1</ele><time>2026-03-15T08:07:37.000Z</time></trkpt>
<trkpt lat="41.727525" lon="23.517382"><ele>2448.1</ele><time>2026-03-15T08:07:38.000Z</time></trkpt>
<trkpt lat="41.727526" lon="23.517376"><ele>2448.1</ele><time>2026-03-15T08:07:39.000Z</time></trkpt>
<trkpt lat="41.727527" lon="23.517371"><ele>2448.1</ele><time>2026-03-15T08:07:40.000Z</time></trkpt>
<trkpt lat="41.727529" lon="23.517366"><ele>2448.6</ele><time>2026-03-15T08:07:41.000Z</time></trkpt>
<trkpt lat="41.727531" lon="23.517363"><ele>2448.6</ele><time>2026-03-15T08:07:42.000Z</time></trkpt>
<trkpt lat="41.727532" lon="23.517361"><ele>2448.6</ele><time>2026-03-15T08:07:43.000Z</time></trkpt>
<trkpt lat="41.727533" lon="23.517359"><ele>2448.6</ele><time>2026-03-15T08:07:44.000Z</time></trkpt>
<trkpt lat="41.727533" lon="23.517358"><ele>2448.6</ele><time>2026-03-15T08:07:45.000Z</time></trkpt>
<trkpt lat="41.727533" lon="23.517358"><ele>2449.4</ele><time>2026-03-15T08:07:46.000Z</time></trkpt>
<trkpt lat="41.727534" lon="23.517356"><ele>2449.4</ele><time>2026-03-15T08:07:47.000Z</time></trkpt>
<trkpt lat="41.727534" lon="23.517355"><ele>2449.4</ele><time>2026-03-15T08:07:48.000Z</time></trkpt>
<trkpt lat="41.727534" lon="23.517355"><ele>2449.4</ele><time>2026-03-15T08:07:49.000Z</time></trkpt>
<trkpt lat="41.727534" lon="23.517354"><ele>2449.4</ele><time>2026-03-15T08:07:50.000Z</time></trkpt>
<trkpt lat="41.727534" lon="23.517354"><ele>2450.1</ele><time>2026-03-15T08:07:51.000Z</time></trkpt>
<trkpt lat="41.727534" lon="23.517354"><ele>2450.1</ele><time>2026-03-15T08:07:52.000Z</time></trkpt>
<trkpt lat="41.727534" lon="23.517354"><ele>2450.1</ele><time>2026-03-15T08:07:53.000Z</time></trkpt>
<trkpt lat="41.727534" lon="23.517354"><ele>2450.1</ele><time>2026-03-15T08:07:54.000Z</time></trkpt>
<trkpt lat="41.727534" lon="23.517354"><ele>2450.1</ele><time>2026-03-15T08:07:55.000Z</time></trkpt>
<trkpt lat="41.727534" lon="23.517354"><ele>2450.4</ele><time>2026-03-15T08:07:56.000Z</time></trkpt>
<trkpt lat="41.727534" lon="23.517354"><ele>2450.4</ele><time>2026-03-15T08:07:57.000Z</time></trkpt>
<trkpt lat="41.727535" lon="23.517355"><ele>2450.4</ele><time>2026-03-15T08:07:58.000Z</time></trkpt>
<trkpt lat="41.727535" lon="23.517355"><ele>2450.4</ele><time>2026-03-15T08:07:59.000Z</time></trkpt>
<trkpt lat="41.727535" lon="23.517356"><ele>2450.4</ele><time>2026-03-15T08:08:00.000Z</time></trkpt>
<trkpt lat="41.727535" lon="23.517357"><ele>2450.8</ele><time>2026-03-15T08:08:01.000Z</time></trkpt>
<trkpt lat="41.727535" lon="23.517357"><ele>2450.8</ele><time>2026-03-15T08:08:02.000Z</time></trkpt>
<trkpt lat="41.727534" lon="23.517356"><ele>2450.8</ele><time>2026-03-15T08:08:03.000Z</time></trkpt>
<trkpt lat="41.727534" lon="23.517356"><ele>2450.8</ele><time>2026-03-15T08:08:04.000Z</time></trkpt>
<trkpt lat="41.727534" lon="23.517356"><ele>2450.8</ele><time>2026-03-15T08:08:05.000Z</time></trkpt>
<trkpt lat="41.727534" lon="23.517355"><ele>2450.9</ele><time>2026-03-15T08:08:06.000Z</time></trkpt>
<trkpt lat="41.727534" lon="23.517355"><ele>2450.9</ele><time>2026-03-15T08:08:07.000Z</time></trkpt>
<trkpt lat="41.727534" lon="23.517355"><ele>2450.9</ele><time>2026-03-15T08:08:08.000Z</time></trkpt>
<trkpt lat="41.727533" lon="23.517355"><ele>2450.9</ele><time>2026-03-15T08:08:09.000Z</time></trkpt>
<trkpt lat="41.727533" lon="23.517354"><ele>2450.9</ele><time>2026-03-15T08:08:10.000Z</time></trkpt>
<trkpt lat="41.727532" lon="23.517354"><ele>2450.8</ele><time>2026-03-15T08:08:11.000Z</time></trkpt>
<trkpt lat="41.727532" lon="23.517353"><ele>2450.8</ele><time>2026-03-15T08:08:12.000Z</time></trkpt>
<trkpt lat="41.727531" lon="23.517353"><ele>2450.8</ele><time>2026-03-15T08:08:13.000Z</time></trkpt>
<trkpt lat="41.727531" lon="23.517353"><ele>2450.8</ele><time>2026-03-15T08:08:14.000Z</time></trkpt>
<trkpt lat="41.727531" lon="23.517353"><ele>2450.8</ele><time>2026-03-15T08:08:15.000Z</time></trkpt>
<trkpt lat="41.727531" lon="23.517353"><ele>2450.8</ele><time>2026-03-15T08:08:16.000Z</time></trkpt>
<trkpt lat="41.727531" lon="23.517353"><ele>2450.8</ele><time>2026-03-15T08:08:17.000Z</time></trkpt>
<trkpt lat="41.727531" lon="23.517353"><ele>2450.8</ele><time>2026-03-15T08:08:18.000Z</time></trkpt>
<trkpt lat="41.727531" lon="23.517353"><ele>2450.8</ele><time>2026-03-15T08:08:19.000Z</time></trkpt>
<trkpt lat="41.727531" lon="23.517353"><ele>2450.8</ele><time>2026-03-15T08:08:20.000Z</time></trkpt>
<trkpt lat="41.72753" lon="23.517354"><ele>2450.7</ele><time>2026-03-15T08:08:21.000Z</time></trkpt>
<trkpt lat="41.72753" lon="23.517354"><ele>2450.7</ele><time>2026-03-15T08:08:22.000Z</time></trkpt>
<trkpt lat="41.72753" lon="23.517353"><ele>2450.7</ele><time>2026-03-15T08:08:23.000Z</time></trkpt>
<trkpt lat="41.72753" lon="23.517353"><ele>2450.7</ele><time>2026-03-15T08:08:24.000Z</time></trkpt>
<trkpt lat="41.72753" lon="23.517353"><ele>2450.7</ele><time>2026-03-15T08:08:25.000Z</time></trkpt>
<trkpt lat="41.72753" lon="23.517353"><ele>2450.7</ele><time>2026-03-15T08:08:26.000Z</time></trkpt>
<trkpt lat="41.72753" lon="23.517353"><ele>2450.7</ele><time>2026-03-15T08:08:27.000Z</time></trkpt>
<trkpt lat="41.727531" lon="23.517354"><ele>2450.7</ele><time>2026-03-15T08:08:28.000Z</time></trkpt>
<trkpt lat="41.727531" lon="23.517354"><ele>2450.7</ele><time>2026-03-15T08:08:29.000Z</time></trkpt>
<trkpt lat="41.727531" lon="23.517354"><ele>2450.7</ele><time>2026-03-15T08:08:30.000Z</time></trkpt>
<trkpt lat="41.727531" lon="23.517354"><ele>2450.7</ele><time>2026-03-15T08:08:31.000Z</time></trkpt>
<trkpt lat="41.727531" lon="23.517354"><ele>2450.7</ele><time>2026-03-15T08:08:32.000Z</time></trkpt>
<trkpt lat="41.727531" lon="23.517354"><ele>2450.7</ele><time>2026-03-15T08:08:33.000Z</time></trkpt>
<trkpt lat="41.727532" lon="23.517353"><ele>2450.7</ele><time>2026-03-15T08:08:34.000Z</time></trkpt>
<trkpt lat="41.727532" lon="23.517353"><ele>2450.7</ele><time>2026-03-15T08:08:35.000Z</time></trkpt>
<trkpt lat="41.727533" lon="23.517353"><ele>2450.9</ele><time>2026-03-15T08:08:36.000Z</time></trkpt>
<trkpt lat="41.727533" lon="23.517352"><ele>2450.9</ele><time>2026-03-15T08:08:37.000Z</time></trkpt>
<trkpt lat="41.727533" lon="23.517352"><ele>2450.9</ele><time>2026-03-15T08:08:38.000Z</time></trkpt>
<trkpt lat="41.727534" lon="23.517351"><ele>2450.9</ele><time>2026-03-15T08:08:39.000Z</time></trkpt>
<trkpt lat="41.727535" lon="23.517348"><ele>2450.9</ele><time>2026-03-15T08:08:40.000Z</time></trkpt>
<trkpt lat="41.727537" lon="23.517343"><ele>2450.9</ele><time>2026-03-15T08:08:41.000Z</time></trkpt>
<trkpt lat="41.727539" lon="23.517337"><ele>2450.9</ele><time>2026-03-15T08:08:42.000Z</time></trkpt>
<trkpt lat="41.727542" lon="23.517328"><ele>2450.9</ele><time>2026-03-15T08:08:43.000Z</time></trkpt>
<trkpt lat="41.727545" lon="23.517319"><ele>2450.9</ele><time>2026-03-15T08:08:44.000Z</time></trkpt>
<trkpt lat="41.727547" lon="23.517311"><ele>2450.9</ele><time>2026-03-15T08:08:45.000Z</time></trkpt>
<trkpt lat="41.727551" lon="23.517301"><ele>2451</ele><time>2026-03-15T08:08:46.000Z</time></trkpt>
<trkpt lat="41.727553" lon="23.517292"><ele>2451</ele><time>2026-03-15T08:08:47.000Z</time></trkpt>
<trkpt lat="41.727555" lon="23.517284"><ele>2451</ele><time>2026-03-15T08:08:48.000Z</time></trkpt>
<trkpt lat="41.727557" lon="23.517275"><ele>2451</ele><time>2026-03-15T08:08:49.000Z</time></trkpt>
<trkpt lat="41.727559" lon="23.517267"><ele>2451</ele><time>2026-03-15T08:08:50.000Z</time></trkpt>
<trkpt lat="41.727561" lon="23.517258"><ele>2451.2</ele><time>2026-03-15T08:08:51.000Z</time></trkpt>
<trkpt lat="41.727563" lon="23.517249"><ele>2451.2</ele><time>2026-03-15T08:08:52.000Z</time></trkpt>
<trkpt lat="41.727566" lon="23.51724"><ele>2451.2</ele><time>2026-03-15T08:08:53.000Z</time></trkpt>
<trkpt lat="41.727568" lon="23.517232"><ele>2451.2</ele><time>2026-03-15T08:08:54.000Z</time></trkpt>
<trkpt lat="41.727571" lon="23.517225"><ele>2451.2</ele><time>2026-03-15T08:08:55.000Z</time></trkpt>
<trkpt lat="41.727574" lon="23.517216"><ele>2451.5</ele><time>2026-03-15T08:08:56.000Z</time></trkpt>
<trkpt lat="41.727576" lon="23.517208"><ele>2451.5</ele><time>2026-03-15T08:08:57.000Z</time></trkpt>
<trkpt lat="41.727579" lon="23.5172"><ele>2451.5</ele><time>2026-03-15T08:08:58.000Z</time></trkpt>
<trkpt lat="41.727582" lon="23.51719"><ele>2451.5</ele><time>2026-03-15T08:08:59.000Z</time></trkpt>
<trkpt lat="41.727585" lon="23.517181"><ele>2451.5</ele><time>2026-03-15T08:09:00.000Z</time></trkpt>
<trkpt lat="41.727587" lon="23.517174"><ele>2452.4</ele><time>2026-03-15T08:09:01.000Z</time></trkpt>
<trkpt lat="41.727589" lon="23.517166"><ele>2452.4</ele><time>2026-03-15T08:09:02.000Z</time></trkpt>
<trkpt lat="41.727591" lon="23.517158"><ele>2452.4</ele><time>2026-03-15T08:09:03.000Z</time></trkpt>
<trkpt lat="41.727592" lon="23.517152"><ele>2452.4</ele><time>2026-03-15T08:09:04.000Z</time></trkpt>
<trkpt lat="41.727595" lon="23.517145"><ele>2452.4</ele><time>2026-03-15T08:09:05.000Z</time></trkpt>
<trkpt lat="41.727597" lon="23.517139"><ele>2453.6</ele><time>2026-03-15T08:09:06.000Z</time></trkpt>
<trkpt lat="41.7276" lon="23.517133"><ele>2453.6</ele><time>2026-03-15T08:09:07.000Z</time></trkpt>
<trkpt lat="41.727603" lon="23.517125"><ele>2453.6</ele><time>2026-03-15T08:09:08.000Z</time></trkpt>
<trkpt lat="41.727607" lon="23.517118"><ele>2453.6</ele><time>2026-03-15T08:09:09.000Z</time></trkpt>
<trkpt lat="41.72761" lon="23.517111"><ele>2453.6</ele><time>2026-03-15T08:09:10.000Z</time></trkpt>
<trkpt lat="41.727614" lon="23.517103"><ele>2454.2</ele><time>2026-03-15T08:09:11.000Z</time></trkpt>
<trkpt lat="41.727618" lon="23.517095"><ele>2454.2</ele><time>2026-03-15T08:09:12.000Z</time></trkpt>
<trkpt lat="41.727622" lon="23.517089"><ele>2454.2</ele><time>2026-03-15T08:09:13.000Z</time></trkpt>
<trkpt lat="41.727627" lon="23.517081"><ele>2454.2</ele><time>2026-03-15T08:09:14.000Z</time></trkpt>
<trkpt lat="41.727631" lon="23.517075"><ele>2454.2</ele><time>2026-03-15T08:09:15.000Z</time></trkpt>
<trkpt lat="41.727636" lon="23.517068"><ele>2455.4</ele><time>2026-03-15T08:09:16.000Z</time></trkpt>
<trkpt lat="41.72764" lon="23.517061"><ele>2455.4</ele><time>2026-03-15T08:09:17.000Z</time></trkpt>
<trkpt lat="41.727644" lon="23.517054"><ele>2455.4</ele><time>2026-03-15T08:09:18.000Z</time></trkpt>
<trkpt lat="41.727647" lon="23.517048"><ele>2455.4</ele><time>2026-03-15T08:09:19.000Z</time></trkpt>
<trkpt lat="41.727651" lon="23.51704"><ele>2455.4</ele><time>2026-03-15T08:09:20.000Z</time></trkpt>
<trkpt lat="41.727654" lon="23.517033"><ele>2456.6</ele><time>2026-03-15T08:09:21.000Z</time></trkpt>
<trkpt lat="41.727656" lon="23.517025"><ele>2456.6</ele><time>2026-03-15T08:09:22.000Z</time></trkpt>
<trkpt lat="41.727657" lon="23.517016"><ele>2456.6</ele><time>2026-03-15T08:09:23.000Z</time></trkpt>
<trkpt lat="41.727659" lon="23.517008"><ele>2456.6</ele><time>2026-03-15T08:09:24.000Z</time></trkpt>
<trkpt lat="41.72766" lon="23.516999"><ele>2456.6</ele><time>2026-03-15T08:09:25.000Z</time></trkpt>
<trkpt lat="41.727662" lon="23.51699"><ele>2457.2</ele><time>2026-03-15T08:09:26.000Z</time></trkpt>
<trkpt lat="41.727665" lon="23.516982"><ele>2457.2</ele><time>2026-03-15T08:09:27.000Z</time></trkpt>
<trkpt lat="41.727668" lon="23.516974"><ele>2457.2</ele><time>2026-03-15T08:09:28.000Z</time></trkpt>
<trkpt lat="41.727671" lon="23.516966"><ele>2457.2</ele><time>2026-03-15T08:09:29.000Z</time></trkpt>
<trkpt lat="41.727673" lon="23.51696"><ele>2457.2</ele><time>2026-03-15T08:09:30.000Z</time></trkpt>
<trkpt lat="41.727676" lon="23.516952"><ele>2458.3</ele><time>2026-03-15T08:09:31.000Z</time></trkpt>
<trkpt lat="41.727678" lon="23.516945"><ele>2458.3</ele><time>2026-03-15T08:09:32.000Z</time></trkpt>
<trkpt lat="41.72768" lon="23.516938"><ele>2458.3</ele><time>2026-03-15T08:09:33.000Z</time></trkpt>
<trkpt lat="41.727682" lon="23.51693"><ele>2458.3</ele><time>2026-03-15T08:09:34.000Z</time></trkpt>
<trkpt lat="41.727683" lon="23.516923"><ele>2458.3</ele><time>2026-03-15T08:09:35.000Z</time></trkpt>
<trkpt lat="41.727684" lon="23.516916"><ele>2459.5</ele><time>2026-03-15T08:09:36.000Z</time></trkpt>
<trkpt lat="41.727685" lon="23.516908"><ele>2459.5</ele><time>2026-03-15T08:09:37.000Z</time></trkpt>
<trkpt lat="41.727686" lon="23.5169"><ele>2459.5</ele><time>2026-03-15T08:09:38.000Z</time></trkpt>
<trkpt lat="41.727686" lon="23.516892"><ele>2459.5</ele><time>2026-03-15T08:09:39.000Z</time></trkpt>
<trkpt lat="41.727686" lon="23.516884"><ele>2459.5</ele><time>2026-03-15T08:09:40.000Z</time></trkpt>
<trkpt lat="41.727686" lon="23.516877"><ele>2460</ele><time>2026-03-15T08:09:41.000Z</time></trkpt>
<trkpt lat="41.727687" lon="23.516869"><ele>2460</ele><time>2026-03-15T08:09:42.000Z</time></trkpt>
<trkpt lat="41.727687" lon="23.516862"><ele>2460</ele><time>2026-03-15T08:09:43.000Z</time></trkpt>
<trkpt lat="41.727688" lon="23.516856"><ele>2460</ele><time>2026-03-15T08:09:44.000Z</time></trkpt>
<trkpt lat="41.72769" lon="23.51685"><ele>2460</ele><time>2026-03-15T08:09:45.000Z</time></trkpt>
<trkpt lat="41.727692" lon="23.516844"><ele>2461.1</ele><time>2026-03-15T08:09:46.000Z</time></trkpt>
<trkpt lat="41.727693" lon="23.516838"><ele>2461.1</ele><time>2026-03-15T08:09:47.000Z</time></trkpt>
<trkpt lat="41.727694" lon="23.516832"><ele>2461.1</ele><time>2026-03-15T08:09:48.000Z</time></trkpt>
<trkpt lat="41.727696" lon="23.516825"><ele>2461.1</ele><time>2026-03-15T08:09:49.000Z</time></trkpt>
<trkpt lat="41.727698" lon="23.516818"><ele>2461.1</ele><time>2026-03-15T08:09:50.000Z</time></trkpt>
<trkpt lat="41.7277" lon="23.51681"><ele>2462.1</ele><time>2026-03-15T08:09:51.000Z</time></trkpt>
<trkpt lat="41.727701" lon="23.516803"><ele>2462.1</ele><time>2026-03-15T08:09:52.000Z</time></trkpt>
<trkpt lat="41.727702" lon="23.516795"><ele>2462.1</ele><time>2026-03-15T08:09:53.000Z</time></trkpt>
<trkpt lat="41.727704" lon="23.516788"><ele>2462.1</ele><time>2026-03-15T08:09:54.000Z</time></trkpt>
<trkpt lat="41.727705" lon="23.516781"><ele>2462.1</ele><time>2026-03-15T08:09:55.000Z</time></trkpt>
<trkpt lat="41.727707" lon="23.516774"><ele>2462.6</ele><time>2026-03-15T08:09:56.000Z</time></trkpt>
<trkpt lat="41.72771" lon="23.516768"><ele>2462.6</ele><time>2026-03-15T08:09:57.000Z</time></trkpt>
<trkpt lat="41.727713" lon="23.516762"><ele>2462.6</ele><time>2026-03-15T08:09:58.000Z</time></trkpt>
<trkpt lat="41.727716" lon="23.516756"><ele>2462.6</ele><time>2026-03-15T08:09:59.000Z</time></trkpt>
<trkpt lat="41.727718" lon="23.51675"><ele>2462.6</ele><time>2026-03-15T08:10:00.000Z</time></trkpt>
<trkpt lat="41.72772" lon="23.516743"><ele>2463.6</ele><time>2026-03-15T08:10:01.000Z</time></trkpt>
<trkpt lat="41.727723" lon="23.516736"><ele>2463.6</ele><time>2026-03-15T08:10:02.000Z</time></trkpt>
<trkpt lat="41.727726" lon="23.51673"><ele>2463.6</ele><time>2026-03-15T08:10:03.000Z</time></trkpt>
<trkpt lat="41.727729" lon="23.516724"><ele>2463.6</ele><time>2026-03-15T08:10:04.000Z</time></trkpt>
<trkpt lat="41.727733" lon="23.516718"><ele>2463.6</ele><time>2026-03-15T08:10:05.000Z</time></trkpt>
<trkpt lat="41.727737" lon="23.516714"><ele>2464.7</ele><time>2026-03-15T08:10:06.000Z</time></trkpt>
<trkpt lat="41.72774" lon="23.516708"><ele>2464.7</ele><time>2026-03-15T08:10:07.000Z</time></trkpt>
<trkpt lat="41.727743" lon="23.516704"><ele>2464.7</ele><time>2026-03-15T08:10:08.000Z</time></trkpt>
<trkpt lat="41.727746" lon="23.516699"><ele>2464.7</ele><time>2026-03-15T08:10:09.000Z</time></trkpt>
<trkpt lat="41.727749" lon="23.516694"><ele>2464.7</ele><time>2026-03-15T08:10:10.000Z</time></trkpt>
<trkpt lat="41.727752" lon="23.516688"><ele>2465.3</ele><time>2026-03-15T08:10:11.000Z</time></trkpt>
<trkpt lat="41.727755" lon="23.516682"><ele>2465.3</ele><time>2026-03-15T08:10:12.000Z</time></trkpt>
<trkpt lat="41.727758" lon="23.516675"><ele>2465.3</ele><time>2026-03-15T08:10:13.000Z</time></trkpt>
<trkpt lat="41.727761" lon="23.516669"><ele>2465.3</ele><time>2026-03-15T08:10:14.000Z</time></trkpt>
<trkpt lat="41.727764" lon="23.516663"><ele>2465.3</ele><time>2026-03-15T08:10:15.000Z</time></trkpt>
<trkpt lat="41.727766" lon="23.516657"><ele>2466.4</ele><time>2026-03-15T08:10:16.000Z</time></trkpt>
<trkpt lat="41.727769" lon="23.516651"><ele>2466.4</ele><time>2026-03-15T08:10:17.000Z</time></trkpt>
<trkpt lat="41.72777" lon="23.516645"><ele>2466.4</ele><time>2026-03-15T08:10:18.000Z</time></trkpt>
<trkpt lat="41.727772" lon="23.516639"><ele>2466.4</ele><time>2026-03-15T08:10:19.000Z</time></trkpt>
<trkpt lat="41.727773" lon="23.516633"><ele>2466.4</ele><time>2026-03-15T08:10:20.000Z</time></trkpt>
<trkpt lat="41.727775" lon="23.516627"><ele>2467.6</ele><time>2026-03-15T08:10:21.000Z</time></trkpt>
<trkpt lat="41.727776" lon="23.516622"><ele>2467.6</ele><time>2026-03-15T08:10:22.000Z</time></trkpt>
<trkpt lat="41.727778" lon="23.516617"><ele>2467.6</ele><time>2026-03-15T08:10:23.000Z</time></trkpt>
<trkpt lat="41.727779" lon="23.516613"><ele>2467.6</ele><time>2026-03-15T08:10:24.000Z</time></trkpt>
<trkpt lat="41.727782" lon="23.516608"><ele>2467.6</ele><time>2026-03-15T08:10:25.000Z</time></trkpt>
<trkpt lat="41.727785" lon="23.516601"><ele>2468.2</ele><time>2026-03-15T08:10:26.000Z</time></trkpt>
<trkpt lat="41.727788" lon="23.516594"><ele>2468.2</ele><time>2026-03-15T08:10:27.000Z</time></trkpt>
<trkpt lat="41.727791" lon="23.516587"><ele>2468.2</ele><time>2026-03-15T08:10:28.000Z</time></trkpt>
<trkpt lat="41.727794" lon="23.51658"><ele>2468.2</ele><time>2026-03-15T08:10:29.000Z</time></trkpt>
<trkpt lat="41.727796" lon="23.516573"><ele>2468.2</ele><time>2026-03-15T08:10:30.000Z</time></trkpt>
<trkpt lat="41.727797" lon="23.516566"><ele>2469.2</ele><time>2026-03-15T08:10:31.000Z</time></trkpt>
<trkpt lat="41.727799" lon="23.516559"><ele>2469.2</ele><time>2026-03-15T08:10:32.000Z</time></trkpt>
<trkpt lat="41.727802" lon="23.516552"><ele>2469.2</ele><time>2026-03-15T08:10:33.000Z</time></trkpt>
<trkpt lat="41.727805" lon="23.516546"><ele>2469.2</ele><time>2026-03-15T08:10:34.000Z</time></trkpt>
<trkpt lat="41.727807" lon="23.51654"><ele>2469.2</ele><time>2026-03-15T08:10:35.000Z</time></trkpt>
<trkpt lat="41.72781" lon="23.516533"><ele>2470.3</ele><time>2026-03-15T08:10:36.000Z</time></trkpt>
<trkpt lat="41.727812" lon="23.516528"><ele>2470.3</ele><time>2026-03-15T08:10:37.000Z</time></trkpt>
<trkpt lat="41.727815" lon="23.516521"><ele>2470.3</ele><time>2026-03-15T08:10:38.000Z</time></trkpt>
<trkpt lat="41.727817" lon="23.516516"><ele>2470.3</ele><time>2026-03-15T08:10:39.000Z</time></trkpt>
<trkpt lat="41.72782" lon="23.51651"><ele>2470.3</ele><time>2026-03-15T08:10:40.000Z</time></trkpt>
<trkpt lat="41.727824" lon="23.516504"><ele>2470.9</ele><time>2026-03-15T08:10:41.000Z</time></trkpt>
<trkpt lat="41.727828" lon="23.5165"><ele>2470.9</ele><time>2026-03-15T08:10:42.000Z</time></trkpt>
<trkpt lat="41.727833" lon="23.516495"><ele>2470.9</ele><time>2026-03-15T08:10:43.000Z</time></trkpt>
<trkpt lat="41.727838" lon="23.51649"><ele>2470.9</ele><time>2026-03-15T08:10:44.000Z</time></trkpt>
<trkpt lat="41.727842" lon="23.516485"><ele>2470.9</ele><time>2026-03-15T08:10:45.000Z</time></trkpt>
<trkpt lat="41.727846" lon="23.516481"><ele>2472.1</ele><time>2026-03-15T08:10:46.000Z</time></trkpt>
<trkpt lat="41.727849" lon="23.516476"><ele>2472.1</ele><time>2026-03-15T08:10:47.000Z</time></trkpt>
<trkpt lat="41.727852" lon="23.51647"><ele>2472.1</ele><time>2026-03-15T08:10:48.000Z</time></trkpt>
<trkpt lat="41.727854" lon="23.516465"><ele>2472.1</ele><time>2026-03-15T08:10:49.000Z</time></trkpt>
<trkpt lat="41.727856" lon="23.51646"><ele>2472.1</ele><time>2026-03-15T08:10:50.000Z</time></trkpt>
<trkpt lat="41.727857" lon="23.516454"><ele>2473.1</ele><time>2026-03-15T08:10:51.000Z</time></trkpt>
<trkpt lat="41.72786" lon="23.516448"><ele>2473.1</ele><time>2026-03-15T08:10:52.000Z</time></trkpt>
<trkpt lat="41.727861" lon="23.516443"><ele>2473.1</ele><time>2026-03-15T08:10:53.000Z</time></trkpt>
<trkpt lat="41.727864" lon="23.516437"><ele>2473.1</ele><time>2026-03-15T08:10:54.000Z</time></trkpt>
<trkpt lat="41.727866" lon="23.516432"><ele>2473.1</ele><time>2026-03-15T08:10:55.000Z</time></trkpt>
<trkpt lat="41.727868" lon="23.516427"><ele>2473.6</ele><time>2026-03-15T08:10:56.000Z</time></trkpt>
<trkpt lat="41.727871" lon="23.516422"><ele>2473.6</ele><time>2026-03-15T08:10:57.000Z</time></trkpt>
<trkpt lat="41.727873" lon="23.516417"><ele>2473.6</ele><time>2026-03-15T08:10:58.000Z</time></trkpt>
<trkpt lat="41.727876" lon="23.516411"><ele>2473.6</ele><time>2026-03-15T08:10:59.000Z</time></trkpt>
<trkpt lat="41.727879" lon="23.516406"><ele>2473.6</ele><time>2026-03-15T08:11:00.000Z</time></trkpt>
<trkpt lat="41.727881" lon="23.516401"><ele>2474.5</ele><time>2026-03-15T08:11:01.000Z</time></trkpt>
<trkpt lat="41.727884" lon="23.516395"><ele>2474.5</ele><time>2026-03-15T08:11:02.000Z</time></trkpt>
<trkpt lat="41.727887" lon="23.516391"><ele>2474.5</ele><time>2026-03-15T08:11:03.000Z</time></trkpt>
<trkpt lat="41.727889" lon="23.516387"><ele>2474.5</ele><time>2026-03-15T08:11:04.000Z</time></trkpt>
<trkpt lat="41.727892" lon="23.516382"><ele>2474.5</ele><time>2026-03-15T08:11:05.000Z</time></trkpt>
<trkpt lat="41.727895" lon="23.516377"><ele>2475.4</ele><time>2026-03-15T08:11:06.000Z</time></trkpt>
<trkpt lat="41.727897" lon="23.516373"><ele>2475.4</ele><time>2026-03-15T08:11:07.000Z</time></trkpt>
<trkpt lat="41.727899" lon="23.516367"><ele>2475.4</ele><time>2026-03-15T08:11:08.000Z</time></trkpt>
<trkpt lat="41.727901" lon="23.516362"><ele>2475.4</ele><time>2026-03-15T08:11:09.000Z</time></trkpt>
<trkpt lat="41.727903" lon="23.516355"><ele>2475.4</ele><time>2026-03-15T08:11:10.000Z</time></trkpt>
<trkpt lat="41.727904" lon="23.51635"><ele>2475.9</ele><time>2026-03-15T08:11:11.000Z</time></trkpt>
<trkpt lat="41.727906" lon="23.516344"><ele>2475.9</ele><time>2026-03-15T08:11:12.000Z</time></trkpt>
<trkpt lat="41.727908" lon="23.516339"><ele>2475.9</ele><time>2026-03-15T08:11:13.000Z</time></trkpt>
<trkpt lat="41.72791" lon="23.516334"><ele>2475.9</ele><time>2026-03-15T08:11:14.000Z</time></trkpt>
<trkpt lat="41.727912" lon="23.51633"><ele>2475.9</ele><time>2026-03-15T08:11:15.000Z</time></trkpt>
<trkpt lat="41.727914" lon="23.516326"><ele>2476.9</ele><time>2026-03-15T08:11:16.000Z</time></trkpt>
<trkpt lat="41.727916" lon="23.516321"><ele>2476.9</ele><time>2026-03-15T08:11:17.000Z</time></trkpt>
<trkpt lat="41.727917" lon="23.516317"><ele>2476.9</ele><time>2026-03-15T08:11:18.000Z</time></trkpt>
<trkpt lat="41.72792" lon="23.516311"><ele>2476.9</ele><time>2026-03-15T08:11:19.000Z</time></trkpt>
<trkpt lat="41.727921" lon="23.516307"><ele>2476.9</ele><time>2026-03-15T08:11:20.000Z</time></trkpt>
<trkpt lat="41.727923" lon="23.516303"><ele>2478</ele><time>2026-03-15T08:11:21.000Z</time></trkpt>
<trkpt lat="41.727925" lon="23.516299"><ele>2478</ele><time>2026-03-15T08:11:22.000Z</time></trkpt>
<trkpt lat="41.727929" lon="23.516295"><ele>2478</ele><time>2026-03-15T08:11:23.000Z</time></trkpt>
<trkpt lat="41.727932" lon="23.516292"><ele>2478</ele><time>2026-03-15T08:11:24.000Z</time></trkpt>
<trkpt lat="41.727936" lon="23.516288"><ele>2478</ele><time>2026-03-15T08:11:25.000Z</time></trkpt>
<trkpt lat="41.727939" lon="23.516285"><ele>2478.5</ele><time>2026-03-15T08:11:26.000Z</time></trkpt>
<trkpt lat="41.727943" lon="23.51628"><ele>2478.5</ele><time>2026-03-15T08:11:27.000Z</time></trkpt>
<trkpt lat="41.727945" lon="23.516276"><ele>2478.5</ele><time>2026-03-15T08:11:28.000Z</time></trkpt>
<trkpt lat="41.727947" lon="23.516271"><ele>2478.5</ele><time>2026-03-15T08:11:29.000Z</time></trkpt>
<trkpt lat="41.727948" lon="23.516267"><ele>2478.5</ele><time>2026-03-15T08:11:30.000Z</time></trkpt>
<trkpt lat="41.727949" lon="23.516263"><ele>2479.3</ele><time>2026-03-15T08:11:31.000Z</time></trkpt>
<trkpt lat="41.72795" lon="23.516259"><ele>2479.3</ele><time>2026-03-15T08:11:32.000Z</time></trkpt>
<trkpt lat="41.72795" lon="23.516255"><ele>2479.3</ele><time>2026-03-15T08:11:33.000Z</time></trkpt>
<trkpt lat="41.727951" lon="23.516251"><ele>2479.3</ele><time>2026-03-15T08:11:34.000Z</time></trkpt>
<trkpt lat="41.727953" lon="23.516247"><ele>2479.3</ele><time>2026-03-15T08:11:35.000Z</time></trkpt>
<trkpt lat="41.727956" lon="23.516242"><ele>2480.2</ele><time>2026-03-15T08:11:36.000Z</time></trkpt>
<trkpt lat="41.72796" lon="23.516237"><ele>2480.2</ele><time>2026-03-15T08:11:37.000Z</time></trkpt>
<trkpt lat="41.727963" lon="23.516234"><ele>2480.2</ele><time>2026-03-15T08:11:38.000Z</time></trkpt>
<trkpt lat="41.727967" lon="23.516229"><ele>2480.2</ele><time>2026-03-15T08:11:39.000Z</time></trkpt>
<trkpt lat="41.72797" lon="23.516224"><ele>2480.2</ele><time>2026-03-15T08:11:40.000Z</time></trkpt>
<trkpt lat="41.727973" lon="23.516219"><ele>2480.6</ele><time>2026-03-15T08:11:41.000Z</time></trkpt>
<trkpt lat="41.727975" lon="23.516215"><ele>2480.6</ele><time>2026-03-15T08:11:42.000Z</time></trkpt>
<trkpt lat="41.727978" lon="23.516209"><ele>2480.6</ele><time>2026-03-15T08:11:43.000Z</time></trkpt>
<trkpt lat="41.72798" lon="23.516204"><ele>2480.6</ele><time>2026-03-15T08:11:44.000Z</time></trkpt>
<trkpt lat="41.727983" lon="23.516197"><ele>2480.6</ele><time>2026-03-15T08:11:45.000Z</time></trkpt>
<trkpt lat="41.727987" lon="23.516191"><ele>2481.5</ele><time>2026-03-15T08:11:46.000Z</time></trkpt>
<trkpt lat="41.727989" lon="23.516184"><ele>2481.5</ele><time>2026-03-15T08:11:47.000Z</time></trkpt>
<trkpt lat="41.727992" lon="23.516178"><ele>2481.5</ele><time>2026-03-15T08:11:48.000Z</time></trkpt>
<trkpt lat="41.727994" lon="23.516172"><ele>2481.5</ele><time>2026-03-15T08:11:49.000Z</time></trkpt>
<trkpt lat="41.727997" lon="23.516166"><ele>2481.5</ele><time>2026-03-15T08:11:50.000Z</time></trkpt>
<trkpt lat="41.727998" lon="23.516161"><ele>2482.5</ele><time>2026-03-15T08:11:51.000Z</time></trkpt>
<trkpt lat="41.728" lon="23.516155"><ele>2482.5</ele><time>2026-03-15T08:11:52.000Z</time></trkpt>
<trkpt lat="41.728002" lon="23.516149"><ele>2482.5</ele><time>2026-03-15T08:11:53.000Z</time></trkpt>
<trkpt lat="41.728004" lon="23.516143"><ele>2482.5</ele><time>2026-03-15T08:11:54.000Z</time></trkpt>
<trkpt lat="41.728007" lon="23.516137"><ele>2482.5</ele><time>2026-03-15T08:11:55.000Z</time></trkpt>
<trkpt lat="41.728008" lon="23.51613"><ele>2483.1</ele><time>2026-03-15T08:11:56.000Z</time></trkpt>
<trkpt lat="41.72801" lon="23.516124"><ele>2483.1</ele><time>2026-03-15T08:11:57.000Z</time></trkpt>
<trkpt lat="41.728012" lon="23.516118"><ele>2483.1</ele><time>2026-03-15T08:11:58.000Z</time></trkpt>
<trkpt lat="41.728013" lon="23.516111"><ele>2483.1</ele><time>2026-03-15T08:11:59.000Z</time></trkpt>
<trkpt lat="41.728014" lon="23.516104"><ele>2483.1</ele><time>2026-03-15T08:12:00.000Z</time></trkpt>
<trkpt lat="41.728015" lon="23.516098"><ele>2484.1</ele><time>2026-03-15T08:12:01.000Z</time></trkpt>
<trkpt lat="41.728017" lon="23.51609"><ele>2484.1</ele><time>2026-03-15T08:12:02.000Z</time></trkpt>
<trkpt lat="41.728017" lon="23.516083"><ele>2484.1</ele><time>2026-03-15T08:12:03.000Z</time></trkpt>
<trkpt lat="41.728018" lon="23.516076"><ele>2484.1</ele><time>2026-03-15T08:12:04.000Z</time></trkpt>
<trkpt lat="41.728019" lon="23.516069"><ele>2484.1</ele><time>2026-03-15T08:12:05.000Z</time></trkpt>
<trkpt lat="41.72802" lon="23.516062"><ele>2485.1</ele><time>2026-03-15T08:12:06.000Z</time></trkpt>
<trkpt lat="41.728021" lon="23.516055"><ele>2485.1</ele><time>2026-03-15T08:12:07.000Z</time></trkpt>
<trkpt lat="41.728024" lon="23.516048"><ele>2485.1</ele><time>2026-03-15T08:12:08.000Z</time></trkpt>
<trkpt lat="41.728026" lon="23.51604"><ele>2485.1</ele><time>2026-03-15T08:12:09.000Z</time></trkpt>
<trkpt lat="41.728029" lon="23.516033"><ele>2485.1</ele><time>2026-03-15T08:12:10.000Z</time></trkpt>
<trkpt lat="41.72803" lon="23.516025"><ele>2485.5</ele><time>2026-03-15T08:12:11.000Z</time></trkpt>
<trkpt lat="41.728032" lon="23.516019"><ele>2485.5</ele><time>2026-03-15T08:12:12.000Z</time></trkpt>
<trkpt lat="41.728033" lon="23.516011"><ele>2485.5</ele><time>2026-03-15T08:12:13.000Z</time></trkpt>
<trkpt lat="41.728034" lon="23.516005"><ele>2485.5</ele><time>2026-03-15T08:12:14.000Z</time></trkpt>
<trkpt lat="41.728036" lon="23.515998"><ele>2485.5</ele><time>2026-03-15T08:12:15.000Z</time></trkpt>
<trkpt lat="41.728039" lon="23.515992"><ele>2486.4</ele><time>2026-03-15T08:12:16.000Z</time></trkpt>
<trkpt lat="41.728042" lon="23.515986"><ele>2486.4</ele><time>2026-03-15T08:12:17.000Z</time></trkpt>
<trkpt lat="41.728045" lon="23.51598"><ele>2486.4</ele><time>2026-03-15T08:12:18.000Z</time></trkpt>
<trkpt lat="41.728047" lon="23.515976"><ele>2486.4</ele><time>2026-03-15T08:12:19.000Z</time></trkpt>
<trkpt lat="41.728049" lon="23.51597"><ele>2486.4</ele><time>2026-03-15T08:12:20.000Z</time></trkpt>
<trkpt lat="41.728051" lon="23.515966"><ele>2487.4</ele><time>2026-03-15T08:12:21.000Z</time></trkpt>
<trkpt lat="41.728053" lon="23.515962"><ele>2487.4</ele><time>2026-03-15T08:12:22.000Z</time></trkpt>
<trkpt lat="41.728055" lon="23.515958"><ele>2487.4</ele><time>2026-03-15T08:12:23.000Z</time></trkpt>
<trkpt lat="41.728058" lon="23.515955"><ele>2487.4</ele><time>2026-03-15T08:12:24.000Z</time></trkpt>
<trkpt lat="41.72806" lon="23.515951"><ele>2487.4</ele><time>2026-03-15T08:12:25.000Z</time></trkpt>
<trkpt lat="41.728063" lon="23.515947"><ele>2487.9</ele><time>2026-03-15T08:12:26.000Z</time></trkpt>
<trkpt lat="41.728064" lon="23.515942"><ele>2487.9</ele><time>2026-03-15T08:12:27.000Z</time></trkpt>
<trkpt lat="41.728065" lon="23.515937"><ele>2487.9</ele><time>2026-03-15T08:12:28.000Z</time></trkpt>
<trkpt lat="41.728066" lon="23.515931"><ele>2487.9</ele><time>2026-03-15T08:12:29.000Z</time></trkpt>
<trkpt lat="41.728067" lon="23.515924"><ele>2487.9</ele><time>2026-03-15T08:12:30.000Z</time></trkpt>
<trkpt lat="41.728069" lon="23.515919"><ele>2489.1</ele><time>2026-03-15T08:12:31.000Z</time></trkpt>
<trkpt lat="41.728071" lon="23.515912"><ele>2489.1</ele><time>2026-03-15T08:12:32.000Z</time></trkpt>
<trkpt lat="41.728073" lon="23.515907"><ele>2489.1</ele><time>2026-03-15T08:12:33.000Z</time></trkpt>
<trkpt lat="41.728076" lon="23.515901"><ele>2489.1</ele><time>2026-03-15T08:12:34.000Z</time></trkpt>
<trkpt lat="41.728078" lon="23.515897"><ele>2489.1</ele><time>2026-03-15T08:12:35.000Z</time></trkpt>
<trkpt lat="41.728081" lon="23.515893"><ele>2490.3</ele><time>2026-03-15T08:12:36.000Z</time></trkpt>
<trkpt lat="41.728082" lon="23.51589"><ele>2490.3</ele><time>2026-03-15T08:12:37.000Z</time></trkpt>
<trkpt lat="41.728084" lon="23.515888"><ele>2490.3</ele><time>2026-03-15T08:12:38.000Z</time></trkpt>
<trkpt lat="41.728085" lon="23.515887"><ele>2490.3</ele><time>2026-03-15T08:12:39.000Z</time></trkpt>
<trkpt lat="41.728085" lon="23.515887"><ele>2490.3</ele><time>2026-03-15T08:12:40.000Z</time></trkpt>
<trkpt lat="41.728085" lon="23.515887"><ele>2490.9</ele><time>2026-03-15T08:12:41.000Z</time></trkpt>
<trkpt lat="41.728085" lon="23.515887"><ele>2490.9</ele><time>2026-03-15T08:12:42.000Z</time></trkpt>
<trkpt lat="41.728086" lon="23.515887"><ele>2490.9</ele><time>2026-03-15T08:12:43.000Z</time></trkpt>
<trkpt lat="41.728085" lon="23.515886"><ele>2490.9</ele><time>2026-03-15T08:12:44.000Z</time></trkpt>
<trkpt lat="41.728085" lon="23.515886"><ele>2490.9</ele><time>2026-03-15T08:12:45.000Z</time></trkpt>
<trkpt lat="41.728085" lon="23.515886"><ele>2491.8</ele><time>2026-03-15T08:12:46.000Z</time></trkpt>
<trkpt lat="41.728085" lon="23.515886"><ele>2491.8</ele><time>2026-03-15T08:12:47.000Z</time></trkpt>
<trkpt lat="41.728085" lon="23.515886"><ele>2491.8</ele><time>2026-03-15T08:12:48.000Z</time></trkpt>
<trkpt lat="41.728085" lon="23.515886"><ele>2491.8</ele><time>2026-03-15T08:12:49.000Z</time></trkpt>
<trkpt lat="41.728085" lon="23.515886"><ele>2491.8</ele><time>2026-03-15T08:12:50.000Z</time></trkpt>
<trkpt lat="41.728085" lon="23.515886"><ele>2492.4</ele><time>2026-03-15T08:12:51.000Z</time></trkpt>
<trkpt lat="41.728085" lon="23.515886"><ele>2492.4</ele><time>2026-03-15T08:12:52.000Z</time></trkpt>
<trkpt lat="41.728085" lon="23.515886"><ele>2492.4</ele><time>2026-03-15T08:12:53.000Z</time></trkpt>
<trkpt lat="41.728085" lon="23.515886"><ele>2492.4</ele><time>2026-03-15T08:12:54.000Z</time></trkpt>
<trkpt lat="41.728085" lon="23.515886"><ele>2492.4</ele><time>2026-03-15T08:12:55.000Z</time></trkpt>
<trkpt lat="41.728085" lon="23.515886"><ele>2492.5</ele><time>2026-03-15T08:12:56.000Z</time></trkpt>
<trkpt lat="41.728085" lon="23.515885"><ele>2492.5</ele><time>2026-03-15T08:12:57.000Z</time></trkpt>
<trkpt lat="41.728085" lon="23.515884"><ele>2492.5</ele><time>2026-03-15T08:12:58.000Z</time></trkpt>
<trkpt lat="41.728085" lon="23.515883"><ele>2492.5</ele><time>2026-03-15T08:12:59.000Z</time></trkpt>
<trkpt lat="41.728085" lon="23.515882"><ele>2492.5</ele><time>2026-03-15T08:13:00.000Z</time></trkpt>
<trkpt lat="41.728085" lon="23.515882"><ele>2492.7</ele><time>2026-03-15T08:13:01.000Z</time></trkpt>
<trkpt lat="41.728085" lon="23.515881"><ele>2492.7</ele><time>2026-03-15T08:13:02.000Z</time></trkpt>
<trkpt lat="41.728085" lon="23.515881"><ele>2492.7</ele><time>2026-03-15T08:13:03.000Z</time></trkpt>
<trkpt lat="41.728085" lon="23.515881"><ele>2492.7</ele><time>2026-03-15T08:13:04.000Z</time></trkpt>
<trkpt lat="41.728085" lon="23.515881"><ele>2492.7</ele><time>2026-03-15T08:13:05.000Z</time></trkpt>
<trkpt lat="41.728085" lon="23.515881"><ele>2492.6</ele><time>2026-03-15T08:13:06.000Z</time></trkpt>
<trkpt lat="41.728086" lon="23.515879"><ele>2492.6</ele><time>2026-03-15T08:13:07.000Z</time></trkpt>
<trkpt lat="41.728086" lon="23.515877"><ele>2492.6</ele><time>2026-03-15T08:13:08.000Z</time></trkpt>
<trkpt lat="41.728087" lon="23.515872"><ele>2492.6</ele><time>2026-03-15T08:13:09.000Z</time></trkpt>
<trkpt lat="41.728089" lon="23.515867"><ele>2492.6</ele><time>2026-03-15T08:13:10.000Z</time></trkpt>
<trkpt lat="41.728091" lon="23.51586"><ele>2492.6</ele><time>2026-03-15T08:13:11.000Z</time></trkpt>
<trkpt lat="41.728094" lon="23.515853"><ele>2492.6</ele><time>2026-03-15T08:13:12.000Z</time></trkpt>
<trkpt lat="41.728096" lon="23.515846"><ele>2492.6</ele><time>2026-03-15T08:13:13.000Z</time></trkpt>
<trkpt lat="41.728098" lon="23.515839"><ele>2492.6</ele><time>2026-03-15T08:13:14.000Z</time></trkpt>
<trkpt lat="41.728101" lon="23.515832"><ele>2492.6</ele><time>2026-03-15T08:13:15.000Z</time></trkpt>
<trkpt lat="41.728104" lon="23.515825"><ele>2492.6</ele><time>2026-03-15T08:13:16.000Z</time></trkpt>
<trkpt lat="41.728107" lon="23.515819"><ele>2492.6</ele><time>2026-03-15T08:13:17.000Z</time></trkpt>
<trkpt lat="41.72811" lon="23.515812"><ele>2492.6</ele><time>2026-03-15T08:13:18.000Z</time></trkpt>
<trkpt lat="41.728114" lon="23.515807"><ele>2492.6</ele><time>2026-03-15T08:13:19.000Z</time></trkpt>
<trkpt lat="41.728117" lon="23.515802"><ele>2492.6</ele><time>2026-03-15T08:13:20.000Z</time></trkpt>
<trkpt lat="41.72812" lon="23.515796"><ele>2493.1</ele><time>2026-03-15T08:13:21.000Z</time></trkpt>
<trkpt lat="41.728124" lon="23.51579"><ele>2493.1</ele><time>2026-03-15T08:13:22.000Z</time></trkpt>
<trkpt lat="41.728128" lon="23.515783"><ele>2493.1</ele><time>2026-03-15T08:13:23.000Z</time></trkpt>
<trkpt lat="41.728131" lon="23.515776"><ele>2493.1</ele><time>2026-03-15T08:13:24.000Z</time></trkpt>
<trkpt lat="41.728134" lon="23.515768"><ele>2493.1</ele><time>2026-03-15T08:13:25.000Z</time></trkpt>
<trkpt lat="41.728137" lon="23.515761"><ele>2493.6</ele><time>2026-03-15T08:13:26.000Z</time></trkpt>
<trkpt lat="41.72814" lon="23.515753"><ele>2493.6</ele><time>2026-03-15T08:13:27.000Z</time></trkpt>
<trkpt lat="41.728143" lon="23.515745"><ele>2493.6</ele><time>2026-03-15T08:13:28.000Z</time></trkpt>
<trkpt lat="41.728145" lon="23.515738"><ele>2493.6</ele><time>2026-03-15T08:13:29.000Z</time></trkpt>
<trkpt lat="41.728148" lon="23.515732"><ele>2493.6</ele><time>2026-03-15T08:13:30.000Z</time></trkpt>
<trkpt lat="41.72815" lon="23.515725"><ele>2494.8</ele><time>2026-03-15T08:13:31.000Z</time></trkpt>
<trkpt lat="41.728151" lon="23.515719"><ele>2494.8</ele><time>2026-03-15T08:13:32.000Z</time></trkpt>
<trkpt lat="41.728153" lon="23.515713"><ele>2494.8</ele><time>2026-03-15T08:13:33.000Z</time></trkpt>
<trkpt lat="41.728155" lon="23.515707"><ele>2494.8</ele><time>2026-03-15T08:13:34.000Z</time></trkpt>
<trkpt lat="41.728156" lon="23.515699"><ele>2494.8</ele><time>2026-03-15T08:13:35.000Z</time></trkpt>
<trkpt lat="41.728158" lon="23.515692"><ele>2495.9</ele><time>2026-03-15T08:13:36.000Z</time></trkpt>
<trkpt lat="41.72816" lon="23.515684"><ele>2495.9</ele><time>2026-03-15T08:13:37.000Z</time></trkpt>
<trkpt lat="41.728161" lon="23.515676"><ele>2495.9</ele><time>2026-03-15T08:13:38.000Z</time></trkpt>
<trkpt lat="41.728162" lon="23.515667"><ele>2495.9</ele><time>2026-03-15T08:13:39.000Z</time></trkpt>
<trkpt lat="41.728163" lon="23.515659"><ele>2495.9</ele><time>2026-03-15T08:13:40.000Z</time></trkpt>
<trkpt lat="41.728164" lon="23.515652"><ele>2496.5</ele><time>2026-03-15T08:13:41.000Z</time></trkpt>
<trkpt lat="41.728165" lon="23.515644"><ele>2496.5</ele><time>2026-03-15T08:13:42.000Z</time></trkpt>
<trkpt lat="41.728166" lon="23.515637"><ele>2496.5</ele><time>2026-03-15T08:13:43.000Z</time></trkpt>
<trkpt lat="41.728166" lon="23.51563"><ele>2496.5</ele><time>2026-03-15T08:13:44.000Z</time></trkpt>
<trkpt lat="41.728167" lon="23.515623"><ele>2496.5</ele><time>2026-03-15T08:13:45.000Z</time></trkpt>
<trkpt lat="41.728168" lon="23.515616"><ele>2497.6</ele><time>2026-03-15T08:13:46.000Z</time></trkpt>
<trkpt lat="41.72817" lon="23.51561"><ele>2497.6</ele><time>2026-03-15T08:13:47.000Z</time></trkpt>
<trkpt lat="41.728171" lon="23.515605"><ele>2497.6</ele><time>2026-03-15T08:13:48.000Z</time></trkpt>
<trkpt lat="41.728173" lon="23.515598"><ele>2497.6</ele><time>2026-03-15T08:13:49.000Z</time></trkpt>
<trkpt lat="41.728175" lon="23.515592"><ele>2497.6</ele><time>2026-03-15T08:13:50.000Z</time></trkpt>
<trkpt lat="41.728176" lon="23.515584"><ele>2498.6</ele><time>2026-03-15T08:13:51.000Z</time></trkpt>
<trkpt lat="41.728176" lon="23.515577"><ele>2498.6</ele><time>2026-03-15T08:13:52.000Z</time></trkpt>
<trkpt lat="41.728176" lon="23.51557"><ele>2498.6</ele><time>2026-03-15T08:13:53.000Z</time></trkpt>
<trkpt lat="41.728177" lon="23.515563"><ele>2498.6</ele><time>2026-03-15T08:13:54.000Z</time></trkpt>
<trkpt lat="41.728178" lon="23.515557"><ele>2498.6</ele><time>2026-03-15T08:13:55.000Z</time></trkpt>
<trkpt lat="41.728178" lon="23.515554"><ele>2499.1</ele><time>2026-03-15T08:13:56.000Z</time></trkpt>
<trkpt lat="41.728179" lon="23.515552"><ele>2499.1</ele><time>2026-03-15T08:13:57.000Z</time></trkpt>
<trkpt lat="41.728179" lon="23.515552"><ele>2499.1</ele><time>2026-03-15T08:13:58.000Z</time></trkpt>
<trkpt lat="41.728179" lon="23.515552"><ele>2499.1</ele><time>2026-03-15T08:13:59.000Z</time></trkpt>
<trkpt lat="41.728179" lon="23.515552"><ele>2499.1</ele><time>2026-03-15T08:14:00.000Z</time></trkpt>
<trkpt lat="41.728179" lon="23.515553"><ele>2499.9</ele><time>2026-03-15T08:14:01.000Z</time></trkpt>
<trkpt lat="41.728179" lon="23.515553"><ele>2499.9</ele><time>2026-03-15T08:14:02.000Z</time></trkpt>
<trkpt lat="41.728179" lon="23.515553"><ele>2499.9</ele><time>2026-03-15T08:14:03.000Z</time></trkpt>
<trkpt lat="41.728179" lon="23.515553"><ele>2499.9</ele><time>2026-03-15T08:14:04.000Z</time></trkpt>
<trkpt lat="41.728179" lon="23.515553"><ele>2499.9</ele><time>2026-03-15T08:14:05.000Z</time></trkpt>
<trkpt lat="41.728179" lon="23.515553"><ele>2500.8</ele><time>2026-03-15T08:14:06.000Z</time></trkpt>
<trkpt lat="41.728179" lon="23.515553"><ele>2500.8</ele><time>2026-03-15T08:14:07.000Z</time></trkpt>
<trkpt lat="41.728179" lon="23.515553"><ele>2500.8</ele><time>2026-03-15T08:14:08.000Z</time></trkpt>
<trkpt lat="41.728179" lon="23.515553"><ele>2500.8</ele><time>2026-03-15T08:14:09.000Z</time></trkpt>
<trkpt lat="41.728179" lon="23.515553"><ele>2500.8</ele><time>2026-03-15T08:14:10.000Z</time></trkpt>
<trkpt lat="41.728179" lon="23.515553"><ele>2501.1</ele><time>2026-03-15T08:14:11.000Z</time></trkpt>
<trkpt lat="41.72818" lon="23.51555"><ele>2501.1</ele><time>2026-03-15T08:14:12.000Z</time></trkpt>
<trkpt lat="41.72818" lon="23.515547"><ele>2501.1</ele><time>2026-03-15T08:14:13.000Z</time></trkpt>
<trkpt lat="41.72818" lon="23.515542"><ele>2501.1</ele><time>2026-03-15T08:14:14.000Z</time></trkpt>
<trkpt lat="41.728181" lon="23.515535"><ele>2501.1</ele><time>2026-03-15T08:14:15.000Z</time></trkpt>
<trkpt lat="41.728181" lon="23.515526"><ele>2501.5</ele><time>2026-03-15T08:14:16.000Z</time></trkpt>
<trkpt lat="41.728182" lon="23.515518"><ele>2501.5</ele><time>2026-03-15T08:14:17.000Z</time></trkpt>
<trkpt lat="41.728183" lon="23.515509"><ele>2501.5</ele><time>2026-03-15T08:14:18.000Z</time></trkpt>
<trkpt lat="41.728183" lon="23.515501"><ele>2501.5</ele><time>2026-03-15T08:14:19.000Z</time></trkpt>
<trkpt lat="41.728183" lon="23.515494"><ele>2501.5</ele><time>2026-03-15T08:14:20.000Z</time></trkpt>
<trkpt lat="41.728183" lon="23.515486"><ele>2501.6</ele><time>2026-03-15T08:14:21.000Z</time></trkpt>
<trkpt lat="41.728182" lon="23.51548"><ele>2501.6</ele><time>2026-03-15T08:14:22.000Z</time></trkpt>
<trkpt lat="41.728182" lon="23.515474"><ele>2501.6</ele><time>2026-03-15T08:14:23.000Z</time></trkpt>
<trkpt lat="41.728182" lon="23.515467"><ele>2501.6</ele><time>2026-03-15T08:14:24.000Z</time></trkpt>
<trkpt lat="41.728181" lon="23.515461"><ele>2501.6</ele><time>2026-03-15T08:14:25.000Z</time></trkpt>
<trkpt lat="41.728181" lon="23.515455"><ele>2501.8</ele><time>2026-03-15T08:14:26.000Z</time></trkpt>
<trkpt lat="41.728181" lon="23.515449"><ele>2501.8</ele><time>2026-03-15T08:14:27.000Z</time></trkpt>
<trkpt lat="41.728182" lon="23.515442"><ele>2501.8</ele><time>2026-03-15T08:14:28.000Z</time></trkpt>
<trkpt lat="41.728182" lon="23.515436"><ele>2501.8</ele><time>2026-03-15T08:14:29.000Z</time></trkpt>
<trkpt lat="41.728182" lon="23.515431"><ele>2501.8</ele><time>2026-03-15T08:14:30.000Z</time></trkpt>
<trkpt lat="41.728181" lon="23.515424"><ele>2502.3</ele><time>2026-03-15T08:14:31.000Z</time></trkpt>
<trkpt lat="41.728182" lon="23.515418"><ele>2502.3</ele><time>2026-03-15T08:14:32.000Z</time></trkpt>
<trkpt lat="41.728182" lon="23.515412"><ele>2502.3</ele><time>2026-03-15T08:14:33.000Z</time></trkpt>
<trkpt lat="41.728184" lon="23.515404"><ele>2502.3</ele><time>2026-03-15T08:14:34.000Z</time></trkpt>
<trkpt lat="41.728186" lon="23.515398"><ele>2502.3</ele><time>2026-03-15T08:14:35.000Z</time></trkpt>
<trkpt lat="41.728188" lon="23.515393"><ele>2503.1</ele><time>2026-03-15T08:14:36.000Z</time></trkpt>
<trkpt lat="41.72819" lon="23.515389"><ele>2503.1</ele><time>2026-03-15T08:14:37.000Z</time></trkpt>
<trkpt lat="41.728192" lon="23.515388"><ele>2503.1</ele><time>2026-03-15T08:14:38.000Z</time></trkpt>
<trkpt lat="41.728193" lon="23.515387"><ele>2503.1</ele><time>2026-03-15T08:14:39.000Z</time></trkpt>
<trkpt lat="41.728194" lon="23.515388"><ele>2503.1</ele><time>2026-03-15T08:14:40.000Z</time></trkpt>
<trkpt lat="41.728195" lon="23.515387"><ele>2503.6</ele><time>2026-03-15T08:14:41.000Z</time></trkpt>
<trkpt lat="41.728195" lon="23.515387"><ele>2503.6</ele><time>2026-03-15T08:14:42.000Z</time></trkpt>
<trkpt lat="41.728196" lon="23.515386"><ele>2503.6</ele><time>2026-03-15T08:14:43.000Z</time></trkpt>
<trkpt lat="41.728197" lon="23.515383"><ele>2503.6</ele><time>2026-03-15T08:14:44.000Z</time></trkpt>
<trkpt lat="41.728199" lon="23.51538"><ele>2503.6</ele><time>2026-03-15T08:14:45.000Z</time></trkpt>
<trkpt lat="41.728202" lon="23.515376"><ele>2504.5</ele><time>2026-03-15T08:14:46.000Z</time></trkpt>
<trkpt lat="41.728204" lon="23.515372"><ele>2504.5</ele><time>2026-03-15T08:14:47.000Z</time></trkpt>
<trkpt lat="41.728206" lon="23.515369"><ele>2504.5</ele><time>2026-03-15T08:14:48.000Z</time></trkpt>
<trkpt lat="41.728207" lon="23.515368"><ele>2504.5</ele><time>2026-03-15T08:14:49.000Z</time></trkpt>
<trkpt lat="41.728209" lon="23.515365"><ele>2504.5</ele><time>2026-03-15T08:14:50.000Z</time></trkpt>
<trkpt lat="41.728211" lon="23.515362"><ele>2505.1</ele><time>2026-03-15T08:14:51.000Z</time></trkpt>
<trkpt lat="41.728213" lon="23.515358"><ele>2505.1</ele><time>2026-03-15T08:14:52.000Z</time></trkpt>
<trkpt lat="41.728215" lon="23.515354"><ele>2505.1</ele><time>2026-03-15T08:14:53.000Z</time></trkpt>
<trkpt lat="41.728218" lon="23.51535"><ele>2505.1</ele><time>2026-03-15T08:14:54.000Z</time></trkpt>
<trkpt lat="41.728219" lon="23.515348"><ele>2505.1</ele><time>2026-03-15T08:14:55.000Z</time></trkpt>
<trkpt lat="41.728219" lon="23.515346"><ele>2505.4</ele><time>2026-03-15T08:14:56.000Z</time></trkpt>
<trkpt lat="41.728219" lon="23.515344"><ele>2505.4</ele><time>2026-03-15T08:14:57.000Z</time></trkpt>
<trkpt lat="41.72822" lon="23.515339"><ele>2505.4</ele><time>2026-03-15T08:14:58.000Z</time></trkpt>
<trkpt lat="41.72822" lon="23.515334"><ele>2505.4</ele><time>2026-03-15T08:14:59.000Z</time></trkpt>
<trkpt lat="41.728222" lon="23.515328"><ele>2505.4</ele><time>2026-03-15T08:15:00.000Z</time></trkpt>
<trkpt lat="41.728224" lon="23.515321"><ele>2505.8</ele><time>2026-03-15T08:15:01.000Z</time></trkpt>
<trkpt lat="41.728226" lon="23.515316"><ele>2505.8</ele><time>2026-03-15T08:15:02.000Z</time></trkpt>
<trkpt lat="41.728227" lon="23.51531"><ele>2505.8</ele><time>2026-03-15T08:15:03.000Z</time></trkpt>
<trkpt lat="41.728228" lon="23.515304"><ele>2505.8</ele><time>2026-03-15T08:15:04.000Z</time></trkpt>
<trkpt lat="41.728228" lon="23.515299"><ele>2505.8</ele><time>2026-03-15T08:15:05.000Z</time></trkpt>
<trkpt lat="41.728229" lon="23.515293"><ele>2506.3</ele><time>2026-03-15T08:15:06.000Z</time></trkpt>
<trkpt lat="41.728231" lon="23.515286"><ele>2506.3</ele><time>2026-03-15T08:15:07.000Z</time></trkpt>
<trkpt lat="41.728232" lon="23.515279"><ele>2506.3</ele><time>2026-03-15T08:15:08.000Z</time></trkpt>
<trkpt lat="41.728234" lon="23.515272"><ele>2506.3</ele><time>2026-03-15T08:15:09.000Z</time></trkpt>
<trkpt lat="41.728237" lon="23.515263"><ele>2506.3</ele><time>2026-03-15T08:15:10.000Z</time></trkpt>
<trkpt lat="41.72824" lon="23.515256"><ele>2506.6</ele><time>2026-03-15T08:15:11.000Z</time></trkpt>
<trkpt lat="41.728242" lon="23.515249"><ele>2506.6</ele><time>2026-03-15T08:15:12.000Z</time></trkpt>
<trkpt lat="41.728245" lon="23.515243"><ele>2506.6</ele><time>2026-03-15T08:15:13.000Z</time></trkpt>
<trkpt lat="41.728247" lon="23.515236"><ele>2506.6</ele><time>2026-03-15T08:15:14.000Z</time></trkpt>
<trkpt lat="41.72825" lon="23.515229"><ele>2506.6</ele><time>2026-03-15T08:15:15.000Z</time></trkpt>
<trkpt lat="41.728252" lon="23.515223"><ele>2507.5</ele><time>2026-03-15T08:15:16.000Z</time></trkpt>
<trkpt lat="41.728254" lon="23.515215"><ele>2507.5</ele><time>2026-03-15T08:15:17.000Z</time></trkpt>
<trkpt lat="41.728256" lon="23.515208"><ele>2507.5</ele><time>2026-03-15T08:15:18.000Z</time></trkpt>
<trkpt lat="41.728257" lon="23.5152"><ele>2507.5</ele><time>2026-03-15T08:15:19.000Z</time></trkpt>
<trkpt lat="41.728259" lon="23.515194"><ele>2507.5</ele><time>2026-03-15T08:15:20.000Z</time></trkpt>
<trkpt lat="41.728261" lon="23.515188"><ele>2508.3</ele><time>2026-03-15T08:15:21.000Z</time></trkpt>
<trkpt lat="41.728263" lon="23.515182"><ele>2508.3</ele><time>2026-03-15T08:15:22.000Z</time></trkpt>
<trkpt lat="41.728265" lon="23.515178"><ele>2508.3</ele><time>2026-03-15T08:15:23.000Z</time></trkpt>
<trkpt lat="41.728267" lon="23.515173"><ele>2508.3</ele><time>2026-03-15T08:15:24.000Z</time></trkpt>
<trkpt lat="41.728271" lon="23.515168"><ele>2508.3</ele><time>2026-03-15T08:15:25.000Z</time></trkpt>
<trkpt lat="41.728275" lon="23.515163"><ele>2508.7</ele><time>2026-03-15T08:15:26.000Z</time></trkpt>
<trkpt lat="41.728278" lon="23.515158"><ele>2508.7</ele><time>2026-03-15T08:15:27.000Z</time></trkpt>
<trkpt lat="41.728281" lon="23.515154"><ele>2508.7</ele><time>2026-03-15T08:15:28.000Z</time></trkpt>
<trkpt lat="41.728285" lon="23.515148"><ele>2508.7</ele><time>2026-03-15T08:15:29.000Z</time></trkpt>
<trkpt lat="41.728287" lon="23.515143"><ele>2508.7</ele><time>2026-03-15T08:15:30.000Z</time></trkpt>
<trkpt lat="41.728289" lon="23.515137"><ele>2509.3</ele><time>2026-03-15T08:15:31.000Z</time></trkpt>
<trkpt lat="41.728291" lon="23.515131"><ele>2509.3</ele><time>2026-03-15T08:15:32.000Z</time></trkpt>
<trkpt lat="41.728292" lon="23.515123"><ele>2509.3</ele><time>2026-03-15T08:15:33.000Z</time></trkpt>
<trkpt lat="41.728293" lon="23.515115"><ele>2509.3</ele><time>2026-03-15T08:15:34.000Z</time></trkpt>
<trkpt lat="41.728294" lon="23.515107"><ele>2509.3</ele><time>2026-03-15T08:15:35.000Z</time></trkpt>
<trkpt lat="41.728294" lon="23.515099"><ele>2510</ele><time>2026-03-15T08:15:36.000Z</time></trkpt>
<trkpt lat="41.728294" lon="23.515092"><ele>2510</ele><time>2026-03-15T08:15:37.000Z</time></trkpt>
<trkpt lat="41.728294" lon="23.515084"><ele>2510</ele><time>2026-03-15T08:15:38.000Z</time></trkpt>
<trkpt lat="41.728294" lon="23.515078"><ele>2510</ele><time>2026-03-15T08:15:39.000Z</time></trkpt>
<trkpt lat="41.728295" lon="23.515072"><ele>2510</ele><time>2026-03-15T08:15:40.000Z</time></trkpt>
<trkpt lat="41.728296" lon="23.515067"><ele>2510.4</ele><time>2026-03-15T08:15:41.000Z</time></trkpt>
<trkpt lat="41.728297" lon="23.515062"><ele>2510.4</ele><time>2026-03-15T08:15:42.000Z</time></trkpt>
<trkpt lat="41.728298" lon="23.515056"><ele>2510.4</ele><time>2026-03-15T08:15:43.000Z</time></trkpt>
<trkpt lat="41.728298" lon="23.515051"><ele>2510.4</ele><time>2026-03-15T08:15:44.000Z</time></trkpt>
<trkpt lat="41.728299" lon="23.515044"><ele>2510.4</ele><time>2026-03-15T08:15:45.000Z</time></trkpt>
<trkpt lat="41.728299" lon="23.515037"><ele>2511.3</ele><time>2026-03-15T08:15:46.000Z</time></trkpt>
<trkpt lat="41.7283" lon="23.51503"><ele>2511.3</ele><time>2026-03-15T08:15:47.000Z</time></trkpt>
<trkpt lat="41.728301" lon="23.515023"><ele>2511.3</ele><time>2026-03-15T08:15:48.000Z</time></trkpt>
<trkpt lat="41.728303" lon="23.515016"><ele>2511.3</ele><time>2026-03-15T08:15:49.000Z</time></trkpt>
<trkpt lat="41.728303" lon="23.51501"><ele>2511.3</ele><time>2026-03-15T08:15:50.000Z</time></trkpt>
<trkpt lat="41.728303" lon="23.515004"><ele>2512.1</ele><time>2026-03-15T08:15:51.000Z</time></trkpt>
<trkpt lat="41.728303" lon="23.514999"><ele>2512.1</ele><time>2026-03-15T08:15:52.000Z</time></trkpt>
<trkpt lat="41.728303" lon="23.514993"><ele>2512.1</ele><time>2026-03-15T08:15:53.000Z</time></trkpt>
<trkpt lat="41.728303" lon="23.514987"><ele>2512.1</ele><time>2026-03-15T08:15:54.000Z</time></trkpt>
<trkpt lat="41.728304" lon="23.514981"><ele>2512.1</ele><time>2026-03-15T08:15:55.000Z</time></trkpt>
<trkpt lat="41.728307" lon="23.514975"><ele>2512.4</ele><time>2026-03-15T08:15:56.000Z</time></trkpt>
<trkpt lat="41.728309" lon="23.51497"><ele>2512.4</ele><time>2026-03-15T08:15:57.000Z</time></trkpt>
<trkpt lat="41.728311" lon="23.514968"><ele>2512.4</ele><time>2026-03-15T08:15:58.000Z</time></trkpt>
<trkpt lat="41.728313" lon="23.514966"><ele>2512.4</ele><time>2026-03-15T08:15:59.000Z</time></trkpt>
<trkpt lat="41.728314" lon="23.514965"><ele>2512.4</ele><time>2026-03-15T08:16:00.000Z</time></trkpt>
<trkpt lat="41.728314" lon="23.514965"><ele>2513.1</ele><time>2026-03-15T08:16:01.000Z</time></trkpt>
<trkpt lat="41.728315" lon="23.514965"><ele>2513.1</ele><time>2026-03-15T08:16:02.000Z</time></trkpt>
<trkpt lat="41.728314" lon="23.514964"><ele>2513.1</ele><time>2026-03-15T08:16:03.000Z</time></trkpt>
<trkpt lat="41.728314" lon="23.514965"><ele>2513.1</ele><time>2026-03-15T08:16:04.000Z</time></trkpt>
<trkpt lat="41.728314" lon="23.514965"><ele>2513.1</ele><time>2026-03-15T08:16:05.000Z</time></trkpt>
<trkpt lat="41.728314" lon="23.514965"><ele>2513.6</ele><time>2026-03-15T08:16:06.000Z</time></trkpt>
<trkpt lat="41.728313" lon="23.514965"><ele>2513.6</ele><time>2026-03-15T08:16:07.000Z</time></trkpt>
<trkpt lat="41.728313" lon="23.514965"><ele>2513.6</ele><time>2026-03-15T08:16:08.000Z</time></trkpt>
<trkpt lat="41.728312" lon="23.514964"><ele>2513.6</ele><time>2026-03-15T08:16:09.000Z</time></trkpt>
<trkpt lat="41.728312" lon="23.514964"><ele>2513.6</ele><time>2026-03-15T08:16:10.000Z</time></trkpt>
<trkpt lat="41.728312" lon="23.514964"><ele>2513.9</ele><time>2026-03-15T08:16:11.000Z</time></trkpt>
<trkpt lat="41.728312" lon="23.514964"><ele>2513.9</ele><time>2026-03-15T08:16:12.000Z</time></trkpt>
<trkpt lat="41.728312" lon="23.514965"><ele>2513.9</ele><time>2026-03-15T08:16:13.000Z</time></trkpt>
<trkpt lat="41.728312" lon="23.514965"><ele>2513.9</ele><time>2026-03-15T08:16:14.000Z</time></trkpt>
<trkpt lat="41.728312" lon="23.514966"><ele>2513.9</ele><time>2026-03-15T08:16:15.000Z</time></trkpt>
<trkpt lat="41.728311" lon="23.514966"><ele>2514.1</ele><time>2026-03-15T08:16:16.000Z</time></trkpt>
<trkpt lat="41.72831" lon="23.514966"><ele>2514.1</ele><time>2026-03-15T08:16:17.000Z</time></trkpt>
<trkpt lat="41.72831" lon="23.514966"><ele>2514.1</ele><time>2026-03-15T08:16:18.000Z</time></trkpt>
<trkpt lat="41.728309" lon="23.514966"><ele>2514.1</ele><time>2026-03-15T08:16:19.000Z</time></trkpt>
<trkpt lat="41.728308" lon="23.514965"><ele>2514.1</ele><time>2026-03-15T08:16:20.000Z</time></trkpt>
<trkpt lat="41.728308" lon="23.514964"><ele>2514.1</ele><time>2026-03-15T08:16:21.000Z</time></trkpt>
<trkpt lat="41.728308" lon="23.514963"><ele>2514.1</ele><time>2026-03-15T08:16:22.000Z</time></trkpt>
<trkpt lat="41.728308" lon="23.514963"><ele>2514.1</ele><time>2026-03-15T08:16:23.000Z</time></trkpt>
<trkpt lat="41.728308" lon="23.514963"><ele>2514.1</ele><time>2026-03-15T08:16:24.000Z</time></trkpt>
<trkpt lat="41.728307" lon="23.514963"><ele>2514.1</ele><time>2026-03-15T08:16:25.000Z</time></trkpt>
<trkpt lat="41.728306" lon="23.514964"><ele>2514.2</ele><time>2026-03-15T08:16:26.000Z</time></trkpt>
<trkpt lat="41.728305" lon="23.514965"><ele>2514.2</ele><time>2026-03-15T08:16:27.000Z</time></trkpt>
<trkpt lat="41.728304" lon="23.514965"><ele>2514.2</ele><time>2026-03-15T08:16:28.000Z</time></trkpt>
<trkpt lat="41.728304" lon="23.514965"><ele>2514.2</ele><time>2026-03-15T08:16:29.000Z</time></trkpt>
<trkpt lat="41.728303" lon="23.514965"><ele>2514.2</ele><time>2026-03-15T08:16:30.000Z</time></trkpt>
<trkpt lat="41.728303" lon="23.514965"><ele>2514.3</ele><time>2026-03-15T08:16:31.000Z</time></trkpt>
<trkpt lat="41.728303" lon="23.514965"><ele>2514.3</ele><time>2026-03-15T08:16:32.000Z</time></trkpt>
<trkpt lat="41.728303" lon="23.514965"><ele>2514.3</ele><time>2026-03-15T08:16:33.000Z</time></trkpt>
<trkpt lat="41.728303" lon="23.514965"><ele>2514.3</ele><time>2026-03-15T08:16:34.000Z</time></trkpt>
<trkpt lat="41.728303" lon="23.514965"><ele>2514.3</ele><time>2026-03-15T08:16:35.000Z</time></trkpt>
<trkpt lat="41.728303" lon="23.514965"><ele>2514.3</ele><time>2026-03-15T08:16:36.000Z</time></trkpt>
<trkpt lat="41.728303" lon="23.514965"><ele>2514.3</ele><time>2026-03-15T08:16:37.000Z</time></trkpt>
<trkpt lat="41.728303" lon="23.514965"><ele>2514.3</ele><time>2026-03-15T08:16:38.000Z</time></trkpt>
<trkpt lat="41.728303" lon="23.514965"><ele>2514.3</ele><time>2026-03-15T08:16:39.000Z</time></trkpt>
<trkpt lat="41.728303" lon="23.514965"><ele>2514.3</ele><time>2026-03-15T08:16:40.000Z</time></trkpt>
<trkpt lat="41.728303" lon="23.514965"><ele>2514.2</ele><time>2026-03-15T08:16:41.000Z</time></trkpt>
<trkpt lat="41.728303" lon="23.514965"><ele>2514.2</ele><time>2026-03-15T08:16:42.000Z</time></trkpt>
<trkpt lat="41.728303" lon="23.514965"><ele>2514.2</ele><time>2026-03-15T08:16:43.000Z</time></trkpt>
<trkpt lat="41.728303" lon="23.514964"><ele>2514.2</ele><time>2026-03-15T08:16:44.000Z</time></trkpt>
<trkpt lat="41.728303" lon="23.514964"><ele>2514.2</ele><time>2026-03-15T08:16:45.000Z</time></trkpt>
<trkpt lat="41.728302" lon="23.514964"><ele>2514</ele><time>2026-03-15T08:16:46.000Z</time></trkpt>
<trkpt lat="41.728302" lon="23.514964"><ele>2514</ele><time>2026-03-15T08:16:47.000Z</time></trkpt>
<trkpt lat="41.728302" lon="23.514964"><ele>2514</ele><time>2026-03-15T08:16:48.000Z</time></trkpt>
<trkpt lat="41.728302" lon="23.514963"><ele>2514</ele><time>2026-03-15T08:16:49.000Z</time></trkpt>
<trkpt lat="41.728301" lon="23.514963"><ele>2514</ele><time>2026-03-15T08:16:50.000Z</time></trkpt>
<trkpt lat="41.728301" lon="23.514963"><ele>2513.9</ele><time>2026-03-15T08:16:51.000Z</time></trkpt>
<trkpt lat="41.728301" lon="23.514963"><ele>2513.9</ele><time>2026-03-15T08:16:52.000Z</time></trkpt>
<trkpt lat="41.728301" lon="23.514963"><ele>2513.9</ele><time>2026-03-15T08:16:53.000Z</time></trkpt>
<trkpt lat="41.728302" lon="23.514964"><ele>2513.9</ele><time>2026-03-15T08:16:54.000Z</time></trkpt>
<trkpt lat="41.728302" lon="23.514965"><ele>2513.9</ele><time>2026-03-15T08:16:55.000Z</time></trkpt>
<trkpt lat="41.728303" lon="23.514967"><ele>2513.9</ele><time>2026-03-15T08:16:56.000Z</time></trkpt>
<trkpt lat="41.728303" lon="23.514968"><ele>2513.9</ele><time>2026-03-15T08:16:57.000Z</time></trkpt>
<trkpt lat="41.728303" lon="23.514968"><ele>2513.9</ele><time>2026-03-15T08:16:58.000Z</time></trkpt>
<trkpt lat="41.728304" lon="23.514968"><ele>2513.9</ele><time>2026-03-15T08:16:59.000Z</time></trkpt>
<trkpt lat="41.728304" lon="23.514969"><ele>2513.9</ele><time>2026-03-15T08:17:00.000Z</time></trkpt>
<trkpt lat="41.728305" lon="23.51497"><ele>2514.1</ele><time>2026-03-15T08:17:01.000Z</time></trkpt>
<trkpt lat="41.728305" lon="23.514971"><ele>2514.1</ele><time>2026-03-15T08:17:02.000Z</time></trkpt>
<trkpt lat="41.728306" lon="23.514973"><ele>2514.1</ele><time>2026-03-15T08:17:03.000Z</time></trkpt>
<trkpt lat="41.728306" lon="23.514974"><ele>2514.1</ele><time>2026-03-15T08:17:04.000Z</time></trkpt>
<trkpt lat="41.728306" lon="23.514974"><ele>2514.1</ele><time>2026-03-15T08:17:05.000Z</time></trkpt>
<trkpt lat="41.728306" lon="23.514974"><ele>2514.2</ele><time>2026-03-15T08:17:06.000Z</time></trkpt>
<trkpt lat="41.728305" lon="23.514974"><ele>2514.2</ele><time>2026-03-15T08:17:07.000Z</time></trkpt>
<trkpt lat="41.728304" lon="23.514974"><ele>2514.2</ele><time>2026-03-15T08:17:08.000Z</time></trkpt>
<trkpt lat="41.728303" lon="23.514974"><ele>2514.2</ele><time>2026-03-15T08:17:09.000Z</time></trkpt>
<trkpt lat="41.728302" lon="23.514974"><ele>2514.2</ele><time>2026-03-15T08:17:10.000Z</time></trkpt>
<trkpt lat="41.728302" lon="23.514974"><ele>2514.2</ele><time>2026-03-15T08:17:11.000Z</time></trkpt>
<trkpt lat="41.728302" lon="23.514974"><ele>2514.2</ele><time>2026-03-15T08:17:12.000Z</time></trkpt>
<trkpt lat="41.728303" lon="23.514973"><ele>2514.2</ele><time>2026-03-15T08:17:13.000Z</time></trkpt>
<trkpt lat="41.728302" lon="23.51497"><ele>2514.2</ele><time>2026-03-15T08:17:14.000Z</time></trkpt>
<trkpt lat="41.728303" lon="23.514966"><ele>2514.2</ele><time>2026-03-15T08:17:15.000Z</time></trkpt>
<trkpt lat="41.728303" lon="23.51496"><ele>2514.1</ele><time>2026-03-15T08:17:16.000Z</time></trkpt>
<trkpt lat="41.728304" lon="23.514951"><ele>2514.1</ele><time>2026-03-15T08:17:17.000Z</time></trkpt>
<trkpt lat="41.728305" lon="23.514944"><ele>2514.1</ele><time>2026-03-15T08:17:18.000Z</time></trkpt>
<trkpt lat="41.728305" lon="23.514937"><ele>2514.1</ele><time>2026-03-15T08:17:19.000Z</time></trkpt>
<trkpt lat="41.728306" lon="23.514932"><ele>2514.1</ele><time>2026-03-15T08:17:20.000Z</time></trkpt>
<trkpt lat="41.728305" lon="23.514929"><ele>2514.1</ele><time>2026-03-15T08:17:21.000Z</time></trkpt>
<trkpt lat="41.728304" lon="23.514927"><ele>2514.1</ele><time>2026-03-15T08:17:22.000Z</time></trkpt>
<trkpt lat="41.728304" lon="23.514924"><ele>2514.1</ele><time>2026-03-15T08:17:23.000Z</time></trkpt>
<trkpt lat="41.728304" lon="23.51492"><ele>2514.1</ele><time>2026-03-15T08:17:24.000Z</time></trkpt>
<trkpt lat="41.728304" lon="23.514914"><ele>2514.1</ele><time>2026-03-15T08:17:25.000Z</time></trkpt>
<trkpt lat="41.728304" lon="23.514906"><ele>2514.3</ele><time>2026-03-15T08:17:26.000Z</time></trkpt>
<trkpt lat="41.728306" lon="23.514899"><ele>2514.3</ele><time>2026-03-15T08:17:27.000Z</time></trkpt>
<trkpt lat="41.728307" lon="23.51489"><ele>2514.3</ele><time>2026-03-15T08:17:28.000Z</time></trkpt>
<trkpt lat="41.728308" lon="23.514882"><ele>2514.3</ele><time>2026-03-15T08:17:29.000Z</time></trkpt>
<trkpt lat="41.72831" lon="23.514876"><ele>2514.3</ele><time>2026-03-15T08:17:30.000Z</time></trkpt>
<trkpt lat="41.728311" lon="23.514868"><ele>2514.6</ele><time>2026-03-15T08:17:31.000Z</time></trkpt>
<trkpt lat="41.728312" lon="23.51486"><ele>2514.6</ele><time>2026-03-15T08:17:32.000Z</time></trkpt>
<trkpt lat="41.728313" lon="23.514853"><ele>2514.6</ele><time>2026-03-15T08:17:33.000Z</time></trkpt>
<trkpt lat="41.728314" lon="23.514845"><ele>2514.6</ele><time>2026-03-15T08:17:34.000Z</time></trkpt>
<trkpt lat="41.728316" lon="23.514837"><ele>2514.6</ele><time>2026-03-15T08:17:35.000Z</time></trkpt>
<trkpt lat="41.728317" lon="23.514829"><ele>2515.1</ele><time>2026-03-15T08:17:36.000Z</time></trkpt>
<trkpt lat="41.728319" lon="23.514821"><ele>2515.1</ele><time>2026-03-15T08:17:37.000Z</time></trkpt>
<trkpt lat="41.728321" lon="23.514815"><ele>2515.1</ele><time>2026-03-15T08:17:38.000Z</time></trkpt>
<trkpt lat="41.728321" lon="23.514811"><ele>2515.1</ele><time>2026-03-15T08:17:39.000Z</time></trkpt>
<trkpt lat="41.728322" lon="23.514807"><ele>2515.1</ele><time>2026-03-15T08:17:40.000Z</time></trkpt>
<trkpt lat="41.728322" lon="23.514803"><ele>2515.4</ele><time>2026-03-15T08:17:41.000Z</time></trkpt>
<trkpt lat="41.728323" lon="23.5148"><ele>2515.4</ele><time>2026-03-15T08:17:42.000Z</time></trkpt>
<trkpt lat="41.728323" lon="23.514794"><ele>2515.4</ele><time>2026-03-15T08:17:43.000Z</time></trkpt>
<trkpt lat="41.728325" lon="23.514789"><ele>2515.4</ele><time>2026-03-15T08:17:44.000Z</time></trkpt>
<trkpt lat="41.728327" lon="23.514783"><ele>2515.4</ele><time>2026-03-15T08:17:45.000Z</time></trkpt>
<trkpt lat="41.728328" lon="23.514778"><ele>2516.3</ele><time>2026-03-15T08:17:46.000Z</time></trkpt>
<trkpt lat="41.72833" lon="23.514772"><ele>2516.3</ele><time>2026-03-15T08:17:47.000Z</time></trkpt>
<trkpt lat="41.728332" lon="23.514767"><ele>2516.3</ele><time>2026-03-15T08:17:48.000Z</time></trkpt>
<trkpt lat="41.728333" lon="23.514762"><ele>2516.3</ele><time>2026-03-15T08:17:49.000Z</time></trkpt>
<trkpt lat="41.728334" lon="23.514758"><ele>2516.3</ele><time>2026-03-15T08:17:50.000Z</time></trkpt>
<trkpt lat="41.728335" lon="23.514753"><ele>2517.3</ele><time>2026-03-15T08:17:51.000Z</time></trkpt>
<trkpt lat="41.728336" lon="23.514748"><ele>2517.3</ele><time>2026-03-15T08:17:52.000Z</time></trkpt>
<trkpt lat="41.728337" lon="23.514743"><ele>2517.3</ele><time>2026-03-15T08:17:53.000Z</time></trkpt>
<trkpt lat="41.728338" lon="23.514736"><ele>2517.3</ele><time>2026-03-15T08:17:54.000Z</time></trkpt>
<trkpt lat="41.728339" lon="23.51473"><ele>2517.3</ele><time>2026-03-15T08:17:55.000Z</time></trkpt>
<trkpt lat="41.728341" lon="23.514723"><ele>2517.7</ele><time>2026-03-15T08:17:56.000Z</time></trkpt>
<trkpt lat="41.728342" lon="23.514716"><ele>2517.7</ele><time>2026-03-15T08:17:57.000Z</time></trkpt>
<trkpt lat="41.728343" lon="23.514708"><ele>2517.7</ele><time>2026-03-15T08:17:58.000Z</time></trkpt>
<trkpt lat="41.728344" lon="23.5147"><ele>2517.7</ele><time>2026-03-15T08:17:59.000Z</time></trkpt>
<trkpt lat="41.728346" lon="23.51469"><ele>2517.7</ele><time>2026-03-15T08:18:00.000Z</time></trkpt>
<trkpt lat="41.728347" lon="23.51468"><ele>2518.4</ele><time>2026-03-15T08:18:01.000Z</time></trkpt>
<trkpt lat="41.728348" lon="23.514671"><ele>2518.4</ele><time>2026-03-15T08:18:02.000Z</time></trkpt>
<trkpt lat="41.728349" lon="23.514661"><ele>2518.4</ele><time>2026-03-15T08:18:03.000Z</time></trkpt>
<trkpt lat="41.72835" lon="23.514652"><ele>2518.4</ele><time>2026-03-15T08:18:04.000Z</time></trkpt>
<trkpt lat="41.728352" lon="23.514642"><ele>2518.4</ele><time>2026-03-15T08:18:05.000Z</time></trkpt>
<trkpt lat="41.728353" lon="23.514632"><ele>2519.2</ele><time>2026-03-15T08:18:06.000Z</time></trkpt>
<trkpt lat="41.728354" lon="23.514622"><ele>2519.2</ele><time>2026-03-15T08:18:07.000Z</time></trkpt>
<trkpt lat="41.728356" lon="23.514613"><ele>2519.2</ele><time>2026-03-15T08:18:08.000Z</time></trkpt>
<trkpt lat="41.728358" lon="23.514604"><ele>2519.2</ele><time>2026-03-15T08:18:09.000Z</time></trkpt>
<trkpt lat="41.72836" lon="23.514596"><ele>2519.2</ele><time>2026-03-15T08:18:10.000Z</time></trkpt>
<trkpt lat="41.728362" lon="23.514587"><ele>2519.7</ele><time>2026-03-15T08:18:11.000Z</time></trkpt>
<trkpt lat="41.728364" lon="23.514579"><ele>2519.7</ele><time>2026-03-15T08:18:12.000Z</time></trkpt>
<trkpt lat="41.728366" lon="23.51457"><ele>2519.7</ele><time>2026-03-15T08:18:13.000Z</time></trkpt>
<trkpt lat="41.728368" lon="23.514563"><ele>2519.7</ele><time>2026-03-15T08:18:14.000Z</time></trkpt>
<trkpt lat="41.72837" lon="23.514555"><ele>2519.7</ele><time>2026-03-15T08:18:15.000Z</time></trkpt>
<trkpt lat="41.728372" lon="23.514548"><ele>2520.8</ele><time>2026-03-15T08:18:16.000Z</time></trkpt>
<trkpt lat="41.728375" lon="23.514541"><ele>2520.8</ele><time>2026-03-15T08:18:17.000Z</time></trkpt>
<trkpt lat="41.728377" lon="23.514534"><ele>2520.8</ele><time>2026-03-15T08:18:18.000Z</time></trkpt>
<trkpt lat="41.728378" lon="23.514528"><ele>2520.8</ele><time>2026-03-15T08:18:19.000Z</time></trkpt>
<trkpt lat="41.728379" lon="23.51452"><ele>2520.8</ele><time>2026-03-15T08:18:20.000Z</time></trkpt>
<trkpt lat="41.728381" lon="23.514513"><ele>2521.9</ele><time>2026-03-15T08:18:21.000Z</time></trkpt>
<trkpt lat="41.728383" lon="23.514505"><ele>2521.9</ele><time>2026-03-15T08:18:22.000Z</time></trkpt>
<trkpt lat="41.728385" lon="23.514498"><ele>2521.9</ele><time>2026-03-15T08:18:23.000Z</time></trkpt>
<trkpt lat="41.728388" lon="23.514491"><ele>2521.9</ele><time>2026-03-15T08:18:24.000Z</time></trkpt>
<trkpt lat="41.728391" lon="23.514484"><ele>2521.9</ele><time>2026-03-15T08:18:25.000Z</time></trkpt>
<trkpt lat="41.728393" lon="23.514477"><ele>2522.4</ele><time>2026-03-15T08:18:26.000Z</time></trkpt>
<trkpt lat="41.728394" lon="23.51447"><ele>2522.4</ele><time>2026-03-15T08:18:27.000Z</time></trkpt>
<trkpt lat="41.728395" lon="23.514462"><ele>2522.4</ele><time>2026-03-15T08:18:28.000Z</time></trkpt>
<trkpt lat="41.728396" lon="23.514454"><ele>2522.4</ele><time>2026-03-15T08:18:29.000Z</time></trkpt>
<trkpt lat="41.728397" lon="23.514446"><ele>2522.4</ele><time>2026-03-15T08:18:30.000Z</time></trkpt>
<trkpt lat="41.728399" lon="23.514439"><ele>2523.6</ele><time>2026-03-15T08:18:31.000Z</time></trkpt>
<trkpt lat="41.728403" lon="23.514433"><ele>2523.6</ele><time>2026-03-15T08:18:32.000Z</time></trkpt>
<trkpt lat="41.728406" lon="23.514427"><ele>2523.6</ele><time>2026-03-15T08:18:33.000Z</time></trkpt>
<trkpt lat="41.728408" lon="23.514421"><ele>2523.6</ele><time>2026-03-15T08:18:34.000Z</time></trkpt>
<trkpt lat="41.728411" lon="23.514414"><ele>2523.6</ele><time>2026-03-15T08:18:35.000Z</time></trkpt>
<trkpt lat="41.728413" lon="23.514406"><ele>2524.8</ele><time>2026-03-15T08:18:36.000Z</time></trkpt>
<trkpt lat="41.728415" lon="23.514398"><ele>2524.8</ele><time>2026-03-15T08:18:37.000Z</time></trkpt>
<trkpt lat="41.728416" lon="23.514389"><ele>2524.8</ele><time>2026-03-15T08:18:38.000Z</time></trkpt>
<trkpt lat="41.728417" lon="23.514381"><ele>2524.8</ele><time>2026-03-15T08:18:39.000Z</time></trkpt>
<trkpt lat="41.728419" lon="23.514372"><ele>2524.8</ele><time>2026-03-15T08:18:40.000Z</time></trkpt>
<trkpt lat="41.72842" lon="23.514365"><ele>2525.4</ele><time>2026-03-15T08:18:41.000Z</time></trkpt>
<trkpt lat="41.728421" lon="23.514356"><ele>2525.4</ele><time>2026-03-15T08:18:42.000Z</time></trkpt>
<trkpt lat="41.728422" lon="23.514348"><ele>2525.4</ele><time>2026-03-15T08:18:43.000Z</time></trkpt>
<trkpt lat="41.728422" lon="23.514339"><ele>2525.4</ele><time>2026-03-15T08:18:44.000Z</time></trkpt>
<trkpt lat="41.728423" lon="23.514329"><ele>2525.4</ele><time>2026-03-15T08:18:45.000Z</time></trkpt>
<trkpt lat="41.728423" lon="23.51432"><ele>2526.4</ele><time>2026-03-15T08:18:46.000Z</time></trkpt>
<trkpt lat="41.728423" lon="23.514312"><ele>2526.4</ele><time>2026-03-15T08:18:47.000Z</time></trkpt>
<trkpt lat="41.728424" lon="23.514304"><ele>2526.4</ele><time>2026-03-15T08:18:48.000Z</time></trkpt>
<trkpt lat="41.728426" lon="23.514297"><ele>2526.4</ele><time>2026-03-15T08:18:49.000Z</time></trkpt>
<trkpt lat="41.728428" lon="23.51429"><ele>2526.4</ele><time>2026-03-15T08:18:50.000Z</time></trkpt>
<trkpt lat="41.72843" lon="23.514283"><ele>2527.3</ele><time>2026-03-15T08:18:51.000Z</time></trkpt>
<trkpt lat="41.728432" lon="23.514276"><ele>2527.3</ele><time>2026-03-15T08:18:52.000Z</time></trkpt>
<trkpt lat="41.728434" lon="23.514269"><ele>2527.3</ele><time>2026-03-15T08:18:53.000Z</time></trkpt>
<trkpt lat="41.728436" lon="23.514261"><ele>2527.3</ele><time>2026-03-15T08:18:54.000Z</time></trkpt>
<trkpt lat="41.728437" lon="23.514254"><ele>2527.3</ele><time>2026-03-15T08:18:55.000Z</time></trkpt>
<trkpt lat="41.728439" lon="23.514246"><ele>2527.8</ele><time>2026-03-15T08:18:56.000Z</time></trkpt>
<trkpt lat="41.728441" lon="23.514239"><ele>2527.8</ele><time>2026-03-15T08:18:57.000Z</time></trkpt>
<trkpt lat="41.728443" lon="23.514231"><ele>2527.8</ele><time>2026-03-15T08:18:58.000Z</time></trkpt>
<trkpt lat="41.728445" lon="23.514223"><ele>2527.8</ele><time>2026-03-15T08:18:59.000Z</time></trkpt>
<trkpt lat="41.728446" lon="23.514215"><ele>2527.8</ele><time>2026-03-15T08:19:00.000Z</time></trkpt>
<trkpt lat="41.728448" lon="23.514206"><ele>2528.6</ele><time>2026-03-15T08:19:01.000Z</time></trkpt>
<trkpt lat="41.728449" lon="23.514198"><ele>2528.6</ele><time>2026-03-15T08:19:02.000Z</time></trkpt>
<trkpt lat="41.728452" lon="23.514189"><ele>2528.6</ele><time>2026-03-15T08:19:03.000Z</time></trkpt>
<trkpt lat="41.728454" lon="23.514181"><ele>2528.6</ele><time>2026-03-15T08:19:04.000Z</time></trkpt>
<trkpt lat="41.728457" lon="23.514172"><ele>2528.6</ele><time>2026-03-15T08:19:05.000Z</time></trkpt>
<trkpt lat="41.728459" lon="23.514163"><ele>2529.5</ele><time>2026-03-15T08:19:06.000Z</time></trkpt>
<trkpt lat="41.728461" lon="23.514154"><ele>2529.5</ele><time>2026-03-15T08:19:07.000Z</time></trkpt>
<trkpt lat="41.728463" lon="23.514146"><ele>2529.5</ele><time>2026-03-15T08:19:08.000Z</time></trkpt>
<trkpt lat="41.728464" lon="23.514137"><ele>2529.5</ele><time>2026-03-15T08:19:09.000Z</time></trkpt>
<trkpt lat="41.728465" lon="23.514129"><ele>2529.5</ele><time>2026-03-15T08:19:10.000Z</time></trkpt>
<trkpt lat="41.728466" lon="23.51412"><ele>2529.9</ele><time>2026-03-15T08:19:11.000Z</time></trkpt>
<trkpt lat="41.728466" lon="23.514111"><ele>2529.9</ele><time>2026-03-15T08:19:12.000Z</time></trkpt>
<trkpt lat="41.728467" lon="23.514102"><ele>2529.9</ele><time>2026-03-15T08:19:13.000Z</time></trkpt>
<trkpt lat="41.728468" lon="23.514094"><ele>2529.9</ele><time>2026-03-15T08:19:14.000Z</time></trkpt>
<trkpt lat="41.72847" lon="23.514086"><ele>2529.9</ele><time>2026-03-15T08:19:15.000Z</time></trkpt>
<trkpt lat="41.728471" lon="23.514079"><ele>2530.8</ele><time>2026-03-15T08:19:16.000Z</time></trkpt>
<trkpt lat="41.728474" lon="23.514073"><ele>2530.8</ele><time>2026-03-15T08:19:17.000Z</time></trkpt>
<trkpt lat="41.728475" lon="23.514068"><ele>2530.8</ele><time>2026-03-15T08:19:18.000Z</time></trkpt>
<trkpt lat="41.728477" lon="23.514062"><ele>2530.8</ele><time>2026-03-15T08:19:19.000Z</time></trkpt>
<trkpt lat="41.728479" lon="23.514055"><ele>2530.8</ele><time>2026-03-15T08:19:20.000Z</time></trkpt>
<trkpt lat="41.72848" lon="23.514048"><ele>2531.6</ele><time>2026-03-15T08:19:21.000Z</time></trkpt>
<trkpt lat="41.728482" lon="23.51404"><ele>2531.6</ele><time>2026-03-15T08:19:22.000Z</time></trkpt>
<trkpt lat="41.728484" lon="23.514032"><ele>2531.6</ele><time>2026-03-15T08:19:23.000Z</time></trkpt>
<trkpt lat="41.728486" lon="23.514024"><ele>2531.6</ele><time>2026-03-15T08:19:24.000Z</time></trkpt>
<trkpt lat="41.728488" lon="23.514016"><ele>2531.6</ele><time>2026-03-15T08:19:25.000Z</time></trkpt>
<trkpt lat="41.728491" lon="23.514007"><ele>2532</ele><time>2026-03-15T08:19:26.000Z</time></trkpt>
<trkpt lat="41.728493" lon="23.513999"><ele>2532</ele><time>2026-03-15T08:19:27.000Z</time></trkpt>
<trkpt lat="41.728495" lon="23.51399"><ele>2532</ele><time>2026-03-15T08:19:28.000Z</time></trkpt>
<trkpt lat="41.728497" lon="23.513981"><ele>2532</ele><time>2026-03-15T08:19:29.000Z</time></trkpt>
<trkpt lat="41.728498" lon="23.513971"><ele>2532</ele><time>2026-03-15T08:19:30.000Z</time></trkpt>
<trkpt lat="41.728499" lon="23.51396"><ele>2532.7</ele><time>2026-03-15T08:19:31.000Z</time></trkpt>
<trkpt lat="41.728501" lon="23.513949"><ele>2532.7</ele><time>2026-03-15T08:19:32.000Z</time></trkpt>
<trkpt lat="41.728502" lon="23.513939"><ele>2532.7</ele><time>2026-03-15T08:19:33.000Z</time></trkpt>
<trkpt lat="41.728504" lon="23.51393"><ele>2532.7</ele><time>2026-03-15T08:19:34.000Z</time></trkpt>
<trkpt lat="41.728505" lon="23.513921"><ele>2532.7</ele><time>2026-03-15T08:19:35.000Z</time></trkpt>
<trkpt lat="41.728507" lon="23.513914"><ele>2533.4</ele><time>2026-03-15T08:19:36.000Z</time></trkpt>
<trkpt lat="41.728509" lon="23.513907"><ele>2533.4</ele><time>2026-03-15T08:19:37.000Z</time></trkpt>
<trkpt lat="41.728511" lon="23.513899"><ele>2533.4</ele><time>2026-03-15T08:19:38.000Z</time></trkpt>
<trkpt lat="41.728514" lon="23.51389"><ele>2533.4</ele><time>2026-03-15T08:19:39.000Z</time></trkpt>
<trkpt lat="41.728516" lon="23.513882"><ele>2533.4</ele><time>2026-03-15T08:19:40.000Z</time></trkpt>
<trkpt lat="41.728519" lon="23.513874"><ele>2533.9</ele><time>2026-03-15T08:19:41.000Z</time></trkpt>
<trkpt lat="41.728521" lon="23.513865"><ele>2533.9</ele><time>2026-03-15T08:19:42.000Z</time></trkpt>
<trkpt lat="41.728524" lon="23.513856"><ele>2533.9</ele><time>2026-03-15T08:19:43.000Z</time></trkpt>
<trkpt lat="41.728525" lon="23.513847"><ele>2533.9</ele><time>2026-03-15T08:19:44.000Z</time></trkpt>
<trkpt lat="41.728527" lon="23.513836"><ele>2533.9</ele><time>2026-03-15T08:19:45.000Z</time></trkpt>
<trkpt lat="41.728528" lon="23.513826"><ele>2535</ele><time>2026-03-15T08:19:46.000Z</time></trkpt>
<trkpt lat="41.728529" lon="23.513815"><ele>2535</ele><time>2026-03-15T08:19:47.000Z</time></trkpt>
<trkpt lat="41.728531" lon="23.513803"><ele>2535</ele><time>2026-03-15T08:19:48.000Z</time></trkpt>
<trkpt lat="41.728532" lon="23.513793"><ele>2535</ele><time>2026-03-15T08:19:49.000Z</time></trkpt>
<trkpt lat="41.728534" lon="23.513783"><ele>2535</ele><time>2026-03-15T08:19:50.000Z</time></trkpt>
<trkpt lat="41.728537" lon="23.513774"><ele>2536.1</ele><time>2026-03-15T08:19:51.000Z</time></trkpt>
<trkpt lat="41.728538" lon="23.513768"><ele>2536.1</ele><time>2026-03-15T08:19:52.000Z</time></trkpt>
<trkpt lat="41.72854" lon="23.513764"><ele>2536.1</ele><time>2026-03-15T08:19:53.000Z</time></trkpt>
<trkpt lat="41.728541" lon="23.51376"><ele>2536.1</ele><time>2026-03-15T08:19:54.000Z</time></trkpt>
<trkpt lat="41.72854" lon="23.513758"><ele>2536.1</ele><time>2026-03-15T08:19:55.000Z</time></trkpt>
<trkpt lat="41.72854" lon="23.513757"><ele>2536.5</ele><time>2026-03-15T08:19:56.000Z</time></trkpt>
<trkpt lat="41.72854" lon="23.513757"><ele>2536.5</ele><time>2026-03-15T08:19:57.000Z</time></trkpt>
<trkpt lat="41.72854" lon="23.513757"><ele>2536.5</ele><time>2026-03-15T08:19:58.000Z</time></trkpt>
<trkpt lat="41.728541" lon="23.513757"><ele>2536.5</ele><time>2026-03-15T08:19:59.000Z</time></trkpt>
<trkpt lat="41.728542" lon="23.513758"><ele>2536.5</ele><time>2026-03-15T08:20:00.000Z</time></trkpt>
<trkpt lat="41.728543" lon="23.513758"><ele>2537.4</ele><time>2026-03-15T08:20:01.000Z</time></trkpt>
<trkpt lat="41.728543" lon="23.513759"><ele>2537.4</ele><time>2026-03-15T08:20:02.000Z</time></trkpt>
<trkpt lat="41.728543" lon="23.51376"><ele>2537.4</ele><time>2026-03-15T08:20:03.000Z</time></trkpt>
<trkpt lat="41.728543" lon="23.513761"><ele>2537.4</ele><time>2026-03-15T08:20:04.000Z</time></trkpt>
<trkpt lat="41.728542" lon="23.513759"><ele>2537.4</ele><time>2026-03-15T08:20:05.000Z</time></trkpt>
<trkpt lat="41.728542" lon="23.513755"><ele>2538.1</ele><time>2026-03-15T08:20:06.000Z</time></trkpt>
<trkpt lat="41.728543" lon="23.513749"><ele>2538.1</ele><time>2026-03-15T08:20:07.000Z</time></trkpt>
<trkpt lat="41.728544" lon="23.513742"><ele>2538.1</ele><time>2026-03-15T08:20:08.000Z</time></trkpt>
<trkpt lat="41.728544" lon="23.513732"><ele>2538.1</ele><time>2026-03-15T08:20:09.000Z</time></trkpt>
<trkpt lat="41.728544" lon="23.513724"><ele>2538.1</ele><time>2026-03-15T08:20:10.000Z</time></trkpt>
<trkpt lat="41.728544" lon="23.513715"><ele>2538.3</ele><time>2026-03-15T08:20:11.000Z</time></trkpt>
<trkpt lat="41.728542" lon="23.513705"><ele>2538.3</ele><time>2026-03-15T08:20:12.000Z</time></trkpt>
<trkpt lat="41.728539" lon="23.513696"><ele>2538.3</ele><time>2026-03-15T08:20:13.000Z</time></trkpt>
<trkpt lat="41.728535" lon="23.513686"><ele>2538.3</ele><time>2026-03-15T08:20:14.000Z</time></trkpt>
<trkpt lat="41.728531" lon="23.513675"><ele>2538.3</ele><time>2026-03-15T08:20:15.000Z</time></trkpt>
<trkpt lat="41.728527" lon="23.513665"><ele>2538.7</ele><time>2026-03-15T08:20:16.000Z</time></trkpt>
<trkpt lat="41.728523" lon="23.513655"><ele>2538.7</ele><time>2026-03-15T08:20:17.000Z</time></trkpt>
<trkpt lat="41.728519" lon="23.513643"><ele>2538.7</ele><time>2026-03-15T08:20:18.000Z</time></trkpt>
<trkpt lat="41.728516" lon="23.51363"><ele>2538.7</ele><time>2026-03-15T08:20:19.000Z</time></trkpt>
<trkpt lat="41.728513" lon="23.513618"><ele>2538.7</ele><time>2026-03-15T08:20:20.000Z</time></trkpt>
<trkpt lat="41.72851" lon="23.513606"><ele>2539.2</ele><time>2026-03-15T08:20:21.000Z</time></trkpt>
<trkpt lat="41.728506" lon="23.513593"><ele>2539.2</ele><time>2026-03-15T08:20:22.000Z</time></trkpt>
<trkpt lat="41.728502" lon="23.51358"><ele>2539.2</ele><time>2026-03-15T08:20:23.000Z</time></trkpt>
<trkpt lat="41.728499" lon="23.513569"><ele>2539.2</ele><time>2026-03-15T08:20:24.000Z</time></trkpt>
<trkpt lat="41.728496" lon="23.513556"><ele>2539.2</ele><time>2026-03-15T08:20:25.000Z</time></trkpt>
<trkpt lat="41.728493" lon="23.513544"><ele>2539.5</ele><time>2026-03-15T08:20:26.000Z</time></trkpt>
<trkpt lat="41.72849" lon="23.513533"><ele>2539.5</ele><time>2026-03-15T08:20:27.000Z</time></trkpt>
<trkpt lat="41.728487" lon="23.513522"><ele>2539.5</ele><time>2026-03-15T08:20:28.000Z</time></trkpt>
<trkpt lat="41.728485" lon="23.513511"><ele>2539.5</ele><time>2026-03-15T08:20:29.000Z</time></trkpt>
<trkpt lat="41.728483" lon="23.513499"><ele>2539.5</ele><time>2026-03-15T08:20:30.000Z</time></trkpt>
<trkpt lat="41.72848" lon="23.513488"><ele>2539.9</ele><time>2026-03-15T08:20:31.000Z</time></trkpt>
<trkpt lat="41.728478" lon="23.513476"><ele>2539.9</ele><time>2026-03-15T08:20:32.000Z</time></trkpt>
<trkpt lat="41.728476" lon="23.513464"><ele>2539.9</ele><time>2026-03-15T08:20:33.000Z</time></trkpt>
<trkpt lat="41.728474" lon="23.513452"><ele>2539.9</ele><time>2026-03-15T08:20:34.000Z</time></trkpt>
<trkpt lat="41.728472" lon="23.51344"><ele>2539.9</ele><time>2026-03-15T08:20:35.000Z</time></trkpt>
<trkpt lat="41.728471" lon="23.513427"><ele>2540.1</ele><time>2026-03-15T08:20:36.000Z</time></trkpt>
<trkpt lat="41.728469" lon="23.513415"><ele>2540.1</ele><time>2026-03-15T08:20:37.000Z</time></trkpt>
<trkpt lat="41.728467" lon="23.513403"><ele>2540.1</ele><time>2026-03-15T08:20:38.000Z</time></trkpt>
<trkpt lat="41.728465" lon="23.51339"><ele>2540.1</ele><time>2026-03-15T08:20:39.000Z</time></trkpt>
<trkpt lat="41.728462" lon="23.513378"><ele>2540.1</ele><time>2026-03-15T08:20:40.000Z</time></trkpt>
<trkpt lat="41.728459" lon="23.513366"><ele>2540.3</ele><time>2026-03-15T08:20:41.000Z</time></trkpt>
<trkpt lat="41.728456" lon="23.513353"><ele>2540.3</ele><time>2026-03-15T08:20:42.000Z</time></trkpt>
<trkpt lat="41.728454" lon="23.513341"><ele>2540.3</ele><time>2026-03-15T08:20:43.000Z</time></trkpt>
<trkpt lat="41.728451" lon="23.513329"><ele>2540.3</ele><time>2026-03-15T08:20:44.000Z</time></trkpt>
<trkpt lat="41.728449" lon="23.513317"><ele>2540.3</ele><time>2026-03-15T08:20:45.000Z</time></trkpt>
<trkpt lat="41.728447" lon="23.513304"><ele>2540.8</ele><time>2026-03-15T08:20:46.000Z</time></trkpt>
<trkpt lat="41.728446" lon="23.513291"><ele>2540.8</ele><time>2026-03-15T08:20:47.000Z</time></trkpt>
<trkpt lat="41.728444" lon="23.513278"><ele>2540.8</ele><time>2026-03-15T08:20:48.000Z</time></trkpt>
<trkpt lat="41.728442" lon="23.513265"><ele>2540.8</ele><time>2026-03-15T08:20:49.000Z</time></trkpt>
<trkpt lat="41.72844" lon="23.513253"><ele>2540.8</ele><time>2026-03-15T08:20:50.000Z</time></trkpt>
<trkpt lat="41.728438" lon="23.51324"><ele>2541.3</ele><time>2026-03-15T08:20:51.000Z</time></trkpt>
<trkpt lat="41.728437" lon="23.513228"><ele>2541.3</ele><time>2026-03-15T08:20:52.000Z</time></trkpt>
<trkpt lat="41.728435" lon="23.513218"><ele>2541.3</ele><time>2026-03-15T08:20:53.000Z</time></trkpt>
<trkpt lat="41.728433" lon="23.513207"><ele>2541.3</ele><time>2026-03-15T08:20:54.000Z</time></trkpt>
<trkpt lat="41.728432" lon="23.513199"><ele>2541.3</ele><time>2026-03-15T08:20:55.000Z</time></trkpt>
<trkpt lat="41.728431" lon="23.513193"><ele>2541.5</ele><time>2026-03-15T08:20:56.000Z</time></trkpt>
<trkpt lat="41.72843" lon="23.513189"><ele>2541.5</ele><time>2026-03-15T08:20:57.000Z</time></trkpt>
<trkpt lat="41.728429" lon="23.513187"><ele>2541.5</ele><time>2026-03-15T08:20:58.000Z</time></trkpt>
<trkpt lat="41.728428" lon="23.513186"><ele>2541.5</ele><time>2026-03-15T08:20:59.000Z</time></trkpt>
<trkpt lat="41.728427" lon="23.513186"><ele>2541.5</ele><time>2026-03-15T08:21:00.000Z</time></trkpt>
<trkpt lat="41.728426" lon="23.513186"><ele>2541.9</ele><time>2026-03-15T08:21:01.000Z</time></trkpt>
<trkpt lat="41.728426" lon="23.513185"><ele>2541.9</ele><time>2026-03-15T08:21:02.000Z</time></trkpt>
<trkpt lat="41.728424" lon="23.513184"><ele>2541.9</ele><time>2026-03-15T08:21:03.000Z</time></trkpt>
<trkpt lat="41.728423" lon="23.51318"><ele>2541.9</ele><time>2026-03-15T08:21:04.000Z</time></trkpt>
<trkpt lat="41.728421" lon="23.513174"><ele>2541.9</ele><time>2026-03-15T08:21:05.000Z</time></trkpt>
<trkpt lat="41.728419" lon="23.513166"><ele>2542.3</ele><time>2026-03-15T08:21:06.000Z</time></trkpt>
<trkpt lat="41.728417" lon="23.513156"><ele>2542.3</ele><time>2026-03-15T08:21:07.000Z</time></trkpt>
<trkpt lat="41.728415" lon="23.513146"><ele>2542.3</ele><time>2026-03-15T08:21:08.000Z</time></trkpt>
<trkpt lat="41.728413" lon="23.51314"><ele>2542.3</ele><time>2026-03-15T08:21:09.000Z</time></trkpt>
<trkpt lat="41.728411" lon="23.513136"><ele>2542.3</ele><time>2026-03-15T08:21:10.000Z</time></trkpt>
<trkpt lat="41.728411" lon="23.513134"><ele>2542.5</ele><time>2026-03-15T08:21:11.000Z</time></trkpt>
<trkpt lat="41.728411" lon="23.513134"><ele>2542.5</ele><time>2026-03-15T08:21:12.000Z</time></trkpt>
<trkpt lat="41.728411" lon="23.513135"><ele>2542.5</ele><time>2026-03-15T08:21:13.000Z</time></trkpt>
<trkpt lat="41.728411" lon="23.513135"><ele>2542.5</ele><time>2026-03-15T08:21:14.000Z</time></trkpt>
<trkpt lat="41.728411" lon="23.513135"><ele>2542.5</ele><time>2026-03-15T08:21:15.000Z</time></trkpt>
<trkpt lat="41.728411" lon="23.513135"><ele>2542.8</ele><time>2026-03-15T08:21:16.000Z</time></trkpt>
<trkpt lat="41.728411" lon="23.513135"><ele>2542.8</ele><time>2026-03-15T08:21:17.000Z</time></trkpt>
<trkpt lat="41.728411" lon="23.513135"><ele>2542.8</ele><time>2026-03-15T08:21:18.000Z</time></trkpt>
<trkpt lat="41.728411" lon="23.513135"><ele>2542.8</ele><time>2026-03-15T08:21:19.000Z</time></trkpt>
<trkpt lat="41.728411" lon="23.513135"><ele>2542.8</ele><time>2026-03-15T08:21:20.000Z</time></trkpt>
<trkpt lat="41.728411" lon="23.513135"><ele>2542.8</ele><time>2026-03-15T08:21:21.000Z</time></trkpt>
<trkpt lat="41.728411" lon="23.513135"><ele>2542.8</ele><time>2026-03-15T08:21:22.000Z</time></trkpt>
<trkpt lat="41.728411" lon="23.513135"><ele>2542.8</ele><time>2026-03-15T08:21:23.000Z</time></trkpt>
<trkpt lat="41.728411" lon="23.513135"><ele>2542.8</ele><time>2026-03-15T08:21:24.000Z</time></trkpt>
<trkpt lat="41.728411" lon="23.513135"><ele>2542.8</ele><time>2026-03-15T08:21:25.000Z</time></trkpt>
<trkpt lat="41.728411" lon="23.513135"><ele>2542.8</ele><time>2026-03-15T08:21:26.000Z</time></trkpt>
<trkpt lat="41.728412" lon="23.513134"><ele>2542.8</ele><time>2026-03-15T08:21:27.000Z</time></trkpt>
<trkpt lat="41.728411" lon="23.513132"><ele>2542.8</ele><time>2026-03-15T08:21:28.000Z</time></trkpt>
<trkpt lat="41.728411" lon="23.51313"><ele>2542.8</ele><time>2026-03-15T08:21:29.000Z</time></trkpt>
<trkpt lat="41.72841" lon="23.513126"><ele>2542.8</ele><time>2026-03-15T08:21:30.000Z</time></trkpt>
<trkpt lat="41.728409" lon="23.51312"><ele>2542.8</ele><time>2026-03-15T08:21:31.000Z</time></trkpt>
<trkpt lat="41.728408" lon="23.513115"><ele>2542.8</ele><time>2026-03-15T08:21:32.000Z</time></trkpt>
<trkpt lat="41.728408" lon="23.513108"><ele>2542.8</ele><time>2026-03-15T08:21:33.000Z</time></trkpt>
<trkpt lat="41.728407" lon="23.513101"><ele>2542.8</ele><time>2026-03-15T08:21:34.000Z</time></trkpt>
<trkpt lat="41.728406" lon="23.513093"><ele>2542.8</ele><time>2026-03-15T08:21:35.000Z</time></trkpt>
<trkpt lat="41.728404" lon="23.513083"><ele>2542.7</ele><time>2026-03-15T08:21:36.000Z</time></trkpt>
<trkpt lat="41.728402" lon="23.513074"><ele>2542.7</ele><time>2026-03-15T08:21:37.000Z</time></trkpt>
<trkpt lat="41.728401" lon="23.513064"><ele>2542.7</ele><time>2026-03-15T08:21:38.000Z</time></trkpt>
<trkpt lat="41.728399" lon="23.513054"><ele>2542.7</ele><time>2026-03-15T08:21:39.000Z</time></trkpt>
<trkpt lat="41.728397" lon="23.513043"><ele>2542.7</ele><time>2026-03-15T08:21:40.000Z</time></trkpt>
<trkpt lat="41.728395" lon="23.513032"><ele>2542.7</ele><time>2026-03-15T08:21:41.000Z</time></trkpt>
<trkpt lat="41.728393" lon="23.513021"><ele>2542.7</ele><time>2026-03-15T08:21:42.000Z</time></trkpt>
<trkpt lat="41.728391" lon="23.513009"><ele>2542.7</ele><time>2026-03-15T08:21:43.000Z</time></trkpt>
<trkpt lat="41.72839" lon="23.512998"><ele>2542.7</ele><time>2026-03-15T08:21:44.000Z</time></trkpt>
<trkpt lat="41.728388" lon="23.512987"><ele>2542.7</ele><time>2026-03-15T08:21:45.000Z</time></trkpt>
<trkpt lat="41.728387" lon="23.512975"><ele>2542.7</ele><time>2026-03-15T08:21:46.000Z</time></trkpt>
<trkpt lat="41.728385" lon="23.512964"><ele>2542.7</ele><time>2026-03-15T08:21:47.000Z</time></trkpt>
<trkpt lat="41.728383" lon="23.512952"><ele>2542.7</ele><time>2026-03-15T08:21:48.000Z</time></trkpt>
<trkpt lat="41.728381" lon="23.512941"><ele>2542.7</ele><time>2026-03-15T08:21:49.000Z</time></trkpt>
<trkpt lat="41.728379" lon="23.51293"><ele>2542.7</ele><time>2026-03-15T08:21:50.000Z</time></trkpt>
<trkpt lat="41.728377" lon="23.512918"><ele>2543</ele><time>2026-03-15T08:21:51.000Z</time></trkpt>
<trkpt lat="41.728375" lon="23.512907"><ele>2543</ele><time>2026-03-15T08:21:52.000Z</time></trkpt>
<trkpt lat="41.728372" lon="23.512896"><ele>2543</ele><time>2026-03-15T08:21:53.000Z</time></trkpt>
<trkpt lat="41.72837" lon="23.512886"><ele>2543</ele><time>2026-03-15T08:21:54.000Z</time></trkpt>
<trkpt lat="41.728368" lon="23.512876"><ele>2543</ele><time>2026-03-15T08:21:55.000Z</time></trkpt>
<trkpt lat="41.728366" lon="23.512865"><ele>2543.2</ele><time>2026-03-15T08:21:56.000Z</time></trkpt>
<trkpt lat="41.728364" lon="23.512856"><ele>2543.2</ele><time>2026-03-15T08:21:57.000Z</time></trkpt>
<trkpt lat="41.728361" lon="23.512847"><ele>2543.2</ele><time>2026-03-15T08:21:58.000Z</time></trkpt>
<trkpt lat="41.728359" lon="23.512837"><ele>2543.2</ele><time>2026-03-15T08:21:59.000Z</time></trkpt>
<trkpt lat="41.728356" lon="23.512827"><ele>2543.2</ele><time>2026-03-15T08:22:00.000Z</time></trkpt>
<trkpt lat="41.728354" lon="23.512818"><ele>2544</ele><time>2026-03-15T08:22:01.000Z</time></trkpt>
<trkpt lat="41.728351" lon="23.512807"><ele>2544</ele><time>2026-03-15T08:22:02.000Z</time></trkpt>
<trkpt lat="41.728347" lon="23.512795"><ele>2544</ele><time>2026-03-15T08:22:03.000Z</time></trkpt>
<trkpt lat="41.728344" lon="23.512784"><ele>2544</ele><time>2026-03-15T08:22:04.000Z</time></trkpt>
<trkpt lat="41.728342" lon="23.512772"><ele>2544</ele><time>2026-03-15T08:22:05.000Z</time></trkpt>
<trkpt lat="41.728339" lon="23.512761"><ele>2544.9</ele><time>2026-03-15T08:22:06.000Z</time></trkpt>
<trkpt lat="41.728338" lon="23.51275"><ele>2544.9</ele><time>2026-03-15T08:22:07.000Z</time></trkpt>
<trkpt lat="41.728336" lon="23.512739"><ele>2544.9</ele><time>2026-03-15T08:22:08.000Z</time></trkpt>
<trkpt lat="41.728335" lon="23.512727"><ele>2544.9</ele><time>2026-03-15T08:22:09.000Z</time></trkpt>
<trkpt lat="41.728332" lon="23.512716"><ele>2544.9</ele><time>2026-03-15T08:22:10.000Z</time></trkpt>
<trkpt lat="41.72833" lon="23.512706"><ele>2545.3</ele><time>2026-03-15T08:22:11.000Z</time></trkpt>
<trkpt lat="41.728326" lon="23.512695"><ele>2545.3</ele><time>2026-03-15T08:22:12.000Z</time></trkpt>
<trkpt lat="41.728323" lon="23.512684"><ele>2545.3</ele><time>2026-03-15T08:22:13.000Z</time></trkpt>
<trkpt lat="41.728319" lon="23.512674"><ele>2545.3</ele><time>2026-03-15T08:22:14.000Z</time></trkpt>
<trkpt lat="41.728315" lon="23.512662"><ele>2545.3</ele><time>2026-03-15T08:22:15.000Z</time></trkpt>
<trkpt lat="41.728311" lon="23.512651"><ele>2546</ele><time>2026-03-15T08:22:16.000Z</time></trkpt>
<trkpt lat="41.728308" lon="23.512641"><ele>2546</ele><time>2026-03-15T08:22:17.000Z</time></trkpt>
<trkpt lat="41.728304" lon="23.512632"><ele>2546</ele><time>2026-03-15T08:22:18.000Z</time></trkpt>
<trkpt lat="41.728301" lon="23.512622"><ele>2546</ele><time>2026-03-15T08:22:19.000Z</time></trkpt>
<trkpt lat="41.728299" lon="23.512614"><ele>2546</ele><time>2026-03-15T08:22:20.000Z</time></trkpt>
<trkpt lat="41.728296" lon="23.512604"><ele>2546.6</ele><time>2026-03-15T08:22:21.000Z</time></trkpt>
<trkpt lat="41.728292" lon="23.512593"><ele>2546.6</ele><time>2026-03-15T08:22:22.000Z</time></trkpt>
<trkpt lat="41.728289" lon="23.512582"><ele>2546.6</ele><time>2026-03-15T08:22:23.000Z</time></trkpt>
<trkpt lat="41.728285" lon="23.51257"><ele>2546.6</ele><time>2026-03-15T08:22:24.000Z</time></trkpt>
<trkpt lat="41.728282" lon="23.51256"><ele>2546.6</ele><time>2026-03-15T08:22:25.000Z</time></trkpt>
<trkpt lat="41.728278" lon="23.51255"><ele>2546.8</ele><time>2026-03-15T08:22:26.000Z</time></trkpt>
<trkpt lat="41.728275" lon="23.512542"><ele>2546.8</ele><time>2026-03-15T08:22:27.000Z</time></trkpt>
<trkpt lat="41.728273" lon="23.512534"><ele>2546.8</ele><time>2026-03-15T08:22:28.000Z</time></trkpt>
<trkpt lat="41.728271" lon="23.512527"><ele>2546.8</ele><time>2026-03-15T08:22:29.000Z</time></trkpt>
<trkpt lat="41.72827" lon="23.512519"><ele>2546.8</ele><time>2026-03-15T08:22:30.000Z</time></trkpt>
<trkpt lat="41.728268" lon="23.512512"><ele>2547.6</ele><time>2026-03-15T08:22:31.000Z</time></trkpt>
<trkpt lat="41.728266" lon="23.512504"><ele>2547.6</ele><time>2026-03-15T08:22:32.000Z</time></trkpt>
<trkpt lat="41.728264" lon="23.512496"><ele>2547.6</ele><time>2026-03-15T08:22:33.000Z</time></trkpt>
<trkpt lat="41.728262" lon="23.512488"><ele>2547.6</ele><time>2026-03-15T08:22:34.000Z</time></trkpt>
<trkpt lat="41.72826" lon="23.51248"><ele>2547.6</ele><time>2026-03-15T08:22:35.000Z</time></trkpt>
<trkpt lat="41.728258" lon="23.512474"><ele>2548.4</ele><time>2026-03-15T08:22:36.000Z</time></trkpt>
<trkpt lat="41.728258" lon="23.512471"><ele>2548.4</ele><time>2026-03-15T08:22:37.000Z</time></trkpt>
<trkpt lat="41.728257" lon="23.512468"><ele>2548.4</ele><time>2026-03-15T08:22:38.000Z</time></trkpt>
<trkpt lat="41.728258" lon="23.512467"><ele>2548.4</ele><time>2026-03-15T08:22:39.000Z</time></trkpt>
<trkpt lat="41.728258" lon="23.512466"><ele>2548.4</ele><time>2026-03-15T08:22:40.000Z</time></trkpt>
<trkpt lat="41.728257" lon="23.512463"><ele>2548.8</ele><time>2026-03-15T08:22:41.000Z</time></trkpt>
<trkpt lat="41.728256" lon="23.512457"><ele>2548.8</ele><time>2026-03-15T08:22:42.000Z</time></trkpt>
<trkpt lat="41.728254" lon="23.51245"><ele>2548.8</ele><time>2026-03-15T08:22:43.000Z</time></trkpt>
<trkpt lat="41.728252" lon="23.512443"><ele>2548.8</ele><time>2026-03-15T08:22:44.000Z</time></trkpt>
<trkpt lat="41.72825" lon="23.512433"><ele>2548.8</ele><time>2026-03-15T08:22:45.000Z</time></trkpt>
<trkpt lat="41.728247" lon="23.512425"><ele>2549.4</ele><time>2026-03-15T08:22:46.000Z</time></trkpt>
<trkpt lat="41.728245" lon="23.512418"><ele>2549.4</ele><time>2026-03-15T08:22:47.000Z</time></trkpt>
<trkpt lat="41.728243" lon="23.512409"><ele>2549.4</ele><time>2026-03-15T08:22:48.000Z</time></trkpt>
<trkpt lat="41.72824" lon="23.512402"><ele>2549.4</ele><time>2026-03-15T08:22:49.000Z</time></trkpt>
<trkpt lat="41.728237" lon="23.512395"><ele>2549.4</ele><time>2026-03-15T08:22:50.000Z</time></trkpt>
<trkpt lat="41.728234" lon="23.512387"><ele>2549.8</ele><time>2026-03-15T08:22:51.000Z</time></trkpt>
<trkpt lat="41.728231" lon="23.512378"><ele>2549.8</ele><time>2026-03-15T08:22:52.000Z</time></trkpt>
<trkpt lat="41.728229" lon="23.512369"><ele>2549.8</ele><time>2026-03-15T08:22:53.000Z</time></trkpt>
<trkpt lat="41.728226" lon="23.51236"><ele>2549.8</ele><time>2026-03-15T08:22:54.000Z</time></trkpt>
<trkpt lat="41.728223" lon="23.51235"><ele>2549.8</ele><time>2026-03-15T08:22:55.000Z</time></trkpt>
<trkpt lat="41.728221" lon="23.51234"><ele>2549.9</ele><time>2026-03-15T08:22:56.000Z</time></trkpt>
<trkpt lat="41.728219" lon="23.51233"><ele>2549.9</ele><time>2026-03-15T08:22:57.000Z</time></trkpt>
<trkpt lat="41.728216" lon="23.512319"><ele>2549.9</ele><time>2026-03-15T08:22:58.000Z</time></trkpt>
<trkpt lat="41.728214" lon="23.512307"><ele>2549.9</ele><time>2026-03-15T08:22:59.000Z</time></trkpt>
<trkpt lat="41.728212" lon="23.512297"><ele>2549.9</ele><time>2026-03-15T08:23:00.000Z</time></trkpt>
<trkpt lat="41.72821" lon="23.512286"><ele>2550.3</ele><time>2026-03-15T08:23:01.000Z</time></trkpt>
<trkpt lat="41.728208" lon="23.512274"><ele>2550.3</ele><time>2026-03-15T08:23:02.000Z</time></trkpt>
<trkpt lat="41.728206" lon="23.512263"><ele>2550.3</ele><time>2026-03-15T08:23:03.000Z</time></trkpt>
<trkpt lat="41.728204" lon="23.512251"><ele>2550.3</ele><time>2026-03-15T08:23:04.000Z</time></trkpt>
<trkpt lat="41.728202" lon="23.512239"><ele>2550.3</ele><time>2026-03-15T08:23:05.000Z</time></trkpt>
<trkpt lat="41.7282" lon="23.512228"><ele>2550.9</ele><time>2026-03-15T08:23:06.000Z</time></trkpt>
<trkpt lat="41.728198" lon="23.512217"><ele>2550.9</ele><time>2026-03-15T08:23:07.000Z</time></trkpt>
<trkpt lat="41.728195" lon="23.512206"><ele>2550.9</ele><time>2026-03-15T08:23:08.000Z</time></trkpt>
<trkpt lat="41.728192" lon="23.512196"><ele>2550.9</ele><time>2026-03-15T08:23:09.000Z</time></trkpt>
<trkpt lat="41.72819" lon="23.512186"><ele>2550.9</ele><time>2026-03-15T08:23:10.000Z</time></trkpt>
<trkpt lat="41.728188" lon="23.512175"><ele>2551.2</ele><time>2026-03-15T08:23:11.000Z</time></trkpt>
<trkpt lat="41.728185" lon="23.512165"><ele>2551.2</ele><time>2026-03-15T08:23:12.000Z</time></trkpt>
<trkpt lat="41.728184" lon="23.512155"><ele>2551.2</ele><time>2026-03-15T08:23:13.000Z</time></trkpt>
<trkpt lat="41.728182" lon="23.512144"><ele>2551.2</ele><time>2026-03-15T08:23:14.000Z</time></trkpt>
<trkpt lat="41.72818" lon="23.512133"><ele>2551.2</ele><time>2026-03-15T08:23:15.000Z</time></trkpt>
<trkpt lat="41.728178" lon="23.512123"><ele>2551.8</ele><time>2026-03-15T08:23:16.000Z</time></trkpt>
<trkpt lat="41.728176" lon="23.512112"><ele>2551.8</ele><time>2026-03-15T08:23:17.000Z</time></trkpt>
<trkpt lat="41.728173" lon="23.512102"><ele>2551.8</ele><time>2026-03-15T08:23:18.000Z</time></trkpt>
<trkpt lat="41.728169" lon="23.512091"><ele>2551.8</ele><time>2026-03-15T08:23:19.000Z</time></trkpt>
<trkpt lat="41.728165" lon="23.512081"><ele>2551.8</ele><time>2026-03-15T08:23:20.000Z</time></trkpt>
<trkpt lat="41.728162" lon="23.512069"><ele>2552.4</ele><time>2026-03-15T08:23:21.000Z</time></trkpt>
<trkpt lat="41.728159" lon="23.512058"><ele>2552.4</ele><time>2026-03-15T08:23:22.000Z</time></trkpt>
<trkpt lat="41.728156" lon="23.512047"><ele>2552.4</ele><time>2026-03-15T08:23:23.000Z</time></trkpt>
<trkpt lat="41.728154" lon="23.512036"><ele>2552.4</ele><time>2026-03-15T08:23:24.000Z</time></trkpt>
<trkpt lat="41.728152" lon="23.512025"><ele>2552.4</ele><time>2026-03-15T08:23:25.000Z</time></trkpt>
<trkpt lat="41.728149" lon="23.512014"><ele>2552.7</ele><time>2026-03-15T08:23:26.000Z</time></trkpt>
<trkpt lat="41.728146" lon="23.512005"><ele>2552.7</ele><time>2026-03-15T08:23:27.000Z</time></trkpt>
<trkpt lat="41.728144" lon="23.511995"><ele>2552.7</ele><time>2026-03-15T08:23:28.000Z</time></trkpt>
<trkpt lat="41.72814" lon="23.511986"><ele>2552.7</ele><time>2026-03-15T08:23:29.000Z</time></trkpt>
<trkpt lat="41.728137" lon="23.511977"><ele>2552.7</ele><time>2026-03-15T08:23:30.000Z</time></trkpt>
<trkpt lat="41.728136" lon="23.511969"><ele>2553.1</ele><time>2026-03-15T08:23:31.000Z</time></trkpt>
<trkpt lat="41.728133" lon="23.511959"><ele>2553.1</ele><time>2026-03-15T08:23:32.000Z</time></trkpt>
<trkpt lat="41.72813" lon="23.511949"><ele>2553.1</ele><time>2026-03-15T08:23:33.000Z</time></trkpt>
<trkpt lat="41.728128" lon="23.51194"><ele>2553.1</ele><time>2026-03-15T08:23:34.000Z</time></trkpt>
<trkpt lat="41.728125" lon="23.511931"><ele>2553.1</ele><time>2026-03-15T08:23:35.000Z</time></trkpt>
<trkpt lat="41.728123" lon="23.511921"><ele>2553.5</ele><time>2026-03-15T08:23:36.000Z</time></trkpt>
<trkpt lat="41.72812" lon="23.511912"><ele>2553.5</ele><time>2026-03-15T08:23:37.000Z</time></trkpt>
<trkpt lat="41.728118" lon="23.511904"><ele>2553.5</ele><time>2026-03-15T08:23:38.000Z</time></trkpt>
<trkpt lat="41.728116" lon="23.511895"><ele>2553.5</ele><time>2026-03-15T08:23:39.000Z</time></trkpt>
<trkpt lat="41.728113" lon="23.511885"><ele>2553.5</ele><time>2026-03-15T08:23:40.000Z</time></trkpt>
<trkpt lat="41.728109" lon="23.511876"><ele>2553.8</ele><time>2026-03-15T08:23:41.000Z</time></trkpt>
<trkpt lat="41.728106" lon="23.511866"><ele>2553.8</ele><time>2026-03-15T08:23:42.000Z</time></trkpt>
<trkpt lat="41.728103" lon="23.511856"><ele>2553.8</ele><time>2026-03-15T08:23:43.000Z</time></trkpt>
<trkpt lat="41.7281" lon="23.511846"><ele>2553.8</ele><time>2026-03-15T08:23:44.000Z</time></trkpt>
<trkpt lat="41.728098" lon="23.511837"><ele>2553.8</ele><time>2026-03-15T08:23:45.000Z</time></trkpt>
<trkpt lat="41.728095" lon="23.511827"><ele>2554.4</ele><time>2026-03-15T08:23:46.000Z</time></trkpt>
<trkpt lat="41.728094" lon="23.511819"><ele>2554.4</ele><time>2026-03-15T08:23:47.000Z</time></trkpt>
<trkpt lat="41.728092" lon="23.511812"><ele>2554.4</ele><time>2026-03-15T08:23:48.000Z</time></trkpt>
<trkpt lat="41.72809" lon="23.511805"><ele>2554.4</ele><time>2026-03-15T08:23:49.000Z</time></trkpt>
<trkpt lat="41.728089" lon="23.511797"><ele>2554.4</ele><time>2026-03-15T08:23:50.000Z</time></trkpt>
<trkpt lat="41.728088" lon="23.511789"><ele>2555</ele><time>2026-03-15T08:23:51.000Z</time></trkpt>
<trkpt lat="41.728086" lon="23.51178"><ele>2555</ele><time>2026-03-15T08:23:52.000Z</time></trkpt>
<trkpt lat="41.728085" lon="23.511769"><ele>2555</ele><time>2026-03-15T08:23:53.000Z</time></trkpt>
<trkpt lat="41.728083" lon="23.511759"><ele>2555</ele><time>2026-03-15T08:23:54.000Z</time></trkpt>
<trkpt lat="41.728081" lon="23.511751"><ele>2555</ele><time>2026-03-15T08:23:55.000Z</time></trkpt>
<trkpt lat="41.728079" lon="23.511741"><ele>2555.3</ele><time>2026-03-15T08:23:56.000Z</time></trkpt>
<trkpt lat="41.728076" lon="23.511731"><ele>2555.3</ele><time>2026-03-15T08:23:57.000Z</time></trkpt>
<trkpt lat="41.728073" lon="23.511723"><ele>2555.3</ele><time>2026-03-15T08:23:58.000Z</time></trkpt>
<trkpt lat="41.72807" lon="23.511713"><ele>2555.3</ele><time>2026-03-15T08:23:59.000Z</time></trkpt>
<trkpt lat="41.728067" lon="23.511703"><ele>2555.3</ele><time>2026-03-15T08:24:00.000Z</time></trkpt>
<trkpt lat="41.728064" lon="23.511694"><ele>2555.6</ele><time>2026-03-15T08:24:01.000Z</time></trkpt>
<trkpt lat="41.728062" lon="23.511685"><ele>2555.6</ele><time>2026-03-15T08:24:02.000Z</time></trkpt>
<trkpt lat="41.728059" lon="23.511676"><ele>2555.6</ele><time>2026-03-15T08:24:03.000Z</time></trkpt>
<trkpt lat="41.728056" lon="23.511668"><ele>2555.6</ele><time>2026-03-15T08:24:04.000Z</time></trkpt>
<trkpt lat="41.728054" lon="23.511658"><ele>2555.6</ele><time>2026-03-15T08:24:05.000Z</time></trkpt>
<trkpt lat="41.728051" lon="23.511648"><ele>2555.7</ele><time>2026-03-15T08:24:06.000Z</time></trkpt>
<trkpt lat="41.728049" lon="23.511638"><ele>2555.7</ele><time>2026-03-15T08:24:07.000Z</time></trkpt>
<trkpt lat="41.728047" lon="23.511628"><ele>2555.7</ele><time>2026-03-15T08:24:08.000Z</time></trkpt>
<trkpt lat="41.728045" lon="23.51162"><ele>2555.7</ele><time>2026-03-15T08:24:09.000Z</time></trkpt>
<trkpt lat="41.728043" lon="23.51161"><ele>2555.7</ele><time>2026-03-15T08:24:10.000Z</time></trkpt>
<trkpt lat="41.728042" lon="23.511601"><ele>2555.7</ele><time>2026-03-15T08:24:11.000Z</time></trkpt>
<trkpt lat="41.728041" lon="23.511592"><ele>2555.7</ele><time>2026-03-15T08:24:12.000Z</time></trkpt>
<trkpt lat="41.72804" lon="23.511582"><ele>2555.7</ele><time>2026-03-15T08:24:13.000Z</time></trkpt>
<trkpt lat="41.728039" lon="23.511571"><ele>2555.7</ele><time>2026-03-15T08:24:14.000Z</time></trkpt>
<trkpt lat="41.72804" lon="23.511561"><ele>2555.7</ele><time>2026-03-15T08:24:15.000Z</time></trkpt>
<trkpt lat="41.72804" lon="23.51155"><ele>2556</ele><time>2026-03-15T08:24:16.000Z</time></trkpt>
<trkpt lat="41.728039" lon="23.511539"><ele>2556</ele><time>2026-03-15T08:24:17.000Z</time></trkpt>
<trkpt lat="41.728038" lon="23.511528"><ele>2556</ele><time>2026-03-15T08:24:18.000Z</time></trkpt>
<trkpt lat="41.728037" lon="23.511516"><ele>2556</ele><time>2026-03-15T08:24:19.000Z</time></trkpt>
<trkpt lat="41.728035" lon="23.511504"><ele>2556</ele><time>2026-03-15T08:24:20.000Z</time></trkpt>
<trkpt lat="41.728034" lon="23.511493"><ele>2556.5</ele><time>2026-03-15T08:24:21.000Z</time></trkpt>
<trkpt lat="41.728032" lon="23.511481"><ele>2556.5</ele><time>2026-03-15T08:24:22.000Z</time></trkpt>
<trkpt lat="41.72803" lon="23.511469"><ele>2556.5</ele><time>2026-03-15T08:24:23.000Z</time></trkpt>
<trkpt lat="41.728028" lon="23.511458"><ele>2556.5</ele><time>2026-03-15T08:24:24.000Z</time></trkpt>
<trkpt lat="41.728026" lon="23.511447"><ele>2556.5</ele><time>2026-03-15T08:24:25.000Z</time></trkpt>
<trkpt lat="41.728023" lon="23.511435"><ele>2556.9</ele><time>2026-03-15T08:24:26.000Z</time></trkpt>
<trkpt lat="41.728021" lon="23.511424"><ele>2556.9</ele><time>2026-03-15T08:24:27.000Z</time></trkpt>
<trkpt lat="41.728019" lon="23.511412"><ele>2556.9</ele><time>2026-03-15T08:24:28.000Z</time></trkpt>
<trkpt lat="41.728016" lon="23.511401"><ele>2556.9</ele><time>2026-03-15T08:24:29.000Z</time></trkpt>
<trkpt lat="41.728014" lon="23.51139"><ele>2556.9</ele><time>2026-03-15T08:24:30.000Z</time></trkpt>
<trkpt lat="41.728013" lon="23.51138"><ele>2557.5</ele><time>2026-03-15T08:24:31.000Z</time></trkpt>
<trkpt lat="41.728011" lon="23.511368"><ele>2557.5</ele><time>2026-03-15T08:24:32.000Z</time></trkpt>
<trkpt lat="41.72801" lon="23.511357"><ele>2557.5</ele><time>2026-03-15T08:24:33.000Z</time></trkpt>
<trkpt lat="41.728008" lon="23.511346"><ele>2557.5</ele><time>2026-03-15T08:24:34.000Z</time></trkpt>
<trkpt lat="41.728005" lon="23.511335"><ele>2557.5</ele><time>2026-03-15T08:24:35.000Z</time></trkpt>
<trkpt lat="41.728002" lon="23.511323"><ele>2558.1</ele><time>2026-03-15T08:24:36.000Z</time></trkpt>
<trkpt lat="41.727998" lon="23.511312"><ele>2558.1</ele><time>2026-03-15T08:24:37.000Z</time></trkpt>
<trkpt lat="41.727994" lon="23.511301"><ele>2558.1</ele><time>2026-03-15T08:24:38.000Z</time></trkpt>
<trkpt lat="41.72799" lon="23.511289"><ele>2558.1</ele><time>2026-03-15T08:24:39.000Z</time></trkpt>
<trkpt lat="41.727987" lon="23.511276"><ele>2558.1</ele><time>2026-03-15T08:24:40.000Z</time></trkpt>
<trkpt lat="41.727985" lon="23.511265"><ele>2558.4</ele><time>2026-03-15T08:24:41.000Z</time></trkpt>
<trkpt lat="41.727983" lon="23.511252"><ele>2558.4</ele><time>2026-03-15T08:24:42.000Z</time></trkpt>
<trkpt lat="41.727982" lon="23.511239"><ele>2558.4</ele><time>2026-03-15T08:24:43.000Z</time></trkpt>
<trkpt lat="41.727982" lon="23.511227"><ele>2558.4</ele><time>2026-03-15T08:24:44.000Z</time></trkpt>
<trkpt lat="41.727981" lon="23.511217"><ele>2558.4</ele><time>2026-03-15T08:24:45.000Z</time></trkpt>
<trkpt lat="41.727979" lon="23.511205"><ele>2559</ele><time>2026-03-15T08:24:46.000Z</time></trkpt>
<trkpt lat="41.727977" lon="23.511194"><ele>2559</ele><time>2026-03-15T08:24:47.000Z</time></trkpt>
<trkpt lat="41.727974" lon="23.511184"><ele>2559</ele><time>2026-03-15T08:24:48.000Z</time></trkpt>
<trkpt lat="41.72797" lon="23.511173"><ele>2559</ele><time>2026-03-15T08:24:49.000Z</time></trkpt>
<trkpt lat="41.727967" lon="23.511162"><ele>2559</ele><time>2026-03-15T08:24:50.000Z</time></trkpt>
<trkpt lat="41.727963" lon="23.511151"><ele>2559.5</ele><time>2026-03-15T08:24:51.000Z</time></trkpt>
<trkpt lat="41.727961" lon="23.51114"><ele>2559.5</ele><time>2026-03-15T08:24:52.000Z</time></trkpt>
<trkpt lat="41.727959" lon="23.511133"><ele>2559.5</ele><time>2026-03-15T08:24:53.000Z</time></trkpt>
<trkpt lat="41.727957" lon="23.511127"><ele>2559.5</ele><time>2026-03-15T08:24:54.000Z</time></trkpt>
<trkpt lat="41.727956" lon="23.511124"><ele>2559.5</ele><time>2026-03-15T08:24:55.000Z</time></trkpt>
<trkpt lat="41.727955" lon="23.511122"><ele>2559.7</ele><time>2026-03-15T08:24:56.000Z</time></trkpt>
<trkpt lat="41.727955" lon="23.511122"><ele>2559.7</ele><time>2026-03-15T08:24:57.000Z</time></trkpt>
<trkpt lat="41.727955" lon="23.511122"><ele>2559.7</ele><time>2026-03-15T08:24:58.000Z</time></trkpt>
<trkpt lat="41.727955" lon="23.511122"><ele>2559.7</ele><time>2026-03-15T08:24:59.000Z</time></trkpt>
<trkpt lat="41.727956" lon="23.511121"><ele>2559.7</ele><time>2026-03-15T08:25:00.000Z</time></trkpt>
<trkpt lat="41.727956" lon="23.511122"><ele>2559.9</ele><time>2026-03-15T08:25:01.000Z</time></trkpt>
<trkpt lat="41.727957" lon="23.511122"><ele>2559.9</ele><time>2026-03-15T08:25:02.000Z</time></trkpt>
<trkpt lat="41.727957" lon="23.511123"><ele>2559.9</ele><time>2026-03-15T08:25:03.000Z</time></trkpt>
<trkpt lat="41.727958" lon="23.511124"><ele>2559.9</ele><time>2026-03-15T08:25:04.000Z</time></trkpt>
<trkpt lat="41.727959" lon="23.511125"><ele>2559.9</ele><time>2026-03-15T08:25:05.000Z</time></trkpt>
<trkpt lat="41.72796" lon="23.511126"><ele>2559.9</ele><time>2026-03-15T08:25:06.000Z</time></trkpt>
<trkpt lat="41.727961" lon="23.511126"><ele>2559.9</ele><time>2026-03-15T08:25:07.000Z</time></trkpt>
<trkpt lat="41.727961" lon="23.511126"><ele>2559.9</ele><time>2026-03-15T08:25:08.000Z</time></trkpt>
<trkpt lat="41.727962" lon="23.511127"><ele>2559.9</ele><time>2026-03-15T08:25:09.000Z</time></trkpt>
<trkpt lat="41.727962" lon="23.511127"><ele>2559.9</ele><time>2026-03-15T08:25:10.000Z</time></trkpt>
<trkpt lat="41.727962" lon="23.511127"><ele>2559.8</ele><time>2026-03-15T08:25:11.000Z</time></trkpt>
<trkpt lat="41.727962" lon="23.511127"><ele>2559.8</ele><time>2026-03-15T08:25:12.000Z</time></trkpt>
<trkpt lat="41.727962" lon="23.511127"><ele>2559.8</ele><time>2026-03-15T08:25:13.000Z</time></trkpt>
<trkpt lat="41.727962" lon="23.511127"><ele>2559.8</ele><time>2026-03-15T08:25:14.000Z</time></trkpt>
<trkpt lat="41.727962" lon="23.511127"><ele>2559.8</ele><time>2026-03-15T08:25:15.000Z</time></trkpt>
<trkpt lat="41.727962" lon="23.511126"><ele>2559.6</ele><time>2026-03-15T08:25:16.000Z</time></trkpt>
<trkpt lat="41.727963" lon="23.511126"><ele>2559.6</ele><time>2026-03-15T08:25:17.000Z</time></trkpt>
<trkpt lat="41.727962" lon="23.511125"><ele>2559.6</ele><time>2026-03-15T08:25:18.000Z</time></trkpt>
<trkpt lat="41.727962" lon="23.511124"><ele>2559.6</ele><time>2026-03-15T08:25:19.000Z</time></trkpt>
<trkpt lat="41.727962" lon="23.511124"><ele>2559.6</ele><time>2026-03-15T08:25:20.000Z</time></trkpt>
<trkpt lat="41.727962" lon="23.511123"><ele>2559.3</ele><time>2026-03-15T08:25:21.000Z</time></trkpt>
<trkpt lat="41.727961" lon="23.511123"><ele>2559.3</ele><time>2026-03-15T08:25:22.000Z</time></trkpt>
<trkpt lat="41.727961" lon="23.511123"><ele>2559.3</ele><time>2026-03-15T08:25:23.000Z</time></trkpt>
<trkpt lat="41.727961" lon="23.511123"><ele>2559.3</ele><time>2026-03-15T08:25:24.000Z</time></trkpt>
<trkpt lat="41.727961" lon="23.511123"><ele>2559.3</ele><time>2026-03-15T08:25:25.000Z</time></trkpt>
<trkpt lat="41.727961" lon="23.511123"><ele>2559.2</ele><time>2026-03-15T08:25:26.000Z</time></trkpt>
<trkpt lat="41.727961" lon="23.511123"><ele>2559.2</ele><time>2026-03-15T08:25:27.000Z</time></trkpt>
<trkpt lat="41.727961" lon="23.511123"><ele>2559.2</ele><time>2026-03-15T08:25:28.000Z</time></trkpt>
<trkpt lat="41.727961" lon="23.511123"><ele>2559.2</ele><time>2026-03-15T08:25:29.000Z</time></trkpt>
<trkpt lat="41.727961" lon="23.511123"><ele>2559.2</ele><time>2026-03-15T08:25:30.000Z</time></trkpt>
<trkpt lat="41.727961" lon="23.511123"><ele>2559.1</ele><time>2026-03-15T08:25:31.000Z</time></trkpt>
<trkpt lat="41.727961" lon="23.511123"><ele>2559.1</ele><time>2026-03-15T08:25:32.000Z</time></trkpt>
<trkpt lat="41.727961" lon="23.511123"><ele>2559.1</ele><time>2026-03-15T08:25:33.000Z</time></trkpt>
<trkpt lat="41.727961" lon="23.511123"><ele>2559.1</ele><time>2026-03-15T08:25:34.000Z</time></trkpt>
<trkpt lat="41.727962" lon="23.511123"><ele>2559.1</ele><time>2026-03-15T08:25:35.000Z</time></trkpt>
<trkpt lat="41.727962" lon="23.511123"><ele>2559.1</ele><time>2026-03-15T08:25:36.000Z</time></trkpt>
<trkpt lat="41.727963" lon="23.511123"><ele>2559.1</ele><time>2026-03-15T08:25:37.000Z</time></trkpt>
<trkpt lat="41.727963" lon="23.511123"><ele>2559.1</ele><time>2026-03-15T08:25:38.000Z</time></trkpt>
<trkpt lat="41.727963" lon="23.511123"><ele>2559.1</ele><time>2026-03-15T08:25:39.000Z</time></trkpt>
<trkpt lat="41.727963" lon="23.511124"><ele>2559.1</ele><time>2026-03-15T08:25:40.000Z</time></trkpt>
<trkpt lat="41.727962" lon="23.511125"><ele>2559.2</ele><time>2026-03-15T08:25:41.000Z</time></trkpt>
<trkpt lat="41.727961" lon="23.511125"><ele>2559.2</ele><time>2026-03-15T08:25:42.000Z</time></trkpt>
<trkpt lat="41.727959" lon="23.511125"><ele>2559.2</ele><time>2026-03-15T08:25:43.000Z</time></trkpt>
<trkpt lat="41.727958" lon="23.511126"><ele>2559.2</ele><time>2026-03-15T08:25:44.000Z</time></trkpt>
<trkpt lat="41.727958" lon="23.511125"><ele>2559.2</ele><time>2026-03-15T08:25:45.000Z</time></trkpt>
<trkpt lat="41.727958" lon="23.511125"><ele>2559.1</ele><time>2026-03-15T08:25:46.000Z</time></trkpt>
<trkpt lat="41.727957" lon="23.511124"><ele>2559.1</ele><time>2026-03-15T08:25:47.000Z</time></trkpt>
<trkpt lat="41.727957" lon="23.511124"><ele>2559.1</ele><time>2026-03-15T08:25:48.000Z</time></trkpt>
<trkpt lat="41.727957" lon="23.511124"><ele>2559.1</ele><time>2026-03-15T08:25:49.000Z</time></trkpt>
<trkpt lat="41.727957" lon="23.511124"><ele>2559.1</ele><time>2026-03-15T08:25:50.000Z</time></trkpt>
<trkpt lat="41.727958" lon="23.511124"><ele>2559</ele><time>2026-03-15T08:25:51.000Z</time></trkpt>
<trkpt lat="41.727958" lon="23.511124"><ele>2559</ele><time>2026-03-15T08:25:52.000Z</time></trkpt>
<trkpt lat="41.727959" lon="23.511124"><ele>2559</ele><time>2026-03-15T08:25:53.000Z</time></trkpt>
<trkpt lat="41.72796" lon="23.511124"><ele>2559</ele><time>2026-03-15T08:25:54.000Z</time></trkpt>
<trkpt lat="41.72796" lon="23.511124"><ele>2559</ele><time>2026-03-15T08:25:55.000Z</time></trkpt>
<trkpt lat="41.72796" lon="23.511123"><ele>2559</ele><time>2026-03-15T08:25:56.000Z</time></trkpt>
<trkpt lat="41.727961" lon="23.511123"><ele>2559</ele><time>2026-03-15T08:25:57.000Z</time></trkpt>
<trkpt lat="41.727961" lon="23.511123"><ele>2559</ele><time>2026-03-15T08:25:58.000Z</time></trkpt>
<trkpt lat="41.727961" lon="23.511123"><ele>2559</ele><time>2026-03-15T08:25:59.000Z</time></trkpt>
<trkpt lat="41.727961" lon="23.511123"><ele>2559</ele><time>2026-03-15T08:26:00.000Z</time></trkpt>
<trkpt lat="41.727961" lon="23.511123"><ele>2558.8</ele><time>2026-03-15T08:26:01.000Z</time></trkpt>
<trkpt lat="41.727961" lon="23.511123"><ele>2558.8</ele><time>2026-03-15T08:26:02.000Z</time></trkpt>
<trkpt lat="41.727961" lon="23.511123"><ele>2558.8</ele><time>2026-03-15T08:26:03.000Z</time></trkpt>
<trkpt lat="41.727961" lon="23.511123"><ele>2558.8</ele><time>2026-03-15T08:26:04.000Z</time></trkpt>
<trkpt lat="41.727961" lon="23.511123"><ele>2558.8</ele><time>2026-03-15T08:26:05.000Z</time></trkpt>
<trkpt lat="41.727961" lon="23.511123"><ele>2558.8</ele><time>2026-03-15T08:26:06.000Z</time></trkpt>
<trkpt lat="41.727961" lon="23.511123"><ele>2558.8</ele><time>2026-03-15T08:26:07.000Z</time></trkpt>
<trkpt lat="41.727961" lon="23.511123"><ele>2558.8</ele><time>2026-03-15T08:26:08.000Z</time></trkpt>
<trkpt lat="41.727961" lon="23.511123"><ele>2558.8</ele><time>2026-03-15T08:26:09.000Z</time></trkpt>
<trkpt lat="41.727961" lon="23.511123"><ele>2558.8</ele><time>2026-03-15T08:26:10.000Z</time></trkpt>
<trkpt lat="41.727962" lon="23.511123"><ele>2558.8</ele><time>2026-03-15T08:26:11.000Z</time></trkpt>
<trkpt lat="41.727962" lon="23.511124"><ele>2558.8</ele><time>2026-03-15T08:26:12.000Z</time></trkpt>
<trkpt lat="41.727963" lon="23.511124"><ele>2558.8</ele><time>2026-03-15T08:26:13.000Z</time></trkpt>
<trkpt lat="41.727965" lon="23.511124"><ele>2558.8</ele><time>2026-03-15T08:26:14.000Z</time></trkpt>
<trkpt lat="41.727966" lon="23.511123"><ele>2558.8</ele><time>2026-03-15T08:26:15.000Z</time></trkpt>
<trkpt lat="41.727966" lon="23.511122"><ele>2558.8</ele><time>2026-03-15T08:26:16.000Z</time></trkpt>
<trkpt lat="41.727966" lon="23.511119"><ele>2558.8</ele><time>2026-03-15T08:26:17.000Z</time></trkpt>
<trkpt lat="41.727966" lon="23.511117"><ele>2558.8</ele><time>2026-03-15T08:26:18.000Z</time></trkpt>
<trkpt lat="41.727965" lon="23.511115"><ele>2558.8</ele><time>2026-03-15T08:26:19.000Z</time></trkpt>
<trkpt lat="41.727965" lon="23.511115"><ele>2558.8</ele><time>2026-03-15T08:26:20.000Z</time></trkpt>
<trkpt lat="41.727964" lon="23.511116"><ele>2559</ele><time>2026-03-15T08:26:21.000Z</time></trkpt>
<trkpt lat="41.727963" lon="23.511117"><ele>2559</ele><time>2026-03-15T08:26:22.000Z</time></trkpt>
<trkpt lat="41.727963" lon="23.511117"><ele>2559</ele><time>2026-03-15T08:26:23.000Z</time></trkpt>
<trkpt lat="41.727963" lon="23.511118"><ele>2559</ele><time>2026-03-15T08:26:24.000Z</time></trkpt>
<trkpt lat="41.727963" lon="23.511118"><ele>2559</ele><time>2026-03-15T08:26:25.000Z</time></trkpt>
<trkpt lat="41.727963" lon="23.511118"><ele>2559.1</ele><time>2026-03-15T08:26:26.000Z</time></trkpt>
<trkpt lat="41.727963" lon="23.511118"><ele>2559.1</ele><time>2026-03-15T08:26:27.000Z</time></trkpt>
<trkpt lat="41.727963" lon="23.511118"><ele>2559.1</ele><time>2026-03-15T08:26:28.000Z</time></trkpt>
<trkpt lat="41.727963" lon="23.511118"><ele>2559.1</ele><time>2026-03-15T08:26:29.000Z</time></trkpt>
<trkpt lat="41.727963" lon="23.511118"><ele>2559.1</ele><time>2026-03-15T08:26:30.000Z</time></trkpt>
<trkpt lat="41.727962" lon="23.511118"><ele>2559.1</ele><time>2026-03-15T08:26:31.000Z</time></trkpt>
<trkpt lat="41.727962" lon="23.511118"><ele>2559.1</ele><time>2026-03-15T08:26:32.000Z</time></trkpt>
<trkpt lat="41.727962" lon="23.511118"><ele>2559.1</ele><time>2026-03-15T08:26:33.000Z</time></trkpt>
<trkpt lat="41.727962" lon="23.511118"><ele>2559.1</ele><time>2026-03-15T08:26:34.000Z</time></trkpt>
<trkpt lat="41.727962" lon="23.511118"><ele>2559.1</ele><time>2026-03-15T08:26:35.000Z</time></trkpt>
<trkpt lat="41.727962" lon="23.511118"><ele>2559</ele><time>2026-03-15T08:26:36.000Z</time></trkpt>
<trkpt lat="41.727962" lon="23.511118"><ele>2559</ele><time>2026-03-15T08:26:37.000Z</time></trkpt>
<trkpt lat="41.727962" lon="23.511118"><ele>2559</ele><time>2026-03-15T08:26:38.000Z</time></trkpt>
<trkpt lat="41.727962" lon="23.511118"><ele>2559</ele><time>2026-03-15T08:26:39.000Z</time></trkpt>
<trkpt lat="41.727963" lon="23.511118"><ele>2559</ele><time>2026-03-15T08:26:40.000Z</time></trkpt>
<trkpt lat="41.727963" lon="23.511118"><ele>2558.9</ele><time>2026-03-15T08:26:41.000Z</time></trkpt>
<trkpt lat="41.727964" lon="23.511118"><ele>2558.9</ele><time>2026-03-15T08:26:42.000Z</time></trkpt>
<trkpt lat="41.727965" lon="23.511118"><ele>2558.9</ele><time>2026-03-15T08:26:43.000Z</time></trkpt>
<trkpt lat="41.727966" lon="23.511118"><ele>2558.9</ele><time>2026-03-15T08:26:44.000Z</time></trkpt>
<trkpt lat="41.727967" lon="23.511118"><ele>2558.9</ele><time>2026-03-15T08:26:45.000Z</time></trkpt>
<trkpt lat="41.727967" lon="23.511118"><ele>2558.9</ele><time>2026-03-15T08:26:46.000Z</time></trkpt>
<trkpt lat="41.727968" lon="23.511118"><ele>2558.9</ele><time>2026-03-15T08:26:47.000Z</time></trkpt>
<trkpt lat="41.727968" lon="23.511118"><ele>2558.9</ele><time>2026-03-15T08:26:48.000Z</time></trkpt>
<trkpt lat="41.727968" lon="23.511119"><ele>2558.9</ele><time>2026-03-15T08:26:49.000Z</time></trkpt>
<trkpt lat="41.727968" lon="23.51112"><ele>2558.9</ele><time>2026-03-15T08:26:50.000Z</time></trkpt>
<trkpt lat="41.727969" lon="23.511121"><ele>2558.9</ele><time>2026-03-15T08:26:51.000Z</time></trkpt>
<trkpt lat="41.727969" lon="23.511122"><ele>2558.9</ele><time>2026-03-15T08:26:52.000Z</time></trkpt>
<trkpt lat="41.727969" lon="23.511123"><ele>2558.9</ele><time>2026-03-15T08:26:53.000Z</time></trkpt>
<trkpt lat="41.727969" lon="23.511123"><ele>2558.9</ele><time>2026-03-15T08:26:54.000Z</time></trkpt>
<trkpt lat="41.727968" lon="23.511122"><ele>2558.9</ele><time>2026-03-15T08:26:55.000Z</time></trkpt>
<trkpt lat="41.727968" lon="23.511122"><ele>2558.9</ele><time>2026-03-15T08:26:56.000Z</time></trkpt>
<trkpt lat="41.727968" lon="23.511121"><ele>2558.9</ele><time>2026-03-15T08:26:57.000Z</time></trkpt>
<trkpt lat="41.727967" lon="23.51112"><ele>2558.9</ele><time>2026-03-15T08:26:58.000Z</time></trkpt>
<trkpt lat="41.727967" lon="23.51112"><ele>2558.9</ele><time>2026-03-15T08:26:59.000Z</time></trkpt>
<trkpt lat="41.727966" lon="23.511119"><ele>2558.9</ele><time>2026-03-15T08:27:00.000Z</time></trkpt>
<trkpt lat="41.727966" lon="23.511119"><ele>2559.1</ele><time>2026-03-15T08:27:01.000Z</time></trkpt>
<trkpt lat="41.727965" lon="23.511118"><ele>2559.1</ele><time>2026-03-15T08:27:02.000Z</time></trkpt>
<trkpt lat="41.727965" lon="23.511118"><ele>2559.1</ele><time>2026-03-15T08:27:03.000Z</time></trkpt>
<trkpt lat="41.727965" lon="23.511118"><ele>2559.1</ele><time>2026-03-15T08:27:04.000Z</time></trkpt>
<trkpt lat="41.727965" lon="23.511117"><ele>2559.1</ele><time>2026-03-15T08:27:05.000Z</time></trkpt>
<trkpt lat="41.727964" lon="23.511116"><ele>2559.5</ele><time>2026-03-15T08:27:06.000Z</time></trkpt>
<trkpt lat="41.727964" lon="23.511116"><ele>2559.5</ele><time>2026-03-15T08:27:07.000Z</time></trkpt>
<trkpt lat="41.727964" lon="23.511116"><ele>2559.5</ele><time>2026-03-15T08:27:08.000Z</time></trkpt>
<trkpt lat="41.727963" lon="23.511116"><ele>2559.5</ele><time>2026-03-15T08:27:09.000Z</time></trkpt>
<trkpt lat="41.727962" lon="23.511116"><ele>2559.5</ele><time>2026-03-15T08:27:10.000Z</time></trkpt>
<trkpt lat="41.727962" lon="23.511115"><ele>2559.7</ele><time>2026-03-15T08:27:11.000Z</time></trkpt>
<trkpt lat="41.727962" lon="23.511114"><ele>2559.7</ele><time>2026-03-15T08:27:12.000Z</time></trkpt>
<trkpt lat="41.727961" lon="23.511114"><ele>2559.7</ele><time>2026-03-15T08:27:13.000Z</time></trkpt>
<trkpt lat="41.72796" lon="23.511112"><ele>2559.7</ele><time>2026-03-15T08:27:14.000Z</time></trkpt>
<trkpt lat="41.727958" lon="23.511109"><ele>2559.7</ele><time>2026-03-15T08:27:15.000Z</time></trkpt>
<trkpt lat="41.727956" lon="23.511106"><ele>2560.2</ele><time>2026-03-15T08:27:16.000Z</time></trkpt>
<trkpt lat="41.727953" lon="23.511101"><ele>2560.2</ele><time>2026-03-15T08:27:17.000Z</time></trkpt>
<trkpt lat="41.727951" lon="23.511095"><ele>2560.2</ele><time>2026-03-15T08:27:18.000Z</time></trkpt>
<trkpt lat="41.727948" lon="23.511091"><ele>2560.2</ele><time>2026-03-15T08:27:19.000Z</time></trkpt>
<trkpt lat="41.727946" lon="23.511088"><ele>2560.2</ele><time>2026-03-15T08:27:20.000Z</time></trkpt>
<trkpt lat="41.727945" lon="23.511086"><ele>2560.3</ele><time>2026-03-15T08:27:21.000Z</time></trkpt>
<trkpt lat="41.727944" lon="23.511086"><ele>2560.3</ele><time>2026-03-15T08:27:22.000Z</time></trkpt>
<trkpt lat="41.727943" lon="23.511088"><ele>2560.3</ele><time>2026-03-15T08:27:23.000Z</time></trkpt>
<trkpt lat="41.727943" lon="23.511088"><ele>2560.3</ele><time>2026-03-15T08:27:24.000Z</time></trkpt>
<trkpt lat="41.727942" lon="23.511087"><ele>2560.3</ele><time>2026-03-15T08:27:25.000Z</time></trkpt>
<trkpt lat="41.727941" lon="23.511085"><ele>2560.3</ele><time>2026-03-15T08:27:26.000Z</time></trkpt>
<trkpt lat="41.72794" lon="23.51108"><ele>2560.3</ele><time>2026-03-15T08:27:27.000Z</time></trkpt>
<trkpt lat="41.727939" lon="23.511074"><ele>2560.3</ele><time>2026-03-15T08:27:28.000Z</time></trkpt>
<trkpt lat="41.727937" lon="23.511068"><ele>2560.3</ele><time>2026-03-15T08:27:29.000Z</time></trkpt>
<trkpt lat="41.727936" lon="23.511062"><ele>2560.3</ele><time>2026-03-15T08:27:30.000Z</time></trkpt>
<trkpt lat="41.727933" lon="23.511055"><ele>2560.2</ele><time>2026-03-15T08:27:31.000Z</time></trkpt>
<trkpt lat="41.727931" lon="23.511049"><ele>2560.2</ele><time>2026-03-15T08:27:32.000Z</time></trkpt>
<trkpt lat="41.727928" lon="23.511042"><ele>2560.2</ele><time>2026-03-15T08:27:33.000Z</time></trkpt>
<trkpt lat="41.727926" lon="23.511036"><ele>2560.2</ele><time>2026-03-15T08:27:34.000Z</time></trkpt>
<trkpt lat="41.727923" lon="23.511029"><ele>2560.2</ele><time>2026-03-15T08:27:35.000Z</time></trkpt>
<trkpt lat="41.727923" lon="23.511024"><ele>2560.5</ele><time>2026-03-15T08:27:36.000Z</time></trkpt>
<trkpt lat="41.727922" lon="23.511021"><ele>2560.5</ele><time>2026-03-15T08:27:37.000Z</time></trkpt>
<trkpt lat="41.727921" lon="23.511019"><ele>2560.5</ele><time>2026-03-15T08:27:38.000Z</time></trkpt>
<trkpt lat="41.727921" lon="23.511018"><ele>2560.5</ele><time>2026-03-15T08:27:39.000Z</time></trkpt>
<trkpt lat="41.72792" lon="23.511018"><ele>2560.5</ele><time>2026-03-15T08:27:40.000Z</time></trkpt>
<trkpt lat="41.727919" lon="23.511019"><ele>2560.6</ele><time>2026-03-15T08:27:41.000Z</time></trkpt>
<trkpt lat="41.727919" lon="23.511019"><ele>2560.6</ele><time>2026-03-15T08:27:42.000Z</time></trkpt>
<trkpt lat="41.727919" lon="23.511019"><ele>2560.6</ele><time>2026-03-15T08:27:43.000Z</time></trkpt>
<trkpt lat="41.727918" lon="23.511019"><ele>2560.6</ele><time>2026-03-15T08:27:44.000Z</time></trkpt>
<trkpt lat="41.727917" lon="23.511018"><ele>2560.6</ele><time>2026-03-15T08:27:45.000Z</time></trkpt>
<trkpt lat="41.727917" lon="23.511017"><ele>2560.9</ele><time>2026-03-15T08:27:46.000Z</time></trkpt>
<trkpt lat="41.727917" lon="23.511017"><ele>2560.9</ele><time>2026-03-15T08:27:47.000Z</time></trkpt>
<trkpt lat="41.727916" lon="23.511016"><ele>2560.9</ele><time>2026-03-15T08:27:48.000Z</time></trkpt>
<trkpt lat="41.727916" lon="23.511015"><ele>2560.9</ele><time>2026-03-15T08:27:49.000Z</time></trkpt>
<trkpt lat="41.727916" lon="23.511015"><ele>2560.9</ele><time>2026-03-15T08:27:50.000Z</time></trkpt>
<trkpt lat="41.727916" lon="23.511015"><ele>2561</ele><time>2026-03-15T08:27:51.000Z</time></trkpt>
<trkpt lat="41.727916" lon="23.511014"><ele>2561</ele><time>2026-03-15T08:27:52.000Z</time></trkpt>
<trkpt lat="41.727916" lon="23.511014"><ele>2561</ele><time>2026-03-15T08:27:53.000Z</time></trkpt>
<trkpt lat="41.727916" lon="23.511014"><ele>2561</ele><time>2026-03-15T08:27:54.000Z</time></trkpt>
<trkpt lat="41.727916" lon="23.511014"><ele>2561</ele><time>2026-03-15T08:27:55.000Z</time></trkpt>
<trkpt lat="41.727916" lon="23.511014"><ele>2560.9</ele><time>2026-03-15T08:27:56.000Z</time></trkpt>
<trkpt lat="41.727916" lon="23.511014"><ele>2560.9</ele><time>2026-03-15T08:27:57.000Z</time></trkpt>
<trkpt lat="41.727916" lon="23.511014"><ele>2560.9</ele><time>2026-03-15T08:27:58.000Z</time></trkpt>
<trkpt lat="41.727916" lon="23.511014"><ele>2560.9</ele><time>2026-03-15T08:27:59.000Z</time></trkpt>
<trkpt lat="41.727916" lon="23.511014"><ele>2560.9</ele><time>2026-03-15T08:28:00.000Z</time></trkpt>
<trkpt lat="41.727916" lon="23.511014"><ele>2560.9</ele><time>2026-03-15T08:28:01.000Z</time></trkpt>
<trkpt lat="41.727915" lon="23.511012"><ele>2560.9</ele><time>2026-03-15T08:28:02.000Z</time></trkpt>
<trkpt lat="41.727914" lon="23.511007"><ele>2560.9</ele><time>2026-03-15T08:28:03.000Z</time></trkpt>
<trkpt lat="41.727912" lon="23.511"><ele>2560.9</ele><time>2026-03-15T08:28:04.000Z</time></trkpt>
<trkpt lat="41.727909" lon="23.51099"><ele>2560.9</ele><time>2026-03-15T08:28:05.000Z</time></trkpt>
<trkpt lat="41.727905" lon="23.510978"><ele>2560.7</ele><time>2026-03-15T08:28:06.000Z</time></trkpt>
<trkpt lat="41.727901" lon="23.510965"><ele>2560.7</ele><time>2026-03-15T08:28:07.000Z</time></trkpt>
<trkpt lat="41.727896" lon="23.510952"><ele>2560.7</ele><time>2026-03-15T08:28:08.000Z</time></trkpt>
<trkpt lat="41.727891" lon="23.510938"><ele>2560.7</ele><time>2026-03-15T08:28:09.000Z</time></trkpt>
<trkpt lat="41.727885" lon="23.510924"><ele>2560.7</ele><time>2026-03-15T08:28:10.000Z</time></trkpt>
<trkpt lat="41.727879" lon="23.510911"><ele>2560.7</ele><time>2026-03-15T08:28:11.000Z</time></trkpt>
<trkpt lat="41.727873" lon="23.510897"><ele>2560.7</ele><time>2026-03-15T08:28:12.000Z</time></trkpt>
<trkpt lat="41.727866" lon="23.510883"><ele>2560.7</ele><time>2026-03-15T08:28:13.000Z</time></trkpt>
<trkpt lat="41.727859" lon="23.510869"><ele>2560.7</ele><time>2026-03-15T08:28:14.000Z</time></trkpt>
<trkpt lat="41.727854" lon="23.510857"><ele>2560.7</ele><time>2026-03-15T08:28:15.000Z</time></trkpt>
<trkpt lat="41.727849" lon="23.510845"><ele>2560.6</ele><time>2026-03-15T08:28:16.000Z</time></trkpt>
<trkpt lat="41.727843" lon="23.510834"><ele>2560.6</ele><time>2026-03-15T08:28:17.000Z</time></trkpt>
<trkpt lat="41.727838" lon="23.510823"><ele>2560.6</ele><time>2026-03-15T08:28:18.000Z</time></trkpt>
<trkpt lat="41.727832" lon="23.510813"><ele>2560.6</ele><time>2026-03-15T08:28:19.000Z</time></trkpt>
<trkpt lat="41.727826" lon="23.510804"><ele>2560.6</ele><time>2026-03-15T08:28:20.000Z</time></trkpt>
<trkpt lat="41.727819" lon="23.510793"><ele>2560.7</ele><time>2026-03-15T08:28:21.000Z</time></trkpt>
<trkpt lat="41.727812" lon="23.510783"><ele>2560.7</ele><time>2026-03-15T08:28:22.000Z</time></trkpt>
<trkpt lat="41.727805" lon="23.510773"><ele>2560.7</ele><time>2026-03-15T08:28:23.000Z</time></trkpt>
<trkpt lat="41.727797" lon="23.510763"><ele>2560.7</ele><time>2026-03-15T08:28:24.000Z</time></trkpt>
<trkpt lat="41.72779" lon="23.510752"><ele>2560.7</ele><time>2026-03-15T08:28:25.000Z</time></trkpt>
<trkpt lat="41.727783" lon="23.510743"><ele>2560.8</ele><time>2026-03-15T08:28:26.000Z</time></trkpt>
<trkpt lat="41.727775" lon="23.510733"><ele>2560.8</ele><time>2026-03-15T08:28:27.000Z</time></trkpt>
<trkpt lat="41.727767" lon="23.510723"><ele>2560.8</ele><time>2026-03-15T08:28:28.000Z</time></trkpt>
<trkpt lat="41.727759" lon="23.510712"><ele>2560.8</ele><time>2026-03-15T08:28:29.000Z</time></trkpt>
<trkpt lat="41.727751" lon="23.510703"><ele>2560.8</ele><time>2026-03-15T08:28:30.000Z</time></trkpt>
<trkpt lat="41.727743" lon="23.510692"><ele>2561.2</ele><time>2026-03-15T08:28:31.000Z</time></trkpt>
<trkpt lat="41.727735" lon="23.510681"><ele>2561.2</ele><time>2026-03-15T08:28:32.000Z</time></trkpt>
<trkpt lat="41.727729" lon="23.510669"><ele>2561.2</ele><time>2026-03-15T08:28:33.000Z</time></trkpt>
<trkpt lat="41.727722" lon="23.510659"><ele>2561.2</ele><time>2026-03-15T08:28:34.000Z</time></trkpt>
<trkpt lat="41.727716" lon="23.510649"><ele>2561.2</ele><time>2026-03-15T08:28:35.000Z</time></trkpt>
<trkpt lat="41.727708" lon="23.510638"><ele>2561.6</ele><time>2026-03-15T08:28:36.000Z</time></trkpt>
<trkpt lat="41.727701" lon="23.510628"><ele>2561.6</ele><time>2026-03-15T08:28:37.000Z</time></trkpt>
<trkpt lat="41.727694" lon="23.510619"><ele>2561.6</ele><time>2026-03-15T08:28:38.000Z</time></trkpt>
<trkpt lat="41.727687" lon="23.510611"><ele>2561.6</ele><time>2026-03-15T08:28:39.000Z</time></trkpt>
<trkpt lat="41.727679" lon="23.510601"><ele>2561.6</ele><time>2026-03-15T08:28:40.000Z</time></trkpt>
<trkpt lat="41.727672" lon="23.510593"><ele>2561.8</ele><time>2026-03-15T08:28:41.000Z</time></trkpt>
<trkpt lat="41.727665" lon="23.510585"><ele>2561.8</ele><time>2026-03-15T08:28:42.000Z</time></trkpt>
<trkpt lat="41.727658" lon="23.510575"><ele>2561.8</ele><time>2026-03-15T08:28:43.000Z</time></trkpt>
<trkpt lat="41.727652" lon="23.510565"><ele>2561.8</ele><time>2026-03-15T08:28:44.000Z</time></trkpt>
<trkpt lat="41.727646" lon="23.510555"><ele>2561.8</ele><time>2026-03-15T08:28:45.000Z</time></trkpt>
<trkpt lat="41.727641" lon="23.510544"><ele>2562.1</ele><time>2026-03-15T08:28:46.000Z</time></trkpt>
<trkpt lat="41.727635" lon="23.510532"><ele>2562.1</ele><time>2026-03-15T08:28:47.000Z</time></trkpt>
<trkpt lat="41.72763" lon="23.510521"><ele>2562.1</ele><time>2026-03-15T08:28:48.000Z</time></trkpt>
<trkpt lat="41.727625" lon="23.51051"><ele>2562.1</ele><time>2026-03-15T08:28:49.000Z</time></trkpt>
<trkpt lat="41.727621" lon="23.510499"><ele>2562.1</ele><time>2026-03-15T08:28:50.000Z</time></trkpt>
<trkpt lat="41.727617" lon="23.510488"><ele>2562.5</ele><time>2026-03-15T08:28:51.000Z</time></trkpt>
<trkpt lat="41.727614" lon="23.510477"><ele>2562.5</ele><time>2026-03-15T08:28:52.000Z</time></trkpt>
<trkpt lat="41.72761" lon="23.510464"><ele>2562.5</ele><time>2026-03-15T08:28:53.000Z</time></trkpt>
<trkpt lat="41.727606" lon="23.510453"><ele>2562.5</ele><time>2026-03-15T08:28:54.000Z</time></trkpt>
<trkpt lat="41.727602" lon="23.510441"><ele>2562.5</ele><time>2026-03-15T08:28:55.000Z</time></trkpt>
<trkpt lat="41.727598" lon="23.510428"><ele>2562.6</ele><time>2026-03-15T08:28:56.000Z</time></trkpt>
<trkpt lat="41.727594" lon="23.510416"><ele>2562.6</ele><time>2026-03-15T08:28:57.000Z</time></trkpt>
<trkpt lat="41.72759" lon="23.510405"><ele>2562.6</ele><time>2026-03-15T08:28:58.000Z</time></trkpt>
<trkpt lat="41.727587" lon="23.510393"><ele>2562.6</ele><time>2026-03-15T08:28:59.000Z</time></trkpt>
<trkpt lat="41.727583" lon="23.510381"><ele>2562.6</ele><time>2026-03-15T08:29:00.000Z</time></trkpt>
<trkpt lat="41.72758" lon="23.51037"><ele>2563</ele><time>2026-03-15T08:29:01.000Z</time></trkpt>
<trkpt lat="41.727577" lon="23.510359"><ele>2563</ele><time>2026-03-15T08:29:02.000Z</time></trkpt>
<trkpt lat="41.727574" lon="23.510346"><ele>2563</ele><time>2026-03-15T08:29:03.000Z</time></trkpt>
<trkpt lat="41.727571" lon="23.510335"><ele>2563</ele><time>2026-03-15T08:29:04.000Z</time></trkpt>
<trkpt lat="41.727568" lon="23.510325"><ele>2563</ele><time>2026-03-15T08:29:05.000Z</time></trkpt>
<trkpt lat="41.727564" lon="23.510313"><ele>2563.5</ele><time>2026-03-15T08:29:06.000Z</time></trkpt>
<trkpt lat="41.72756" lon="23.510303"><ele>2563.5</ele><time>2026-03-15T08:29:07.000Z</time></trkpt>
<trkpt lat="41.727556" lon="23.510294"><ele>2563.5</ele><time>2026-03-15T08:29:08.000Z</time></trkpt>
<trkpt lat="41.727551" lon="23.510283"><ele>2563.5</ele><time>2026-03-15T08:29:09.000Z</time></trkpt>
<trkpt lat="41.727546" lon="23.510273"><ele>2563.5</ele><time>2026-03-15T08:29:10.000Z</time></trkpt>
<trkpt lat="41.72754" lon="23.510263"><ele>2563.8</ele><time>2026-03-15T08:29:11.000Z</time></trkpt>
<trkpt lat="41.727534" lon="23.510253"><ele>2563.8</ele><time>2026-03-15T08:29:12.000Z</time></trkpt>
<trkpt lat="41.727528" lon="23.510242"><ele>2563.8</ele><time>2026-03-15T08:29:13.000Z</time></trkpt>
<trkpt lat="41.727523" lon="23.510232"><ele>2563.8</ele><time>2026-03-15T08:29:14.000Z</time></trkpt>
<trkpt lat="41.727516" lon="23.510221"><ele>2563.8</ele><time>2026-03-15T08:29:15.000Z</time></trkpt>
<trkpt lat="41.72751" lon="23.51021"><ele>2564.5</ele><time>2026-03-15T08:29:16.000Z</time></trkpt>
<trkpt lat="41.727504" lon="23.5102"><ele>2564.5</ele><time>2026-03-15T08:29:17.000Z</time></trkpt>
<trkpt lat="41.727498" lon="23.51019"><ele>2564.5</ele><time>2026-03-15T08:29:18.000Z</time></trkpt>
<trkpt lat="41.727492" lon="23.510179"><ele>2564.5</ele><time>2026-03-15T08:29:19.000Z</time></trkpt>
<trkpt lat="41.727486" lon="23.510169"><ele>2564.5</ele><time>2026-03-15T08:29:20.000Z</time></trkpt>
<trkpt lat="41.72748" lon="23.510159"><ele>2565.1</ele><time>2026-03-15T08:29:21.000Z</time></trkpt>
<trkpt lat="41.727475" lon="23.510146"><ele>2565.1</ele><time>2026-03-15T08:29:22.000Z</time></trkpt>
<trkpt lat="41.727469" lon="23.510134"><ele>2565.1</ele><time>2026-03-15T08:29:23.000Z</time></trkpt>
<trkpt lat="41.727465" lon="23.510124"><ele>2565.1</ele><time>2026-03-15T08:29:24.000Z</time></trkpt>
<trkpt lat="41.72746" lon="23.510111"><ele>2565.1</ele><time>2026-03-15T08:29:25.000Z</time></trkpt>
<trkpt lat="41.727455" lon="23.510099"><ele>2565.4</ele><time>2026-03-15T08:29:26.000Z</time></trkpt>
<trkpt lat="41.727451" lon="23.510088"><ele>2565.4</ele><time>2026-03-15T08:29:27.000Z</time></trkpt>
<trkpt lat="41.727446" lon="23.510078"><ele>2565.4</ele><time>2026-03-15T08:29:28.000Z</time></trkpt>
<trkpt lat="41.727441" lon="23.510066"><ele>2565.4</ele><time>2026-03-15T08:29:29.000Z</time></trkpt>
<trkpt lat="41.727436" lon="23.510056"><ele>2565.4</ele><time>2026-03-15T08:29:30.000Z</time></trkpt>
<trkpt lat="41.72743" lon="23.510047"><ele>2565.9</ele><time>2026-03-15T08:29:31.000Z</time></trkpt>
<trkpt lat="41.727424" lon="23.510036"><ele>2565.9</ele><time>2026-03-15T08:29:32.000Z</time></trkpt>
<trkpt lat="41.727417" lon="23.510025"><ele>2565.9</ele><time>2026-03-15T08:29:33.000Z</time></trkpt>
<trkpt lat="41.727411" lon="23.510015"><ele>2565.9</ele><time>2026-03-15T08:29:34.000Z</time></trkpt>
<trkpt lat="41.727404" lon="23.510005"><ele>2565.9</ele><time>2026-03-15T08:29:35.000Z</time></trkpt>
<trkpt lat="41.727397" lon="23.509993"><ele>2566.4</ele><time>2026-03-15T08:29:36.000Z</time></trkpt>
<trkpt lat="41.727391" lon="23.509982"><ele>2566.4</ele><time>2026-03-15T08:29:37.000Z</time></trkpt>
<trkpt lat="41.727386" lon="23.509971"><ele>2566.4</ele><time>2026-03-15T08:29:38.000Z</time></trkpt>
<trkpt lat="41.72738" lon="23.509958"><ele>2566.4</ele><time>2026-03-15T08:29:39.000Z</time></trkpt>
<trkpt lat="41.727375" lon="23.509945"><ele>2566.4</ele><time>2026-03-15T08:29:40.000Z</time></trkpt>
<trkpt lat="41.72737" lon="23.509933"><ele>2566.6</ele><time>2026-03-15T08:29:41.000Z</time></trkpt>
<trkpt lat="41.727365" lon="23.509922"><ele>2566.6</ele><time>2026-03-15T08:29:42.000Z</time></trkpt>
<trkpt lat="41.727358" lon="23.50991"><ele>2566.6</ele><time>2026-03-15T08:29:43.000Z</time></trkpt>
<trkpt lat="41.727352" lon="23.509899"><ele>2566.6</ele><time>2026-03-15T08:29:44.000Z</time></trkpt>
<trkpt lat="41.727344" lon="23.509889"><ele>2566.6</ele><time>2026-03-15T08:29:45.000Z</time></trkpt>
<trkpt lat="41.727337" lon="23.509879"><ele>2567.1</ele><time>2026-03-15T08:29:46.000Z</time></trkpt>
<trkpt lat="41.727328" lon="23.509868"><ele>2567.1</ele><time>2026-03-15T08:29:47.000Z</time></trkpt>
<trkpt lat="41.727319" lon="23.509856"><ele>2567.1</ele><time>2026-03-15T08:29:48.000Z</time></trkpt>
<trkpt lat="41.72731" lon="23.509845"><ele>2567.1</ele><time>2026-03-15T08:29:49.000Z</time></trkpt>
<trkpt lat="41.727301" lon="23.509834"><ele>2567.1</ele><time>2026-03-15T08:29:50.000Z</time></trkpt>
<trkpt lat="41.727291" lon="23.509821"><ele>2567.7</ele><time>2026-03-15T08:29:51.000Z</time></trkpt>
<trkpt lat="41.727282" lon="23.509808"><ele>2567.7</ele><time>2026-03-15T08:29:52.000Z</time></trkpt>
<trkpt lat="41.727273" lon="23.509796"><ele>2567.7</ele><time>2026-03-15T08:29:53.000Z</time></trkpt>
<trkpt lat="41.727265" lon="23.509783"><ele>2567.7</ele><time>2026-03-15T08:29:54.000Z</time></trkpt>
<trkpt lat="41.727257" lon="23.50977"><ele>2567.7</ele><time>2026-03-15T08:29:55.000Z</time></trkpt>
<trkpt lat="41.727249" lon="23.509758"><ele>2568</ele><time>2026-03-15T08:29:56.000Z</time></trkpt>
<trkpt lat="41.727241" lon="23.509746"><ele>2568</ele><time>2026-03-15T08:29:57.000Z</time></trkpt>
<trkpt lat="41.727234" lon="23.509736"><ele>2568</ele><time>2026-03-15T08:29:58.000Z</time></trkpt>
<trkpt lat="41.727227" lon="23.509726"><ele>2568</ele><time>2026-03-15T08:29:59.000Z</time></trkpt>
<trkpt lat="41.727222" lon="23.509718"><ele>2568</ele><time>2026-03-15T08:30:00.000Z</time></trkpt>
<trkpt lat="41.727218" lon="23.509713"><ele>2568.6</ele><time>2026-03-15T08:30:01.000Z</time></trkpt>
<trkpt lat="41.727216" lon="23.509709"><ele>2568.6</ele><time>2026-03-15T08:30:02.000Z</time></trkpt>
<trkpt lat="41.727215" lon="23.509706"><ele>2568.6</ele><time>2026-03-15T08:30:03.000Z</time></trkpt>
<trkpt lat="41.727215" lon="23.509705"><ele>2568.6</ele><time>2026-03-15T08:30:04.000Z</time></trkpt>
<trkpt lat="41.727215" lon="23.509704"><ele>2568.6</ele><time>2026-03-15T08:30:05.000Z</time></trkpt>
<trkpt lat="41.727214" lon="23.509703"><ele>2569.2</ele><time>2026-03-15T08:30:06.000Z</time></trkpt>
<trkpt lat="41.727214" lon="23.509703"><ele>2569.2</ele><time>2026-03-15T08:30:07.000Z</time></trkpt>
<trkpt lat="41.727214" lon="23.509703"><ele>2569.2</ele><time>2026-03-15T08:30:08.000Z</time></trkpt>
<trkpt lat="41.727214" lon="23.509703"><ele>2569.2</ele><time>2026-03-15T08:30:09.000Z</time></trkpt>
<trkpt lat="41.727214" lon="23.509703"><ele>2569.2</ele><time>2026-03-15T08:30:10.000Z</time></trkpt>
<trkpt lat="41.727214" lon="23.509703"><ele>2569.5</ele><time>2026-03-15T08:30:11.000Z</time></trkpt>
<trkpt lat="41.727213" lon="23.509702"><ele>2569.5</ele><time>2026-03-15T08:30:12.000Z</time></trkpt>
<trkpt lat="41.727211" lon="23.509699"><ele>2569.5</ele><time>2026-03-15T08:30:13.000Z</time></trkpt>
<trkpt lat="41.727207" lon="23.509695"><ele>2569.5</ele><time>2026-03-15T08:30:14.000Z</time></trkpt>
<trkpt lat="41.727203" lon="23.509689"><ele>2569.5</ele><time>2026-03-15T08:30:15.000Z</time></trkpt>
<trkpt lat="41.727196" lon="23.509681"><ele>2570</ele><time>2026-03-15T08:30:16.000Z</time></trkpt>
<trkpt lat="41.727189" lon="23.509672"><ele>2570</ele><time>2026-03-15T08:30:17.000Z</time></trkpt>
<trkpt lat="41.727183" lon="23.509664"><ele>2570</ele><time>2026-03-15T08:30:18.000Z</time></trkpt>
<trkpt lat="41.727179" lon="23.509656"><ele>2570</ele><time>2026-03-15T08:30:19.000Z</time></trkpt>
<trkpt lat="41.727175" lon="23.509647"><ele>2570</ele><time>2026-03-15T08:30:20.000Z</time></trkpt>
<trkpt lat="41.727174" lon="23.509638"><ele>2570.4</ele><time>2026-03-15T08:30:21.000Z</time></trkpt>
<trkpt lat="41.727174" lon="23.509629"><ele>2570.4</ele><time>2026-03-15T08:30:22.000Z</time></trkpt>
<trkpt lat="41.727174" lon="23.509619"><ele>2570.4</ele><time>2026-03-15T08:30:23.000Z</time></trkpt>
<trkpt lat="41.727174" lon="23.50961"><ele>2570.4</ele><time>2026-03-15T08:30:24.000Z</time></trkpt>
<trkpt lat="41.727173" lon="23.509601"><ele>2570.4</ele><time>2026-03-15T08:30:25.000Z</time></trkpt>
<trkpt lat="41.72717" lon="23.509592"><ele>2570.6</ele><time>2026-03-15T08:30:26.000Z</time></trkpt>
<trkpt lat="41.727166" lon="23.509585"><ele>2570.6</ele><time>2026-03-15T08:30:27.000Z</time></trkpt>
<trkpt lat="41.727161" lon="23.509576"><ele>2570.6</ele><time>2026-03-15T08:30:28.000Z</time></trkpt>
<trkpt lat="41.727155" lon="23.509567"><ele>2570.6</ele><time>2026-03-15T08:30:29.000Z</time></trkpt>
<trkpt lat="41.727147" lon="23.509559"><ele>2570.6</ele><time>2026-03-15T08:30:30.000Z</time></trkpt>
<trkpt lat="41.727139" lon="23.509551"><ele>2570.9</ele><time>2026-03-15T08:30:31.000Z</time></trkpt>
<trkpt lat="41.727131" lon="23.509543"><ele>2570.9</ele><time>2026-03-15T08:30:32.000Z</time></trkpt>
<trkpt lat="41.727123" lon="23.509535"><ele>2570.9</ele><time>2026-03-15T08:30:33.000Z</time></trkpt>
<trkpt lat="41.727115" lon="23.509529"><ele>2570.9</ele><time>2026-03-15T08:30:34.000Z</time></trkpt>
<trkpt lat="41.727108" lon="23.509522"><ele>2570.9</ele><time>2026-03-15T08:30:35.000Z</time></trkpt>
<trkpt lat="41.7271" lon="23.509516"><ele>2571.5</ele><time>2026-03-15T08:30:36.000Z</time></trkpt>
<trkpt lat="41.727092" lon="23.509509"><ele>2571.5</ele><time>2026-03-15T08:30:37.000Z</time></trkpt>
<trkpt lat="41.727083" lon="23.509503"><ele>2571.5</ele><time>2026-03-15T08:30:38.000Z</time></trkpt>
<trkpt lat="41.727073" lon="23.509495"><ele>2571.5</ele><time>2026-03-15T08:30:39.000Z</time></trkpt>
<trkpt lat="41.727062" lon="23.509487"><ele>2571.5</ele><time>2026-03-15T08:30:40.000Z</time></trkpt>
<trkpt lat="41.727053" lon="23.509479"><ele>2571.7</ele><time>2026-03-15T08:30:41.000Z</time></trkpt>
<trkpt lat="41.727045" lon="23.509471"><ele>2571.7</ele><time>2026-03-15T08:30:42.000Z</time></trkpt>
<trkpt lat="41.727036" lon="23.509463"><ele>2571.7</ele><time>2026-03-15T08:30:43.000Z</time></trkpt>
<trkpt lat="41.727028" lon="23.509455"><ele>2571.7</ele><time>2026-03-15T08:30:44.000Z</time></trkpt>
<trkpt lat="41.72702" lon="23.509447"><ele>2571.7</ele><time>2026-03-15T08:30:45.000Z</time></trkpt>
<trkpt lat="41.727012" lon="23.509439"><ele>2572.2</ele><time>2026-03-15T08:30:46.000Z</time></trkpt>
<trkpt lat="41.727003" lon="23.50943"><ele>2572.2</ele><time>2026-03-15T08:30:47.000Z</time></trkpt>
<trkpt lat="41.726994" lon="23.509422"><ele>2572.2</ele><time>2026-03-15T08:30:48.000Z</time></trkpt>
<trkpt lat="41.726985" lon="23.509414"><ele>2572.2</ele><time>2026-03-15T08:30:49.000Z</time></trkpt>
<trkpt lat="41.726976" lon="23.509406"><ele>2572.2</ele><time>2026-03-15T08:30:50.000Z</time></trkpt>
<trkpt lat="41.726967" lon="23.509398"><ele>2572.8</ele><time>2026-03-15T08:30:51.000Z</time></trkpt>
<trkpt lat="41.726959" lon="23.50939"><ele>2572.8</ele><time>2026-03-15T08:30:52.000Z</time></trkpt>
<trkpt lat="41.726951" lon="23.509382"><ele>2572.8</ele><time>2026-03-15T08:30:53.000Z</time></trkpt>
<trkpt lat="41.726943" lon="23.509375"><ele>2572.8</ele><time>2026-03-15T08:30:54.000Z</time></trkpt>
<trkpt lat="41.726937" lon="23.509368"><ele>2572.8</ele><time>2026-03-15T08:30:55.000Z</time></trkpt>
<trkpt lat="41.72693" lon="23.509361"><ele>2573.1</ele><time>2026-03-15T08:30:56.000Z</time></trkpt>
<trkpt lat="41.726924" lon="23.509355"><ele>2573.1</ele><time>2026-03-15T08:30:57.000Z</time></trkpt>
<trkpt lat="41.726917" lon="23.509348"><ele>2573.1</ele><time>2026-03-15T08:30:58.000Z</time></trkpt>
<trkpt lat="41.72691" lon="23.50934"><ele>2573.1</ele><time>2026-03-15T08:30:59.000Z</time></trkpt>
<trkpt lat="41.726902" lon="23.509332"><ele>2573.1</ele><time>2026-03-15T08:31:00.000Z</time></trkpt>
<trkpt lat="41.726894" lon="23.509325"><ele>2573.8</ele><time>2026-03-15T08:31:01.000Z</time></trkpt>
<trkpt lat="41.726887" lon="23.509317"><ele>2573.8</ele><time>2026-03-15T08:31:02.000Z</time></trkpt>
<trkpt lat="41.726879" lon="23.509308"><ele>2573.8</ele><time>2026-03-15T08:31:03.000Z</time></trkpt>
<trkpt lat="41.726872" lon="23.5093"><ele>2573.8</ele><time>2026-03-15T08:31:04.000Z</time></trkpt>
<trkpt lat="41.726864" lon="23.509292"><ele>2573.8</ele><time>2026-03-15T08:31:05.000Z</time></trkpt>
<trkpt lat="41.726856" lon="23.509283"><ele>2574.5</ele><time>2026-03-15T08:31:06.000Z</time></trkpt>
<trkpt lat="41.726848" lon="23.509276"><ele>2574.5</ele><time>2026-03-15T08:31:07.000Z</time></trkpt>
<trkpt lat="41.726841" lon="23.50927"><ele>2574.5</ele><time>2026-03-15T08:31:08.000Z</time></trkpt>
<trkpt lat="41.726833" lon="23.509265"><ele>2574.5</ele><time>2026-03-15T08:31:09.000Z</time></trkpt>
<trkpt lat="41.726828" lon="23.509259"><ele>2574.5</ele><time>2026-03-15T08:31:10.000Z</time></trkpt>
<trkpt lat="41.726825" lon="23.509255"><ele>2574.9</ele><time>2026-03-15T08:31:11.000Z</time></trkpt>
<trkpt lat="41.726822" lon="23.509252"><ele>2574.9</ele><time>2026-03-15T08:31:12.000Z</time></trkpt>
<trkpt lat="41.726821" lon="23.50925"><ele>2574.9</ele><time>2026-03-15T08:31:13.000Z</time></trkpt>
<trkpt lat="41.726821" lon="23.509249"><ele>2574.9</ele><time>2026-03-15T08:31:14.000Z</time></trkpt>
<trkpt lat="41.726821" lon="23.509249"><ele>2574.9</ele><time>2026-03-15T08:31:15.000Z</time></trkpt>
<trkpt lat="41.726821" lon="23.509249"><ele>2575.7</ele><time>2026-03-15T08:31:16.000Z</time></trkpt>
<trkpt lat="41.726821" lon="23.509249"><ele>2575.7</ele><time>2026-03-15T08:31:17.000Z</time></trkpt>
<trkpt lat="41.726821" lon="23.50925"><ele>2575.7</ele><time>2026-03-15T08:31:18.000Z</time></trkpt>
<trkpt lat="41.726821" lon="23.50925"><ele>2575.7</ele><time>2026-03-15T08:31:19.000Z</time></trkpt>
<trkpt lat="41.726821" lon="23.50925"><ele>2575.7</ele><time>2026-03-15T08:31:20.000Z</time></trkpt>
<trkpt lat="41.726821" lon="23.509251"><ele>2576.2</ele><time>2026-03-15T08:31:21.000Z</time></trkpt>
<trkpt lat="41.726821" lon="23.509251"><ele>2576.2</ele><time>2026-03-15T08:31:22.000Z</time></trkpt>
<trkpt lat="41.72682" lon="23.509252"><ele>2576.2</ele><time>2026-03-15T08:31:23.000Z</time></trkpt>
<trkpt lat="41.726819" lon="23.509252"><ele>2576.2</ele><time>2026-03-15T08:31:24.000Z</time></trkpt>
<trkpt lat="41.726818" lon="23.509253"><ele>2576.2</ele><time>2026-03-15T08:31:25.000Z</time></trkpt>
<trkpt lat="41.726817" lon="23.509253"><ele>2576.4</ele><time>2026-03-15T08:31:26.000Z</time></trkpt>
<trkpt lat="41.726817" lon="23.509253"><ele>2576.4</ele><time>2026-03-15T08:31:27.000Z</time></trkpt>
<trkpt lat="41.726817" lon="23.509254"><ele>2576.4</ele><time>2026-03-15T08:31:28.000Z</time></trkpt>
<trkpt lat="41.726817" lon="23.509255"><ele>2576.4</ele><time>2026-03-15T08:31:29.000Z</time></trkpt>
<trkpt lat="41.726815" lon="23.509254"><ele>2576.4</ele><time>2026-03-15T08:31:30.000Z</time></trkpt>
<trkpt lat="41.726811" lon="23.509251"><ele>2576.7</ele><time>2026-03-15T08:31:31.000Z</time></trkpt>
<trkpt lat="41.726807" lon="23.509247"><ele>2576.7</ele><time>2026-03-15T08:31:32.000Z</time></trkpt>
<trkpt lat="41.726801" lon="23.509239"><ele>2576.7</ele><time>2026-03-15T08:31:33.000Z</time></trkpt>
<trkpt lat="41.726793" lon="23.509231"><ele>2576.7</ele><time>2026-03-15T08:31:34.000Z</time></trkpt>
<trkpt lat="41.726787" lon="23.509223"><ele>2576.7</ele><time>2026-03-15T08:31:35.000Z</time></trkpt>
<trkpt lat="41.726779" lon="23.509215"><ele>2577</ele><time>2026-03-15T08:31:36.000Z</time></trkpt>
<trkpt lat="41.726771" lon="23.509208"><ele>2577</ele><time>2026-03-15T08:31:37.000Z</time></trkpt>
<trkpt lat="41.726762" lon="23.509201"><ele>2577</ele><time>2026-03-15T08:31:38.000Z</time></trkpt>
<trkpt lat="41.726753" lon="23.509195"><ele>2577</ele><time>2026-03-15T08:31:39.000Z</time></trkpt>
<trkpt lat="41.726743" lon="23.509187"><ele>2577</ele><time>2026-03-15T08:31:40.000Z</time></trkpt>
<trkpt lat="41.726734" lon="23.509179"><ele>2577.1</ele><time>2026-03-15T08:31:41.000Z</time></trkpt>
<trkpt lat="41.726725" lon="23.509172"><ele>2577.1</ele><time>2026-03-15T08:31:42.000Z</time></trkpt>
<trkpt lat="41.726717" lon="23.509164"><ele>2577.1</ele><time>2026-03-15T08:31:43.000Z</time></trkpt>
<trkpt lat="41.726708" lon="23.509157"><ele>2577.1</ele><time>2026-03-15T08:31:44.000Z</time></trkpt>
<trkpt lat="41.726699" lon="23.50915"><ele>2577.1</ele><time>2026-03-15T08:31:45.000Z</time></trkpt>
<trkpt lat="41.72669" lon="23.509142"><ele>2577.5</ele><time>2026-03-15T08:31:46.000Z</time></trkpt>
<trkpt lat="41.726681" lon="23.509133"><ele>2577.5</ele><time>2026-03-15T08:31:47.000Z</time></trkpt>
<trkpt lat="41.726671" lon="23.509125"><ele>2577.5</ele><time>2026-03-15T08:31:48.000Z</time></trkpt>
<trkpt lat="41.726662" lon="23.509116"><ele>2577.5</ele><time>2026-03-15T08:31:49.000Z</time></trkpt>
<trkpt lat="41.726654" lon="23.509108"><ele>2577.5</ele><time>2026-03-15T08:31:50.000Z</time></trkpt>
<trkpt lat="41.726645" lon="23.509101"><ele>2578</ele><time>2026-03-15T08:31:51.000Z</time></trkpt>
<trkpt lat="41.726637" lon="23.509094"><ele>2578</ele><time>2026-03-15T08:31:52.000Z</time></trkpt>
<trkpt lat="41.726629" lon="23.509087"><ele>2578</ele><time>2026-03-15T08:31:53.000Z</time></trkpt>
<trkpt lat="41.726621" lon="23.50908"><ele>2578</ele><time>2026-03-15T08:31:54.000Z</time></trkpt>
<trkpt lat="41.726613" lon="23.509074"><ele>2578</ele><time>2026-03-15T08:31:55.000Z</time></trkpt>
<trkpt lat="41.726605" lon="23.509066"><ele>2578.5</ele><time>2026-03-15T08:31:56.000Z</time></trkpt>
<trkpt lat="41.726597" lon="23.509058"><ele>2578.5</ele><time>2026-03-15T08:31:57.000Z</time></trkpt>
<trkpt lat="41.726588" lon="23.50905"><ele>2578.5</ele><time>2026-03-15T08:31:58.000Z</time></trkpt>
<trkpt lat="41.726579" lon="23.509043"><ele>2578.5</ele><time>2026-03-15T08:31:59.000Z</time></trkpt>
<trkpt lat="41.72657" lon="23.509034"><ele>2578.5</ele><time>2026-03-15T08:32:00.000Z</time></trkpt>
<trkpt lat="41.726561" lon="23.509026"><ele>2579.5</ele><time>2026-03-15T08:32:01.000Z</time></trkpt>
<trkpt lat="41.726553" lon="23.509019"><ele>2579.5</ele><time>2026-03-15T08:32:02.000Z</time></trkpt>
<trkpt lat="41.726544" lon="23.509011"><ele>2579.5</ele><time>2026-03-15T08:32:03.000Z</time></trkpt>
<trkpt lat="41.726535" lon="23.509004"><ele>2579.5</ele><time>2026-03-15T08:32:04.000Z</time></trkpt>
<trkpt lat="41.726526" lon="23.508997"><ele>2579.5</ele><time>2026-03-15T08:32:05.000Z</time></trkpt>
<trkpt lat="41.726518" lon="23.50899"><ele>2580.4</ele><time>2026-03-15T08:32:06.000Z</time></trkpt>
<trkpt lat="41.726509" lon="23.508983"><ele>2580.4</ele><time>2026-03-15T08:32:07.000Z</time></trkpt>
<trkpt lat="41.726501" lon="23.508976"><ele>2580.4</ele><time>2026-03-15T08:32:08.000Z</time></trkpt>
<trkpt lat="41.726491" lon="23.50897"><ele>2580.4</ele><time>2026-03-15T08:32:09.000Z</time></trkpt>
<trkpt lat="41.726482" lon="23.508964"><ele>2580.4</ele><time>2026-03-15T08:32:10.000Z</time></trkpt>
<trkpt lat="41.726473" lon="23.508958"><ele>2580.8</ele><time>2026-03-15T08:32:11.000Z</time></trkpt>
<trkpt lat="41.726463" lon="23.508951"><ele>2580.8</ele><time>2026-03-15T08:32:12.000Z</time></trkpt>
<trkpt lat="41.726454" lon="23.508945"><ele>2580.8</ele><time>2026-03-15T08:32:13.000Z</time></trkpt>
<trkpt lat="41.726448" lon="23.508939"><ele>2580.8</ele><time>2026-03-15T08:32:14.000Z</time></trkpt>
<trkpt lat="41.726443" lon="23.508935"><ele>2580.8</ele><time>2026-03-15T08:32:15.000Z</time></trkpt>
<trkpt lat="41.726438" lon="23.508932"><ele>2581.4</ele><time>2026-03-15T08:32:16.000Z</time></trkpt>
<trkpt lat="41.726434" lon="23.50893"><ele>2581.4</ele><time>2026-03-15T08:32:17.000Z</time></trkpt>
<trkpt lat="41.726429" lon="23.508928"><ele>2581.4</ele><time>2026-03-15T08:32:18.000Z</time></trkpt>
<trkpt lat="41.726421" lon="23.508925"><ele>2581.4</ele><time>2026-03-15T08:32:19.000Z</time></trkpt>
<trkpt lat="41.726413" lon="23.508919"><ele>2581.4</ele><time>2026-03-15T08:32:20.000Z</time></trkpt>
<trkpt lat="41.726404" lon="23.508912"><ele>2582</ele><time>2026-03-15T08:32:21.000Z</time></trkpt>
<trkpt lat="41.726395" lon="23.508906"><ele>2582</ele><time>2026-03-15T08:32:22.000Z</time></trkpt>
<trkpt lat="41.726386" lon="23.508899"><ele>2582</ele><time>2026-03-15T08:32:23.000Z</time></trkpt>
<trkpt lat="41.726378" lon="23.508892"><ele>2582</ele><time>2026-03-15T08:32:24.000Z</time></trkpt>
<trkpt lat="41.72637" lon="23.508887"><ele>2582</ele><time>2026-03-15T08:32:25.000Z</time></trkpt>
<trkpt lat="41.726362" lon="23.508882"><ele>2582.3</ele><time>2026-03-15T08:32:26.000Z</time></trkpt>
<trkpt lat="41.726354" lon="23.508876"><ele>2582.3</ele><time>2026-03-15T08:32:27.000Z</time></trkpt>
<trkpt lat="41.726346" lon="23.50887"><ele>2582.3</ele><time>2026-03-15T08:32:28.000Z</time></trkpt>
<trkpt lat="41.726337" lon="23.508864"><ele>2582.3</ele><time>2026-03-15T08:32:29.000Z</time></trkpt>
<trkpt lat="41.72633" lon="23.508858"><ele>2582.3</ele><time>2026-03-15T08:32:30.000Z</time></trkpt>
<trkpt lat="41.726322" lon="23.508852"><ele>2582.9</ele><time>2026-03-15T08:32:31.000Z</time></trkpt>
<trkpt lat="41.726314" lon="23.508846"><ele>2582.9</ele><time>2026-03-15T08:32:32.000Z</time></trkpt>
<trkpt lat="41.726307" lon="23.50884"><ele>2582.9</ele><time>2026-03-15T08:32:33.000Z</time></trkpt>
<trkpt lat="41.726299" lon="23.508833"><ele>2582.9</ele><time>2026-03-15T08:32:34.000Z</time></trkpt>
<trkpt lat="41.726291" lon="23.508827"><ele>2582.9</ele><time>2026-03-15T08:32:35.000Z</time></trkpt>
<trkpt lat="41.726282" lon="23.508821"><ele>2583.5</ele><time>2026-03-15T08:32:36.000Z</time></trkpt>
<trkpt lat="41.726274" lon="23.508815"><ele>2583.5</ele><time>2026-03-15T08:32:37.000Z</time></trkpt>
<trkpt lat="41.726265" lon="23.50881"><ele>2583.5</ele><time>2026-03-15T08:32:38.000Z</time></trkpt>
<trkpt lat="41.726256" lon="23.508806"><ele>2583.5</ele><time>2026-03-15T08:32:39.000Z</time></trkpt>
<trkpt lat="41.726248" lon="23.508801"><ele>2583.5</ele><time>2026-03-15T08:32:40.000Z</time></trkpt>
<trkpt lat="41.72624" lon="23.508797"><ele>2583.9</ele><time>2026-03-15T08:32:41.000Z</time></trkpt>
<trkpt lat="41.726233" lon="23.508793"><ele>2583.9</ele><time>2026-03-15T08:32:42.000Z</time></trkpt>
<trkpt lat="41.726226" lon="23.508789"><ele>2583.9</ele><time>2026-03-15T08:32:43.000Z</time></trkpt>
<trkpt lat="41.726219" lon="23.508783"><ele>2583.9</ele><time>2026-03-15T08:32:44.000Z</time></trkpt>
<trkpt lat="41.726213" lon="23.508778"><ele>2583.9</ele><time>2026-03-15T08:32:45.000Z</time></trkpt>
<trkpt lat="41.726206" lon="23.508773"><ele>2584.7</ele><time>2026-03-15T08:32:46.000Z</time></trkpt>
<trkpt lat="41.7262" lon="23.508769"><ele>2584.7</ele><time>2026-03-15T08:32:47.000Z</time></trkpt>
<trkpt lat="41.726193" lon="23.508764"><ele>2584.7</ele><time>2026-03-15T08:32:48.000Z</time></trkpt>
<trkpt lat="41.726186" lon="23.508759"><ele>2584.7</ele><time>2026-03-15T08:32:49.000Z</time></trkpt>
<trkpt lat="41.726178" lon="23.508754"><ele>2584.7</ele><time>2026-03-15T08:32:50.000Z</time></trkpt>
<trkpt lat="41.72617" lon="23.508749"><ele>2585.6</ele><time>2026-03-15T08:32:51.000Z</time></trkpt>
<trkpt lat="41.726162" lon="23.508743"><ele>2585.6</ele><time>2026-03-15T08:32:52.000Z</time></trkpt>
<trkpt lat="41.726154" lon="23.508738"><ele>2585.6</ele><time>2026-03-15T08:32:53.000Z</time></trkpt>
<trkpt lat="41.726147" lon="23.508734"><ele>2585.6</ele><time>2026-03-15T08:32:54.000Z</time></trkpt>
<trkpt lat="41.72614" lon="23.508729"><ele>2585.6</ele><time>2026-03-15T08:32:55.000Z</time></trkpt>
<trkpt lat="41.726132" lon="23.508723"><ele>2586</ele><time>2026-03-15T08:32:56.000Z</time></trkpt>
<trkpt lat="41.726125" lon="23.508718"><ele>2586</ele><time>2026-03-15T08:32:57.000Z</time></trkpt>
<trkpt lat="41.726117" lon="23.508712"><ele>2586</ele><time>2026-03-15T08:32:58.000Z</time></trkpt>
<trkpt lat="41.72611" lon="23.508706"><ele>2586</ele><time>2026-03-15T08:32:59.000Z</time></trkpt>
<trkpt lat="41.726103" lon="23.5087"><ele>2586</ele><time>2026-03-15T08:33:00.000Z</time></trkpt>
<trkpt lat="41.726095" lon="23.508695"><ele>2586.8</ele><time>2026-03-15T08:33:01.000Z</time></trkpt>
<trkpt lat="41.726087" lon="23.508689"><ele>2586.8</ele><time>2026-03-15T08:33:02.000Z</time></trkpt>
<trkpt lat="41.726079" lon="23.508685"><ele>2586.8</ele><time>2026-03-15T08:33:03.000Z</time></trkpt>
<trkpt lat="41.72607" lon="23.50868"><ele>2586.8</ele><time>2026-03-15T08:33:04.000Z</time></trkpt>
<trkpt lat="41.726062" lon="23.508675"><ele>2586.8</ele><time>2026-03-15T08:33:05.000Z</time></trkpt>
<trkpt lat="41.726054" lon="23.50867"><ele>2587.6</ele><time>2026-03-15T08:33:06.000Z</time></trkpt>
<trkpt lat="41.726046" lon="23.508665"><ele>2587.6</ele><time>2026-03-15T08:33:07.000Z</time></trkpt>
<trkpt lat="41.726038" lon="23.508661"><ele>2587.6</ele><time>2026-03-15T08:33:08.000Z</time></trkpt>
<trkpt lat="41.726031" lon="23.508655"><ele>2587.6</ele><time>2026-03-15T08:33:09.000Z</time></trkpt>
<trkpt lat="41.726024" lon="23.508649"><ele>2587.6</ele><time>2026-03-15T08:33:10.000Z</time></trkpt>
<trkpt lat="41.726016" lon="23.508644"><ele>2588</ele><time>2026-03-15T08:33:11.000Z</time></trkpt>
<trkpt lat="41.726009" lon="23.508637"><ele>2588</ele><time>2026-03-15T08:33:12.000Z</time></trkpt>
<trkpt lat="41.726002" lon="23.50863"><ele>2588</ele><time>2026-03-15T08:33:13.000Z</time></trkpt>
<trkpt lat="41.725995" lon="23.508624"><ele>2588</ele><time>2026-03-15T08:33:14.000Z</time></trkpt>
<trkpt lat="41.725988" lon="23.508617"><ele>2588</ele><time>2026-03-15T08:33:15.000Z</time></trkpt>
<trkpt lat="41.725981" lon="23.508611"><ele>2588.8</ele><time>2026-03-15T08:33:16.000Z</time></trkpt>
<trkpt lat="41.725975" lon="23.508604"><ele>2588.8</ele><time>2026-03-15T08:33:17.000Z</time></trkpt>
<trkpt lat="41.725966" lon="23.508597"><ele>2588.8</ele><time>2026-03-15T08:33:18.000Z</time></trkpt>
<trkpt lat="41.725957" lon="23.50859"><ele>2588.8</ele><time>2026-03-15T08:33:19.000Z</time></trkpt>
<trkpt lat="41.725949" lon="23.508585"><ele>2588.8</ele><time>2026-03-15T08:33:20.000Z</time></trkpt>
<trkpt lat="41.725939" lon="23.508579"><ele>2589.7</ele><time>2026-03-15T08:33:21.000Z</time></trkpt>
<trkpt lat="41.725929" lon="23.508574"><ele>2589.7</ele><time>2026-03-15T08:33:22.000Z</time></trkpt>
<trkpt lat="41.725921" lon="23.50857"><ele>2589.7</ele><time>2026-03-15T08:33:23.000Z</time></trkpt>
<trkpt lat="41.725913" lon="23.508566"><ele>2589.7</ele><time>2026-03-15T08:33:24.000Z</time></trkpt>
<trkpt lat="41.725904" lon="23.508561"><ele>2589.7</ele><time>2026-03-15T08:33:25.000Z</time></trkpt>
<trkpt lat="41.725896" lon="23.508555"><ele>2590.1</ele><time>2026-03-15T08:33:26.000Z</time></trkpt>
<trkpt lat="41.725889" lon="23.50855"><ele>2590.1</ele><time>2026-03-15T08:33:27.000Z</time></trkpt>
<trkpt lat="41.725881" lon="23.508543"><ele>2590.1</ele><time>2026-03-15T08:33:28.000Z</time></trkpt>
<trkpt lat="41.725873" lon="23.508537"><ele>2590.1</ele><time>2026-03-15T08:33:29.000Z</time></trkpt>
<trkpt lat="41.725865" lon="23.508531"><ele>2590.1</ele><time>2026-03-15T08:33:30.000Z</time></trkpt>
<trkpt lat="41.725857" lon="23.508525"><ele>2590.9</ele><time>2026-03-15T08:33:31.000Z</time></trkpt>
<trkpt lat="41.725849" lon="23.50852"><ele>2590.9</ele><time>2026-03-15T08:33:32.000Z</time></trkpt>
<trkpt lat="41.725841" lon="23.508515"><ele>2590.9</ele><time>2026-03-15T08:33:33.000Z</time></trkpt>
<trkpt lat="41.725833" lon="23.508509"><ele>2590.9</ele><time>2026-03-15T08:33:34.000Z</time></trkpt>
<trkpt lat="41.725825" lon="23.508504"><ele>2590.9</ele><time>2026-03-15T08:33:35.000Z</time></trkpt>
<trkpt lat="41.725816" lon="23.508499"><ele>2591.7</ele><time>2026-03-15T08:33:36.000Z</time></trkpt>
<trkpt lat="41.725807" lon="23.508493"><ele>2591.7</ele><time>2026-03-15T08:33:37.000Z</time></trkpt>
<trkpt lat="41.725797" lon="23.508489"><ele>2591.7</ele><time>2026-03-15T08:33:38.000Z</time></trkpt>
<trkpt lat="41.725788" lon="23.508485"><ele>2591.7</ele><time>2026-03-15T08:33:39.000Z</time></trkpt>
<trkpt lat="41.725779" lon="23.50848"><ele>2591.7</ele><time>2026-03-15T08:33:40.000Z</time></trkpt>
<trkpt lat="41.72577" lon="23.508476"><ele>2592.1</ele><time>2026-03-15T08:33:41.000Z</time></trkpt>
<trkpt lat="41.725763" lon="23.508472"><ele>2592.1</ele><time>2026-03-15T08:33:42.000Z</time></trkpt>
<trkpt lat="41.725755" lon="23.508466"><ele>2592.1</ele><time>2026-03-15T08:33:43.000Z</time></trkpt>
<trkpt lat="41.725748" lon="23.508461"><ele>2592.1</ele><time>2026-03-15T08:33:44.000Z</time></trkpt>
<trkpt lat="41.725742" lon="23.508458"><ele>2592.1</ele><time>2026-03-15T08:33:45.000Z</time></trkpt>
<trkpt lat="41.725736" lon="23.508453"><ele>2592.8</ele><time>2026-03-15T08:33:46.000Z</time></trkpt>
<trkpt lat="41.725729" lon="23.508449"><ele>2592.8</ele><time>2026-03-15T08:33:47.000Z</time></trkpt>
<trkpt lat="41.725722" lon="23.508446"><ele>2592.8</ele><time>2026-03-15T08:33:48.000Z</time></trkpt>
<trkpt lat="41.725713" lon="23.508443"><ele>2592.8</ele><time>2026-03-15T08:33:49.000Z</time></trkpt>
<trkpt lat="41.725703" lon="23.508439"><ele>2592.8</ele><time>2026-03-15T08:33:50.000Z</time></trkpt>
<trkpt lat="41.725693" lon="23.508434"><ele>2593.5</ele><time>2026-03-15T08:33:51.000Z</time></trkpt>
<trkpt lat="41.725682" lon="23.50843"><ele>2593.5</ele><time>2026-03-15T08:33:52.000Z</time></trkpt>
<trkpt lat="41.725673" lon="23.508426"><ele>2593.5</ele><time>2026-03-15T08:33:53.000Z</time></trkpt>
<trkpt lat="41.725663" lon="23.508421"><ele>2593.5</ele><time>2026-03-15T08:33:54.000Z</time></trkpt>
<trkpt lat="41.725654" lon="23.508415"><ele>2593.5</ele><time>2026-03-15T08:33:55.000Z</time></trkpt>
<trkpt lat="41.725646" lon="23.50841"><ele>2594</ele><time>2026-03-15T08:33:56.000Z</time></trkpt>
<trkpt lat="41.725639" lon="23.508405"><ele>2594</ele><time>2026-03-15T08:33:57.000Z</time></trkpt>
<trkpt lat="41.725631" lon="23.508399"><ele>2594</ele><time>2026-03-15T08:33:58.000Z</time></trkpt>
<trkpt lat="41.725624" lon="23.508394"><ele>2594</ele><time>2026-03-15T08:33:59.000Z</time></trkpt>
<trkpt lat="41.725616" lon="23.508388"><ele>2594</ele><time>2026-03-15T08:34:00.000Z</time></trkpt>
<trkpt lat="41.725607" lon="23.508382"><ele>2594.9</ele><time>2026-03-15T08:34:01.000Z</time></trkpt>
<trkpt lat="41.725599" lon="23.508377"><ele>2594.9</ele><time>2026-03-15T08:34:02.000Z</time></trkpt>
<trkpt lat="41.725591" lon="23.508372"><ele>2594.9</ele><time>2026-03-15T08:34:03.000Z</time></trkpt>
<trkpt lat="41.725583" lon="23.508367"><ele>2594.9</ele><time>2026-03-15T08:34:04.000Z</time></trkpt>
<trkpt lat="41.725576" lon="23.508363"><ele>2594.9</ele><time>2026-03-15T08:34:05.000Z</time></trkpt>
<trkpt lat="41.725569" lon="23.50836"><ele>2595.7</ele><time>2026-03-15T08:34:06.000Z</time></trkpt>
<trkpt lat="41.725562" lon="23.508357"><ele>2595.7</ele><time>2026-03-15T08:34:07.000Z</time></trkpt>
<trkpt lat="41.725555" lon="23.508355"><ele>2595.7</ele><time>2026-03-15T08:34:08.000Z</time></trkpt>
<trkpt lat="41.725548" lon="23.508352"><ele>2595.7</ele><time>2026-03-15T08:34:09.000Z</time></trkpt>
<trkpt lat="41.72554" lon="23.508347"><ele>2595.7</ele><time>2026-03-15T08:34:10.000Z</time></trkpt>
<trkpt lat="41.725533" lon="23.508342"><ele>2596.1</ele><time>2026-03-15T08:34:11.000Z</time></trkpt>
<trkpt lat="41.725526" lon="23.508336"><ele>2596.1</ele><time>2026-03-15T08:34:12.000Z</time></trkpt>
<trkpt lat="41.725518" lon="23.50833"><ele>2596.1</ele><time>2026-03-15T08:34:13.000Z</time></trkpt>
<trkpt lat="41.725509" lon="23.508325"><ele>2596.1</ele><time>2026-03-15T08:34:14.000Z</time></trkpt>
<trkpt lat="41.725501" lon="23.50832"><ele>2596.1</ele><time>2026-03-15T08:34:15.000Z</time></trkpt>
<trkpt lat="41.725492" lon="23.508314"><ele>2596.7</ele><time>2026-03-15T08:34:16.000Z</time></trkpt>
<trkpt lat="41.725483" lon="23.50831"><ele>2596.7</ele><time>2026-03-15T08:34:17.000Z</time></trkpt>
<trkpt lat="41.725475" lon="23.508305"><ele>2596.7</ele><time>2026-03-15T08:34:18.000Z</time></trkpt>
<trkpt lat="41.725467" lon="23.5083"><ele>2596.7</ele><time>2026-03-15T08:34:19.000Z</time></trkpt>
<trkpt lat="41.725459" lon="23.508296"><ele>2596.7</ele><time>2026-03-15T08:34:20.000Z</time></trkpt>
<trkpt lat="41.725452" lon="23.508291"><ele>2597.6</ele><time>2026-03-15T08:34:21.000Z</time></trkpt>
<trkpt lat="41.725444" lon="23.508287"><ele>2597.6</ele><time>2026-03-15T08:34:22.000Z</time></trkpt>
<trkpt lat="41.725436" lon="23.508282"><ele>2597.6</ele><time>2026-03-15T08:34:23.000Z</time></trkpt>
<trkpt lat="41.725429" lon="23.508278"><ele>2597.6</ele><time>2026-03-15T08:34:24.000Z</time></trkpt>
<trkpt lat="41.725422" lon="23.508273"><ele>2597.6</ele><time>2026-03-15T08:34:25.000Z</time></trkpt>
<trkpt lat="41.725414" lon="23.508268"><ele>2598</ele><time>2026-03-15T08:34:26.000Z</time></trkpt>
<trkpt lat="41.725409" lon="23.508264"><ele>2598</ele><time>2026-03-15T08:34:27.000Z</time></trkpt>
<trkpt lat="41.725403" lon="23.508258"><ele>2598</ele><time>2026-03-15T08:34:28.000Z</time></trkpt>
<trkpt lat="41.725397" lon="23.508252"><ele>2598</ele><time>2026-03-15T08:34:29.000Z</time></trkpt>
<trkpt lat="41.72539" lon="23.508247"><ele>2598</ele><time>2026-03-15T08:34:30.000Z</time></trkpt>
<trkpt lat="41.725384" lon="23.508242"><ele>2598.9</ele><time>2026-03-15T08:34:31.000Z</time></trkpt>
<trkpt lat="41.725376" lon="23.508237"><ele>2598.9</ele><time>2026-03-15T08:34:32.000Z</time></trkpt>
<trkpt lat="41.725368" lon="23.508233"><ele>2598.9</ele><time>2026-03-15T08:34:33.000Z</time></trkpt>
<trkpt lat="41.725361" lon="23.508228"><ele>2598.9</ele><time>2026-03-15T08:34:34.000Z</time></trkpt>
<trkpt lat="41.725353" lon="23.508223"><ele>2598.9</ele><time>2026-03-15T08:34:35.000Z</time></trkpt>
<trkpt lat="41.725346" lon="23.508219"><ele>2599.6</ele><time>2026-03-15T08:34:36.000Z</time></trkpt>
<trkpt lat="41.725339" lon="23.508213"><ele>2599.6</ele><time>2026-03-15T08:34:37.000Z</time></trkpt>
<trkpt lat="41.725333" lon="23.50821"><ele>2599.6</ele><time>2026-03-15T08:34:38.000Z</time></trkpt>
<trkpt lat="41.725326" lon="23.508205"><ele>2599.6</ele><time>2026-03-15T08:34:39.000Z</time></trkpt>
<trkpt lat="41.72532" lon="23.508201"><ele>2599.6</ele><time>2026-03-15T08:34:40.000Z</time></trkpt>
<trkpt lat="41.725313" lon="23.508196"><ele>2599.9</ele><time>2026-03-15T08:34:41.000Z</time></trkpt>
<trkpt lat="41.725307" lon="23.508192"><ele>2599.9</ele><time>2026-03-15T08:34:42.000Z</time></trkpt>
<trkpt lat="41.7253" lon="23.508188"><ele>2599.9</ele><time>2026-03-15T08:34:43.000Z</time></trkpt>
<trkpt lat="41.725292" lon="23.508183"><ele>2599.9</ele><time>2026-03-15T08:34:44.000Z</time></trkpt>
<trkpt lat="41.725284" lon="23.508179"><ele>2599.9</ele><time>2026-03-15T08:34:45.000Z</time></trkpt>
<trkpt lat="41.725276" lon="23.508175"><ele>2600.8</ele><time>2026-03-15T08:34:46.000Z</time></trkpt>
<trkpt lat="41.725268" lon="23.508173"><ele>2600.8</ele><time>2026-03-15T08:34:47.000Z</time></trkpt>
<trkpt lat="41.72526" lon="23.50817"><ele>2600.8</ele><time>2026-03-15T08:34:48.000Z</time></trkpt>
<trkpt lat="41.725251" lon="23.508168"><ele>2600.8</ele><time>2026-03-15T08:34:49.000Z</time></trkpt>
<trkpt lat="41.725243" lon="23.508166"><ele>2600.8</ele><time>2026-03-15T08:34:50.000Z</time></trkpt>
<trkpt lat="41.725236" lon="23.508163"><ele>2601.9</ele><time>2026-03-15T08:34:51.000Z</time></trkpt>
<trkpt lat="41.725229" lon="23.508161"><ele>2601.9</ele><time>2026-03-15T08:34:52.000Z</time></trkpt>
<trkpt lat="41.725222" lon="23.508157"><ele>2601.9</ele><time>2026-03-15T08:34:53.000Z</time></trkpt>
<trkpt lat="41.725216" lon="23.508154"><ele>2601.9</ele><time>2026-03-15T08:34:54.000Z</time></trkpt>
<trkpt lat="41.725211" lon="23.508151"><ele>2601.9</ele><time>2026-03-15T08:34:55.000Z</time></trkpt>
<trkpt lat="41.725207" lon="23.508149"><ele>2602.5</ele><time>2026-03-15T08:34:56.000Z</time></trkpt>
<trkpt lat="41.725204" lon="23.508146"><ele>2602.5</ele><time>2026-03-15T08:34:57.000Z</time></trkpt>
<trkpt lat="41.725201" lon="23.508145"><ele>2602.5</ele><time>2026-03-15T08:34:58.000Z</time></trkpt>
<trkpt lat="41.7252" lon="23.508144"><ele>2602.5</ele><time>2026-03-15T08:34:59.000Z</time></trkpt>
<trkpt lat="41.7252" lon="23.508143"><ele>2602.5</ele><time>2026-03-15T08:35:00.000Z</time></trkpt>
<trkpt lat="41.725201" lon="23.508142"><ele>2603.6</ele><time>2026-03-15T08:35:01.000Z</time></trkpt>
<trkpt lat="41.725201" lon="23.508141"><ele>2603.6</ele><time>2026-03-15T08:35:02.000Z</time></trkpt>
<trkpt lat="41.725203" lon="23.50814"><ele>2603.6</ele><time>2026-03-15T08:35:03.000Z</time></trkpt>
<trkpt lat="41.725203" lon="23.508139"><ele>2603.6</ele><time>2026-03-15T08:35:04.000Z</time></trkpt>
<trkpt lat="41.725203" lon="23.508138"><ele>2603.6</ele><time>2026-03-15T08:35:05.000Z</time></trkpt>
<trkpt lat="41.725202" lon="23.508137"><ele>2604.5</ele><time>2026-03-15T08:35:06.000Z</time></trkpt>
<trkpt lat="41.725201" lon="23.508136"><ele>2604.5</ele><time>2026-03-15T08:35:07.000Z</time></trkpt>
<trkpt lat="41.7252" lon="23.508135"><ele>2604.5</ele><time>2026-03-15T08:35:08.000Z</time></trkpt>
<trkpt lat="41.725199" lon="23.508134"><ele>2604.5</ele><time>2026-03-15T08:35:09.000Z</time></trkpt>
<trkpt lat="41.725199" lon="23.508135"><ele>2604.5</ele><time>2026-03-15T08:35:10.000Z</time></trkpt>
<trkpt lat="41.7252" lon="23.508137"><ele>2604.8</ele><time>2026-03-15T08:35:11.000Z</time></trkpt>
<trkpt lat="41.7252" lon="23.508138"><ele>2604.8</ele><time>2026-03-15T08:35:12.000Z</time></trkpt>
<trkpt lat="41.725199" lon="23.508139"><ele>2604.8</ele><time>2026-03-15T08:35:13.000Z</time></trkpt>
<trkpt lat="41.7252" lon="23.50814"><ele>2604.8</ele><time>2026-03-15T08:35:14.000Z</time></trkpt>
<trkpt lat="41.7252" lon="23.50814"><ele>2604.8</ele><time>2026-03-15T08:35:15.000Z</time></trkpt>
<trkpt lat="41.725201" lon="23.508141"><ele>2605.2</ele><time>2026-03-15T08:35:16.000Z</time></trkpt>
<trkpt lat="41.725201" lon="23.50814"><ele>2605.2</ele><time>2026-03-15T08:35:17.000Z</time></trkpt>
<trkpt lat="41.725202" lon="23.508141"><ele>2605.2</ele><time>2026-03-15T08:35:18.000Z</time></trkpt>
<trkpt lat="41.725201" lon="23.508141"><ele>2605.2</ele><time>2026-03-15T08:35:19.000Z</time></trkpt>
<trkpt lat="41.725201" lon="23.508141"><ele>2605.2</ele><time>2026-03-15T08:35:20.000Z</time></trkpt>
<trkpt lat="41.725202" lon="23.508141"><ele>2605.2</ele><time>2026-03-15T08:35:21.000Z</time></trkpt>
<trkpt lat="41.725201" lon="23.508142"><ele>2605.2</ele><time>2026-03-15T08:35:22.000Z</time></trkpt>
<trkpt lat="41.7252" lon="23.508142"><ele>2605.2</ele><time>2026-03-15T08:35:23.000Z</time></trkpt>
<trkpt lat="41.725199" lon="23.508141"><ele>2605.2</ele><time>2026-03-15T08:35:24.000Z</time></trkpt>
<trkpt lat="41.725196" lon="23.508141"><ele>2605.2</ele><time>2026-03-15T08:35:25.000Z</time></trkpt>
<trkpt lat="41.725193" lon="23.50814"><ele>2605.2</ele><time>2026-03-15T08:35:26.000Z</time></trkpt>
<trkpt lat="41.725189" lon="23.508138"><ele>2605.2</ele><time>2026-03-15T08:35:27.000Z</time></trkpt>
<trkpt lat="41.725183" lon="23.508135"><ele>2605.2</ele><time>2026-03-15T08:35:28.000Z</time></trkpt>
<trkpt lat="41.725176" lon="23.508133"><ele>2605.2</ele><time>2026-03-15T08:35:29.000Z</time></trkpt>
<trkpt lat="41.725168" lon="23.50813"><ele>2605.2</ele><time>2026-03-15T08:35:30.000Z</time></trkpt>
<trkpt lat="41.72516" lon="23.508128"><ele>2605</ele><time>2026-03-15T08:35:31.000Z</time></trkpt>
<trkpt lat="41.725153" lon="23.508126"><ele>2605</ele><time>2026-03-15T08:35:32.000Z</time></trkpt>
<trkpt lat="41.725148" lon="23.508125"><ele>2605</ele><time>2026-03-15T08:35:33.000Z</time></trkpt>
<trkpt lat="41.725143" lon="23.508123"><ele>2605</ele><time>2026-03-15T08:35:34.000Z</time></trkpt>
<trkpt lat="41.725139" lon="23.508122"><ele>2605</ele><time>2026-03-15T08:35:35.000Z</time></trkpt>
<trkpt lat="41.725134" lon="23.508122"><ele>2605.1</ele><time>2026-03-15T08:35:36.000Z</time></trkpt>
<trkpt lat="41.725127" lon="23.50812"><ele>2605.1</ele><time>2026-03-15T08:35:37.000Z</time></trkpt>
<trkpt lat="41.72512" lon="23.508117"><ele>2605.1</ele><time>2026-03-15T08:35:38.000Z</time></trkpt>
<trkpt lat="41.725112" lon="23.508114"><ele>2605.1</ele><time>2026-03-15T08:35:39.000Z</time></trkpt>
<trkpt lat="41.725105" lon="23.508111"><ele>2605.1</ele><time>2026-03-15T08:35:40.000Z</time></trkpt>
<trkpt lat="41.725097" lon="23.508108"><ele>2605.3</ele><time>2026-03-15T08:35:41.000Z</time></trkpt>
<trkpt lat="41.72509" lon="23.508104"><ele>2605.3</ele><time>2026-03-15T08:35:42.000Z</time></trkpt>
<trkpt lat="41.725082" lon="23.508102"><ele>2605.3</ele><time>2026-03-15T08:35:43.000Z</time></trkpt>
<trkpt lat="41.725075" lon="23.508101"><ele>2605.3</ele><time>2026-03-15T08:35:44.000Z</time></trkpt>
<trkpt lat="41.725066" lon="23.508099"><ele>2605.3</ele><time>2026-03-15T08:35:45.000Z</time></trkpt>
<trkpt lat="41.725058" lon="23.508097"><ele>2605.7</ele><time>2026-03-15T08:35:46.000Z</time></trkpt>
<trkpt lat="41.72505" lon="23.508095"><ele>2605.7</ele><time>2026-03-15T08:35:47.000Z</time></trkpt>
<trkpt lat="41.725043" lon="23.508092"><ele>2605.7</ele><time>2026-03-15T08:35:48.000Z</time></trkpt>
<trkpt lat="41.725036" lon="23.508087"><ele>2605.7</ele><time>2026-03-15T08:35:49.000Z</time></trkpt>
<trkpt lat="41.725031" lon="23.508083"><ele>2605.7</ele><time>2026-03-15T08:35:50.000Z</time></trkpt>
<trkpt lat="41.725025" lon="23.508078"><ele>2606.1</ele><time>2026-03-15T08:35:51.000Z</time></trkpt>
<trkpt lat="41.725019" lon="23.508074"><ele>2606.1</ele><time>2026-03-15T08:35:52.000Z</time></trkpt>
<trkpt lat="41.725013" lon="23.508072"><ele>2606.1</ele><time>2026-03-15T08:35:53.000Z</time></trkpt>
<trkpt lat="41.725005" lon="23.508069"><ele>2606.1</ele><time>2026-03-15T08:35:54.000Z</time></trkpt>
<trkpt lat="41.724997" lon="23.508066"><ele>2606.1</ele><time>2026-03-15T08:35:55.000Z</time></trkpt>
<trkpt lat="41.72499" lon="23.508064"><ele>2606.4</ele><time>2026-03-15T08:35:56.000Z</time></trkpt>
<trkpt lat="41.724981" lon="23.50806"><ele>2606.4</ele><time>2026-03-15T08:35:57.000Z</time></trkpt>
<trkpt lat="41.724973" lon="23.508056"><ele>2606.4</ele><time>2026-03-15T08:35:58.000Z</time></trkpt>
<trkpt lat="41.724965" lon="23.508052"><ele>2606.4</ele><time>2026-03-15T08:35:59.000Z</time></trkpt>
<trkpt lat="41.724958" lon="23.508048"><ele>2606.4</ele><time>2026-03-15T08:36:00.000Z</time></trkpt>
<trkpt lat="41.724951" lon="23.508044"><ele>2607.1</ele><time>2026-03-15T08:36:01.000Z</time></trkpt>
<trkpt lat="41.724946" lon="23.50804"><ele>2607.1</ele><time>2026-03-15T08:36:02.000Z</time></trkpt>
<trkpt lat="41.72494" lon="23.508036"><ele>2607.1</ele><time>2026-03-15T08:36:03.000Z</time></trkpt>
<trkpt lat="41.724934" lon="23.508032"><ele>2607.1</ele><time>2026-03-15T08:36:04.000Z</time></trkpt>
<trkpt lat="41.724926" lon="23.508027"><ele>2607.1</ele><time>2026-03-15T08:36:05.000Z</time></trkpt>
<trkpt lat="41.724916" lon="23.508024"><ele>2607.8</ele><time>2026-03-15T08:36:06.000Z</time></trkpt>
<trkpt lat="41.724906" lon="23.508021"><ele>2607.8</ele><time>2026-03-15T08:36:07.000Z</time></trkpt>
<trkpt lat="41.724894" lon="23.508017"><ele>2607.8</ele><time>2026-03-15T08:36:08.000Z</time></trkpt>
<trkpt lat="41.724883" lon="23.508013"><ele>2607.8</ele><time>2026-03-15T08:36:09.000Z</time></trkpt>
<trkpt lat="41.724872" lon="23.508007"><ele>2607.8</ele><time>2026-03-15T08:36:10.000Z</time></trkpt>
<trkpt lat="41.724862" lon="23.508001"><ele>2608.1</ele><time>2026-03-15T08:36:11.000Z</time></trkpt>
<trkpt lat="41.724852" lon="23.507995"><ele>2608.1</ele><time>2026-03-15T08:36:12.000Z</time></trkpt>
<trkpt lat="41.724842" lon="23.507988"><ele>2608.1</ele><time>2026-03-15T08:36:13.000Z</time></trkpt>
<trkpt lat="41.724832" lon="23.507981"><ele>2608.1</ele><time>2026-03-15T08:36:14.000Z</time></trkpt>
<trkpt lat="41.724824" lon="23.507976"><ele>2608.1</ele><time>2026-03-15T08:36:15.000Z</time></trkpt>
<trkpt lat="41.724815" lon="23.50797"><ele>2608.5</ele><time>2026-03-15T08:36:16.000Z</time></trkpt>
<trkpt lat="41.724806" lon="23.507963"><ele>2608.5</ele><time>2026-03-15T08:36:17.000Z</time></trkpt>
<trkpt lat="41.724797" lon="23.507957"><ele>2608.5</ele><time>2026-03-15T08:36:18.000Z</time></trkpt>
<trkpt lat="41.724788" lon="23.50795"><ele>2608.5</ele><time>2026-03-15T08:36:19.000Z</time></trkpt>
<trkpt lat="41.724779" lon="23.507943"><ele>2608.5</ele><time>2026-03-15T08:36:20.000Z</time></trkpt>
<trkpt lat="41.724771" lon="23.507936"><ele>2608.8</ele><time>2026-03-15T08:36:21.000Z</time></trkpt>
<trkpt lat="41.724763" lon="23.50793"><ele>2608.8</ele><time>2026-03-15T08:36:22.000Z</time></trkpt>
<trkpt lat="41.724756" lon="23.507923"><ele>2608.8</ele><time>2026-03-15T08:36:23.000Z</time></trkpt>
<trkpt lat="41.724749" lon="23.507915"><ele>2608.8</ele><time>2026-03-15T08:36:24.000Z</time></trkpt>
<trkpt lat="41.724742" lon="23.507906"><ele>2608.8</ele><time>2026-03-15T08:36:25.000Z</time></trkpt>
<trkpt lat="41.724735" lon="23.507897"><ele>2608.9</ele><time>2026-03-15T08:36:26.000Z</time></trkpt>
<trkpt lat="41.724728" lon="23.507887"><ele>2608.9</ele><time>2026-03-15T08:36:27.000Z</time></trkpt>
<trkpt lat="41.72472" lon="23.507878"><ele>2608.9</ele><time>2026-03-15T08:36:28.000Z</time></trkpt>
<trkpt lat="41.724714" lon="23.507868"><ele>2608.9</ele><time>2026-03-15T08:36:29.000Z</time></trkpt>
<trkpt lat="41.724709" lon="23.50786"><ele>2608.9</ele><time>2026-03-15T08:36:30.000Z</time></trkpt>
<trkpt lat="41.724704" lon="23.507851"><ele>2609</ele><time>2026-03-15T08:36:31.000Z</time></trkpt>
<trkpt lat="41.7247" lon="23.507843"><ele>2609</ele><time>2026-03-15T08:36:32.000Z</time></trkpt>
<trkpt lat="41.724698" lon="23.507834"><ele>2609</ele><time>2026-03-15T08:36:33.000Z</time></trkpt>
<trkpt lat="41.724695" lon="23.507823"><ele>2609</ele><time>2026-03-15T08:36:34.000Z</time></trkpt>
<trkpt lat="41.724692" lon="23.507813"><ele>2609</ele><time>2026-03-15T08:36:35.000Z</time></trkpt>
<trkpt lat="41.724689" lon="23.507804"><ele>2609</ele><time>2026-03-15T08:36:36.000Z</time></trkpt>
<trkpt lat="41.724684" lon="23.507796"><ele>2609</ele><time>2026-03-15T08:36:37.000Z</time></trkpt>
<trkpt lat="41.72468" lon="23.507791"><ele>2609</ele><time>2026-03-15T08:36:38.000Z</time></trkpt>
<trkpt lat="41.724673" lon="23.507789"><ele>2609</ele><time>2026-03-15T08:36:39.000Z</time></trkpt>
<trkpt lat="41.724665" lon="23.50779"><ele>2609</ele><time>2026-03-15T08:36:40.000Z</time></trkpt>
<trkpt lat="41.724656" lon="23.507789"><ele>2609</ele><time>2026-03-15T08:36:41.000Z</time></trkpt>
<trkpt lat="41.724646" lon="23.507787"><ele>2609</ele><time>2026-03-15T08:36:42.000Z</time></trkpt>
<trkpt lat="41.724636" lon="23.507782"><ele>2609</ele><time>2026-03-15T08:36:43.000Z</time></trkpt>
<trkpt lat="41.724627" lon="23.507775"><ele>2609</ele><time>2026-03-15T08:36:44.000Z</time></trkpt>
<trkpt lat="41.72462" lon="23.507766"><ele>2609</ele><time>2026-03-15T08:36:45.000Z</time></trkpt>
<trkpt lat="41.724612" lon="23.507757"><ele>2609.1</ele><time>2026-03-15T08:36:46.000Z</time></trkpt>
<trkpt lat="41.724604" lon="23.507748"><ele>2609.1</ele><time>2026-03-15T08:36:47.000Z</time></trkpt>
<trkpt lat="41.724596" lon="23.507739"><ele>2609.1</ele><time>2026-03-15T08:36:48.000Z</time></trkpt>
<trkpt lat="41.724589" lon="23.507732"><ele>2609.1</ele><time>2026-03-15T08:36:49.000Z</time></trkpt>
<trkpt lat="41.724581" lon="23.507725"><ele>2609.1</ele><time>2026-03-15T08:36:50.000Z</time></trkpt>
<trkpt lat="41.724575" lon="23.507718"><ele>2609</ele><time>2026-03-15T08:36:51.000Z</time></trkpt>
<trkpt lat="41.724571" lon="23.507712"><ele>2609</ele><time>2026-03-15T08:36:52.000Z</time></trkpt>
<trkpt lat="41.724569" lon="23.507708"><ele>2609</ele><time>2026-03-15T08:36:53.000Z</time></trkpt>
<trkpt lat="41.724569" lon="23.507704"><ele>2609</ele><time>2026-03-15T08:36:54.000Z</time></trkpt>
<trkpt lat="41.72457" lon="23.507703"><ele>2609</ele><time>2026-03-15T08:36:55.000Z</time></trkpt>
<trkpt lat="41.724571" lon="23.507704"><ele>2608.8</ele><time>2026-03-15T08:36:56.000Z</time></trkpt>
<trkpt lat="41.724573" lon="23.507704"><ele>2608.8</ele><time>2026-03-15T08:36:57.000Z</time></trkpt>
<trkpt lat="41.724574" lon="23.507705"><ele>2608.8</ele><time>2026-03-15T08:36:58.000Z</time></trkpt>
<trkpt lat="41.724575" lon="23.507705"><ele>2608.8</ele><time>2026-03-15T08:36:59.000Z</time></trkpt>
<trkpt lat="41.724575" lon="23.507706"><ele>2608.8</ele><time>2026-03-15T08:37:00.000Z</time></trkpt>
<trkpt lat="41.724575" lon="23.507706"><ele>2608.1</ele><time>2026-03-15T08:37:01.000Z</time></trkpt>
<trkpt lat="41.724575" lon="23.507706"><ele>2608.1</ele><time>2026-03-15T08:37:02.000Z</time></trkpt>
<trkpt lat="41.724574" lon="23.507706"><ele>2608.1</ele><time>2026-03-15T08:37:03.000Z</time></trkpt>
<trkpt lat="41.724574" lon="23.507706"><ele>2608.1</ele><time>2026-03-15T08:37:04.000Z</time></trkpt>
<trkpt lat="41.724574" lon="23.507707"><ele>2608.1</ele><time>2026-03-15T08:37:05.000Z</time></trkpt>
<trkpt lat="41.724574" lon="23.507708"><ele>2607.7</ele><time>2026-03-15T08:37:06.000Z</time></trkpt>
<trkpt lat="41.724575" lon="23.507709"><ele>2607.7</ele><time>2026-03-15T08:37:07.000Z</time></trkpt>
<trkpt lat="41.724575" lon="23.507709"><ele>2607.7</ele><time>2026-03-15T08:37:08.000Z</time></trkpt>
<trkpt lat="41.724576" lon="23.507709"><ele>2607.7</ele><time>2026-03-15T08:37:09.000Z</time></trkpt>
<trkpt lat="41.724577" lon="23.507709"><ele>2607.7</ele><time>2026-03-15T08:37:10.000Z</time></trkpt>
<trkpt lat="41.724577" lon="23.507709"><ele>2607.6</ele><time>2026-03-15T08:37:11.000Z</time></trkpt>
<trkpt lat="41.724576" lon="23.507709"><ele>2607.6</ele><time>2026-03-15T08:37:12.000Z</time></trkpt>
<trkpt lat="41.724576" lon="23.507709"><ele>2607.6</ele><time>2026-03-15T08:37:13.000Z</time></trkpt>
<trkpt lat="41.724576" lon="23.507709"><ele>2607.6</ele><time>2026-03-15T08:37:14.000Z</time></trkpt>
<trkpt lat="41.724575" lon="23.507709"><ele>2607.6</ele><time>2026-03-15T08:37:15.000Z</time></trkpt>
<trkpt lat="41.724575" lon="23.507708"><ele>2607.5</ele><time>2026-03-15T08:37:16.000Z</time></trkpt>
<trkpt lat="41.724576" lon="23.507708"><ele>2607.5</ele><time>2026-03-15T08:37:17.000Z</time></trkpt>
<trkpt lat="41.724576" lon="23.507707"><ele>2607.5</ele><time>2026-03-15T08:37:18.000Z</time></trkpt>
<trkpt lat="41.724576" lon="23.507707"><ele>2607.5</ele><time>2026-03-15T08:37:19.000Z</time></trkpt>
<trkpt lat="41.724576" lon="23.507707"><ele>2607.5</ele><time>2026-03-15T08:37:20.000Z</time></trkpt>
<trkpt lat="41.724576" lon="23.507707"><ele>2607.4</ele><time>2026-03-15T08:37:21.000Z</time></trkpt>
<trkpt lat="41.724576" lon="23.507707"><ele>2607.4</ele><time>2026-03-15T08:37:22.000Z</time></trkpt>
<trkpt lat="41.724576" lon="23.507707"><ele>2607.4</ele><time>2026-03-15T08:37:23.000Z</time></trkpt>
<trkpt lat="41.724576" lon="23.507707"><ele>2607.4</ele><time>2026-03-15T08:37:24.000Z</time></trkpt>
<trkpt lat="41.724576" lon="23.507707"><ele>2607.4</ele><time>2026-03-15T08:37:25.000Z</time></trkpt>
<trkpt lat="41.724576" lon="23.507707"><ele>2607.5</ele><time>2026-03-15T08:37:26.000Z</time></trkpt>
<trkpt lat="41.724576" lon="23.507707"><ele>2607.5</ele><time>2026-03-15T08:37:27.000Z</time></trkpt>
<trkpt lat="41.724576" lon="23.507705"><ele>2607.5</ele><time>2026-03-15T08:37:28.000Z</time></trkpt>
<trkpt lat="41.724575" lon="23.507702"><ele>2607.5</ele><time>2026-03-15T08:37:29.000Z</time></trkpt>
<trkpt lat="41.724574" lon="23.507699"><ele>2607.5</ele><time>2026-03-15T08:37:30.000Z</time></trkpt>
<trkpt lat="41.724573" lon="23.507696"><ele>2607.7</ele><time>2026-03-15T08:37:31.000Z</time></trkpt>
<trkpt lat="41.724572" lon="23.507692"><ele>2607.7</ele><time>2026-03-15T08:37:32.000Z</time></trkpt>
<trkpt lat="41.724572" lon="23.50769"><ele>2607.7</ele><time>2026-03-15T08:37:33.000Z</time></trkpt>
<trkpt lat="41.724572" lon="23.507689"><ele>2607.7</ele><time>2026-03-15T08:37:34.000Z</time></trkpt>
<trkpt lat="41.724573" lon="23.507689"><ele>2607.7</ele><time>2026-03-15T08:37:35.000Z</time></trkpt>
<trkpt lat="41.724573" lon="23.507688"><ele>2607.8</ele><time>2026-03-15T08:37:36.000Z</time></trkpt>
<trkpt lat="41.724573" lon="23.50769"><ele>2607.8</ele><time>2026-03-15T08:37:37.000Z</time></trkpt>
<trkpt lat="41.724573" lon="23.507691"><ele>2607.8</ele><time>2026-03-15T08:37:38.000Z</time></trkpt>
<trkpt lat="41.724573" lon="23.507693"><ele>2607.8</ele><time>2026-03-15T08:37:39.000Z</time></trkpt>
<trkpt lat="41.724574" lon="23.507694"><ele>2607.8</ele><time>2026-03-15T08:37:40.000Z</time></trkpt>
<trkpt lat="41.724574" lon="23.507695"><ele>2607.8</ele><time>2026-03-15T08:37:41.000Z</time></trkpt>
<trkpt lat="41.724575" lon="23.507695"><ele>2607.8</ele><time>2026-03-15T08:37:42.000Z</time></trkpt>
<trkpt lat="41.724574" lon="23.507695"><ele>2607.8</ele><time>2026-03-15T08:37:43.000Z</time></trkpt>
<trkpt lat="41.724574" lon="23.507694"><ele>2607.8</ele><time>2026-03-15T08:37:44.000Z</time></trkpt>
<trkpt lat="41.724573" lon="23.507693"><ele>2607.8</ele><time>2026-03-15T08:37:45.000Z</time></trkpt>
<trkpt lat="41.724573" lon="23.507691"><ele>2607.9</ele><time>2026-03-15T08:37:46.000Z</time></trkpt>
<trkpt lat="41.724572" lon="23.50769"><ele>2607.9</ele><time>2026-03-15T08:37:47.000Z</time></trkpt>
<trkpt lat="41.724572" lon="23.507689"><ele>2607.9</ele><time>2026-03-15T08:37:48.000Z</time></trkpt>
<trkpt lat="41.724572" lon="23.507688"><ele>2607.9</ele><time>2026-03-15T08:37:49.000Z</time></trkpt>
<trkpt lat="41.724572" lon="23.507688"><ele>2607.9</ele><time>2026-03-15T08:37:50.000Z</time></trkpt>
<trkpt lat="41.724572" lon="23.507688"><ele>2608.1</ele><time>2026-03-15T08:37:51.000Z</time></trkpt>
<trkpt lat="41.724572" lon="23.507689"><ele>2608.1</ele><time>2026-03-15T08:37:52.000Z</time></trkpt>
<trkpt lat="41.724572" lon="23.507689"><ele>2608.1</ele><time>2026-03-15T08:37:53.000Z</time></trkpt>
<trkpt lat="41.724571" lon="23.50769"><ele>2608.1</ele><time>2026-03-15T08:37:54.000Z</time></trkpt>
<trkpt lat="41.72457" lon="23.507692"><ele>2608.1</ele><time>2026-03-15T08:37:55.000Z</time></trkpt>
<trkpt lat="41.72457" lon="23.507693"><ele>2608.1</ele><time>2026-03-15T08:37:56.000Z</time></trkpt>
<trkpt lat="41.72457" lon="23.507694"><ele>2608.1</ele><time>2026-03-15T08:37:57.000Z</time></trkpt>
<trkpt lat="41.72457" lon="23.507694"><ele>2608.1</ele><time>2026-03-15T08:37:58.000Z</time></trkpt>
<trkpt lat="41.72457" lon="23.507693"><ele>2608.1</ele><time>2026-03-15T08:37:59.000Z</time></trkpt>
<trkpt lat="41.724571" lon="23.507693"><ele>2608.1</ele><time>2026-03-15T08:38:00.000Z</time></trkpt>
<trkpt lat="41.724571" lon="23.507693"><ele>2608.1</ele><time>2026-03-15T08:38:01.000Z</time></trkpt>
<trkpt lat="41.72457" lon="23.507693"><ele>2608.1</ele><time>2026-03-15T08:38:02.000Z</time></trkpt>
<trkpt lat="41.72457" lon="23.507695"><ele>2608.1</ele><time>2026-03-15T08:38:03.000Z</time></trkpt>
<trkpt lat="41.72457" lon="23.507697"><ele>2608.1</ele><time>2026-03-15T08:38:04.000Z</time></trkpt>
<trkpt lat="41.724571" lon="23.507698"><ele>2608.1</ele><time>2026-03-15T08:38:05.000Z</time></trkpt>
<trkpt lat="41.724571" lon="23.507699"><ele>2608</ele><time>2026-03-15T08:38:06.000Z</time></trkpt>
<trkpt lat="41.724572" lon="23.507699"><ele>2608</ele><time>2026-03-15T08:38:07.000Z</time></trkpt>
<trkpt lat="41.724572" lon="23.507699"><ele>2608</ele><time>2026-03-15T08:38:08.000Z</time></trkpt>
<trkpt lat="41.724573" lon="23.507699"><ele>2608</ele><time>2026-03-15T08:38:09.000Z</time></trkpt>
<trkpt lat="41.724574" lon="23.507698"><ele>2608</ele><time>2026-03-15T08:38:10.000Z</time></trkpt>
<trkpt lat="41.724575" lon="23.507697"><ele>2608</ele><time>2026-03-15T08:38:11.000Z</time></trkpt>
<trkpt lat="41.724576" lon="23.507697"><ele>2608</ele><time>2026-03-15T08:38:12.000Z</time></trkpt>
<trkpt lat="41.724578" lon="23.507697"><ele>2608</ele><time>2026-03-15T08:38:13.000Z</time></trkpt>
<trkpt lat="41.724579" lon="23.507697"><ele>2608</ele><time>2026-03-15T08:38:14.000Z</time></trkpt>
<trkpt lat="41.724579" lon="23.507698"><ele>2608</ele><time>2026-03-15T08:38:15.000Z</time></trkpt>
<trkpt lat="41.724578" lon="23.507697"><ele>2608.2</ele><time>2026-03-15T08:38:16.000Z</time></trkpt>
<trkpt lat="41.724577" lon="23.507696"><ele>2608.2</ele><time>2026-03-15T08:38:17.000Z</time></trkpt>
<trkpt lat="41.724576" lon="23.507694"><ele>2608.2</ele><time>2026-03-15T08:38:18.000Z</time></trkpt>
<trkpt lat="41.724573" lon="23.507694"><ele>2608.2</ele><time>2026-03-15T08:38:19.000Z</time></trkpt>
<trkpt lat="41.724571" lon="23.507697"><ele>2608.2</ele><time>2026-03-15T08:38:20.000Z</time></trkpt>
<trkpt lat="41.724571" lon="23.507701"><ele>2608.4</ele><time>2026-03-15T08:38:21.000Z</time></trkpt>
<trkpt lat="41.724571" lon="23.507707"><ele>2608.4</ele><time>2026-03-15T08:38:22.000Z</time></trkpt>
<trkpt lat="41.724571" lon="23.507712"><ele>2608.4</ele><time>2026-03-15T08:38:23.000Z</time></trkpt>
<trkpt lat="41.724573" lon="23.507714"><ele>2608.4</ele><time>2026-03-15T08:38:24.000Z</time></trkpt>
<trkpt lat="41.724575" lon="23.507714"><ele>2608.4</ele><time>2026-03-15T08:38:25.000Z</time></trkpt>
<trkpt lat="41.724577" lon="23.507714"><ele>2608.4</ele><time>2026-03-15T08:38:26.000Z</time></trkpt>
<trkpt lat="41.724579" lon="23.507714"><ele>2608.4</ele><time>2026-03-15T08:38:27.000Z</time></trkpt>
<trkpt lat="41.72458" lon="23.507713"><ele>2608.4</ele><time>2026-03-15T08:38:28.000Z</time></trkpt>
<trkpt lat="41.724581" lon="23.507713"><ele>2608.4</ele><time>2026-03-15T08:38:29.000Z</time></trkpt>
<trkpt lat="41.724582" lon="23.507713"><ele>2608.4</ele><time>2026-03-15T08:38:30.000Z</time></trkpt>
<trkpt lat="41.724582" lon="23.507713"><ele>2608.4</ele><time>2026-03-15T08:38:31.000Z</time></trkpt>
<trkpt lat="41.724581" lon="23.507712"><ele>2608.4</ele><time>2026-03-15T08:38:32.000Z</time></trkpt>
<trkpt lat="41.72458" lon="23.507711"><ele>2608.4</ele><time>2026-03-15T08:38:33.000Z</time></trkpt>
<trkpt lat="41.724579" lon="23.507709"><ele>2608.4</ele><time>2026-03-15T08:38:34.000Z</time></trkpt>
<trkpt lat="41.724578" lon="23.507709"><ele>2608.4</ele><time>2026-03-15T08:38:35.000Z</time></trkpt>
<trkpt lat="41.724577" lon="23.507708"><ele>2608.5</ele><time>2026-03-15T08:38:36.000Z</time></trkpt>
<trkpt lat="41.724576" lon="23.507709"><ele>2608.5</ele><time>2026-03-15T08:38:37.000Z</time></trkpt>
<trkpt lat="41.724576" lon="23.507711"><ele>2608.5</ele><time>2026-03-15T08:38:38.000Z</time></trkpt>
<trkpt lat="41.724574" lon="23.507714"><ele>2608.5</ele><time>2026-03-15T08:38:39.000Z</time></trkpt>
<trkpt lat="41.724574" lon="23.507716"><ele>2608.5</ele><time>2026-03-15T08:38:40.000Z</time></trkpt>
<trkpt lat="41.724575" lon="23.507718"><ele>2608.5</ele><time>2026-03-15T08:38:41.000Z</time></trkpt>
<trkpt lat="41.724576" lon="23.507719"><ele>2608.5</ele><time>2026-03-15T08:38:42.000Z</time></trkpt>
<trkpt lat="41.724578" lon="23.507719"><ele>2608.5</ele><time>2026-03-15T08:38:43.000Z</time></trkpt>
<trkpt lat="41.724579" lon="23.507718"><ele>2608.5</ele><time>2026-03-15T08:38:44.000Z</time></trkpt>
<trkpt lat="41.72458" lon="23.507716"><ele>2608.5</ele><time>2026-03-15T08:38:45.000Z</time></trkpt>
<trkpt lat="41.72458" lon="23.507715"><ele>2608.6</ele><time>2026-03-15T08:38:46.000Z</time></trkpt>
<trkpt lat="41.724581" lon="23.507714"><ele>2608.6</ele><time>2026-03-15T08:38:47.000Z</time></trkpt>
<trkpt lat="41.724581" lon="23.507714"><ele>2608.6</ele><time>2026-03-15T08:38:48.000Z</time></trkpt>
<trkpt lat="41.724581" lon="23.507714"><ele>2608.6</ele><time>2026-03-15T08:38:49.000Z</time></trkpt>
<trkpt lat="41.724581" lon="23.507714"><ele>2608.6</ele><time>2026-03-15T08:38:50.000Z</time></trkpt>
<trkpt lat="41.724581" lon="23.507714"><ele>2608.7</ele><time>2026-03-15T08:38:51.000Z</time></trkpt>
<trkpt lat="41.724581" lon="23.507713"><ele>2608.7</ele><time>2026-03-15T08:38:52.000Z</time></trkpt>
<trkpt lat="41.72458" lon="23.507713"><ele>2608.7</ele><time>2026-03-15T08:38:53.000Z</time></trkpt>
<trkpt lat="41.72458" lon="23.507713"><ele>2608.7</ele><time>2026-03-15T08:38:54.000Z</time></trkpt>
<trkpt lat="41.72458" lon="23.507713"><ele>2608.7</ele><time>2026-03-15T08:38:55.000Z</time></trkpt>
<trkpt lat="41.72458" lon="23.507713"><ele>2608.7</ele><time>2026-03-15T08:38:56.000Z</time></trkpt>
<trkpt lat="41.72458" lon="23.507713"><ele>2608.7</ele><time>2026-03-15T08:38:57.000Z</time></trkpt>
<trkpt lat="41.72458" lon="23.507713"><ele>2608.7</ele><time>2026-03-15T08:38:58.000Z</time></trkpt>
<trkpt lat="41.72458" lon="23.507713"><ele>2608.7</ele><time>2026-03-15T08:38:59.000Z</time></trkpt>
<trkpt lat="41.72458" lon="23.507713"><ele>2608.7</ele><time>2026-03-15T08:39:00.000Z</time></trkpt>
<trkpt lat="41.72458" lon="23.507713"><ele>2608.8</ele><time>2026-03-15T08:39:01.000Z</time></trkpt>
<trkpt lat="41.72458" lon="23.507713"><ele>2608.8</ele><time>2026-03-15T08:39:02.000Z</time></trkpt>
<trkpt lat="41.72458" lon="23.507713"><ele>2608.8</ele><time>2026-03-15T08:39:03.000Z</time></trkpt>
<trkpt lat="41.72458" lon="23.507713"><ele>2608.8</ele><time>2026-03-15T08:39:04.000Z</time></trkpt>
<trkpt lat="41.72458" lon="23.507713"><ele>2608.8</ele><time>2026-03-15T08:39:05.000Z</time></trkpt>
<trkpt lat="41.72458" lon="23.507713"><ele>2608.8</ele><time>2026-03-15T08:39:06.000Z</time></trkpt>
<trkpt lat="41.72458" lon="23.507713"><ele>2608.8</ele><time>2026-03-15T08:39:07.000Z</time></trkpt>
<trkpt lat="41.72458" lon="23.507713"><ele>2608.8</ele><time>2026-03-15T08:39:08.000Z</time></trkpt>
<trkpt lat="41.72458" lon="23.507713"><ele>2608.8</ele><time>2026-03-15T08:39:09.000Z</time></trkpt>
<trkpt lat="41.72458" lon="23.507713"><ele>2608.8</ele><time>2026-03-15T08:39:10.000Z</time></trkpt>
<trkpt lat="41.72458" lon="23.507713"><ele>2608.7</ele><time>2026-03-15T08:39:11.000Z</time></trkpt>
<trkpt lat="41.72458" lon="23.507713"><ele>2608.7</ele><time>2026-03-15T08:39:12.000Z</time></trkpt>
<trkpt lat="41.72458" lon="23.507713"><ele>2608.7</ele><time>2026-03-15T08:39:13.000Z</time></trkpt>
<trkpt lat="41.72458" lon="23.507713"><ele>2608.7</ele><time>2026-03-15T08:39:14.000Z</time></trkpt>
<trkpt lat="41.72458" lon="23.507713"><ele>2608.7</ele><time>2026-03-15T08:39:15.000Z</time></trkpt>
<trkpt lat="41.72458" lon="23.507713"><ele>2608.6</ele><time>2026-03-15T08:39:16.000Z</time></trkpt>
<trkpt lat="41.72458" lon="23.507713"><ele>2608.6</ele><time>2026-03-15T08:39:17.000Z</time></trkpt>
<trkpt lat="41.72458" lon="23.507713"><ele>2608.6</ele><time>2026-03-15T08:39:18.000Z</time></trkpt>
<trkpt lat="41.72458" lon="23.507713"><ele>2608.6</ele><time>2026-03-15T08:39:19.000Z</time></trkpt>
<trkpt lat="41.72458" lon="23.507713"><ele>2608.6</ele><time>2026-03-15T08:39:20.000Z</time></trkpt>
<trkpt lat="41.72458" lon="23.507713"><ele>2608.5</ele><time>2026-03-15T08:39:21.000Z</time></trkpt>
<trkpt lat="41.72458" lon="23.507713"><ele>2608.5</ele><time>2026-03-15T08:39:22.000Z</time></trkpt>
<trkpt lat="41.72458" lon="23.507713"><ele>2608.5</ele><time>2026-03-15T08:39:23.000Z</time></trkpt>
<trkpt lat="41.72458" lon="23.507713"><ele>2608.5</ele><time>2026-03-15T08:39:24.000Z</time></trkpt>
<trkpt lat="41.72458" lon="23.507713"><ele>2608.5</ele><time>2026-03-15T08:39:25.000Z</time></trkpt>
<trkpt lat="41.72458" lon="23.507713"><ele>2608.6</ele><time>2026-03-15T08:39:26.000Z</time></trkpt>
<trkpt lat="41.72458" lon="23.507713"><ele>2608.6</ele><time>2026-03-15T08:39:27.000Z</time></trkpt>
<trkpt lat="41.72458" lon="23.507713"><ele>2608.6</ele><time>2026-03-15T08:39:28.000Z</time></trkpt>
<trkpt lat="41.72458" lon="23.507713"><ele>2608.6</ele><time>2026-03-15T08:39:29.000Z</time></trkpt>
<trkpt lat="41.72458" lon="23.507713"><ele>2608.6</ele><time>2026-03-15T08:39:30.000Z</time></trkpt>
<trkpt lat="41.72458" lon="23.507713"><ele>2608.6</ele><time>2026-03-15T08:39:31.000Z</time></trkpt>
<trkpt lat="41.72458" lon="23.507713"><ele>2608.6</ele><time>2026-03-15T08:39:32.000Z</time></trkpt>
<trkpt lat="41.72458" lon="23.507713"><ele>2608.6</ele><time>2026-03-15T08:39:33.000Z</time></trkpt>
<trkpt lat="41.72458" lon="23.507713"><ele>2608.6</ele><time>2026-03-15T08:39:34.000Z</time></trkpt>
<trkpt lat="41.72458" lon="23.507713"><ele>2608.6</ele><time>2026-03-15T08:39:35.000Z</time></trkpt>
<trkpt lat="41.72458" lon="23.507713"><ele>2608.8</ele><time>2026-03-15T08:39:36.000Z</time></trkpt>
<trkpt lat="41.72458" lon="23.507713"><ele>2608.8</ele><time>2026-03-15T08:39:37.000Z</time></trkpt>
<trkpt lat="41.72458" lon="23.507713"><ele>2608.8</ele><time>2026-03-15T08:39:38.000Z</time></trkpt>
<trkpt lat="41.72458" lon="23.507713"><ele>2608.8</ele><time>2026-03-15T08:39:39.000Z</time></trkpt>
<trkpt lat="41.72458" lon="23.507713"><ele>2608.8</ele><time>2026-03-15T08:39:40.000Z</time></trkpt>
<trkpt lat="41.72458" lon="23.507713"><ele>2608.8</ele><time>2026-03-15T08:39:41.000Z</time></trkpt>
<trkpt lat="41.72458" lon="23.507713"><ele>2608.8</ele><time>2026-03-15T08:39:42.000Z</time></trkpt>
<trkpt lat="41.72458" lon="23.507713"><ele>2608.8</ele><time>2026-03-15T08:39:43.000Z</time></trkpt>
<trkpt lat="41.724581" lon="23.507713"><ele>2608.8</ele><time>2026-03-15T08:39:44.000Z</time></trkpt>
<trkpt lat="41.724581" lon="23.507713"><ele>2608.8</ele><time>2026-03-15T08:39:45.000Z</time></trkpt>
<trkpt lat="41.724581" lon="23.507714"><ele>2608.7</ele><time>2026-03-15T08:39:46.000Z</time></trkpt>
<trkpt lat="41.724581" lon="23.507714"><ele>2608.7</ele><time>2026-03-15T08:39:47.000Z</time></trkpt>
<trkpt lat="41.724581" lon="23.507714"><ele>2608.7</ele><time>2026-03-15T08:39:48.000Z</time></trkpt>
<trkpt lat="41.72458" lon="23.507713"><ele>2608.7</ele><time>2026-03-15T08:39:49.000Z</time></trkpt>
<trkpt lat="41.724578" lon="23.50771"><ele>2608.7</ele><time>2026-03-15T08:39:50.000Z</time></trkpt>
<trkpt lat="41.724576" lon="23.507706"><ele>2608.4</ele><time>2026-03-15T08:39:51.000Z</time></trkpt>
<trkpt lat="41.724575" lon="23.507703"><ele>2608.4</ele><time>2026-03-15T08:39:52.000Z</time></trkpt>
<trkpt lat="41.724574" lon="23.507699"><ele>2608.4</ele><time>2026-03-15T08:39:53.000Z</time></trkpt>
<trkpt lat="41.724574" lon="23.507697"><ele>2608.4</ele><time>2026-03-15T08:39:54.000Z</time></trkpt>
<trkpt lat="41.724574" lon="23.507697"><ele>2608.4</ele><time>2026-03-15T08:39:55.000Z</time></trkpt>
<trkpt lat="41.724574" lon="23.507698"><ele>2608.3</ele><time>2026-03-15T08:39:56.000Z</time></trkpt>
<trkpt lat="41.724574" lon="23.507698"><ele>2608.3</ele><time>2026-03-15T08:39:57.000Z</time></trkpt>
<trkpt lat="41.724574" lon="23.507699"><ele>2608.3</ele><time>2026-03-15T08:39:58.000Z</time></trkpt>
<trkpt lat="41.724573" lon="23.507699"><ele>2608.3</ele><time>2026-03-15T08:39:59.000Z</time></trkpt>
<trkpt lat="41.724573" lon="23.507698"><ele>2608.3</ele><time>2026-03-15T08:40:00.000Z</time></trkpt>
<trkpt lat="41.724572" lon="23.507698"><ele>2608.2</ele><time>2026-03-15T08:40:01.000Z</time></trkpt>
<trkpt lat="41.724572" lon="23.507698"><ele>2608.2</ele><time>2026-03-15T08:40:02.000Z</time></trkpt>
<trkpt lat="41.724572" lon="23.507697"><ele>2608.2</ele><time>2026-03-15T08:40:03.000Z</time></trkpt>
<trkpt lat="41.724572" lon="23.507697"><ele>2608.2</ele><time>2026-03-15T08:40:04.000Z</time></trkpt>
<trkpt lat="41.724572" lon="23.507697"><ele>2608.2</ele><time>2026-03-15T08:40:05.000Z</time></trkpt>
<trkpt lat="41.724572" lon="23.507697"><ele>2608.1</ele><time>2026-03-15T08:40:06.000Z</time></trkpt>
<trkpt lat="41.724572" lon="23.507697"><ele>2608.1</ele><time>2026-03-15T08:40:07.000Z</time></trkpt>
<trkpt lat="41.724572" lon="23.507697"><ele>2608.1</ele><time>2026-03-15T08:40:08.000Z</time></trkpt>
<trkpt lat="41.724572" lon="23.507696"><ele>2608.1</ele><time>2026-03-15T08:40:09.000Z</time></trkpt>
<trkpt lat="41.724573" lon="23.507696"><ele>2608.1</ele><time>2026-03-15T08:40:10.000Z</time></trkpt>
<trkpt lat="41.724572" lon="23.507696"><ele>2608.1</ele><time>2026-03-15T08:40:11.000Z</time></trkpt>
<trkpt lat="41.724573" lon="23.507696"><ele>2608.1</ele><time>2026-03-15T08:40:12.000Z</time></trkpt>
<trkpt lat="41.724573" lon="23.507697"><ele>2608.1</ele><time>2026-03-15T08:40:13.000Z</time></trkpt>
<trkpt lat="41.724573" lon="23.507698"><ele>2608.1</ele><time>2026-03-15T08:40:14.000Z</time></trkpt>
<trkpt lat="41.724573" lon="23.507698"><ele>2608.1</ele><time>2026-03-15T08:40:15.000Z</time></trkpt>
<trkpt lat="41.724574" lon="23.507699"><ele>2608</ele><time>2026-03-15T08:40:16.000Z</time></trkpt>
<trkpt lat="41.724575" lon="23.507699"><ele>2608</ele><time>2026-03-15T08:40:17.000Z</time></trkpt>
<trkpt lat="41.724575" lon="23.507699"><ele>2608</ele><time>2026-03-15T08:40:18.000Z</time></trkpt>
<trkpt lat="41.724575" lon="23.507699"><ele>2608</ele><time>2026-03-15T08:40:19.000Z</time></trkpt>
<trkpt lat="41.724575" lon="23.507699"><ele>2608</ele><time>2026-03-15T08:40:20.000Z</time></trkpt>
<trkpt lat="41.724574" lon="23.5077"><ele>2608</ele><time>2026-03-15T08:40:21.000Z</time></trkpt>
<trkpt lat="41.724574" lon="23.5077"><ele>2608</ele><time>2026-03-15T08:40:22.000Z</time></trkpt>
<trkpt lat="41.724573" lon="23.507701"><ele>2608</ele><time>2026-03-15T08:40:23.000Z</time></trkpt>
<trkpt lat="41.724573" lon="23.507701"><ele>2608</ele><time>2026-03-15T08:40:24.000Z</time></trkpt>
<trkpt lat="41.724573" lon="23.507701"><ele>2608</ele><time>2026-03-15T08:40:25.000Z</time></trkpt>
<trkpt lat="41.724572" lon="23.507701"><ele>2607.9</ele><time>2026-03-15T08:40:26.000Z</time></trkpt>
<trkpt lat="41.724572" lon="23.507701"><ele>2607.9</ele><time>2026-03-15T08:40:27.000Z</time></trkpt>
<trkpt lat="41.724571" lon="23.5077"><ele>2607.9</ele><time>2026-03-15T08:40:28.000Z</time></trkpt>
<trkpt lat="41.724571" lon="23.5077"><ele>2607.9</ele><time>2026-03-15T08:40:29.000Z</time></trkpt>
<trkpt lat="41.72457" lon="23.5077"><ele>2607.9</ele><time>2026-03-15T08:40:30.000Z</time></trkpt>
<trkpt lat="41.72457" lon="23.507699"><ele>2607.8</ele><time>2026-03-15T08:40:31.000Z</time></trkpt>
<trkpt lat="41.72457" lon="23.5077"><ele>2607.8</ele><time>2026-03-15T08:40:32.000Z</time></trkpt>
<trkpt lat="41.724569" lon="23.507701"><ele>2607.8</ele><time>2026-03-15T08:40:33.000Z</time></trkpt>
<trkpt lat="41.724569" lon="23.507702"><ele>2607.8</ele><time>2026-03-15T08:40:34.000Z</time></trkpt>
<trkpt lat="41.724569" lon="23.507702"><ele>2607.8</ele><time>2026-03-15T08:40:35.000Z</time></trkpt>
<trkpt lat="41.72457" lon="23.507703"><ele>2607.7</ele><time>2026-03-15T08:40:36.000Z</time></trkpt>
<trkpt lat="41.724571" lon="23.507704"><ele>2607.7</ele><time>2026-03-15T08:40:37.000Z</time></trkpt>
<trkpt lat="41.724571" lon="23.507704"><ele>2607.7</ele><time>2026-03-15T08:40:38.000Z</time></trkpt>
<trkpt lat="41.724572" lon="23.507704"><ele>2607.7</ele><time>2026-03-15T08:40:39.000Z</time></trkpt>
<trkpt lat="41.724572" lon="23.507705"><ele>2607.7</ele><time>2026-03-15T08:40:40.000Z</time></trkpt>
<trkpt lat="41.724572" lon="23.507704"><ele>2607.8</ele><time>2026-03-15T08:40:41.000Z</time></trkpt>
<trkpt lat="41.724572" lon="23.507705"><ele>2607.8</ele><time>2026-03-15T08:40:42.000Z</time></trkpt>
<trkpt lat="41.724571" lon="23.507705"><ele>2607.8</ele><time>2026-03-15T08:40:43.000Z</time></trkpt>
<trkpt lat="41.724571" lon="23.507705"><ele>2607.8</ele><time>2026-03-15T08:40:44.000Z</time></trkpt>
<trkpt lat="41.724571" lon="23.507705"><ele>2607.8</ele><time>2026-03-15T08:40:45.000Z</time></trkpt>
<trkpt lat="41.72457" lon="23.507706"><ele>2608</ele><time>2026-03-15T08:40:46.000Z</time></trkpt>
<trkpt lat="41.72457" lon="23.507706"><ele>2608</ele><time>2026-03-15T08:40:47.000Z</time></trkpt>
<trkpt lat="41.72457" lon="23.507706"><ele>2608</ele><time>2026-03-15T08:40:48.000Z</time></trkpt>
<trkpt lat="41.72457" lon="23.507706"><ele>2608</ele><time>2026-03-15T08:40:49.000Z</time></trkpt>
<trkpt lat="41.72457" lon="23.507706"><ele>2608</ele><time>2026-03-15T08:40:50.000Z</time></trkpt>
<trkpt lat="41.72457" lon="23.507706"><ele>2608.3</ele><time>2026-03-15T08:40:51.000Z</time></trkpt>
<trkpt lat="41.72457" lon="23.507706"><ele>2608.3</ele><time>2026-03-15T08:40:52.000Z</time></trkpt>
<trkpt lat="41.72457" lon="23.507706"><ele>2608.3</ele><time>2026-03-15T08:40:53.000Z</time></trkpt>
<trkpt lat="41.72457" lon="23.507706"><ele>2608.3</ele><time>2026-03-15T08:40:54.000Z</time></trkpt>
<trkpt lat="41.72457" lon="23.507706"><ele>2608.3</ele><time>2026-03-15T08:40:55.000Z</time></trkpt>
<trkpt lat="41.72457" lon="23.507706"><ele>2608.4</ele><time>2026-03-15T08:40:56.000Z</time></trkpt>
<trkpt lat="41.72457" lon="23.507705"><ele>2608.4</ele><time>2026-03-15T08:40:57.000Z</time></trkpt>
<trkpt lat="41.724569" lon="23.507704"><ele>2608.4</ele><time>2026-03-15T08:40:58.000Z</time></trkpt>
<trkpt lat="41.724569" lon="23.507703"><ele>2608.4</ele><time>2026-03-15T08:40:59.000Z</time></trkpt>
<trkpt lat="41.724568" lon="23.507702"><ele>2608.4</ele><time>2026-03-15T08:41:00.000Z</time></trkpt>
<trkpt lat="41.724568" lon="23.507701"><ele>2608.4</ele><time>2026-03-15T08:41:01.000Z</time></trkpt>
<trkpt lat="41.724567" lon="23.5077"><ele>2608.4</ele><time>2026-03-15T08:41:02.000Z</time></trkpt>
<trkpt lat="41.724567" lon="23.5077"><ele>2608.4</ele><time>2026-03-15T08:41:03.000Z</time></trkpt>
<trkpt lat="41.724567" lon="23.507701"><ele>2608.4</ele><time>2026-03-15T08:41:04.000Z</time></trkpt>
<trkpt lat="41.724565" lon="23.507701"><ele>2608.4</ele><time>2026-03-15T08:41:05.000Z</time></trkpt>
<trkpt lat="41.724564" lon="23.507702"><ele>2608.3</ele><time>2026-03-15T08:41:06.000Z</time></trkpt>
<trkpt lat="41.724563" lon="23.507703"><ele>2608.3</ele><time>2026-03-15T08:41:07.000Z</time></trkpt>
<trkpt lat="41.724562" lon="23.507703"><ele>2608.3</ele><time>2026-03-15T08:41:08.000Z</time></trkpt>
<trkpt lat="41.724562" lon="23.507703"><ele>2608.3</ele><time>2026-03-15T08:41:09.000Z</time></trkpt>
<trkpt lat="41.724562" lon="23.507703"><ele>2608.3</ele><time>2026-03-15T08:41:10.000Z</time></trkpt>
<trkpt lat="41.724562" lon="23.507703"><ele>2608.2</ele><time>2026-03-15T08:41:11.000Z</time></trkpt>
<trkpt lat="41.724563" lon="23.507703"><ele>2608.2</ele><time>2026-03-15T08:41:12.000Z</time></trkpt>
<trkpt lat="41.724563" lon="23.507703"><ele>2608.2</ele><time>2026-03-15T08:41:13.000Z</time></trkpt>
<trkpt lat="41.724562" lon="23.507703"><ele>2608.2</ele><time>2026-03-15T08:41:14.000Z</time></trkpt>
<trkpt lat="41.724562" lon="23.507703"><ele>2608.2</ele><time>2026-03-15T08:41:15.000Z</time></trkpt>
<trkpt lat="41.724561" lon="23.507704"><ele>2608.1</ele><time>2026-03-15T08:41:16.000Z</time></trkpt>
<trkpt lat="41.72456" lon="23.507704"><ele>2608.1</ele><time>2026-03-15T08:41:17.000Z</time></trkpt>
<trkpt lat="41.72456" lon="23.507705"><ele>2608.1</ele><time>2026-03-15T08:41:18.000Z</time></trkpt>
<trkpt lat="41.72456" lon="23.507704"><ele>2608.1</ele><time>2026-03-15T08:41:19.000Z</time></trkpt>
<trkpt lat="41.72456" lon="23.507704"><ele>2608.1</ele><time>2026-03-15T08:41:20.000Z</time></trkpt>
<trkpt lat="41.72456" lon="23.507704"><ele>2608</ele><time>2026-03-15T08:41:21.000Z</time></trkpt>
<trkpt lat="41.72456" lon="23.507704"><ele>2608</ele><time>2026-03-15T08:41:22.000Z</time></trkpt>
<trkpt lat="41.72456" lon="23.507704"><ele>2608</ele><time>2026-03-15T08:41:23.000Z</time></trkpt>
<trkpt lat="41.72456" lon="23.507704"><ele>2608</ele><time>2026-03-15T08:41:24.000Z</time></trkpt>
<trkpt lat="41.72456" lon="23.507704"><ele>2608</ele><time>2026-03-15T08:41:25.000Z</time></trkpt>
<trkpt lat="41.72456" lon="23.507704"><ele>2608</ele><time>2026-03-15T08:41:26.000Z</time></trkpt>
<trkpt lat="41.72456" lon="23.507704"><ele>2608</ele><time>2026-03-15T08:41:27.000Z</time></trkpt>
<trkpt lat="41.72456" lon="23.507704"><ele>2608</ele><time>2026-03-15T08:41:28.000Z</time></trkpt>
<trkpt lat="41.72456" lon="23.507704"><ele>2608</ele><time>2026-03-15T08:41:29.000Z</time></trkpt>
<trkpt lat="41.724561" lon="23.507704"><ele>2608</ele><time>2026-03-15T08:41:30.000Z</time></trkpt>
<trkpt lat="41.724562" lon="23.507705"><ele>2608</ele><time>2026-03-15T08:41:31.000Z</time></trkpt>
<trkpt lat="41.724563" lon="23.507705"><ele>2608</ele><time>2026-03-15T08:41:32.000Z</time></trkpt>
<trkpt lat="41.724564" lon="23.507705"><ele>2608</ele><time>2026-03-15T08:41:33.000Z</time></trkpt>
<trkpt lat="41.724565" lon="23.507706"><ele>2608</ele><time>2026-03-15T08:41:34.000Z</time></trkpt>
<trkpt lat="41.724565" lon="23.507706"><ele>2608</ele><time>2026-03-15T08:41:35.000Z</time></trkpt>
<trkpt lat="41.724565" lon="23.507707"><ele>2608.2</ele><time>2026-03-15T08:41:36.000Z</time></trkpt>
<trkpt lat="41.724565" lon="23.507707"><ele>2608.2</ele><time>2026-03-15T08:41:37.000Z</time></trkpt>
<trkpt lat="41.724564" lon="23.507707"><ele>2608.2</ele><time>2026-03-15T08:41:38.000Z</time></trkpt>
<trkpt lat="41.724564" lon="23.507707"><ele>2608.2</ele><time>2026-03-15T08:41:39.000Z</time></trkpt>
<trkpt lat="41.724565" lon="23.507706"><ele>2608.2</ele><time>2026-03-15T08:41:40.000Z</time></trkpt>
<trkpt lat="41.724565" lon="23.507705"><ele>2608.3</ele><time>2026-03-15T08:41:41.000Z</time></trkpt>
<trkpt lat="41.724565" lon="23.507705"><ele>2608.3</ele><time>2026-03-15T08:41:42.000Z</time></trkpt>
<trkpt lat="41.724565" lon="23.507704"><ele>2608.3</ele><time>2026-03-15T08:41:43.000Z</time></trkpt>
<trkpt lat="41.724565" lon="23.507703"><ele>2608.3</ele><time>2026-03-15T08:41:44.000Z</time></trkpt>
<trkpt lat="41.724565" lon="23.507703"><ele>2608.3</ele><time>2026-03-15T08:41:45.000Z</time></trkpt>
<trkpt lat="41.724565" lon="23.507703"><ele>2608.3</ele><time>2026-03-15T08:41:46.000Z</time></trkpt>
<trkpt lat="41.724565" lon="23.507703"><ele>2608.3</ele><time>2026-03-15T08:41:47.000Z</time></trkpt>
<trkpt lat="41.724566" lon="23.507703"><ele>2608.3</ele><time>2026-03-15T08:41:48.000Z</time></trkpt>
<trkpt lat="41.724566" lon="23.507703"><ele>2608.3</ele><time>2026-03-15T08:41:49.000Z</time></trkpt>
<trkpt lat="41.724567" lon="23.507703"><ele>2608.3</ele><time>2026-03-15T08:41:50.000Z</time></trkpt>
<trkpt lat="41.724567" lon="23.507702"><ele>2608.3</ele><time>2026-03-15T08:41:51.000Z</time></trkpt>
<trkpt lat="41.724567" lon="23.507702"><ele>2608.3</ele><time>2026-03-15T08:41:52.000Z</time></trkpt>
<trkpt lat="41.724567" lon="23.507702"><ele>2608.3</ele><time>2026-03-15T08:41:53.000Z</time></trkpt>
<trkpt lat="41.724567" lon="23.507701"><ele>2608.3</ele><time>2026-03-15T08:41:54.000Z</time></trkpt>
<trkpt lat="41.724567" lon="23.507701"><ele>2608.3</ele><time>2026-03-15T08:41:55.000Z</time></trkpt>
<trkpt lat="41.724567" lon="23.507701"><ele>2608.3</ele><time>2026-03-15T08:41:56.000Z</time></trkpt>
<trkpt lat="41.724567" lon="23.507701"><ele>2608.3</ele><time>2026-03-15T08:41:57.000Z</time></trkpt>
<trkpt lat="41.724567" lon="23.507701"><ele>2608.3</ele><time>2026-03-15T08:41:58.000Z</time></trkpt>
<trkpt lat="41.724567" lon="23.507701"><ele>2608.3</ele><time>2026-03-15T08:41:59.000Z</time></trkpt>
<trkpt lat="41.724567" lon="23.507701"><ele>2608.3</ele><time>2026-03-15T08:42:00.000Z</time></trkpt>
<trkpt lat="41.724567" lon="23.507701"><ele>2608.1</ele><time>2026-03-15T08:42:01.000Z</time></trkpt>
<trkpt lat="41.724567" lon="23.507701"><ele>2608.1</ele><time>2026-03-15T08:42:02.000Z</time></trkpt>
<trkpt lat="41.724567" lon="23.507701"><ele>2608.1</ele><time>2026-03-15T08:42:03.000Z</time></trkpt>
<trkpt lat="41.724567" lon="23.507701"><ele>2608.1</ele><time>2026-03-15T08:42:04.000Z</time></trkpt>
<trkpt lat="41.724567" lon="23.507701"><ele>2608.1</ele><time>2026-03-15T08:42:05.000Z</time></trkpt>
<trkpt lat="41.724567" lon="23.507701"><ele>2608.1</ele><time>2026-03-15T08:42:06.000Z</time></trkpt>
<trkpt lat="41.724567" lon="23.507701"><ele>2608.1</ele><time>2026-03-15T08:42:07.000Z</time></trkpt>
<trkpt lat="41.724567" lon="23.507701"><ele>2608.1</ele><time>2026-03-15T08:42:08.000Z</time></trkpt>
<trkpt lat="41.724567" lon="23.507701"><ele>2608.1</ele><time>2026-03-15T08:42:09.000Z</time></trkpt>
<trkpt lat="41.724567" lon="23.507701"><ele>2608.1</ele><time>2026-03-15T08:42:10.000Z</time></trkpt>
<trkpt lat="41.724567" lon="23.507701"><ele>2608.2</ele><time>2026-03-15T08:42:11.000Z</time></trkpt>
<trkpt lat="41.724567" lon="23.507701"><ele>2608.2</ele><time>2026-03-15T08:42:12.000Z</time></trkpt>
<trkpt lat="41.724567" lon="23.507701"><ele>2608.2</ele><time>2026-03-15T08:42:13.000Z</time></trkpt>
<trkpt lat="41.724567" lon="23.507701"><ele>2608.2</ele><time>2026-03-15T08:42:14.000Z</time></trkpt>
<trkpt lat="41.724567" lon="23.507701"><ele>2608.2</ele><time>2026-03-15T08:42:15.000Z</time></trkpt>
<trkpt lat="41.724567" lon="23.507701"><ele>2608.3</ele><time>2026-03-15T08:42:16.000Z</time></trkpt>
<trkpt lat="41.724567" lon="23.507701"><ele>2608.3</ele><time>2026-03-15T08:42:17.000Z</time></trkpt>
<trkpt lat="41.724567" lon="23.507701"><ele>2608.3</ele><time>2026-03-15T08:42:18.000Z</time></trkpt>
<trkpt lat="41.724567" lon="23.507701"><ele>2608.3</ele><time>2026-03-15T08:42:19.000Z</time></trkpt>
<trkpt lat="41.724567" lon="23.507701"><ele>2608.3</ele><time>2026-03-15T08:42:20.000Z</time></trkpt>
<trkpt lat="41.724567" lon="23.507702"><ele>2608.3</ele><time>2026-03-15T08:42:21.000Z</time></trkpt>
<trkpt lat="41.724567" lon="23.507702"><ele>2608.3</ele><time>2026-03-15T08:42:22.000Z</time></trkpt>
<trkpt lat="41.724567" lon="23.507702"><ele>2608.3</ele><time>2026-03-15T08:42:23.000Z</time></trkpt>
<trkpt lat="41.724567" lon="23.507702"><ele>2608.3</ele><time>2026-03-15T08:42:24.000Z</time></trkpt>
<trkpt lat="41.724567" lon="23.507702"><ele>2608.3</ele><time>2026-03-15T08:42:25.000Z</time></trkpt>
<trkpt lat="41.724567" lon="23.507702"><ele>2608.3</ele><time>2026-03-15T08:42:26.000Z</time></trkpt>
<trkpt lat="41.724567" lon="23.507702"><ele>2608.3</ele><time>2026-03-15T08:42:27.000Z</time></trkpt>
<trkpt lat="41.724567" lon="23.507702"><ele>2608.3</ele><time>2026-03-15T08:42:28.000Z</time></trkpt>
<trkpt lat="41.724567" lon="23.507702"><ele>2608.3</ele><time>2026-03-15T08:42:29.000Z</time></trkpt>
<trkpt lat="41.724567" lon="23.507702"><ele>2608.3</ele><time>2026-03-15T08:42:30.000Z</time></trkpt>
<trkpt lat="41.724567" lon="23.507702"><ele>2608.3</ele><time>2026-03-15T08:42:31.000Z</time></trkpt>
<trkpt lat="41.724567" lon="23.507702"><ele>2608.3</ele><time>2026-03-15T08:42:32.000Z</time></trkpt>
<trkpt lat="41.724567" lon="23.507702"><ele>2608.3</ele><time>2026-03-15T08:42:33.000Z</time></trkpt>
<trkpt lat="41.724567" lon="23.507702"><ele>2608.3</ele><time>2026-03-15T08:42:34.000Z</time></trkpt>
<trkpt lat="41.724567" lon="23.507702"><ele>2608.3</ele><time>2026-03-15T08:42:35.000Z</time></trkpt>
<trkpt lat="41.724567" lon="23.507702"><ele>2608.4</ele><time>2026-03-15T08:42:36.000Z</time></trkpt>
<trkpt lat="41.724567" lon="23.507702"><ele>2608.4</ele><time>2026-03-15T08:42:37.000Z</time></trkpt>
<trkpt lat="41.724566" lon="23.507701"><ele>2608.4</ele><time>2026-03-15T08:42:38.000Z</time></trkpt>
<trkpt lat="41.724565" lon="23.507701"><ele>2608.4</ele><time>2026-03-15T08:42:39.000Z</time></trkpt>
<trkpt lat="41.724564" lon="23.5077"><ele>2608.4</ele><time>2026-03-15T08:42:40.000Z</time></trkpt>
<trkpt lat="41.724562" lon="23.5077"><ele>2608.4</ele><time>2026-03-15T08:42:41.000Z</time></trkpt>
<trkpt lat="41.724561" lon="23.507699"><ele>2608.4</ele><time>2026-03-15T08:42:42.000Z</time></trkpt>
<trkpt lat="41.724561" lon="23.507699"><ele>2608.4</ele><time>2026-03-15T08:42:43.000Z</time></trkpt>
<trkpt lat="41.724561" lon="23.507699"><ele>2608.4</ele><time>2026-03-15T08:42:44.000Z</time></trkpt>
<trkpt lat="41.724562" lon="23.507698"><ele>2608.4</ele><time>2026-03-15T08:42:45.000Z</time></trkpt>
<trkpt lat="41.724562" lon="23.507698"><ele>2608.3</ele><time>2026-03-15T08:42:46.000Z</time></trkpt>
<trkpt lat="41.724562" lon="23.507698"><ele>2608.3</ele><time>2026-03-15T08:42:47.000Z</time></trkpt>
<trkpt lat="41.724562" lon="23.507698"><ele>2608.3</ele><time>2026-03-15T08:42:48.000Z</time></trkpt>
<trkpt lat="41.724562" lon="23.507698"><ele>2608.3</ele><time>2026-03-15T08:42:49.000Z</time></trkpt>
<trkpt lat="41.724562" lon="23.507697"><ele>2608.3</ele><time>2026-03-15T08:42:50.000Z</time></trkpt>
<trkpt lat="41.724563" lon="23.507697"><ele>2608.1</ele><time>2026-03-15T08:42:51.000Z</time></trkpt>
<trkpt lat="41.724563" lon="23.507696"><ele>2608.1</ele><time>2026-03-15T08:42:52.000Z</time></trkpt>
<trkpt lat="41.724563" lon="23.507696"><ele>2608.1</ele><time>2026-03-15T08:42:53.000Z</time></trkpt>
<trkpt lat="41.724563" lon="23.507696"><ele>2608.1</ele><time>2026-03-15T08:42:54.000Z</time></trkpt>
<trkpt lat="41.724563" lon="23.507696"><ele>2608.1</ele><time>2026-03-15T08:42:55.000Z</time></trkpt>
<trkpt lat="41.724563" lon="23.507696"><ele>2608.1</ele><time>2026-03-15T08:42:56.000Z</time></trkpt>
<trkpt lat="41.724563" lon="23.507696"><ele>2608.1</ele><time>2026-03-15T08:42:57.000Z</time></trkpt>
<trkpt lat="41.724563" lon="23.507696"><ele>2608.1</ele><time>2026-03-15T08:42:58.000Z</time></trkpt>
<trkpt lat="41.724563" lon="23.507696"><ele>2608.1</ele><time>2026-03-15T08:42:59.000Z</time></trkpt>
<trkpt lat="41.724563" lon="23.507696"><ele>2608.1</ele><time>2026-03-15T08:43:00.000Z</time></trkpt>
<trkpt lat="41.724563" lon="23.507696"><ele>2608.3</ele><time>2026-03-15T08:43:01.000Z</time></trkpt>
<trkpt lat="41.724563" lon="23.507696"><ele>2608.3</ele><time>2026-03-15T08:43:02.000Z</time></trkpt>
<trkpt lat="41.724563" lon="23.507696"><ele>2608.3</ele><time>2026-03-15T08:43:03.000Z</time></trkpt>
<trkpt lat="41.724563" lon="23.507696"><ele>2608.3</ele><time>2026-03-15T08:43:04.000Z</time></trkpt>
<trkpt lat="41.724563" lon="23.507696"><ele>2608.3</ele><time>2026-03-15T08:43:05.000Z</time></trkpt>
<trkpt lat="41.724563" lon="23.507696"><ele>2608.5</ele><time>2026-03-15T08:43:06.000Z</time></trkpt>
<trkpt lat="41.724563" lon="23.507696"><ele>2608.5</ele><time>2026-03-15T08:43:07.000Z</time></trkpt>
<trkpt lat="41.724563" lon="23.507696"><ele>2608.5</ele><time>2026-03-15T08:43:08.000Z</time></trkpt>
<trkpt lat="41.724563" lon="23.507696"><ele>2608.5</ele><time>2026-03-15T08:43:09.000Z</time></trkpt>
<trkpt lat="41.724563" lon="23.507696"><ele>2608.5</ele><time>2026-03-15T08:43:10.000Z</time></trkpt>
<trkpt lat="41.724563" lon="23.507696"><ele>2608.7</ele><time>2026-03-15T08:43:11.000Z</time></trkpt>
<trkpt lat="41.724563" lon="23.507696"><ele>2608.7</ele><time>2026-03-15T08:43:12.000Z</time></trkpt>
<trkpt lat="41.724563" lon="23.507696"><ele>2608.7</ele><time>2026-03-15T08:43:13.000Z</time></trkpt>
<trkpt lat="41.724563" lon="23.507697"><ele>2608.7</ele><time>2026-03-15T08:43:14.000Z</time></trkpt>
<trkpt lat="41.724563" lon="23.507698"><ele>2608.7</ele><time>2026-03-15T08:43:15.000Z</time></trkpt>
<trkpt lat="41.724563" lon="23.507698"><ele>2608.9</ele><time>2026-03-15T08:43:16.000Z</time></trkpt>
<trkpt lat="41.724562" lon="23.5077"><ele>2608.9</ele><time>2026-03-15T08:43:17.000Z</time></trkpt>
<trkpt lat="41.724562" lon="23.5077"><ele>2608.9</ele><time>2026-03-15T08:43:18.000Z</time></trkpt>
<trkpt lat="41.724561" lon="23.507701"><ele>2608.9</ele><time>2026-03-15T08:43:19.000Z</time></trkpt>
<trkpt lat="41.724561" lon="23.507701"><ele>2608.9</ele><time>2026-03-15T08:43:20.000Z</time></trkpt>
<trkpt lat="41.724561" lon="23.507701"><ele>2608.9</ele><time>2026-03-15T08:43:21.000Z</time></trkpt>
<trkpt lat="41.724561" lon="23.507701"><ele>2608.9</ele><time>2026-03-15T08:43:22.000Z</time></trkpt>
<trkpt lat="41.724561" lon="23.5077"><ele>2608.9</ele><time>2026-03-15T08:43:23.000Z</time></trkpt>
<trkpt lat="41.724561" lon="23.5077"><ele>2608.9</ele><time>2026-03-15T08:43:24.000Z</time></trkpt>
<trkpt lat="41.724561" lon="23.5077"><ele>2608.9</ele><time>2026-03-15T08:43:25.000Z</time></trkpt>
<trkpt lat="41.724561" lon="23.5077"><ele>2608.9</ele><time>2026-03-15T08:43:26.000Z</time></trkpt>
<trkpt lat="41.724561" lon="23.5077"><ele>2608.9</ele><time>2026-03-15T08:43:27.000Z</time></trkpt>
<trkpt lat="41.72456" lon="23.5077"><ele>2608.9</ele><time>2026-03-15T08:43:28.000Z</time></trkpt>
<trkpt lat="41.72456" lon="23.5077"><ele>2608.9</ele><time>2026-03-15T08:43:29.000Z</time></trkpt>
<trkpt lat="41.724559" lon="23.5077"><ele>2608.9</ele><time>2026-03-15T08:43:30.000Z</time></trkpt>
<trkpt lat="41.724559" lon="23.507701"><ele>2608.8</ele><time>2026-03-15T08:43:31.000Z</time></trkpt>
<trkpt lat="41.724559" lon="23.507701"><ele>2608.8</ele><time>2026-03-15T08:43:32.000Z</time></trkpt>
<trkpt lat="41.724559" lon="23.5077"><ele>2608.8</ele><time>2026-03-15T08:43:33.000Z</time></trkpt>
<trkpt lat="41.724559" lon="23.5077"><ele>2608.8</ele><time>2026-03-15T08:43:34.000Z</time></trkpt>
<trkpt lat="41.724559" lon="23.5077"><ele>2608.8</ele><time>2026-03-15T08:43:35.000Z</time></trkpt>
<trkpt lat="41.724559" lon="23.5077"><ele>2608.4</ele><time>2026-03-15T08:43:36.000Z</time></trkpt>
<trkpt lat="41.724559" lon="23.5077"><ele>2608.4</ele><time>2026-03-15T08:43:37.000Z</time></trkpt>
<trkpt lat="41.724559" lon="23.5077"><ele>2608.4</ele><time>2026-03-15T08:43:38.000Z</time></trkpt>
<trkpt lat="41.724559" lon="23.5077"><ele>2608.4</ele><time>2026-03-15T08:43:39.000Z</time></trkpt>
<trkpt lat="41.724559" lon="23.5077"><ele>2608.4</ele><time>2026-03-15T08:43:40.000Z</time></trkpt>
<trkpt lat="41.724559" lon="23.5077"><ele>2608.2</ele><time>2026-03-15T08:43:41.000Z</time></trkpt>
<trkpt lat="41.724559" lon="23.5077"><ele>2608.2</ele><time>2026-03-15T08:43:42.000Z</time></trkpt>
<trkpt lat="41.72456" lon="23.5077"><ele>2608.2</ele><time>2026-03-15T08:43:43.000Z</time></trkpt>
<trkpt lat="41.72456" lon="23.507701"><ele>2608.2</ele><time>2026-03-15T08:43:44.000Z</time></trkpt>
<trkpt lat="41.72456" lon="23.507702"><ele>2608.2</ele><time>2026-03-15T08:43:45.000Z</time></trkpt>
<trkpt lat="41.72456" lon="23.507703"><ele>2607.9</ele><time>2026-03-15T08:43:46.000Z</time></trkpt>
<trkpt lat="41.72456" lon="23.507704"><ele>2607.9</ele><time>2026-03-15T08:43:47.000Z</time></trkpt>
<trkpt lat="41.724561" lon="23.507705"><ele>2607.9</ele><time>2026-03-15T08:43:48.000Z</time></trkpt>
<trkpt lat="41.724561" lon="23.507706"><ele>2607.9</ele><time>2026-03-15T08:43:49.000Z</time></trkpt>
<trkpt lat="41.724561" lon="23.507706"><ele>2607.9</ele><time>2026-03-15T08:43:50.000Z</time></trkpt>
<trkpt lat="41.724562" lon="23.507706"><ele>2607.8</ele><time>2026-03-15T08:43:51.000Z</time></trkpt>
<trkpt lat="41.724562" lon="23.507706"><ele>2607.8</ele><time>2026-03-15T08:43:52.000Z</time></trkpt>
<trkpt lat="41.724562" lon="23.507706"><ele>2607.8</ele><time>2026-03-15T08:43:53.000Z</time></trkpt>
<trkpt lat="41.724562" lon="23.507706"><ele>2607.8</ele><time>2026-03-15T08:43:54.000Z</time></trkpt>
<trkpt lat="41.724562" lon="23.507705"><ele>2607.8</ele><time>2026-03-15T08:43:55.000Z</time></trkpt>
<trkpt lat="41.724561" lon="23.507704"><ele>2607.8</ele><time>2026-03-15T08:43:56.000Z</time></trkpt>
<trkpt lat="41.724561" lon="23.507703"><ele>2607.8</ele><time>2026-03-15T08:43:57.000Z</time></trkpt>
<trkpt lat="41.72456" lon="23.507701"><ele>2607.8</ele><time>2026-03-15T08:43:58.000Z</time></trkpt>
<trkpt lat="41.72456" lon="23.5077"><ele>2607.8</ele><time>2026-03-15T08:43:59.000Z</time></trkpt>
<trkpt lat="41.72456" lon="23.507699"><ele>2607.8</ele><time>2026-03-15T08:44:00.000Z</time></trkpt>
<trkpt lat="41.72456" lon="23.507699"><ele>2607.9</ele><time>2026-03-15T08:44:01.000Z</time></trkpt>
<trkpt lat="41.724559" lon="23.507699"><ele>2607.9</ele><time>2026-03-15T08:44:02.000Z</time></trkpt>
<trkpt lat="41.72456" lon="23.507699"><ele>2607.9</ele><time>2026-03-15T08:44:03.000Z</time></trkpt>
<trkpt lat="41.724561" lon="23.507699"><ele>2607.9</ele><time>2026-03-15T08:44:04.000Z</time></trkpt>
<trkpt lat="41.724562" lon="23.507699"><ele>2607.9</ele><time>2026-03-15T08:44:05.000Z</time></trkpt>
<trkpt lat="41.724563" lon="23.507699"><ele>2608</ele><time>2026-03-15T08:44:06.000Z</time></trkpt>
<trkpt lat="41.724565" lon="23.507699"><ele>2608</ele><time>2026-03-15T08:44:07.000Z</time></trkpt>
<trkpt lat="41.724565" lon="23.5077"><ele>2608</ele><time>2026-03-15T08:44:08.000Z</time></trkpt>
<trkpt lat="41.724565" lon="23.507701"><ele>2608</ele><time>2026-03-15T08:44:09.000Z</time></trkpt>
<trkpt lat="41.724564" lon="23.507701"><ele>2608</ele><time>2026-03-15T08:44:10.000Z</time></trkpt>
<trkpt lat="41.724564" lon="23.507701"><ele>2608.1</ele><time>2026-03-15T08:44:11.000Z</time></trkpt>
<trkpt lat="41.724564" lon="23.5077"><ele>2608.1</ele><time>2026-03-15T08:44:12.000Z</time></trkpt>
<trkpt lat="41.724564" lon="23.507699"><ele>2608.1</ele><time>2026-03-15T08:44:13.000Z</time></trkpt>
<trkpt lat="41.724564" lon="23.507698"><ele>2608.1</ele><time>2026-03-15T08:44:14.000Z</time></trkpt>
<trkpt lat="41.724564" lon="23.507697"><ele>2608.1</ele><time>2026-03-15T08:44:15.000Z</time></trkpt>
<trkpt lat="41.724565" lon="23.507696"><ele>2608.2</ele><time>2026-03-15T08:44:16.000Z</time></trkpt>
<trkpt lat="41.724565" lon="23.507695"><ele>2608.2</ele><time>2026-03-15T08:44:17.000Z</time></trkpt>
<trkpt lat="41.724566" lon="23.507695"><ele>2608.2</ele><time>2026-03-15T08:44:18.000Z</time></trkpt>
<trkpt lat="41.724566" lon="23.507694"><ele>2608.2</ele><time>2026-03-15T08:44:19.000Z</time></trkpt>
<trkpt lat="41.724566" lon="23.507694"><ele>2608.2</ele><time>2026-03-15T08:44:20.000Z</time></trkpt>
<trkpt lat="41.724566" lon="23.507695"><ele>2608.3</ele><time>2026-03-15T08:44:21.000Z</time></trkpt>
<trkpt lat="41.724566" lon="23.507695"><ele>2608.3</ele><time>2026-03-15T08:44:22.000Z</time></trkpt>
<trkpt lat="41.724566" lon="23.507696"><ele>2608.3</ele><time>2026-03-15T08:44:23.000Z</time></trkpt>
<trkpt lat="41.724566" lon="23.507696"><ele>2608.3</ele><time>2026-03-15T08:44:24.000Z</time></trkpt>
<trkpt lat="41.724566" lon="23.507697"><ele>2608.3</ele><time>2026-03-15T08:44:25.000Z</time></trkpt>
<trkpt lat="41.724566" lon="23.507697"><ele>2608.2</ele><time>2026-03-15T08:44:26.000Z</time></trkpt>
<trkpt lat="41.724566" lon="23.507697"><ele>2608.2</ele><time>2026-03-15T08:44:27.000Z</time></trkpt>
<trkpt lat="41.724566" lon="23.507697"><ele>2608.2</ele><time>2026-03-15T08:44:28.000Z</time></trkpt>
<trkpt lat="41.724566" lon="23.507697"><ele>2608.2</ele><time>2026-03-15T08:44:29.000Z</time></trkpt>
<trkpt lat="41.724566" lon="23.507697"><ele>2608.2</ele><time>2026-03-15T08:44:30.000Z</time></trkpt>
<trkpt lat="41.724566" lon="23.507697"><ele>2607.9</ele><time>2026-03-15T08:44:31.000Z</time></trkpt>
<trkpt lat="41.724566" lon="23.507697"><ele>2607.9</ele><time>2026-03-15T08:44:32.000Z</time></trkpt>
<trkpt lat="41.724566" lon="23.507696"><ele>2607.9</ele><time>2026-03-15T08:44:33.000Z</time></trkpt>
<trkpt lat="41.724565" lon="23.507696"><ele>2607.9</ele><time>2026-03-15T08:44:34.000Z</time></trkpt>
<trkpt lat="41.724565" lon="23.507695"><ele>2607.9</ele><time>2026-03-15T08:44:35.000Z</time></trkpt>
<trkpt lat="41.724564" lon="23.507695"><ele>2607.6</ele><time>2026-03-15T08:44:36.000Z</time></trkpt>
<trkpt lat="41.724563" lon="23.507695"><ele>2607.6</ele><time>2026-03-15T08:44:37.000Z</time></trkpt>
<trkpt lat="41.724563" lon="23.507695"><ele>2607.6</ele><time>2026-03-15T08:44:38.000Z</time></trkpt>
<trkpt lat="41.724562" lon="23.507695"><ele>2607.6</ele><time>2026-03-15T08:44:39.000Z</time></trkpt>
<trkpt lat="41.724562" lon="23.507695"><ele>2607.6</ele><time>2026-03-15T08:44:40.000Z</time></trkpt>
<trkpt lat="41.724562" lon="23.507695"><ele>2607.6</ele><time>2026-03-15T08:44:41.000Z</time></trkpt>
<trkpt lat="41.724562" lon="23.507695"><ele>2607.6</ele><time>2026-03-15T08:44:42.000Z</time></trkpt>
<trkpt lat="41.724562" lon="23.507695"><ele>2607.6</ele><time>2026-03-15T08:44:43.000Z</time></trkpt>
<trkpt lat="41.724562" lon="23.507695"><ele>2607.6</ele><time>2026-03-15T08:44:44.000Z</time></trkpt>
<trkpt lat="41.724562" lon="23.507695"><ele>2607.6</ele><time>2026-03-15T08:44:45.000Z</time></trkpt>
<trkpt lat="41.724562" lon="23.507695"><ele>2608</ele><time>2026-03-15T08:44:46.000Z</time></trkpt>
<trkpt lat="41.724562" lon="23.507695"><ele>2608</ele><time>2026-03-15T08:44:47.000Z</time></trkpt>
<trkpt lat="41.724561" lon="23.507695"><ele>2608</ele><time>2026-03-15T08:44:48.000Z</time></trkpt>
<trkpt lat="41.724561" lon="23.507695"><ele>2608</ele><time>2026-03-15T08:44:49.000Z</time></trkpt>
<trkpt lat="41.724561" lon="23.507695"><ele>2608</ele><time>2026-03-15T08:44:50.000Z</time></trkpt>
<trkpt lat="41.724561" lon="23.507695"><ele>2608.5</ele><time>2026-03-15T08:44:51.000Z</time></trkpt>
<trkpt lat="41.724562" lon="23.507695"><ele>2608.5</ele><time>2026-03-15T08:44:52.000Z</time></trkpt>
<trkpt lat="41.724562" lon="23.507695"><ele>2608.5</ele><time>2026-03-15T08:44:53.000Z</time></trkpt>
<trkpt lat="41.724562" lon="23.507695"><ele>2608.5</ele><time>2026-03-15T08:44:54.000Z</time></trkpt>
<trkpt lat="41.724562" lon="23.507695"><ele>2608.5</ele><time>2026-03-15T08:44:55.000Z</time></trkpt>
<trkpt lat="41.724562" lon="23.507695"><ele>2608.7</ele><time>2026-03-15T08:44:56.000Z</time></trkpt>
<trkpt lat="41.724562" lon="23.507695"><ele>2608.7</ele><time>2026-03-15T08:44:57.000Z</time></trkpt>
<trkpt lat="41.724561" lon="23.507695"><ele>2608.7</ele><time>2026-03-15T08:44:58.000Z</time></trkpt>
<trkpt lat="41.724561" lon="23.507696"><ele>2608.7</ele><time>2026-03-15T08:44:59.000Z</time></trkpt>
<trkpt lat="41.724561" lon="23.507695"><ele>2608.7</ele><time>2026-03-15T08:45:00.000Z</time></trkpt>
<trkpt lat="41.724561" lon="23.507696"><ele>2608.9</ele><time>2026-03-15T08:45:01.000Z</time></trkpt>
<trkpt lat="41.724562" lon="23.507696"><ele>2608.9</ele><time>2026-03-15T08:45:02.000Z</time></trkpt>
<trkpt lat="41.724562" lon="23.507697"><ele>2608.9</ele><time>2026-03-15T08:45:03.000Z</time></trkpt>
<trkpt lat="41.724563" lon="23.507697"><ele>2608.9</ele><time>2026-03-15T08:45:04.000Z</time></trkpt>
<trkpt lat="41.724564" lon="23.507698"><ele>2608.9</ele><time>2026-03-15T08:45:05.000Z</time></trkpt>
<trkpt lat="41.724564" lon="23.507698"><ele>2608.8</ele><time>2026-03-15T08:45:06.000Z</time></trkpt>
<trkpt lat="41.724565" lon="23.507697"><ele>2608.8</ele><time>2026-03-15T08:45:07.000Z</time></trkpt>
<trkpt lat="41.724565" lon="23.507697"><ele>2608.8</ele><time>2026-03-15T08:45:08.000Z</time></trkpt>
<trkpt lat="41.724566" lon="23.507697"><ele>2608.8</ele><time>2026-03-15T08:45:09.000Z</time></trkpt>
<trkpt lat="41.724566" lon="23.507697"><ele>2608.8</ele><time>2026-03-15T08:45:10.000Z</time></trkpt>
<trkpt lat="41.724566" lon="23.507697"><ele>2608.7</ele><time>2026-03-15T08:45:11.000Z</time></trkpt>
<trkpt lat="41.724566" lon="23.507697"><ele>2608.7</ele><time>2026-03-15T08:45:12.000Z</time></trkpt>
<trkpt lat="41.724566" lon="23.507697"><ele>2608.7</ele><time>2026-03-15T08:45:13.000Z</time></trkpt>
<trkpt lat="41.724566" lon="23.507697"><ele>2608.7</ele><time>2026-03-15T08:45:14.000Z</time></trkpt>
<trkpt lat="41.724566" lon="23.507697"><ele>2608.7</ele><time>2026-03-15T08:45:15.000Z</time></trkpt>
<trkpt lat="41.724566" lon="23.507697"><ele>2608.4</ele><time>2026-03-15T08:45:16.000Z</time></trkpt>
<trkpt lat="41.724566" lon="23.507697"><ele>2608.4</ele><time>2026-03-15T08:45:17.000Z</time></trkpt>
<trkpt lat="41.724565" lon="23.507697"><ele>2608.4</ele><time>2026-03-15T08:45:18.000Z</time></trkpt>
<trkpt lat="41.724564" lon="23.507696"><ele>2608.4</ele><time>2026-03-15T08:45:19.000Z</time></trkpt>
<trkpt lat="41.724564" lon="23.507695"><ele>2608.4</ele><time>2026-03-15T08:45:20.000Z</time></trkpt>
<trkpt lat="41.724564" lon="23.507694"><ele>2608.3</ele><time>2026-03-15T08:45:21.000Z</time></trkpt>
<trkpt lat="41.724564" lon="23.507695"><ele>2608.3</ele><time>2026-03-15T08:45:22.000Z</time></trkpt>
<trkpt lat="41.724565" lon="23.507696"><ele>2608.3</ele><time>2026-03-15T08:45:23.000Z</time></trkpt>
<trkpt lat="41.724564" lon="23.507699"><ele>2608.3</ele><time>2026-03-15T08:45:24.000Z</time></trkpt>
<trkpt lat="41.724562" lon="23.507704"><ele>2608.3</ele><time>2026-03-15T08:45:25.000Z</time></trkpt>
<trkpt lat="41.724558" lon="23.507709"><ele>2608.3</ele><time>2026-03-15T08:45:26.000Z</time></trkpt>
<trkpt lat="41.724551" lon="23.507713"><ele>2608.3</ele><time>2026-03-15T08:45:27.000Z</time></trkpt>
<trkpt lat="41.724544" lon="23.507715"><ele>2608.3</ele><time>2026-03-15T08:45:28.000Z</time></trkpt>
<trkpt lat="41.724536" lon="23.507713"><ele>2608.3</ele><time>2026-03-15T08:45:29.000Z</time></trkpt>
<trkpt lat="41.724527" lon="23.507709"><ele>2608.3</ele><time>2026-03-15T08:45:30.000Z</time></trkpt>
<trkpt lat="41.724518" lon="23.507703"><ele>2608.4</ele><time>2026-03-15T08:45:31.000Z</time></trkpt>
<trkpt lat="41.724508" lon="23.507697"><ele>2608.4</ele><time>2026-03-15T08:45:32.000Z</time></trkpt>
<trkpt lat="41.724498" lon="23.507692"><ele>2608.4</ele><time>2026-03-15T08:45:33.000Z</time></trkpt>
<trkpt lat="41.724488" lon="23.507687"><ele>2608.4</ele><time>2026-03-15T08:45:34.000Z</time></trkpt>
<trkpt lat="41.724477" lon="23.507685"><ele>2608.4</ele><time>2026-03-15T08:45:35.000Z</time></trkpt>
<trkpt lat="41.724466" lon="23.507681"><ele>2608.1</ele><time>2026-03-15T08:45:36.000Z</time></trkpt>
<trkpt lat="41.724456" lon="23.507676"><ele>2608.1</ele><time>2026-03-15T08:45:37.000Z</time></trkpt>
<trkpt lat="41.724446" lon="23.507669"><ele>2608.1</ele><time>2026-03-15T08:45:38.000Z</time></trkpt>
<trkpt lat="41.724438" lon="23.507661"><ele>2608.1</ele><time>2026-03-15T08:45:39.000Z</time></trkpt>
<trkpt lat="41.724429" lon="23.50765"><ele>2608.1</ele><time>2026-03-15T08:45:40.000Z</time></trkpt>
<trkpt lat="41.724421" lon="23.507639"><ele>2607.8</ele><time>2026-03-15T08:45:41.000Z</time></trkpt>
<trkpt lat="41.724414" lon="23.507629"><ele>2607.8</ele><time>2026-03-15T08:45:42.000Z</time></trkpt>
<trkpt lat="41.724406" lon="23.50762"><ele>2607.8</ele><time>2026-03-15T08:45:43.000Z</time></trkpt>
<trkpt lat="41.724397" lon="23.507611"><ele>2607.8</ele><time>2026-03-15T08:45:44.000Z</time></trkpt>
<trkpt lat="41.724389" lon="23.507603"><ele>2607.8</ele><time>2026-03-15T08:45:45.000Z</time></trkpt>
<trkpt lat="41.724381" lon="23.507595"><ele>2607.1</ele><time>2026-03-15T08:45:46.000Z</time></trkpt>
<trkpt lat="41.724373" lon="23.507586"><ele>2607.1</ele><time>2026-03-15T08:45:47.000Z</time></trkpt>
<trkpt lat="41.724367" lon="23.507576"><ele>2607.1</ele><time>2026-03-15T08:45:48.000Z</time></trkpt>
<trkpt lat="41.724361" lon="23.507565"><ele>2607.1</ele><time>2026-03-15T08:45:49.000Z</time></trkpt>
<trkpt lat="41.724356" lon="23.507554"><ele>2607.1</ele><time>2026-03-15T08:45:50.000Z</time></trkpt>
<trkpt lat="41.724352" lon="23.507542"><ele>2606.3</ele><time>2026-03-15T08:45:51.000Z</time></trkpt>
<trkpt lat="41.724346" lon="23.507531"><ele>2606.3</ele><time>2026-03-15T08:45:52.000Z</time></trkpt>
<trkpt lat="41.724341" lon="23.50752"><ele>2606.3</ele><time>2026-03-15T08:45:53.000Z</time></trkpt>
<trkpt lat="41.724334" lon="23.507508"><ele>2606.3</ele><time>2026-03-15T08:45:54.000Z</time></trkpt>
<trkpt lat="41.724327" lon="23.507496"><ele>2606.3</ele><time>2026-03-15T08:45:55.000Z</time></trkpt>
<trkpt lat="41.72432" lon="23.507485"><ele>2606</ele><time>2026-03-15T08:45:56.000Z</time></trkpt>
<trkpt lat="41.724313" lon="23.507473"><ele>2606</ele><time>2026-03-15T08:45:57.000Z</time></trkpt>
<trkpt lat="41.724307" lon="23.50746"><ele>2606</ele><time>2026-03-15T08:45:58.000Z</time></trkpt>
<trkpt lat="41.724302" lon="23.507448"><ele>2606</ele><time>2026-03-15T08:45:59.000Z</time></trkpt>
<trkpt lat="41.724297" lon="23.507435"><ele>2606</ele><time>2026-03-15T08:46:00.000Z</time></trkpt>
<trkpt lat="41.724292" lon="23.507421"><ele>2605.1</ele><time>2026-03-15T08:46:01.000Z</time></trkpt>
<trkpt lat="41.724287" lon="23.507407"><ele>2605.1</ele><time>2026-03-15T08:46:02.000Z</time></trkpt>
<trkpt lat="41.724282" lon="23.507393"><ele>2605.1</ele><time>2026-03-15T08:46:03.000Z</time></trkpt>
<trkpt lat="41.724276" lon="23.507379"><ele>2605.1</ele><time>2026-03-15T08:46:04.000Z</time></trkpt>
<trkpt lat="41.724271" lon="23.507365"><ele>2605.1</ele><time>2026-03-15T08:46:05.000Z</time></trkpt>
<trkpt lat="41.724266" lon="23.507351"><ele>2604.2</ele><time>2026-03-15T08:46:06.000Z</time></trkpt>
<trkpt lat="41.724261" lon="23.507336"><ele>2604.2</ele><time>2026-03-15T08:46:07.000Z</time></trkpt>
<trkpt lat="41.724257" lon="23.507321"><ele>2604.2</ele><time>2026-03-15T08:46:08.000Z</time></trkpt>
<trkpt lat="41.724253" lon="23.507304"><ele>2604.2</ele><time>2026-03-15T08:46:09.000Z</time></trkpt>
<trkpt lat="41.724251" lon="23.507287"><ele>2604.2</ele><time>2026-03-15T08:46:10.000Z</time></trkpt>
<trkpt lat="41.724248" lon="23.50727"><ele>2603.8</ele><time>2026-03-15T08:46:11.000Z</time></trkpt>
<trkpt lat="41.724245" lon="23.507253"><ele>2603.8</ele><time>2026-03-15T08:46:12.000Z</time></trkpt>
<trkpt lat="41.724241" lon="23.507236"><ele>2603.8</ele><time>2026-03-15T08:46:13.000Z</time></trkpt>
<trkpt lat="41.724237" lon="23.507219"><ele>2603.8</ele><time>2026-03-15T08:46:14.000Z</time></trkpt>
<trkpt lat="41.724232" lon="23.507202"><ele>2603.8</ele><time>2026-03-15T08:46:15.000Z</time></trkpt>
<trkpt lat="41.724226" lon="23.507186"><ele>2603.1</ele><time>2026-03-15T08:46:16.000Z</time></trkpt>
<trkpt lat="41.72422" lon="23.507169"><ele>2603.1</ele><time>2026-03-15T08:46:17.000Z</time></trkpt>
<trkpt lat="41.724215" lon="23.507153"><ele>2603.1</ele><time>2026-03-15T08:46:18.000Z</time></trkpt>
<trkpt lat="41.72421" lon="23.507138"><ele>2603.1</ele><time>2026-03-15T08:46:19.000Z</time></trkpt>
<trkpt lat="41.724205" lon="23.507124"><ele>2603.1</ele><time>2026-03-15T08:46:20.000Z</time></trkpt>
<trkpt lat="41.724201" lon="23.50711"><ele>2602.7</ele><time>2026-03-15T08:46:21.000Z</time></trkpt>
<trkpt lat="41.724196" lon="23.507097"><ele>2602.7</ele><time>2026-03-15T08:46:22.000Z</time></trkpt>
<trkpt lat="41.72419" lon="23.507083"><ele>2602.7</ele><time>2026-03-15T08:46:23.000Z</time></trkpt>
<trkpt lat="41.724184" lon="23.50707"><ele>2602.7</ele><time>2026-03-15T08:46:24.000Z</time></trkpt>
<trkpt lat="41.724179" lon="23.507056"><ele>2602.7</ele><time>2026-03-15T08:46:25.000Z</time></trkpt>
<trkpt lat="41.724173" lon="23.507043"><ele>2602.7</ele><time>2026-03-15T08:46:26.000Z</time></trkpt>
<trkpt lat="41.724169" lon="23.50703"><ele>2602.7</ele><time>2026-03-15T08:46:27.000Z</time></trkpt>
<trkpt lat="41.724164" lon="23.507018"><ele>2602.7</ele><time>2026-03-15T08:46:28.000Z</time></trkpt>
<trkpt lat="41.72416" lon="23.507007"><ele>2602.7</ele><time>2026-03-15T08:46:29.000Z</time></trkpt>
<trkpt lat="41.724155" lon="23.506996"><ele>2602.7</ele><time>2026-03-15T08:46:30.000Z</time></trkpt>
<trkpt lat="41.724151" lon="23.506985"><ele>2603.2</ele><time>2026-03-15T08:46:31.000Z</time></trkpt>
<trkpt lat="41.724146" lon="23.506973"><ele>2603.2</ele><time>2026-03-15T08:46:32.000Z</time></trkpt>
<trkpt lat="41.724142" lon="23.506961"><ele>2603.2</ele><time>2026-03-15T08:46:33.000Z</time></trkpt>
<trkpt lat="41.724137" lon="23.506949"><ele>2603.2</ele><time>2026-03-15T08:46:34.000Z</time></trkpt>
<trkpt lat="41.724132" lon="23.506938"><ele>2603.2</ele><time>2026-03-15T08:46:35.000Z</time></trkpt>
<trkpt lat="41.724127" lon="23.506926"><ele>2603.9</ele><time>2026-03-15T08:46:36.000Z</time></trkpt>
<trkpt lat="41.724121" lon="23.506913"><ele>2603.9</ele><time>2026-03-15T08:46:37.000Z</time></trkpt>
<trkpt lat="41.724116" lon="23.506901"><ele>2603.9</ele><time>2026-03-15T08:46:38.000Z</time></trkpt>
<trkpt lat="41.72411" lon="23.506888"><ele>2603.9</ele><time>2026-03-15T08:46:39.000Z</time></trkpt>
<trkpt lat="41.724105" lon="23.506875"><ele>2603.9</ele><time>2026-03-15T08:46:40.000Z</time></trkpt>
<trkpt lat="41.724101" lon="23.506861"><ele>2604.1</ele><time>2026-03-15T08:46:41.000Z</time></trkpt>
<trkpt lat="41.724097" lon="23.506848"><ele>2604.1</ele><time>2026-03-15T08:46:42.000Z</time></trkpt>
<trkpt lat="41.724093" lon="23.506834"><ele>2604.1</ele><time>2026-03-15T08:46:43.000Z</time></trkpt>
<trkpt lat="41.724089" lon="23.50682"><ele>2604.1</ele><time>2026-03-15T08:46:44.000Z</time></trkpt>
<trkpt lat="41.724085" lon="23.506806"><ele>2604.1</ele><time>2026-03-15T08:46:45.000Z</time></trkpt>
<trkpt lat="41.724081" lon="23.506792"><ele>2604.2</ele><time>2026-03-15T08:46:46.000Z</time></trkpt>
<trkpt lat="41.724077" lon="23.506778"><ele>2604.2</ele><time>2026-03-15T08:46:47.000Z</time></trkpt>
<trkpt lat="41.724073" lon="23.506765"><ele>2604.2</ele><time>2026-03-15T08:46:48.000Z</time></trkpt>
<trkpt lat="41.72407" lon="23.50675"><ele>2604.2</ele><time>2026-03-15T08:46:49.000Z</time></trkpt>
<trkpt lat="41.724066" lon="23.506736"><ele>2604.2</ele><time>2026-03-15T08:46:50.000Z</time></trkpt>
<trkpt lat="41.724062" lon="23.506722"><ele>2603.9</ele><time>2026-03-15T08:46:51.000Z</time></trkpt>
<trkpt lat="41.724058" lon="23.506708"><ele>2603.9</ele><time>2026-03-15T08:46:52.000Z</time></trkpt>
<trkpt lat="41.724054" lon="23.506693"><ele>2603.9</ele><time>2026-03-15T08:46:53.000Z</time></trkpt>
<trkpt lat="41.724051" lon="23.506679"><ele>2603.9</ele><time>2026-03-15T08:46:54.000Z</time></trkpt>
<trkpt lat="41.724047" lon="23.506664"><ele>2603.9</ele><time>2026-03-15T08:46:55.000Z</time></trkpt>
<trkpt lat="41.724044" lon="23.506649"><ele>2603.9</ele><time>2026-03-15T08:46:56.000Z</time></trkpt>
<trkpt lat="41.724041" lon="23.506635"><ele>2603.9</ele><time>2026-03-15T08:46:57.000Z</time></trkpt>
<trkpt lat="41.724037" lon="23.506621"><ele>2603.9</ele><time>2026-03-15T08:46:58.000Z</time></trkpt>
<trkpt lat="41.724033" lon="23.506607"><ele>2603.9</ele><time>2026-03-15T08:46:59.000Z</time></trkpt>
<trkpt lat="41.72403" lon="23.506594"><ele>2603.9</ele><time>2026-03-15T08:47:00.000Z</time></trkpt>
<trkpt lat="41.724026" lon="23.50658"><ele>2604.1</ele><time>2026-03-15T08:47:01.000Z</time></trkpt>
<trkpt lat="41.724022" lon="23.506567"><ele>2604.1</ele><time>2026-03-15T08:47:02.000Z</time></trkpt>
<trkpt lat="41.724018" lon="23.506554"><ele>2604.1</ele><time>2026-03-15T08:47:03.000Z</time></trkpt>
<trkpt lat="41.724015" lon="23.50654"><ele>2604.1</ele><time>2026-03-15T08:47:04.000Z</time></trkpt>
<trkpt lat="41.724013" lon="23.506528"><ele>2604.1</ele><time>2026-03-15T08:47:05.000Z</time></trkpt>
<trkpt lat="41.72401" lon="23.506515"><ele>2604.8</ele><time>2026-03-15T08:47:06.000Z</time></trkpt>
<trkpt lat="41.724008" lon="23.506502"><ele>2604.8</ele><time>2026-03-15T08:47:07.000Z</time></trkpt>
<trkpt lat="41.724007" lon="23.506491"><ele>2604.8</ele><time>2026-03-15T08:47:08.000Z</time></trkpt>
<trkpt lat="41.724005" lon="23.50648"><ele>2604.8</ele><time>2026-03-15T08:47:09.000Z</time></trkpt>
<trkpt lat="41.724004" lon="23.50647"><ele>2604.8</ele><time>2026-03-15T08:47:10.000Z</time></trkpt>
<trkpt lat="41.724002" lon="23.506459"><ele>2605.4</ele><time>2026-03-15T08:47:11.000Z</time></trkpt>
<trkpt lat="41.723999" lon="23.506449"><ele>2605.4</ele><time>2026-03-15T08:47:12.000Z</time></trkpt>
<trkpt lat="41.723996" lon="23.506438"><ele>2605.4</ele><time>2026-03-15T08:47:13.000Z</time></trkpt>
<trkpt lat="41.723992" lon="23.506426"><ele>2605.4</ele><time>2026-03-15T08:47:14.000Z</time></trkpt>
<trkpt lat="41.723989" lon="23.506415"><ele>2605.4</ele><time>2026-03-15T08:47:15.000Z</time></trkpt>
<trkpt lat="41.723985" lon="23.506402"><ele>2606.6</ele><time>2026-03-15T08:47:16.000Z</time></trkpt>
<trkpt lat="41.723982" lon="23.506389"><ele>2606.6</ele><time>2026-03-15T08:47:17.000Z</time></trkpt>
<trkpt lat="41.723979" lon="23.506377"><ele>2606.6</ele><time>2026-03-15T08:47:18.000Z</time></trkpt>
<trkpt lat="41.723975" lon="23.506366"><ele>2606.6</ele><time>2026-03-15T08:47:19.000Z</time></trkpt>
<trkpt lat="41.723972" lon="23.506355"><ele>2606.6</ele><time>2026-03-15T08:47:20.000Z</time></trkpt>
<trkpt lat="41.723969" lon="23.506345"><ele>2607.7</ele><time>2026-03-15T08:47:21.000Z</time></trkpt>
<trkpt lat="41.723967" lon="23.506334"><ele>2607.7</ele><time>2026-03-15T08:47:22.000Z</time></trkpt>
<trkpt lat="41.723965" lon="23.506322"><ele>2607.7</ele><time>2026-03-15T08:47:23.000Z</time></trkpt>
<trkpt lat="41.723964" lon="23.50631"><ele>2607.7</ele><time>2026-03-15T08:47:24.000Z</time></trkpt>
<trkpt lat="41.723962" lon="23.506299"><ele>2607.7</ele><time>2026-03-15T08:47:25.000Z</time></trkpt>
<trkpt lat="41.72396" lon="23.506287"><ele>2608.3</ele><time>2026-03-15T08:47:26.000Z</time></trkpt>
<trkpt lat="41.723958" lon="23.506275"><ele>2608.3</ele><time>2026-03-15T08:47:27.000Z</time></trkpt>
<trkpt lat="41.723955" lon="23.506264"><ele>2608.3</ele><time>2026-03-15T08:47:28.000Z</time></trkpt>
<trkpt lat="41.723952" lon="23.506253"><ele>2608.3</ele><time>2026-03-15T08:47:29.000Z</time></trkpt>
<trkpt lat="41.723949" lon="23.506243"><ele>2608.3</ele><time>2026-03-15T08:47:30.000Z</time></trkpt>
<trkpt lat="41.723946" lon="23.506232"><ele>2609.4</ele><time>2026-03-15T08:47:31.000Z</time></trkpt>
<trkpt lat="41.723942" lon="23.506222"><ele>2609.4</ele><time>2026-03-15T08:47:32.000Z</time></trkpt>
<trkpt lat="41.723939" lon="23.506212"><ele>2609.4</ele><time>2026-03-15T08:47:33.000Z</time></trkpt>
<trkpt lat="41.723936" lon="23.5062"><ele>2609.4</ele><time>2026-03-15T08:47:34.000Z</time></trkpt>
<trkpt lat="41.723934" lon="23.50619"><ele>2609.4</ele><time>2026-03-15T08:47:35.000Z</time></trkpt>
<trkpt lat="41.723932" lon="23.506181"><ele>2610.7</ele><time>2026-03-15T08:47:36.000Z</time></trkpt>
<trkpt lat="41.72393" lon="23.50617"><ele>2610.7</ele><time>2026-03-15T08:47:37.000Z</time></trkpt>
<trkpt lat="41.723928" lon="23.506161"><ele>2610.7</ele><time>2026-03-15T08:47:38.000Z</time></trkpt>
<trkpt lat="41.723926" lon="23.506154"><ele>2610.7</ele><time>2026-03-15T08:47:39.000Z</time></trkpt>
<trkpt lat="41.723923" lon="23.506146"><ele>2610.7</ele><time>2026-03-15T08:47:40.000Z</time></trkpt>
<trkpt lat="41.723921" lon="23.506139"><ele>2611.2</ele><time>2026-03-15T08:47:41.000Z</time></trkpt>
<trkpt lat="41.723919" lon="23.506133"><ele>2611.2</ele><time>2026-03-15T08:47:42.000Z</time></trkpt>
<trkpt lat="41.723918" lon="23.506126"><ele>2611.2</ele><time>2026-03-15T08:47:43.000Z</time></trkpt>
<trkpt lat="41.723916" lon="23.50612"><ele>2611.2</ele><time>2026-03-15T08:47:44.000Z</time></trkpt>
<trkpt lat="41.723915" lon="23.506113"><ele>2611.2</ele><time>2026-03-15T08:47:45.000Z</time></trkpt>
<trkpt lat="41.723914" lon="23.506105"><ele>2612.4</ele><time>2026-03-15T08:47:46.000Z</time></trkpt>
<trkpt lat="41.723912" lon="23.506098"><ele>2612.4</ele><time>2026-03-15T08:47:47.000Z</time></trkpt>
<trkpt lat="41.723911" lon="23.50609"><ele>2612.4</ele><time>2026-03-15T08:47:48.000Z</time></trkpt>
<trkpt lat="41.723909" lon="23.506083"><ele>2612.4</ele><time>2026-03-15T08:47:49.000Z</time></trkpt>
<trkpt lat="41.723908" lon="23.506076"><ele>2612.4</ele><time>2026-03-15T08:47:50.000Z</time></trkpt>
<trkpt lat="41.723907" lon="23.506068"><ele>2613.4</ele><time>2026-03-15T08:47:51.000Z</time></trkpt>
<trkpt lat="41.723906" lon="23.506061"><ele>2613.4</ele><time>2026-03-15T08:47:52.000Z</time></trkpt>
<trkpt lat="41.723906" lon="23.506054"><ele>2613.4</ele><time>2026-03-15T08:47:53.000Z</time></trkpt>
<trkpt lat="41.723905" lon="23.506046"><ele>2613.4</ele><time>2026-03-15T08:47:54.000Z</time></trkpt>
<trkpt lat="41.723904" lon="23.506039"><ele>2613.4</ele><time>2026-03-15T08:47:55.000Z</time></trkpt>
<trkpt lat="41.723904" lon="23.506032"><ele>2613.9</ele><time>2026-03-15T08:47:56.000Z</time></trkpt>
<trkpt lat="41.723903" lon="23.506025"><ele>2613.9</ele><time>2026-03-15T08:47:57.000Z</time></trkpt>
<trkpt lat="41.723901" lon="23.506018"><ele>2613.9</ele><time>2026-03-15T08:47:58.000Z</time></trkpt>
<trkpt lat="41.723901" lon="23.506011"><ele>2613.9</ele><time>2026-03-15T08:47:59.000Z</time></trkpt>
<trkpt lat="41.7239" lon="23.506005"><ele>2613.9</ele><time>2026-03-15T08:48:00.000Z</time></trkpt>
<trkpt lat="41.723901" lon="23.506001"><ele>2615</ele><time>2026-03-15T08:48:01.000Z</time></trkpt>
<trkpt lat="41.723901" lon="23.505997"><ele>2615</ele><time>2026-03-15T08:48:02.000Z</time></trkpt>
<trkpt lat="41.723901" lon="23.505996"><ele>2615</ele><time>2026-03-15T08:48:03.000Z</time></trkpt>
<trkpt lat="41.723901" lon="23.505996"><ele>2615</ele><time>2026-03-15T08:48:04.000Z</time></trkpt>
<trkpt lat="41.7239" lon="23.505997"><ele>2615</ele><time>2026-03-15T08:48:05.000Z</time></trkpt>
<trkpt lat="41.723899" lon="23.505998"><ele>2616.1</ele><time>2026-03-15T08:48:06.000Z</time></trkpt>
<trkpt lat="41.723898" lon="23.505999"><ele>2616.1</ele><time>2026-03-15T08:48:07.000Z</time></trkpt>
<trkpt lat="41.723897" lon="23.506"><ele>2616.1</ele><time>2026-03-15T08:48:08.000Z</time></trkpt>
<trkpt lat="41.723897" lon="23.506"><ele>2616.1</ele><time>2026-03-15T08:48:09.000Z</time></trkpt>
<trkpt lat="41.723897" lon="23.505999"><ele>2616.1</ele><time>2026-03-15T08:48:10.000Z</time></trkpt>
<trkpt lat="41.723896" lon="23.505996"><ele>2616.5</ele><time>2026-03-15T08:48:11.000Z</time></trkpt>
<trkpt lat="41.723896" lon="23.505994"><ele>2616.5</ele><time>2026-03-15T08:48:12.000Z</time></trkpt>
<trkpt lat="41.723896" lon="23.505991"><ele>2616.5</ele><time>2026-03-15T08:48:13.000Z</time></trkpt>
<trkpt lat="41.723895" lon="23.505988"><ele>2616.5</ele><time>2026-03-15T08:48:14.000Z</time></trkpt>
<trkpt lat="41.723895" lon="23.505986"><ele>2616.5</ele><time>2026-03-15T08:48:15.000Z</time></trkpt>
<trkpt lat="41.723896" lon="23.505985"><ele>2617.3</ele><time>2026-03-15T08:48:16.000Z</time></trkpt>
<trkpt lat="41.723896" lon="23.505984"><ele>2617.3</ele><time>2026-03-15T08:48:17.000Z</time></trkpt>
<trkpt lat="41.723896" lon="23.505984"><ele>2617.3</ele><time>2026-03-15T08:48:18.000Z</time></trkpt>
<trkpt lat="41.723896" lon="23.505983"><ele>2617.3</ele><time>2026-03-15T08:48:19.000Z</time></trkpt>
<trkpt lat="41.723896" lon="23.505983"><ele>2617.3</ele><time>2026-03-15T08:48:20.000Z</time></trkpt>
<trkpt lat="41.723896" lon="23.505984"><ele>2617.7</ele><time>2026-03-15T08:48:21.000Z</time></trkpt>
<trkpt lat="41.723896" lon="23.505983"><ele>2617.7</ele><time>2026-03-15T08:48:22.000Z</time></trkpt>
<trkpt lat="41.723896" lon="23.505983"><ele>2617.7</ele><time>2026-03-15T08:48:23.000Z</time></trkpt>
<trkpt lat="41.723895" lon="23.505983"><ele>2617.7</ele><time>2026-03-15T08:48:24.000Z</time></trkpt>
<trkpt lat="41.723895" lon="23.505983"><ele>2617.7</ele><time>2026-03-15T08:48:25.000Z</time></trkpt>
<trkpt lat="41.723895" lon="23.505983"><ele>2617.9</ele><time>2026-03-15T08:48:26.000Z</time></trkpt>
<trkpt lat="41.723894" lon="23.505983"><ele>2617.9</ele><time>2026-03-15T08:48:27.000Z</time></trkpt>
<trkpt lat="41.723894" lon="23.505983"><ele>2617.9</ele><time>2026-03-15T08:48:28.000Z</time></trkpt>
<trkpt lat="41.723894" lon="23.505983"><ele>2617.9</ele><time>2026-03-15T08:48:29.000Z</time></trkpt>
<trkpt lat="41.723894" lon="23.505983"><ele>2617.9</ele><time>2026-03-15T08:48:30.000Z</time></trkpt>
<trkpt lat="41.723894" lon="23.505983"><ele>2618</ele><time>2026-03-15T08:48:31.000Z</time></trkpt>
<trkpt lat="41.723894" lon="23.505983"><ele>2618</ele><time>2026-03-15T08:48:32.000Z</time></trkpt>
<trkpt lat="41.723894" lon="23.505983"><ele>2618</ele><time>2026-03-15T08:48:33.000Z</time></trkpt>
<trkpt lat="41.723895" lon="23.505982"><ele>2618</ele><time>2026-03-15T08:48:34.000Z</time></trkpt>
<trkpt lat="41.723895" lon="23.505979"><ele>2618</ele><time>2026-03-15T08:48:35.000Z</time></trkpt>
<trkpt lat="41.723894" lon="23.505975"><ele>2617.9</ele><time>2026-03-15T08:48:36.000Z</time></trkpt>
<trkpt lat="41.723895" lon="23.50597"><ele>2617.9</ele><time>2026-03-15T08:48:37.000Z</time></trkpt>
<trkpt lat="41.723895" lon="23.505963"><ele>2617.9</ele><time>2026-03-15T08:48:38.000Z</time></trkpt>
<trkpt lat="41.723896" lon="23.505956"><ele>2617.9</ele><time>2026-03-15T08:48:39.000Z</time></trkpt>
<trkpt lat="41.723896" lon="23.505948"><ele>2617.9</ele><time>2026-03-15T08:48:40.000Z</time></trkpt>
<trkpt lat="41.723896" lon="23.505939"><ele>2617.9</ele><time>2026-03-15T08:48:41.000Z</time></trkpt>
<trkpt lat="41.723897" lon="23.505929"><ele>2617.9</ele><time>2026-03-15T08:48:42.000Z</time></trkpt>
<trkpt lat="41.723896" lon="23.50592"><ele>2617.9</ele><time>2026-03-15T08:48:43.000Z</time></trkpt>
<trkpt lat="41.723895" lon="23.505911"><ele>2617.9</ele><time>2026-03-15T08:48:44.000Z</time></trkpt>
<trkpt lat="41.723895" lon="23.505903"><ele>2617.9</ele><time>2026-03-15T08:48:45.000Z</time></trkpt>
<trkpt lat="41.723895" lon="23.505897"><ele>2618.1</ele><time>2026-03-15T08:48:46.000Z</time></trkpt>
<trkpt lat="41.723895" lon="23.505894"><ele>2618.1</ele><time>2026-03-15T08:48:47.000Z</time></trkpt>
<trkpt lat="41.723894" lon="23.505891"><ele>2618.1</ele><time>2026-03-15T08:48:48.000Z</time></trkpt>
<trkpt lat="41.723895" lon="23.505889"><ele>2618.1</ele><time>2026-03-15T08:48:49.000Z</time></trkpt>
<trkpt lat="41.723895" lon="23.505888"><ele>2618.1</ele><time>2026-03-15T08:48:50.000Z</time></trkpt>
<trkpt lat="41.723894" lon="23.505887"><ele>2618.8</ele><time>2026-03-15T08:48:51.000Z</time></trkpt>
<trkpt lat="41.723894" lon="23.505884"><ele>2618.8</ele><time>2026-03-15T08:48:52.000Z</time></trkpt>
<trkpt lat="41.723894" lon="23.505878"><ele>2618.8</ele><time>2026-03-15T08:48:53.000Z</time></trkpt>
<trkpt lat="41.723893" lon="23.505871"><ele>2618.8</ele><time>2026-03-15T08:48:54.000Z</time></trkpt>
<trkpt lat="41.723892" lon="23.505862"><ele>2618.8</ele><time>2026-03-15T08:48:55.000Z</time></trkpt>
<trkpt lat="41.723891" lon="23.50585"><ele>2619.2</ele><time>2026-03-15T08:48:56.000Z</time></trkpt>
<trkpt lat="41.72389" lon="23.50584"><ele>2619.2</ele><time>2026-03-15T08:48:57.000Z</time></trkpt>
<trkpt lat="41.72389" lon="23.50583"><ele>2619.2</ele><time>2026-03-15T08:48:58.000Z</time></trkpt>
<trkpt lat="41.723891" lon="23.505819"><ele>2619.2</ele><time>2026-03-15T08:48:59.000Z</time></trkpt>
<trkpt lat="41.723892" lon="23.505808"><ele>2619.2</ele><time>2026-03-15T08:49:00.000Z</time></trkpt>
<trkpt lat="41.723893" lon="23.505798"><ele>2620.1</ele><time>2026-03-15T08:49:01.000Z</time></trkpt>
<trkpt lat="41.723894" lon="23.505787"><ele>2620.1</ele><time>2026-03-15T08:49:02.000Z</time></trkpt>
<trkpt lat="41.723895" lon="23.505775"><ele>2620.1</ele><time>2026-03-15T08:49:03.000Z</time></trkpt>
<trkpt lat="41.723895" lon="23.505764"><ele>2620.1</ele><time>2026-03-15T08:49:04.000Z</time></trkpt>
<trkpt lat="41.723896" lon="23.505752"><ele>2620.1</ele><time>2026-03-15T08:49:05.000Z</time></trkpt>
<trkpt lat="41.723897" lon="23.505741"><ele>2620.8</ele><time>2026-03-15T08:49:06.000Z</time></trkpt>
<trkpt lat="41.723897" lon="23.50573"><ele>2620.8</ele><time>2026-03-15T08:49:07.000Z</time></trkpt>
<trkpt lat="41.723898" lon="23.505719"><ele>2620.8</ele><time>2026-03-15T08:49:08.000Z</time></trkpt>
<trkpt lat="41.723899" lon="23.505709"><ele>2620.8</ele><time>2026-03-15T08:49:09.000Z</time></trkpt>
<trkpt lat="41.7239" lon="23.505699"><ele>2620.8</ele><time>2026-03-15T08:49:10.000Z</time></trkpt>
<trkpt lat="41.723902" lon="23.505688"><ele>2621.1</ele><time>2026-03-15T08:49:11.000Z</time></trkpt>
<trkpt lat="41.723902" lon="23.505677"><ele>2621.1</ele><time>2026-03-15T08:49:12.000Z</time></trkpt>
<trkpt lat="41.723903" lon="23.505667"><ele>2621.1</ele><time>2026-03-15T08:49:13.000Z</time></trkpt>
<trkpt lat="41.723903" lon="23.505656"><ele>2621.1</ele><time>2026-03-15T08:49:14.000Z</time></trkpt>
<trkpt lat="41.723903" lon="23.505645"><ele>2621.1</ele><time>2026-03-15T08:49:15.000Z</time></trkpt>
<trkpt lat="41.723902" lon="23.505635"><ele>2622</ele><time>2026-03-15T08:49:16.000Z</time></trkpt>
<trkpt lat="41.723902" lon="23.505623"><ele>2622</ele><time>2026-03-15T08:49:17.000Z</time></trkpt>
<trkpt lat="41.723901" lon="23.505611"><ele>2622</ele><time>2026-03-15T08:49:18.000Z</time></trkpt>
<trkpt lat="41.7239" lon="23.505599"><ele>2622</ele><time>2026-03-15T08:49:19.000Z</time></trkpt>
<trkpt lat="41.723898" lon="23.505587"><ele>2622</ele><time>2026-03-15T08:49:20.000Z</time></trkpt>
<trkpt lat="41.723896" lon="23.505575"><ele>2622.9</ele><time>2026-03-15T08:49:21.000Z</time></trkpt>
<trkpt lat="41.723895" lon="23.505564"><ele>2622.9</ele><time>2026-03-15T08:49:22.000Z</time></trkpt>
<trkpt lat="41.723893" lon="23.505553"><ele>2622.9</ele><time>2026-03-15T08:49:23.000Z</time></trkpt>
<trkpt lat="41.72389" lon="23.505542"><ele>2622.9</ele><time>2026-03-15T08:49:24.000Z</time></trkpt>
<trkpt lat="41.723888" lon="23.505532"><ele>2622.9</ele><time>2026-03-15T08:49:25.000Z</time></trkpt>
<trkpt lat="41.723887" lon="23.505522"><ele>2623.4</ele><time>2026-03-15T08:49:26.000Z</time></trkpt>
<trkpt lat="41.723886" lon="23.505512"><ele>2623.4</ele><time>2026-03-15T08:49:27.000Z</time></trkpt>
<trkpt lat="41.723885" lon="23.505505"><ele>2623.4</ele><time>2026-03-15T08:49:28.000Z</time></trkpt>
<trkpt lat="41.723886" lon="23.505497"><ele>2623.4</ele><time>2026-03-15T08:49:29.000Z</time></trkpt>
<trkpt lat="41.723886" lon="23.505489"><ele>2623.4</ele><time>2026-03-15T08:49:30.000Z</time></trkpt>
<trkpt lat="41.723886" lon="23.505482"><ele>2624.5</ele><time>2026-03-15T08:49:31.000Z</time></trkpt>
<trkpt lat="41.723886" lon="23.505473"><ele>2624.5</ele><time>2026-03-15T08:49:32.000Z</time></trkpt>
<trkpt lat="41.723886" lon="23.505464"><ele>2624.5</ele><time>2026-03-15T08:49:33.000Z</time></trkpt>
<trkpt lat="41.723886" lon="23.505456"><ele>2624.5</ele><time>2026-03-15T08:49:34.000Z</time></trkpt>
<trkpt lat="41.723886" lon="23.505446"><ele>2624.5</ele><time>2026-03-15T08:49:35.000Z</time></trkpt>
<trkpt lat="41.723887" lon="23.505437"><ele>2625.8</ele><time>2026-03-15T08:49:36.000Z</time></trkpt>
<trkpt lat="41.723888" lon="23.505428"><ele>2625.8</ele><time>2026-03-15T08:49:37.000Z</time></trkpt>
<trkpt lat="41.72389" lon="23.50542"><ele>2625.8</ele><time>2026-03-15T08:49:38.000Z</time></trkpt>
<trkpt lat="41.723891" lon="23.505411"><ele>2625.8</ele><time>2026-03-15T08:49:39.000Z</time></trkpt>
<trkpt lat="41.723891" lon="23.505402"><ele>2625.8</ele><time>2026-03-15T08:49:40.000Z</time></trkpt>
<trkpt lat="41.723893" lon="23.505393"><ele>2626.4</ele><time>2026-03-15T08:49:41.000Z</time></trkpt>
<trkpt lat="41.723893" lon="23.505386"><ele>2626.4</ele><time>2026-03-15T08:49:42.000Z</time></trkpt>
<trkpt lat="41.723894" lon="23.505378"><ele>2626.4</ele><time>2026-03-15T08:49:43.000Z</time></trkpt>
<trkpt lat="41.723895" lon="23.50537"><ele>2626.4</ele><time>2026-03-15T08:49:44.000Z</time></trkpt>
<trkpt lat="41.723896" lon="23.505362"><ele>2626.4</ele><time>2026-03-15T08:49:45.000Z</time></trkpt>
<trkpt lat="41.723896" lon="23.505355"><ele>2627.9</ele><time>2026-03-15T08:49:46.000Z</time></trkpt>
<trkpt lat="41.723897" lon="23.505348"><ele>2627.9</ele><time>2026-03-15T08:49:47.000Z</time></trkpt>
<trkpt lat="41.723897" lon="23.505341"><ele>2627.9</ele><time>2026-03-15T08:49:48.000Z</time></trkpt>
<trkpt lat="41.723898" lon="23.505334"><ele>2627.9</ele><time>2026-03-15T08:49:49.000Z</time></trkpt>
<trkpt lat="41.723898" lon="23.505328"><ele>2627.9</ele><time>2026-03-15T08:49:50.000Z</time></trkpt>
<trkpt lat="41.723899" lon="23.50532"><ele>2629.2</ele><time>2026-03-15T08:49:51.000Z</time></trkpt>
<trkpt lat="41.7239" lon="23.505312"><ele>2629.2</ele><time>2026-03-15T08:49:52.000Z</time></trkpt>
<trkpt lat="41.723901" lon="23.505304"><ele>2629.2</ele><time>2026-03-15T08:49:53.000Z</time></trkpt>
<trkpt lat="41.723901" lon="23.505295"><ele>2629.2</ele><time>2026-03-15T08:49:54.000Z</time></trkpt>
<trkpt lat="41.723902" lon="23.505288"><ele>2629.2</ele><time>2026-03-15T08:49:55.000Z</time></trkpt>
<trkpt lat="41.723903" lon="23.50528"><ele>2629.8</ele><time>2026-03-15T08:49:56.000Z</time></trkpt>
<trkpt lat="41.723904" lon="23.505273"><ele>2629.8</ele><time>2026-03-15T08:49:57.000Z</time></trkpt>
<trkpt lat="41.723906" lon="23.505267"><ele>2629.8</ele><time>2026-03-15T08:49:58.000Z</time></trkpt>
<trkpt lat="41.723908" lon="23.505262"><ele>2629.8</ele><time>2026-03-15T08:49:59.000Z</time></trkpt>
<trkpt lat="41.72391" lon="23.505257"><ele>2629.8</ele><time>2026-03-15T08:50:00.000Z</time></trkpt>
<trkpt lat="41.723911" lon="23.505253"><ele>2630.9</ele><time>2026-03-15T08:50:01.000Z</time></trkpt>
<trkpt lat="41.723913" lon="23.50525"><ele>2630.9</ele><time>2026-03-15T08:50:02.000Z</time></trkpt>
<trkpt lat="41.723915" lon="23.505246"><ele>2630.9</ele><time>2026-03-15T08:50:03.000Z</time></trkpt>
<trkpt lat="41.723917" lon="23.505242"><ele>2630.9</ele><time>2026-03-15T08:50:04.000Z</time></trkpt>
<trkpt lat="41.723919" lon="23.505239"><ele>2630.9</ele><time>2026-03-15T08:50:05.000Z</time></trkpt>
<trkpt lat="41.723921" lon="23.505235"><ele>2632</ele><time>2026-03-15T08:50:06.000Z</time></trkpt>
<trkpt lat="41.723923" lon="23.505229"><ele>2632</ele><time>2026-03-15T08:50:07.000Z</time></trkpt>
<trkpt lat="41.723924" lon="23.505223"><ele>2632</ele><time>2026-03-15T08:50:08.000Z</time></trkpt>
<trkpt lat="41.723925" lon="23.505216"><ele>2632</ele><time>2026-03-15T08:50:09.000Z</time></trkpt>
<trkpt lat="41.723925" lon="23.505209"><ele>2632</ele><time>2026-03-15T08:50:10.000Z</time></trkpt>
<trkpt lat="41.723926" lon="23.5052"><ele>2632.5</ele><time>2026-03-15T08:50:11.000Z</time></trkpt>
<trkpt lat="41.723926" lon="23.505193"><ele>2632.5</ele><time>2026-03-15T08:50:12.000Z</time></trkpt>
<trkpt lat="41.723926" lon="23.505185"><ele>2632.5</ele><time>2026-03-15T08:50:13.000Z</time></trkpt>
<trkpt lat="41.723927" lon="23.505177"><ele>2632.5</ele><time>2026-03-15T08:50:14.000Z</time></trkpt>
<trkpt lat="41.723929" lon="23.50517"><ele>2632.5</ele><time>2026-03-15T08:50:15.000Z</time></trkpt>
<trkpt lat="41.72393" lon="23.505162"><ele>2633.5</ele><time>2026-03-15T08:50:16.000Z</time></trkpt>
<trkpt lat="41.723931" lon="23.505156"><ele>2633.5</ele><time>2026-03-15T08:50:17.000Z</time></trkpt>
<trkpt lat="41.723932" lon="23.505149"><ele>2633.5</ele><time>2026-03-15T08:50:18.000Z</time></trkpt>
<trkpt lat="41.723933" lon="23.505144"><ele>2633.5</ele><time>2026-03-15T08:50:19.000Z</time></trkpt>
<trkpt lat="41.723933" lon="23.505137"><ele>2633.5</ele><time>2026-03-15T08:50:20.000Z</time></trkpt>
<trkpt lat="41.723934" lon="23.50513"><ele>2634.6</ele><time>2026-03-15T08:50:21.000Z</time></trkpt>
<trkpt lat="41.723934" lon="23.505123"><ele>2634.6</ele><time>2026-03-15T08:50:22.000Z</time></trkpt>
<trkpt lat="41.723933" lon="23.505116"><ele>2634.6</ele><time>2026-03-15T08:50:23.000Z</time></trkpt>
<trkpt lat="41.723933" lon="23.505108"><ele>2634.6</ele><time>2026-03-15T08:50:24.000Z</time></trkpt>
<trkpt lat="41.723933" lon="23.505101"><ele>2634.6</ele><time>2026-03-15T08:50:25.000Z</time></trkpt>
<trkpt lat="41.723932" lon="23.505094"><ele>2635.1</ele><time>2026-03-15T08:50:26.000Z</time></trkpt>
<trkpt lat="41.723932" lon="23.505087"><ele>2635.1</ele><time>2026-03-15T08:50:27.000Z</time></trkpt>
<trkpt lat="41.723932" lon="23.505081"><ele>2635.1</ele><time>2026-03-15T08:50:28.000Z</time></trkpt>
<trkpt lat="41.723932" lon="23.505075"><ele>2635.1</ele><time>2026-03-15T08:50:29.000Z</time></trkpt>
<trkpt lat="41.723931" lon="23.505069"><ele>2635.1</ele><time>2026-03-15T08:50:30.000Z</time></trkpt>
<trkpt lat="41.72393" lon="23.505062"><ele>2636.2</ele><time>2026-03-15T08:50:31.000Z</time></trkpt>
<trkpt lat="41.72393" lon="23.505055"><ele>2636.2</ele><time>2026-03-15T08:50:32.000Z</time></trkpt>
<trkpt lat="41.723931" lon="23.505049"><ele>2636.2</ele><time>2026-03-15T08:50:33.000Z</time></trkpt>
<trkpt lat="41.723932" lon="23.505043"><ele>2636.2</ele><time>2026-03-15T08:50:34.000Z</time></trkpt>
<trkpt lat="41.723934" lon="23.505037"><ele>2636.2</ele><time>2026-03-15T08:50:35.000Z</time></trkpt>
<trkpt lat="41.723935" lon="23.505033"><ele>2637.4</ele><time>2026-03-15T08:50:36.000Z</time></trkpt>
<trkpt lat="41.723935" lon="23.505027"><ele>2637.4</ele><time>2026-03-15T08:50:37.000Z</time></trkpt>
<trkpt lat="41.723935" lon="23.505023"><ele>2637.4</ele><time>2026-03-15T08:50:38.000Z</time></trkpt>
<trkpt lat="41.723936" lon="23.505017"><ele>2637.4</ele><time>2026-03-15T08:50:39.000Z</time></trkpt>
<trkpt lat="41.723936" lon="23.505013"><ele>2637.4</ele><time>2026-03-15T08:50:40.000Z</time></trkpt>
<trkpt lat="41.723937" lon="23.505009"><ele>2638</ele><time>2026-03-15T08:50:41.000Z</time></trkpt>
<trkpt lat="41.723937" lon="23.505005"><ele>2638</ele><time>2026-03-15T08:50:42.000Z</time></trkpt>
<trkpt lat="41.723937" lon="23.505"><ele>2638</ele><time>2026-03-15T08:50:43.000Z</time></trkpt>
<trkpt lat="41.723937" lon="23.504995"><ele>2638</ele><time>2026-03-15T08:50:44.000Z</time></trkpt>
<trkpt lat="41.723937" lon="23.504988"><ele>2638</ele><time>2026-03-15T08:50:45.000Z</time></trkpt>
<trkpt lat="41.723938" lon="23.504982"><ele>2639.1</ele><time>2026-03-15T08:50:46.000Z</time></trkpt>
<trkpt lat="41.723939" lon="23.504975"><ele>2639.1</ele><time>2026-03-15T08:50:47.000Z</time></trkpt>
<trkpt lat="41.723942" lon="23.50497"><ele>2639.1</ele><time>2026-03-15T08:50:48.000Z</time></trkpt>
<trkpt lat="41.723944" lon="23.504965"><ele>2639.1</ele><time>2026-03-15T08:50:49.000Z</time></trkpt>
<trkpt lat="41.723947" lon="23.504961"><ele>2639.1</ele><time>2026-03-15T08:50:50.000Z</time></trkpt>
<trkpt lat="41.723949" lon="23.504958"><ele>2640.1</ele><time>2026-03-15T08:50:51.000Z</time></trkpt>
<trkpt lat="41.723951" lon="23.504954"><ele>2640.1</ele><time>2026-03-15T08:50:52.000Z</time></trkpt>
<trkpt lat="41.723952" lon="23.504951"><ele>2640.1</ele><time>2026-03-15T08:50:53.000Z</time></trkpt>
<trkpt lat="41.723954" lon="23.504948"><ele>2640.1</ele><time>2026-03-15T08:50:54.000Z</time></trkpt>
<trkpt lat="41.723956" lon="23.504945"><ele>2640.1</ele><time>2026-03-15T08:50:55.000Z</time></trkpt>
<trkpt lat="41.723958" lon="23.504941"><ele>2640.6</ele><time>2026-03-15T08:50:56.000Z</time></trkpt>
<trkpt lat="41.723959" lon="23.504937"><ele>2640.6</ele><time>2026-03-15T08:50:57.000Z</time></trkpt>
<trkpt lat="41.723961" lon="23.504932"><ele>2640.6</ele><time>2026-03-15T08:50:58.000Z</time></trkpt>
<trkpt lat="41.723961" lon="23.504926"><ele>2640.6</ele><time>2026-03-15T08:50:59.000Z</time></trkpt>
<trkpt lat="41.723961" lon="23.50492"><ele>2640.6</ele><time>2026-03-15T08:51:00.000Z</time></trkpt>
<trkpt lat="41.723961" lon="23.504912"><ele>2641.8</ele><time>2026-03-15T08:51:01.000Z</time></trkpt>
<trkpt lat="41.723962" lon="23.504905"><ele>2641.8</ele><time>2026-03-15T08:51:02.000Z</time></trkpt>
<trkpt lat="41.723962" lon="23.504898"><ele>2641.8</ele><time>2026-03-15T08:51:03.000Z</time></trkpt>
<trkpt lat="41.723963" lon="23.504891"><ele>2641.8</ele><time>2026-03-15T08:51:04.000Z</time></trkpt>
<trkpt lat="41.723965" lon="23.504883"><ele>2641.8</ele><time>2026-03-15T08:51:05.000Z</time></trkpt>
<trkpt lat="41.723967" lon="23.504877"><ele>2643</ele><time>2026-03-15T08:51:06.000Z</time></trkpt>
<trkpt lat="41.723967" lon="23.50487"><ele>2643</ele><time>2026-03-15T08:51:07.000Z</time></trkpt>
<trkpt lat="41.723968" lon="23.504865"><ele>2643</ele><time>2026-03-15T08:51:08.000Z</time></trkpt>
<trkpt lat="41.723968" lon="23.50486"><ele>2643</ele><time>2026-03-15T08:51:09.000Z</time></trkpt>
<trkpt lat="41.723968" lon="23.504855"><ele>2643</ele><time>2026-03-15T08:51:10.000Z</time></trkpt>
<trkpt lat="41.723969" lon="23.504849"><ele>2643.5</ele><time>2026-03-15T08:51:11.000Z</time></trkpt>
<trkpt lat="41.72397" lon="23.504844"><ele>2643.5</ele><time>2026-03-15T08:51:12.000Z</time></trkpt>
<trkpt lat="41.723971" lon="23.504839"><ele>2643.5</ele><time>2026-03-15T08:51:13.000Z</time></trkpt>
<trkpt lat="41.723972" lon="23.504833"><ele>2643.5</ele><time>2026-03-15T08:51:14.000Z</time></trkpt>
<trkpt lat="41.723973" lon="23.504827"><ele>2643.5</ele><time>2026-03-15T08:51:15.000Z</time></trkpt>
<trkpt lat="41.723973" lon="23.504821"><ele>2644.5</ele><time>2026-03-15T08:51:16.000Z</time></trkpt>
<trkpt lat="41.723973" lon="23.504813"><ele>2644.5</ele><time>2026-03-15T08:51:17.000Z</time></trkpt>
<trkpt lat="41.723974" lon="23.504806"><ele>2644.5</ele><time>2026-03-15T08:51:18.000Z</time></trkpt>
<trkpt lat="41.723977" lon="23.504799"><ele>2644.5</ele><time>2026-03-15T08:51:19.000Z</time></trkpt>
<trkpt lat="41.723979" lon="23.504793"><ele>2644.5</ele><time>2026-03-15T08:51:20.000Z</time></trkpt>
<trkpt lat="41.723983" lon="23.504787"><ele>2645.5</ele><time>2026-03-15T08:51:21.000Z</time></trkpt>
<trkpt lat="41.723986" lon="23.504783"><ele>2645.5</ele><time>2026-03-15T08:51:22.000Z</time></trkpt>
<trkpt lat="41.723989" lon="23.504778"><ele>2645.5</ele><time>2026-03-15T08:51:23.000Z</time></trkpt>
<trkpt lat="41.723991" lon="23.504774"><ele>2645.5</ele><time>2026-03-15T08:51:24.000Z</time></trkpt>
<trkpt lat="41.723993" lon="23.50477"><ele>2645.5</ele><time>2026-03-15T08:51:25.000Z</time></trkpt>
<trkpt lat="41.723996" lon="23.504765"><ele>2646</ele><time>2026-03-15T08:51:26.000Z</time></trkpt>
<trkpt lat="41.723998" lon="23.50476"><ele>2646</ele><time>2026-03-15T08:51:27.000Z</time></trkpt>
<trkpt lat="41.724001" lon="23.504755"><ele>2646</ele><time>2026-03-15T08:51:28.000Z</time></trkpt>
<trkpt lat="41.724003" lon="23.50475"><ele>2646</ele><time>2026-03-15T08:51:29.000Z</time></trkpt>
<trkpt lat="41.724005" lon="23.504745"><ele>2646</ele><time>2026-03-15T08:51:30.000Z</time></trkpt>
<trkpt lat="41.724006" lon="23.50474"><ele>2647.1</ele><time>2026-03-15T08:51:31.000Z</time></trkpt>
<trkpt lat="41.724008" lon="23.504734"><ele>2647.1</ele><time>2026-03-15T08:51:32.000Z</time></trkpt>
<trkpt lat="41.724008" lon="23.504728"><ele>2647.1</ele><time>2026-03-15T08:51:33.000Z</time></trkpt>
<trkpt lat="41.724008" lon="23.504722"><ele>2647.1</ele><time>2026-03-15T08:51:34.000Z</time></trkpt>
<trkpt lat="41.724008" lon="23.504717"><ele>2647.1</ele><time>2026-03-15T08:51:35.000Z</time></trkpt>
<trkpt lat="41.724008" lon="23.504712"><ele>2648.1</ele><time>2026-03-15T08:51:36.000Z</time></trkpt>
<trkpt lat="41.724007" lon="23.504708"><ele>2648.1</ele><time>2026-03-15T08:51:37.000Z</time></trkpt>
<trkpt lat="41.724007" lon="23.504705"><ele>2648.1</ele><time>2026-03-15T08:51:38.000Z</time></trkpt>
<trkpt lat="41.724007" lon="23.504703"><ele>2648.1</ele><time>2026-03-15T08:51:39.000Z</time></trkpt>
<trkpt lat="41.724007" lon="23.504702"><ele>2648.1</ele><time>2026-03-15T08:51:40.000Z</time></trkpt>
<trkpt lat="41.724007" lon="23.504701"><ele>2648.6</ele><time>2026-03-15T08:51:41.000Z</time></trkpt>
<trkpt lat="41.724008" lon="23.5047"><ele>2648.6</ele><time>2026-03-15T08:51:42.000Z</time></trkpt>
<trkpt lat="41.724008" lon="23.5047"><ele>2648.6</ele><time>2026-03-15T08:51:43.000Z</time></trkpt>
<trkpt lat="41.724009" lon="23.5047"><ele>2648.6</ele><time>2026-03-15T08:51:44.000Z</time></trkpt>
<trkpt lat="41.724009" lon="23.504699"><ele>2648.6</ele><time>2026-03-15T08:51:45.000Z</time></trkpt>
<trkpt lat="41.724009" lon="23.504699"><ele>2649.4</ele><time>2026-03-15T08:51:46.000Z</time></trkpt>
<trkpt lat="41.72401" lon="23.504698"><ele>2649.4</ele><time>2026-03-15T08:51:47.000Z</time></trkpt>
<trkpt lat="41.72401" lon="23.504698"><ele>2649.4</ele><time>2026-03-15T08:51:48.000Z</time></trkpt>
<trkpt lat="41.72401" lon="23.504698"><ele>2649.4</ele><time>2026-03-15T08:51:49.000Z</time></trkpt>
<trkpt lat="41.724011" lon="23.504697"><ele>2649.4</ele><time>2026-03-15T08:51:50.000Z</time></trkpt>
<trkpt lat="41.724012" lon="23.504697"><ele>2649.9</ele><time>2026-03-15T08:51:51.000Z</time></trkpt>
<trkpt lat="41.724012" lon="23.504697"><ele>2649.9</ele><time>2026-03-15T08:51:52.000Z</time></trkpt>
<trkpt lat="41.724012" lon="23.504697"><ele>2649.9</ele><time>2026-03-15T08:51:53.000Z</time></trkpt>
<trkpt lat="41.724012" lon="23.504697"><ele>2649.9</ele><time>2026-03-15T08:51:54.000Z</time></trkpt>
<trkpt lat="41.724012" lon="23.504697"><ele>2649.9</ele><time>2026-03-15T08:51:55.000Z</time></trkpt>
<trkpt lat="41.724012" lon="23.504697"><ele>2650</ele><time>2026-03-15T08:51:56.000Z</time></trkpt>
<trkpt lat="41.724012" lon="23.504695"><ele>2650</ele><time>2026-03-15T08:51:57.000Z</time></trkpt>
<trkpt lat="41.724012" lon="23.504693"><ele>2650</ele><time>2026-03-15T08:51:58.000Z</time></trkpt>
<trkpt lat="41.724012" lon="23.504689"><ele>2650</ele><time>2026-03-15T08:51:59.000Z</time></trkpt>
<trkpt lat="41.724013" lon="23.504685"><ele>2650</ele><time>2026-03-15T08:52:00.000Z</time></trkpt>
<trkpt lat="41.724014" lon="23.504681"><ele>2650.1</ele><time>2026-03-15T08:52:01.000Z</time></trkpt>
<trkpt lat="41.724014" lon="23.504679"><ele>2650.1</ele><time>2026-03-15T08:52:02.000Z</time></trkpt>
<trkpt lat="41.724014" lon="23.504677"><ele>2650.1</ele><time>2026-03-15T08:52:03.000Z</time></trkpt>
<trkpt lat="41.724013" lon="23.504675"><ele>2650.1</ele><time>2026-03-15T08:52:04.000Z</time></trkpt>
<trkpt lat="41.724012" lon="23.504675"><ele>2650.1</ele><time>2026-03-15T08:52:05.000Z</time></trkpt>
<trkpt lat="41.724011" lon="23.504675"><ele>2650.1</ele><time>2026-03-15T08:52:06.000Z</time></trkpt>
<trkpt lat="41.72401" lon="23.504675"><ele>2650.1</ele><time>2026-03-15T08:52:07.000Z</time></trkpt>
<trkpt lat="41.72401" lon="23.504675"><ele>2650.1</ele><time>2026-03-15T08:52:08.000Z</time></trkpt>
<trkpt lat="41.72401" lon="23.504675"><ele>2650.1</ele><time>2026-03-15T08:52:09.000Z</time></trkpt>
<trkpt lat="41.72401" lon="23.504675"><ele>2650.1</ele><time>2026-03-15T08:52:10.000Z</time></trkpt>
<trkpt lat="41.72401" lon="23.504675"><ele>2650.1</ele><time>2026-03-15T08:52:11.000Z</time></trkpt>
<trkpt lat="41.724009" lon="23.504675"><ele>2650.1</ele><time>2026-03-15T08:52:12.000Z</time></trkpt>
<trkpt lat="41.724009" lon="23.504675"><ele>2650.1</ele><time>2026-03-15T08:52:13.000Z</time></trkpt>
<trkpt lat="41.724009" lon="23.504675"><ele>2650.1</ele><time>2026-03-15T08:52:14.000Z</time></trkpt>
<trkpt lat="41.724009" lon="23.504675"><ele>2650.1</ele><time>2026-03-15T08:52:15.000Z</time></trkpt>
<trkpt lat="41.724009" lon="23.504675"><ele>2650.1</ele><time>2026-03-15T08:52:16.000Z</time></trkpt>
<trkpt lat="41.724009" lon="23.504675"><ele>2650.1</ele><time>2026-03-15T08:52:17.000Z</time></trkpt>
<trkpt lat="41.724009" lon="23.504675"><ele>2650.1</ele><time>2026-03-15T08:52:18.000Z</time></trkpt>
<trkpt lat="41.724009" lon="23.504675"><ele>2650.1</ele><time>2026-03-15T08:52:19.000Z</time></trkpt>
<trkpt lat="41.724009" lon="23.504675"><ele>2650.1</ele><time>2026-03-15T08:52:20.000Z</time></trkpt>
<trkpt lat="41.724009" lon="23.504675"><ele>2650.3</ele><time>2026-03-15T08:52:21.000Z</time></trkpt>
<trkpt lat="41.724009" lon="23.504675"><ele>2650.3</ele><time>2026-03-15T08:52:22.000Z</time></trkpt>
<trkpt lat="41.724009" lon="23.504675"><ele>2650.3</ele><time>2026-03-15T08:52:23.000Z</time></trkpt>
<trkpt lat="41.724009" lon="23.504675"><ele>2650.3</ele><time>2026-03-15T08:52:24.000Z</time></trkpt>
<trkpt lat="41.724009" lon="23.504675"><ele>2650.3</ele><time>2026-03-15T08:52:25.000Z</time></trkpt>
<trkpt lat="41.724009" lon="23.504675"><ele>2650.3</ele><time>2026-03-15T08:52:26.000Z</time></trkpt>
<trkpt lat="41.724009" lon="23.504675"><ele>2650.3</ele><time>2026-03-15T08:52:27.000Z</time></trkpt>
<trkpt lat="41.724009" lon="23.504675"><ele>2650.3</ele><time>2026-03-15T08:52:28.000Z</time></trkpt>
<trkpt lat="41.724009" lon="23.504674"><ele>2650.3</ele><time>2026-03-15T08:52:29.000Z</time></trkpt>
<trkpt lat="41.724009" lon="23.504674"><ele>2650.3</ele><time>2026-03-15T08:52:30.000Z</time></trkpt>
<trkpt lat="41.724009" lon="23.504674"><ele>2650.4</ele><time>2026-03-15T08:52:31.000Z</time></trkpt>
<trkpt lat="41.724009" lon="23.504673"><ele>2650.4</ele><time>2026-03-15T08:52:32.000Z</time></trkpt>
<trkpt lat="41.724009" lon="23.504673"><ele>2650.4</ele><time>2026-03-15T08:52:33.000Z</time></trkpt>
<trkpt lat="41.724009" lon="23.504673"><ele>2650.4</ele><time>2026-03-15T08:52:34.000Z</time></trkpt>
<trkpt lat="41.724009" lon="23.504673"><ele>2650.4</ele><time>2026-03-15T08:52:35.000Z</time></trkpt>
<trkpt lat="41.724009" lon="23.504673"><ele>2650.4</ele><time>2026-03-15T08:52:36.000Z</time></trkpt>
<trkpt lat="41.724009" lon="23.504673"><ele>2650.4</ele><time>2026-03-15T08:52:37.000Z</time></trkpt>
<trkpt lat="41.724009" lon="23.504673"><ele>2650.4</ele><time>2026-03-15T08:52:38.000Z</time></trkpt>
<trkpt lat="41.72401" lon="23.504673"><ele>2650.4</ele><time>2026-03-15T08:52:39.000Z</time></trkpt>
<trkpt lat="41.72401" lon="23.504674"><ele>2650.4</ele><time>2026-03-15T08:52:40.000Z</time></trkpt>
<trkpt lat="41.72401" lon="23.504674"><ele>2650.3</ele><time>2026-03-15T08:52:41.000Z</time></trkpt>
<trkpt lat="41.724011" lon="23.504674"><ele>2650.3</ele><time>2026-03-15T08:52:42.000Z</time></trkpt>
<trkpt lat="41.724011" lon="23.504674"><ele>2650.3</ele><time>2026-03-15T08:52:43.000Z</time></trkpt>
<trkpt lat="41.724011" lon="23.504674"><ele>2650.3</ele><time>2026-03-15T08:52:44.000Z</time></trkpt>
<trkpt lat="41.724011" lon="23.504673"><ele>2650.3</ele><time>2026-03-15T08:52:45.000Z</time></trkpt>
<trkpt lat="41.724011" lon="23.50467"><ele>2650.2</ele><time>2026-03-15T08:52:46.000Z</time></trkpt>
<trkpt lat="41.724012" lon="23.504666"><ele>2650.2</ele><time>2026-03-15T08:52:47.000Z</time></trkpt>
<trkpt lat="41.724013" lon="23.504661"><ele>2650.2</ele><time>2026-03-15T08:52:48.000Z</time></trkpt>
<trkpt lat="41.724014" lon="23.504655"><ele>2650.2</ele><time>2026-03-15T08:52:49.000Z</time></trkpt>
<trkpt lat="41.724016" lon="23.504648"><ele>2650.2</ele><time>2026-03-15T08:52:50.000Z</time></trkpt>
<trkpt lat="41.724017" lon="23.504642"><ele>2650.1</ele><time>2026-03-15T08:52:51.000Z</time></trkpt>
<trkpt lat="41.724019" lon="23.504637"><ele>2650.1</ele><time>2026-03-15T08:52:52.000Z</time></trkpt>
<trkpt lat="41.724021" lon="23.504631"><ele>2650.1</ele><time>2026-03-15T08:52:53.000Z</time></trkpt>
<trkpt lat="41.724023" lon="23.504624"><ele>2650.1</ele><time>2026-03-15T08:52:54.000Z</time></trkpt>
<trkpt lat="41.724025" lon="23.504618"><ele>2650.1</ele><time>2026-03-15T08:52:55.000Z</time></trkpt>
<trkpt lat="41.724026" lon="23.50461"><ele>2650.2</ele><time>2026-03-15T08:52:56.000Z</time></trkpt>
<trkpt lat="41.724028" lon="23.504602"><ele>2650.2</ele><time>2026-03-15T08:52:57.000Z</time></trkpt>
<trkpt lat="41.724028" lon="23.504593"><ele>2650.2</ele><time>2026-03-15T08:52:58.000Z</time></trkpt>
<trkpt lat="41.724028" lon="23.504585"><ele>2650.2</ele><time>2026-03-15T08:52:59.000Z</time></trkpt>
<trkpt lat="41.724029" lon="23.504577"><ele>2650.2</ele><time>2026-03-15T08:53:00.000Z</time></trkpt>
<trkpt lat="41.724029" lon="23.504569"><ele>2650.7</ele><time>2026-03-15T08:53:01.000Z</time></trkpt>
<trkpt lat="41.724029" lon="23.504563"><ele>2650.7</ele><time>2026-03-15T08:53:02.000Z</time></trkpt>
<trkpt lat="41.72403" lon="23.504557"><ele>2650.7</ele><time>2026-03-15T08:53:03.000Z</time></trkpt>
<trkpt lat="41.724031" lon="23.504552"><ele>2650.7</ele><time>2026-03-15T08:53:04.000Z</time></trkpt>
<trkpt lat="41.724031" lon="23.504547"><ele>2650.7</ele><time>2026-03-15T08:53:05.000Z</time></trkpt>
<trkpt lat="41.724031" lon="23.504541"><ele>2651.6</ele><time>2026-03-15T08:53:06.000Z</time></trkpt>
<trkpt lat="41.72403" lon="23.504535"><ele>2651.6</ele><time>2026-03-15T08:53:07.000Z</time></trkpt>
<trkpt lat="41.724029" lon="23.504528"><ele>2651.6</ele><time>2026-03-15T08:53:08.000Z</time></trkpt>
<trkpt lat="41.724028" lon="23.504522"><ele>2651.6</ele><time>2026-03-15T08:53:09.000Z</time></trkpt>
<trkpt lat="41.724028" lon="23.504516"><ele>2651.6</ele><time>2026-03-15T08:53:10.000Z</time></trkpt>
<trkpt lat="41.724028" lon="23.50451"><ele>2652</ele><time>2026-03-15T08:53:11.000Z</time></trkpt>
<trkpt lat="41.724028" lon="23.504503"><ele>2652</ele><time>2026-03-15T08:53:12.000Z</time></trkpt>
<trkpt lat="41.724029" lon="23.504496"><ele>2652</ele><time>2026-03-15T08:53:13.000Z</time></trkpt>
<trkpt lat="41.72403" lon="23.504489"><ele>2652</ele><time>2026-03-15T08:53:14.000Z</time></trkpt>
<trkpt lat="41.72403" lon="23.504481"><ele>2652</ele><time>2026-03-15T08:53:15.000Z</time></trkpt>
<trkpt lat="41.72403" lon="23.504473"><ele>2652.9</ele><time>2026-03-15T08:53:16.000Z</time></trkpt>
<trkpt lat="41.724031" lon="23.504466"><ele>2652.9</ele><time>2026-03-15T08:53:17.000Z</time></trkpt>
<trkpt lat="41.724031" lon="23.504459"><ele>2652.9</ele><time>2026-03-15T08:53:18.000Z</time></trkpt>
<trkpt lat="41.724031" lon="23.504452"><ele>2652.9</ele><time>2026-03-15T08:53:19.000Z</time></trkpt>
<trkpt lat="41.724031" lon="23.504445"><ele>2652.9</ele><time>2026-03-15T08:53:20.000Z</time></trkpt>
<trkpt lat="41.724031" lon="23.504439"><ele>2653.8</ele><time>2026-03-15T08:53:21.000Z</time></trkpt>
<trkpt lat="41.72403" lon="23.504433"><ele>2653.8</ele><time>2026-03-15T08:53:22.000Z</time></trkpt>
<trkpt lat="41.72403" lon="23.504426"><ele>2653.8</ele><time>2026-03-15T08:53:23.000Z</time></trkpt>
<trkpt lat="41.72403" lon="23.50442"><ele>2653.8</ele><time>2026-03-15T08:53:24.000Z</time></trkpt>
<trkpt lat="41.72403" lon="23.504414"><ele>2653.8</ele><time>2026-03-15T08:53:25.000Z</time></trkpt>
<trkpt lat="41.72403" lon="23.504406"><ele>2654.3</ele><time>2026-03-15T08:53:26.000Z</time></trkpt>
<trkpt lat="41.724029" lon="23.504399"><ele>2654.3</ele><time>2026-03-15T08:53:27.000Z</time></trkpt>
<trkpt lat="41.724029" lon="23.50439"><ele>2654.3</ele><time>2026-03-15T08:53:28.000Z</time></trkpt>
<trkpt lat="41.724029" lon="23.504382"><ele>2654.3</ele><time>2026-03-15T08:53:29.000Z</time></trkpt>
<trkpt lat="41.724028" lon="23.504373"><ele>2654.3</ele><time>2026-03-15T08:53:30.000Z</time></trkpt>
<trkpt lat="41.724028" lon="23.504366"><ele>2655.2</ele><time>2026-03-15T08:53:31.000Z</time></trkpt>
<trkpt lat="41.724029" lon="23.504359"><ele>2655.2</ele><time>2026-03-15T08:53:32.000Z</time></trkpt>
<trkpt lat="41.724029" lon="23.504353"><ele>2655.2</ele><time>2026-03-15T08:53:33.000Z</time></trkpt>
<trkpt lat="41.724029" lon="23.504348"><ele>2655.2</ele><time>2026-03-15T08:53:34.000Z</time></trkpt>
<trkpt lat="41.72403" lon="23.504342"><ele>2655.2</ele><time>2026-03-15T08:53:35.000Z</time></trkpt>
<trkpt lat="41.724031" lon="23.504337"><ele>2656.1</ele><time>2026-03-15T08:53:36.000Z</time></trkpt>
<trkpt lat="41.724031" lon="23.504331"><ele>2656.1</ele><time>2026-03-15T08:53:37.000Z</time></trkpt>
<trkpt lat="41.724031" lon="23.504326"><ele>2656.1</ele><time>2026-03-15T08:53:38.000Z</time></trkpt>
<trkpt lat="41.724031" lon="23.504319"><ele>2656.1</ele><time>2026-03-15T08:53:39.000Z</time></trkpt>
<trkpt lat="41.724032" lon="23.504312"><ele>2656.1</ele><time>2026-03-15T08:53:40.000Z</time></trkpt>
<trkpt lat="41.724032" lon="23.504304"><ele>2656.6</ele><time>2026-03-15T08:53:41.000Z</time></trkpt>
<trkpt lat="41.724033" lon="23.504295"><ele>2656.6</ele><time>2026-03-15T08:53:42.000Z</time></trkpt>
<trkpt lat="41.724034" lon="23.504285"><ele>2656.6</ele><time>2026-03-15T08:53:43.000Z</time></trkpt>
<trkpt lat="41.724034" lon="23.504275"><ele>2656.6</ele><time>2026-03-15T08:53:44.000Z</time></trkpt>
<trkpt lat="41.724035" lon="23.504265"><ele>2656.6</ele><time>2026-03-15T08:53:45.000Z</time></trkpt>
<trkpt lat="41.724035" lon="23.504257"><ele>2657.6</ele><time>2026-03-15T08:53:46.000Z</time></trkpt>
<trkpt lat="41.724036" lon="23.504249"><ele>2657.6</ele><time>2026-03-15T08:53:47.000Z</time></trkpt>
<trkpt lat="41.724037" lon="23.504242"><ele>2657.6</ele><time>2026-03-15T08:53:48.000Z</time></trkpt>
<trkpt lat="41.724038" lon="23.504235"><ele>2657.6</ele><time>2026-03-15T08:53:49.000Z</time></trkpt>
<trkpt lat="41.724039" lon="23.504228"><ele>2657.6</ele><time>2026-03-15T08:53:50.000Z</time></trkpt>
<trkpt lat="41.724041" lon="23.504221"><ele>2658.9</ele><time>2026-03-15T08:53:51.000Z</time></trkpt>
<trkpt lat="41.724042" lon="23.504213"><ele>2658.9</ele><time>2026-03-15T08:53:52.000Z</time></trkpt>
<trkpt lat="41.724044" lon="23.504206"><ele>2658.9</ele><time>2026-03-15T08:53:53.000Z</time></trkpt>
<trkpt lat="41.724045" lon="23.504198"><ele>2658.9</ele><time>2026-03-15T08:53:54.000Z</time></trkpt>
<trkpt lat="41.724046" lon="23.504189"><ele>2658.9</ele><time>2026-03-15T08:53:55.000Z</time></trkpt>
<trkpt lat="41.724047" lon="23.504181"><ele>2659.5</ele><time>2026-03-15T08:53:56.000Z</time></trkpt>
<trkpt lat="41.724049" lon="23.504173"><ele>2659.5</ele><time>2026-03-15T08:53:57.000Z</time></trkpt>
<trkpt lat="41.72405" lon="23.504165"><ele>2659.5</ele><time>2026-03-15T08:53:58.000Z</time></trkpt>
<trkpt lat="41.724051" lon="23.504157"><ele>2659.5</ele><time>2026-03-15T08:53:59.000Z</time></trkpt>
<trkpt lat="41.724053" lon="23.504151"><ele>2659.5</ele><time>2026-03-15T08:54:00.000Z</time></trkpt>
<trkpt lat="41.724055" lon="23.504144"><ele>2660.5</ele><time>2026-03-15T08:54:01.000Z</time></trkpt>
<trkpt lat="41.724055" lon="23.504138"><ele>2660.5</ele><time>2026-03-15T08:54:02.000Z</time></trkpt>
<trkpt lat="41.724056" lon="23.504131"><ele>2660.5</ele><time>2026-03-15T08:54:03.000Z</time></trkpt>
<trkpt lat="41.724057" lon="23.504124"><ele>2660.5</ele><time>2026-03-15T08:54:04.000Z</time></trkpt>
<trkpt lat="41.724058" lon="23.504117"><ele>2660.5</ele><time>2026-03-15T08:54:05.000Z</time></trkpt>
<trkpt lat="41.724059" lon="23.504109"><ele>2661.3</ele><time>2026-03-15T08:54:06.000Z</time></trkpt>
<trkpt lat="41.724061" lon="23.504101"><ele>2661.3</ele><time>2026-03-15T08:54:07.000Z</time></trkpt>
<trkpt lat="41.724062" lon="23.504095"><ele>2661.3</ele><time>2026-03-15T08:54:08.000Z</time></trkpt>
<trkpt lat="41.724063" lon="23.504088"><ele>2661.3</ele><time>2026-03-15T08:54:09.000Z</time></trkpt>
<trkpt lat="41.724065" lon="23.504082"><ele>2661.3</ele><time>2026-03-15T08:54:10.000Z</time></trkpt>
<trkpt lat="41.724066" lon="23.504075"><ele>2661.6</ele><time>2026-03-15T08:54:11.000Z</time></trkpt>
<trkpt lat="41.724068" lon="23.504068"><ele>2661.6</ele><time>2026-03-15T08:54:12.000Z</time></trkpt>
<trkpt lat="41.724069" lon="23.50406"><ele>2661.6</ele><time>2026-03-15T08:54:13.000Z</time></trkpt>
<trkpt lat="41.724071" lon="23.504053"><ele>2661.6</ele><time>2026-03-15T08:54:14.000Z</time></trkpt>
<trkpt lat="41.724073" lon="23.504044"><ele>2661.6</ele><time>2026-03-15T08:54:15.000Z</time></trkpt>
<trkpt lat="41.724075" lon="23.504036"><ele>2662.3</ele><time>2026-03-15T08:54:16.000Z</time></trkpt>
<trkpt lat="41.724078" lon="23.504028"><ele>2662.3</ele><time>2026-03-15T08:54:17.000Z</time></trkpt>
<trkpt lat="41.72408" lon="23.504019"><ele>2662.3</ele><time>2026-03-15T08:54:18.000Z</time></trkpt>
<trkpt lat="41.724082" lon="23.50401"><ele>2662.3</ele><time>2026-03-15T08:54:19.000Z</time></trkpt>
<trkpt lat="41.724083" lon="23.504"><ele>2662.3</ele><time>2026-03-15T08:54:20.000Z</time></trkpt>
<trkpt lat="41.724084" lon="23.503992"><ele>2663.3</ele><time>2026-03-15T08:54:21.000Z</time></trkpt>
<trkpt lat="41.724084" lon="23.503983"><ele>2663.3</ele><time>2026-03-15T08:54:22.000Z</time></trkpt>
<trkpt lat="41.724085" lon="23.503976"><ele>2663.3</ele><time>2026-03-15T08:54:23.000Z</time></trkpt>
<trkpt lat="41.724087" lon="23.503969"><ele>2663.3</ele><time>2026-03-15T08:54:24.000Z</time></trkpt>
<trkpt lat="41.72409" lon="23.503962"><ele>2663.3</ele><time>2026-03-15T08:54:25.000Z</time></trkpt>
<trkpt lat="41.724093" lon="23.503956"><ele>2664</ele><time>2026-03-15T08:54:26.000Z</time></trkpt>
<trkpt lat="41.724095" lon="23.503949"><ele>2664</ele><time>2026-03-15T08:54:27.000Z</time></trkpt>
<trkpt lat="41.724097" lon="23.503943"><ele>2664</ele><time>2026-03-15T08:54:28.000Z</time></trkpt>
<trkpt lat="41.724098" lon="23.503935"><ele>2664</ele><time>2026-03-15T08:54:29.000Z</time></trkpt>
<trkpt lat="41.724097" lon="23.503928"><ele>2664</ele><time>2026-03-15T08:54:30.000Z</time></trkpt>
<trkpt lat="41.724097" lon="23.503921"><ele>2665.2</ele><time>2026-03-15T08:54:31.000Z</time></trkpt>
<trkpt lat="41.724096" lon="23.503913"><ele>2665.2</ele><time>2026-03-15T08:54:32.000Z</time></trkpt>
<trkpt lat="41.724095" lon="23.503906"><ele>2665.2</ele><time>2026-03-15T08:54:33.000Z</time></trkpt>
<trkpt lat="41.724095" lon="23.503897"><ele>2665.2</ele><time>2026-03-15T08:54:34.000Z</time></trkpt>
<trkpt lat="41.724094" lon="23.503888"><ele>2665.2</ele><time>2026-03-15T08:54:35.000Z</time></trkpt>
<trkpt lat="41.724093" lon="23.503879"><ele>2666.1</ele><time>2026-03-15T08:54:36.000Z</time></trkpt>
<trkpt lat="41.724092" lon="23.503871"><ele>2666.1</ele><time>2026-03-15T08:54:37.000Z</time></trkpt>
<trkpt lat="41.724091" lon="23.503861"><ele>2666.1</ele><time>2026-03-15T08:54:38.000Z</time></trkpt>
<trkpt lat="41.724089" lon="23.503853"><ele>2666.1</ele><time>2026-03-15T08:54:39.000Z</time></trkpt>
<trkpt lat="41.724088" lon="23.503844"><ele>2666.1</ele><time>2026-03-15T08:54:40.000Z</time></trkpt>
<trkpt lat="41.724087" lon="23.503835"><ele>2666.4</ele><time>2026-03-15T08:54:41.000Z</time></trkpt>
<trkpt lat="41.724087" lon="23.503826"><ele>2666.4</ele><time>2026-03-15T08:54:42.000Z</time></trkpt>
<trkpt lat="41.724086" lon="23.503817"><ele>2666.4</ele><time>2026-03-15T08:54:43.000Z</time></trkpt>
<trkpt lat="41.724086" lon="23.503809"><ele>2666.4</ele><time>2026-03-15T08:54:44.000Z</time></trkpt>
<trkpt lat="41.724085" lon="23.503801"><ele>2666.4</ele><time>2026-03-15T08:54:45.000Z</time></trkpt>
<trkpt lat="41.724084" lon="23.503794"><ele>2667.1</ele><time>2026-03-15T08:54:46.000Z</time></trkpt>
<trkpt lat="41.724083" lon="23.503788"><ele>2667.1</ele><time>2026-03-15T08:54:47.000Z</time></trkpt>
<trkpt lat="41.724082" lon="23.503781"><ele>2667.1</ele><time>2026-03-15T08:54:48.000Z</time></trkpt>
<trkpt lat="41.724081" lon="23.503775"><ele>2667.1</ele><time>2026-03-15T08:54:49.000Z</time></trkpt>
<trkpt lat="41.72408" lon="23.503767"><ele>2667.1</ele><time>2026-03-15T08:54:50.000Z</time></trkpt>
<trkpt lat="41.724079" lon="23.50376"><ele>2667.9</ele><time>2026-03-15T08:54:51.000Z</time></trkpt>
<trkpt lat="41.724078" lon="23.503752"><ele>2667.9</ele><time>2026-03-15T08:54:52.000Z</time></trkpt>
<trkpt lat="41.724077" lon="23.503744"><ele>2667.9</ele><time>2026-03-15T08:54:53.000Z</time></trkpt>
<trkpt lat="41.724077" lon="23.503737"><ele>2667.9</ele><time>2026-03-15T08:54:54.000Z</time></trkpt>
<trkpt lat="41.724076" lon="23.50373"><ele>2667.9</ele><time>2026-03-15T08:54:55.000Z</time></trkpt>
<trkpt lat="41.724076" lon="23.503723"><ele>2668.5</ele><time>2026-03-15T08:54:56.000Z</time></trkpt>
<trkpt lat="41.724076" lon="23.503716"><ele>2668.5</ele><time>2026-03-15T08:54:57.000Z</time></trkpt>
<trkpt lat="41.724075" lon="23.503709"><ele>2668.5</ele><time>2026-03-15T08:54:58.000Z</time></trkpt>
<trkpt lat="41.724076" lon="23.503701"><ele>2668.5</ele><time>2026-03-15T08:54:59.000Z</time></trkpt>
<trkpt lat="41.724076" lon="23.503693"><ele>2668.5</ele><time>2026-03-15T08:55:00.000Z</time></trkpt>
<trkpt lat="41.724075" lon="23.503685"><ele>2669.5</ele><time>2026-03-15T08:55:01.000Z</time></trkpt>
<trkpt lat="41.724075" lon="23.503677"><ele>2669.5</ele><time>2026-03-15T08:55:02.000Z</time></trkpt>
<trkpt lat="41.724074" lon="23.503669"><ele>2669.5</ele><time>2026-03-15T08:55:03.000Z</time></trkpt>
<trkpt lat="41.724073" lon="23.503661"><ele>2669.5</ele><time>2026-03-15T08:55:04.000Z</time></trkpt>
<trkpt lat="41.724072" lon="23.503654"><ele>2669.5</ele><time>2026-03-15T08:55:05.000Z</time></trkpt>
<trkpt lat="41.724072" lon="23.503647"><ele>2670.4</ele><time>2026-03-15T08:55:06.000Z</time></trkpt>
<trkpt lat="41.724072" lon="23.503639"><ele>2670.4</ele><time>2026-03-15T08:55:07.000Z</time></trkpt>
<trkpt lat="41.724071" lon="23.503632"><ele>2670.4</ele><time>2026-03-15T08:55:08.000Z</time></trkpt>
<trkpt lat="41.724071" lon="23.503625"><ele>2670.4</ele><time>2026-03-15T08:55:09.000Z</time></trkpt>
<trkpt lat="41.72407" lon="23.503619"><ele>2670.4</ele><time>2026-03-15T08:55:10.000Z</time></trkpt>
<trkpt lat="41.724068" lon="23.503613"><ele>2670.9</ele><time>2026-03-15T08:55:11.000Z</time></trkpt>
<trkpt lat="41.724066" lon="23.503607"><ele>2670.9</ele><time>2026-03-15T08:55:12.000Z</time></trkpt>
<trkpt lat="41.724063" lon="23.503602"><ele>2670.9</ele><time>2026-03-15T08:55:13.000Z</time></trkpt>
<trkpt lat="41.72406" lon="23.503596"><ele>2670.9</ele><time>2026-03-15T08:55:14.000Z</time></trkpt>
<trkpt lat="41.724058" lon="23.503591"><ele>2670.9</ele><time>2026-03-15T08:55:15.000Z</time></trkpt>
<trkpt lat="41.724057" lon="23.503584"><ele>2671.9</ele><time>2026-03-15T08:55:16.000Z</time></trkpt>
<trkpt lat="41.724057" lon="23.50358"><ele>2671.9</ele><time>2026-03-15T08:55:17.000Z</time></trkpt>
<trkpt lat="41.724056" lon="23.503574"><ele>2671.9</ele><time>2026-03-15T08:55:18.000Z</time></trkpt>
<trkpt lat="41.724056" lon="23.503567"><ele>2671.9</ele><time>2026-03-15T08:55:19.000Z</time></trkpt>
<trkpt lat="41.724055" lon="23.503561"><ele>2671.9</ele><time>2026-03-15T08:55:20.000Z</time></trkpt>
<trkpt lat="41.724054" lon="23.503555"><ele>2673.1</ele><time>2026-03-15T08:55:21.000Z</time></trkpt>
<trkpt lat="41.724053" lon="23.503548"><ele>2673.1</ele><time>2026-03-15T08:55:22.000Z</time></trkpt>
<trkpt lat="41.724051" lon="23.503542"><ele>2673.1</ele><time>2026-03-15T08:55:23.000Z</time></trkpt>
<trkpt lat="41.724051" lon="23.503535"><ele>2673.1</ele><time>2026-03-15T08:55:24.000Z</time></trkpt>
<trkpt lat="41.72405" lon="23.503529"><ele>2673.1</ele><time>2026-03-15T08:55:25.000Z</time></trkpt>
<trkpt lat="41.724051" lon="23.503523"><ele>2673.7</ele><time>2026-03-15T08:55:26.000Z</time></trkpt>
<trkpt lat="41.724051" lon="23.503519"><ele>2673.7</ele><time>2026-03-15T08:55:27.000Z</time></trkpt>
<trkpt lat="41.724052" lon="23.503514"><ele>2673.7</ele><time>2026-03-15T08:55:28.000Z</time></trkpt>
<trkpt lat="41.724051" lon="23.50351"><ele>2673.7</ele><time>2026-03-15T08:55:29.000Z</time></trkpt>
<trkpt lat="41.724052" lon="23.503505"><ele>2673.7</ele><time>2026-03-15T08:55:30.000Z</time></trkpt>
<trkpt lat="41.724052" lon="23.503501"><ele>2674.7</ele><time>2026-03-15T08:55:31.000Z</time></trkpt>
<trkpt lat="41.724052" lon="23.503497"><ele>2674.7</ele><time>2026-03-15T08:55:32.000Z</time></trkpt>
<trkpt lat="41.724051" lon="23.503493"><ele>2674.7</ele><time>2026-03-15T08:55:33.000Z</time></trkpt>
<trkpt lat="41.724051" lon="23.503491"><ele>2674.7</ele><time>2026-03-15T08:55:34.000Z</time></trkpt>
<trkpt lat="41.72405" lon="23.503489"><ele>2674.7</ele><time>2026-03-15T08:55:35.000Z</time></trkpt>
<trkpt lat="41.72405" lon="23.503487"><ele>2675.5</ele><time>2026-03-15T08:55:36.000Z</time></trkpt>
<trkpt lat="41.72405" lon="23.503486"><ele>2675.5</ele><time>2026-03-15T08:55:37.000Z</time></trkpt>
<trkpt lat="41.724049" lon="23.503486"><ele>2675.5</ele><time>2026-03-15T08:55:38.000Z</time></trkpt>
<trkpt lat="41.724049" lon="23.503485"><ele>2675.5</ele><time>2026-03-15T08:55:39.000Z</time></trkpt>
<trkpt lat="41.724049" lon="23.503484"><ele>2675.5</ele><time>2026-03-15T08:55:40.000Z</time></trkpt>
<trkpt lat="41.724048" lon="23.503484"><ele>2675.9</ele><time>2026-03-15T08:55:41.000Z</time></trkpt>
<trkpt lat="41.724047" lon="23.503483"><ele>2675.9</ele><time>2026-03-15T08:55:42.000Z</time></trkpt>
<trkpt lat="41.724047" lon="23.503482"><ele>2675.9</ele><time>2026-03-15T08:55:43.000Z</time></trkpt>
<trkpt lat="41.724046" lon="23.50348"><ele>2675.9</ele><time>2026-03-15T08:55:44.000Z</time></trkpt>
<trkpt lat="41.724046" lon="23.503477"><ele>2675.9</ele><time>2026-03-15T08:55:45.000Z</time></trkpt>
<trkpt lat="41.724045" lon="23.503474"><ele>2676.7</ele><time>2026-03-15T08:55:46.000Z</time></trkpt>
<trkpt lat="41.724044" lon="23.503471"><ele>2676.7</ele><time>2026-03-15T08:55:47.000Z</time></trkpt>
<trkpt lat="41.724042" lon="23.503468"><ele>2676.7</ele><time>2026-03-15T08:55:48.000Z</time></trkpt>
<trkpt lat="41.72404" lon="23.503466"><ele>2676.7</ele><time>2026-03-15T08:55:49.000Z</time></trkpt>
<trkpt lat="41.724039" lon="23.503464"><ele>2676.7</ele><time>2026-03-15T08:55:50.000Z</time></trkpt>
<trkpt lat="41.724038" lon="23.503461"><ele>2677.2</ele><time>2026-03-15T08:55:51.000Z</time></trkpt>
<trkpt lat="41.724037" lon="23.503459"><ele>2677.2</ele><time>2026-03-15T08:55:52.000Z</time></trkpt>
<trkpt lat="41.724037" lon="23.503457"><ele>2677.2</ele><time>2026-03-15T08:55:53.000Z</time></trkpt>
<trkpt lat="41.724037" lon="23.503453"><ele>2677.2</ele><time>2026-03-15T08:55:54.000Z</time></trkpt>
<trkpt lat="41.724037" lon="23.50345"><ele>2677.2</ele><time>2026-03-15T08:55:55.000Z</time></trkpt>
<trkpt lat="41.724037" lon="23.503447"><ele>2677.5</ele><time>2026-03-15T08:55:56.000Z</time></trkpt>
<trkpt lat="41.724037" lon="23.503443"><ele>2677.5</ele><time>2026-03-15T08:55:57.000Z</time></trkpt>
<trkpt lat="41.724037" lon="23.503439"><ele>2677.5</ele><time>2026-03-15T08:55:58.000Z</time></trkpt>
<trkpt lat="41.724037" lon="23.503435"><ele>2677.5</ele><time>2026-03-15T08:55:59.000Z</time></trkpt>
<trkpt lat="41.724037" lon="23.503432"><ele>2677.5</ele><time>2026-03-15T08:56:00.000Z</time></trkpt>
<trkpt lat="41.724038" lon="23.503428"><ele>2678</ele><time>2026-03-15T08:56:01.000Z</time></trkpt>
<trkpt lat="41.724039" lon="23.503424"><ele>2678</ele><time>2026-03-15T08:56:02.000Z</time></trkpt>
<trkpt lat="41.724041" lon="23.50342"><ele>2678</ele><time>2026-03-15T08:56:03.000Z</time></trkpt>
<trkpt lat="41.724041" lon="23.503417"><ele>2678</ele><time>2026-03-15T08:56:04.000Z</time></trkpt>
<trkpt lat="41.724042" lon="23.503414"><ele>2678</ele><time>2026-03-15T08:56:05.000Z</time></trkpt>
<trkpt lat="41.724042" lon="23.503412"><ele>2678.6</ele><time>2026-03-15T08:56:06.000Z</time></trkpt>
<trkpt lat="41.724042" lon="23.50341"><ele>2678.6</ele><time>2026-03-15T08:56:07.000Z</time></trkpt>
<trkpt lat="41.724042" lon="23.50341"><ele>2678.6</ele><time>2026-03-15T08:56:08.000Z</time></trkpt>
<trkpt lat="41.724042" lon="23.503409"><ele>2678.6</ele><time>2026-03-15T08:56:09.000Z</time></trkpt>
<trkpt lat="41.724042" lon="23.503408"><ele>2678.6</ele><time>2026-03-15T08:56:10.000Z</time></trkpt>
<trkpt lat="41.724042" lon="23.503407"><ele>2678.9</ele><time>2026-03-15T08:56:11.000Z</time></trkpt>
<trkpt lat="41.724042" lon="23.503405"><ele>2678.9</ele><time>2026-03-15T08:56:12.000Z</time></trkpt>
<trkpt lat="41.724043" lon="23.503402"><ele>2678.9</ele><time>2026-03-15T08:56:13.000Z</time></trkpt>
<trkpt lat="41.724045" lon="23.503398"><ele>2678.9</ele><time>2026-03-15T08:56:14.000Z</time></trkpt>
<trkpt lat="41.724047" lon="23.503392"><ele>2678.9</ele><time>2026-03-15T08:56:15.000Z</time></trkpt>
<trkpt lat="41.724048" lon="23.503387"><ele>2679.6</ele><time>2026-03-15T08:56:16.000Z</time></trkpt>
<trkpt lat="41.724049" lon="23.503382"><ele>2679.6</ele><time>2026-03-15T08:56:17.000Z</time></trkpt>
<trkpt lat="41.724049" lon="23.503375"><ele>2679.6</ele><time>2026-03-15T08:56:18.000Z</time></trkpt>
<trkpt lat="41.724049" lon="23.503369"><ele>2679.6</ele><time>2026-03-15T08:56:19.000Z</time></trkpt>
<trkpt lat="41.72405" lon="23.503361"><ele>2679.6</ele><time>2026-03-15T08:56:20.000Z</time></trkpt>
<trkpt lat="41.72405" lon="23.503354"><ele>2680</ele><time>2026-03-15T08:56:21.000Z</time></trkpt>
<trkpt lat="41.724051" lon="23.503347"><ele>2680</ele><time>2026-03-15T08:56:22.000Z</time></trkpt>
<trkpt lat="41.724053" lon="23.503342"><ele>2680</ele><time>2026-03-15T08:56:23.000Z</time></trkpt>
<trkpt lat="41.724054" lon="23.503335"><ele>2680</ele><time>2026-03-15T08:56:24.000Z</time></trkpt>
<trkpt lat="41.724055" lon="23.50333"><ele>2680</ele><time>2026-03-15T08:56:25.000Z</time></trkpt>
<trkpt lat="41.724056" lon="23.503324"><ele>2680.2</ele><time>2026-03-15T08:56:26.000Z</time></trkpt>
<trkpt lat="41.724056" lon="23.503319"><ele>2680.2</ele><time>2026-03-15T08:56:27.000Z</time></trkpt>
<trkpt lat="41.724056" lon="23.503315"><ele>2680.2</ele><time>2026-03-15T08:56:28.000Z</time></trkpt>
<trkpt lat="41.724056" lon="23.503311"><ele>2680.2</ele><time>2026-03-15T08:56:29.000Z</time></trkpt>
<trkpt lat="41.724056" lon="23.503307"><ele>2680.2</ele><time>2026-03-15T08:56:30.000Z</time></trkpt>
<trkpt lat="41.724055" lon="23.503304"><ele>2680.8</ele><time>2026-03-15T08:56:31.000Z</time></trkpt>
<trkpt lat="41.724055" lon="23.503301"><ele>2680.8</ele><time>2026-03-15T08:56:32.000Z</time></trkpt>
<trkpt lat="41.724055" lon="23.503297"><ele>2680.8</ele><time>2026-03-15T08:56:33.000Z</time></trkpt>
<trkpt lat="41.724056" lon="23.503293"><ele>2680.8</ele><time>2026-03-15T08:56:34.000Z</time></trkpt>
<trkpt lat="41.724057" lon="23.50329"><ele>2680.8</ele><time>2026-03-15T08:56:35.000Z</time></trkpt>
<trkpt lat="41.724059" lon="23.503286"><ele>2681.8</ele><time>2026-03-15T08:56:36.000Z</time></trkpt>
<trkpt lat="41.724061" lon="23.503284"><ele>2681.8</ele><time>2026-03-15T08:56:37.000Z</time></trkpt>
<trkpt lat="41.724064" lon="23.50328"><ele>2681.8</ele><time>2026-03-15T08:56:38.000Z</time></trkpt>
<trkpt lat="41.724066" lon="23.503278"><ele>2681.8</ele><time>2026-03-15T08:56:39.000Z</time></trkpt>
<trkpt lat="41.724068" lon="23.503276"><ele>2681.8</ele><time>2026-03-15T08:56:40.000Z</time></trkpt>
<trkpt lat="41.724069" lon="23.503273"><ele>2682.3</ele><time>2026-03-15T08:56:41.000Z</time></trkpt>
<trkpt lat="41.72407" lon="23.503269"><ele>2682.3</ele><time>2026-03-15T08:56:42.000Z</time></trkpt>
<trkpt lat="41.72407" lon="23.503266"><ele>2682.3</ele><time>2026-03-15T08:56:43.000Z</time></trkpt>
<trkpt lat="41.724071" lon="23.50326"><ele>2682.3</ele><time>2026-03-15T08:56:44.000Z</time></trkpt>
<trkpt lat="41.724072" lon="23.503256"><ele>2682.3</ele><time>2026-03-15T08:56:45.000Z</time></trkpt>
<trkpt lat="41.724072" lon="23.50325"><ele>2683.3</ele><time>2026-03-15T08:56:46.000Z</time></trkpt>
<trkpt lat="41.724073" lon="23.503244"><ele>2683.3</ele><time>2026-03-15T08:56:47.000Z</time></trkpt>
<trkpt lat="41.724073" lon="23.503236"><ele>2683.3</ele><time>2026-03-15T08:56:48.000Z</time></trkpt>
<trkpt lat="41.724074" lon="23.50323"><ele>2683.3</ele><time>2026-03-15T08:56:49.000Z</time></trkpt>
<trkpt lat="41.724073" lon="23.503222"><ele>2683.3</ele><time>2026-03-15T08:56:50.000Z</time></trkpt>
<trkpt lat="41.724073" lon="23.503215"><ele>2684.3</ele><time>2026-03-15T08:56:51.000Z</time></trkpt>
<trkpt lat="41.724074" lon="23.503207"><ele>2684.3</ele><time>2026-03-15T08:56:52.000Z</time></trkpt>
<trkpt lat="41.724074" lon="23.503201"><ele>2684.3</ele><time>2026-03-15T08:56:53.000Z</time></trkpt>
<trkpt lat="41.724075" lon="23.503195"><ele>2684.3</ele><time>2026-03-15T08:56:54.000Z</time></trkpt>
<trkpt lat="41.724077" lon="23.50319"><ele>2684.3</ele><time>2026-03-15T08:56:55.000Z</time></trkpt>
<trkpt lat="41.724079" lon="23.503184"><ele>2684.7</ele><time>2026-03-15T08:56:56.000Z</time></trkpt>
<trkpt lat="41.724082" lon="23.50318"><ele>2684.7</ele><time>2026-03-15T08:56:57.000Z</time></trkpt>
<trkpt lat="41.724084" lon="23.503174"><ele>2684.7</ele><time>2026-03-15T08:56:58.000Z</time></trkpt>
<trkpt lat="41.724085" lon="23.503169"><ele>2684.7</ele><time>2026-03-15T08:56:59.000Z</time></trkpt>
<trkpt lat="41.724086" lon="23.503162"><ele>2684.7</ele><time>2026-03-15T08:57:00.000Z</time></trkpt>
<trkpt lat="41.724085" lon="23.503157"><ele>2685.6</ele><time>2026-03-15T08:57:01.000Z</time></trkpt>
<trkpt lat="41.724083" lon="23.503149"><ele>2685.6</ele><time>2026-03-15T08:57:02.000Z</time></trkpt>
<trkpt lat="41.72408" lon="23.503142"><ele>2685.6</ele><time>2026-03-15T08:57:03.000Z</time></trkpt>
<trkpt lat="41.724077" lon="23.503134"><ele>2685.6</ele><time>2026-03-15T08:57:04.000Z</time></trkpt>
<trkpt lat="41.724074" lon="23.503125"><ele>2685.6</ele><time>2026-03-15T08:57:05.000Z</time></trkpt>
<trkpt lat="41.724072" lon="23.503116"><ele>2686.5</ele><time>2026-03-15T08:57:06.000Z</time></trkpt>
<trkpt lat="41.72407" lon="23.503108"><ele>2686.5</ele><time>2026-03-15T08:57:07.000Z</time></trkpt>
<trkpt lat="41.724069" lon="23.503099"><ele>2686.5</ele><time>2026-03-15T08:57:08.000Z</time></trkpt>
<trkpt lat="41.724068" lon="23.503089"><ele>2686.5</ele><time>2026-03-15T08:57:09.000Z</time></trkpt>
<trkpt lat="41.724067" lon="23.503079"><ele>2686.5</ele><time>2026-03-15T08:57:10.000Z</time></trkpt>
<trkpt lat="41.724066" lon="23.503069"><ele>2686.9</ele><time>2026-03-15T08:57:11.000Z</time></trkpt>
<trkpt lat="41.724064" lon="23.503059"><ele>2686.9</ele><time>2026-03-15T08:57:12.000Z</time></trkpt>
<trkpt lat="41.724062" lon="23.503048"><ele>2686.9</ele><time>2026-03-15T08:57:13.000Z</time></trkpt>
<trkpt lat="41.724059" lon="23.503039"><ele>2686.9</ele><time>2026-03-15T08:57:14.000Z</time></trkpt>
<trkpt lat="41.724056" lon="23.503029"><ele>2686.9</ele><time>2026-03-15T08:57:15.000Z</time></trkpt>
<trkpt lat="41.724054" lon="23.50302"><ele>2687.6</ele><time>2026-03-15T08:57:16.000Z</time></trkpt>
<trkpt lat="41.724053" lon="23.50301"><ele>2687.6</ele><time>2026-03-15T08:57:17.000Z</time></trkpt>
<trkpt lat="41.724052" lon="23.503001"><ele>2687.6</ele><time>2026-03-15T08:57:18.000Z</time></trkpt>
<trkpt lat="41.724051" lon="23.502992"><ele>2687.6</ele><time>2026-03-15T08:57:19.000Z</time></trkpt>
<trkpt lat="41.72405" lon="23.502982"><ele>2687.6</ele><time>2026-03-15T08:57:20.000Z</time></trkpt>
<trkpt lat="41.724049" lon="23.502974"><ele>2688.2</ele><time>2026-03-15T08:57:21.000Z</time></trkpt>
<trkpt lat="41.724047" lon="23.502964"><ele>2688.2</ele><time>2026-03-15T08:57:22.000Z</time></trkpt>
<trkpt lat="41.724045" lon="23.502956"><ele>2688.2</ele><time>2026-03-15T08:57:23.000Z</time></trkpt>
<trkpt lat="41.724043" lon="23.502947"><ele>2688.2</ele><time>2026-03-15T08:57:24.000Z</time></trkpt>
<trkpt lat="41.724041" lon="23.502939"><ele>2688.2</ele><time>2026-03-15T08:57:25.000Z</time></trkpt>
<trkpt lat="41.724039" lon="23.502932"><ele>2688.6</ele><time>2026-03-15T08:57:26.000Z</time></trkpt>
<trkpt lat="41.724038" lon="23.502925"><ele>2688.6</ele><time>2026-03-15T08:57:27.000Z</time></trkpt>
<trkpt lat="41.724037" lon="23.502918"><ele>2688.6</ele><time>2026-03-15T08:57:28.000Z</time></trkpt>
<trkpt lat="41.724038" lon="23.50291"><ele>2688.6</ele><time>2026-03-15T08:57:29.000Z</time></trkpt>
<trkpt lat="41.724039" lon="23.502902"><ele>2688.6</ele><time>2026-03-15T08:57:30.000Z</time></trkpt>
<trkpt lat="41.724041" lon="23.502893"><ele>2689.4</ele><time>2026-03-15T08:57:31.000Z</time></trkpt>
<trkpt lat="41.724043" lon="23.502885"><ele>2689.4</ele><time>2026-03-15T08:57:32.000Z</time></trkpt>
<trkpt lat="41.724045" lon="23.502876"><ele>2689.4</ele><time>2026-03-15T08:57:33.000Z</time></trkpt>
<trkpt lat="41.724045" lon="23.50287"><ele>2689.4</ele><time>2026-03-15T08:57:34.000Z</time></trkpt>
<trkpt lat="41.724045" lon="23.502862"><ele>2689.4</ele><time>2026-03-15T08:57:35.000Z</time></trkpt>
<trkpt lat="41.724045" lon="23.502854"><ele>2690.4</ele><time>2026-03-15T08:57:36.000Z</time></trkpt>
<trkpt lat="41.724044" lon="23.502846"><ele>2690.4</ele><time>2026-03-15T08:57:37.000Z</time></trkpt>
<trkpt lat="41.724041" lon="23.502838"><ele>2690.4</ele><time>2026-03-15T08:57:38.000Z</time></trkpt>
<trkpt lat="41.72404" lon="23.50283"><ele>2690.4</ele><time>2026-03-15T08:57:39.000Z</time></trkpt>
<trkpt lat="41.724037" lon="23.502822"><ele>2690.4</ele><time>2026-03-15T08:57:40.000Z</time></trkpt>
<trkpt lat="41.724035" lon="23.502815"><ele>2691</ele><time>2026-03-15T08:57:41.000Z</time></trkpt>
<trkpt lat="41.724033" lon="23.502807"><ele>2691</ele><time>2026-03-15T08:57:42.000Z</time></trkpt>
<trkpt lat="41.724032" lon="23.502799"><ele>2691</ele><time>2026-03-15T08:57:43.000Z</time></trkpt>
<trkpt lat="41.724032" lon="23.502789"><ele>2691</ele><time>2026-03-15T08:57:44.000Z</time></trkpt>
<trkpt lat="41.724032" lon="23.502779"><ele>2691</ele><time>2026-03-15T08:57:45.000Z</time></trkpt>
<trkpt lat="41.724033" lon="23.502768"><ele>2692.2</ele><time>2026-03-15T08:57:46.000Z</time></trkpt>
<trkpt lat="41.724034" lon="23.502758"><ele>2692.2</ele><time>2026-03-15T08:57:47.000Z</time></trkpt>
<trkpt lat="41.724036" lon="23.502746"><ele>2692.2</ele><time>2026-03-15T08:57:48.000Z</time></trkpt>
<trkpt lat="41.724038" lon="23.502734"><ele>2692.2</ele><time>2026-03-15T08:57:49.000Z</time></trkpt>
<trkpt lat="41.724039" lon="23.502723"><ele>2692.2</ele><time>2026-03-15T08:57:50.000Z</time></trkpt>
<trkpt lat="41.72404" lon="23.502712"><ele>2693.2</ele><time>2026-03-15T08:57:51.000Z</time></trkpt>
<trkpt lat="41.72404" lon="23.502701"><ele>2693.2</ele><time>2026-03-15T08:57:52.000Z</time></trkpt>
<trkpt lat="41.724041" lon="23.502691"><ele>2693.2</ele><time>2026-03-15T08:57:53.000Z</time></trkpt>
<trkpt lat="41.724041" lon="23.502683"><ele>2693.2</ele><time>2026-03-15T08:57:54.000Z</time></trkpt>
<trkpt lat="41.724042" lon="23.502675"><ele>2693.2</ele><time>2026-03-15T08:57:55.000Z</time></trkpt>
<trkpt lat="41.724043" lon="23.502669"><ele>2693.6</ele><time>2026-03-15T08:57:56.000Z</time></trkpt>
<trkpt lat="41.724045" lon="23.502663"><ele>2693.6</ele><time>2026-03-15T08:57:57.000Z</time></trkpt>
<trkpt lat="41.724046" lon="23.50266"><ele>2693.6</ele><time>2026-03-15T08:57:58.000Z</time></trkpt>
<trkpt lat="41.724048" lon="23.502659"><ele>2693.6</ele><time>2026-03-15T08:57:59.000Z</time></trkpt>
<trkpt lat="41.724049" lon="23.502658"><ele>2693.6</ele><time>2026-03-15T08:58:00.000Z</time></trkpt>
<trkpt lat="41.724049" lon="23.502658"><ele>2694.5</ele><time>2026-03-15T08:58:01.000Z</time></trkpt>
<trkpt lat="41.724048" lon="23.502658"><ele>2694.5</ele><time>2026-03-15T08:58:02.000Z</time></trkpt>
<trkpt lat="41.724047" lon="23.502658"><ele>2694.5</ele><time>2026-03-15T08:58:03.000Z</time></trkpt>
<trkpt lat="41.724046" lon="23.502658"><ele>2694.5</ele><time>2026-03-15T08:58:04.000Z</time></trkpt>
<trkpt lat="41.724045" lon="23.502658"><ele>2694.5</ele><time>2026-03-15T08:58:05.000Z</time></trkpt>
<trkpt lat="41.724045" lon="23.502658"><ele>2695.1</ele><time>2026-03-15T08:58:06.000Z</time></trkpt>
<trkpt lat="41.724045" lon="23.502658"><ele>2695.1</ele><time>2026-03-15T08:58:07.000Z</time></trkpt>
<trkpt lat="41.724044" lon="23.502659"><ele>2695.1</ele><time>2026-03-15T08:58:08.000Z</time></trkpt>
<trkpt lat="41.724043" lon="23.502659"><ele>2695.1</ele><time>2026-03-15T08:58:09.000Z</time></trkpt>
<trkpt lat="41.724041" lon="23.502659"><ele>2695.1</ele><time>2026-03-15T08:58:10.000Z</time></trkpt>
<trkpt lat="41.724039" lon="23.502656"><ele>2695.4</ele><time>2026-03-15T08:58:11.000Z</time></trkpt>
<trkpt lat="41.724036" lon="23.502652"><ele>2695.4</ele><time>2026-03-15T08:58:12.000Z</time></trkpt>
<trkpt lat="41.724033" lon="23.502646"><ele>2695.4</ele><time>2026-03-15T08:58:13.000Z</time></trkpt>
<trkpt lat="41.724031" lon="23.502637"><ele>2695.4</ele><time>2026-03-15T08:58:14.000Z</time></trkpt>
<trkpt lat="41.724029" lon="23.502628"><ele>2695.4</ele><time>2026-03-15T08:58:15.000Z</time></trkpt>
<trkpt lat="41.724028" lon="23.502618"><ele>2695.6</ele><time>2026-03-15T08:58:16.000Z</time></trkpt>
<trkpt lat="41.724027" lon="23.502608"><ele>2695.6</ele><time>2026-03-15T08:58:17.000Z</time></trkpt>
<trkpt lat="41.724027" lon="23.502598"><ele>2695.6</ele><time>2026-03-15T08:58:18.000Z</time></trkpt>
<trkpt lat="41.724027" lon="23.502589"><ele>2695.6</ele><time>2026-03-15T08:58:19.000Z</time></trkpt>
<trkpt lat="41.724027" lon="23.502581"><ele>2695.6</ele><time>2026-03-15T08:58:20.000Z</time></trkpt>
<trkpt lat="41.724027" lon="23.502574"><ele>2695.7</ele><time>2026-03-15T08:58:21.000Z</time></trkpt>
<trkpt lat="41.724027" lon="23.502567"><ele>2695.7</ele><time>2026-03-15T08:58:22.000Z</time></trkpt>
<trkpt lat="41.724026" lon="23.502561"><ele>2695.7</ele><time>2026-03-15T08:58:23.000Z</time></trkpt>
<trkpt lat="41.724025" lon="23.502555"><ele>2695.7</ele><time>2026-03-15T08:58:24.000Z</time></trkpt>
<trkpt lat="41.724024" lon="23.502548"><ele>2695.7</ele><time>2026-03-15T08:58:25.000Z</time></trkpt>
<trkpt lat="41.724023" lon="23.502541"><ele>2695.9</ele><time>2026-03-15T08:58:26.000Z</time></trkpt>
<trkpt lat="41.724023" lon="23.502536"><ele>2695.9</ele><time>2026-03-15T08:58:27.000Z</time></trkpt>
<trkpt lat="41.724023" lon="23.50253"><ele>2695.9</ele><time>2026-03-15T08:58:28.000Z</time></trkpt>
<trkpt lat="41.724024" lon="23.502525"><ele>2695.9</ele><time>2026-03-15T08:58:29.000Z</time></trkpt>
<trkpt lat="41.724024" lon="23.50252"><ele>2695.9</ele><time>2026-03-15T08:58:30.000Z</time></trkpt>
<trkpt lat="41.724024" lon="23.502514"><ele>2696.6</ele><time>2026-03-15T08:58:31.000Z</time></trkpt>
<trkpt lat="41.724024" lon="23.502506"><ele>2696.6</ele><time>2026-03-15T08:58:32.000Z</time></trkpt>
<trkpt lat="41.724024" lon="23.502497"><ele>2696.6</ele><time>2026-03-15T08:58:33.000Z</time></trkpt>
<trkpt lat="41.724023" lon="23.502487"><ele>2696.6</ele><time>2026-03-15T08:58:34.000Z</time></trkpt>
<trkpt lat="41.724023" lon="23.502476"><ele>2696.6</ele><time>2026-03-15T08:58:35.000Z</time></trkpt>
<trkpt lat="41.724023" lon="23.502464"><ele>2697.6</ele><time>2026-03-15T08:58:36.000Z</time></trkpt>
<trkpt lat="41.724023" lon="23.502452"><ele>2697.6</ele><time>2026-03-15T08:58:37.000Z</time></trkpt>
<trkpt lat="41.724024" lon="23.50244"><ele>2697.6</ele><time>2026-03-15T08:58:38.000Z</time></trkpt>
<trkpt lat="41.724026" lon="23.502427"><ele>2697.6</ele><time>2026-03-15T08:58:39.000Z</time></trkpt>
<trkpt lat="41.724028" lon="23.502416"><ele>2697.6</ele><time>2026-03-15T08:58:40.000Z</time></trkpt>
<trkpt lat="41.72403" lon="23.502406"><ele>2698</ele><time>2026-03-15T08:58:41.000Z</time></trkpt>
<trkpt lat="41.724032" lon="23.502396"><ele>2698</ele><time>2026-03-15T08:58:42.000Z</time></trkpt>
<trkpt lat="41.724033" lon="23.502387"><ele>2698</ele><time>2026-03-15T08:58:43.000Z</time></trkpt>
<trkpt lat="41.724033" lon="23.502379"><ele>2698</ele><time>2026-03-15T08:58:44.000Z</time></trkpt>
<trkpt lat="41.724032" lon="23.502372"><ele>2698</ele><time>2026-03-15T08:58:45.000Z</time></trkpt>
<trkpt lat="41.72403" lon="23.502367"><ele>2698.9</ele><time>2026-03-15T08:58:46.000Z</time></trkpt>
<trkpt lat="41.724029" lon="23.502364"><ele>2698.9</ele><time>2026-03-15T08:58:47.000Z</time></trkpt>
<trkpt lat="41.724028" lon="23.502363"><ele>2698.9</ele><time>2026-03-15T08:58:48.000Z</time></trkpt>
<trkpt lat="41.724028" lon="23.502363"><ele>2698.9</ele><time>2026-03-15T08:58:49.000Z</time></trkpt>
<trkpt lat="41.724028" lon="23.502362"><ele>2698.9</ele><time>2026-03-15T08:58:50.000Z</time></trkpt>
<trkpt lat="41.724028" lon="23.50236"><ele>2699.8</ele><time>2026-03-15T08:58:51.000Z</time></trkpt>
<trkpt lat="41.724027" lon="23.502356"><ele>2699.8</ele><time>2026-03-15T08:58:52.000Z</time></trkpt>
<trkpt lat="41.724024" lon="23.502349"><ele>2699.8</ele><time>2026-03-15T08:58:53.000Z</time></trkpt>
<trkpt lat="41.724023" lon="23.502341"><ele>2699.8</ele><time>2026-03-15T08:58:54.000Z</time></trkpt>
<trkpt lat="41.724022" lon="23.502331"><ele>2699.8</ele><time>2026-03-15T08:58:55.000Z</time></trkpt>
<trkpt lat="41.724021" lon="23.502321"><ele>2700.1</ele><time>2026-03-15T08:58:56.000Z</time></trkpt>
<trkpt lat="41.72402" lon="23.502311"><ele>2700.1</ele><time>2026-03-15T08:58:57.000Z</time></trkpt>
<trkpt lat="41.724019" lon="23.502301"><ele>2700.1</ele><time>2026-03-15T08:58:58.000Z</time></trkpt>
<trkpt lat="41.724017" lon="23.502292"><ele>2700.1</ele><time>2026-03-15T08:58:59.000Z</time></trkpt>
<trkpt lat="41.724016" lon="23.502283"><ele>2700.1</ele><time>2026-03-15T08:59:00.000Z</time></trkpt>
<trkpt lat="41.724014" lon="23.502275"><ele>2700.7</ele><time>2026-03-15T08:59:01.000Z</time></trkpt>
<trkpt lat="41.724013" lon="23.502268"><ele>2700.7</ele><time>2026-03-15T08:59:02.000Z</time></trkpt>
<trkpt lat="41.724011" lon="23.502261"><ele>2700.7</ele><time>2026-03-15T08:59:03.000Z</time></trkpt>
<trkpt lat="41.724008" lon="23.502253"><ele>2700.7</ele><time>2026-03-15T08:59:04.000Z</time></trkpt>
<trkpt lat="41.724005" lon="23.502246"><ele>2700.7</ele><time>2026-03-15T08:59:05.000Z</time></trkpt>
<trkpt lat="41.724002" lon="23.502237"><ele>2701.1</ele><time>2026-03-15T08:59:06.000Z</time></trkpt>
<trkpt lat="41.723999" lon="23.502228"><ele>2701.1</ele><time>2026-03-15T08:59:07.000Z</time></trkpt>
<trkpt lat="41.723996" lon="23.502219"><ele>2701.1</ele><time>2026-03-15T08:59:08.000Z</time></trkpt>
<trkpt lat="41.723992" lon="23.50221"><ele>2701.1</ele><time>2026-03-15T08:59:09.000Z</time></trkpt>
<trkpt lat="41.723989" lon="23.502199"><ele>2701.1</ele><time>2026-03-15T08:59:10.000Z</time></trkpt>
<trkpt lat="41.723986" lon="23.502189"><ele>2701.3</ele><time>2026-03-15T08:59:11.000Z</time></trkpt>
<trkpt lat="41.723983" lon="23.502177"><ele>2701.3</ele><time>2026-03-15T08:59:12.000Z</time></trkpt>
<trkpt lat="41.723981" lon="23.502165"><ele>2701.3</ele><time>2026-03-15T08:59:13.000Z</time></trkpt>
<trkpt lat="41.72398" lon="23.502153"><ele>2701.3</ele><time>2026-03-15T08:59:14.000Z</time></trkpt>
<trkpt lat="41.723979" lon="23.50214"><ele>2701.3</ele><time>2026-03-15T08:59:15.000Z</time></trkpt>
<trkpt lat="41.723979" lon="23.502128"><ele>2702</ele><time>2026-03-15T08:59:16.000Z</time></trkpt>
<trkpt lat="41.723979" lon="23.502117"><ele>2702</ele><time>2026-03-15T08:59:17.000Z</time></trkpt>
<trkpt lat="41.723979" lon="23.502105"><ele>2702</ele><time>2026-03-15T08:59:18.000Z</time></trkpt>
<trkpt lat="41.723977" lon="23.502094"><ele>2702</ele><time>2026-03-15T08:59:19.000Z</time></trkpt>
<trkpt lat="41.723974" lon="23.502082"><ele>2702</ele><time>2026-03-15T08:59:20.000Z</time></trkpt>
<trkpt lat="41.723971" lon="23.50207"><ele>2702.8</ele><time>2026-03-15T08:59:21.000Z</time></trkpt>
<trkpt lat="41.723967" lon="23.502058"><ele>2702.8</ele><time>2026-03-15T08:59:22.000Z</time></trkpt>
<trkpt lat="41.723964" lon="23.502046"><ele>2702.8</ele><time>2026-03-15T08:59:23.000Z</time></trkpt>
<trkpt lat="41.723961" lon="23.502034"><ele>2702.8</ele><time>2026-03-15T08:59:24.000Z</time></trkpt>
<trkpt lat="41.723959" lon="23.502021"><ele>2702.8</ele><time>2026-03-15T08:59:25.000Z</time></trkpt>
<trkpt lat="41.723958" lon="23.502008"><ele>2703.3</ele><time>2026-03-15T08:59:26.000Z</time></trkpt>
<trkpt lat="41.723957" lon="23.501995"><ele>2703.3</ele><time>2026-03-15T08:59:27.000Z</time></trkpt>
<trkpt lat="41.723955" lon="23.501982"><ele>2703.3</ele><time>2026-03-15T08:59:28.000Z</time></trkpt>
<trkpt lat="41.723953" lon="23.501968"><ele>2703.3</ele><time>2026-03-15T08:59:29.000Z</time></trkpt>
<trkpt lat="41.723952" lon="23.501955"><ele>2703.3</ele><time>2026-03-15T08:59:30.000Z</time></trkpt>
<trkpt lat="41.723951" lon="23.501942"><ele>2704</ele><time>2026-03-15T08:59:31.000Z</time></trkpt>
<trkpt lat="41.72395" lon="23.50193"><ele>2704</ele><time>2026-03-15T08:59:32.000Z</time></trkpt>
<trkpt lat="41.723949" lon="23.501917"><ele>2704</ele><time>2026-03-15T08:59:33.000Z</time></trkpt>
<trkpt lat="41.723948" lon="23.501906"><ele>2704</ele><time>2026-03-15T08:59:34.000Z</time></trkpt>
<trkpt lat="41.723947" lon="23.501896"><ele>2704</ele><time>2026-03-15T08:59:35.000Z</time></trkpt>
<trkpt lat="41.723946" lon="23.501887"><ele>2704.2</ele><time>2026-03-15T08:59:36.000Z</time></trkpt>
<trkpt lat="41.723944" lon="23.501877"><ele>2704.2</ele><time>2026-03-15T08:59:37.000Z</time></trkpt>
<trkpt lat="41.723943" lon="23.501867"><ele>2704.2</ele><time>2026-03-15T08:59:38.000Z</time></trkpt>
<trkpt lat="41.723941" lon="23.501857"><ele>2704.2</ele><time>2026-03-15T08:59:39.000Z</time></trkpt>
<trkpt lat="41.723939" lon="23.501845"><ele>2704.2</ele><time>2026-03-15T08:59:40.000Z</time></trkpt>
<trkpt lat="41.723935" lon="23.501834"><ele>2704.2</ele><time>2026-03-15T08:59:41.000Z</time></trkpt>
<trkpt lat="41.723931" lon="23.501823"><ele>2704.2</ele><time>2026-03-15T08:59:42.000Z</time></trkpt>
<trkpt lat="41.723926" lon="23.501812"><ele>2704.2</ele><time>2026-03-15T08:59:43.000Z</time></trkpt>
<trkpt lat="41.723921" lon="23.501801"><ele>2704.2</ele><time>2026-03-15T08:59:44.000Z</time></trkpt>
<trkpt lat="41.723915" lon="23.501791"><ele>2704.2</ele><time>2026-03-15T08:59:45.000Z</time></trkpt>
<trkpt lat="41.723911" lon="23.501778"><ele>2703.9</ele><time>2026-03-15T08:59:46.000Z</time></trkpt>
<trkpt lat="41.723908" lon="23.501764"><ele>2703.9</ele><time>2026-03-15T08:59:47.000Z</time></trkpt>
<trkpt lat="41.723904" lon="23.501751"><ele>2703.9</ele><time>2026-03-15T08:59:48.000Z</time></trkpt>
<trkpt lat="41.723901" lon="23.501738"><ele>2703.9</ele><time>2026-03-15T08:59:49.000Z</time></trkpt>
<trkpt lat="41.723899" lon="23.501724"><ele>2703.9</ele><time>2026-03-15T08:59:50.000Z</time></trkpt>
<trkpt lat="41.723896" lon="23.501712"><ele>2703.6</ele><time>2026-03-15T08:59:51.000Z</time></trkpt>
<trkpt lat="41.723894" lon="23.501701"><ele>2703.6</ele><time>2026-03-15T08:59:52.000Z</time></trkpt>
<trkpt lat="41.723892" lon="23.50169"><ele>2703.6</ele><time>2026-03-15T08:59:53.000Z</time></trkpt>
<trkpt lat="41.723892" lon="23.501678"><ele>2703.6</ele><time>2026-03-15T08:59:54.000Z</time></trkpt>
<trkpt lat="41.723891" lon="23.501669"><ele>2703.6</ele><time>2026-03-15T08:59:55.000Z</time></trkpt>
<trkpt lat="41.723891" lon="23.50166"><ele>2703.3</ele><time>2026-03-15T08:59:56.000Z</time></trkpt>
<trkpt lat="41.723891" lon="23.501654"><ele>2703.3</ele><time>2026-03-15T08:59:57.000Z</time></trkpt>
<trkpt lat="41.723891" lon="23.50165"><ele>2703.3</ele><time>2026-03-15T08:59:58.000Z</time></trkpt>
<trkpt lat="41.72389" lon="23.501648"><ele>2703.3</ele><time>2026-03-15T08:59:59.000Z</time></trkpt>
<trkpt lat="41.723889" lon="23.501646"><ele>2703.3</ele><time>2026-03-15T09:00:00.000Z</time></trkpt>
<trkpt lat="41.723889" lon="23.501645"><ele>2702.8</ele><time>2026-03-15T09:00:01.000Z</time></trkpt>
<trkpt lat="41.723889" lon="23.501644"><ele>2702.8</ele><time>2026-03-15T09:00:02.000Z</time></trkpt>
<trkpt lat="41.723888" lon="23.501643"><ele>2702.8</ele><time>2026-03-15T09:00:03.000Z</time></trkpt>
<trkpt lat="41.723888" lon="23.501643"><ele>2702.8</ele><time>2026-03-15T09:00:04.000Z</time></trkpt>
<trkpt lat="41.723888" lon="23.501643"><ele>2702.8</ele><time>2026-03-15T09:00:05.000Z</time></trkpt>
<trkpt lat="41.723889" lon="23.501643"><ele>2702.4</ele><time>2026-03-15T09:00:06.000Z</time></trkpt>
<trkpt lat="41.723889" lon="23.501643"><ele>2702.4</ele><time>2026-03-15T09:00:07.000Z</time></trkpt>
<trkpt lat="41.72389" lon="23.501642"><ele>2702.4</ele><time>2026-03-15T09:00:08.000Z</time></trkpt>
<trkpt lat="41.72389" lon="23.501642"><ele>2702.4</ele><time>2026-03-15T09:00:09.000Z</time></trkpt>
<trkpt lat="41.72389" lon="23.501642"><ele>2702.4</ele><time>2026-03-15T09:00:10.000Z</time></trkpt>
<trkpt lat="41.72389" lon="23.501642"><ele>2702.4</ele><time>2026-03-15T09:00:11.000Z</time></trkpt>
<trkpt lat="41.72389" lon="23.501642"><ele>2702.4</ele><time>2026-03-15T09:00:12.000Z</time></trkpt>
<trkpt lat="41.72389" lon="23.501642"><ele>2702.4</ele><time>2026-03-15T09:00:13.000Z</time></trkpt>
<trkpt lat="41.72389" lon="23.501642"><ele>2702.4</ele><time>2026-03-15T09:00:14.000Z</time></trkpt>
<trkpt lat="41.72389" lon="23.501642"><ele>2702.4</ele><time>2026-03-15T09:00:15.000Z</time></trkpt>
<trkpt lat="41.72389" lon="23.501642"><ele>2702.4</ele><time>2026-03-15T09:00:16.000Z</time></trkpt>
<trkpt lat="41.72389" lon="23.501642"><ele>2702.4</ele><time>2026-03-15T09:00:17.000Z</time></trkpt>
<trkpt lat="41.72389" lon="23.501642"><ele>2702.4</ele><time>2026-03-15T09:00:18.000Z</time></trkpt>
<trkpt lat="41.72389" lon="23.501642"><ele>2702.4</ele><time>2026-03-15T09:00:19.000Z</time></trkpt>
<trkpt lat="41.72389" lon="23.501642"><ele>2702.4</ele><time>2026-03-15T09:00:20.000Z</time></trkpt>
<trkpt lat="41.72389" lon="23.501642"><ele>2702.4</ele><time>2026-03-15T09:00:21.000Z</time></trkpt>
<trkpt lat="41.72389" lon="23.501642"><ele>2702.4</ele><time>2026-03-15T09:00:22.000Z</time></trkpt>
<trkpt lat="41.72389" lon="23.501642"><ele>2702.4</ele><time>2026-03-15T09:00:23.000Z</time></trkpt>
<trkpt lat="41.72389" lon="23.501642"><ele>2702.4</ele><time>2026-03-15T09:00:24.000Z</time></trkpt>
<trkpt lat="41.72389" lon="23.501642"><ele>2702.4</ele><time>2026-03-15T09:00:25.000Z</time></trkpt>
<trkpt lat="41.72389" lon="23.501642"><ele>2702.3</ele><time>2026-03-15T09:00:26.000Z</time></trkpt>
<trkpt lat="41.72389" lon="23.501642"><ele>2702.3</ele><time>2026-03-15T09:00:27.000Z</time></trkpt>
<trkpt lat="41.72389" lon="23.501642"><ele>2702.3</ele><time>2026-03-15T09:00:28.000Z</time></trkpt>
<trkpt lat="41.72389" lon="23.501642"><ele>2702.3</ele><time>2026-03-15T09:00:29.000Z</time></trkpt>
<trkpt lat="41.72389" lon="23.501642"><ele>2702.3</ele><time>2026-03-15T09:00:30.000Z</time></trkpt>
<trkpt lat="41.72389" lon="23.501642"><ele>2702.2</ele><time>2026-03-15T09:00:31.000Z</time></trkpt>
<trkpt lat="41.72389" lon="23.501643"><ele>2702.2</ele><time>2026-03-15T09:00:32.000Z</time></trkpt>
<trkpt lat="41.72389" lon="23.501643"><ele>2702.2</ele><time>2026-03-15T09:00:33.000Z</time></trkpt>
<trkpt lat="41.723891" lon="23.501643"><ele>2702.2</ele><time>2026-03-15T09:00:34.000Z</time></trkpt>
<trkpt lat="41.723891" lon="23.501643"><ele>2702.2</ele><time>2026-03-15T09:00:35.000Z</time></trkpt>
<trkpt lat="41.723891" lon="23.501643"><ele>2702.1</ele><time>2026-03-15T09:00:36.000Z</time></trkpt>
<trkpt lat="41.723891" lon="23.501642"><ele>2702.1</ele><time>2026-03-15T09:00:37.000Z</time></trkpt>
<trkpt lat="41.723891" lon="23.501642"><ele>2702.1</ele><time>2026-03-15T09:00:38.000Z</time></trkpt>
<trkpt lat="41.723891" lon="23.501642"><ele>2702.1</ele><time>2026-03-15T09:00:39.000Z</time></trkpt>
<trkpt lat="41.723891" lon="23.501642"><ele>2702.1</ele><time>2026-03-15T09:00:40.000Z</time></trkpt>
<trkpt lat="41.723891" lon="23.501642"><ele>2702.1</ele><time>2026-03-15T09:00:41.000Z</time></trkpt>
<trkpt lat="41.723891" lon="23.501642"><ele>2702.1</ele><time>2026-03-15T09:00:42.000Z</time></trkpt>
<trkpt lat="41.723891" lon="23.501642"><ele>2702.1</ele><time>2026-03-15T09:00:43.000Z</time></trkpt>
<trkpt lat="41.723891" lon="23.501642"><ele>2702.1</ele><time>2026-03-15T09:00:44.000Z</time></trkpt>
<trkpt lat="41.723891" lon="23.501642"><ele>2702.1</ele><time>2026-03-15T09:00:45.000Z</time></trkpt>
<trkpt lat="41.723891" lon="23.501642"><ele>2702.3</ele><time>2026-03-15T09:00:46.000Z</time></trkpt>
<trkpt lat="41.723891" lon="23.501642"><ele>2702.3</ele><time>2026-03-15T09:00:47.000Z</time></trkpt>
<trkpt lat="41.723891" lon="23.501642"><ele>2702.3</ele><time>2026-03-15T09:00:48.000Z</time></trkpt>
<trkpt lat="41.723891" lon="23.501642"><ele>2702.3</ele><time>2026-03-15T09:00:49.000Z</time></trkpt>
<trkpt lat="41.723891" lon="23.501642"><ele>2702.3</ele><time>2026-03-15T09:00:50.000Z</time></trkpt>
<trkpt lat="41.723891" lon="23.501641"><ele>2702.4</ele><time>2026-03-15T09:00:51.000Z</time></trkpt>
<trkpt lat="41.72389" lon="23.501641"><ele>2702.4</ele><time>2026-03-15T09:00:52.000Z</time></trkpt>
<trkpt lat="41.72389" lon="23.501641"><ele>2702.4</ele><time>2026-03-15T09:00:53.000Z</time></trkpt>
<trkpt lat="41.72389" lon="23.501641"><ele>2702.4</ele><time>2026-03-15T09:00:54.000Z</time></trkpt>
<trkpt lat="41.723891" lon="23.501641"><ele>2702.4</ele><time>2026-03-15T09:00:55.000Z</time></trkpt>
<trkpt lat="41.723892" lon="23.501642"><ele>2702.5</ele><time>2026-03-15T09:00:56.000Z</time></trkpt>
<trkpt lat="41.723893" lon="23.501642"><ele>2702.5</ele><time>2026-03-15T09:00:57.000Z</time></trkpt>
<trkpt lat="41.723894" lon="23.501641"><ele>2702.5</ele><time>2026-03-15T09:00:58.000Z</time></trkpt>
<trkpt lat="41.723894" lon="23.50164"><ele>2702.5</ele><time>2026-03-15T09:00:59.000Z</time></trkpt>
<trkpt lat="41.723894" lon="23.50164"><ele>2702.5</ele><time>2026-03-15T09:01:00.000Z</time></trkpt>
<trkpt lat="41.723894" lon="23.501639"><ele>2702.6</ele><time>2026-03-15T09:01:01.000Z</time></trkpt>
<trkpt lat="41.723894" lon="23.501639"><ele>2702.6</ele><time>2026-03-15T09:01:02.000Z</time></trkpt>
<trkpt lat="41.723894" lon="23.501639"><ele>2702.6</ele><time>2026-03-15T09:01:03.000Z</time></trkpt>
<trkpt lat="41.723894" lon="23.501639"><ele>2702.6</ele><time>2026-03-15T09:01:04.000Z</time></trkpt>
<trkpt lat="41.723894" lon="23.501639"><ele>2702.6</ele><time>2026-03-15T09:01:05.000Z</time></trkpt>
<trkpt lat="41.723894" lon="23.501636"><ele>2702.6</ele><time>2026-03-15T09:01:06.000Z</time></trkpt>
<trkpt lat="41.723894" lon="23.501632"><ele>2702.6</ele><time>2026-03-15T09:01:07.000Z</time></trkpt>
<trkpt lat="41.723894" lon="23.501625"><ele>2702.6</ele><time>2026-03-15T09:01:08.000Z</time></trkpt>
<trkpt lat="41.723894" lon="23.501617"><ele>2702.6</ele><time>2026-03-15T09:01:09.000Z</time></trkpt>
<trkpt lat="41.723894" lon="23.501606"><ele>2702.6</ele><time>2026-03-15T09:01:10.000Z</time></trkpt>
<trkpt lat="41.723894" lon="23.501597"><ele>2702.6</ele><time>2026-03-15T09:01:11.000Z</time></trkpt>
<trkpt lat="41.723894" lon="23.501589"><ele>2702.6</ele><time>2026-03-15T09:01:12.000Z</time></trkpt>
<trkpt lat="41.723895" lon="23.501583"><ele>2702.6</ele><time>2026-03-15T09:01:13.000Z</time></trkpt>
<trkpt lat="41.723895" lon="23.501579"><ele>2702.6</ele><time>2026-03-15T09:01:14.000Z</time></trkpt>
<trkpt lat="41.723894" lon="23.501578"><ele>2702.6</ele><time>2026-03-15T09:01:15.000Z</time></trkpt>
<trkpt lat="41.723894" lon="23.501578"><ele>2702.7</ele><time>2026-03-15T09:01:16.000Z</time></trkpt>
<trkpt lat="41.723894" lon="23.501578"><ele>2702.7</ele><time>2026-03-15T09:01:17.000Z</time></trkpt>
<trkpt lat="41.723894" lon="23.501579"><ele>2702.7</ele><time>2026-03-15T09:01:18.000Z</time></trkpt>
<trkpt lat="41.723894" lon="23.501579"><ele>2702.7</ele><time>2026-03-15T09:01:19.000Z</time></trkpt>
<trkpt lat="41.723893" lon="23.501578"><ele>2702.7</ele><time>2026-03-15T09:01:20.000Z</time></trkpt>
<trkpt lat="41.723893" lon="23.501578"><ele>2702.9</ele><time>2026-03-15T09:01:21.000Z</time></trkpt>
<trkpt lat="41.723892" lon="23.501578"><ele>2702.9</ele><time>2026-03-15T09:01:22.000Z</time></trkpt>
<trkpt lat="41.723892" lon="23.501578"><ele>2702.9</ele><time>2026-03-15T09:01:23.000Z</time></trkpt>
<trkpt lat="41.723891" lon="23.501578"><ele>2702.9</ele><time>2026-03-15T09:01:24.000Z</time></trkpt>
<trkpt lat="41.723891" lon="23.501578"><ele>2702.9</ele><time>2026-03-15T09:01:25.000Z</time></trkpt>
<trkpt lat="41.723891" lon="23.501578"><ele>2703</ele><time>2026-03-15T09:01:26.000Z</time></trkpt>
<trkpt lat="41.723891" lon="23.501578"><ele>2703</ele><time>2026-03-15T09:01:27.000Z</time></trkpt>
<trkpt lat="41.723891" lon="23.501578"><ele>2703</ele><time>2026-03-15T09:01:28.000Z</time></trkpt>
<trkpt lat="41.723891" lon="23.501578"><ele>2703</ele><time>2026-03-15T09:01:29.000Z</time></trkpt>
<trkpt lat="41.723891" lon="23.501577"><ele>2703</ele><time>2026-03-15T09:01:30.000Z</time></trkpt>
<trkpt lat="41.72389" lon="23.501577"><ele>2703.1</ele><time>2026-03-15T09:01:31.000Z</time></trkpt>
<trkpt lat="41.723891" lon="23.501574"><ele>2703.1</ele><time>2026-03-15T09:01:32.000Z</time></trkpt>
<trkpt lat="41.723891" lon="23.501569"><ele>2703.1</ele><time>2026-03-15T09:01:33.000Z</time></trkpt>
<trkpt lat="41.72389" lon="23.501563"><ele>2703.1</ele><time>2026-03-15T09:01:34.000Z</time></trkpt>
<trkpt lat="41.723888" lon="23.501556"><ele>2703.1</ele><time>2026-03-15T09:01:35.000Z</time></trkpt>
<trkpt lat="41.723886" lon="23.501547"><ele>2703.2</ele><time>2026-03-15T09:01:36.000Z</time></trkpt>
<trkpt lat="41.723883" lon="23.501539"><ele>2703.2</ele><time>2026-03-15T09:01:37.000Z</time></trkpt>
<trkpt lat="41.72388" lon="23.501531"><ele>2703.2</ele><time>2026-03-15T09:01:38.000Z</time></trkpt>
<trkpt lat="41.723877" lon="23.501523"><ele>2703.2</ele><time>2026-03-15T09:01:39.000Z</time></trkpt>
<trkpt lat="41.723874" lon="23.501514"><ele>2703.2</ele><time>2026-03-15T09:01:40.000Z</time></trkpt>
<trkpt lat="41.72387" lon="23.501506"><ele>2703.4</ele><time>2026-03-15T09:01:41.000Z</time></trkpt>
<trkpt lat="41.723867" lon="23.501499"><ele>2703.4</ele><time>2026-03-15T09:01:42.000Z</time></trkpt>
<trkpt lat="41.723865" lon="23.501489"><ele>2703.4</ele><time>2026-03-15T09:01:43.000Z</time></trkpt>
<trkpt lat="41.723863" lon="23.50148"><ele>2703.4</ele><time>2026-03-15T09:01:44.000Z</time></trkpt>
<trkpt lat="41.723862" lon="23.501471"><ele>2703.4</ele><time>2026-03-15T09:01:45.000Z</time></trkpt>
<trkpt lat="41.723862" lon="23.501462"><ele>2703.9</ele><time>2026-03-15T09:01:46.000Z</time></trkpt>
<trkpt lat="41.723861" lon="23.501456"><ele>2703.9</ele><time>2026-03-15T09:01:47.000Z</time></trkpt>
<trkpt lat="41.72386" lon="23.501451"><ele>2703.9</ele><time>2026-03-15T09:01:48.000Z</time></trkpt>
<trkpt lat="41.723859" lon="23.501448"><ele>2703.9</ele><time>2026-03-15T09:01:49.000Z</time></trkpt>
<trkpt lat="41.723859" lon="23.501447"><ele>2703.9</ele><time>2026-03-15T09:01:50.000Z</time></trkpt>
<trkpt lat="41.723859" lon="23.501447"><ele>2704.5</ele><time>2026-03-15T09:01:51.000Z</time></trkpt>
<trkpt lat="41.723859" lon="23.501447"><ele>2704.5</ele><time>2026-03-15T09:01:52.000Z</time></trkpt>
<trkpt lat="41.72386" lon="23.501446"><ele>2704.5</ele><time>2026-03-15T09:01:53.000Z</time></trkpt>
<trkpt lat="41.723861" lon="23.501446"><ele>2704.5</ele><time>2026-03-15T09:01:54.000Z</time></trkpt>
<trkpt lat="41.723862" lon="23.501446"><ele>2704.5</ele><time>2026-03-15T09:01:55.000Z</time></trkpt>
<trkpt lat="41.723862" lon="23.501446"><ele>2704.7</ele><time>2026-03-15T09:01:56.000Z</time></trkpt>
<trkpt lat="41.723862" lon="23.501446"><ele>2704.7</ele><time>2026-03-15T09:01:57.000Z</time></trkpt>
<trkpt lat="41.723862" lon="23.501446"><ele>2704.7</ele><time>2026-03-15T09:01:58.000Z</time></trkpt>
<trkpt lat="41.723862" lon="23.501446"><ele>2704.7</ele><time>2026-03-15T09:01:59.000Z</time></trkpt>
<trkpt lat="41.723862" lon="23.501446"><ele>2704.7</ele><time>2026-03-15T09:02:00.000Z</time></trkpt>
<trkpt lat="41.723862" lon="23.501446"><ele>2704.9</ele><time>2026-03-15T09:02:01.000Z</time></trkpt>
<trkpt lat="41.723862" lon="23.501446"><ele>2704.9</ele><time>2026-03-15T09:02:02.000Z</time></trkpt>
<trkpt lat="41.723862" lon="23.501446"><ele>2704.9</ele><time>2026-03-15T09:02:03.000Z</time></trkpt>
<trkpt lat="41.723862" lon="23.501446"><ele>2704.9</ele><time>2026-03-15T09:02:04.000Z</time></trkpt>
<trkpt lat="41.723862" lon="23.501446"><ele>2704.9</ele><time>2026-03-15T09:02:05.000Z</time></trkpt>
<trkpt lat="41.723862" lon="23.501446"><ele>2704.9</ele><time>2026-03-15T09:02:06.000Z</time></trkpt>
<trkpt lat="41.723862" lon="23.501446"><ele>2704.9</ele><time>2026-03-15T09:02:07.000Z</time></trkpt>
<trkpt lat="41.723862" lon="23.501446"><ele>2704.9</ele><time>2026-03-15T09:02:08.000Z</time></trkpt>
<trkpt lat="41.723861" lon="23.501444"><ele>2704.9</ele><time>2026-03-15T09:02:09.000Z</time></trkpt>
<trkpt lat="41.72386" lon="23.50144"><ele>2704.9</ele><time>2026-03-15T09:02:10.000Z</time></trkpt>
<trkpt lat="41.723858" lon="23.501435"><ele>2704.8</ele><time>2026-03-15T09:02:11.000Z</time></trkpt>
<trkpt lat="41.723857" lon="23.501427"><ele>2704.8</ele><time>2026-03-15T09:02:12.000Z</time></trkpt>
<trkpt lat="41.723855" lon="23.501418"><ele>2704.8</ele><time>2026-03-15T09:02:13.000Z</time></trkpt>
<trkpt lat="41.723853" lon="23.501408"><ele>2704.8</ele><time>2026-03-15T09:02:14.000Z</time></trkpt>
<trkpt lat="41.723852" lon="23.501399"><ele>2704.8</ele><time>2026-03-15T09:02:15.000Z</time></trkpt>
<trkpt lat="41.723851" lon="23.501389"><ele>2704.6</ele><time>2026-03-15T09:02:16.000Z</time></trkpt>
<trkpt lat="41.723852" lon="23.501379"><ele>2704.6</ele><time>2026-03-15T09:02:17.000Z</time></trkpt>
<trkpt lat="41.723852" lon="23.501368"><ele>2704.6</ele><time>2026-03-15T09:02:18.000Z</time></trkpt>
<trkpt lat="41.723852" lon="23.501357"><ele>2704.6</ele><time>2026-03-15T09:02:19.000Z</time></trkpt>
<trkpt lat="41.723852" lon="23.501344"><ele>2704.6</ele><time>2026-03-15T09:02:20.000Z</time></trkpt>
<trkpt lat="41.72385" lon="23.501332"><ele>2704.7</ele><time>2026-03-15T09:02:21.000Z</time></trkpt>
<trkpt lat="41.723848" lon="23.501321"><ele>2704.7</ele><time>2026-03-15T09:02:22.000Z</time></trkpt>
<trkpt lat="41.723846" lon="23.501309"><ele>2704.7</ele><time>2026-03-15T09:02:23.000Z</time></trkpt>
<trkpt lat="41.723843" lon="23.501297"><ele>2704.7</ele><time>2026-03-15T09:02:24.000Z</time></trkpt>
<trkpt lat="41.72384" lon="23.501287"><ele>2704.7</ele><time>2026-03-15T09:02:25.000Z</time></trkpt>
<trkpt lat="41.723838" lon="23.501276"><ele>2704.9</ele><time>2026-03-15T09:02:26.000Z</time></trkpt>
<trkpt lat="41.723835" lon="23.501265"><ele>2704.9</ele><time>2026-03-15T09:02:27.000Z</time></trkpt>
<trkpt lat="41.723833" lon="23.501253"><ele>2704.9</ele><time>2026-03-15T09:02:28.000Z</time></trkpt>
<trkpt lat="41.723831" lon="23.501243"><ele>2704.9</ele><time>2026-03-15T09:02:29.000Z</time></trkpt>
<trkpt lat="41.723831" lon="23.501231"><ele>2704.9</ele><time>2026-03-15T09:02:30.000Z</time></trkpt>
<trkpt lat="41.72383" lon="23.501219"><ele>2705.7</ele><time>2026-03-15T09:02:31.000Z</time></trkpt>
<trkpt lat="41.72383" lon="23.501207"><ele>2705.7</ele><time>2026-03-15T09:02:32.000Z</time></trkpt>
<trkpt lat="41.72383" lon="23.501195"><ele>2705.7</ele><time>2026-03-15T09:02:33.000Z</time></trkpt>
<trkpt lat="41.72383" lon="23.501182"><ele>2705.7</ele><time>2026-03-15T09:02:34.000Z</time></trkpt>
<trkpt lat="41.723831" lon="23.50117"><ele>2705.7</ele><time>2026-03-15T09:02:35.000Z</time></trkpt>
<trkpt lat="41.723831" lon="23.501159"><ele>2706.5</ele><time>2026-03-15T09:02:36.000Z</time></trkpt>
<trkpt lat="41.723831" lon="23.501148"><ele>2706.5</ele><time>2026-03-15T09:02:37.000Z</time></trkpt>
<trkpt lat="41.723831" lon="23.501138"><ele>2706.5</ele><time>2026-03-15T09:02:38.000Z</time></trkpt>
<trkpt lat="41.723831" lon="23.501127"><ele>2706.5</ele><time>2026-03-15T09:02:39.000Z</time></trkpt>
<trkpt lat="41.723831" lon="23.501115"><ele>2706.5</ele><time>2026-03-15T09:02:40.000Z</time></trkpt>
<trkpt lat="41.72383" lon="23.501103"><ele>2706.8</ele><time>2026-03-15T09:02:41.000Z</time></trkpt>
<trkpt lat="41.723828" lon="23.501091"><ele>2706.8</ele><time>2026-03-15T09:02:42.000Z</time></trkpt>
<trkpt lat="41.723827" lon="23.501079"><ele>2706.8</ele><time>2026-03-15T09:02:43.000Z</time></trkpt>
<trkpt lat="41.723826" lon="23.501067"><ele>2706.8</ele><time>2026-03-15T09:02:44.000Z</time></trkpt>
<trkpt lat="41.723826" lon="23.501054"><ele>2706.8</ele><time>2026-03-15T09:02:45.000Z</time></trkpt>
<trkpt lat="41.723826" lon="23.501043"><ele>2707.5</ele><time>2026-03-15T09:02:46.000Z</time></trkpt>
<trkpt lat="41.723826" lon="23.50103"><ele>2707.5</ele><time>2026-03-15T09:02:47.000Z</time></trkpt>
<trkpt lat="41.723826" lon="23.501018"><ele>2707.5</ele><time>2026-03-15T09:02:48.000Z</time></trkpt>
<trkpt lat="41.723825" lon="23.501006"><ele>2707.5</ele><time>2026-03-15T09:02:49.000Z</time></trkpt>
<trkpt lat="41.723824" lon="23.500994"><ele>2707.5</ele><time>2026-03-15T09:02:50.000Z</time></trkpt>
<trkpt lat="41.723824" lon="23.500981"><ele>2708.1</ele><time>2026-03-15T09:02:51.000Z</time></trkpt>
<trkpt lat="41.723824" lon="23.500969"><ele>2708.1</ele><time>2026-03-15T09:02:52.000Z</time></trkpt>
<trkpt lat="41.723824" lon="23.500957"><ele>2708.1</ele><time>2026-03-15T09:02:53.000Z</time></trkpt>
<trkpt lat="41.723825" lon="23.500944"><ele>2708.1</ele><time>2026-03-15T09:02:54.000Z</time></trkpt>
<trkpt lat="41.723826" lon="23.500931"><ele>2708.1</ele><time>2026-03-15T09:02:55.000Z</time></trkpt>
<trkpt lat="41.723826" lon="23.500919"><ele>2708.4</ele><time>2026-03-15T09:02:56.000Z</time></trkpt>
<trkpt lat="41.723826" lon="23.500907"><ele>2708.4</ele><time>2026-03-15T09:02:57.000Z</time></trkpt>
<trkpt lat="41.723827" lon="23.500896"><ele>2708.4</ele><time>2026-03-15T09:02:58.000Z</time></trkpt>
<trkpt lat="41.723827" lon="23.500885"><ele>2708.4</ele><time>2026-03-15T09:02:59.000Z</time></trkpt>
<trkpt lat="41.723827" lon="23.500874"><ele>2708.4</ele><time>2026-03-15T09:03:00.000Z</time></trkpt>
<trkpt lat="41.723827" lon="23.500862"><ele>2709.2</ele><time>2026-03-15T09:03:01.000Z</time></trkpt>
<trkpt lat="41.723828" lon="23.50085"><ele>2709.2</ele><time>2026-03-15T09:03:02.000Z</time></trkpt>
<trkpt lat="41.723828" lon="23.500837"><ele>2709.2</ele><time>2026-03-15T09:03:03.000Z</time></trkpt>
<trkpt lat="41.723828" lon="23.500825"><ele>2709.2</ele><time>2026-03-15T09:03:04.000Z</time></trkpt>
<trkpt lat="41.723827" lon="23.500813"><ele>2709.2</ele><time>2026-03-15T09:03:05.000Z</time></trkpt>
<trkpt lat="41.723826" lon="23.500801"><ele>2710</ele><time>2026-03-15T09:03:06.000Z</time></trkpt>
<trkpt lat="41.723826" lon="23.500789"><ele>2710</ele><time>2026-03-15T09:03:07.000Z</time></trkpt>
<trkpt lat="41.723825" lon="23.500778"><ele>2710</ele><time>2026-03-15T09:03:08.000Z</time></trkpt>
<trkpt lat="41.723825" lon="23.500768"><ele>2710</ele><time>2026-03-15T09:03:09.000Z</time></trkpt>
<trkpt lat="41.723823" lon="23.500756"><ele>2710</ele><time>2026-03-15T09:03:10.000Z</time></trkpt>
<trkpt lat="41.723822" lon="23.500745"><ele>2710.4</ele><time>2026-03-15T09:03:11.000Z</time></trkpt>
<trkpt lat="41.723821" lon="23.500736"><ele>2710.4</ele><time>2026-03-15T09:03:12.000Z</time></trkpt>
<trkpt lat="41.723819" lon="23.500726"><ele>2710.4</ele><time>2026-03-15T09:03:13.000Z</time></trkpt>
<trkpt lat="41.723819" lon="23.500716"><ele>2710.4</ele><time>2026-03-15T09:03:14.000Z</time></trkpt>
<trkpt lat="41.723818" lon="23.500707"><ele>2710.4</ele><time>2026-03-15T09:03:15.000Z</time></trkpt>
<trkpt lat="41.723817" lon="23.500698"><ele>2711</ele><time>2026-03-15T09:03:16.000Z</time></trkpt>
<trkpt lat="41.723817" lon="23.500689"><ele>2711</ele><time>2026-03-15T09:03:17.000Z</time></trkpt>
<trkpt lat="41.723818" lon="23.500681"><ele>2711</ele><time>2026-03-15T09:03:18.000Z</time></trkpt>
<trkpt lat="41.723818" lon="23.500672"><ele>2711</ele><time>2026-03-15T09:03:19.000Z</time></trkpt>
<trkpt lat="41.723819" lon="23.500664"><ele>2711</ele><time>2026-03-15T09:03:20.000Z</time></trkpt>
<trkpt lat="41.723819" lon="23.500656"><ele>2711.6</ele><time>2026-03-15T09:03:21.000Z</time></trkpt>
<trkpt lat="41.72382" lon="23.500647"><ele>2711.6</ele><time>2026-03-15T09:03:22.000Z</time></trkpt>
<trkpt lat="41.72382" lon="23.500638"><ele>2711.6</ele><time>2026-03-15T09:03:23.000Z</time></trkpt>
<trkpt lat="41.723821" lon="23.50063"><ele>2711.6</ele><time>2026-03-15T09:03:24.000Z</time></trkpt>
<trkpt lat="41.723823" lon="23.50062"><ele>2711.6</ele><time>2026-03-15T09:03:25.000Z</time></trkpt>
<trkpt lat="41.723824" lon="23.500611"><ele>2712</ele><time>2026-03-15T09:03:26.000Z</time></trkpt>
<trkpt lat="41.723826" lon="23.500602"><ele>2712</ele><time>2026-03-15T09:03:27.000Z</time></trkpt>
<trkpt lat="41.723828" lon="23.500592"><ele>2712</ele><time>2026-03-15T09:03:28.000Z</time></trkpt>
<trkpt lat="41.72383" lon="23.500583"><ele>2712</ele><time>2026-03-15T09:03:29.000Z</time></trkpt>
<trkpt lat="41.723831" lon="23.500574"><ele>2712</ele><time>2026-03-15T09:03:30.000Z</time></trkpt>
<trkpt lat="41.723831" lon="23.500564"><ele>2712.7</ele><time>2026-03-15T09:03:31.000Z</time></trkpt>
<trkpt lat="41.723831" lon="23.500555"><ele>2712.7</ele><time>2026-03-15T09:03:32.000Z</time></trkpt>
<trkpt lat="41.723829" lon="23.500546"><ele>2712.7</ele><time>2026-03-15T09:03:33.000Z</time></trkpt>
<trkpt lat="41.723827" lon="23.500534"><ele>2712.7</ele><time>2026-03-15T09:03:34.000Z</time></trkpt>
<trkpt lat="41.723824" lon="23.500523"><ele>2712.7</ele><time>2026-03-15T09:03:35.000Z</time></trkpt>
<trkpt lat="41.723822" lon="23.500512"><ele>2713.5</ele><time>2026-03-15T09:03:36.000Z</time></trkpt>
<trkpt lat="41.723819" lon="23.5005"><ele>2713.5</ele><time>2026-03-15T09:03:37.000Z</time></trkpt>
<trkpt lat="41.723817" lon="23.500487"><ele>2713.5</ele><time>2026-03-15T09:03:38.000Z</time></trkpt>
<trkpt lat="41.723816" lon="23.500476"><ele>2713.5</ele><time>2026-03-15T09:03:39.000Z</time></trkpt>
<trkpt lat="41.723816" lon="23.500465"><ele>2713.5</ele><time>2026-03-15T09:03:40.000Z</time></trkpt>
<trkpt lat="41.723816" lon="23.500452"><ele>2713.9</ele><time>2026-03-15T09:03:41.000Z</time></trkpt>
<trkpt lat="41.723816" lon="23.500442"><ele>2713.9</ele><time>2026-03-15T09:03:42.000Z</time></trkpt>
<trkpt lat="41.723816" lon="23.500433"><ele>2713.9</ele><time>2026-03-15T09:03:43.000Z</time></trkpt>
<trkpt lat="41.723816" lon="23.500424"><ele>2713.9</ele><time>2026-03-15T09:03:44.000Z</time></trkpt>
<trkpt lat="41.723816" lon="23.500417"><ele>2713.9</ele><time>2026-03-15T09:03:45.000Z</time></trkpt>
<trkpt lat="41.723816" lon="23.50041"><ele>2714.8</ele><time>2026-03-15T09:03:46.000Z</time></trkpt>
<trkpt lat="41.723816" lon="23.500403"><ele>2714.8</ele><time>2026-03-15T09:03:47.000Z</time></trkpt>
<trkpt lat="41.723816" lon="23.500397"><ele>2714.8</ele><time>2026-03-15T09:03:48.000Z</time></trkpt>
<trkpt lat="41.723816" lon="23.50039"><ele>2714.8</ele><time>2026-03-15T09:03:49.000Z</time></trkpt>
<trkpt lat="41.723816" lon="23.500383"><ele>2714.8</ele><time>2026-03-15T09:03:50.000Z</time></trkpt>
<trkpt lat="41.723815" lon="23.500376"><ele>2715.7</ele><time>2026-03-15T09:03:51.000Z</time></trkpt>
<trkpt lat="41.723816" lon="23.500368"><ele>2715.7</ele><time>2026-03-15T09:03:52.000Z</time></trkpt>
<trkpt lat="41.723816" lon="23.500359"><ele>2715.7</ele><time>2026-03-15T09:03:53.000Z</time></trkpt>
<trkpt lat="41.723816" lon="23.500351"><ele>2715.7</ele><time>2026-03-15T09:03:54.000Z</time></trkpt>
<trkpt lat="41.723817" lon="23.500342"><ele>2715.7</ele><time>2026-03-15T09:03:55.000Z</time></trkpt>
<trkpt lat="41.723817" lon="23.500333"><ele>2716.1</ele><time>2026-03-15T09:03:56.000Z</time></trkpt>
<trkpt lat="41.723818" lon="23.500325"><ele>2716.1</ele><time>2026-03-15T09:03:57.000Z</time></trkpt>
<trkpt lat="41.723818" lon="23.500318"><ele>2716.1</ele><time>2026-03-15T09:03:58.000Z</time></trkpt>
<trkpt lat="41.72382" lon="23.500312"><ele>2716.1</ele><time>2026-03-15T09:03:59.000Z</time></trkpt>
<trkpt lat="41.723821" lon="23.500307"><ele>2716.1</ele><time>2026-03-15T09:04:00.000Z</time></trkpt>
<trkpt lat="41.723823" lon="23.500302"><ele>2716.9</ele><time>2026-03-15T09:04:01.000Z</time></trkpt>
<trkpt lat="41.723824" lon="23.500297"><ele>2716.9</ele><time>2026-03-15T09:04:02.000Z</time></trkpt>
<trkpt lat="41.723825" lon="23.500292"><ele>2716.9</ele><time>2026-03-15T09:04:03.000Z</time></trkpt>
<trkpt lat="41.723826" lon="23.500286"><ele>2716.9</ele><time>2026-03-15T09:04:04.000Z</time></trkpt>
<trkpt lat="41.723828" lon="23.500279"><ele>2716.9</ele><time>2026-03-15T09:04:05.000Z</time></trkpt>
<trkpt lat="41.723829" lon="23.500271"><ele>2717.7</ele><time>2026-03-15T09:04:06.000Z</time></trkpt>
<trkpt lat="41.72383" lon="23.500264"><ele>2717.7</ele><time>2026-03-15T09:04:07.000Z</time></trkpt>
<trkpt lat="41.723831" lon="23.500256"><ele>2717.7</ele><time>2026-03-15T09:04:08.000Z</time></trkpt>
<trkpt lat="41.723832" lon="23.500248"><ele>2717.7</ele><time>2026-03-15T09:04:09.000Z</time></trkpt>
<trkpt lat="41.723832" lon="23.50024"><ele>2717.7</ele><time>2026-03-15T09:04:10.000Z</time></trkpt>
<trkpt lat="41.723832" lon="23.500231"><ele>2718</ele><time>2026-03-15T09:04:11.000Z</time></trkpt>
<trkpt lat="41.723832" lon="23.500223"><ele>2718</ele><time>2026-03-15T09:04:12.000Z</time></trkpt>
<trkpt lat="41.723832" lon="23.500214"><ele>2718</ele><time>2026-03-15T09:04:13.000Z</time></trkpt>
<trkpt lat="41.723831" lon="23.500206"><ele>2718</ele><time>2026-03-15T09:04:14.000Z</time></trkpt>
<trkpt lat="41.723831" lon="23.500199"><ele>2718</ele><time>2026-03-15T09:04:15.000Z</time></trkpt>
<trkpt lat="41.723832" lon="23.500191"><ele>2718.7</ele><time>2026-03-15T09:04:16.000Z</time></trkpt>
<trkpt lat="41.723832" lon="23.500183"><ele>2718.7</ele><time>2026-03-15T09:04:17.000Z</time></trkpt>
<trkpt lat="41.723833" lon="23.500176"><ele>2718.7</ele><time>2026-03-15T09:04:18.000Z</time></trkpt>
<trkpt lat="41.723834" lon="23.500167"><ele>2718.7</ele><time>2026-03-15T09:04:19.000Z</time></trkpt>
<trkpt lat="41.723834" lon="23.50016"><ele>2718.7</ele><time>2026-03-15T09:04:20.000Z</time></trkpt>
<trkpt lat="41.723834" lon="23.500152"><ele>2719.4</ele><time>2026-03-15T09:04:21.000Z</time></trkpt>
<trkpt lat="41.723834" lon="23.500142"><ele>2719.4</ele><time>2026-03-15T09:04:22.000Z</time></trkpt>
<trkpt lat="41.723834" lon="23.500133"><ele>2719.4</ele><time>2026-03-15T09:04:23.000Z</time></trkpt>
<trkpt lat="41.723834" lon="23.500124"><ele>2719.4</ele><time>2026-03-15T09:04:24.000Z</time></trkpt>
<trkpt lat="41.723834" lon="23.500114"><ele>2719.4</ele><time>2026-03-15T09:04:25.000Z</time></trkpt>
<trkpt lat="41.723835" lon="23.500106"><ele>2719.8</ele><time>2026-03-15T09:04:26.000Z</time></trkpt>
<trkpt lat="41.723836" lon="23.500098"><ele>2719.8</ele><time>2026-03-15T09:04:27.000Z</time></trkpt>
<trkpt lat="41.723837" lon="23.500088"><ele>2719.8</ele><time>2026-03-15T09:04:28.000Z</time></trkpt>
<trkpt lat="41.723837" lon="23.500079"><ele>2719.8</ele><time>2026-03-15T09:04:29.000Z</time></trkpt>
<trkpt lat="41.723838" lon="23.50007"><ele>2719.8</ele><time>2026-03-15T09:04:30.000Z</time></trkpt>
<trkpt lat="41.723838" lon="23.50006"><ele>2720.6</ele><time>2026-03-15T09:04:31.000Z</time></trkpt>
<trkpt lat="41.723838" lon="23.50005"><ele>2720.6</ele><time>2026-03-15T09:04:32.000Z</time></trkpt>
<trkpt lat="41.723838" lon="23.500041"><ele>2720.6</ele><time>2026-03-15T09:04:33.000Z</time></trkpt>
<trkpt lat="41.723838" lon="23.500032"><ele>2720.6</ele><time>2026-03-15T09:04:34.000Z</time></trkpt>
<trkpt lat="41.723838" lon="23.500023"><ele>2720.6</ele><time>2026-03-15T09:04:35.000Z</time></trkpt>
<trkpt lat="41.723838" lon="23.500013"><ele>2721.5</ele><time>2026-03-15T09:04:36.000Z</time></trkpt>
<trkpt lat="41.723838" lon="23.500003"><ele>2721.5</ele><time>2026-03-15T09:04:37.000Z</time></trkpt>
<trkpt lat="41.723838" lon="23.499992"><ele>2721.5</ele><time>2026-03-15T09:04:38.000Z</time></trkpt>
<trkpt lat="41.723838" lon="23.499982"><ele>2721.5</ele><time>2026-03-15T09:04:39.000Z</time></trkpt>
<trkpt lat="41.723839" lon="23.499972"><ele>2721.5</ele><time>2026-03-15T09:04:40.000Z</time></trkpt>
<trkpt lat="41.72384" lon="23.499964"><ele>2722.1</ele><time>2026-03-15T09:04:41.000Z</time></trkpt>
<trkpt lat="41.723842" lon="23.499956"><ele>2722.1</ele><time>2026-03-15T09:04:42.000Z</time></trkpt>
<trkpt lat="41.723844" lon="23.499949"><ele>2722.1</ele><time>2026-03-15T09:04:43.000Z</time></trkpt>
<trkpt lat="41.723846" lon="23.499942"><ele>2722.1</ele><time>2026-03-15T09:04:44.000Z</time></trkpt>
<trkpt lat="41.723846" lon="23.499934"><ele>2722.1</ele><time>2026-03-15T09:04:45.000Z</time></trkpt>
<trkpt lat="41.723848" lon="23.499924"><ele>2723.4</ele><time>2026-03-15T09:04:46.000Z</time></trkpt>
<trkpt lat="41.723848" lon="23.499913"><ele>2723.4</ele><time>2026-03-15T09:04:47.000Z</time></trkpt>
<trkpt lat="41.723849" lon="23.499901"><ele>2723.4</ele><time>2026-03-15T09:04:48.000Z</time></trkpt>
<trkpt lat="41.723851" lon="23.499887"><ele>2723.4</ele><time>2026-03-15T09:04:49.000Z</time></trkpt>
<trkpt lat="41.723852" lon="23.499873"><ele>2723.4</ele><time>2026-03-15T09:04:50.000Z</time></trkpt>
<trkpt lat="41.723853" lon="23.49986"><ele>2724.7</ele><time>2026-03-15T09:04:51.000Z</time></trkpt>
<trkpt lat="41.723854" lon="23.499847"><ele>2724.7</ele><time>2026-03-15T09:04:52.000Z</time></trkpt>
<trkpt lat="41.723855" lon="23.499834"><ele>2724.7</ele><time>2026-03-15T09:04:53.000Z</time></trkpt>
<trkpt lat="41.723855" lon="23.499822"><ele>2724.7</ele><time>2026-03-15T09:04:54.000Z</time></trkpt>
<trkpt lat="41.723855" lon="23.49981"><ele>2724.7</ele><time>2026-03-15T09:04:55.000Z</time></trkpt>
<trkpt lat="41.723856" lon="23.499798"><ele>2725.2</ele><time>2026-03-15T09:04:56.000Z</time></trkpt>
<trkpt lat="41.723857" lon="23.499787"><ele>2725.2</ele><time>2026-03-15T09:04:57.000Z</time></trkpt>
<trkpt lat="41.723859" lon="23.499775"><ele>2725.2</ele><time>2026-03-15T09:04:58.000Z</time></trkpt>
<trkpt lat="41.723861" lon="23.499765"><ele>2725.2</ele><time>2026-03-15T09:04:59.000Z</time></trkpt>
<trkpt lat="41.723862" lon="23.499757"><ele>2725.2</ele><time>2026-03-15T09:05:00.000Z</time></trkpt>
<trkpt lat="41.723864" lon="23.499752"><ele>2726</ele><time>2026-03-15T09:05:01.000Z</time></trkpt>
<trkpt lat="41.723866" lon="23.499746"><ele>2726</ele><time>2026-03-15T09:05:02.000Z</time></trkpt>
<trkpt lat="41.723867" lon="23.499741"><ele>2726</ele><time>2026-03-15T09:05:03.000Z</time></trkpt>
<trkpt lat="41.723869" lon="23.499734"><ele>2726</ele><time>2026-03-15T09:05:04.000Z</time></trkpt>
<trkpt lat="41.723872" lon="23.499726"><ele>2726</ele><time>2026-03-15T09:05:05.000Z</time></trkpt>
<trkpt lat="41.723874" lon="23.499717"><ele>2726.6</ele><time>2026-03-15T09:05:06.000Z</time></trkpt>
<trkpt lat="41.723875" lon="23.499709"><ele>2726.6</ele><time>2026-03-15T09:05:07.000Z</time></trkpt>
<trkpt lat="41.723877" lon="23.499701"><ele>2726.6</ele><time>2026-03-15T09:05:08.000Z</time></trkpt>
<trkpt lat="41.723879" lon="23.499694"><ele>2726.6</ele><time>2026-03-15T09:05:09.000Z</time></trkpt>
<trkpt lat="41.723882" lon="23.499687"><ele>2726.6</ele><time>2026-03-15T09:05:10.000Z</time></trkpt>
<trkpt lat="41.723885" lon="23.499682"><ele>2727</ele><time>2026-03-15T09:05:11.000Z</time></trkpt>
<trkpt lat="41.723888" lon="23.499677"><ele>2727</ele><time>2026-03-15T09:05:12.000Z</time></trkpt>
<trkpt lat="41.723891" lon="23.499672"><ele>2727</ele><time>2026-03-15T09:05:13.000Z</time></trkpt>
<trkpt lat="41.723892" lon="23.499668"><ele>2727</ele><time>2026-03-15T09:05:14.000Z</time></trkpt>
<trkpt lat="41.723893" lon="23.499664"><ele>2727</ele><time>2026-03-15T09:05:15.000Z</time></trkpt>
<trkpt lat="41.723894" lon="23.49966"><ele>2727.7</ele><time>2026-03-15T09:05:16.000Z</time></trkpt>
<trkpt lat="41.723895" lon="23.499655"><ele>2727.7</ele><time>2026-03-15T09:05:17.000Z</time></trkpt>
<trkpt lat="41.723896" lon="23.49965"><ele>2727.7</ele><time>2026-03-15T09:05:18.000Z</time></trkpt>
<trkpt lat="41.723897" lon="23.499645"><ele>2727.7</ele><time>2026-03-15T09:05:19.000Z</time></trkpt>
<trkpt lat="41.723898" lon="23.49964"><ele>2727.7</ele><time>2026-03-15T09:05:20.000Z</time></trkpt>
<trkpt lat="41.7239" lon="23.499633"><ele>2728.7</ele><time>2026-03-15T09:05:21.000Z</time></trkpt>
<trkpt lat="41.723901" lon="23.499626"><ele>2728.7</ele><time>2026-03-15T09:05:22.000Z</time></trkpt>
<trkpt lat="41.723904" lon="23.499618"><ele>2728.7</ele><time>2026-03-15T09:05:23.000Z</time></trkpt>
<trkpt lat="41.723907" lon="23.499611"><ele>2728.7</ele><time>2026-03-15T09:05:24.000Z</time></trkpt>
<trkpt lat="41.723909" lon="23.499604"><ele>2728.7</ele><time>2026-03-15T09:05:25.000Z</time></trkpt>
<trkpt lat="41.723912" lon="23.499596"><ele>2729.2</ele><time>2026-03-15T09:05:26.000Z</time></trkpt>
<trkpt lat="41.723913" lon="23.49959"><ele>2729.2</ele><time>2026-03-15T09:05:27.000Z</time></trkpt>
<trkpt lat="41.723916" lon="23.499582"><ele>2729.2</ele><time>2026-03-15T09:05:28.000Z</time></trkpt>
<trkpt lat="41.723918" lon="23.499574"><ele>2729.2</ele><time>2026-03-15T09:05:29.000Z</time></trkpt>
<trkpt lat="41.72392" lon="23.499566"><ele>2729.2</ele><time>2026-03-15T09:05:30.000Z</time></trkpt>
<trkpt lat="41.723923" lon="23.499558"><ele>2730.4</ele><time>2026-03-15T09:05:31.000Z</time></trkpt>
<trkpt lat="41.723926" lon="23.499551"><ele>2730.4</ele><time>2026-03-15T09:05:32.000Z</time></trkpt>
<trkpt lat="41.723928" lon="23.499544"><ele>2730.4</ele><time>2026-03-15T09:05:33.000Z</time></trkpt>
<trkpt lat="41.72393" lon="23.499538"><ele>2730.4</ele><time>2026-03-15T09:05:34.000Z</time></trkpt>
<trkpt lat="41.723932" lon="23.499533"><ele>2730.4</ele><time>2026-03-15T09:05:35.000Z</time></trkpt>
<trkpt lat="41.723933" lon="23.499528"><ele>2731.3</ele><time>2026-03-15T09:05:36.000Z</time></trkpt>
<trkpt lat="41.723935" lon="23.499521"><ele>2731.3</ele><time>2026-03-15T09:05:37.000Z</time></trkpt>
<trkpt lat="41.723936" lon="23.499515"><ele>2731.3</ele><time>2026-03-15T09:05:38.000Z</time></trkpt>
<trkpt lat="41.723937" lon="23.499507"><ele>2731.3</ele><time>2026-03-15T09:05:39.000Z</time></trkpt>
<trkpt lat="41.723938" lon="23.499497"><ele>2731.3</ele><time>2026-03-15T09:05:40.000Z</time></trkpt>
<trkpt lat="41.723938" lon="23.499486"><ele>2731.8</ele><time>2026-03-15T09:05:41.000Z</time></trkpt>
<trkpt lat="41.723938" lon="23.499474"><ele>2731.8</ele><time>2026-03-15T09:05:42.000Z</time></trkpt>
<trkpt lat="41.723938" lon="23.499462"><ele>2731.8</ele><time>2026-03-15T09:05:43.000Z</time></trkpt>
<trkpt lat="41.723938" lon="23.49945"><ele>2731.8</ele><time>2026-03-15T09:05:44.000Z</time></trkpt>
<trkpt lat="41.723939" lon="23.499439"><ele>2731.8</ele><time>2026-03-15T09:05:45.000Z</time></trkpt>
<trkpt lat="41.72394" lon="23.499429"><ele>2732.6</ele><time>2026-03-15T09:05:46.000Z</time></trkpt>
<trkpt lat="41.72394" lon="23.499418"><ele>2732.6</ele><time>2026-03-15T09:05:47.000Z</time></trkpt>
<trkpt lat="41.72394" lon="23.499408"><ele>2732.6</ele><time>2026-03-15T09:05:48.000Z</time></trkpt>
<trkpt lat="41.723941" lon="23.499397"><ele>2732.6</ele><time>2026-03-15T09:05:49.000Z</time></trkpt>
<trkpt lat="41.723941" lon="23.499387"><ele>2732.6</ele><time>2026-03-15T09:05:50.000Z</time></trkpt>
<trkpt lat="41.723942" lon="23.499378"><ele>2733.5</ele><time>2026-03-15T09:05:51.000Z</time></trkpt>
<trkpt lat="41.723942" lon="23.499368"><ele>2733.5</ele><time>2026-03-15T09:05:52.000Z</time></trkpt>
<trkpt lat="41.723943" lon="23.499359"><ele>2733.5</ele><time>2026-03-15T09:05:53.000Z</time></trkpt>
<trkpt lat="41.723943" lon="23.499351"><ele>2733.5</ele><time>2026-03-15T09:05:54.000Z</time></trkpt>
<trkpt lat="41.723943" lon="23.499343"><ele>2733.5</ele><time>2026-03-15T09:05:55.000Z</time></trkpt>
<trkpt lat="41.723943" lon="23.499335"><ele>2734</ele><time>2026-03-15T09:05:56.000Z</time></trkpt>
<trkpt lat="41.723944" lon="23.499328"><ele>2734</ele><time>2026-03-15T09:05:57.000Z</time></trkpt>
<trkpt lat="41.723945" lon="23.499321"><ele>2734</ele><time>2026-03-15T09:05:58.000Z</time></trkpt>
<trkpt lat="41.723946" lon="23.499314"><ele>2734</ele><time>2026-03-15T09:05:59.000Z</time></trkpt>
<trkpt lat="41.723947" lon="23.499305"><ele>2734</ele><time>2026-03-15T09:06:00.000Z</time></trkpt>
<trkpt lat="41.723947" lon="23.499297"><ele>2734.5</ele><time>2026-03-15T09:06:01.000Z</time></trkpt>
<trkpt lat="41.723948" lon="23.499289"><ele>2734.5</ele><time>2026-03-15T09:06:02.000Z</time></trkpt>
<trkpt lat="41.723949" lon="23.499281"><ele>2734.5</ele><time>2026-03-15T09:06:03.000Z</time></trkpt>
<trkpt lat="41.723949" lon="23.499274"><ele>2734.5</ele><time>2026-03-15T09:06:04.000Z</time></trkpt>
<trkpt lat="41.72395" lon="23.499268"><ele>2734.5</ele><time>2026-03-15T09:06:05.000Z</time></trkpt>
<trkpt lat="41.72395" lon="23.499264"><ele>2734.9</ele><time>2026-03-15T09:06:06.000Z</time></trkpt>
<trkpt lat="41.72395" lon="23.499261"><ele>2734.9</ele><time>2026-03-15T09:06:07.000Z</time></trkpt>
<trkpt lat="41.723949" lon="23.49926"><ele>2734.9</ele><time>2026-03-15T09:06:08.000Z</time></trkpt>
<trkpt lat="41.723949" lon="23.499259"><ele>2734.9</ele><time>2026-03-15T09:06:09.000Z</time></trkpt>
<trkpt lat="41.723948" lon="23.499259"><ele>2734.9</ele><time>2026-03-15T09:06:10.000Z</time></trkpt>
<trkpt lat="41.723947" lon="23.499259"><ele>2735.2</ele><time>2026-03-15T09:06:11.000Z</time></trkpt>
<trkpt lat="41.723946" lon="23.499259"><ele>2735.2</ele><time>2026-03-15T09:06:12.000Z</time></trkpt>
<trkpt lat="41.723945" lon="23.499258"><ele>2735.2</ele><time>2026-03-15T09:06:13.000Z</time></trkpt>
<trkpt lat="41.723944" lon="23.499257"><ele>2735.2</ele><time>2026-03-15T09:06:14.000Z</time></trkpt>
<trkpt lat="41.723944" lon="23.499256"><ele>2735.2</ele><time>2026-03-15T09:06:15.000Z</time></trkpt>
<trkpt lat="41.723943" lon="23.499256"><ele>2735.8</ele><time>2026-03-15T09:06:16.000Z</time></trkpt>
<trkpt lat="41.723943" lon="23.499256"><ele>2735.8</ele><time>2026-03-15T09:06:17.000Z</time></trkpt>
<trkpt lat="41.723943" lon="23.499256"><ele>2735.8</ele><time>2026-03-15T09:06:18.000Z</time></trkpt>
<trkpt lat="41.723942" lon="23.499255"><ele>2735.8</ele><time>2026-03-15T09:06:19.000Z</time></trkpt>
<trkpt lat="41.723942" lon="23.499255"><ele>2735.8</ele><time>2026-03-15T09:06:20.000Z</time></trkpt>
<trkpt lat="41.723942" lon="23.499256"><ele>2736.3</ele><time>2026-03-15T09:06:21.000Z</time></trkpt>
<trkpt lat="41.723942" lon="23.499256"><ele>2736.3</ele><time>2026-03-15T09:06:22.000Z</time></trkpt>
<trkpt lat="41.723943" lon="23.499256"><ele>2736.3</ele><time>2026-03-15T09:06:23.000Z</time></trkpt>
<trkpt lat="41.723943" lon="23.499256"><ele>2736.3</ele><time>2026-03-15T09:06:24.000Z</time></trkpt>
<trkpt lat="41.723943" lon="23.499256"><ele>2736.3</ele><time>2026-03-15T09:06:25.000Z</time></trkpt>
<trkpt lat="41.723943" lon="23.499256"><ele>2736.4</ele><time>2026-03-15T09:06:26.000Z</time></trkpt>
<trkpt lat="41.723943" lon="23.499256"><ele>2736.4</ele><time>2026-03-15T09:06:27.000Z</time></trkpt>
<trkpt lat="41.723943" lon="23.499256"><ele>2736.4</ele><time>2026-03-15T09:06:28.000Z</time></trkpt>
<trkpt lat="41.723943" lon="23.499257"><ele>2736.4</ele><time>2026-03-15T09:06:29.000Z</time></trkpt>
<trkpt lat="41.723944" lon="23.499257"><ele>2736.4</ele><time>2026-03-15T09:06:30.000Z</time></trkpt>
<trkpt lat="41.723945" lon="23.499258"><ele>2736.5</ele><time>2026-03-15T09:06:31.000Z</time></trkpt>
<trkpt lat="41.723945" lon="23.499258"><ele>2736.5</ele><time>2026-03-15T09:06:32.000Z</time></trkpt>
<trkpt lat="41.723945" lon="23.49926"><ele>2736.5</ele><time>2026-03-15T09:06:33.000Z</time></trkpt>
<trkpt lat="41.723945" lon="23.499261"><ele>2736.5</ele><time>2026-03-15T09:06:34.000Z</time></trkpt>
<trkpt lat="41.723946" lon="23.499262"><ele>2736.5</ele><time>2026-03-15T09:06:35.000Z</time></trkpt>
<trkpt lat="41.723946" lon="23.499263"><ele>2736.5</ele><time>2026-03-15T09:06:36.000Z</time></trkpt>
<trkpt lat="41.723946" lon="23.499263"><ele>2736.5</ele><time>2026-03-15T09:06:37.000Z</time></trkpt>
<trkpt lat="41.723947" lon="23.499263"><ele>2736.5</ele><time>2026-03-15T09:06:38.000Z</time></trkpt>
<trkpt lat="41.723947" lon="23.499262"><ele>2736.5</ele><time>2026-03-15T09:06:39.000Z</time></trkpt>
<trkpt lat="41.723947" lon="23.49926"><ele>2736.5</ele><time>2026-03-15T09:06:40.000Z</time></trkpt>
<trkpt lat="41.723947" lon="23.499259"><ele>2736.5</ele><time>2026-03-15T09:06:41.000Z</time></trkpt>
<trkpt lat="41.723948" lon="23.499257"><ele>2736.5</ele><time>2026-03-15T09:06:42.000Z</time></trkpt>
<trkpt lat="41.723948" lon="23.499256"><ele>2736.5</ele><time>2026-03-15T09:06:43.000Z</time></trkpt>
<trkpt lat="41.723948" lon="23.499255"><ele>2736.5</ele><time>2026-03-15T09:06:44.000Z</time></trkpt>
<trkpt lat="41.723947" lon="23.499255"><ele>2736.5</ele><time>2026-03-15T09:06:45.000Z</time></trkpt>
<trkpt lat="41.723945" lon="23.499255"><ele>2736.6</ele><time>2026-03-15T09:06:46.000Z</time></trkpt>
<trkpt lat="41.723944" lon="23.499254"><ele>2736.6</ele><time>2026-03-15T09:06:47.000Z</time></trkpt>
<trkpt lat="41.723943" lon="23.499253"><ele>2736.6</ele><time>2026-03-15T09:06:48.000Z</time></trkpt>
<trkpt lat="41.723942" lon="23.499252"><ele>2736.6</ele><time>2026-03-15T09:06:49.000Z</time></trkpt>
<trkpt lat="41.723941" lon="23.499251"><ele>2736.6</ele><time>2026-03-15T09:06:50.000Z</time></trkpt>
<trkpt lat="41.723941" lon="23.499251"><ele>2736.6</ele><time>2026-03-15T09:06:51.000Z</time></trkpt>
<trkpt lat="41.723942" lon="23.499251"><ele>2736.6</ele><time>2026-03-15T09:06:52.000Z</time></trkpt>
<trkpt lat="41.723942" lon="23.499251"><ele>2736.6</ele><time>2026-03-15T09:06:53.000Z</time></trkpt>
<trkpt lat="41.723944" lon="23.499252"><ele>2736.6</ele><time>2026-03-15T09:06:54.000Z</time></trkpt>
<trkpt lat="41.723946" lon="23.499253"><ele>2736.6</ele><time>2026-03-15T09:06:55.000Z</time></trkpt>
<trkpt lat="41.723947" lon="23.499253"><ele>2736.6</ele><time>2026-03-15T09:06:56.000Z</time></trkpt>
<trkpt lat="41.723948" lon="23.499255"><ele>2736.6</ele><time>2026-03-15T09:06:57.000Z</time></trkpt>
<trkpt lat="41.723949" lon="23.499257"><ele>2736.6</ele><time>2026-03-15T09:06:58.000Z</time></trkpt>
<trkpt lat="41.723949" lon="23.499258"><ele>2736.6</ele><time>2026-03-15T09:06:59.000Z</time></trkpt>
<trkpt lat="41.723949" lon="23.49926"><ele>2736.6</ele><time>2026-03-15T09:07:00.000Z</time></trkpt>
<trkpt lat="41.723949" lon="23.499262"><ele>2736.5</ele><time>2026-03-15T09:07:01.000Z</time></trkpt>
<trkpt lat="41.723949" lon="23.499264"><ele>2736.5</ele><time>2026-03-15T09:07:02.000Z</time></trkpt>
<trkpt lat="41.723949" lon="23.499265"><ele>2736.5</ele><time>2026-03-15T09:07:03.000Z</time></trkpt>
<trkpt lat="41.723949" lon="23.499266"><ele>2736.5</ele><time>2026-03-15T09:07:04.000Z</time></trkpt>
<trkpt lat="41.723948" lon="23.499267"><ele>2736.5</ele><time>2026-03-15T09:07:05.000Z</time></trkpt>
<trkpt lat="41.723948" lon="23.499267"><ele>2736.4</ele><time>2026-03-15T09:07:06.000Z</time></trkpt>
<trkpt lat="41.723948" lon="23.499266"><ele>2736.4</ele><time>2026-03-15T09:07:07.000Z</time></trkpt>
<trkpt lat="41.723948" lon="23.499264"><ele>2736.4</ele><time>2026-03-15T09:07:08.000Z</time></trkpt>
<trkpt lat="41.723948" lon="23.499262"><ele>2736.4</ele><time>2026-03-15T09:07:09.000Z</time></trkpt>
<trkpt lat="41.723948" lon="23.499261"><ele>2736.4</ele><time>2026-03-15T09:07:10.000Z</time></trkpt>
<trkpt lat="41.723948" lon="23.499259"><ele>2736.4</ele><time>2026-03-15T09:07:11.000Z</time></trkpt>
<trkpt lat="41.723948" lon="23.499259"><ele>2736.4</ele><time>2026-03-15T09:07:12.000Z</time></trkpt>
<trkpt lat="41.723948" lon="23.499259"><ele>2736.4</ele><time>2026-03-15T09:07:13.000Z</time></trkpt>
<trkpt lat="41.723949" lon="23.499259"><ele>2736.4</ele><time>2026-03-15T09:07:14.000Z</time></trkpt>
<trkpt lat="41.723949" lon="23.499259"><ele>2736.4</ele><time>2026-03-15T09:07:15.000Z</time></trkpt>
<trkpt lat="41.72395" lon="23.499259"><ele>2736.4</ele><time>2026-03-15T09:07:16.000Z</time></trkpt>
<trkpt lat="41.72395" lon="23.499259"><ele>2736.4</ele><time>2026-03-15T09:07:17.000Z</time></trkpt>
<trkpt lat="41.72395" lon="23.499259"><ele>2736.4</ele><time>2026-03-15T09:07:18.000Z</time></trkpt>
<trkpt lat="41.72395" lon="23.499259"><ele>2736.4</ele><time>2026-03-15T09:07:19.000Z</time></trkpt>
<trkpt lat="41.72395" lon="23.499259"><ele>2736.4</ele><time>2026-03-15T09:07:20.000Z</time></trkpt>
<trkpt lat="41.72395" lon="23.499259"><ele>2736.3</ele><time>2026-03-15T09:07:21.000Z</time></trkpt>
<trkpt lat="41.72395" lon="23.499259"><ele>2736.3</ele><time>2026-03-15T09:07:22.000Z</time></trkpt>
<trkpt lat="41.72395" lon="23.499258"><ele>2736.3</ele><time>2026-03-15T09:07:23.000Z</time></trkpt>
<trkpt lat="41.72395" lon="23.499257"><ele>2736.3</ele><time>2026-03-15T09:07:24.000Z</time></trkpt>
<trkpt lat="41.72395" lon="23.499256"><ele>2736.3</ele><time>2026-03-15T09:07:25.000Z</time></trkpt>
<trkpt lat="41.72395" lon="23.499255"><ele>2736.2</ele><time>2026-03-15T09:07:26.000Z</time></trkpt>
<trkpt lat="41.72395" lon="23.499254"><ele>2736.2</ele><time>2026-03-15T09:07:27.000Z</time></trkpt>
<trkpt lat="41.72395" lon="23.499254"><ele>2736.2</ele><time>2026-03-15T09:07:28.000Z</time></trkpt>
<trkpt lat="41.72395" lon="23.499254"><ele>2736.2</ele><time>2026-03-15T09:07:29.000Z</time></trkpt>
<trkpt lat="41.72395" lon="23.499254"><ele>2736.2</ele><time>2026-03-15T09:07:30.000Z</time></trkpt>
<trkpt lat="41.72395" lon="23.499254"><ele>2735.9</ele><time>2026-03-15T09:07:31.000Z</time></trkpt>
<trkpt lat="41.72395" lon="23.499254"><ele>2735.9</ele><time>2026-03-15T09:07:32.000Z</time></trkpt>
<trkpt lat="41.72395" lon="23.499254"><ele>2735.9</ele><time>2026-03-15T09:07:33.000Z</time></trkpt>
<trkpt lat="41.72395" lon="23.499254"><ele>2735.9</ele><time>2026-03-15T09:07:34.000Z</time></trkpt>
<trkpt lat="41.72395" lon="23.499254"><ele>2735.9</ele><time>2026-03-15T09:07:35.000Z</time></trkpt>
<trkpt lat="41.72395" lon="23.499254"><ele>2735.8</ele><time>2026-03-15T09:07:36.000Z</time></trkpt>
<trkpt lat="41.72395" lon="23.499254"><ele>2735.8</ele><time>2026-03-15T09:07:37.000Z</time></trkpt>
<trkpt lat="41.72395" lon="23.499254"><ele>2735.8</ele><time>2026-03-15T09:07:38.000Z</time></trkpt>
<trkpt lat="41.72395" lon="23.499254"><ele>2735.8</ele><time>2026-03-15T09:07:39.000Z</time></trkpt>
<trkpt lat="41.72395" lon="23.499255"><ele>2735.8</ele><time>2026-03-15T09:07:40.000Z</time></trkpt>
<trkpt lat="41.723949" lon="23.499256"><ele>2735.7</ele><time>2026-03-15T09:07:41.000Z</time></trkpt>
<trkpt lat="41.723949" lon="23.499257"><ele>2735.7</ele><time>2026-03-15T09:07:42.000Z</time></trkpt>
<trkpt lat="41.723948" lon="23.499258"><ele>2735.7</ele><time>2026-03-15T09:07:43.000Z</time></trkpt>
<trkpt lat="41.723948" lon="23.499259"><ele>2735.7</ele><time>2026-03-15T09:07:44.000Z</time></trkpt>
<trkpt lat="41.723948" lon="23.49926"><ele>2735.7</ele><time>2026-03-15T09:07:45.000Z</time></trkpt>
<trkpt lat="41.723947" lon="23.49926"><ele>2735.7</ele><time>2026-03-15T09:07:46.000Z</time></trkpt>
<trkpt lat="41.723947" lon="23.49926"><ele>2735.7</ele><time>2026-03-15T09:07:47.000Z</time></trkpt>
<trkpt lat="41.723947" lon="23.49926"><ele>2735.7</ele><time>2026-03-15T09:07:48.000Z</time></trkpt>
<trkpt lat="41.723947" lon="23.49926"><ele>2735.7</ele><time>2026-03-15T09:07:49.000Z</time></trkpt>
<trkpt lat="41.723947" lon="23.49926"><ele>2735.7</ele><time>2026-03-15T09:07:50.000Z</time></trkpt>
<trkpt lat="41.723947" lon="23.49926"><ele>2735.7</ele><time>2026-03-15T09:07:51.000Z</time></trkpt>
<trkpt lat="41.723947" lon="23.49926"><ele>2735.7</ele><time>2026-03-15T09:07:52.000Z</time></trkpt>
<trkpt lat="41.723947" lon="23.49926"><ele>2735.7</ele><time>2026-03-15T09:07:53.000Z</time></trkpt>
<trkpt lat="41.723946" lon="23.499259"><ele>2735.7</ele><time>2026-03-15T09:07:54.000Z</time></trkpt>
<trkpt lat="41.723946" lon="23.499259"><ele>2735.7</ele><time>2026-03-15T09:07:55.000Z</time></trkpt>
<trkpt lat="41.723945" lon="23.499259"><ele>2735.7</ele><time>2026-03-15T09:07:56.000Z</time></trkpt>
<trkpt lat="41.723945" lon="23.499258"><ele>2735.7</ele><time>2026-03-15T09:07:57.000Z</time></trkpt>
<trkpt lat="41.723945" lon="23.499259"><ele>2735.7</ele><time>2026-03-15T09:07:58.000Z</time></trkpt>
<trkpt lat="41.723945" lon="23.499259"><ele>2735.7</ele><time>2026-03-15T09:07:59.000Z</time></trkpt>
<trkpt lat="41.723946" lon="23.499259"><ele>2735.7</ele><time>2026-03-15T09:08:00.000Z</time></trkpt>
<trkpt lat="41.723946" lon="23.499259"><ele>2735.7</ele><time>2026-03-15T09:08:01.000Z</time></trkpt>
<trkpt lat="41.723946" lon="23.499259"><ele>2735.7</ele><time>2026-03-15T09:08:02.000Z</time></trkpt>
<trkpt lat="41.723946" lon="23.499259"><ele>2735.7</ele><time>2026-03-15T09:08:03.000Z</time></trkpt>
<trkpt lat="41.723946" lon="23.499259"><ele>2735.7</ele><time>2026-03-15T09:08:04.000Z</time></trkpt>
<trkpt lat="41.723946" lon="23.499259"><ele>2735.7</ele><time>2026-03-15T09:08:05.000Z</time></trkpt>
<trkpt lat="41.723946" lon="23.499259"><ele>2735.6</ele><time>2026-03-15T09:08:06.000Z</time></trkpt>
<trkpt lat="41.723946" lon="23.499259"><ele>2735.6</ele><time>2026-03-15T09:08:07.000Z</time></trkpt>
<trkpt lat="41.723946" lon="23.499259"><ele>2735.6</ele><time>2026-03-15T09:08:08.000Z</time></trkpt>
<trkpt lat="41.723946" lon="23.499259"><ele>2735.6</ele><time>2026-03-15T09:08:09.000Z</time></trkpt>
<trkpt lat="41.723946" lon="23.499259"><ele>2735.6</ele><time>2026-03-15T09:08:10.000Z</time></trkpt>
<trkpt lat="41.723947" lon="23.499259"><ele>2735.5</ele><time>2026-03-15T09:08:11.000Z</time></trkpt>
<trkpt lat="41.723947" lon="23.49926"><ele>2735.5</ele><time>2026-03-15T09:08:12.000Z</time></trkpt>
<trkpt lat="41.723948" lon="23.499259"><ele>2735.5</ele><time>2026-03-15T09:08:13.000Z</time></trkpt>
<trkpt lat="41.723948" lon="23.499259"><ele>2735.5</ele><time>2026-03-15T09:08:14.000Z</time></trkpt>
<trkpt lat="41.723948" lon="23.499258"><ele>2735.5</ele><time>2026-03-15T09:08:15.000Z</time></trkpt>
<trkpt lat="41.723947" lon="23.499256"><ele>2735.6</ele><time>2026-03-15T09:08:16.000Z</time></trkpt>
<trkpt lat="41.723947" lon="23.499255"><ele>2735.6</ele><time>2026-03-15T09:08:17.000Z</time></trkpt>
<trkpt lat="41.723946" lon="23.499254"><ele>2735.6</ele><time>2026-03-15T09:08:18.000Z</time></trkpt>
<trkpt lat="41.723946" lon="23.499253"><ele>2735.6</ele><time>2026-03-15T09:08:19.000Z</time></trkpt>
<trkpt lat="41.723946" lon="23.499252"><ele>2735.6</ele><time>2026-03-15T09:08:20.000Z</time></trkpt>
<trkpt lat="41.723946" lon="23.49925"><ele>2735.8</ele><time>2026-03-15T09:08:21.000Z</time></trkpt>
<trkpt lat="41.723946" lon="23.499249"><ele>2735.8</ele><time>2026-03-15T09:08:22.000Z</time></trkpt>
<trkpt lat="41.723947" lon="23.499247"><ele>2735.8</ele><time>2026-03-15T09:08:23.000Z</time></trkpt>
<trkpt lat="41.723947" lon="23.499247"><ele>2735.8</ele><time>2026-03-15T09:08:24.000Z</time></trkpt>
<trkpt lat="41.723947" lon="23.499246"><ele>2735.8</ele><time>2026-03-15T09:08:25.000Z</time></trkpt>
<trkpt lat="41.723947" lon="23.499246"><ele>2735.9</ele><time>2026-03-15T09:08:26.000Z</time></trkpt>
<trkpt lat="41.723947" lon="23.499245"><ele>2735.9</ele><time>2026-03-15T09:08:27.000Z</time></trkpt>
<trkpt lat="41.723948" lon="23.499245"><ele>2735.9</ele><time>2026-03-15T09:08:28.000Z</time></trkpt>
<trkpt lat="41.723948" lon="23.499244"><ele>2735.9</ele><time>2026-03-15T09:08:29.000Z</time></trkpt>
<trkpt lat="41.723949" lon="23.499244"><ele>2735.9</ele><time>2026-03-15T09:08:30.000Z</time></trkpt>
<trkpt lat="41.723949" lon="23.499243"><ele>2736</ele><time>2026-03-15T09:08:31.000Z</time></trkpt>
<trkpt lat="41.723949" lon="23.499243"><ele>2736</ele><time>2026-03-15T09:08:32.000Z</time></trkpt>
<trkpt lat="41.723949" lon="23.499243"><ele>2736</ele><time>2026-03-15T09:08:33.000Z</time></trkpt>
<trkpt lat="41.72395" lon="23.499243"><ele>2736</ele><time>2026-03-15T09:08:34.000Z</time></trkpt>
<trkpt lat="41.723951" lon="23.499243"><ele>2736</ele><time>2026-03-15T09:08:35.000Z</time></trkpt>
<trkpt lat="41.723953" lon="23.499244"><ele>2736.1</ele><time>2026-03-15T09:08:36.000Z</time></trkpt>
<trkpt lat="41.723954" lon="23.499245"><ele>2736.1</ele><time>2026-03-15T09:08:37.000Z</time></trkpt>
<trkpt lat="41.723954" lon="23.499247"><ele>2736.1</ele><time>2026-03-15T09:08:38.000Z</time></trkpt>
<trkpt lat="41.723953" lon="23.499249"><ele>2736.1</ele><time>2026-03-15T09:08:39.000Z</time></trkpt>
<trkpt lat="41.723952" lon="23.499251"><ele>2736.1</ele><time>2026-03-15T09:08:40.000Z</time></trkpt>
<trkpt lat="41.723951" lon="23.499252"><ele>2736.1</ele><time>2026-03-15T09:08:41.000Z</time></trkpt>
<trkpt lat="41.72395" lon="23.499253"><ele>2736.1</ele><time>2026-03-15T09:08:42.000Z</time></trkpt>
<trkpt lat="41.72395" lon="23.499253"><ele>2736.1</ele><time>2026-03-15T09:08:43.000Z</time></trkpt>
<trkpt lat="41.723951" lon="23.499253"><ele>2736.1</ele><time>2026-03-15T09:08:44.000Z</time></trkpt>
<trkpt lat="41.723951" lon="23.499253"><ele>2736.1</ele><time>2026-03-15T09:08:45.000Z</time></trkpt>
<trkpt lat="41.723951" lon="23.499253"><ele>2736.2</ele><time>2026-03-15T09:08:46.000Z</time></trkpt>
<trkpt lat="41.72395" lon="23.499251"><ele>2736.2</ele><time>2026-03-15T09:08:47.000Z</time></trkpt>
<trkpt lat="41.723949" lon="23.499248"><ele>2736.2</ele><time>2026-03-15T09:08:48.000Z</time></trkpt>
<trkpt lat="41.723948" lon="23.499246"><ele>2736.2</ele><time>2026-03-15T09:08:49.000Z</time></trkpt>
<trkpt lat="41.723948" lon="23.499243"><ele>2736.2</ele><time>2026-03-15T09:08:50.000Z</time></trkpt>
<trkpt lat="41.723947" lon="23.49924"><ele>2736.1</ele><time>2026-03-15T09:08:51.000Z</time></trkpt>
<trkpt lat="41.723947" lon="23.499238"><ele>2736.1</ele><time>2026-03-15T09:08:52.000Z</time></trkpt>
<trkpt lat="41.723946" lon="23.499237"><ele>2736.1</ele><time>2026-03-15T09:08:53.000Z</time></trkpt>
<trkpt lat="41.723945" lon="23.499236"><ele>2736.1</ele><time>2026-03-15T09:08:54.000Z</time></trkpt>
<trkpt lat="41.723943" lon="23.499234"><ele>2736.1</ele><time>2026-03-15T09:08:55.000Z</time></trkpt>
<trkpt lat="41.723942" lon="23.499234"><ele>2736.1</ele><time>2026-03-15T09:08:56.000Z</time></trkpt>
<trkpt lat="41.723942" lon="23.499235"><ele>2736.1</ele><time>2026-03-15T09:08:57.000Z</time></trkpt>
<trkpt lat="41.723942" lon="23.499235"><ele>2736.1</ele><time>2026-03-15T09:08:58.000Z</time></trkpt>
<trkpt lat="41.723942" lon="23.499235"><ele>2736.1</ele><time>2026-03-15T09:08:59.000Z</time></trkpt>
<trkpt lat="41.723942" lon="23.499236"><ele>2736.1</ele><time>2026-03-15T09:09:00.000Z</time></trkpt>
<trkpt lat="41.723942" lon="23.499235"><ele>2736</ele><time>2026-03-15T09:09:01.000Z</time></trkpt>
<trkpt lat="41.723941" lon="23.499234"><ele>2736</ele><time>2026-03-15T09:09:02.000Z</time></trkpt>
<trkpt lat="41.723941" lon="23.499233"><ele>2736</ele><time>2026-03-15T09:09:03.000Z</time></trkpt>
<trkpt lat="41.723941" lon="23.499232"><ele>2736</ele><time>2026-03-15T09:09:04.000Z</time></trkpt>
<trkpt lat="41.723942" lon="23.499229"><ele>2736</ele><time>2026-03-15T09:09:05.000Z</time></trkpt>
<trkpt lat="41.723944" lon="23.499225"><ele>2735.9</ele><time>2026-03-15T09:09:06.000Z</time></trkpt>
<trkpt lat="41.723946" lon="23.499218"><ele>2735.9</ele><time>2026-03-15T09:09:07.000Z</time></trkpt>
<trkpt lat="41.723948" lon="23.49921"><ele>2735.9</ele><time>2026-03-15T09:09:08.000Z</time></trkpt>
<trkpt lat="41.723951" lon="23.499199"><ele>2735.9</ele><time>2026-03-15T09:09:09.000Z</time></trkpt>
<trkpt lat="41.723954" lon="23.499189"><ele>2735.9</ele><time>2026-03-15T09:09:10.000Z</time></trkpt>
<trkpt lat="41.723957" lon="23.49918"><ele>2736</ele><time>2026-03-15T09:09:11.000Z</time></trkpt>
<trkpt lat="41.723959" lon="23.49917"><ele>2736</ele><time>2026-03-15T09:09:12.000Z</time></trkpt>
<trkpt lat="41.723962" lon="23.499161"><ele>2736</ele><time>2026-03-15T09:09:13.000Z</time></trkpt>
<trkpt lat="41.723963" lon="23.499151"><ele>2736</ele><time>2026-03-15T09:09:14.000Z</time></trkpt>
<trkpt lat="41.723965" lon="23.499141"><ele>2736</ele><time>2026-03-15T09:09:15.000Z</time></trkpt>
<trkpt lat="41.723965" lon="23.499131"><ele>2736.1</ele><time>2026-03-15T09:09:16.000Z</time></trkpt>
<trkpt lat="41.723966" lon="23.499121"><ele>2736.1</ele><time>2026-03-15T09:09:17.000Z</time></trkpt>
<trkpt lat="41.723967" lon="23.499112"><ele>2736.1</ele><time>2026-03-15T09:09:18.000Z</time></trkpt>
<trkpt lat="41.723967" lon="23.499103"><ele>2736.1</ele><time>2026-03-15T09:09:19.000Z</time></trkpt>
<trkpt lat="41.723967" lon="23.499094"><ele>2736.1</ele><time>2026-03-15T09:09:20.000Z</time></trkpt>
<trkpt lat="41.723968" lon="23.499085"><ele>2736.7</ele><time>2026-03-15T09:09:21.000Z</time></trkpt>
<trkpt lat="41.723969" lon="23.499077"><ele>2736.7</ele><time>2026-03-15T09:09:22.000Z</time></trkpt>
<trkpt lat="41.723971" lon="23.499068"><ele>2736.7</ele><time>2026-03-15T09:09:23.000Z</time></trkpt>
<trkpt lat="41.723973" lon="23.49906"><ele>2736.7</ele><time>2026-03-15T09:09:24.000Z</time></trkpt>
<trkpt lat="41.723975" lon="23.499052"><ele>2736.7</ele><time>2026-03-15T09:09:25.000Z</time></trkpt>
<trkpt lat="41.723977" lon="23.499044"><ele>2737.3</ele><time>2026-03-15T09:09:26.000Z</time></trkpt>
<trkpt lat="41.723979" lon="23.499037"><ele>2737.3</ele><time>2026-03-15T09:09:27.000Z</time></trkpt>
<trkpt lat="41.723981" lon="23.499031"><ele>2737.3</ele><time>2026-03-15T09:09:28.000Z</time></trkpt>
<trkpt lat="41.723984" lon="23.499024"><ele>2737.3</ele><time>2026-03-15T09:09:29.000Z</time></trkpt>
<trkpt lat="41.723987" lon="23.499018"><ele>2737.3</ele><time>2026-03-15T09:09:30.000Z</time></trkpt>
<trkpt lat="41.723989" lon="23.499011"><ele>2738.4</ele><time>2026-03-15T09:09:31.000Z</time></trkpt>
<trkpt lat="41.723992" lon="23.499005"><ele>2738.4</ele><time>2026-03-15T09:09:32.000Z</time></trkpt>
<trkpt lat="41.723994" lon="23.498998"><ele>2738.4</ele><time>2026-03-15T09:09:33.000Z</time></trkpt>
<trkpt lat="41.723996" lon="23.498991"><ele>2738.4</ele><time>2026-03-15T09:09:34.000Z</time></trkpt>
<trkpt lat="41.723998" lon="23.498984"><ele>2738.4</ele><time>2026-03-15T09:09:35.000Z</time></trkpt>
<trkpt lat="41.724" lon="23.498977"><ele>2739.6</ele><time>2026-03-15T09:09:36.000Z</time></trkpt>
<trkpt lat="41.724001" lon="23.49897"><ele>2739.6</ele><time>2026-03-15T09:09:37.000Z</time></trkpt>
<trkpt lat="41.724003" lon="23.498963"><ele>2739.6</ele><time>2026-03-15T09:09:38.000Z</time></trkpt>
<trkpt lat="41.724004" lon="23.498955"><ele>2739.6</ele><time>2026-03-15T09:09:39.000Z</time></trkpt>
<trkpt lat="41.724004" lon="23.498948"><ele>2739.6</ele><time>2026-03-15T09:09:40.000Z</time></trkpt>
<trkpt lat="41.724004" lon="23.498941"><ele>2740.2</ele><time>2026-03-15T09:09:41.000Z</time></trkpt>
<trkpt lat="41.724004" lon="23.498933"><ele>2740.2</ele><time>2026-03-15T09:09:42.000Z</time></trkpt>
<trkpt lat="41.724003" lon="23.498926"><ele>2740.2</ele><time>2026-03-15T09:09:43.000Z</time></trkpt>
<trkpt lat="41.724003" lon="23.49892"><ele>2740.2</ele><time>2026-03-15T09:09:44.000Z</time></trkpt>
<trkpt lat="41.724003" lon="23.498914"><ele>2740.2</ele><time>2026-03-15T09:09:45.000Z</time></trkpt>
<trkpt lat="41.724003" lon="23.498909"><ele>2741.3</ele><time>2026-03-15T09:09:46.000Z</time></trkpt>
<trkpt lat="41.724004" lon="23.498903"><ele>2741.3</ele><time>2026-03-15T09:09:47.000Z</time></trkpt>
<trkpt lat="41.724005" lon="23.498898"><ele>2741.3</ele><time>2026-03-15T09:09:48.000Z</time></trkpt>
<trkpt lat="41.724007" lon="23.498893"><ele>2741.3</ele><time>2026-03-15T09:09:49.000Z</time></trkpt>
<trkpt lat="41.724007" lon="23.498888"><ele>2741.3</ele><time>2026-03-15T09:09:50.000Z</time></trkpt>
<trkpt lat="41.724008" lon="23.498883"><ele>2742.4</ele><time>2026-03-15T09:09:51.000Z</time></trkpt>
<trkpt lat="41.724009" lon="23.498878"><ele>2742.4</ele><time>2026-03-15T09:09:52.000Z</time></trkpt>
<trkpt lat="41.724008" lon="23.498872"><ele>2742.4</ele><time>2026-03-15T09:09:53.000Z</time></trkpt>
<trkpt lat="41.724008" lon="23.498866"><ele>2742.4</ele><time>2026-03-15T09:09:54.000Z</time></trkpt>
<trkpt lat="41.724007" lon="23.49886"><ele>2742.4</ele><time>2026-03-15T09:09:55.000Z</time></trkpt>
<trkpt lat="41.724007" lon="23.498853"><ele>2742.9</ele><time>2026-03-15T09:09:56.000Z</time></trkpt>
<trkpt lat="41.724007" lon="23.498846"><ele>2742.9</ele><time>2026-03-15T09:09:57.000Z</time></trkpt>
<trkpt lat="41.724008" lon="23.498839"><ele>2742.9</ele><time>2026-03-15T09:09:58.000Z</time></trkpt>
<trkpt lat="41.724009" lon="23.498833"><ele>2742.9</ele><time>2026-03-15T09:09:59.000Z</time></trkpt>
<trkpt lat="41.724009" lon="23.498825"><ele>2742.9</ele><time>2026-03-15T09:10:00.000Z</time></trkpt>
<trkpt lat="41.72401" lon="23.498817"><ele>2743.8</ele><time>2026-03-15T09:10:01.000Z</time></trkpt>
<trkpt lat="41.72401" lon="23.49881"><ele>2743.8</ele><time>2026-03-15T09:10:02.000Z</time></trkpt>
<trkpt lat="41.724011" lon="23.498803"><ele>2743.8</ele><time>2026-03-15T09:10:03.000Z</time></trkpt>
<trkpt lat="41.724011" lon="23.498797"><ele>2743.8</ele><time>2026-03-15T09:10:04.000Z</time></trkpt>
<trkpt lat="41.724012" lon="23.498792"><ele>2743.8</ele><time>2026-03-15T09:10:05.000Z</time></trkpt>
<trkpt lat="41.724013" lon="23.498787"><ele>2744.7</ele><time>2026-03-15T09:10:06.000Z</time></trkpt>
<trkpt lat="41.724014" lon="23.498782"><ele>2744.7</ele><time>2026-03-15T09:10:07.000Z</time></trkpt>
<trkpt lat="41.724014" lon="23.498779"><ele>2744.7</ele><time>2026-03-15T09:10:08.000Z</time></trkpt>
<trkpt lat="41.724016" lon="23.498773"><ele>2744.7</ele><time>2026-03-15T09:10:09.000Z</time></trkpt>
<trkpt lat="41.724018" lon="23.498768"><ele>2744.7</ele><time>2026-03-15T09:10:10.000Z</time></trkpt>
<trkpt lat="41.72402" lon="23.498763"><ele>2745</ele><time>2026-03-15T09:10:11.000Z</time></trkpt>
<trkpt lat="41.724021" lon="23.498757"><ele>2745</ele><time>2026-03-15T09:10:12.000Z</time></trkpt>
<trkpt lat="41.724023" lon="23.498751"><ele>2745</ele><time>2026-03-15T09:10:13.000Z</time></trkpt>
<trkpt lat="41.724024" lon="23.498746"><ele>2745</ele><time>2026-03-15T09:10:14.000Z</time></trkpt>
<trkpt lat="41.724025" lon="23.498741"><ele>2745</ele><time>2026-03-15T09:10:15.000Z</time></trkpt>
<trkpt lat="41.724026" lon="23.498737"><ele>2745.8</ele><time>2026-03-15T09:10:16.000Z</time></trkpt>
<trkpt lat="41.724027" lon="23.498733"><ele>2745.8</ele><time>2026-03-15T09:10:17.000Z</time></trkpt>
<trkpt lat="41.724029" lon="23.498728"><ele>2745.8</ele><time>2026-03-15T09:10:18.000Z</time></trkpt>
<trkpt lat="41.724031" lon="23.498725"><ele>2745.8</ele><time>2026-03-15T09:10:19.000Z</time></trkpt>
<trkpt lat="41.724033" lon="23.49872"><ele>2745.8</ele><time>2026-03-15T09:10:20.000Z</time></trkpt>
<trkpt lat="41.724035" lon="23.498716"><ele>2746.7</ele><time>2026-03-15T09:10:21.000Z</time></trkpt>
<trkpt lat="41.724037" lon="23.498713"><ele>2746.7</ele><time>2026-03-15T09:10:22.000Z</time></trkpt>
<trkpt lat="41.724038" lon="23.498709"><ele>2746.7</ele><time>2026-03-15T09:10:23.000Z</time></trkpt>
<trkpt lat="41.724039" lon="23.498705"><ele>2746.7</ele><time>2026-03-15T09:10:24.000Z</time></trkpt>
<trkpt lat="41.724042" lon="23.498701"><ele>2746.7</ele><time>2026-03-15T09:10:25.000Z</time></trkpt>
<trkpt lat="41.724044" lon="23.498698"><ele>2747.2</ele><time>2026-03-15T09:10:26.000Z</time></trkpt>
<trkpt lat="41.724046" lon="23.498693"><ele>2747.2</ele><time>2026-03-15T09:10:27.000Z</time></trkpt>
<trkpt lat="41.724049" lon="23.498688"><ele>2747.2</ele><time>2026-03-15T09:10:28.000Z</time></trkpt>
<trkpt lat="41.724051" lon="23.498682"><ele>2747.2</ele><time>2026-03-15T09:10:29.000Z</time></trkpt>
<trkpt lat="41.724053" lon="23.498677"><ele>2747.2</ele><time>2026-03-15T09:10:30.000Z</time></trkpt>
<trkpt lat="41.724055" lon="23.498671"><ele>2748.2</ele><time>2026-03-15T09:10:31.000Z</time></trkpt>
<trkpt lat="41.724057" lon="23.498667"><ele>2748.2</ele><time>2026-03-15T09:10:32.000Z</time></trkpt>
<trkpt lat="41.724058" lon="23.498662"><ele>2748.2</ele><time>2026-03-15T09:10:33.000Z</time></trkpt>
<trkpt lat="41.724061" lon="23.498658"><ele>2748.2</ele><time>2026-03-15T09:10:34.000Z</time></trkpt>
<trkpt lat="41.724062" lon="23.498654"><ele>2748.2</ele><time>2026-03-15T09:10:35.000Z</time></trkpt>
<trkpt lat="41.724066" lon="23.498649"><ele>2749.3</ele><time>2026-03-15T09:10:36.000Z</time></trkpt>
<trkpt lat="41.724068" lon="23.498646"><ele>2749.3</ele><time>2026-03-15T09:10:37.000Z</time></trkpt>
<trkpt lat="41.724071" lon="23.498642"><ele>2749.3</ele><time>2026-03-15T09:10:38.000Z</time></trkpt>
<trkpt lat="41.724074" lon="23.498639"><ele>2749.3</ele><time>2026-03-15T09:10:39.000Z</time></trkpt>
<trkpt lat="41.724076" lon="23.498635"><ele>2749.3</ele><time>2026-03-15T09:10:40.000Z</time></trkpt>
<trkpt lat="41.724078" lon="23.498632"><ele>2749.8</ele><time>2026-03-15T09:10:41.000Z</time></trkpt>
<trkpt lat="41.724079" lon="23.498628"><ele>2749.8</ele><time>2026-03-15T09:10:42.000Z</time></trkpt>
<trkpt lat="41.72408" lon="23.498625"><ele>2749.8</ele><time>2026-03-15T09:10:43.000Z</time></trkpt>
<trkpt lat="41.724082" lon="23.498621"><ele>2749.8</ele><time>2026-03-15T09:10:44.000Z</time></trkpt>
<trkpt lat="41.724083" lon="23.498618"><ele>2749.8</ele><time>2026-03-15T09:10:45.000Z</time></trkpt>
<trkpt lat="41.724085" lon="23.498613"><ele>2750.9</ele><time>2026-03-15T09:10:46.000Z</time></trkpt>
<trkpt lat="41.724086" lon="23.49861"><ele>2750.9</ele><time>2026-03-15T09:10:47.000Z</time></trkpt>
<trkpt lat="41.724088" lon="23.498607"><ele>2750.9</ele><time>2026-03-15T09:10:48.000Z</time></trkpt>
<trkpt lat="41.724091" lon="23.498604"><ele>2750.9</ele><time>2026-03-15T09:10:49.000Z</time></trkpt>
<trkpt lat="41.724093" lon="23.4986"><ele>2750.9</ele><time>2026-03-15T09:10:50.000Z</time></trkpt>
<trkpt lat="41.724095" lon="23.498597"><ele>2751.9</ele><time>2026-03-15T09:10:51.000Z</time></trkpt>
<trkpt lat="41.724097" lon="23.498593"><ele>2751.9</ele><time>2026-03-15T09:10:52.000Z</time></trkpt>
<trkpt lat="41.724098" lon="23.498589"><ele>2751.9</ele><time>2026-03-15T09:10:53.000Z</time></trkpt>
<trkpt lat="41.724101" lon="23.498585"><ele>2751.9</ele><time>2026-03-15T09:10:54.000Z</time></trkpt>
<trkpt lat="41.724103" lon="23.498582"><ele>2751.9</ele><time>2026-03-15T09:10:55.000Z</time></trkpt>
<trkpt lat="41.724105" lon="23.498578"><ele>2752.3</ele><time>2026-03-15T09:10:56.000Z</time></trkpt>
<trkpt lat="41.724108" lon="23.498574"><ele>2752.3</ele><time>2026-03-15T09:10:57.000Z</time></trkpt>
<trkpt lat="41.72411" lon="23.49857"><ele>2752.3</ele><time>2026-03-15T09:10:58.000Z</time></trkpt>
<trkpt lat="41.724111" lon="23.498567"><ele>2752.3</ele><time>2026-03-15T09:10:59.000Z</time></trkpt>
<trkpt lat="41.724113" lon="23.498563"><ele>2752.3</ele><time>2026-03-15T09:11:00.000Z</time></trkpt>
<trkpt lat="41.724114" lon="23.49856"><ele>2753.3</ele><time>2026-03-15T09:11:01.000Z</time></trkpt>
<trkpt lat="41.724117" lon="23.498557"><ele>2753.3</ele><time>2026-03-15T09:11:02.000Z</time></trkpt>
<trkpt lat="41.72412" lon="23.498554"><ele>2753.3</ele><time>2026-03-15T09:11:03.000Z</time></trkpt>
<trkpt lat="41.724123" lon="23.498552"><ele>2753.3</ele><time>2026-03-15T09:11:04.000Z</time></trkpt>
<trkpt lat="41.724126" lon="23.49855"><ele>2753.3</ele><time>2026-03-15T09:11:05.000Z</time></trkpt>
<trkpt lat="41.724128" lon="23.498546"><ele>2754.3</ele><time>2026-03-15T09:11:06.000Z</time></trkpt>
<trkpt lat="41.724131" lon="23.498542"><ele>2754.3</ele><time>2026-03-15T09:11:07.000Z</time></trkpt>
<trkpt lat="41.724133" lon="23.498538"><ele>2754.3</ele><time>2026-03-15T09:11:08.000Z</time></trkpt>
<trkpt lat="41.724134" lon="23.498533"><ele>2754.3</ele><time>2026-03-15T09:11:09.000Z</time></trkpt>
<trkpt lat="41.724135" lon="23.498527"><ele>2754.3</ele><time>2026-03-15T09:11:10.000Z</time></trkpt>
<trkpt lat="41.724135" lon="23.498523"><ele>2754.8</ele><time>2026-03-15T09:11:11.000Z</time></trkpt>
<trkpt lat="41.724136" lon="23.498519"><ele>2754.8</ele><time>2026-03-15T09:11:12.000Z</time></trkpt>
<trkpt lat="41.724136" lon="23.498514"><ele>2754.8</ele><time>2026-03-15T09:11:13.000Z</time></trkpt>
<trkpt lat="41.724137" lon="23.498511"><ele>2754.8</ele><time>2026-03-15T09:11:14.000Z</time></trkpt>
<trkpt lat="41.724138" lon="23.498507"><ele>2754.8</ele><time>2026-03-15T09:11:15.000Z</time></trkpt>
<trkpt lat="41.72414" lon="23.498504"><ele>2755.6</ele><time>2026-03-15T09:11:16.000Z</time></trkpt>
<trkpt lat="41.724141" lon="23.4985"><ele>2755.6</ele><time>2026-03-15T09:11:17.000Z</time></trkpt>
<trkpt lat="41.724141" lon="23.498498"><ele>2755.6</ele><time>2026-03-15T09:11:18.000Z</time></trkpt>
<trkpt lat="41.724141" lon="23.498494"><ele>2755.6</ele><time>2026-03-15T09:11:19.000Z</time></trkpt>
<trkpt lat="41.724142" lon="23.49849"><ele>2755.6</ele><time>2026-03-15T09:11:20.000Z</time></trkpt>
<trkpt lat="41.724143" lon="23.498487"><ele>2756.3</ele><time>2026-03-15T09:11:21.000Z</time></trkpt>
<trkpt lat="41.724144" lon="23.498484"><ele>2756.3</ele><time>2026-03-15T09:11:22.000Z</time></trkpt>
<trkpt lat="41.724146" lon="23.49848"><ele>2756.3</ele><time>2026-03-15T09:11:23.000Z</time></trkpt>
<trkpt lat="41.724147" lon="23.498477"><ele>2756.3</ele><time>2026-03-15T09:11:24.000Z</time></trkpt>
<trkpt lat="41.724148" lon="23.498475"><ele>2756.3</ele><time>2026-03-15T09:11:25.000Z</time></trkpt>
<trkpt lat="41.724149" lon="23.498472"><ele>2756.6</ele><time>2026-03-15T09:11:26.000Z</time></trkpt>
<trkpt lat="41.724149" lon="23.49847"><ele>2756.6</ele><time>2026-03-15T09:11:27.000Z</time></trkpt>
<trkpt lat="41.72415" lon="23.498467"><ele>2756.6</ele><time>2026-03-15T09:11:28.000Z</time></trkpt>
<trkpt lat="41.72415" lon="23.498464"><ele>2756.6</ele><time>2026-03-15T09:11:29.000Z</time></trkpt>
<trkpt lat="41.724151" lon="23.49846"><ele>2756.6</ele><time>2026-03-15T09:11:30.000Z</time></trkpt>
<trkpt lat="41.724151" lon="23.498456"><ele>2757.4</ele><time>2026-03-15T09:11:31.000Z</time></trkpt>
<trkpt lat="41.724151" lon="23.498452"><ele>2757.4</ele><time>2026-03-15T09:11:32.000Z</time></trkpt>
<trkpt lat="41.724151" lon="23.498448"><ele>2757.4</ele><time>2026-03-15T09:11:33.000Z</time></trkpt>
<trkpt lat="41.724151" lon="23.498443"><ele>2757.4</ele><time>2026-03-15T09:11:34.000Z</time></trkpt>
<trkpt lat="41.724152" lon="23.49844"><ele>2757.4</ele><time>2026-03-15T09:11:35.000Z</time></trkpt>
<trkpt lat="41.724152" lon="23.498437"><ele>2758.2</ele><time>2026-03-15T09:11:36.000Z</time></trkpt>
<trkpt lat="41.724153" lon="23.498434"><ele>2758.2</ele><time>2026-03-15T09:11:37.000Z</time></trkpt>
<trkpt lat="41.724153" lon="23.49843"><ele>2758.2</ele><time>2026-03-15T09:11:38.000Z</time></trkpt>
<trkpt lat="41.724154" lon="23.498427"><ele>2758.2</ele><time>2026-03-15T09:11:39.000Z</time></trkpt>
<trkpt lat="41.724155" lon="23.498422"><ele>2758.2</ele><time>2026-03-15T09:11:40.000Z</time></trkpt>
<trkpt lat="41.724157" lon="23.498418"><ele>2758.7</ele><time>2026-03-15T09:11:41.000Z</time></trkpt>
<trkpt lat="41.724158" lon="23.498414"><ele>2758.7</ele><time>2026-03-15T09:11:42.000Z</time></trkpt>
<trkpt lat="41.724158" lon="23.49841"><ele>2758.7</ele><time>2026-03-15T09:11:43.000Z</time></trkpt>
<trkpt lat="41.724159" lon="23.498405"><ele>2758.7</ele><time>2026-03-15T09:11:44.000Z</time></trkpt>
<trkpt lat="41.72416" lon="23.498401"><ele>2758.7</ele><time>2026-03-15T09:11:45.000Z</time></trkpt>
<trkpt lat="41.724161" lon="23.498397"><ele>2759.6</ele><time>2026-03-15T09:11:46.000Z</time></trkpt>
<trkpt lat="41.724163" lon="23.498392"><ele>2759.6</ele><time>2026-03-15T09:11:47.000Z</time></trkpt>
<trkpt lat="41.724165" lon="23.498388"><ele>2759.6</ele><time>2026-03-15T09:11:48.000Z</time></trkpt>
<trkpt lat="41.724168" lon="23.498384"><ele>2759.6</ele><time>2026-03-15T09:11:49.000Z</time></trkpt>
<trkpt lat="41.72417" lon="23.49838"><ele>2759.6</ele><time>2026-03-15T09:11:50.000Z</time></trkpt>
<trkpt lat="41.724171" lon="23.498376"><ele>2760.5</ele><time>2026-03-15T09:11:51.000Z</time></trkpt>
<trkpt lat="41.724172" lon="23.498372"><ele>2760.5</ele><time>2026-03-15T09:11:52.000Z</time></trkpt>
<trkpt lat="41.724174" lon="23.498367"><ele>2760.5</ele><time>2026-03-15T09:11:53.000Z</time></trkpt>
<trkpt lat="41.724175" lon="23.498364"><ele>2760.5</ele><time>2026-03-15T09:11:54.000Z</time></trkpt>
<trkpt lat="41.724177" lon="23.49836"><ele>2760.5</ele><time>2026-03-15T09:11:55.000Z</time></trkpt>
<trkpt lat="41.724179" lon="23.498356"><ele>2761</ele><time>2026-03-15T09:11:56.000Z</time></trkpt>
<trkpt lat="41.724181" lon="23.498352"><ele>2761</ele><time>2026-03-15T09:11:57.000Z</time></trkpt>
<trkpt lat="41.724183" lon="23.498347"><ele>2761</ele><time>2026-03-15T09:11:58.000Z</time></trkpt>
<trkpt lat="41.724185" lon="23.498343"><ele>2761</ele><time>2026-03-15T09:11:59.000Z</time></trkpt>
<trkpt lat="41.724187" lon="23.498338"><ele>2761</ele><time>2026-03-15T09:12:00.000Z</time></trkpt>
<trkpt lat="41.724189" lon="23.498335"><ele>2762</ele><time>2026-03-15T09:12:01.000Z</time></trkpt>
<trkpt lat="41.724191" lon="23.49833"><ele>2762</ele><time>2026-03-15T09:12:02.000Z</time></trkpt>
<trkpt lat="41.724194" lon="23.498326"><ele>2762</ele><time>2026-03-15T09:12:03.000Z</time></trkpt>
<trkpt lat="41.724195" lon="23.498323"><ele>2762</ele><time>2026-03-15T09:12:04.000Z</time></trkpt>
<trkpt lat="41.724196" lon="23.49832"><ele>2762</ele><time>2026-03-15T09:12:05.000Z</time></trkpt>
<trkpt lat="41.724197" lon="23.498317"><ele>2763</ele><time>2026-03-15T09:12:06.000Z</time></trkpt>
<trkpt lat="41.724199" lon="23.498313"><ele>2763</ele><time>2026-03-15T09:12:07.000Z</time></trkpt>
<trkpt lat="41.7242" lon="23.49831"><ele>2763</ele><time>2026-03-15T09:12:08.000Z</time></trkpt>
<trkpt lat="41.724201" lon="23.498306"><ele>2763</ele><time>2026-03-15T09:12:09.000Z</time></trkpt>
<trkpt lat="41.724203" lon="23.498301"><ele>2763</ele><time>2026-03-15T09:12:10.000Z</time></trkpt>
<trkpt lat="41.724205" lon="23.498297"><ele>2763.4</ele><time>2026-03-15T09:12:11.000Z</time></trkpt>
<trkpt lat="41.724207" lon="23.498293"><ele>2763.4</ele><time>2026-03-15T09:12:12.000Z</time></trkpt>
<trkpt lat="41.724208" lon="23.498288"><ele>2763.4</ele><time>2026-03-15T09:12:13.000Z</time></trkpt>
<trkpt lat="41.724209" lon="23.498282"><ele>2763.4</ele><time>2026-03-15T09:12:14.000Z</time></trkpt>
<trkpt lat="41.72421" lon="23.498277"><ele>2763.4</ele><time>2026-03-15T09:12:15.000Z</time></trkpt>
<trkpt lat="41.72421" lon="23.498271"><ele>2764.3</ele><time>2026-03-15T09:12:16.000Z</time></trkpt>
<trkpt lat="41.724211" lon="23.498267"><ele>2764.3</ele><time>2026-03-15T09:12:17.000Z</time></trkpt>
<trkpt lat="41.724212" lon="23.498262"><ele>2764.3</ele><time>2026-03-15T09:12:18.000Z</time></trkpt>
<trkpt lat="41.724213" lon="23.498259"><ele>2764.3</ele><time>2026-03-15T09:12:19.000Z</time></trkpt>
<trkpt lat="41.724214" lon="23.498256"><ele>2764.3</ele><time>2026-03-15T09:12:20.000Z</time></trkpt>
<trkpt lat="41.724216" lon="23.498252"><ele>2765.3</ele><time>2026-03-15T09:12:21.000Z</time></trkpt>
<trkpt lat="41.724218" lon="23.498249"><ele>2765.3</ele><time>2026-03-15T09:12:22.000Z</time></trkpt>
<trkpt lat="41.72422" lon="23.498245"><ele>2765.3</ele><time>2026-03-15T09:12:23.000Z</time></trkpt>
<trkpt lat="41.724222" lon="23.498242"><ele>2765.3</ele><time>2026-03-15T09:12:24.000Z</time></trkpt>
<trkpt lat="41.724224" lon="23.498238"><ele>2765.3</ele><time>2026-03-15T09:12:25.000Z</time></trkpt>
<trkpt lat="41.724226" lon="23.498234"><ele>2765.9</ele><time>2026-03-15T09:12:26.000Z</time></trkpt>
<trkpt lat="41.724228" lon="23.498229"><ele>2765.9</ele><time>2026-03-15T09:12:27.000Z</time></trkpt>
<trkpt lat="41.72423" lon="23.498224"><ele>2765.9</ele><time>2026-03-15T09:12:28.000Z</time></trkpt>
<trkpt lat="41.724232" lon="23.498219"><ele>2765.9</ele><time>2026-03-15T09:12:29.000Z</time></trkpt>
<trkpt lat="41.724232" lon="23.498214"><ele>2765.9</ele><time>2026-03-15T09:12:30.000Z</time></trkpt>
<trkpt lat="41.724233" lon="23.49821"><ele>2767.2</ele><time>2026-03-15T09:12:31.000Z</time></trkpt>
<trkpt lat="41.724232" lon="23.498206"><ele>2767.2</ele><time>2026-03-15T09:12:32.000Z</time></trkpt>
<trkpt lat="41.724232" lon="23.498201"><ele>2767.2</ele><time>2026-03-15T09:12:33.000Z</time></trkpt>
<trkpt lat="41.724232" lon="23.498197"><ele>2767.2</ele><time>2026-03-15T09:12:34.000Z</time></trkpt>
<trkpt lat="41.724231" lon="23.498193"><ele>2767.2</ele><time>2026-03-15T09:12:35.000Z</time></trkpt>
<trkpt lat="41.724232" lon="23.498189"><ele>2768.4</ele><time>2026-03-15T09:12:36.000Z</time></trkpt>
<trkpt lat="41.724233" lon="23.498185"><ele>2768.4</ele><time>2026-03-15T09:12:37.000Z</time></trkpt>
<trkpt lat="41.724234" lon="23.498181"><ele>2768.4</ele><time>2026-03-15T09:12:38.000Z</time></trkpt>
<trkpt lat="41.724236" lon="23.498177"><ele>2768.4</ele><time>2026-03-15T09:12:39.000Z</time></trkpt>
<trkpt lat="41.724238" lon="23.498173"><ele>2768.4</ele><time>2026-03-15T09:12:40.000Z</time></trkpt>
<trkpt lat="41.72424" lon="23.498171"><ele>2768.9</ele><time>2026-03-15T09:12:41.000Z</time></trkpt>
<trkpt lat="41.724243" lon="23.498167"><ele>2768.9</ele><time>2026-03-15T09:12:42.000Z</time></trkpt>
<trkpt lat="41.724246" lon="23.498164"><ele>2768.9</ele><time>2026-03-15T09:12:43.000Z</time></trkpt>
<trkpt lat="41.724248" lon="23.498162"><ele>2768.9</ele><time>2026-03-15T09:12:44.000Z</time></trkpt>
<trkpt lat="41.724251" lon="23.49816"><ele>2768.9</ele><time>2026-03-15T09:12:45.000Z</time></trkpt>
<trkpt lat="41.724253" lon="23.498159"><ele>2769.9</ele><time>2026-03-15T09:12:46.000Z</time></trkpt>
<trkpt lat="41.724255" lon="23.498158"><ele>2769.9</ele><time>2026-03-15T09:12:47.000Z</time></trkpt>
<trkpt lat="41.724256" lon="23.498156"><ele>2769.9</ele><time>2026-03-15T09:12:48.000Z</time></trkpt>
<trkpt lat="41.724258" lon="23.498154"><ele>2769.9</ele><time>2026-03-15T09:12:49.000Z</time></trkpt>
<trkpt lat="41.72426" lon="23.498151"><ele>2769.9</ele><time>2026-03-15T09:12:50.000Z</time></trkpt>
<trkpt lat="41.724262" lon="23.498148"><ele>2771</ele><time>2026-03-15T09:12:51.000Z</time></trkpt>
<trkpt lat="41.724264" lon="23.498145"><ele>2771</ele><time>2026-03-15T09:12:52.000Z</time></trkpt>
<trkpt lat="41.724266" lon="23.498141"><ele>2771</ele><time>2026-03-15T09:12:53.000Z</time></trkpt>
<trkpt lat="41.724268" lon="23.498135"><ele>2771</ele><time>2026-03-15T09:12:54.000Z</time></trkpt>
<trkpt lat="41.724269" lon="23.49813"><ele>2771</ele><time>2026-03-15T09:12:55.000Z</time></trkpt>
<trkpt lat="41.724271" lon="23.498124"><ele>2771.5</ele><time>2026-03-15T09:12:56.000Z</time></trkpt>
<trkpt lat="41.724273" lon="23.498118"><ele>2771.5</ele><time>2026-03-15T09:12:57.000Z</time></trkpt>
<trkpt lat="41.724274" lon="23.498113"><ele>2771.5</ele><time>2026-03-15T09:12:58.000Z</time></trkpt>
<trkpt lat="41.724276" lon="23.498108"><ele>2771.5</ele><time>2026-03-15T09:12:59.000Z</time></trkpt>
<trkpt lat="41.724277" lon="23.498103"><ele>2771.5</ele><time>2026-03-15T09:13:00.000Z</time></trkpt>
<trkpt lat="41.724278" lon="23.498098"><ele>2772.5</ele><time>2026-03-15T09:13:01.000Z</time></trkpt>
<trkpt lat="41.724279" lon="23.498093"><ele>2772.5</ele><time>2026-03-15T09:13:02.000Z</time></trkpt>
<trkpt lat="41.724281" lon="23.498087"><ele>2772.5</ele><time>2026-03-15T09:13:03.000Z</time></trkpt>
<trkpt lat="41.724282" lon="23.498083"><ele>2772.5</ele><time>2026-03-15T09:13:04.000Z</time></trkpt>
<trkpt lat="41.724284" lon="23.498079"><ele>2772.5</ele><time>2026-03-15T09:13:05.000Z</time></trkpt>
<trkpt lat="41.724286" lon="23.498075"><ele>2773.4</ele><time>2026-03-15T09:13:06.000Z</time></trkpt>
<trkpt lat="41.724287" lon="23.498072"><ele>2773.4</ele><time>2026-03-15T09:13:07.000Z</time></trkpt>
<trkpt lat="41.724289" lon="23.498069"><ele>2773.4</ele><time>2026-03-15T09:13:08.000Z</time></trkpt>
<trkpt lat="41.72429" lon="23.498066"><ele>2773.4</ele><time>2026-03-15T09:13:09.000Z</time></trkpt>
<trkpt lat="41.724292" lon="23.498063"><ele>2773.4</ele><time>2026-03-15T09:13:10.000Z</time></trkpt>
<trkpt lat="41.724294" lon="23.498061"><ele>2774</ele><time>2026-03-15T09:13:11.000Z</time></trkpt>
<trkpt lat="41.724297" lon="23.498059"><ele>2774</ele><time>2026-03-15T09:13:12.000Z</time></trkpt>
<trkpt lat="41.7243" lon="23.498057"><ele>2774</ele><time>2026-03-15T09:13:13.000Z</time></trkpt>
<trkpt lat="41.724303" lon="23.498056"><ele>2774</ele><time>2026-03-15T09:13:14.000Z</time></trkpt>
<trkpt lat="41.724307" lon="23.498054"><ele>2774</ele><time>2026-03-15T09:13:15.000Z</time></trkpt>
<trkpt lat="41.724311" lon="23.498052"><ele>2775.1</ele><time>2026-03-15T09:13:16.000Z</time></trkpt>
<trkpt lat="41.724315" lon="23.498049"><ele>2775.1</ele><time>2026-03-15T09:13:17.000Z</time></trkpt>
<trkpt lat="41.724319" lon="23.498046"><ele>2775.1</ele><time>2026-03-15T09:13:18.000Z</time></trkpt>
<trkpt lat="41.724322" lon="23.498043"><ele>2775.1</ele><time>2026-03-15T09:13:19.000Z</time></trkpt>
<trkpt lat="41.724325" lon="23.498038"><ele>2775.1</ele><time>2026-03-15T09:13:20.000Z</time></trkpt>
<trkpt lat="41.724327" lon="23.498035"><ele>2776.2</ele><time>2026-03-15T09:13:21.000Z</time></trkpt>
<trkpt lat="41.724329" lon="23.498031"><ele>2776.2</ele><time>2026-03-15T09:13:22.000Z</time></trkpt>
<trkpt lat="41.72433" lon="23.498027"><ele>2776.2</ele><time>2026-03-15T09:13:23.000Z</time></trkpt>
<trkpt lat="41.724332" lon="23.498022"><ele>2776.2</ele><time>2026-03-15T09:13:24.000Z</time></trkpt>
<trkpt lat="41.724333" lon="23.498018"><ele>2776.2</ele><time>2026-03-15T09:13:25.000Z</time></trkpt>
<trkpt lat="41.724335" lon="23.498014"><ele>2776.7</ele><time>2026-03-15T09:13:26.000Z</time></trkpt>
<trkpt lat="41.724336" lon="23.49801"><ele>2776.7</ele><time>2026-03-15T09:13:27.000Z</time></trkpt>
<trkpt lat="41.724338" lon="23.498005"><ele>2776.7</ele><time>2026-03-15T09:13:28.000Z</time></trkpt>
<trkpt lat="41.724341" lon="23.498003"><ele>2776.7</ele><time>2026-03-15T09:13:29.000Z</time></trkpt>
<trkpt lat="41.724344" lon="23.498"><ele>2776.7</ele><time>2026-03-15T09:13:30.000Z</time></trkpt>
<trkpt lat="41.724348" lon="23.497996"><ele>2777.7</ele><time>2026-03-15T09:13:31.000Z</time></trkpt>
<trkpt lat="41.72435" lon="23.497995"><ele>2777.7</ele><time>2026-03-15T09:13:32.000Z</time></trkpt>
<trkpt lat="41.724353" lon="23.497993"><ele>2777.7</ele><time>2026-03-15T09:13:33.000Z</time></trkpt>
<trkpt lat="41.724356" lon="23.49799"><ele>2777.7</ele><time>2026-03-15T09:13:34.000Z</time></trkpt>
<trkpt lat="41.724358" lon="23.497988"><ele>2777.7</ele><time>2026-03-15T09:13:35.000Z</time></trkpt>
<trkpt lat="41.724361" lon="23.497986"><ele>2778.7</ele><time>2026-03-15T09:13:36.000Z</time></trkpt>
<trkpt lat="41.724363" lon="23.497983"><ele>2778.7</ele><time>2026-03-15T09:13:37.000Z</time></trkpt>
<trkpt lat="41.724365" lon="23.49798"><ele>2778.7</ele><time>2026-03-15T09:13:38.000Z</time></trkpt>
<trkpt lat="41.724367" lon="23.497978"><ele>2778.7</ele><time>2026-03-15T09:13:39.000Z</time></trkpt>
<trkpt lat="41.724369" lon="23.497974"><ele>2778.7</ele><time>2026-03-15T09:13:40.000Z</time></trkpt>
<trkpt lat="41.724371" lon="23.497971"><ele>2779.1</ele><time>2026-03-15T09:13:41.000Z</time></trkpt>
<trkpt lat="41.724373" lon="23.497968"><ele>2779.1</ele><time>2026-03-15T09:13:42.000Z</time></trkpt>
<trkpt lat="41.724375" lon="23.497964"><ele>2779.1</ele><time>2026-03-15T09:13:43.000Z</time></trkpt>
<trkpt lat="41.724377" lon="23.49796"><ele>2779.1</ele><time>2026-03-15T09:13:44.000Z</time></trkpt>
<trkpt lat="41.724379" lon="23.497955"><ele>2779.1</ele><time>2026-03-15T09:13:45.000Z</time></trkpt>
<trkpt lat="41.724381" lon="23.497951"><ele>2780</ele><time>2026-03-15T09:13:46.000Z</time></trkpt>
<trkpt lat="41.724383" lon="23.497947"><ele>2780</ele><time>2026-03-15T09:13:47.000Z</time></trkpt>
<trkpt lat="41.724385" lon="23.497944"><ele>2780</ele><time>2026-03-15T09:13:48.000Z</time></trkpt>
<trkpt lat="41.724386" lon="23.497941"><ele>2780</ele><time>2026-03-15T09:13:49.000Z</time></trkpt>
<trkpt lat="41.724387" lon="23.497937"><ele>2780</ele><time>2026-03-15T09:13:50.000Z</time></trkpt>
<trkpt lat="41.724387" lon="23.497934"><ele>2780.8</ele><time>2026-03-15T09:13:51.000Z</time></trkpt>
<trkpt lat="41.724388" lon="23.49793"><ele>2780.8</ele><time>2026-03-15T09:13:52.000Z</time></trkpt>
<trkpt lat="41.724389" lon="23.497928"><ele>2780.8</ele><time>2026-03-15T09:13:53.000Z</time></trkpt>
<trkpt lat="41.72439" lon="23.497926"><ele>2780.8</ele><time>2026-03-15T09:13:54.000Z</time></trkpt>
<trkpt lat="41.724392" lon="23.497924"><ele>2780.8</ele><time>2026-03-15T09:13:55.000Z</time></trkpt>
<trkpt lat="41.724392" lon="23.497923"><ele>2781.3</ele><time>2026-03-15T09:13:56.000Z</time></trkpt>
<trkpt lat="41.724394" lon="23.497922"><ele>2781.3</ele><time>2026-03-15T09:13:57.000Z</time></trkpt>
<trkpt lat="41.724395" lon="23.49792"><ele>2781.3</ele><time>2026-03-15T09:13:58.000Z</time></trkpt>
<trkpt lat="41.724396" lon="23.497918"><ele>2781.3</ele><time>2026-03-15T09:13:59.000Z</time></trkpt>
<trkpt lat="41.724398" lon="23.497915"><ele>2781.3</ele><time>2026-03-15T09:14:00.000Z</time></trkpt>
<trkpt lat="41.7244" lon="23.497913"><ele>2782.3</ele><time>2026-03-15T09:14:01.000Z</time></trkpt>
<trkpt lat="41.724401" lon="23.49791"><ele>2782.3</ele><time>2026-03-15T09:14:02.000Z</time></trkpt>
<trkpt lat="41.724403" lon="23.497908"><ele>2782.3</ele><time>2026-03-15T09:14:03.000Z</time></trkpt>
<trkpt lat="41.724404" lon="23.497906"><ele>2782.3</ele><time>2026-03-15T09:14:04.000Z</time></trkpt>
<trkpt lat="41.724406" lon="23.497904"><ele>2782.3</ele><time>2026-03-15T09:14:05.000Z</time></trkpt>
<trkpt lat="41.724408" lon="23.497901"><ele>2783.2</ele><time>2026-03-15T09:14:06.000Z</time></trkpt>
<trkpt lat="41.72441" lon="23.497899"><ele>2783.2</ele><time>2026-03-15T09:14:07.000Z</time></trkpt>
<trkpt lat="41.724412" lon="23.497896"><ele>2783.2</ele><time>2026-03-15T09:14:08.000Z</time></trkpt>
<trkpt lat="41.724414" lon="23.497893"><ele>2783.2</ele><time>2026-03-15T09:14:09.000Z</time></trkpt>
<trkpt lat="41.724415" lon="23.497889"><ele>2783.2</ele><time>2026-03-15T09:14:10.000Z</time></trkpt>
<trkpt lat="41.724416" lon="23.497885"><ele>2783.7</ele><time>2026-03-15T09:14:11.000Z</time></trkpt>
<trkpt lat="41.724418" lon="23.497881"><ele>2783.7</ele><time>2026-03-15T09:14:12.000Z</time></trkpt>
<trkpt lat="41.72442" lon="23.497877"><ele>2783.7</ele><time>2026-03-15T09:14:13.000Z</time></trkpt>
<trkpt lat="41.724421" lon="23.497875"><ele>2783.7</ele><time>2026-03-15T09:14:14.000Z</time></trkpt>
<trkpt lat="41.724422" lon="23.497874"><ele>2783.7</ele><time>2026-03-15T09:14:15.000Z</time></trkpt>
<trkpt lat="41.724425" lon="23.497874"><ele>2784.6</ele><time>2026-03-15T09:14:16.000Z</time></trkpt>
<trkpt lat="41.724426" lon="23.497874"><ele>2784.6</ele><time>2026-03-15T09:14:17.000Z</time></trkpt>
<trkpt lat="41.724429" lon="23.497875"><ele>2784.6</ele><time>2026-03-15T09:14:18.000Z</time></trkpt>
<trkpt lat="41.724432" lon="23.497874"><ele>2784.6</ele><time>2026-03-15T09:14:19.000Z</time></trkpt>
<trkpt lat="41.724435" lon="23.497874"><ele>2784.6</ele><time>2026-03-15T09:14:20.000Z</time></trkpt>
<trkpt lat="41.724437" lon="23.497873"><ele>2785.6</ele><time>2026-03-15T09:14:21.000Z</time></trkpt>
<trkpt lat="41.724438" lon="23.49787"><ele>2785.6</ele><time>2026-03-15T09:14:22.000Z</time></trkpt>
<trkpt lat="41.724439" lon="23.497866"><ele>2785.6</ele><time>2026-03-15T09:14:23.000Z</time></trkpt>
<trkpt lat="41.724439" lon="23.497862"><ele>2785.6</ele><time>2026-03-15T09:14:24.000Z</time></trkpt>
<trkpt lat="41.724439" lon="23.497859"><ele>2785.6</ele><time>2026-03-15T09:14:25.000Z</time></trkpt>
<trkpt lat="41.72444" lon="23.497857"><ele>2786.1</ele><time>2026-03-15T09:14:26.000Z</time></trkpt>
<trkpt lat="41.72444" lon="23.497856"><ele>2786.1</ele><time>2026-03-15T09:14:27.000Z</time></trkpt>
<trkpt lat="41.72444" lon="23.497856"><ele>2786.1</ele><time>2026-03-15T09:14:28.000Z</time></trkpt>
<trkpt lat="41.724441" lon="23.497856"><ele>2786.1</ele><time>2026-03-15T09:14:29.000Z</time></trkpt>
<trkpt lat="41.724441" lon="23.497856"><ele>2786.1</ele><time>2026-03-15T09:14:30.000Z</time></trkpt>
<trkpt lat="41.724441" lon="23.497856"><ele>2787</ele><time>2026-03-15T09:14:31.000Z</time></trkpt>
<trkpt lat="41.724442" lon="23.497854"><ele>2787</ele><time>2026-03-15T09:14:32.000Z</time></trkpt>
<trkpt lat="41.724443" lon="23.497852"><ele>2787</ele><time>2026-03-15T09:14:33.000Z</time></trkpt>
<trkpt lat="41.724444" lon="23.497849"><ele>2787</ele><time>2026-03-15T09:14:34.000Z</time></trkpt>
<trkpt lat="41.724446" lon="23.497845"><ele>2787</ele><time>2026-03-15T09:14:35.000Z</time></trkpt>
<trkpt lat="41.724447" lon="23.497842"><ele>2787.8</ele><time>2026-03-15T09:14:36.000Z</time></trkpt>
<trkpt lat="41.724448" lon="23.497838"><ele>2787.8</ele><time>2026-03-15T09:14:37.000Z</time></trkpt>
<trkpt lat="41.72445" lon="23.497834"><ele>2787.8</ele><time>2026-03-15T09:14:38.000Z</time></trkpt>
<trkpt lat="41.724452" lon="23.497831"><ele>2787.8</ele><time>2026-03-15T09:14:39.000Z</time></trkpt>
<trkpt lat="41.724454" lon="23.497828"><ele>2787.8</ele><time>2026-03-15T09:14:40.000Z</time></trkpt>
<trkpt lat="41.724456" lon="23.497824"><ele>2788.1</ele><time>2026-03-15T09:14:41.000Z</time></trkpt>
<trkpt lat="41.724458" lon="23.497821"><ele>2788.1</ele><time>2026-03-15T09:14:42.000Z</time></trkpt>
<trkpt lat="41.72446" lon="23.497818"><ele>2788.1</ele><time>2026-03-15T09:14:43.000Z</time></trkpt>
<trkpt lat="41.724461" lon="23.497813"><ele>2788.1</ele><time>2026-03-15T09:14:44.000Z</time></trkpt>
<trkpt lat="41.724462" lon="23.49781"><ele>2788.1</ele><time>2026-03-15T09:14:45.000Z</time></trkpt>
<trkpt lat="41.724464" lon="23.497808"><ele>2788.8</ele><time>2026-03-15T09:14:46.000Z</time></trkpt>
<trkpt lat="41.724465" lon="23.497805"><ele>2788.8</ele><time>2026-03-15T09:14:47.000Z</time></trkpt>
<trkpt lat="41.724467" lon="23.497802"><ele>2788.8</ele><time>2026-03-15T09:14:48.000Z</time></trkpt>
<trkpt lat="41.724468" lon="23.497799"><ele>2788.8</ele><time>2026-03-15T09:14:49.000Z</time></trkpt>
<trkpt lat="41.72447" lon="23.497796"><ele>2788.8</ele><time>2026-03-15T09:14:50.000Z</time></trkpt>
<trkpt lat="41.724472" lon="23.497792"><ele>2789.6</ele><time>2026-03-15T09:14:51.000Z</time></trkpt>
<trkpt lat="41.724474" lon="23.497787"><ele>2789.6</ele><time>2026-03-15T09:14:52.000Z</time></trkpt>
<trkpt lat="41.724475" lon="23.497784"><ele>2789.6</ele><time>2026-03-15T09:14:53.000Z</time></trkpt>
<trkpt lat="41.724477" lon="23.49778"><ele>2789.6</ele><time>2026-03-15T09:14:54.000Z</time></trkpt>
<trkpt lat="41.724479" lon="23.497776"><ele>2789.6</ele><time>2026-03-15T09:14:55.000Z</time></trkpt>
<trkpt lat="41.724481" lon="23.497772"><ele>2790.1</ele><time>2026-03-15T09:14:56.000Z</time></trkpt>
<trkpt lat="41.724482" lon="23.497768"><ele>2790.1</ele><time>2026-03-15T09:14:57.000Z</time></trkpt>
<trkpt lat="41.724485" lon="23.497764"><ele>2790.1</ele><time>2026-03-15T09:14:58.000Z</time></trkpt>
<trkpt lat="41.724486" lon="23.49776"><ele>2790.1</ele><time>2026-03-15T09:14:59.000Z</time></trkpt>
<trkpt lat="41.724489" lon="23.497755"><ele>2790.1</ele><time>2026-03-15T09:15:00.000Z</time></trkpt>
<trkpt lat="41.724491" lon="23.497751"><ele>2791</ele><time>2026-03-15T09:15:01.000Z</time></trkpt>
<trkpt lat="41.724494" lon="23.497747"><ele>2791</ele><time>2026-03-15T09:15:02.000Z</time></trkpt>
<trkpt lat="41.724496" lon="23.497744"><ele>2791</ele><time>2026-03-15T09:15:03.000Z</time></trkpt>
<trkpt lat="41.7245" lon="23.497741"><ele>2791</ele><time>2026-03-15T09:15:04.000Z</time></trkpt>
<trkpt lat="41.724503" lon="23.49774"><ele>2791</ele><time>2026-03-15T09:15:05.000Z</time></trkpt>
<trkpt lat="41.724508" lon="23.497737"><ele>2792</ele><time>2026-03-15T09:15:06.000Z</time></trkpt>
<trkpt lat="41.724511" lon="23.497736"><ele>2792</ele><time>2026-03-15T09:15:07.000Z</time></trkpt>
<trkpt lat="41.724514" lon="23.497733"><ele>2792</ele><time>2026-03-15T09:15:08.000Z</time></trkpt>
<trkpt lat="41.724516" lon="23.49773"><ele>2792</ele><time>2026-03-15T09:15:09.000Z</time></trkpt>
<trkpt lat="41.724518" lon="23.497726"><ele>2792</ele><time>2026-03-15T09:15:10.000Z</time></trkpt>
<trkpt lat="41.724521" lon="23.497723"><ele>2792.4</ele><time>2026-03-15T09:15:11.000Z</time></trkpt>
<trkpt lat="41.724523" lon="23.49772"><ele>2792.4</ele><time>2026-03-15T09:15:12.000Z</time></trkpt>
<trkpt lat="41.724525" lon="23.497718"><ele>2792.4</ele><time>2026-03-15T09:15:13.000Z</time></trkpt>
<trkpt lat="41.724527" lon="23.497716"><ele>2792.4</ele><time>2026-03-15T09:15:14.000Z</time></trkpt>
<trkpt lat="41.724528" lon="23.497714"><ele>2792.4</ele><time>2026-03-15T09:15:15.000Z</time></trkpt>
<trkpt lat="41.724528" lon="23.497712"><ele>2793.6</ele><time>2026-03-15T09:15:16.000Z</time></trkpt>
<trkpt lat="41.724528" lon="23.497711"><ele>2793.6</ele><time>2026-03-15T09:15:17.000Z</time></trkpt>
<trkpt lat="41.724528" lon="23.49771"><ele>2793.6</ele><time>2026-03-15T09:15:18.000Z</time></trkpt>
<trkpt lat="41.724528" lon="23.497709"><ele>2793.6</ele><time>2026-03-15T09:15:19.000Z</time></trkpt>
<trkpt lat="41.724528" lon="23.497708"><ele>2793.6</ele><time>2026-03-15T09:15:20.000Z</time></trkpt>
<trkpt lat="41.72453" lon="23.497707"><ele>2794.7</ele><time>2026-03-15T09:15:21.000Z</time></trkpt>
<trkpt lat="41.724531" lon="23.497705"><ele>2794.7</ele><time>2026-03-15T09:15:22.000Z</time></trkpt>
<trkpt lat="41.724534" lon="23.497702"><ele>2794.7</ele><time>2026-03-15T09:15:23.000Z</time></trkpt>
<trkpt lat="41.724537" lon="23.4977"><ele>2794.7</ele><time>2026-03-15T09:15:24.000Z</time></trkpt>
<trkpt lat="41.72454" lon="23.497698"><ele>2794.7</ele><time>2026-03-15T09:15:25.000Z</time></trkpt>
<trkpt lat="41.724543" lon="23.497698"><ele>2795.2</ele><time>2026-03-15T09:15:26.000Z</time></trkpt>
<trkpt lat="41.724545" lon="23.497697"><ele>2795.2</ele><time>2026-03-15T09:15:27.000Z</time></trkpt>
<trkpt lat="41.724547" lon="23.497697"><ele>2795.2</ele><time>2026-03-15T09:15:28.000Z</time></trkpt>
<trkpt lat="41.724548" lon="23.497696"><ele>2795.2</ele><time>2026-03-15T09:15:29.000Z</time></trkpt>
<trkpt lat="41.724549" lon="23.497695"><ele>2795.2</ele><time>2026-03-15T09:15:30.000Z</time></trkpt>
<trkpt lat="41.724549" lon="23.497693"><ele>2796</ele><time>2026-03-15T09:15:31.000Z</time></trkpt>
<trkpt lat="41.72455" lon="23.497691"><ele>2796</ele><time>2026-03-15T09:15:32.000Z</time></trkpt>
<trkpt lat="41.72455" lon="23.497688"><ele>2796</ele><time>2026-03-15T09:15:33.000Z</time></trkpt>
<trkpt lat="41.72455" lon="23.497686"><ele>2796</ele><time>2026-03-15T09:15:34.000Z</time></trkpt>
<trkpt lat="41.72455" lon="23.497683"><ele>2796</ele><time>2026-03-15T09:15:35.000Z</time></trkpt>
<trkpt lat="41.724551" lon="23.497679"><ele>2796.6</ele><time>2026-03-15T09:15:36.000Z</time></trkpt>
<trkpt lat="41.724553" lon="23.497677"><ele>2796.6</ele><time>2026-03-15T09:15:37.000Z</time></trkpt>
<trkpt lat="41.724555" lon="23.497674"><ele>2796.6</ele><time>2026-03-15T09:15:38.000Z</time></trkpt>
<trkpt lat="41.724559" lon="23.497672"><ele>2796.6</ele><time>2026-03-15T09:15:39.000Z</time></trkpt>
<trkpt lat="41.724562" lon="23.497671"><ele>2796.6</ele><time>2026-03-15T09:15:40.000Z</time></trkpt>
<trkpt lat="41.724565" lon="23.49767"><ele>2796.9</ele><time>2026-03-15T09:15:41.000Z</time></trkpt>
<trkpt lat="41.724569" lon="23.497669"><ele>2796.9</ele><time>2026-03-15T09:15:42.000Z</time></trkpt>
<trkpt lat="41.724572" lon="23.497667"><ele>2796.9</ele><time>2026-03-15T09:15:43.000Z</time></trkpt>
<trkpt lat="41.724576" lon="23.497666"><ele>2796.9</ele><time>2026-03-15T09:15:44.000Z</time></trkpt>
<trkpt lat="41.72458" lon="23.497665"><ele>2796.9</ele><time>2026-03-15T09:15:45.000Z</time></trkpt>
<trkpt lat="41.724584" lon="23.497663"><ele>2797.5</ele><time>2026-03-15T09:15:46.000Z</time></trkpt>
<trkpt lat="41.724589" lon="23.497662"><ele>2797.5</ele><time>2026-03-15T09:15:47.000Z</time></trkpt>
<trkpt lat="41.724593" lon="23.49766"><ele>2797.5</ele><time>2026-03-15T09:15:48.000Z</time></trkpt>
<trkpt lat="41.724597" lon="23.497657"><ele>2797.5</ele><time>2026-03-15T09:15:49.000Z</time></trkpt>
<trkpt lat="41.7246" lon="23.497654"><ele>2797.5</ele><time>2026-03-15T09:15:50.000Z</time></trkpt>
<trkpt lat="41.724604" lon="23.497651"><ele>2798.3</ele><time>2026-03-15T09:15:51.000Z</time></trkpt>
<trkpt lat="41.724607" lon="23.497649"><ele>2798.3</ele><time>2026-03-15T09:15:52.000Z</time></trkpt>
<trkpt lat="41.72461" lon="23.497647"><ele>2798.3</ele><time>2026-03-15T09:15:53.000Z</time></trkpt>
<trkpt lat="41.724613" lon="23.497646"><ele>2798.3</ele><time>2026-03-15T09:15:54.000Z</time></trkpt>
<trkpt lat="41.724616" lon="23.497645"><ele>2798.3</ele><time>2026-03-15T09:15:55.000Z</time></trkpt>
<trkpt lat="41.724618" lon="23.497643"><ele>2798.9</ele><time>2026-03-15T09:15:56.000Z</time></trkpt>
<trkpt lat="41.724619" lon="23.497641"><ele>2798.9</ele><time>2026-03-15T09:15:57.000Z</time></trkpt>
<trkpt lat="41.724621" lon="23.497637"><ele>2798.9</ele><time>2026-03-15T09:15:58.000Z</time></trkpt>
<trkpt lat="41.724622" lon="23.497633"><ele>2798.9</ele><time>2026-03-15T09:15:59.000Z</time></trkpt>
<trkpt lat="41.724623" lon="23.497628"><ele>2798.9</ele><time>2026-03-15T09:16:00.000Z</time></trkpt>
<trkpt lat="41.724625" lon="23.497624"><ele>2800</ele><time>2026-03-15T09:16:01.000Z</time></trkpt>
<trkpt lat="41.724627" lon="23.497619"><ele>2800</ele><time>2026-03-15T09:16:02.000Z</time></trkpt>
<trkpt lat="41.724629" lon="23.497614"><ele>2800</ele><time>2026-03-15T09:16:03.000Z</time></trkpt>
<trkpt lat="41.724631" lon="23.49761"><ele>2800</ele><time>2026-03-15T09:16:04.000Z</time></trkpt>
<trkpt lat="41.724633" lon="23.497607"><ele>2800</ele><time>2026-03-15T09:16:05.000Z</time></trkpt>
<trkpt lat="41.724635" lon="23.497604"><ele>2800.9</ele><time>2026-03-15T09:16:06.000Z</time></trkpt>
<trkpt lat="41.724638" lon="23.497601"><ele>2800.9</ele><time>2026-03-15T09:16:07.000Z</time></trkpt>
<trkpt lat="41.72464" lon="23.497599"><ele>2800.9</ele><time>2026-03-15T09:16:08.000Z</time></trkpt>
<trkpt lat="41.724643" lon="23.497597"><ele>2800.9</ele><time>2026-03-15T09:16:09.000Z</time></trkpt>
<trkpt lat="41.724646" lon="23.497593"><ele>2800.9</ele><time>2026-03-15T09:16:10.000Z</time></trkpt>
<trkpt lat="41.724648" lon="23.497589"><ele>2801.3</ele><time>2026-03-15T09:16:11.000Z</time></trkpt>
<trkpt lat="41.724649" lon="23.497585"><ele>2801.3</ele><time>2026-03-15T09:16:12.000Z</time></trkpt>
<trkpt lat="41.724651" lon="23.497581"><ele>2801.3</ele><time>2026-03-15T09:16:13.000Z</time></trkpt>
<trkpt lat="41.724653" lon="23.497577"><ele>2801.3</ele><time>2026-03-15T09:16:14.000Z</time></trkpt>
<trkpt lat="41.724655" lon="23.497574"><ele>2801.3</ele><time>2026-03-15T09:16:15.000Z</time></trkpt>
<trkpt lat="41.724657" lon="23.497572"><ele>2802.3</ele><time>2026-03-15T09:16:16.000Z</time></trkpt>
<trkpt lat="41.724659" lon="23.49757"><ele>2802.3</ele><time>2026-03-15T09:16:17.000Z</time></trkpt>
<trkpt lat="41.724662" lon="23.497567"><ele>2802.3</ele><time>2026-03-15T09:16:18.000Z</time></trkpt>
<trkpt lat="41.724664" lon="23.497564"><ele>2802.3</ele><time>2026-03-15T09:16:19.000Z</time></trkpt>
<trkpt lat="41.724667" lon="23.497562"><ele>2802.3</ele><time>2026-03-15T09:16:20.000Z</time></trkpt>
<trkpt lat="41.724669" lon="23.497559"><ele>2803.4</ele><time>2026-03-15T09:16:21.000Z</time></trkpt>
<trkpt lat="41.724672" lon="23.497556"><ele>2803.4</ele><time>2026-03-15T09:16:22.000Z</time></trkpt>
<trkpt lat="41.724675" lon="23.497554"><ele>2803.4</ele><time>2026-03-15T09:16:23.000Z</time></trkpt>
<trkpt lat="41.724678" lon="23.497553"><ele>2803.4</ele><time>2026-03-15T09:16:24.000Z</time></trkpt>
<trkpt lat="41.724681" lon="23.497551"><ele>2803.4</ele><time>2026-03-15T09:16:25.000Z</time></trkpt>
<trkpt lat="41.724685" lon="23.497549"><ele>2803.9</ele><time>2026-03-15T09:16:26.000Z</time></trkpt>
<trkpt lat="41.724688" lon="23.497548"><ele>2803.9</ele><time>2026-03-15T09:16:27.000Z</time></trkpt>
<trkpt lat="41.724691" lon="23.497548"><ele>2803.9</ele><time>2026-03-15T09:16:28.000Z</time></trkpt>
<trkpt lat="41.724693" lon="23.497547"><ele>2803.9</ele><time>2026-03-15T09:16:29.000Z</time></trkpt>
<trkpt lat="41.724697" lon="23.497546"><ele>2803.9</ele><time>2026-03-15T09:16:30.000Z</time></trkpt>
<trkpt lat="41.724699" lon="23.497545"><ele>2804.9</ele><time>2026-03-15T09:16:31.000Z</time></trkpt>
<trkpt lat="41.724702" lon="23.497544"><ele>2804.9</ele><time>2026-03-15T09:16:32.000Z</time></trkpt>
<trkpt lat="41.724705" lon="23.497543"><ele>2804.9</ele><time>2026-03-15T09:16:33.000Z</time></trkpt>
<trkpt lat="41.724708" lon="23.497543"><ele>2804.9</ele><time>2026-03-15T09:16:34.000Z</time></trkpt>
<trkpt lat="41.724711" lon="23.497543"><ele>2804.9</ele><time>2026-03-15T09:16:35.000Z</time></trkpt>
<trkpt lat="41.724715" lon="23.497543"><ele>2806</ele><time>2026-03-15T09:16:36.000Z</time></trkpt>
<trkpt lat="41.724718" lon="23.497544"><ele>2806</ele><time>2026-03-15T09:16:37.000Z</time></trkpt>
<trkpt lat="41.724722" lon="23.497544"><ele>2806</ele><time>2026-03-15T09:16:38.000Z</time></trkpt>
<trkpt lat="41.724726" lon="23.497544"><ele>2806</ele><time>2026-03-15T09:16:39.000Z</time></trkpt>
<trkpt lat="41.724728" lon="23.497544"><ele>2806</ele><time>2026-03-15T09:16:40.000Z</time></trkpt>
<trkpt lat="41.724731" lon="23.497543"><ele>2806.6</ele><time>2026-03-15T09:16:41.000Z</time></trkpt>
<trkpt lat="41.724733" lon="23.497542"><ele>2806.6</ele><time>2026-03-15T09:16:42.000Z</time></trkpt>
<trkpt lat="41.724735" lon="23.497541"><ele>2806.6</ele><time>2026-03-15T09:16:43.000Z</time></trkpt>
<trkpt lat="41.724738" lon="23.49754"><ele>2806.6</ele><time>2026-03-15T09:16:44.000Z</time></trkpt>
<trkpt lat="41.72474" lon="23.497539"><ele>2806.6</ele><time>2026-03-15T09:16:45.000Z</time></trkpt>
<trkpt lat="41.724744" lon="23.497537"><ele>2807.7</ele><time>2026-03-15T09:16:46.000Z</time></trkpt>
<trkpt lat="41.724747" lon="23.497536"><ele>2807.7</ele><time>2026-03-15T09:16:47.000Z</time></trkpt>
<trkpt lat="41.724751" lon="23.497534"><ele>2807.7</ele><time>2026-03-15T09:16:48.000Z</time></trkpt>
<trkpt lat="41.724754" lon="23.497532"><ele>2807.7</ele><time>2026-03-15T09:16:49.000Z</time></trkpt>
<trkpt lat="41.724757" lon="23.497531"><ele>2807.7</ele><time>2026-03-15T09:16:50.000Z</time></trkpt>
<trkpt lat="41.724759" lon="23.497531"><ele>2808.3</ele><time>2026-03-15T09:16:51.000Z</time></trkpt>
<trkpt lat="41.724761" lon="23.497531"><ele>2808.3</ele><time>2026-03-15T09:16:52.000Z</time></trkpt>
<trkpt lat="41.724763" lon="23.49753"><ele>2808.3</ele><time>2026-03-15T09:16:53.000Z</time></trkpt>
<trkpt lat="41.724766" lon="23.497529"><ele>2808.3</ele><time>2026-03-15T09:16:54.000Z</time></trkpt>
<trkpt lat="41.724768" lon="23.497528"><ele>2808.3</ele><time>2026-03-15T09:16:55.000Z</time></trkpt>
<trkpt lat="41.724771" lon="23.497526"><ele>2808.5</ele><time>2026-03-15T09:16:56.000Z</time></trkpt>
<trkpt lat="41.724773" lon="23.497523"><ele>2808.5</ele><time>2026-03-15T09:16:57.000Z</time></trkpt>
<trkpt lat="41.724774" lon="23.497519"><ele>2808.5</ele><time>2026-03-15T09:16:58.000Z</time></trkpt>
<trkpt lat="41.724775" lon="23.497515"><ele>2808.5</ele><time>2026-03-15T09:16:59.000Z</time></trkpt>
<trkpt lat="41.724775" lon="23.49751"><ele>2808.5</ele><time>2026-03-15T09:17:00.000Z</time></trkpt>
<trkpt lat="41.724776" lon="23.497504"><ele>2809.1</ele><time>2026-03-15T09:17:01.000Z</time></trkpt>
<trkpt lat="41.724775" lon="23.4975"><ele>2809.1</ele><time>2026-03-15T09:17:02.000Z</time></trkpt>
<trkpt lat="41.724776" lon="23.497496"><ele>2809.1</ele><time>2026-03-15T09:17:03.000Z</time></trkpt>
<trkpt lat="41.724777" lon="23.497492"><ele>2809.1</ele><time>2026-03-15T09:17:04.000Z</time></trkpt>
<trkpt lat="41.724779" lon="23.497489"><ele>2809.1</ele><time>2026-03-15T09:17:05.000Z</time></trkpt>
<trkpt lat="41.724781" lon="23.497486"><ele>2809.9</ele><time>2026-03-15T09:17:06.000Z</time></trkpt>
<trkpt lat="41.724784" lon="23.497483"><ele>2809.9</ele><time>2026-03-15T09:17:07.000Z</time></trkpt>
<trkpt lat="41.724787" lon="23.49748"><ele>2809.9</ele><time>2026-03-15T09:17:08.000Z</time></trkpt>
<trkpt lat="41.72479" lon="23.497477"><ele>2809.9</ele><time>2026-03-15T09:17:09.000Z</time></trkpt>
<trkpt lat="41.724793" lon="23.497474"><ele>2809.9</ele><time>2026-03-15T09:17:10.000Z</time></trkpt>
<trkpt lat="41.724795" lon="23.497471"><ele>2810.3</ele><time>2026-03-15T09:17:11.000Z</time></trkpt>
<trkpt lat="41.724797" lon="23.497467"><ele>2810.3</ele><time>2026-03-15T09:17:12.000Z</time></trkpt>
<trkpt lat="41.724798" lon="23.497463"><ele>2810.3</ele><time>2026-03-15T09:17:13.000Z</time></trkpt>
<trkpt lat="41.724799" lon="23.497459"><ele>2810.3</ele><time>2026-03-15T09:17:14.000Z</time></trkpt>
<trkpt lat="41.7248" lon="23.497456"><ele>2810.3</ele><time>2026-03-15T09:17:15.000Z</time></trkpt>
<trkpt lat="41.724801" lon="23.497452"><ele>2811.2</ele><time>2026-03-15T09:17:16.000Z</time></trkpt>
<trkpt lat="41.724802" lon="23.497448"><ele>2811.2</ele><time>2026-03-15T09:17:17.000Z</time></trkpt>
<trkpt lat="41.724802" lon="23.497444"><ele>2811.2</ele><time>2026-03-15T09:17:18.000Z</time></trkpt>
<trkpt lat="41.724802" lon="23.49744"><ele>2811.2</ele><time>2026-03-15T09:17:19.000Z</time></trkpt>
<trkpt lat="41.724803" lon="23.497436"><ele>2811.2</ele><time>2026-03-15T09:17:20.000Z</time></trkpt>
<trkpt lat="41.724803" lon="23.497433"><ele>2812.1</ele><time>2026-03-15T09:17:21.000Z</time></trkpt>
<trkpt lat="41.724803" lon="23.49743"><ele>2812.1</ele><time>2026-03-15T09:17:22.000Z</time></trkpt>
<trkpt lat="41.724803" lon="23.497426"><ele>2812.1</ele><time>2026-03-15T09:17:23.000Z</time></trkpt>
<trkpt lat="41.724803" lon="23.497423"><ele>2812.1</ele><time>2026-03-15T09:17:24.000Z</time></trkpt>
<trkpt lat="41.724802" lon="23.49742"><ele>2812.1</ele><time>2026-03-15T09:17:25.000Z</time></trkpt>
<trkpt lat="41.724801" lon="23.497419"><ele>2812.5</ele><time>2026-03-15T09:17:26.000Z</time></trkpt>
<trkpt lat="41.7248" lon="23.497416"><ele>2812.5</ele><time>2026-03-15T09:17:27.000Z</time></trkpt>
<trkpt lat="41.7248" lon="23.497415"><ele>2812.5</ele><time>2026-03-15T09:17:28.000Z</time></trkpt>
<trkpt lat="41.7248" lon="23.497414"><ele>2812.5</ele><time>2026-03-15T09:17:29.000Z</time></trkpt>
<trkpt lat="41.724801" lon="23.497412"><ele>2812.5</ele><time>2026-03-15T09:17:30.000Z</time></trkpt>
<trkpt lat="41.724802" lon="23.49741"><ele>2813.1</ele><time>2026-03-15T09:17:31.000Z</time></trkpt>
<trkpt lat="41.724804" lon="23.497409"><ele>2813.1</ele><time>2026-03-15T09:17:32.000Z</time></trkpt>
<trkpt lat="41.724806" lon="23.497408"><ele>2813.1</ele><time>2026-03-15T09:17:33.000Z</time></trkpt>
<trkpt lat="41.724809" lon="23.497407"><ele>2813.1</ele><time>2026-03-15T09:17:34.000Z</time></trkpt>
<trkpt lat="41.724811" lon="23.497407"><ele>2813.1</ele><time>2026-03-15T09:17:35.000Z</time></trkpt>
<trkpt lat="41.724815" lon="23.497405"><ele>2813.6</ele><time>2026-03-15T09:17:36.000Z</time></trkpt>
<trkpt lat="41.724818" lon="23.497403"><ele>2813.6</ele><time>2026-03-15T09:17:37.000Z</time></trkpt>
<trkpt lat="41.724822" lon="23.497401"><ele>2813.6</ele><time>2026-03-15T09:17:38.000Z</time></trkpt>
<trkpt lat="41.724825" lon="23.497401"><ele>2813.6</ele><time>2026-03-15T09:17:39.000Z</time></trkpt>
<trkpt lat="41.724827" lon="23.4974"><ele>2813.6</ele><time>2026-03-15T09:17:40.000Z</time></trkpt>
<trkpt lat="41.724828" lon="23.4974"><ele>2813.8</ele><time>2026-03-15T09:17:41.000Z</time></trkpt>
<trkpt lat="41.724828" lon="23.497399"><ele>2813.8</ele><time>2026-03-15T09:17:42.000Z</time></trkpt>
<trkpt lat="41.724829" lon="23.497396"><ele>2813.8</ele><time>2026-03-15T09:17:43.000Z</time></trkpt>
<trkpt lat="41.724829" lon="23.497394"><ele>2813.8</ele><time>2026-03-15T09:17:44.000Z</time></trkpt>
<trkpt lat="41.724831" lon="23.49739"><ele>2813.8</ele><time>2026-03-15T09:17:45.000Z</time></trkpt>
<trkpt lat="41.724834" lon="23.497388"><ele>2814.5</ele><time>2026-03-15T09:17:46.000Z</time></trkpt>
<trkpt lat="41.724837" lon="23.497386"><ele>2814.5</ele><time>2026-03-15T09:17:47.000Z</time></trkpt>
<trkpt lat="41.72484" lon="23.497385"><ele>2814.5</ele><time>2026-03-15T09:17:48.000Z</time></trkpt>
<trkpt lat="41.724843" lon="23.497383"><ele>2814.5</ele><time>2026-03-15T09:17:49.000Z</time></trkpt>
<trkpt lat="41.724845" lon="23.49738"><ele>2814.5</ele><time>2026-03-15T09:17:50.000Z</time></trkpt>
<trkpt lat="41.724846" lon="23.497378"><ele>2815.2</ele><time>2026-03-15T09:17:51.000Z</time></trkpt>
<trkpt lat="41.724848" lon="23.497376"><ele>2815.2</ele><time>2026-03-15T09:17:52.000Z</time></trkpt>
<trkpt lat="41.724849" lon="23.497374"><ele>2815.2</ele><time>2026-03-15T09:17:53.000Z</time></trkpt>
<trkpt lat="41.72485" lon="23.49737"><ele>2815.2</ele><time>2026-03-15T09:17:54.000Z</time></trkpt>
<trkpt lat="41.724851" lon="23.497368"><ele>2815.2</ele><time>2026-03-15T09:17:55.000Z</time></trkpt>
<trkpt lat="41.724852" lon="23.497364"><ele>2815.5</ele><time>2026-03-15T09:17:56.000Z</time></trkpt>
<trkpt lat="41.724854" lon="23.497361"><ele>2815.5</ele><time>2026-03-15T09:17:57.000Z</time></trkpt>
<trkpt lat="41.724855" lon="23.497357"><ele>2815.5</ele><time>2026-03-15T09:17:58.000Z</time></trkpt>
<trkpt lat="41.724857" lon="23.497354"><ele>2815.5</ele><time>2026-03-15T09:17:59.000Z</time></trkpt>
<trkpt lat="41.724859" lon="23.497351"><ele>2815.5</ele><time>2026-03-15T09:18:00.000Z</time></trkpt>
<trkpt lat="41.724861" lon="23.497347"><ele>2816.2</ele><time>2026-03-15T09:18:01.000Z</time></trkpt>
<trkpt lat="41.724862" lon="23.497344"><ele>2816.2</ele><time>2026-03-15T09:18:02.000Z</time></trkpt>
<trkpt lat="41.724863" lon="23.497339"><ele>2816.2</ele><time>2026-03-15T09:18:03.000Z</time></trkpt>
<trkpt lat="41.724864" lon="23.497336"><ele>2816.2</ele><time>2026-03-15T09:18:04.000Z</time></trkpt>
<trkpt lat="41.724866" lon="23.497333"><ele>2816.2</ele><time>2026-03-15T09:18:05.000Z</time></trkpt>
<trkpt lat="41.724867" lon="23.497331"><ele>2817.1</ele><time>2026-03-15T09:18:06.000Z</time></trkpt>
<trkpt lat="41.724868" lon="23.497329"><ele>2817.1</ele><time>2026-03-15T09:18:07.000Z</time></trkpt>
<trkpt lat="41.724868" lon="23.497327"><ele>2817.1</ele><time>2026-03-15T09:18:08.000Z</time></trkpt>
<trkpt lat="41.724868" lon="23.497326"><ele>2817.1</ele><time>2026-03-15T09:18:09.000Z</time></trkpt>
<trkpt lat="41.724867" lon="23.497326"><ele>2817.1</ele><time>2026-03-15T09:18:10.000Z</time></trkpt>
<trkpt lat="41.724866" lon="23.497325"><ele>2817.6</ele><time>2026-03-15T09:18:11.000Z</time></trkpt>
<trkpt lat="41.724866" lon="23.497325"><ele>2817.6</ele><time>2026-03-15T09:18:12.000Z</time></trkpt>
<trkpt lat="41.724865" lon="23.497325"><ele>2817.6</ele><time>2026-03-15T09:18:13.000Z</time></trkpt>
<trkpt lat="41.724865" lon="23.497324"><ele>2817.6</ele><time>2026-03-15T09:18:14.000Z</time></trkpt>
<trkpt lat="41.724865" lon="23.497324"><ele>2817.6</ele><time>2026-03-15T09:18:15.000Z</time></trkpt>
<trkpt lat="41.724865" lon="23.497323"><ele>2818.6</ele><time>2026-03-15T09:18:16.000Z</time></trkpt>
<trkpt lat="41.724865" lon="23.497322"><ele>2818.6</ele><time>2026-03-15T09:18:17.000Z</time></trkpt>
<trkpt lat="41.724866" lon="23.497318"><ele>2818.6</ele><time>2026-03-15T09:18:18.000Z</time></trkpt>
<trkpt lat="41.724867" lon="23.497313"><ele>2818.6</ele><time>2026-03-15T09:18:19.000Z</time></trkpt>
<trkpt lat="41.724867" lon="23.497307"><ele>2818.6</ele><time>2026-03-15T09:18:20.000Z</time></trkpt>
<trkpt lat="41.724867" lon="23.497301"><ele>2819.3</ele><time>2026-03-15T09:18:21.000Z</time></trkpt>
<trkpt lat="41.724867" lon="23.497294"><ele>2819.3</ele><time>2026-03-15T09:18:22.000Z</time></trkpt>
<trkpt lat="41.724867" lon="23.497288"><ele>2819.3</ele><time>2026-03-15T09:18:23.000Z</time></trkpt>
<trkpt lat="41.724867" lon="23.497283"><ele>2819.3</ele><time>2026-03-15T09:18:24.000Z</time></trkpt>
<trkpt lat="41.724867" lon="23.497278"><ele>2819.3</ele><time>2026-03-15T09:18:25.000Z</time></trkpt>
<trkpt lat="41.724867" lon="23.497274"><ele>2819.5</ele><time>2026-03-15T09:18:26.000Z</time></trkpt>
<trkpt lat="41.724867" lon="23.49727"><ele>2819.5</ele><time>2026-03-15T09:18:27.000Z</time></trkpt>
<trkpt lat="41.724867" lon="23.497267"><ele>2819.5</ele><time>2026-03-15T09:18:28.000Z</time></trkpt>
<trkpt lat="41.724869" lon="23.497263"><ele>2819.5</ele><time>2026-03-15T09:18:29.000Z</time></trkpt>
<trkpt lat="41.724871" lon="23.497262"><ele>2819.5</ele><time>2026-03-15T09:18:30.000Z</time></trkpt>
<trkpt lat="41.724875" lon="23.497261"><ele>2819.9</ele><time>2026-03-15T09:18:31.000Z</time></trkpt>
<trkpt lat="41.724879" lon="23.497261"><ele>2819.9</ele><time>2026-03-15T09:18:32.000Z</time></trkpt>
<trkpt lat="41.724883" lon="23.49726"><ele>2819.9</ele><time>2026-03-15T09:18:33.000Z</time></trkpt>
<trkpt lat="41.724887" lon="23.49726"><ele>2819.9</ele><time>2026-03-15T09:18:34.000Z</time></trkpt>
<trkpt lat="41.72489" lon="23.49726"><ele>2819.9</ele><time>2026-03-15T09:18:35.000Z</time></trkpt>
<trkpt lat="41.724893" lon="23.497259"><ele>2820.5</ele><time>2026-03-15T09:18:36.000Z</time></trkpt>
<trkpt lat="41.724896" lon="23.497258"><ele>2820.5</ele><time>2026-03-15T09:18:37.000Z</time></trkpt>
<trkpt lat="41.724899" lon="23.497257"><ele>2820.5</ele><time>2026-03-15T09:18:38.000Z</time></trkpt>
<trkpt lat="41.724901" lon="23.497256"><ele>2820.5</ele><time>2026-03-15T09:18:39.000Z</time></trkpt>
<trkpt lat="41.724904" lon="23.497253"><ele>2820.5</ele><time>2026-03-15T09:18:40.000Z</time></trkpt>
<trkpt lat="41.724906" lon="23.49725"><ele>2820.9</ele><time>2026-03-15T09:18:41.000Z</time></trkpt>
<trkpt lat="41.724908" lon="23.497247"><ele>2820.9</ele><time>2026-03-15T09:18:42.000Z</time></trkpt>
<trkpt lat="41.72491" lon="23.497243"><ele>2820.9</ele><time>2026-03-15T09:18:43.000Z</time></trkpt>
<trkpt lat="41.724912" lon="23.497238"><ele>2820.9</ele><time>2026-03-15T09:18:44.000Z</time></trkpt>
<trkpt lat="41.724913" lon="23.497233"><ele>2820.9</ele><time>2026-03-15T09:18:45.000Z</time></trkpt>
<trkpt lat="41.724914" lon="23.497228"><ele>2821.8</ele><time>2026-03-15T09:18:46.000Z</time></trkpt>
<trkpt lat="41.724913" lon="23.497222"><ele>2821.8</ele><time>2026-03-15T09:18:47.000Z</time></trkpt>
<trkpt lat="41.724913" lon="23.497215"><ele>2821.8</ele><time>2026-03-15T09:18:48.000Z</time></trkpt>
<trkpt lat="41.724911" lon="23.49721"><ele>2821.8</ele><time>2026-03-15T09:18:49.000Z</time></trkpt>
<trkpt lat="41.72491" lon="23.497206"><ele>2821.8</ele><time>2026-03-15T09:18:50.000Z</time></trkpt>
<trkpt lat="41.72491" lon="23.497202"><ele>2822.9</ele><time>2026-03-15T09:18:51.000Z</time></trkpt>
<trkpt lat="41.72491" lon="23.4972"><ele>2822.9</ele><time>2026-03-15T09:18:52.000Z</time></trkpt>
<trkpt lat="41.72491" lon="23.497199"><ele>2822.9</ele><time>2026-03-15T09:18:53.000Z</time></trkpt>
<trkpt lat="41.724911" lon="23.497197"><ele>2822.9</ele><time>2026-03-15T09:18:54.000Z</time></trkpt>
<trkpt lat="41.724912" lon="23.497195"><ele>2822.9</ele><time>2026-03-15T09:18:55.000Z</time></trkpt>
<trkpt lat="41.724913" lon="23.497192"><ele>2823.4</ele><time>2026-03-15T09:18:56.000Z</time></trkpt>
<trkpt lat="41.724914" lon="23.49719"><ele>2823.4</ele><time>2026-03-15T09:18:57.000Z</time></trkpt>
<trkpt lat="41.724915" lon="23.497188"><ele>2823.4</ele><time>2026-03-15T09:18:58.000Z</time></trkpt>
<trkpt lat="41.724917" lon="23.497186"><ele>2823.4</ele><time>2026-03-15T09:18:59.000Z</time></trkpt>
<trkpt lat="41.724917" lon="23.497186"><ele>2823.4</ele><time>2026-03-15T09:19:00.000Z</time></trkpt>
<trkpt lat="41.724917" lon="23.497186"><ele>2824.4</ele><time>2026-03-15T09:19:01.000Z</time></trkpt>
<trkpt lat="41.724917" lon="23.497185"><ele>2824.4</ele><time>2026-03-15T09:19:02.000Z</time></trkpt>
<trkpt lat="41.724917" lon="23.497185"><ele>2824.4</ele><time>2026-03-15T09:19:03.000Z</time></trkpt>
<trkpt lat="41.724917" lon="23.497184"><ele>2824.4</ele><time>2026-03-15T09:19:04.000Z</time></trkpt>
<trkpt lat="41.724917" lon="23.497184"><ele>2824.4</ele><time>2026-03-15T09:19:05.000Z</time></trkpt>
<trkpt lat="41.724917" lon="23.497184"><ele>2825.2</ele><time>2026-03-15T09:19:06.000Z</time></trkpt>
<trkpt lat="41.724917" lon="23.497184"><ele>2825.2</ele><time>2026-03-15T09:19:07.000Z</time></trkpt>
<trkpt lat="41.724917" lon="23.497183"><ele>2825.2</ele><time>2026-03-15T09:19:08.000Z</time></trkpt>
<trkpt lat="41.724917" lon="23.497183"><ele>2825.2</ele><time>2026-03-15T09:19:09.000Z</time></trkpt>
<trkpt lat="41.724917" lon="23.497183"><ele>2825.2</ele><time>2026-03-15T09:19:10.000Z</time></trkpt>
<trkpt lat="41.724918" lon="23.497182"><ele>2825.4</ele><time>2026-03-15T09:19:11.000Z</time></trkpt>
<trkpt lat="41.724917" lon="23.497181"><ele>2825.4</ele><time>2026-03-15T09:19:12.000Z</time></trkpt>
<trkpt lat="41.724916" lon="23.497181"><ele>2825.4</ele><time>2026-03-15T09:19:13.000Z</time></trkpt>
<trkpt lat="41.724915" lon="23.49718"><ele>2825.4</ele><time>2026-03-15T09:19:14.000Z</time></trkpt>
<trkpt lat="41.724914" lon="23.49718"><ele>2825.4</ele><time>2026-03-15T09:19:15.000Z</time></trkpt>
<trkpt lat="41.724913" lon="23.497179"><ele>2825.5</ele><time>2026-03-15T09:19:16.000Z</time></trkpt>
<trkpt lat="41.724913" lon="23.497179"><ele>2825.5</ele><time>2026-03-15T09:19:17.000Z</time></trkpt>
<trkpt lat="41.724912" lon="23.497179"><ele>2825.5</ele><time>2026-03-15T09:19:18.000Z</time></trkpt>
<trkpt lat="41.72491" lon="23.49718"><ele>2825.5</ele><time>2026-03-15T09:19:19.000Z</time></trkpt>
<trkpt lat="41.724909" lon="23.497181"><ele>2825.5</ele><time>2026-03-15T09:19:20.000Z</time></trkpt>
<trkpt lat="41.724908" lon="23.497183"><ele>2825.4</ele><time>2026-03-15T09:19:21.000Z</time></trkpt>
<trkpt lat="41.724907" lon="23.497184"><ele>2825.4</ele><time>2026-03-15T09:19:22.000Z</time></trkpt>
<trkpt lat="41.724907" lon="23.497183"><ele>2825.4</ele><time>2026-03-15T09:19:23.000Z</time></trkpt>
<trkpt lat="41.724908" lon="23.497181"><ele>2825.4</ele><time>2026-03-15T09:19:24.000Z</time></trkpt>
<trkpt lat="41.724909" lon="23.497179"><ele>2825.4</ele><time>2026-03-15T09:19:25.000Z</time></trkpt>
<trkpt lat="41.724911" lon="23.497177"><ele>2825.3</ele><time>2026-03-15T09:19:26.000Z</time></trkpt>
<trkpt lat="41.724912" lon="23.497176"><ele>2825.3</ele><time>2026-03-15T09:19:27.000Z</time></trkpt>
<trkpt lat="41.724913" lon="23.497174"><ele>2825.3</ele><time>2026-03-15T09:19:28.000Z</time></trkpt>
<trkpt lat="41.724914" lon="23.497173"><ele>2825.3</ele><time>2026-03-15T09:19:29.000Z</time></trkpt>
<trkpt lat="41.724915" lon="23.497171"><ele>2825.3</ele><time>2026-03-15T09:19:30.000Z</time></trkpt>
<trkpt lat="41.724915" lon="23.497167"><ele>2825.3</ele><time>2026-03-15T09:19:31.000Z</time></trkpt>
<trkpt lat="41.724915" lon="23.497164"><ele>2825.3</ele><time>2026-03-15T09:19:32.000Z</time></trkpt>
<trkpt lat="41.724916" lon="23.497161"><ele>2825.3</ele><time>2026-03-15T09:19:33.000Z</time></trkpt>
<trkpt lat="41.724917" lon="23.497159"><ele>2825.3</ele><time>2026-03-15T09:19:34.000Z</time></trkpt>
<trkpt lat="41.724917" lon="23.497157"><ele>2825.3</ele><time>2026-03-15T09:19:35.000Z</time></trkpt>
<trkpt lat="41.724917" lon="23.497156"><ele>2825.7</ele><time>2026-03-15T09:19:36.000Z</time></trkpt>
<trkpt lat="41.724917" lon="23.497155"><ele>2825.7</ele><time>2026-03-15T09:19:37.000Z</time></trkpt>
<trkpt lat="41.724918" lon="23.497154"><ele>2825.7</ele><time>2026-03-15T09:19:38.000Z</time></trkpt>
<trkpt lat="41.724918" lon="23.497154"><ele>2825.7</ele><time>2026-03-15T09:19:39.000Z</time></trkpt>
<trkpt lat="41.724919" lon="23.497154"><ele>2825.7</ele><time>2026-03-15T09:19:40.000Z</time></trkpt>
<trkpt lat="41.72492" lon="23.497154"><ele>2826</ele><time>2026-03-15T09:19:41.000Z</time></trkpt>
<trkpt lat="41.724921" lon="23.497154"><ele>2826</ele><time>2026-03-15T09:19:42.000Z</time></trkpt>
<trkpt lat="41.724923" lon="23.497155"><ele>2826</ele><time>2026-03-15T09:19:43.000Z</time></trkpt>
<trkpt lat="41.724926" lon="23.497156"><ele>2826</ele><time>2026-03-15T09:19:44.000Z</time></trkpt>
<trkpt lat="41.724931" lon="23.497158"><ele>2826</ele><time>2026-03-15T09:19:45.000Z</time></trkpt>
<trkpt lat="41.724935" lon="23.49716"><ele>2826.7</ele><time>2026-03-15T09:19:46.000Z</time></trkpt>
<trkpt lat="41.72494" lon="23.497161"><ele>2826.7</ele><time>2026-03-15T09:19:47.000Z</time></trkpt>
<trkpt lat="41.724943" lon="23.497161"><ele>2826.7</ele><time>2026-03-15T09:19:48.000Z</time></trkpt>
<trkpt lat="41.724948" lon="23.497161"><ele>2826.7</ele><time>2026-03-15T09:19:49.000Z</time></trkpt>
<trkpt lat="41.72495" lon="23.497159"><ele>2826.7</ele><time>2026-03-15T09:19:50.000Z</time></trkpt>
<trkpt lat="41.724954" lon="23.497157"><ele>2827.3</ele><time>2026-03-15T09:19:51.000Z</time></trkpt>
<trkpt lat="41.724956" lon="23.497154"><ele>2827.3</ele><time>2026-03-15T09:19:52.000Z</time></trkpt>
<trkpt lat="41.724959" lon="23.497151"><ele>2827.3</ele><time>2026-03-15T09:19:53.000Z</time></trkpt>
<trkpt lat="41.724959" lon="23.497148"><ele>2827.3</ele><time>2026-03-15T09:19:54.000Z</time></trkpt>
<trkpt lat="41.72496" lon="23.497145"><ele>2827.3</ele><time>2026-03-15T09:19:55.000Z</time></trkpt>
<trkpt lat="41.72496" lon="23.497142"><ele>2827.6</ele><time>2026-03-15T09:19:56.000Z</time></trkpt>
<trkpt lat="41.724961" lon="23.497139"><ele>2827.6</ele><time>2026-03-15T09:19:57.000Z</time></trkpt>
<trkpt lat="41.724962" lon="23.497137"><ele>2827.6</ele><time>2026-03-15T09:19:58.000Z</time></trkpt>
<trkpt lat="41.724963" lon="23.497134"><ele>2827.6</ele><time>2026-03-15T09:19:59.000Z</time></trkpt>
<trkpt lat="41.724963" lon="23.497131"><ele>2827.6</ele><time>2026-03-15T09:20:00.000Z</time></trkpt>
<trkpt lat="41.724963" lon="23.497128"><ele>2828.2</ele><time>2026-03-15T09:20:01.000Z</time></trkpt>
<trkpt lat="41.724963" lon="23.497125"><ele>2828.2</ele><time>2026-03-15T09:20:02.000Z</time></trkpt>
<trkpt lat="41.724964" lon="23.497123"><ele>2828.2</ele><time>2026-03-15T09:20:03.000Z</time></trkpt>
<trkpt lat="41.724963" lon="23.497121"><ele>2828.2</ele><time>2026-03-15T09:20:04.000Z</time></trkpt>
<trkpt lat="41.724963" lon="23.49712"><ele>2828.2</ele><time>2026-03-15T09:20:05.000Z</time></trkpt>
<trkpt lat="41.724963" lon="23.497119"><ele>2829</ele><time>2026-03-15T09:20:06.000Z</time></trkpt>
<trkpt lat="41.724962" lon="23.497118"><ele>2829</ele><time>2026-03-15T09:20:07.000Z</time></trkpt>
<trkpt lat="41.724962" lon="23.497118"><ele>2829</ele><time>2026-03-15T09:20:08.000Z</time></trkpt>
<trkpt lat="41.724961" lon="23.497118"><ele>2829</ele><time>2026-03-15T09:20:09.000Z</time></trkpt>
<trkpt lat="41.724962" lon="23.497117"><ele>2829</ele><time>2026-03-15T09:20:10.000Z</time></trkpt>
<trkpt lat="41.724963" lon="23.497116"><ele>2829.4</ele><time>2026-03-15T09:20:11.000Z</time></trkpt>
<trkpt lat="41.724964" lon="23.497113"><ele>2829.4</ele><time>2026-03-15T09:20:12.000Z</time></trkpt>
<trkpt lat="41.724966" lon="23.49711"><ele>2829.4</ele><time>2026-03-15T09:20:13.000Z</time></trkpt>
<trkpt lat="41.724967" lon="23.497106"><ele>2829.4</ele><time>2026-03-15T09:20:14.000Z</time></trkpt>
<trkpt lat="41.724969" lon="23.497103"><ele>2829.4</ele><time>2026-03-15T09:20:15.000Z</time></trkpt>
<trkpt lat="41.72497" lon="23.4971"><ele>2830.1</ele><time>2026-03-15T09:20:16.000Z</time></trkpt>
<trkpt lat="41.724972" lon="23.497097"><ele>2830.1</ele><time>2026-03-15T09:20:17.000Z</time></trkpt>
<trkpt lat="41.724972" lon="23.497094"><ele>2830.1</ele><time>2026-03-15T09:20:18.000Z</time></trkpt>
<trkpt lat="41.724973" lon="23.497092"><ele>2830.1</ele><time>2026-03-15T09:20:19.000Z</time></trkpt>
<trkpt lat="41.724973" lon="23.49709"><ele>2830.1</ele><time>2026-03-15T09:20:20.000Z</time></trkpt>
<trkpt lat="41.724973" lon="23.497089"><ele>2830.6</ele><time>2026-03-15T09:20:21.000Z</time></trkpt>
<trkpt lat="41.724973" lon="23.497088"><ele>2830.6</ele><time>2026-03-15T09:20:22.000Z</time></trkpt>
<trkpt lat="41.724973" lon="23.497087"><ele>2830.6</ele><time>2026-03-15T09:20:23.000Z</time></trkpt>
<trkpt lat="41.724973" lon="23.497087"><ele>2830.6</ele><time>2026-03-15T09:20:24.000Z</time></trkpt>
<trkpt lat="41.724973" lon="23.497086"><ele>2830.6</ele><time>2026-03-15T09:20:25.000Z</time></trkpt>
<trkpt lat="41.724972" lon="23.497086"><ele>2830.9</ele><time>2026-03-15T09:20:26.000Z</time></trkpt>
<trkpt lat="41.724972" lon="23.497087"><ele>2830.9</ele><time>2026-03-15T09:20:27.000Z</time></trkpt>
<trkpt lat="41.724972" lon="23.497087"><ele>2830.9</ele><time>2026-03-15T09:20:28.000Z</time></trkpt>
<trkpt lat="41.724971" lon="23.497088"><ele>2830.9</ele><time>2026-03-15T09:20:29.000Z</time></trkpt>
<trkpt lat="41.724971" lon="23.497088"><ele>2830.9</ele><time>2026-03-15T09:20:30.000Z</time></trkpt>
<trkpt lat="41.724971" lon="23.497088"><ele>2831.3</ele><time>2026-03-15T09:20:31.000Z</time></trkpt>
<trkpt lat="41.724971" lon="23.497088"><ele>2831.3</ele><time>2026-03-15T09:20:32.000Z</time></trkpt>
<trkpt lat="41.724971" lon="23.497087"><ele>2831.3</ele><time>2026-03-15T09:20:33.000Z</time></trkpt>
<trkpt lat="41.724972" lon="23.497085"><ele>2831.3</ele><time>2026-03-15T09:20:34.000Z</time></trkpt>
<trkpt lat="41.724972" lon="23.497082"><ele>2831.3</ele><time>2026-03-15T09:20:35.000Z</time></trkpt>
<trkpt lat="41.724973" lon="23.497079"><ele>2831.6</ele><time>2026-03-15T09:20:36.000Z</time></trkpt>
<trkpt lat="41.724973" lon="23.497075"><ele>2831.6</ele><time>2026-03-15T09:20:37.000Z</time></trkpt>
<trkpt lat="41.724975" lon="23.49707"><ele>2831.6</ele><time>2026-03-15T09:20:38.000Z</time></trkpt>
<trkpt lat="41.724975" lon="23.497066"><ele>2831.6</ele><time>2026-03-15T09:20:39.000Z</time></trkpt>
<trkpt lat="41.724977" lon="23.497062"><ele>2831.6</ele><time>2026-03-15T09:20:40.000Z</time></trkpt>
<trkpt lat="41.724977" lon="23.49706"><ele>2831.7</ele><time>2026-03-15T09:20:41.000Z</time></trkpt>
<trkpt lat="41.724979" lon="23.497057"><ele>2831.7</ele><time>2026-03-15T09:20:42.000Z</time></trkpt>
<trkpt lat="41.72498" lon="23.497054"><ele>2831.7</ele><time>2026-03-15T09:20:43.000Z</time></trkpt>
<trkpt lat="41.724981" lon="23.497052"><ele>2831.7</ele><time>2026-03-15T09:20:44.000Z</time></trkpt>
<trkpt lat="41.724981" lon="23.49705"><ele>2831.7</ele><time>2026-03-15T09:20:45.000Z</time></trkpt>
<trkpt lat="41.724982" lon="23.497046"><ele>2832</ele><time>2026-03-15T09:20:46.000Z</time></trkpt>
<trkpt lat="41.724983" lon="23.497043"><ele>2832</ele><time>2026-03-15T09:20:47.000Z</time></trkpt>
<trkpt lat="41.724985" lon="23.497041"><ele>2832</ele><time>2026-03-15T09:20:48.000Z</time></trkpt>
<trkpt lat="41.724986" lon="23.497038"><ele>2832</ele><time>2026-03-15T09:20:49.000Z</time></trkpt>
<trkpt lat="41.724988" lon="23.497035"><ele>2832</ele><time>2026-03-15T09:20:50.000Z</time></trkpt>
<trkpt lat="41.72499" lon="23.497032"><ele>2832.6</ele><time>2026-03-15T09:20:51.000Z</time></trkpt>
<trkpt lat="41.724991" lon="23.497027"><ele>2832.6</ele><time>2026-03-15T09:20:52.000Z</time></trkpt>
<trkpt lat="41.724993" lon="23.497022"><ele>2832.6</ele><time>2026-03-15T09:20:53.000Z</time></trkpt>
<trkpt lat="41.724995" lon="23.497016"><ele>2832.6</ele><time>2026-03-15T09:20:54.000Z</time></trkpt>
<trkpt lat="41.724996" lon="23.497012"><ele>2832.6</ele><time>2026-03-15T09:20:55.000Z</time></trkpt>
<trkpt lat="41.724998" lon="23.497007"><ele>2833</ele><time>2026-03-15T09:20:56.000Z</time></trkpt>
<trkpt lat="41.725" lon="23.497003"><ele>2833</ele><time>2026-03-15T09:20:57.000Z</time></trkpt>
<trkpt lat="41.725003" lon="23.497"><ele>2833</ele><time>2026-03-15T09:20:58.000Z</time></trkpt>
<trkpt lat="41.725006" lon="23.496997"><ele>2833</ele><time>2026-03-15T09:20:59.000Z</time></trkpt>
<trkpt lat="41.725009" lon="23.496994"><ele>2833</ele><time>2026-03-15T09:21:00.000Z</time></trkpt>
<trkpt lat="41.725012" lon="23.496991"><ele>2833.9</ele><time>2026-03-15T09:21:01.000Z</time></trkpt>
<trkpt lat="41.725014" lon="23.496988"><ele>2833.9</ele><time>2026-03-15T09:21:02.000Z</time></trkpt>
<trkpt lat="41.725017" lon="23.496985"><ele>2833.9</ele><time>2026-03-15T09:21:03.000Z</time></trkpt>
<trkpt lat="41.72502" lon="23.496981"><ele>2833.9</ele><time>2026-03-15T09:21:04.000Z</time></trkpt>
<trkpt lat="41.725023" lon="23.496978"><ele>2833.9</ele><time>2026-03-15T09:21:05.000Z</time></trkpt>
<trkpt lat="41.725026" lon="23.496976"><ele>2834.7</ele><time>2026-03-15T09:21:06.000Z</time></trkpt>
<trkpt lat="41.725029" lon="23.496975"><ele>2834.7</ele><time>2026-03-15T09:21:07.000Z</time></trkpt>
<trkpt lat="41.725032" lon="23.496974"><ele>2834.7</ele><time>2026-03-15T09:21:08.000Z</time></trkpt>
<trkpt lat="41.725034" lon="23.496973"><ele>2834.7</ele><time>2026-03-15T09:21:09.000Z</time></trkpt>
<trkpt lat="41.725037" lon="23.496972"><ele>2834.7</ele><time>2026-03-15T09:21:10.000Z</time></trkpt>
<trkpt lat="41.725041" lon="23.496971"><ele>2835.1</ele><time>2026-03-15T09:21:11.000Z</time></trkpt>
<trkpt lat="41.725044" lon="23.49697"><ele>2835.1</ele><time>2026-03-15T09:21:12.000Z</time></trkpt>
<trkpt lat="41.725046" lon="23.496967"><ele>2835.1</ele><time>2026-03-15T09:21:13.000Z</time></trkpt>
<trkpt lat="41.725048" lon="23.496964"><ele>2835.1</ele><time>2026-03-15T09:21:14.000Z</time></trkpt>
<trkpt lat="41.72505" lon="23.496959"><ele>2835.1</ele><time>2026-03-15T09:21:15.000Z</time></trkpt>
<trkpt lat="41.725051" lon="23.496954"><ele>2835.9</ele><time>2026-03-15T09:21:16.000Z</time></trkpt>
<trkpt lat="41.725054" lon="23.496948"><ele>2835.9</ele><time>2026-03-15T09:21:17.000Z</time></trkpt>
<trkpt lat="41.725056" lon="23.496944"><ele>2835.9</ele><time>2026-03-15T09:21:18.000Z</time></trkpt>
<trkpt lat="41.725059" lon="23.496941"><ele>2835.9</ele><time>2026-03-15T09:21:19.000Z</time></trkpt>
<trkpt lat="41.725061" lon="23.496939"><ele>2835.9</ele><time>2026-03-15T09:21:20.000Z</time></trkpt>
<trkpt lat="41.725064" lon="23.496936"><ele>2836.8</ele><time>2026-03-15T09:21:21.000Z</time></trkpt>
<trkpt lat="41.725066" lon="23.496934"><ele>2836.8</ele><time>2026-03-15T09:21:22.000Z</time></trkpt>
<trkpt lat="41.725068" lon="23.49693"><ele>2836.8</ele><time>2026-03-15T09:21:23.000Z</time></trkpt>
<trkpt lat="41.725069" lon="23.496926"><ele>2836.8</ele><time>2026-03-15T09:21:24.000Z</time></trkpt>
<trkpt lat="41.72507" lon="23.496922"><ele>2836.8</ele><time>2026-03-15T09:21:25.000Z</time></trkpt>
<trkpt lat="41.725072" lon="23.496917"><ele>2837.2</ele><time>2026-03-15T09:21:26.000Z</time></trkpt>
<trkpt lat="41.725073" lon="23.496913"><ele>2837.2</ele><time>2026-03-15T09:21:27.000Z</time></trkpt>
<trkpt lat="41.725074" lon="23.496908"><ele>2837.2</ele><time>2026-03-15T09:21:28.000Z</time></trkpt>
<trkpt lat="41.725075" lon="23.496902"><ele>2837.2</ele><time>2026-03-15T09:21:29.000Z</time></trkpt>
<trkpt lat="41.725077" lon="23.496897"><ele>2837.2</ele><time>2026-03-15T09:21:30.000Z</time></trkpt>
<trkpt lat="41.725078" lon="23.496891"><ele>2838.3</ele><time>2026-03-15T09:21:31.000Z</time></trkpt>
<trkpt lat="41.72508" lon="23.496885"><ele>2838.3</ele><time>2026-03-15T09:21:32.000Z</time></trkpt>
<trkpt lat="41.725082" lon="23.49688"><ele>2838.3</ele><time>2026-03-15T09:21:33.000Z</time></trkpt>
<trkpt lat="41.725085" lon="23.496875"><ele>2838.3</ele><time>2026-03-15T09:21:34.000Z</time></trkpt>
<trkpt lat="41.725087" lon="23.49687"><ele>2838.3</ele><time>2026-03-15T09:21:35.000Z</time></trkpt>
<trkpt lat="41.725089" lon="23.496866"><ele>2839.4</ele><time>2026-03-15T09:21:36.000Z</time></trkpt>
<trkpt lat="41.72509" lon="23.496861"><ele>2839.4</ele><time>2026-03-15T09:21:37.000Z</time></trkpt>
<trkpt lat="41.72509" lon="23.496857"><ele>2839.4</ele><time>2026-03-15T09:21:38.000Z</time></trkpt>
<trkpt lat="41.72509" lon="23.496853"><ele>2839.4</ele><time>2026-03-15T09:21:39.000Z</time></trkpt>
<trkpt lat="41.725091" lon="23.496849"><ele>2839.4</ele><time>2026-03-15T09:21:40.000Z</time></trkpt>
<trkpt lat="41.725091" lon="23.496846"><ele>2840</ele><time>2026-03-15T09:21:41.000Z</time></trkpt>
<trkpt lat="41.725092" lon="23.496843"><ele>2840</ele><time>2026-03-15T09:21:42.000Z</time></trkpt>
<trkpt lat="41.725093" lon="23.49684"><ele>2840</ele><time>2026-03-15T09:21:43.000Z</time></trkpt>
<trkpt lat="41.725094" lon="23.496838"><ele>2840</ele><time>2026-03-15T09:21:44.000Z</time></trkpt>
<trkpt lat="41.725095" lon="23.496835"><ele>2840</ele><time>2026-03-15T09:21:45.000Z</time></trkpt>
<trkpt lat="41.725096" lon="23.496832"><ele>2840.9</ele><time>2026-03-15T09:21:46.000Z</time></trkpt>
<trkpt lat="41.725098" lon="23.49683"><ele>2840.9</ele><time>2026-03-15T09:21:47.000Z</time></trkpt>
<trkpt lat="41.725099" lon="23.496827"><ele>2840.9</ele><time>2026-03-15T09:21:48.000Z</time></trkpt>
<trkpt lat="41.7251" lon="23.496823"><ele>2840.9</ele><time>2026-03-15T09:21:49.000Z</time></trkpt>
<trkpt lat="41.725102" lon="23.49682"><ele>2840.9</ele><time>2026-03-15T09:21:50.000Z</time></trkpt>
<trkpt lat="41.725103" lon="23.496816"><ele>2841.9</ele><time>2026-03-15T09:21:51.000Z</time></trkpt>
<trkpt lat="41.725104" lon="23.496812"><ele>2841.9</ele><time>2026-03-15T09:21:52.000Z</time></trkpt>
<trkpt lat="41.725104" lon="23.496808"><ele>2841.9</ele><time>2026-03-15T09:21:53.000Z</time></trkpt>
<trkpt lat="41.725105" lon="23.496802"><ele>2841.9</ele><time>2026-03-15T09:21:54.000Z</time></trkpt>
<trkpt lat="41.725106" lon="23.496797"><ele>2841.9</ele><time>2026-03-15T09:21:55.000Z</time></trkpt>
<trkpt lat="41.725107" lon="23.496791"><ele>2842.5</ele><time>2026-03-15T09:21:56.000Z</time></trkpt>
<trkpt lat="41.725108" lon="23.496786"><ele>2842.5</ele><time>2026-03-15T09:21:57.000Z</time></trkpt>
<trkpt lat="41.725111" lon="23.49678"><ele>2842.5</ele><time>2026-03-15T09:21:58.000Z</time></trkpt>
<trkpt lat="41.725113" lon="23.496775"><ele>2842.5</ele><time>2026-03-15T09:21:59.000Z</time></trkpt>
<trkpt lat="41.725116" lon="23.49677"><ele>2842.5</ele><time>2026-03-15T09:22:00.000Z</time></trkpt>
<trkpt lat="41.725119" lon="23.496767"><ele>2843.6</ele><time>2026-03-15T09:22:01.000Z</time></trkpt>
<trkpt lat="41.725122" lon="23.496762"><ele>2843.6</ele><time>2026-03-15T09:22:02.000Z</time></trkpt>
<trkpt lat="41.725123" lon="23.496759"><ele>2843.6</ele><time>2026-03-15T09:22:03.000Z</time></trkpt>
<trkpt lat="41.725126" lon="23.496755"><ele>2843.6</ele><time>2026-03-15T09:22:04.000Z</time></trkpt>
<trkpt lat="41.725127" lon="23.496751"><ele>2843.6</ele><time>2026-03-15T09:22:05.000Z</time></trkpt>
<trkpt lat="41.725128" lon="23.496747"><ele>2844.5</ele><time>2026-03-15T09:22:06.000Z</time></trkpt>
<trkpt lat="41.725129" lon="23.496742"><ele>2844.5</ele><time>2026-03-15T09:22:07.000Z</time></trkpt>
<trkpt lat="41.72513" lon="23.496738"><ele>2844.5</ele><time>2026-03-15T09:22:08.000Z</time></trkpt>
<trkpt lat="41.72513" lon="23.496734"><ele>2844.5</ele><time>2026-03-15T09:22:09.000Z</time></trkpt>
<trkpt lat="41.725131" lon="23.49673"><ele>2844.5</ele><time>2026-03-15T09:22:10.000Z</time></trkpt>
<trkpt lat="41.725132" lon="23.496726"><ele>2844.9</ele><time>2026-03-15T09:22:11.000Z</time></trkpt>
<trkpt lat="41.725132" lon="23.496724"><ele>2844.9</ele><time>2026-03-15T09:22:12.000Z</time></trkpt>
<trkpt lat="41.725133" lon="23.49672"><ele>2844.9</ele><time>2026-03-15T09:22:13.000Z</time></trkpt>
<trkpt lat="41.725133" lon="23.496716"><ele>2844.9</ele><time>2026-03-15T09:22:14.000Z</time></trkpt>
<trkpt lat="41.725134" lon="23.496712"><ele>2844.9</ele><time>2026-03-15T09:22:15.000Z</time></trkpt>
<trkpt lat="41.725133" lon="23.496708"><ele>2845.7</ele><time>2026-03-15T09:22:16.000Z</time></trkpt>
<trkpt lat="41.725132" lon="23.496704"><ele>2845.7</ele><time>2026-03-15T09:22:17.000Z</time></trkpt>
<trkpt lat="41.725131" lon="23.496701"><ele>2845.7</ele><time>2026-03-15T09:22:18.000Z</time></trkpt>
<trkpt lat="41.725131" lon="23.496696"><ele>2845.7</ele><time>2026-03-15T09:22:19.000Z</time></trkpt>
<trkpt lat="41.72513" lon="23.496692"><ele>2845.7</ele><time>2026-03-15T09:22:20.000Z</time></trkpt>
<trkpt lat="41.72513" lon="23.496687"><ele>2846.8</ele><time>2026-03-15T09:22:21.000Z</time></trkpt>
<trkpt lat="41.725131" lon="23.496681"><ele>2846.8</ele><time>2026-03-15T09:22:22.000Z</time></trkpt>
<trkpt lat="41.725132" lon="23.496675"><ele>2846.8</ele><time>2026-03-15T09:22:23.000Z</time></trkpt>
<trkpt lat="41.725133" lon="23.49667"><ele>2846.8</ele><time>2026-03-15T09:22:24.000Z</time></trkpt>
<trkpt lat="41.725135" lon="23.496667"><ele>2846.8</ele><time>2026-03-15T09:22:25.000Z</time></trkpt>
<trkpt lat="41.725137" lon="23.496665"><ele>2847.4</ele><time>2026-03-15T09:22:26.000Z</time></trkpt>
<trkpt lat="41.725138" lon="23.496663"><ele>2847.4</ele><time>2026-03-15T09:22:27.000Z</time></trkpt>
<trkpt lat="41.725139" lon="23.496661"><ele>2847.4</ele><time>2026-03-15T09:22:28.000Z</time></trkpt>
<trkpt lat="41.72514" lon="23.496659"><ele>2847.4</ele><time>2026-03-15T09:22:29.000Z</time></trkpt>
<trkpt lat="41.725142" lon="23.496656"><ele>2847.4</ele><time>2026-03-15T09:22:30.000Z</time></trkpt>
<trkpt lat="41.725143" lon="23.496653"><ele>2848.4</ele><time>2026-03-15T09:22:31.000Z</time></trkpt>
<trkpt lat="41.725144" lon="23.496649"><ele>2848.4</ele><time>2026-03-15T09:22:32.000Z</time></trkpt>
<trkpt lat="41.725145" lon="23.496645"><ele>2848.4</ele><time>2026-03-15T09:22:33.000Z</time></trkpt>
<trkpt lat="41.725146" lon="23.49664"><ele>2848.4</ele><time>2026-03-15T09:22:34.000Z</time></trkpt>
<trkpt lat="41.725147" lon="23.496635"><ele>2848.4</ele><time>2026-03-15T09:22:35.000Z</time></trkpt>
<trkpt lat="41.725147" lon="23.496628"><ele>2849.4</ele><time>2026-03-15T09:22:36.000Z</time></trkpt>
<trkpt lat="41.725148" lon="23.496622"><ele>2849.4</ele><time>2026-03-15T09:22:37.000Z</time></trkpt>
<trkpt lat="41.725149" lon="23.496615"><ele>2849.4</ele><time>2026-03-15T09:22:38.000Z</time></trkpt>
<trkpt lat="41.72515" lon="23.496609"><ele>2849.4</ele><time>2026-03-15T09:22:39.000Z</time></trkpt>
<trkpt lat="41.725151" lon="23.496605"><ele>2849.4</ele><time>2026-03-15T09:22:40.000Z</time></trkpt>
<trkpt lat="41.725152" lon="23.4966"><ele>2849.9</ele><time>2026-03-15T09:22:41.000Z</time></trkpt>
<trkpt lat="41.725153" lon="23.496596"><ele>2849.9</ele><time>2026-03-15T09:22:42.000Z</time></trkpt>
<trkpt lat="41.725153" lon="23.496591"><ele>2849.9</ele><time>2026-03-15T09:22:43.000Z</time></trkpt>
<trkpt lat="41.725154" lon="23.496587"><ele>2849.9</ele><time>2026-03-15T09:22:44.000Z</time></trkpt>
<trkpt lat="41.725154" lon="23.496581"><ele>2849.9</ele><time>2026-03-15T09:22:45.000Z</time></trkpt>
<trkpt lat="41.725154" lon="23.496577"><ele>2851</ele><time>2026-03-15T09:22:46.000Z</time></trkpt>
<trkpt lat="41.725154" lon="23.496572"><ele>2851</ele><time>2026-03-15T09:22:47.000Z</time></trkpt>
<trkpt lat="41.725154" lon="23.496567"><ele>2851</ele><time>2026-03-15T09:22:48.000Z</time></trkpt>
<trkpt lat="41.725154" lon="23.496562"><ele>2851</ele><time>2026-03-15T09:22:49.000Z</time></trkpt>
<trkpt lat="41.725155" lon="23.496556"><ele>2851</ele><time>2026-03-15T09:22:50.000Z</time></trkpt>
<trkpt lat="41.725155" lon="23.49655"><ele>2852.2</ele><time>2026-03-15T09:22:51.000Z</time></trkpt>
<trkpt lat="41.725156" lon="23.496545"><ele>2852.2</ele><time>2026-03-15T09:22:52.000Z</time></trkpt>
<trkpt lat="41.725156" lon="23.496539"><ele>2852.2</ele><time>2026-03-15T09:22:53.000Z</time></trkpt>
<trkpt lat="41.725157" lon="23.496534"><ele>2852.2</ele><time>2026-03-15T09:22:54.000Z</time></trkpt>
<trkpt lat="41.725158" lon="23.496528"><ele>2852.2</ele><time>2026-03-15T09:22:55.000Z</time></trkpt>
<trkpt lat="41.725158" lon="23.496522"><ele>2852.7</ele><time>2026-03-15T09:22:56.000Z</time></trkpt>
<trkpt lat="41.725158" lon="23.496515"><ele>2852.7</ele><time>2026-03-15T09:22:57.000Z</time></trkpt>
<trkpt lat="41.725158" lon="23.496508"><ele>2852.7</ele><time>2026-03-15T09:22:58.000Z</time></trkpt>
<trkpt lat="41.725157" lon="23.496501"><ele>2852.7</ele><time>2026-03-15T09:22:59.000Z</time></trkpt>
<trkpt lat="41.725158" lon="23.496493"><ele>2852.7</ele><time>2026-03-15T09:23:00.000Z</time></trkpt>
<trkpt lat="41.725159" lon="23.496486"><ele>2853.5</ele><time>2026-03-15T09:23:01.000Z</time></trkpt>
<trkpt lat="41.725161" lon="23.496479"><ele>2853.5</ele><time>2026-03-15T09:23:02.000Z</time></trkpt>
<trkpt lat="41.725162" lon="23.496471"><ele>2853.5</ele><time>2026-03-15T09:23:03.000Z</time></trkpt>
<trkpt lat="41.725164" lon="23.496462"><ele>2853.5</ele><time>2026-03-15T09:23:04.000Z</time></trkpt>
<trkpt lat="41.725165" lon="23.496453"><ele>2853.5</ele><time>2026-03-15T09:23:05.000Z</time></trkpt>
<trkpt lat="41.725165" lon="23.496444"><ele>2854.4</ele><time>2026-03-15T09:23:06.000Z</time></trkpt>
<trkpt lat="41.725166" lon="23.496434"><ele>2854.4</ele><time>2026-03-15T09:23:07.000Z</time></trkpt>
<trkpt lat="41.725166" lon="23.496425"><ele>2854.4</ele><time>2026-03-15T09:23:08.000Z</time></trkpt>
<trkpt lat="41.725166" lon="23.496415"><ele>2854.4</ele><time>2026-03-15T09:23:09.000Z</time></trkpt>
<trkpt lat="41.725164" lon="23.496406"><ele>2854.4</ele><time>2026-03-15T09:23:10.000Z</time></trkpt>
<trkpt lat="41.725163" lon="23.496396"><ele>2854.9</ele><time>2026-03-15T09:23:11.000Z</time></trkpt>
<trkpt lat="41.725161" lon="23.496386"><ele>2854.9</ele><time>2026-03-15T09:23:12.000Z</time></trkpt>
<trkpt lat="41.725159" lon="23.496376"><ele>2854.9</ele><time>2026-03-15T09:23:13.000Z</time></trkpt>
<trkpt lat="41.725157" lon="23.496366"><ele>2854.9</ele><time>2026-03-15T09:23:14.000Z</time></trkpt>
<trkpt lat="41.725156" lon="23.496356"><ele>2854.9</ele><time>2026-03-15T09:23:15.000Z</time></trkpt>
<trkpt lat="41.725155" lon="23.496347"><ele>2855.9</ele><time>2026-03-15T09:23:16.000Z</time></trkpt>
<trkpt lat="41.725156" lon="23.496338"><ele>2855.9</ele><time>2026-03-15T09:23:17.000Z</time></trkpt>
<trkpt lat="41.725156" lon="23.496328"><ele>2855.9</ele><time>2026-03-15T09:23:18.000Z</time></trkpt>
<trkpt lat="41.725156" lon="23.496319"><ele>2855.9</ele><time>2026-03-15T09:23:19.000Z</time></trkpt>
<trkpt lat="41.725158" lon="23.496308"><ele>2855.9</ele><time>2026-03-15T09:23:20.000Z</time></trkpt>
<trkpt lat="41.72516" lon="23.496297"><ele>2856.7</ele><time>2026-03-15T09:23:21.000Z</time></trkpt>
<trkpt lat="41.725162" lon="23.496286"><ele>2856.7</ele><time>2026-03-15T09:23:22.000Z</time></trkpt>
<trkpt lat="41.725164" lon="23.496277"><ele>2856.7</ele><time>2026-03-15T09:23:23.000Z</time></trkpt>
<trkpt lat="41.725167" lon="23.496268"><ele>2856.7</ele><time>2026-03-15T09:23:24.000Z</time></trkpt>
<trkpt lat="41.725169" lon="23.49626"><ele>2856.7</ele><time>2026-03-15T09:23:25.000Z</time></trkpt>
<trkpt lat="41.72517" lon="23.496253"><ele>2856.9</ele><time>2026-03-15T09:23:26.000Z</time></trkpt>
<trkpt lat="41.725172" lon="23.496244"><ele>2856.9</ele><time>2026-03-15T09:23:27.000Z</time></trkpt>
<trkpt lat="41.725173" lon="23.496236"><ele>2856.9</ele><time>2026-03-15T09:23:28.000Z</time></trkpt>
<trkpt lat="41.725174" lon="23.496226"><ele>2856.9</ele><time>2026-03-15T09:23:29.000Z</time></trkpt>
<trkpt lat="41.725174" lon="23.496217"><ele>2856.9</ele><time>2026-03-15T09:23:30.000Z</time></trkpt>
<trkpt lat="41.725175" lon="23.496207"><ele>2857.2</ele><time>2026-03-15T09:23:31.000Z</time></trkpt>
<trkpt lat="41.725176" lon="23.496198"><ele>2857.2</ele><time>2026-03-15T09:23:32.000Z</time></trkpt>
<trkpt lat="41.725178" lon="23.49619"><ele>2857.2</ele><time>2026-03-15T09:23:33.000Z</time></trkpt>
<trkpt lat="41.725179" lon="23.496183"><ele>2857.2</ele><time>2026-03-15T09:23:34.000Z</time></trkpt>
<trkpt lat="41.725181" lon="23.496178"><ele>2857.2</ele><time>2026-03-15T09:23:35.000Z</time></trkpt>
<trkpt lat="41.725183" lon="23.496175"><ele>2857.5</ele><time>2026-03-15T09:23:36.000Z</time></trkpt>
<trkpt lat="41.725183" lon="23.496173"><ele>2857.5</ele><time>2026-03-15T09:23:37.000Z</time></trkpt>
<trkpt lat="41.725184" lon="23.496172"><ele>2857.5</ele><time>2026-03-15T09:23:38.000Z</time></trkpt>
<trkpt lat="41.725185" lon="23.496173"><ele>2857.5</ele><time>2026-03-15T09:23:39.000Z</time></trkpt>
<trkpt lat="41.725185" lon="23.496174"><ele>2857.5</ele><time>2026-03-15T09:23:40.000Z</time></trkpt>
<trkpt lat="41.725186" lon="23.496175"><ele>2857.7</ele><time>2026-03-15T09:23:41.000Z</time></trkpt>
<trkpt lat="41.725186" lon="23.496175"><ele>2857.7</ele><time>2026-03-15T09:23:42.000Z</time></trkpt>
<trkpt lat="41.725186" lon="23.496175"><ele>2857.7</ele><time>2026-03-15T09:23:43.000Z</time></trkpt>
<trkpt lat="41.725186" lon="23.496176"><ele>2857.7</ele><time>2026-03-15T09:23:44.000Z</time></trkpt>
<trkpt lat="41.725186" lon="23.496176"><ele>2857.7</ele><time>2026-03-15T09:23:45.000Z</time></trkpt>
<trkpt lat="41.725186" lon="23.496176"><ele>2858</ele><time>2026-03-15T09:23:46.000Z</time></trkpt>
<trkpt lat="41.725186" lon="23.496177"><ele>2858</ele><time>2026-03-15T09:23:47.000Z</time></trkpt>
<trkpt lat="41.725186" lon="23.496177"><ele>2858</ele><time>2026-03-15T09:23:48.000Z</time></trkpt>
<trkpt lat="41.725186" lon="23.496177"><ele>2858</ele><time>2026-03-15T09:23:49.000Z</time></trkpt>
<trkpt lat="41.725185" lon="23.496177"><ele>2858</ele><time>2026-03-15T09:23:50.000Z</time></trkpt>
<trkpt lat="41.725182" lon="23.496177"><ele>2858.2</ele><time>2026-03-15T09:23:51.000Z</time></trkpt>
<trkpt lat="41.725179" lon="23.496177"><ele>2858.2</ele><time>2026-03-15T09:23:52.000Z</time></trkpt>
<trkpt lat="41.725177" lon="23.496175"><ele>2858.2</ele><time>2026-03-15T09:23:53.000Z</time></trkpt>
<trkpt lat="41.725174" lon="23.496174"><ele>2858.2</ele><time>2026-03-15T09:23:54.000Z</time></trkpt>
<trkpt lat="41.725173" lon="23.496172"><ele>2858.2</ele><time>2026-03-15T09:23:55.000Z</time></trkpt>
<trkpt lat="41.725173" lon="23.496171"><ele>2858.2</ele><time>2026-03-15T09:23:56.000Z</time></trkpt>
<trkpt lat="41.725173" lon="23.496171"><ele>2858.2</ele><time>2026-03-15T09:23:57.000Z</time></trkpt>
<trkpt lat="41.725173" lon="23.496172"><ele>2858.2</ele><time>2026-03-15T09:23:58.000Z</time></trkpt>
<trkpt lat="41.725172" lon="23.496172"><ele>2858.2</ele><time>2026-03-15T09:23:59.000Z</time></trkpt>
<trkpt lat="41.725172" lon="23.496173"><ele>2858.2</ele><time>2026-03-15T09:24:00.000Z</time></trkpt>
<trkpt lat="41.725172" lon="23.496174"><ele>2858.2</ele><time>2026-03-15T09:24:01.000Z</time></trkpt>
<trkpt lat="41.725172" lon="23.496174"><ele>2858.2</ele><time>2026-03-15T09:24:02.000Z</time></trkpt>
<trkpt lat="41.725172" lon="23.496174"><ele>2858.2</ele><time>2026-03-15T09:24:03.000Z</time></trkpt>
<trkpt lat="41.725172" lon="23.496174"><ele>2858.2</ele><time>2026-03-15T09:24:04.000Z</time></trkpt>
<trkpt lat="41.725172" lon="23.496174"><ele>2858.2</ele><time>2026-03-15T09:24:05.000Z</time></trkpt>
<trkpt lat="41.725172" lon="23.496174"><ele>2858.1</ele><time>2026-03-15T09:24:06.000Z</time></trkpt>
<trkpt lat="41.725173" lon="23.496173"><ele>2858.1</ele><time>2026-03-15T09:24:07.000Z</time></trkpt>
<trkpt lat="41.725173" lon="23.496173"><ele>2858.1</ele><time>2026-03-15T09:24:08.000Z</time></trkpt>
<trkpt lat="41.725173" lon="23.496173"><ele>2858.1</ele><time>2026-03-15T09:24:09.000Z</time></trkpt>
<trkpt lat="41.725172" lon="23.496173"><ele>2858.1</ele><time>2026-03-15T09:24:10.000Z</time></trkpt>
<trkpt lat="41.725172" lon="23.496173"><ele>2858</ele><time>2026-03-15T09:24:11.000Z</time></trkpt>
<trkpt lat="41.725172" lon="23.496173"><ele>2858</ele><time>2026-03-15T09:24:12.000Z</time></trkpt>
<trkpt lat="41.725171" lon="23.496173"><ele>2858</ele><time>2026-03-15T09:24:13.000Z</time></trkpt>
<trkpt lat="41.725171" lon="23.496174"><ele>2858</ele><time>2026-03-15T09:24:14.000Z</time></trkpt>
<trkpt lat="41.72517" lon="23.496174"><ele>2858</ele><time>2026-03-15T09:24:15.000Z</time></trkpt>
<trkpt lat="41.72517" lon="23.496174"><ele>2857.9</ele><time>2026-03-15T09:24:16.000Z</time></trkpt>
<trkpt lat="41.72517" lon="23.496174"><ele>2857.9</ele><time>2026-03-15T09:24:17.000Z</time></trkpt>
<trkpt lat="41.725171" lon="23.496175"><ele>2857.9</ele><time>2026-03-15T09:24:18.000Z</time></trkpt>
<trkpt lat="41.725172" lon="23.496175"><ele>2857.9</ele><time>2026-03-15T09:24:19.000Z</time></trkpt>
<trkpt lat="41.725173" lon="23.496177"><ele>2857.9</ele><time>2026-03-15T09:24:20.000Z</time></trkpt>
<trkpt lat="41.725174" lon="23.496178"><ele>2857.7</ele><time>2026-03-15T09:24:21.000Z</time></trkpt>
<trkpt lat="41.725174" lon="23.49618"><ele>2857.7</ele><time>2026-03-15T09:24:22.000Z</time></trkpt>
<trkpt lat="41.725173" lon="23.496178"><ele>2857.7</ele><time>2026-03-15T09:24:23.000Z</time></trkpt>
<trkpt lat="41.725171" lon="23.496175"><ele>2857.7</ele><time>2026-03-15T09:24:24.000Z</time></trkpt>
<trkpt lat="41.72517" lon="23.49617"><ele>2857.7</ele><time>2026-03-15T09:24:25.000Z</time></trkpt>
<trkpt lat="41.725171" lon="23.496164"><ele>2857.7</ele><time>2026-03-15T09:24:26.000Z</time></trkpt>
<trkpt lat="41.725171" lon="23.496161"><ele>2857.7</ele><time>2026-03-15T09:24:27.000Z</time></trkpt>
<trkpt lat="41.725173" lon="23.496159"><ele>2857.7</ele><time>2026-03-15T09:24:28.000Z</time></trkpt>
<trkpt lat="41.725174" lon="23.49616"><ele>2857.7</ele><time>2026-03-15T09:24:29.000Z</time></trkpt>
<trkpt lat="41.725174" lon="23.496162"><ele>2857.7</ele><time>2026-03-15T09:24:30.000Z</time></trkpt>
<trkpt lat="41.725173" lon="23.496165"><ele>2857.9</ele><time>2026-03-15T09:24:31.000Z</time></trkpt>
<trkpt lat="41.725173" lon="23.496167"><ele>2857.9</ele><time>2026-03-15T09:24:32.000Z</time></trkpt>
<trkpt lat="41.725173" lon="23.496168"><ele>2857.9</ele><time>2026-03-15T09:24:33.000Z</time></trkpt>
<trkpt lat="41.725172" lon="23.496169"><ele>2857.9</ele><time>2026-03-15T09:24:34.000Z</time></trkpt>
<trkpt lat="41.725172" lon="23.496169"><ele>2857.9</ele><time>2026-03-15T09:24:35.000Z</time></trkpt>
<trkpt lat="41.725172" lon="23.49617"><ele>2858</ele><time>2026-03-15T09:24:36.000Z</time></trkpt>
<trkpt lat="41.725172" lon="23.49617"><ele>2858</ele><time>2026-03-15T09:24:37.000Z</time></trkpt>
<trkpt lat="41.725172" lon="23.49617"><ele>2858</ele><time>2026-03-15T09:24:38.000Z</time></trkpt>
<trkpt lat="41.725172" lon="23.49617"><ele>2858</ele><time>2026-03-15T09:24:39.000Z</time></trkpt>
<trkpt lat="41.725172" lon="23.49617"><ele>2858</ele><time>2026-03-15T09:24:40.000Z</time></trkpt>
<trkpt lat="41.725172" lon="23.49617"><ele>2858</ele><time>2026-03-15T09:24:41.000Z</time></trkpt>
<trkpt lat="41.725173" lon="23.49617"><ele>2858</ele><time>2026-03-15T09:24:42.000Z</time></trkpt>
<trkpt lat="41.725173" lon="23.49617"><ele>2858</ele><time>2026-03-15T09:24:43.000Z</time></trkpt>
<trkpt lat="41.725174" lon="23.496171"><ele>2858</ele><time>2026-03-15T09:24:44.000Z</time></trkpt>
<trkpt lat="41.725176" lon="23.496174"><ele>2858</ele><time>2026-03-15T09:24:45.000Z</time></trkpt>
<trkpt lat="41.725177" lon="23.496178"><ele>2857.9</ele><time>2026-03-15T09:24:46.000Z</time></trkpt>
<trkpt lat="41.725179" lon="23.496184"><ele>2857.9</ele><time>2026-03-15T09:24:47.000Z</time></trkpt>
<trkpt lat="41.72518" lon="23.49619"><ele>2857.9</ele><time>2026-03-15T09:24:48.000Z</time></trkpt>
<trkpt lat="41.725181" lon="23.496194"><ele>2857.9</ele><time>2026-03-15T09:24:49.000Z</time></trkpt>
<trkpt lat="41.725181" lon="23.496198"><ele>2857.9</ele><time>2026-03-15T09:24:50.000Z</time></trkpt>
<trkpt lat="41.72518" lon="23.496199"><ele>2858</ele><time>2026-03-15T09:24:51.000Z</time></trkpt>
<trkpt lat="41.725179" lon="23.4962"><ele>2858</ele><time>2026-03-15T09:24:52.000Z</time></trkpt>
<trkpt lat="41.725178" lon="23.496201"><ele>2858</ele><time>2026-03-15T09:24:53.000Z</time></trkpt>
<trkpt lat="41.725177" lon="23.496203"><ele>2858</ele><time>2026-03-15T09:24:54.000Z</time></trkpt>
<trkpt lat="41.725176" lon="23.496203"><ele>2858</ele><time>2026-03-15T09:24:55.000Z</time></trkpt>
<trkpt lat="41.725175" lon="23.496204"><ele>2858.1</ele><time>2026-03-15T09:24:56.000Z</time></trkpt>
<trkpt lat="41.725174" lon="23.496204"><ele>2858.1</ele><time>2026-03-15T09:24:57.000Z</time></trkpt>
<trkpt lat="41.725173" lon="23.496205"><ele>2858.1</ele><time>2026-03-15T09:24:58.000Z</time></trkpt>
<trkpt lat="41.725173" lon="23.496204"><ele>2858.1</ele><time>2026-03-15T09:24:59.000Z</time></trkpt>
<trkpt lat="41.725173" lon="23.496204"><ele>2858.1</ele><time>2026-03-15T09:25:00.000Z</time></trkpt>
<trkpt lat="41.725173" lon="23.496203"><ele>2858.4</ele><time>2026-03-15T09:25:01.000Z</time></trkpt>
<trkpt lat="41.725173" lon="23.496203"><ele>2858.4</ele><time>2026-03-15T09:25:02.000Z</time></trkpt>
<trkpt lat="41.725173" lon="23.496202"><ele>2858.4</ele><time>2026-03-15T09:25:03.000Z</time></trkpt>
<trkpt lat="41.725174" lon="23.496201"><ele>2858.4</ele><time>2026-03-15T09:25:04.000Z</time></trkpt>
<trkpt lat="41.725175" lon="23.496201"><ele>2858.4</ele><time>2026-03-15T09:25:05.000Z</time></trkpt>
<trkpt lat="41.725175" lon="23.4962"><ele>2858.9</ele><time>2026-03-15T09:25:06.000Z</time></trkpt>
<trkpt lat="41.725176" lon="23.496199"><ele>2858.9</ele><time>2026-03-15T09:25:07.000Z</time></trkpt>
<trkpt lat="41.725176" lon="23.4962"><ele>2858.9</ele><time>2026-03-15T09:25:08.000Z</time></trkpt>
<trkpt lat="41.725175" lon="23.496201"><ele>2858.9</ele><time>2026-03-15T09:25:09.000Z</time></trkpt>
<trkpt lat="41.725174" lon="23.496201"><ele>2858.9</ele><time>2026-03-15T09:25:10.000Z</time></trkpt>
<trkpt lat="41.725174" lon="23.496201"><ele>2859</ele><time>2026-03-15T09:25:11.000Z</time></trkpt>
<trkpt lat="41.725174" lon="23.496201"><ele>2859</ele><time>2026-03-15T09:25:12.000Z</time></trkpt>
<trkpt lat="41.725175" lon="23.496201"><ele>2859</ele><time>2026-03-15T09:25:13.000Z</time></trkpt>
<trkpt lat="41.725177" lon="23.4962"><ele>2859</ele><time>2026-03-15T09:25:14.000Z</time></trkpt>
<trkpt lat="41.725178" lon="23.4962"><ele>2859</ele><time>2026-03-15T09:25:15.000Z</time></trkpt>
<trkpt lat="41.725178" lon="23.4962"><ele>2859.1</ele><time>2026-03-15T09:25:16.000Z</time></trkpt>
<trkpt lat="41.725177" lon="23.496201"><ele>2859.1</ele><time>2026-03-15T09:25:17.000Z</time></trkpt>
<trkpt lat="41.725176" lon="23.496201"><ele>2859.1</ele><time>2026-03-15T09:25:18.000Z</time></trkpt>
<trkpt lat="41.725175" lon="23.4962"><ele>2859.1</ele><time>2026-03-15T09:25:19.000Z</time></trkpt>
<trkpt lat="41.725174" lon="23.496199"><ele>2859.1</ele><time>2026-03-15T09:25:20.000Z</time></trkpt>
<trkpt lat="41.725174" lon="23.496199"><ele>2859</ele><time>2026-03-15T09:25:21.000Z</time></trkpt>
<trkpt lat="41.725174" lon="23.496199"><ele>2859</ele><time>2026-03-15T09:25:22.000Z</time></trkpt>
<trkpt lat="41.725175" lon="23.496199"><ele>2859</ele><time>2026-03-15T09:25:23.000Z</time></trkpt>
<trkpt lat="41.725175" lon="23.4962"><ele>2859</ele><time>2026-03-15T09:25:24.000Z</time></trkpt>
<trkpt lat="41.725175" lon="23.4962"><ele>2859</ele><time>2026-03-15T09:25:25.000Z</time></trkpt>
<trkpt lat="41.725175" lon="23.4962"><ele>2859</ele><time>2026-03-15T09:25:26.000Z</time></trkpt>
<trkpt lat="41.725175" lon="23.4962"><ele>2859</ele><time>2026-03-15T09:25:27.000Z</time></trkpt>
<trkpt lat="41.725175" lon="23.4962"><ele>2859</ele><time>2026-03-15T09:25:28.000Z</time></trkpt>
<trkpt lat="41.725175" lon="23.4962"><ele>2859</ele><time>2026-03-15T09:25:29.000Z</time></trkpt>
<trkpt lat="41.725175" lon="23.4962"><ele>2859</ele><time>2026-03-15T09:25:30.000Z</time></trkpt>
<trkpt lat="41.725175" lon="23.4962"><ele>2859.2</ele><time>2026-03-15T09:25:31.000Z</time></trkpt>
<trkpt lat="41.725175" lon="23.4962"><ele>2859.2</ele><time>2026-03-15T09:25:32.000Z</time></trkpt>
<trkpt lat="41.725175" lon="23.4962"><ele>2859.2</ele><time>2026-03-15T09:25:33.000Z</time></trkpt>
<trkpt lat="41.725175" lon="23.4962"><ele>2859.2</ele><time>2026-03-15T09:25:34.000Z</time></trkpt>
<trkpt lat="41.725175" lon="23.4962"><ele>2859.2</ele><time>2026-03-15T09:25:35.000Z</time></trkpt>
<trkpt lat="41.725175" lon="23.4962"><ele>2859.2</ele><time>2026-03-15T09:25:36.000Z</time></trkpt>
<trkpt lat="41.725175" lon="23.4962"><ele>2859.2</ele><time>2026-03-15T09:25:37.000Z</time></trkpt>
<trkpt lat="41.725175" lon="23.4962"><ele>2859.2</ele><time>2026-03-15T09:25:38.000Z</time></trkpt>
<trkpt lat="41.725175" lon="23.4962"><ele>2859.2</ele><time>2026-03-15T09:25:39.000Z</time></trkpt>
<trkpt lat="41.725175" lon="23.4962"><ele>2859.2</ele><time>2026-03-15T09:25:40.000Z</time></trkpt>
<trkpt lat="41.725175" lon="23.4962"><ele>2859.2</ele><time>2026-03-15T09:25:41.000Z</time></trkpt>
<trkpt lat="41.725175" lon="23.4962"><ele>2859.2</ele><time>2026-03-15T09:25:42.000Z</time></trkpt>
<trkpt lat="41.725175" lon="23.4962"><ele>2859.2</ele><time>2026-03-15T09:25:43.000Z</time></trkpt>
<trkpt lat="41.725175" lon="23.4962"><ele>2859.2</ele><time>2026-03-15T09:25:44.000Z</time></trkpt>
<trkpt lat="41.725175" lon="23.4962"><ele>2859.2</ele><time>2026-03-15T09:25:45.000Z</time></trkpt>
<trkpt lat="41.725175" lon="23.4962"><ele>2859.2</ele><time>2026-03-15T09:25:46.000Z</time></trkpt>
<trkpt lat="41.725175" lon="23.4962"><ele>2859.2</ele><time>2026-03-15T09:25:47.000Z</time></trkpt>
<trkpt lat="41.725175" lon="23.4962"><ele>2859.2</ele><time>2026-03-15T09:25:48.000Z</time></trkpt>
<trkpt lat="41.725175" lon="23.4962"><ele>2859.2</ele><time>2026-03-15T09:25:49.000Z</time></trkpt>
<trkpt lat="41.725175" lon="23.4962"><ele>2859.2</ele><time>2026-03-15T09:25:50.000Z</time></trkpt>
<trkpt lat="41.725175" lon="23.4962"><ele>2859.2</ele><time>2026-03-15T09:25:51.000Z</time></trkpt>
<trkpt lat="41.725175" lon="23.4962"><ele>2859.2</ele><time>2026-03-15T09:25:52.000Z</time></trkpt>
<trkpt lat="41.725175" lon="23.4962"><ele>2859.2</ele><time>2026-03-15T09:25:53.000Z</time></trkpt>
<trkpt lat="41.725176" lon="23.4962"><ele>2859.2</ele><time>2026-03-15T09:25:54.000Z</time></trkpt>
<trkpt lat="41.725176" lon="23.4962"><ele>2859.2</ele><time>2026-03-15T09:25:55.000Z</time></trkpt>
<trkpt lat="41.725176" lon="23.4962"><ele>2859.1</ele><time>2026-03-15T09:25:56.000Z</time></trkpt>
<trkpt lat="41.725176" lon="23.4962"><ele>2859.1</ele><time>2026-03-15T09:25:57.000Z</time></trkpt>
<trkpt lat="41.725176" lon="23.496199"><ele>2859.1</ele><time>2026-03-15T09:25:58.000Z</time></trkpt>
<trkpt lat="41.725176" lon="23.496199"><ele>2859.1</ele><time>2026-03-15T09:25:59.000Z</time></trkpt>
<trkpt lat="41.725175" lon="23.496199"><ele>2859.1</ele><time>2026-03-15T09:26:00.000Z</time></trkpt>
<trkpt lat="41.725175" lon="23.496198"><ele>2858.9</ele><time>2026-03-15T09:26:01.000Z</time></trkpt>
<trkpt lat="41.725176" lon="23.496198"><ele>2858.9</ele><time>2026-03-15T09:26:02.000Z</time></trkpt>
<trkpt lat="41.725176" lon="23.496199"><ele>2858.9</ele><time>2026-03-15T09:26:03.000Z</time></trkpt>
<trkpt lat="41.725177" lon="23.496199"><ele>2858.9</ele><time>2026-03-15T09:26:04.000Z</time></trkpt>
<trkpt lat="41.725177" lon="23.496199"><ele>2858.9</ele><time>2026-03-15T09:26:05.000Z</time></trkpt>
<trkpt lat="41.725178" lon="23.496199"><ele>2858.7</ele><time>2026-03-15T09:26:06.000Z</time></trkpt>
<trkpt lat="41.725178" lon="23.496199"><ele>2858.7</ele><time>2026-03-15T09:26:07.000Z</time></trkpt>
<trkpt lat="41.725178" lon="23.496199"><ele>2858.7</ele><time>2026-03-15T09:26:08.000Z</time></trkpt>
<trkpt lat="41.725178" lon="23.496199"><ele>2858.7</ele><time>2026-03-15T09:26:09.000Z</time></trkpt>
<trkpt lat="41.725178" lon="23.496199"><ele>2858.7</ele><time>2026-03-15T09:26:10.000Z</time></trkpt>
<trkpt lat="41.725178" lon="23.496199"><ele>2858.7</ele><time>2026-03-15T09:26:11.000Z</time></trkpt>
<trkpt lat="41.725178" lon="23.496199"><ele>2858.7</ele><time>2026-03-15T09:26:12.000Z</time></trkpt>
<trkpt lat="41.725178" lon="23.496199"><ele>2858.7</ele><time>2026-03-15T09:26:13.000Z</time></trkpt>
<trkpt lat="41.725178" lon="23.496199"><ele>2858.7</ele><time>2026-03-15T09:26:14.000Z</time></trkpt>
<trkpt lat="41.725178" lon="23.496199"><ele>2858.7</ele><time>2026-03-15T09:26:15.000Z</time></trkpt>
<trkpt lat="41.725178" lon="23.496199"><ele>2858.7</ele><time>2026-03-15T09:26:16.000Z</time></trkpt>
<trkpt lat="41.725178" lon="23.496199"><ele>2858.7</ele><time>2026-03-15T09:26:17.000Z</time></trkpt>
<trkpt lat="41.725178" lon="23.496199"><ele>2858.7</ele><time>2026-03-15T09:26:18.000Z</time></trkpt>
<trkpt lat="41.725178" lon="23.496199"><ele>2858.7</ele><time>2026-03-15T09:26:19.000Z</time></trkpt>
<trkpt lat="41.725178" lon="23.496199"><ele>2858.7</ele><time>2026-03-15T09:26:20.000Z</time></trkpt>
<trkpt lat="41.725178" lon="23.496199"><ele>2858.9</ele><time>2026-03-15T09:26:21.000Z</time></trkpt>
<trkpt lat="41.725178" lon="23.496199"><ele>2858.9</ele><time>2026-03-15T09:26:22.000Z</time></trkpt>
<trkpt lat="41.725178" lon="23.496198"><ele>2858.9</ele><time>2026-03-15T09:26:23.000Z</time></trkpt>
<trkpt lat="41.725176" lon="23.496197"><ele>2858.9</ele><time>2026-03-15T09:26:24.000Z</time></trkpt>
<trkpt lat="41.725175" lon="23.496195"><ele>2858.9</ele><time>2026-03-15T09:26:25.000Z</time></trkpt>
<trkpt lat="41.725174" lon="23.496193"><ele>2859</ele><time>2026-03-15T09:26:26.000Z</time></trkpt>
<trkpt lat="41.725173" lon="23.49619"><ele>2859</ele><time>2026-03-15T09:26:27.000Z</time></trkpt>
<trkpt lat="41.725172" lon="23.496188"><ele>2859</ele><time>2026-03-15T09:26:28.000Z</time></trkpt>
<trkpt lat="41.725172" lon="23.496187"><ele>2859</ele><time>2026-03-15T09:26:29.000Z</time></trkpt>
<trkpt lat="41.725171" lon="23.496186"><ele>2859</ele><time>2026-03-15T09:26:30.000Z</time></trkpt>
<trkpt lat="41.725171" lon="23.496186"><ele>2859.1</ele><time>2026-03-15T09:26:31.000Z</time></trkpt>
<trkpt lat="41.72517" lon="23.496185"><ele>2859.1</ele><time>2026-03-15T09:26:32.000Z</time></trkpt>
<trkpt lat="41.725169" lon="23.496183"><ele>2859.1</ele><time>2026-03-15T09:26:33.000Z</time></trkpt>
<trkpt lat="41.725168" lon="23.496178"><ele>2859.1</ele><time>2026-03-15T09:26:34.000Z</time></trkpt>
<trkpt lat="41.725168" lon="23.496171"><ele>2859.1</ele><time>2026-03-15T09:26:35.000Z</time></trkpt>
<trkpt lat="41.725167" lon="23.496163"><ele>2858.9</ele><time>2026-03-15T09:26:36.000Z</time></trkpt>
<trkpt lat="41.725168" lon="23.496156"><ele>2858.9</ele><time>2026-03-15T09:26:37.000Z</time></trkpt>
<trkpt lat="41.725168" lon="23.49615"><ele>2858.9</ele><time>2026-03-15T09:26:38.000Z</time></trkpt>
<trkpt lat="41.725168" lon="23.496146"><ele>2858.9</ele><time>2026-03-15T09:26:39.000Z</time></trkpt>
<trkpt lat="41.725168" lon="23.496142"><ele>2858.9</ele><time>2026-03-15T09:26:40.000Z</time></trkpt>
<trkpt lat="41.725166" lon="23.496139"><ele>2858.8</ele><time>2026-03-15T09:26:41.000Z</time></trkpt>
<trkpt lat="41.725164" lon="23.496136"><ele>2858.8</ele><time>2026-03-15T09:26:42.000Z</time></trkpt>
<trkpt lat="41.725162" lon="23.496133"><ele>2858.8</ele><time>2026-03-15T09:26:43.000Z</time></trkpt>
<trkpt lat="41.725161" lon="23.49613"><ele>2858.8</ele><time>2026-03-15T09:26:44.000Z</time></trkpt>
<trkpt lat="41.725159" lon="23.496128"><ele>2858.8</ele><time>2026-03-15T09:26:45.000Z</time></trkpt>
<trkpt lat="41.725158" lon="23.496127"><ele>2858.4</ele><time>2026-03-15T09:26:46.000Z</time></trkpt>
<trkpt lat="41.725157" lon="23.496126"><ele>2858.4</ele><time>2026-03-15T09:26:47.000Z</time></trkpt>
<trkpt lat="41.725156" lon="23.496127"><ele>2858.4</ele><time>2026-03-15T09:26:48.000Z</time></trkpt>
<trkpt lat="41.725155" lon="23.496127"><ele>2858.4</ele><time>2026-03-15T09:26:49.000Z</time></trkpt>
<trkpt lat="41.725154" lon="23.496127"><ele>2858.4</ele><time>2026-03-15T09:26:50.000Z</time></trkpt>
<trkpt lat="41.725154" lon="23.496126"><ele>2858</ele><time>2026-03-15T09:26:51.000Z</time></trkpt>
<trkpt lat="41.725154" lon="23.496125"><ele>2858</ele><time>2026-03-15T09:26:52.000Z</time></trkpt>
<trkpt lat="41.725154" lon="23.496125"><ele>2858</ele><time>2026-03-15T09:26:53.000Z</time></trkpt>
<trkpt lat="41.725154" lon="23.496125"><ele>2858</ele><time>2026-03-15T09:26:54.000Z</time></trkpt>
<trkpt lat="41.725153" lon="23.496126"><ele>2858</ele><time>2026-03-15T09:26:55.000Z</time></trkpt>
<trkpt lat="41.725153" lon="23.496127"><ele>2857.8</ele><time>2026-03-15T09:26:56.000Z</time></trkpt>
<trkpt lat="41.725154" lon="23.496126"><ele>2857.8</ele><time>2026-03-15T09:26:57.000Z</time></trkpt>
<trkpt lat="41.725155" lon="23.496125"><ele>2857.8</ele><time>2026-03-15T09:26:58.000Z</time></trkpt>
<trkpt lat="41.725155" lon="23.496124"><ele>2857.8</ele><time>2026-03-15T09:26:59.000Z</time></trkpt>
<trkpt lat="41.725156" lon="23.496124"><ele>2857.8</ele><time>2026-03-15T09:27:00.000Z</time></trkpt>
<trkpt lat="41.725156" lon="23.496124"><ele>2857.5</ele><time>2026-03-15T09:27:01.000Z</time></trkpt>
<trkpt lat="41.725156" lon="23.496126"><ele>2857.5</ele><time>2026-03-15T09:27:02.000Z</time></trkpt>
<trkpt lat="41.725155" lon="23.496127"><ele>2857.5</ele><time>2026-03-15T09:27:03.000Z</time></trkpt>
<trkpt lat="41.725154" lon="23.496127"><ele>2857.5</ele><time>2026-03-15T09:27:04.000Z</time></trkpt>
<trkpt lat="41.725153" lon="23.496127"><ele>2857.5</ele><time>2026-03-15T09:27:05.000Z</time></trkpt>
<trkpt lat="41.725152" lon="23.496127"><ele>2857.3</ele><time>2026-03-15T09:27:06.000Z</time></trkpt>
<trkpt lat="41.725152" lon="23.496127"><ele>2857.3</ele><time>2026-03-15T09:27:07.000Z</time></trkpt>
<trkpt lat="41.725152" lon="23.496127"><ele>2857.3</ele><time>2026-03-15T09:27:08.000Z</time></trkpt>
<trkpt lat="41.725151" lon="23.496126"><ele>2857.3</ele><time>2026-03-15T09:27:09.000Z</time></trkpt>
<trkpt lat="41.725151" lon="23.496126"><ele>2857.3</ele><time>2026-03-15T09:27:10.000Z</time></trkpt>
<trkpt lat="41.725151" lon="23.496126"><ele>2857.3</ele><time>2026-03-15T09:27:11.000Z</time></trkpt>
<trkpt lat="41.72515" lon="23.496126"><ele>2857.3</ele><time>2026-03-15T09:27:12.000Z</time></trkpt>
<trkpt lat="41.72515" lon="23.496126"><ele>2857.3</ele><time>2026-03-15T09:27:13.000Z</time></trkpt>
<trkpt lat="41.72515" lon="23.496126"><ele>2857.3</ele><time>2026-03-15T09:27:14.000Z</time></trkpt>
<trkpt lat="41.725149" lon="23.496125"><ele>2857.3</ele><time>2026-03-15T09:27:15.000Z</time></trkpt>
<trkpt lat="41.725149" lon="23.496125"><ele>2857.2</ele><time>2026-03-15T09:27:16.000Z</time></trkpt>
<trkpt lat="41.725149" lon="23.496125"><ele>2857.2</ele><time>2026-03-15T09:27:17.000Z</time></trkpt>
<trkpt lat="41.725148" lon="23.496125"><ele>2857.2</ele><time>2026-03-15T09:27:18.000Z</time></trkpt>
<trkpt lat="41.725148" lon="23.496125"><ele>2857.2</ele><time>2026-03-15T09:27:19.000Z</time></trkpt>
<trkpt lat="41.725148" lon="23.496125"><ele>2857.2</ele><time>2026-03-15T09:27:20.000Z</time></trkpt>
<trkpt lat="41.725148" lon="23.496125"><ele>2857</ele><time>2026-03-15T09:27:21.000Z</time></trkpt>
<trkpt lat="41.725148" lon="23.496125"><ele>2857</ele><time>2026-03-15T09:27:22.000Z</time></trkpt>
<trkpt lat="41.725148" lon="23.496125"><ele>2857</ele><time>2026-03-15T09:27:23.000Z</time></trkpt>
<trkpt lat="41.725148" lon="23.496125"><ele>2857</ele><time>2026-03-15T09:27:24.000Z</time></trkpt>
<trkpt lat="41.725148" lon="23.496125"><ele>2857</ele><time>2026-03-15T09:27:25.000Z</time></trkpt>
<trkpt lat="41.725148" lon="23.496124"><ele>2856.9</ele><time>2026-03-15T09:27:26.000Z</time></trkpt>
<trkpt lat="41.725149" lon="23.496125"><ele>2856.9</ele><time>2026-03-15T09:27:27.000Z</time></trkpt>
<trkpt lat="41.72515" lon="23.496125"><ele>2856.9</ele><time>2026-03-15T09:27:28.000Z</time></trkpt>
<trkpt lat="41.725151" lon="23.496126"><ele>2856.9</ele><time>2026-03-15T09:27:29.000Z</time></trkpt>
<trkpt lat="41.725152" lon="23.496126"><ele>2856.9</ele><time>2026-03-15T09:27:30.000Z</time></trkpt>
<trkpt lat="41.725152" lon="23.496126"><ele>2857.1</ele><time>2026-03-15T09:27:31.000Z</time></trkpt>
<trkpt lat="41.725152" lon="23.496126"><ele>2857.1</ele><time>2026-03-15T09:27:32.000Z</time></trkpt>
<trkpt lat="41.725151" lon="23.496125"><ele>2857.1</ele><time>2026-03-15T09:27:33.000Z</time></trkpt>
<trkpt lat="41.725151" lon="23.496123"><ele>2857.1</ele><time>2026-03-15T09:27:34.000Z</time></trkpt>
<trkpt lat="41.72515" lon="23.496121"><ele>2857.1</ele><time>2026-03-15T09:27:35.000Z</time></trkpt>
<trkpt lat="41.72515" lon="23.496119"><ele>2857.6</ele><time>2026-03-15T09:27:36.000Z</time></trkpt>
<trkpt lat="41.72515" lon="23.496118"><ele>2857.6</ele><time>2026-03-15T09:27:37.000Z</time></trkpt>
<trkpt lat="41.725151" lon="23.496118"><ele>2857.6</ele><time>2026-03-15T09:27:38.000Z</time></trkpt>
<trkpt lat="41.725151" lon="23.49612"><ele>2857.6</ele><time>2026-03-15T09:27:39.000Z</time></trkpt>
<trkpt lat="41.725152" lon="23.496123"><ele>2857.6</ele><time>2026-03-15T09:27:40.000Z</time></trkpt>
<trkpt lat="41.725153" lon="23.496127"><ele>2857.7</ele><time>2026-03-15T09:27:41.000Z</time></trkpt>
<trkpt lat="41.725153" lon="23.496132"><ele>2857.7</ele><time>2026-03-15T09:27:42.000Z</time></trkpt>
<trkpt lat="41.725153" lon="23.496135"><ele>2857.7</ele><time>2026-03-15T09:27:43.000Z</time></trkpt>
<trkpt lat="41.725153" lon="23.496137"><ele>2857.7</ele><time>2026-03-15T09:27:44.000Z</time></trkpt>
<trkpt lat="41.725153" lon="23.496137"><ele>2857.7</ele><time>2026-03-15T09:27:45.000Z</time></trkpt>
<trkpt lat="41.725154" lon="23.496136"><ele>2857.8</ele><time>2026-03-15T09:27:46.000Z</time></trkpt>
<trkpt lat="41.725154" lon="23.496135"><ele>2857.8</ele><time>2026-03-15T09:27:47.000Z</time></trkpt>
<trkpt lat="41.725154" lon="23.496135"><ele>2857.8</ele><time>2026-03-15T09:27:48.000Z</time></trkpt>
<trkpt lat="41.725155" lon="23.496134"><ele>2857.8</ele><time>2026-03-15T09:27:49.000Z</time></trkpt>
<trkpt lat="41.725155" lon="23.496134"><ele>2857.8</ele><time>2026-03-15T09:27:50.000Z</time></trkpt>
<trkpt lat="41.725156" lon="23.496133"><ele>2857.7</ele><time>2026-03-15T09:27:51.000Z</time></trkpt>
<trkpt lat="41.725156" lon="23.496133"><ele>2857.7</ele><time>2026-03-15T09:27:52.000Z</time></trkpt>
<trkpt lat="41.725157" lon="23.496133"><ele>2857.7</ele><time>2026-03-15T09:27:53.000Z</time></trkpt>
<trkpt lat="41.725157" lon="23.496132"><ele>2857.7</ele><time>2026-03-15T09:27:54.000Z</time></trkpt>
<trkpt lat="41.725157" lon="23.496132"><ele>2857.7</ele><time>2026-03-15T09:27:55.000Z</time></trkpt>
<trkpt lat="41.725157" lon="23.496132"><ele>2857.7</ele><time>2026-03-15T09:27:56.000Z</time></trkpt>
<trkpt lat="41.725157" lon="23.496132"><ele>2857.7</ele><time>2026-03-15T09:27:57.000Z</time></trkpt>
<trkpt lat="41.725157" lon="23.496132"><ele>2857.7</ele><time>2026-03-15T09:27:58.000Z</time></trkpt>
<trkpt lat="41.725157" lon="23.496132"><ele>2857.7</ele><time>2026-03-15T09:27:59.000Z</time></trkpt>
<trkpt lat="41.725157" lon="23.496132"><ele>2857.7</ele><time>2026-03-15T09:28:00.000Z</time></trkpt>
<trkpt lat="41.725157" lon="23.496132"><ele>2857.8</ele><time>2026-03-15T09:28:01.000Z</time></trkpt>
<trkpt lat="41.725157" lon="23.496132"><ele>2857.8</ele><time>2026-03-15T09:28:02.000Z</time></trkpt>
<trkpt lat="41.725157" lon="23.496132"><ele>2857.8</ele><time>2026-03-15T09:28:03.000Z</time></trkpt>
<trkpt lat="41.725157" lon="23.496133"><ele>2857.8</ele><time>2026-03-15T09:28:04.000Z</time></trkpt>
<trkpt lat="41.725157" lon="23.496133"><ele>2857.8</ele><time>2026-03-15T09:28:05.000Z</time></trkpt>
<trkpt lat="41.725157" lon="23.496134"><ele>2857.8</ele><time>2026-03-15T09:28:06.000Z</time></trkpt>
<trkpt lat="41.725157" lon="23.496135"><ele>2857.8</ele><time>2026-03-15T09:28:07.000Z</time></trkpt>
<trkpt lat="41.725157" lon="23.496135"><ele>2857.8</ele><time>2026-03-15T09:28:08.000Z</time></trkpt>
<trkpt lat="41.725157" lon="23.496135"><ele>2857.8</ele><time>2026-03-15T09:28:09.000Z</time></trkpt>
<trkpt lat="41.725157" lon="23.496135"><ele>2857.8</ele><time>2026-03-15T09:28:10.000Z</time></trkpt>
<trkpt lat="41.725157" lon="23.496135"><ele>2857.8</ele><time>2026-03-15T09:28:11.000Z</time></trkpt>
<trkpt lat="41.725157" lon="23.496135"><ele>2857.8</ele><time>2026-03-15T09:28:12.000Z</time></trkpt>
<trkpt lat="41.725157" lon="23.496133"><ele>2857.8</ele><time>2026-03-15T09:28:13.000Z</time></trkpt>
<trkpt lat="41.725157" lon="23.49613"><ele>2857.8</ele><time>2026-03-15T09:28:14.000Z</time></trkpt>
<trkpt lat="41.725157" lon="23.496127"><ele>2857.8</ele><time>2026-03-15T09:28:15.000Z</time></trkpt>
<trkpt lat="41.725156" lon="23.496125"><ele>2857.6</ele><time>2026-03-15T09:28:16.000Z</time></trkpt>
<trkpt lat="41.725156" lon="23.496122"><ele>2857.6</ele><time>2026-03-15T09:28:17.000Z</time></trkpt>
<trkpt lat="41.725156" lon="23.496121"><ele>2857.6</ele><time>2026-03-15T09:28:18.000Z</time></trkpt>
<trkpt lat="41.725155" lon="23.496122"><ele>2857.6</ele><time>2026-03-15T09:28:19.000Z</time></trkpt>
<trkpt lat="41.725154" lon="23.496124"><ele>2857.6</ele><time>2026-03-15T09:28:20.000Z</time></trkpt>
<trkpt lat="41.725154" lon="23.496126"><ele>2857.6</ele><time>2026-03-15T09:28:21.000Z</time></trkpt>
<trkpt lat="41.725152" lon="23.496128"><ele>2857.6</ele><time>2026-03-15T09:28:22.000Z</time></trkpt>
<trkpt lat="41.725151" lon="23.496129"><ele>2857.6</ele><time>2026-03-15T09:28:23.000Z</time></trkpt>
<trkpt lat="41.72515" lon="23.496129"><ele>2857.6</ele><time>2026-03-15T09:28:24.000Z</time></trkpt>
<trkpt lat="41.725148" lon="23.496129"><ele>2857.6</ele><time>2026-03-15T09:28:25.000Z</time></trkpt>
<trkpt lat="41.725148" lon="23.496128"><ele>2857.6</ele><time>2026-03-15T09:28:26.000Z</time></trkpt>
<trkpt lat="41.725148" lon="23.496127"><ele>2857.6</ele><time>2026-03-15T09:28:27.000Z</time></trkpt>
<trkpt lat="41.725148" lon="23.496127"><ele>2857.6</ele><time>2026-03-15T09:28:28.000Z</time></trkpt>
<trkpt lat="41.725148" lon="23.496126"><ele>2857.6</ele><time>2026-03-15T09:28:29.000Z</time></trkpt>
<trkpt lat="41.725149" lon="23.496125"><ele>2857.6</ele><time>2026-03-15T09:28:30.000Z</time></trkpt>
<trkpt lat="41.72515" lon="23.496125"><ele>2857.5</ele><time>2026-03-15T09:28:31.000Z</time></trkpt>
<trkpt lat="41.725151" lon="23.496124"><ele>2857.5</ele><time>2026-03-15T09:28:32.000Z</time></trkpt>
<trkpt lat="41.725152" lon="23.496124"><ele>2857.5</ele><time>2026-03-15T09:28:33.000Z</time></trkpt>
<trkpt lat="41.725153" lon="23.496123"><ele>2857.5</ele><time>2026-03-15T09:28:34.000Z</time></trkpt>
<trkpt lat="41.725153" lon="23.496122"><ele>2857.5</ele><time>2026-03-15T09:28:35.000Z</time></trkpt>
<trkpt lat="41.725153" lon="23.496122"><ele>2857.2</ele><time>2026-03-15T09:28:36.000Z</time></trkpt>
<trkpt lat="41.725153" lon="23.496122"><ele>2857.2</ele><time>2026-03-15T09:28:37.000Z</time></trkpt>
<trkpt lat="41.725152" lon="23.496122"><ele>2857.2</ele><time>2026-03-15T09:28:38.000Z</time></trkpt>
<trkpt lat="41.725152" lon="23.496123"><ele>2857.2</ele><time>2026-03-15T09:28:39.000Z</time></trkpt>
<trkpt lat="41.725151" lon="23.496123"><ele>2857.2</ele><time>2026-03-15T09:28:40.000Z</time></trkpt>
<trkpt lat="41.725151" lon="23.496123"><ele>2857</ele><time>2026-03-15T09:28:41.000Z</time></trkpt>
<trkpt lat="41.72515" lon="23.496124"><ele>2857</ele><time>2026-03-15T09:28:42.000Z</time></trkpt>
<trkpt lat="41.72515" lon="23.496124"><ele>2857</ele><time>2026-03-15T09:28:43.000Z</time></trkpt>
<trkpt lat="41.72515" lon="23.496124"><ele>2857</ele><time>2026-03-15T09:28:44.000Z</time></trkpt>
<trkpt lat="41.72515" lon="23.496124"><ele>2857</ele><time>2026-03-15T09:28:45.000Z</time></trkpt>
<trkpt lat="41.725151" lon="23.496123"><ele>2856.8</ele><time>2026-03-15T09:28:46.000Z</time></trkpt>
<trkpt lat="41.725151" lon="23.496122"><ele>2856.8</ele><time>2026-03-15T09:28:47.000Z</time></trkpt>
<trkpt lat="41.725152" lon="23.496121"><ele>2856.8</ele><time>2026-03-15T09:28:48.000Z</time></trkpt>
<trkpt lat="41.725153" lon="23.496121"><ele>2856.8</ele><time>2026-03-15T09:28:49.000Z</time></trkpt>
<trkpt lat="41.725154" lon="23.49612"><ele>2856.8</ele><time>2026-03-15T09:28:50.000Z</time></trkpt>
<trkpt lat="41.725154" lon="23.49612"><ele>2856.7</ele><time>2026-03-15T09:28:51.000Z</time></trkpt>
<trkpt lat="41.725153" lon="23.496121"><ele>2856.7</ele><time>2026-03-15T09:28:52.000Z</time></trkpt>
<trkpt lat="41.725153" lon="23.496122"><ele>2856.7</ele><time>2026-03-15T09:28:53.000Z</time></trkpt>
<trkpt lat="41.725153" lon="23.496121"><ele>2856.7</ele><time>2026-03-15T09:28:54.000Z</time></trkpt>
<trkpt lat="41.725153" lon="23.496122"><ele>2856.7</ele><time>2026-03-15T09:28:55.000Z</time></trkpt>
<trkpt lat="41.725153" lon="23.496122"><ele>2856.8</ele><time>2026-03-15T09:28:56.000Z</time></trkpt>
<trkpt lat="41.725153" lon="23.496122"><ele>2856.8</ele><time>2026-03-15T09:28:57.000Z</time></trkpt>
<trkpt lat="41.725154" lon="23.496122"><ele>2856.8</ele><time>2026-03-15T09:28:58.000Z</time></trkpt>
<trkpt lat="41.725154" lon="23.496122"><ele>2856.8</ele><time>2026-03-15T09:28:59.000Z</time></trkpt>
<trkpt lat="41.725154" lon="23.496122"><ele>2856.8</ele><time>2026-03-15T09:29:00.000Z</time></trkpt>
<trkpt lat="41.725154" lon="23.496122"><ele>2857</ele><time>2026-03-15T09:29:01.000Z</time></trkpt>
<trkpt lat="41.725154" lon="23.496122"><ele>2857</ele><time>2026-03-15T09:29:02.000Z</time></trkpt>
<trkpt lat="41.725154" lon="23.496122"><ele>2857</ele><time>2026-03-15T09:29:03.000Z</time></trkpt>
<trkpt lat="41.725154" lon="23.496122"><ele>2857</ele><time>2026-03-15T09:29:04.000Z</time></trkpt>
<trkpt lat="41.725154" lon="23.496123"><ele>2857</ele><time>2026-03-15T09:29:05.000Z</time></trkpt>
<trkpt lat="41.725156" lon="23.496125"><ele>2857.4</ele><time>2026-03-15T09:29:06.000Z</time></trkpt>
<trkpt lat="41.725157" lon="23.496128"><ele>2857.4</ele><time>2026-03-15T09:29:07.000Z</time></trkpt>
<trkpt lat="41.725159" lon="23.49613"><ele>2857.4</ele><time>2026-03-15T09:29:08.000Z</time></trkpt>
<trkpt lat="41.725161" lon="23.496133"><ele>2857.4</ele><time>2026-03-15T09:29:09.000Z</time></trkpt>
<trkpt lat="41.725161" lon="23.496134"><ele>2857.4</ele><time>2026-03-15T09:29:10.000Z</time></trkpt>
<trkpt lat="41.725162" lon="23.496135"><ele>2857.6</ele><time>2026-03-15T09:29:11.000Z</time></trkpt>
<trkpt lat="41.725161" lon="23.496136"><ele>2857.6</ele><time>2026-03-15T09:29:12.000Z</time></trkpt>
<trkpt lat="41.725161" lon="23.496136"><ele>2857.6</ele><time>2026-03-15T09:29:13.000Z</time></trkpt>
<trkpt lat="41.72516" lon="23.496137"><ele>2857.6</ele><time>2026-03-15T09:29:14.000Z</time></trkpt>
<trkpt lat="41.725159" lon="23.496139"><ele>2857.6</ele><time>2026-03-15T09:29:15.000Z</time></trkpt>
<trkpt lat="41.725158" lon="23.496141"><ele>2857.9</ele><time>2026-03-15T09:29:16.000Z</time></trkpt>
<trkpt lat="41.725158" lon="23.496142"><ele>2857.9</ele><time>2026-03-15T09:29:17.000Z</time></trkpt>
<trkpt lat="41.725157" lon="23.496144"><ele>2857.9</ele><time>2026-03-15T09:29:18.000Z</time></trkpt>
<trkpt lat="41.725157" lon="23.496146"><ele>2857.9</ele><time>2026-03-15T09:29:19.000Z</time></trkpt>
<trkpt lat="41.725158" lon="23.496146"><ele>2857.9</ele><time>2026-03-15T09:29:20.000Z</time></trkpt>
<trkpt lat="41.725158" lon="23.496146"><ele>2857.8</ele><time>2026-03-15T09:29:21.000Z</time></trkpt>
<trkpt lat="41.725158" lon="23.496147"><ele>2857.8</ele><time>2026-03-15T09:29:22.000Z</time></trkpt>
<trkpt lat="41.725157" lon="23.496147"><ele>2857.8</ele><time>2026-03-15T09:29:23.000Z</time></trkpt>
<trkpt lat="41.725157" lon="23.496147"><ele>2857.8</ele><time>2026-03-15T09:29:24.000Z</time></trkpt>
<trkpt lat="41.725157" lon="23.496147"><ele>2857.8</ele><time>2026-03-15T09:29:25.000Z</time></trkpt>
<trkpt lat="41.725157" lon="23.496147"><ele>2857.7</ele><time>2026-03-15T09:29:26.000Z</time></trkpt>
<trkpt lat="41.725157" lon="23.496147"><ele>2857.7</ele><time>2026-03-15T09:29:27.000Z</time></trkpt>
<trkpt lat="41.725157" lon="23.496147"><ele>2857.7</ele><time>2026-03-15T09:29:28.000Z</time></trkpt>
<trkpt lat="41.725158" lon="23.496147"><ele>2857.7</ele><time>2026-03-15T09:29:29.000Z</time></trkpt>
<trkpt lat="41.72516" lon="23.496147"><ele>2857.7</ele><time>2026-03-15T09:29:30.000Z</time></trkpt>
<trkpt lat="41.725163" lon="23.496148"><ele>2857.5</ele><time>2026-03-15T09:29:31.000Z</time></trkpt>
<trkpt lat="41.725165" lon="23.496147"><ele>2857.5</ele><time>2026-03-15T09:29:32.000Z</time></trkpt>
<trkpt lat="41.725167" lon="23.496147"><ele>2857.5</ele><time>2026-03-15T09:29:33.000Z</time></trkpt>
<trkpt lat="41.725167" lon="23.496146"><ele>2857.5</ele><time>2026-03-15T09:29:34.000Z</time></trkpt>
<trkpt lat="41.725167" lon="23.496145"><ele>2857.5</ele><time>2026-03-15T09:29:35.000Z</time></trkpt>
<trkpt lat="41.725165" lon="23.496143"><ele>2857.6</ele><time>2026-03-15T09:29:36.000Z</time></trkpt>
<trkpt lat="41.725164" lon="23.496142"><ele>2857.6</ele><time>2026-03-15T09:29:37.000Z</time></trkpt>
<trkpt lat="41.725163" lon="23.496142"><ele>2857.6</ele><time>2026-03-15T09:29:38.000Z</time></trkpt>
<trkpt lat="41.725162" lon="23.496142"><ele>2857.6</ele><time>2026-03-15T09:29:39.000Z</time></trkpt>
<trkpt lat="41.725162" lon="23.496142"><ele>2857.6</ele><time>2026-03-15T09:29:40.000Z</time></trkpt>
<trkpt lat="41.725162" lon="23.496142"><ele>2857.7</ele><time>2026-03-15T09:29:41.000Z</time></trkpt>
<trkpt lat="41.725162" lon="23.496143"><ele>2857.7</ele><time>2026-03-15T09:29:42.000Z</time></trkpt>
<trkpt lat="41.725162" lon="23.496143"><ele>2857.7</ele><time>2026-03-15T09:29:43.000Z</time></trkpt>
<trkpt lat="41.725161" lon="23.496143"><ele>2857.7</ele><time>2026-03-15T09:29:44.000Z</time></trkpt>
<trkpt lat="41.725161" lon="23.496141"><ele>2857.7</ele><time>2026-03-15T09:29:45.000Z</time></trkpt>
<trkpt lat="41.72516" lon="23.496139"><ele>2858</ele><time>2026-03-15T09:29:46.000Z</time></trkpt>
<trkpt lat="41.725159" lon="23.496137"><ele>2858</ele><time>2026-03-15T09:29:47.000Z</time></trkpt>
<trkpt lat="41.725159" lon="23.496134"><ele>2858</ele><time>2026-03-15T09:29:48.000Z</time></trkpt>
<trkpt lat="41.725159" lon="23.496131"><ele>2858</ele><time>2026-03-15T09:29:49.000Z</time></trkpt>
<trkpt lat="41.725158" lon="23.49613"><ele>2858</ele><time>2026-03-15T09:29:50.000Z</time></trkpt>
<trkpt lat="41.725159" lon="23.496129"><ele>2858.2</ele><time>2026-03-15T09:29:51.000Z</time></trkpt>
<trkpt lat="41.72516" lon="23.496128"><ele>2858.2</ele><time>2026-03-15T09:29:52.000Z</time></trkpt>
<trkpt lat="41.72516" lon="23.496127"><ele>2858.2</ele><time>2026-03-15T09:29:53.000Z</time></trkpt>
<trkpt lat="41.72516" lon="23.496126"><ele>2858.2</ele><time>2026-03-15T09:29:54.000Z</time></trkpt>
<trkpt lat="41.72516" lon="23.496126"><ele>2858.2</ele><time>2026-03-15T09:29:55.000Z</time></trkpt>
<trkpt lat="41.725159" lon="23.496126"><ele>2858.2</ele><time>2026-03-15T09:29:56.000Z</time></trkpt>
<trkpt lat="41.725159" lon="23.496125"><ele>2858.2</ele><time>2026-03-15T09:29:57.000Z</time></trkpt>
<trkpt lat="41.725158" lon="23.496125"><ele>2858.2</ele><time>2026-03-15T09:29:58.000Z</time></trkpt>
<trkpt lat="41.725158" lon="23.496125"><ele>2858.2</ele><time>2026-03-15T09:29:59.000Z</time></trkpt>
<trkpt lat="41.725158" lon="23.496125"><ele>2858.2</ele><time>2026-03-15T09:30:00.000Z</time></trkpt>
<trkpt lat="41.725159" lon="23.496124"><ele>2858</ele><time>2026-03-15T09:30:01.000Z</time></trkpt>
<trkpt lat="41.725159" lon="23.496123"><ele>2858</ele><time>2026-03-15T09:30:02.000Z</time></trkpt>
<trkpt lat="41.72516" lon="23.496122"><ele>2858</ele><time>2026-03-15T09:30:03.000Z</time></trkpt>
<trkpt lat="41.72516" lon="23.496121"><ele>2858</ele><time>2026-03-15T09:30:04.000Z</time></trkpt>
<trkpt lat="41.72516" lon="23.496121"><ele>2858</ele><time>2026-03-15T09:30:05.000Z</time></trkpt>
<trkpt lat="41.72516" lon="23.496121"><ele>2857.9</ele><time>2026-03-15T09:30:06.000Z</time></trkpt>
<trkpt lat="41.725161" lon="23.496121"><ele>2857.9</ele><time>2026-03-15T09:30:07.000Z</time></trkpt>
<trkpt lat="41.725161" lon="23.49612"><ele>2857.9</ele><time>2026-03-15T09:30:08.000Z</time></trkpt>
<trkpt lat="41.725162" lon="23.49612"><ele>2857.9</ele><time>2026-03-15T09:30:09.000Z</time></trkpt>
<trkpt lat="41.725162" lon="23.49612"><ele>2857.9</ele><time>2026-03-15T09:30:10.000Z</time></trkpt>
<trkpt lat="41.725163" lon="23.496119"><ele>2858</ele><time>2026-03-15T09:30:11.000Z</time></trkpt>
<trkpt lat="41.725163" lon="23.496119"><ele>2858</ele><time>2026-03-15T09:30:12.000Z</time></trkpt>
<trkpt lat="41.725163" lon="23.496119"><ele>2858</ele><time>2026-03-15T09:30:13.000Z</time></trkpt>
<trkpt lat="41.725163" lon="23.496119"><ele>2858</ele><time>2026-03-15T09:30:14.000Z</time></trkpt>
<trkpt lat="41.725163" lon="23.496119"><ele>2858</ele><time>2026-03-15T09:30:15.000Z</time></trkpt>
<trkpt lat="41.725163" lon="23.49612"><ele>2858.4</ele><time>2026-03-15T09:30:16.000Z</time></trkpt>
<trkpt lat="41.725163" lon="23.496121"><ele>2858.4</ele><time>2026-03-15T09:30:17.000Z</time></trkpt>
<trkpt lat="41.725163" lon="23.496121"><ele>2858.4</ele><time>2026-03-15T09:30:18.000Z</time></trkpt>
<trkpt lat="41.725163" lon="23.496122"><ele>2858.4</ele><time>2026-03-15T09:30:19.000Z</time></trkpt>
<trkpt lat="41.725163" lon="23.496123"><ele>2858.4</ele><time>2026-03-15T09:30:20.000Z</time></trkpt>
<trkpt lat="41.725163" lon="23.496123"><ele>2858.6</ele><time>2026-03-15T09:30:21.000Z</time></trkpt>
<trkpt lat="41.725163" lon="23.496123"><ele>2858.6</ele><time>2026-03-15T09:30:22.000Z</time></trkpt>
<trkpt lat="41.725162" lon="23.496122"><ele>2858.6</ele><time>2026-03-15T09:30:23.000Z</time></trkpt>
<trkpt lat="41.725162" lon="23.496122"><ele>2858.6</ele><time>2026-03-15T09:30:24.000Z</time></trkpt>
<trkpt lat="41.725162" lon="23.496122"><ele>2858.6</ele><time>2026-03-15T09:30:25.000Z</time></trkpt>
<trkpt lat="41.725162" lon="23.496123"><ele>2858.6</ele><time>2026-03-15T09:30:26.000Z</time></trkpt>
<trkpt lat="41.725162" lon="23.496123"><ele>2858.6</ele><time>2026-03-15T09:30:27.000Z</time></trkpt>
<trkpt lat="41.725162" lon="23.496123"><ele>2858.6</ele><time>2026-03-15T09:30:28.000Z</time></trkpt>
<trkpt lat="41.725162" lon="23.496123"><ele>2858.6</ele><time>2026-03-15T09:30:29.000Z</time></trkpt>
<trkpt lat="41.725162" lon="23.496123"><ele>2858.6</ele><time>2026-03-15T09:30:30.000Z</time></trkpt>
<trkpt lat="41.725162" lon="23.496123"><ele>2858.6</ele><time>2026-03-15T09:30:31.000Z</time></trkpt>
<trkpt lat="41.725162" lon="23.496123"><ele>2858.6</ele><time>2026-03-15T09:30:32.000Z</time></trkpt>
<trkpt lat="41.725162" lon="23.496123"><ele>2858.6</ele><time>2026-03-15T09:30:33.000Z</time></trkpt>
<trkpt lat="41.725162" lon="23.496123"><ele>2858.6</ele><time>2026-03-15T09:30:34.000Z</time></trkpt>
<trkpt lat="41.725162" lon="23.496123"><ele>2858.6</ele><time>2026-03-15T09:30:35.000Z</time></trkpt>
<trkpt lat="41.725162" lon="23.496123"><ele>2858.5</ele><time>2026-03-15T09:30:36.000Z</time></trkpt>
<trkpt lat="41.725162" lon="23.496124"><ele>2858.5</ele><time>2026-03-15T09:30:37.000Z</time></trkpt>
<trkpt lat="41.725163" lon="23.496124"><ele>2858.5</ele><time>2026-03-15T09:30:38.000Z</time></trkpt>
<trkpt lat="41.725164" lon="23.496124"><ele>2858.5</ele><time>2026-03-15T09:30:39.000Z</time></trkpt>
<trkpt lat="41.725165" lon="23.496124"><ele>2858.5</ele><time>2026-03-15T09:30:40.000Z</time></trkpt>
<trkpt lat="41.725166" lon="23.496125"><ele>2858.5</ele><time>2026-03-15T09:30:41.000Z</time></trkpt>
<trkpt lat="41.725167" lon="23.496125"><ele>2858.5</ele><time>2026-03-15T09:30:42.000Z</time></trkpt>
<trkpt lat="41.725168" lon="23.496125"><ele>2858.5</ele><time>2026-03-15T09:30:43.000Z</time></trkpt>
<trkpt lat="41.725169" lon="23.496125"><ele>2858.5</ele><time>2026-03-15T09:30:44.000Z</time></trkpt>
<trkpt lat="41.725169" lon="23.496126"><ele>2858.5</ele><time>2026-03-15T09:30:45.000Z</time></trkpt>
<trkpt lat="41.725169" lon="23.496125"><ele>2858.2</ele><time>2026-03-15T09:30:46.000Z</time></trkpt>
<trkpt lat="41.72517" lon="23.496125"><ele>2858.2</ele><time>2026-03-15T09:30:47.000Z</time></trkpt>
<trkpt lat="41.72517" lon="23.496124"><ele>2858.2</ele><time>2026-03-15T09:30:48.000Z</time></trkpt>
<trkpt lat="41.72517" lon="23.496124"><ele>2858.2</ele><time>2026-03-15T09:30:49.000Z</time></trkpt>
<trkpt lat="41.72517" lon="23.496124"><ele>2858.2</ele><time>2026-03-15T09:30:50.000Z</time></trkpt>
<trkpt lat="41.725171" lon="23.496123"><ele>2858</ele><time>2026-03-15T09:30:51.000Z</time></trkpt>
<trkpt lat="41.72517" lon="23.496123"><ele>2858</ele><time>2026-03-15T09:30:52.000Z</time></trkpt>
<trkpt lat="41.725171" lon="23.496122"><ele>2858</ele><time>2026-03-15T09:30:53.000Z</time></trkpt>
<trkpt lat="41.725172" lon="23.496121"><ele>2858</ele><time>2026-03-15T09:30:54.000Z</time></trkpt>
<trkpt lat="41.725171" lon="23.49612"><ele>2858</ele><time>2026-03-15T09:30:55.000Z</time></trkpt>
<trkpt lat="41.725171" lon="23.496119"><ele>2857.9</ele><time>2026-03-15T09:30:56.000Z</time></trkpt>
<trkpt lat="41.725171" lon="23.496118"><ele>2857.9</ele><time>2026-03-15T09:30:57.000Z</time></trkpt>
<trkpt lat="41.725171" lon="23.496117"><ele>2857.9</ele><time>2026-03-15T09:30:58.000Z</time></trkpt>
<trkpt lat="41.72517" lon="23.496117"><ele>2857.9</ele><time>2026-03-15T09:30:59.000Z</time></trkpt>
<trkpt lat="41.72517" lon="23.496117"><ele>2857.9</ele><time>2026-03-15T09:31:00.000Z</time></trkpt>
<trkpt lat="41.72517" lon="23.496117"><ele>2857.9</ele><time>2026-03-15T09:31:01.000Z</time></trkpt>
<trkpt lat="41.72517" lon="23.496117"><ele>2857.9</ele><time>2026-03-15T09:31:02.000Z</time></trkpt>
<trkpt lat="41.72517" lon="23.496117"><ele>2857.9</ele><time>2026-03-15T09:31:03.000Z</time></trkpt>
<trkpt lat="41.72517" lon="23.496117"><ele>2857.9</ele><time>2026-03-15T09:31:04.000Z</time></trkpt>
<trkpt lat="41.72517" lon="23.496118"><ele>2857.9</ele><time>2026-03-15T09:31:05.000Z</time></trkpt>
<trkpt lat="41.725171" lon="23.496119"><ele>2857.7</ele><time>2026-03-15T09:31:06.000Z</time></trkpt>
<trkpt lat="41.725171" lon="23.496119"><ele>2857.7</ele><time>2026-03-15T09:31:07.000Z</time></trkpt>
<trkpt lat="41.725172" lon="23.49612"><ele>2857.7</ele><time>2026-03-15T09:31:08.000Z</time></trkpt>
<trkpt lat="41.725172" lon="23.496121"><ele>2857.7</ele><time>2026-03-15T09:31:09.000Z</time></trkpt>
<trkpt lat="41.725173" lon="23.49612"><ele>2857.7</ele><time>2026-03-15T09:31:10.000Z</time></trkpt>
<trkpt lat="41.725173" lon="23.496119"><ele>2857.6</ele><time>2026-03-15T09:31:11.000Z</time></trkpt>
<trkpt lat="41.725173" lon="23.496118"><ele>2857.6</ele><time>2026-03-15T09:31:12.000Z</time></trkpt>
<trkpt lat="41.725173" lon="23.496118"><ele>2857.6</ele><time>2026-03-15T09:31:13.000Z</time></trkpt>
<trkpt lat="41.725173" lon="23.496116"><ele>2857.6</ele><time>2026-03-15T09:31:14.000Z</time></trkpt>
<trkpt lat="41.725172" lon="23.496114"><ele>2857.6</ele><time>2026-03-15T09:31:15.000Z</time></trkpt>
<trkpt lat="41.725171" lon="23.496114"><ele>2857.4</ele><time>2026-03-15T09:31:16.000Z</time></trkpt>
<trkpt lat="41.72517" lon="23.496113"><ele>2857.4</ele><time>2026-03-15T09:31:17.000Z</time></trkpt>
<trkpt lat="41.725169" lon="23.496112"><ele>2857.4</ele><time>2026-03-15T09:31:18.000Z</time></trkpt>
<trkpt lat="41.725169" lon="23.496111"><ele>2857.4</ele><time>2026-03-15T09:31:19.000Z</time></trkpt>
<trkpt lat="41.725169" lon="23.496111"><ele>2857.4</ele><time>2026-03-15T09:31:20.000Z</time></trkpt>
<trkpt lat="41.725169" lon="23.496109"><ele>2857.5</ele><time>2026-03-15T09:31:21.000Z</time></trkpt>
<trkpt lat="41.725169" lon="23.496108"><ele>2857.5</ele><time>2026-03-15T09:31:22.000Z</time></trkpt>
<trkpt lat="41.725169" lon="23.496107"><ele>2857.5</ele><time>2026-03-15T09:31:23.000Z</time></trkpt>
<trkpt lat="41.725169" lon="23.496108"><ele>2857.5</ele><time>2026-03-15T09:31:24.000Z</time></trkpt>
<trkpt lat="41.725169" lon="23.496108"><ele>2857.5</ele><time>2026-03-15T09:31:25.000Z</time></trkpt>
<trkpt lat="41.725169" lon="23.496108"><ele>2857.7</ele><time>2026-03-15T09:31:26.000Z</time></trkpt>
<trkpt lat="41.725168" lon="23.496109"><ele>2857.7</ele><time>2026-03-15T09:31:27.000Z</time></trkpt>
<trkpt lat="41.725169" lon="23.496109"><ele>2857.7</ele><time>2026-03-15T09:31:28.000Z</time></trkpt>
<trkpt lat="41.725169" lon="23.49611"><ele>2857.7</ele><time>2026-03-15T09:31:29.000Z</time></trkpt>
<trkpt lat="41.725169" lon="23.496111"><ele>2857.7</ele><time>2026-03-15T09:31:30.000Z</time></trkpt>
<trkpt lat="41.725169" lon="23.496111"><ele>2857.8</ele><time>2026-03-15T09:31:31.000Z</time></trkpt>
<trkpt lat="41.725169" lon="23.496112"><ele>2857.8</ele><time>2026-03-15T09:31:32.000Z</time></trkpt>
<trkpt lat="41.725169" lon="23.496111"><ele>2857.8</ele><time>2026-03-15T09:31:33.000Z</time></trkpt>
<trkpt lat="41.725169" lon="23.496111"><ele>2857.8</ele><time>2026-03-15T09:31:34.000Z</time></trkpt>
<trkpt lat="41.725169" lon="23.496111"><ele>2857.8</ele><time>2026-03-15T09:31:35.000Z</time></trkpt>
<trkpt lat="41.725169" lon="23.49611"><ele>2857.6</ele><time>2026-03-15T09:31:36.000Z</time></trkpt>
<trkpt lat="41.725169" lon="23.496111"><ele>2857.6</ele><time>2026-03-15T09:31:37.000Z</time></trkpt>
<trkpt lat="41.725168" lon="23.496111"><ele>2857.6</ele><time>2026-03-15T09:31:38.000Z</time></trkpt>
<trkpt lat="41.725168" lon="23.496112"><ele>2857.6</ele><time>2026-03-15T09:31:39.000Z</time></trkpt>
<trkpt lat="41.725168" lon="23.496113"><ele>2857.6</ele><time>2026-03-15T09:31:40.000Z</time></trkpt>
<trkpt lat="41.725167" lon="23.496113"><ele>2857.5</ele><time>2026-03-15T09:31:41.000Z</time></trkpt>
<trkpt lat="41.725167" lon="23.496113"><ele>2857.5</ele><time>2026-03-15T09:31:42.000Z</time></trkpt>
<trkpt lat="41.725167" lon="23.496113"><ele>2857.5</ele><time>2026-03-15T09:31:43.000Z</time></trkpt>
<trkpt lat="41.725166" lon="23.496112"><ele>2857.5</ele><time>2026-03-15T09:31:44.000Z</time></trkpt>
<trkpt lat="41.725166" lon="23.496112"><ele>2857.5</ele><time>2026-03-15T09:31:45.000Z</time></trkpt>
<trkpt lat="41.725166" lon="23.496111"><ele>2857.2</ele><time>2026-03-15T09:31:46.000Z</time></trkpt>
<trkpt lat="41.725165" lon="23.496111"><ele>2857.2</ele><time>2026-03-15T09:31:47.000Z</time></trkpt>
<trkpt lat="41.725165" lon="23.496111"><ele>2857.2</ele><time>2026-03-15T09:31:48.000Z</time></trkpt>
<trkpt lat="41.725165" lon="23.496111"><ele>2857.2</ele><time>2026-03-15T09:31:49.000Z</time></trkpt>
<trkpt lat="41.725165" lon="23.496111"><ele>2857.2</ele><time>2026-03-15T09:31:50.000Z</time></trkpt>
<trkpt lat="41.725165" lon="23.496111"><ele>2857</ele><time>2026-03-15T09:31:51.000Z</time></trkpt>
<trkpt lat="41.725165" lon="23.496111"><ele>2857</ele><time>2026-03-15T09:31:52.000Z</time></trkpt>
<trkpt lat="41.725166" lon="23.496111"><ele>2857</ele><time>2026-03-15T09:31:53.000Z</time></trkpt>
<trkpt lat="41.725166" lon="23.496111"><ele>2857</ele><time>2026-03-15T09:31:54.000Z</time></trkpt>
<trkpt lat="41.725166" lon="23.496112"><ele>2857</ele><time>2026-03-15T09:31:55.000Z</time></trkpt>
<trkpt lat="41.725166" lon="23.496112"><ele>2856.9</ele><time>2026-03-15T09:31:56.000Z</time></trkpt>
<trkpt lat="41.725166" lon="23.496112"><ele>2856.9</ele><time>2026-03-15T09:31:57.000Z</time></trkpt>
<trkpt lat="41.725166" lon="23.496112"><ele>2856.9</ele><time>2026-03-15T09:31:58.000Z</time></trkpt>
<trkpt lat="41.725166" lon="23.496112"><ele>2856.9</ele><time>2026-03-15T09:31:59.000Z</time></trkpt>
<trkpt lat="41.725166" lon="23.496112"><ele>2856.9</ele><time>2026-03-15T09:32:00.000Z</time></trkpt>
<trkpt lat="41.725166" lon="23.496112"><ele>2856.7</ele><time>2026-03-15T09:32:01.000Z</time></trkpt>
<trkpt lat="41.725166" lon="23.496113"><ele>2856.7</ele><time>2026-03-15T09:32:02.000Z</time></trkpt>
<trkpt lat="41.725166" lon="23.496113"><ele>2856.7</ele><time>2026-03-15T09:32:03.000Z</time></trkpt>
<trkpt lat="41.725166" lon="23.496114"><ele>2856.7</ele><time>2026-03-15T09:32:04.000Z</time></trkpt>
<trkpt lat="41.725165" lon="23.496114"><ele>2856.7</ele><time>2026-03-15T09:32:05.000Z</time></trkpt>
<trkpt lat="41.725165" lon="23.496114"><ele>2856.6</ele><time>2026-03-15T09:32:06.000Z</time></trkpt>
<trkpt lat="41.725165" lon="23.496114"><ele>2856.6</ele><time>2026-03-15T09:32:07.000Z</time></trkpt>
<trkpt lat="41.725164" lon="23.496114"><ele>2856.6</ele><time>2026-03-15T09:32:08.000Z</time></trkpt>
<trkpt lat="41.725163" lon="23.496114"><ele>2856.6</ele><time>2026-03-15T09:32:09.000Z</time></trkpt>
<trkpt lat="41.725162" lon="23.496113"><ele>2856.6</ele><time>2026-03-15T09:32:10.000Z</time></trkpt>
<trkpt lat="41.72516" lon="23.496113"><ele>2856.6</ele><time>2026-03-15T09:32:11.000Z</time></trkpt>
<trkpt lat="41.725158" lon="23.496112"><ele>2856.6</ele><time>2026-03-15T09:32:12.000Z</time></trkpt>
<trkpt lat="41.725157" lon="23.496112"><ele>2856.6</ele><time>2026-03-15T09:32:13.000Z</time></trkpt>
<trkpt lat="41.725157" lon="23.496111"><ele>2856.6</ele><time>2026-03-15T09:32:14.000Z</time></trkpt>
<trkpt lat="41.725156" lon="23.496111"><ele>2856.6</ele><time>2026-03-15T09:32:15.000Z</time></trkpt>
<trkpt lat="41.725156" lon="23.496111"><ele>2856.7</ele><time>2026-03-15T09:32:16.000Z</time></trkpt>
<trkpt lat="41.725156" lon="23.496111"><ele>2856.7</ele><time>2026-03-15T09:32:17.000Z</time></trkpt>
<trkpt lat="41.725156" lon="23.496111"><ele>2856.7</ele><time>2026-03-15T09:32:18.000Z</time></trkpt>
<trkpt lat="41.725156" lon="23.496111"><ele>2856.7</ele><time>2026-03-15T09:32:19.000Z</time></trkpt>
<trkpt lat="41.725156" lon="23.496111"><ele>2856.7</ele><time>2026-03-15T09:32:20.000Z</time></trkpt>
<trkpt lat="41.725156" lon="23.496111"><ele>2856.9</ele><time>2026-03-15T09:32:21.000Z</time></trkpt>
<trkpt lat="41.725156" lon="23.496111"><ele>2856.9</ele><time>2026-03-15T09:32:22.000Z</time></trkpt>
<trkpt lat="41.725156" lon="23.496111"><ele>2856.9</ele><time>2026-03-15T09:32:23.000Z</time></trkpt>
<trkpt lat="41.725156" lon="23.496111"><ele>2856.9</ele><time>2026-03-15T09:32:24.000Z</time></trkpt>
<trkpt lat="41.725156" lon="23.496111"><ele>2856.9</ele><time>2026-03-15T09:32:25.000Z</time></trkpt>
<trkpt lat="41.725156" lon="23.496111"><ele>2857</ele><time>2026-03-15T09:32:26.000Z</time></trkpt>
<trkpt lat="41.725156" lon="23.496111"><ele>2857</ele><time>2026-03-15T09:32:27.000Z</time></trkpt>
<trkpt lat="41.725156" lon="23.496111"><ele>2857</ele><time>2026-03-15T09:32:28.000Z</time></trkpt>
<trkpt lat="41.725156" lon="23.496111"><ele>2857</ele><time>2026-03-15T09:32:29.000Z</time></trkpt>
<trkpt lat="41.725156" lon="23.496111"><ele>2857</ele><time>2026-03-15T09:32:30.000Z</time></trkpt>
<trkpt lat="41.725156" lon="23.496111"><ele>2857</ele><time>2026-03-15T09:32:31.000Z</time></trkpt>
<trkpt lat="41.725157" lon="23.496111"><ele>2857</ele><time>2026-03-15T09:32:32.000Z</time></trkpt>
<trkpt lat="41.725157" lon="23.496112"><ele>2857</ele><time>2026-03-15T09:32:33.000Z</time></trkpt>
<trkpt lat="41.725157" lon="23.496112"><ele>2857</ele><time>2026-03-15T09:32:34.000Z</time></trkpt>
<trkpt lat="41.725157" lon="23.496112"><ele>2857</ele><time>2026-03-15T09:32:35.000Z</time></trkpt>
<trkpt lat="41.725157" lon="23.496112"><ele>2857.1</ele><time>2026-03-15T09:32:36.000Z</time></trkpt>
<trkpt lat="41.725157" lon="23.496112"><ele>2857.1</ele><time>2026-03-15T09:32:37.000Z</time></trkpt>
<trkpt lat="41.725157" lon="23.496112"><ele>2857.1</ele><time>2026-03-15T09:32:38.000Z</time></trkpt>
<trkpt lat="41.725157" lon="23.496112"><ele>2857.1</ele><time>2026-03-15T09:32:39.000Z</time></trkpt>
<trkpt lat="41.725157" lon="23.496112"><ele>2857.1</ele><time>2026-03-15T09:32:40.000Z</time></trkpt>
<trkpt lat="41.725157" lon="23.496112"><ele>2857.1</ele><time>2026-03-15T09:32:41.000Z</time></trkpt>
<trkpt lat="41.725157" lon="23.496112"><ele>2857.1</ele><time>2026-03-15T09:32:42.000Z</time></trkpt>
<trkpt lat="41.725157" lon="23.496112"><ele>2857.1</ele><time>2026-03-15T09:32:43.000Z</time></trkpt>
<trkpt lat="41.725157" lon="23.496112"><ele>2857.1</ele><time>2026-03-15T09:32:44.000Z</time></trkpt>
<trkpt lat="41.725157" lon="23.496112"><ele>2857.1</ele><time>2026-03-15T09:32:45.000Z</time></trkpt>
<trkpt lat="41.725157" lon="23.496112"><ele>2857.2</ele><time>2026-03-15T09:32:46.000Z</time></trkpt>
<trkpt lat="41.725157" lon="23.496112"><ele>2857.2</ele><time>2026-03-15T09:32:47.000Z</time></trkpt>
<trkpt lat="41.725157" lon="23.496112"><ele>2857.2</ele><time>2026-03-15T09:32:48.000Z</time></trkpt>
<trkpt lat="41.725157" lon="23.496112"><ele>2857.2</ele><time>2026-03-15T09:32:49.000Z</time></trkpt>
<trkpt lat="41.725157" lon="23.496112"><ele>2857.2</ele><time>2026-03-15T09:32:50.000Z</time></trkpt>
<trkpt lat="41.725157" lon="23.496112"><ele>2857.2</ele><time>2026-03-15T09:32:51.000Z</time></trkpt>
<trkpt lat="41.725157" lon="23.496112"><ele>2857.2</ele><time>2026-03-15T09:32:52.000Z</time></trkpt>
<trkpt lat="41.725157" lon="23.496112"><ele>2857.2</ele><time>2026-03-15T09:32:53.000Z</time></trkpt>
<trkpt lat="41.725157" lon="23.496112"><ele>2857.2</ele><time>2026-03-15T09:32:54.000Z</time></trkpt>
<trkpt lat="41.725157" lon="23.496112"><ele>2857.2</ele><time>2026-03-15T09:32:55.000Z</time></trkpt>
<trkpt lat="41.725157" lon="23.496112"><ele>2857.1</ele><time>2026-03-15T09:32:56.000Z</time></trkpt>
<trkpt lat="41.725157" lon="23.496112"><ele>2857.1</ele><time>2026-03-15T09:32:57.000Z</time></trkpt>
<trkpt lat="41.725157" lon="23.496112"><ele>2857.1</ele><time>2026-03-15T09:32:58.000Z</time></trkpt>
<trkpt lat="41.725157" lon="23.496112"><ele>2857.1</ele><time>2026-03-15T09:32:59.000Z</time></trkpt>
<trkpt lat="41.725157" lon="23.496112"><ele>2857.1</ele><time>2026-03-15T09:33:00.000Z</time></trkpt>
<trkpt lat="41.725157" lon="23.496112"><ele>2857</ele><time>2026-03-15T09:33:01.000Z</time></trkpt>
<trkpt lat="41.725157" lon="23.496112"><ele>2857</ele><time>2026-03-15T09:33:02.000Z</time></trkpt>
<trkpt lat="41.725157" lon="23.496112"><ele>2857</ele><time>2026-03-15T09:33:03.000Z</time></trkpt>
<trkpt lat="41.725157" lon="23.496112"><ele>2857</ele><time>2026-03-15T09:33:04.000Z</time></trkpt>
<trkpt lat="41.725157" lon="23.496112"><ele>2857</ele><time>2026-03-15T09:33:05.000Z</time></trkpt>
<trkpt lat="41.725157" lon="23.496112"><ele>2857</ele><time>2026-03-15T09:33:06.000Z</time></trkpt>
<trkpt lat="41.725157" lon="23.496112"><ele>2857</ele><time>2026-03-15T09:33:07.000Z</time></trkpt>
<trkpt lat="41.725157" lon="23.496112"><ele>2857</ele><time>2026-03-15T09:33:08.000Z</time></trkpt>
<trkpt lat="41.725157" lon="23.496112"><ele>2857</ele><time>2026-03-15T09:33:09.000Z</time></trkpt>
<trkpt lat="41.725157" lon="23.496112"><ele>2857</ele><time>2026-03-15T09:33:10.000Z</time></trkpt>
<trkpt lat="41.725157" lon="23.496112"><ele>2857.1</ele><time>2026-03-15T09:33:11.000Z</time></trkpt>
<trkpt lat="41.725157" lon="23.496113"><ele>2857.1</ele><time>2026-03-15T09:33:12.000Z</time></trkpt>
<trkpt lat="41.725157" lon="23.496113"><ele>2857.1</ele><time>2026-03-15T09:33:13.000Z</time></trkpt>
<trkpt lat="41.725156" lon="23.496113"><ele>2857.1</ele><time>2026-03-15T09:33:14.000Z</time></trkpt>
<trkpt lat="41.725156" lon="23.496113"><ele>2857.1</ele><time>2026-03-15T09:33:15.000Z</time></trkpt>
<trkpt lat="41.725156" lon="23.496113"><ele>2857.3</ele><time>2026-03-15T09:33:16.000Z</time></trkpt>
<trkpt lat="41.725156" lon="23.496113"><ele>2857.3</ele><time>2026-03-15T09:33:17.000Z</time></trkpt>
<trkpt lat="41.725156" lon="23.496113"><ele>2857.3</ele><time>2026-03-15T09:33:18.000Z</time></trkpt>
<trkpt lat="41.725156" lon="23.496114"><ele>2857.3</ele><time>2026-03-15T09:33:19.000Z</time></trkpt>
<trkpt lat="41.725156" lon="23.496114"><ele>2857.3</ele><time>2026-03-15T09:33:20.000Z</time></trkpt>
<trkpt lat="41.725156" lon="23.496114"><ele>2857.5</ele><time>2026-03-15T09:33:21.000Z</time></trkpt>
<trkpt lat="41.725156" lon="23.496115"><ele>2857.5</ele><time>2026-03-15T09:33:22.000Z</time></trkpt>
<trkpt lat="41.725156" lon="23.496114"><ele>2857.5</ele><time>2026-03-15T09:33:23.000Z</time></trkpt>
<trkpt lat="41.725156" lon="23.496114"><ele>2857.5</ele><time>2026-03-15T09:33:24.000Z</time></trkpt>
<trkpt lat="41.725155" lon="23.496114"><ele>2857.5</ele><time>2026-03-15T09:33:25.000Z</time></trkpt>
<trkpt lat="41.725155" lon="23.496114"><ele>2857.5</ele><time>2026-03-15T09:33:26.000Z</time></trkpt>
<trkpt lat="41.725155" lon="23.496114"><ele>2857.5</ele><time>2026-03-15T09:33:27.000Z</time></trkpt>
<trkpt lat="41.725155" lon="23.496114"><ele>2857.5</ele><time>2026-03-15T09:33:28.000Z</time></trkpt>
<trkpt lat="41.725155" lon="23.496114"><ele>2857.5</ele><time>2026-03-15T09:33:29.000Z</time></trkpt>
<trkpt lat="41.725155" lon="23.496114"><ele>2857.5</ele><time>2026-03-15T09:33:30.000Z</time></trkpt>
<trkpt lat="41.725155" lon="23.496114"><ele>2857.4</ele><time>2026-03-15T09:33:31.000Z</time></trkpt>
<trkpt lat="41.725155" lon="23.496114"><ele>2857.4</ele><time>2026-03-15T09:33:32.000Z</time></trkpt>
<trkpt lat="41.725155" lon="23.496114"><ele>2857.4</ele><time>2026-03-15T09:33:33.000Z</time></trkpt>
<trkpt lat="41.725155" lon="23.496114"><ele>2857.4</ele><time>2026-03-15T09:33:34.000Z</time></trkpt>
<trkpt lat="41.725155" lon="23.496114"><ele>2857.4</ele><time>2026-03-15T09:33:35.000Z</time></trkpt>
<trkpt lat="41.725155" lon="23.496114"><ele>2857.4</ele><time>2026-03-15T09:33:36.000Z</time></trkpt>
<trkpt lat="41.725155" lon="23.496114"><ele>2857.4</ele><time>2026-03-15T09:33:37.000Z</time></trkpt>
<trkpt lat="41.725155" lon="23.496114"><ele>2857.4</ele><time>2026-03-15T09:33:38.000Z</time></trkpt>
<trkpt lat="41.725155" lon="23.496114"><ele>2857.4</ele><time>2026-03-15T09:33:39.000Z</time></trkpt>
<trkpt lat="41.725155" lon="23.496114"><ele>2857.4</ele><time>2026-03-15T09:33:40.000Z</time></trkpt>
<trkpt lat="41.725155" lon="23.496114"><ele>2857.5</ele><time>2026-03-15T09:33:41.000Z</time></trkpt>
<trkpt lat="41.725155" lon="23.496114"><ele>2857.5</ele><time>2026-03-15T09:33:42.000Z</time></trkpt>
<trkpt lat="41.725155" lon="23.496114"><ele>2857.5</ele><time>2026-03-15T09:33:43.000Z</time></trkpt>
<trkpt lat="41.725155" lon="23.496114"><ele>2857.5</ele><time>2026-03-15T09:33:44.000Z</time></trkpt>
<trkpt lat="41.725155" lon="23.496115"><ele>2857.5</ele><time>2026-03-15T09:33:45.000Z</time></trkpt>
<trkpt lat="41.725155" lon="23.496115"><ele>2857.7</ele><time>2026-03-15T09:33:46.000Z</time></trkpt>
<trkpt lat="41.725155" lon="23.496115"><ele>2857.7</ele><time>2026-03-15T09:33:47.000Z</time></trkpt>
<trkpt lat="41.725155" lon="23.496115"><ele>2857.7</ele><time>2026-03-15T09:33:48.000Z</time></trkpt>
<trkpt lat="41.725155" lon="23.496115"><ele>2857.7</ele><time>2026-03-15T09:33:49.000Z</time></trkpt>
<trkpt lat="41.725155" lon="23.496115"><ele>2857.7</ele><time>2026-03-15T09:33:50.000Z</time></trkpt>
<trkpt lat="41.725155" lon="23.496115"><ele>2857.6</ele><time>2026-03-15T09:33:51.000Z</time></trkpt>
<trkpt lat="41.725155" lon="23.496115"><ele>2857.6</ele><time>2026-03-15T09:33:52.000Z</time></trkpt>
<trkpt lat="41.725155" lon="23.496115"><ele>2857.6</ele><time>2026-03-15T09:33:53.000Z</time></trkpt>
<trkpt lat="41.725155" lon="23.496115"><ele>2857.6</ele><time>2026-03-15T09:33:54.000Z</time></trkpt>
<trkpt lat="41.725154" lon="23.496115"><ele>2857.6</ele><time>2026-03-15T09:33:55.000Z</time></trkpt>
<trkpt lat="41.725154" lon="23.496116"><ele>2857.5</ele><time>2026-03-15T09:33:56.000Z</time></trkpt>
<trkpt lat="41.725154" lon="23.496116"><ele>2857.5</ele><time>2026-03-15T09:33:57.000Z</time></trkpt>
<trkpt lat="41.725154" lon="23.496116"><ele>2857.5</ele><time>2026-03-15T09:33:58.000Z</time></trkpt>
<trkpt lat="41.725154" lon="23.496116"><ele>2857.5</ele><time>2026-03-15T09:33:59.000Z</time></trkpt>
<trkpt lat="41.725154" lon="23.496116"><ele>2857.5</ele><time>2026-03-15T09:34:00.000Z</time></trkpt>
<trkpt lat="41.725154" lon="23.496116"><ele>2857.4</ele><time>2026-03-15T09:34:01.000Z</time></trkpt>
<trkpt lat="41.725154" lon="23.496116"><ele>2857.4</ele><time>2026-03-15T09:34:02.000Z</time></trkpt>
<trkpt lat="41.725154" lon="23.496116"><ele>2857.4</ele><time>2026-03-15T09:34:03.000Z</time></trkpt>
<trkpt lat="41.725154" lon="23.496116"><ele>2857.4</ele><time>2026-03-15T09:34:04.000Z</time></trkpt>
<trkpt lat="41.725154" lon="23.496116"><ele>2857.4</ele><time>2026-03-15T09:34:05.000Z</time></trkpt>
<trkpt lat="41.725154" lon="23.496116"><ele>2857.3</ele><time>2026-03-15T09:34:06.000Z</time></trkpt>
<trkpt lat="41.725154" lon="23.496116"><ele>2857.3</ele><time>2026-03-15T09:34:07.000Z</time></trkpt>
<trkpt lat="41.725154" lon="23.496116"><ele>2857.3</ele><time>2026-03-15T09:34:08.000Z</time></trkpt>
<trkpt lat="41.725153" lon="23.496117"><ele>2857.3</ele><time>2026-03-15T09:34:09.000Z</time></trkpt>
<trkpt lat="41.725153" lon="23.496117"><ele>2857.3</ele><time>2026-03-15T09:34:10.000Z</time></trkpt>
<trkpt lat="41.725152" lon="23.496117"><ele>2857.4</ele><time>2026-03-15T09:34:11.000Z</time></trkpt>
<trkpt lat="41.725152" lon="23.496117"><ele>2857.4</ele><time>2026-03-15T09:34:12.000Z</time></trkpt>
<trkpt lat="41.725152" lon="23.496117"><ele>2857.4</ele><time>2026-03-15T09:34:13.000Z</time></trkpt>
<trkpt lat="41.725152" lon="23.496117"><ele>2857.4</ele><time>2026-03-15T09:34:14.000Z</time></trkpt>
<trkpt lat="41.725152" lon="23.496117"><ele>2857.4</ele><time>2026-03-15T09:34:15.000Z</time></trkpt>
<trkpt lat="41.725152" lon="23.496117"><ele>2857.4</ele><time>2026-03-15T09:34:16.000Z</time></trkpt>
<trkpt lat="41.725152" lon="23.496117"><ele>2857.4</ele><time>2026-03-15T09:34:17.000Z</time></trkpt>
<trkpt lat="41.725152" lon="23.496117"><ele>2857.4</ele><time>2026-03-15T09:34:18.000Z</time></trkpt>
<trkpt lat="41.725152" lon="23.496117"><ele>2857.4</ele><time>2026-03-15T09:34:19.000Z</time></trkpt>
<trkpt lat="41.725152" lon="23.496117"><ele>2857.4</ele><time>2026-03-15T09:34:20.000Z</time></trkpt>
<trkpt lat="41.725152" lon="23.496117"><ele>2857.5</ele><time>2026-03-15T09:34:21.000Z</time></trkpt>
<trkpt lat="41.725152" lon="23.496117"><ele>2857.5</ele><time>2026-03-15T09:34:22.000Z</time></trkpt>
<trkpt lat="41.725152" lon="23.496117"><ele>2857.5</ele><time>2026-03-15T09:34:23.000Z</time></trkpt>
<trkpt lat="41.725153" lon="23.496117"><ele>2857.5</ele><time>2026-03-15T09:34:24.000Z</time></trkpt>
<trkpt lat="41.725154" lon="23.496118"><ele>2857.5</ele><time>2026-03-15T09:34:25.000Z</time></trkpt>
<trkpt lat="41.725155" lon="23.496118"><ele>2857.5</ele><time>2026-03-15T09:34:26.000Z</time></trkpt>
<trkpt lat="41.725155" lon="23.496119"><ele>2857.5</ele><time>2026-03-15T09:34:27.000Z</time></trkpt>
<trkpt lat="41.725156" lon="23.496119"><ele>2857.5</ele><time>2026-03-15T09:34:28.000Z</time></trkpt>
<trkpt lat="41.725156" lon="23.496119"><ele>2857.5</ele><time>2026-03-15T09:34:29.000Z</time></trkpt>
<trkpt lat="41.725156" lon="23.496119"><ele>2857.5</ele><time>2026-03-15T09:34:30.000Z</time></trkpt>
<trkpt lat="41.725156" lon="23.496119"><ele>2857.5</ele><time>2026-03-15T09:34:31.000Z</time></trkpt>
<trkpt lat="41.725156" lon="23.496119"><ele>2857.5</ele><time>2026-03-15T09:34:32.000Z</time></trkpt>
<trkpt lat="41.725156" lon="23.496119"><ele>2857.5</ele><time>2026-03-15T09:34:33.000Z</time></trkpt>
<trkpt lat="41.725156" lon="23.49612"><ele>2857.5</ele><time>2026-03-15T09:34:34.000Z</time></trkpt>
<trkpt lat="41.725155" lon="23.49612"><ele>2857.5</ele><time>2026-03-15T09:34:35.000Z</time></trkpt>
<trkpt lat="41.725155" lon="23.49612"><ele>2857.8</ele><time>2026-03-15T09:34:36.000Z</time></trkpt>
<trkpt lat="41.725155" lon="23.49612"><ele>2857.8</ele><time>2026-03-15T09:34:37.000Z</time></trkpt>
<trkpt lat="41.725156" lon="23.49612"><ele>2857.8</ele><time>2026-03-15T09:34:38.000Z</time></trkpt>
<trkpt lat="41.725156" lon="23.49612"><ele>2857.8</ele><time>2026-03-15T09:34:39.000Z</time></trkpt>
<trkpt lat="41.725156" lon="23.49612"><ele>2857.8</ele><time>2026-03-15T09:34:40.000Z</time></trkpt>
<trkpt lat="41.725157" lon="23.496121"><ele>2857.9</ele><time>2026-03-15T09:34:41.000Z</time></trkpt>
<trkpt lat="41.725156" lon="23.496122"><ele>2857.9</ele><time>2026-03-15T09:34:42.000Z</time></trkpt>
<trkpt lat="41.725156" lon="23.496123"><ele>2857.9</ele><time>2026-03-15T09:34:43.000Z</time></trkpt>
<trkpt lat="41.725156" lon="23.496124"><ele>2857.9</ele><time>2026-03-15T09:34:44.000Z</time></trkpt>
<trkpt lat="41.725156" lon="23.496125"><ele>2857.9</ele><time>2026-03-15T09:34:45.000Z</time></trkpt>
<trkpt lat="41.725156" lon="23.496125"><ele>2857.9</ele><time>2026-03-15T09:34:46.000Z</time></trkpt>
<trkpt lat="41.725156" lon="23.496125"><ele>2857.9</ele><time>2026-03-15T09:34:47.000Z</time></trkpt>
<trkpt lat="41.725156" lon="23.496125"><ele>2857.9</ele><time>2026-03-15T09:34:48.000Z</time></trkpt>
<trkpt lat="41.725156" lon="23.496125"><ele>2857.9</ele><time>2026-03-15T09:34:49.000Z</time></trkpt>
<trkpt lat="41.725156" lon="23.496126"><ele>2857.9</ele><time>2026-03-15T09:34:50.000Z</time></trkpt>
<trkpt lat="41.725156" lon="23.496126"><ele>2857.7</ele><time>2026-03-15T09:34:51.000Z</time></trkpt>
<trkpt lat="41.725156" lon="23.496126"><ele>2857.7</ele><time>2026-03-15T09:34:52.000Z</time></trkpt>
<trkpt lat="41.725156" lon="23.496126"><ele>2857.7</ele><time>2026-03-15T09:34:53.000Z</time></trkpt>
<trkpt lat="41.725155" lon="23.496127"><ele>2857.7</ele><time>2026-03-15T09:34:54.000Z</time></trkpt>
<trkpt lat="41.725155" lon="23.496127"><ele>2857.7</ele><time>2026-03-15T09:34:55.000Z</time></trkpt>
<trkpt lat="41.725155" lon="23.496127"><ele>2857.5</ele><time>2026-03-15T09:34:56.000Z</time></trkpt>
<trkpt lat="41.725155" lon="23.496127"><ele>2857.5</ele><time>2026-03-15T09:34:57.000Z</time></trkpt>
<trkpt lat="41.725155" lon="23.496127"><ele>2857.5</ele><time>2026-03-15T09:34:58.000Z</time></trkpt>
<trkpt lat="41.725155" lon="23.496127"><ele>2857.5</ele><time>2026-03-15T09:34:59.000Z</time></trkpt>
<trkpt lat="41.725155" lon="23.496127"><ele>2857.5</ele><time>2026-03-15T09:35:00.000Z</time></trkpt>
<trkpt lat="41.725155" lon="23.496127"><ele>2857.4</ele><time>2026-03-15T09:35:01.000Z</time></trkpt>
<trkpt lat="41.725155" lon="23.496127"><ele>2857.4</ele><time>2026-03-15T09:35:02.000Z</time></trkpt>
<trkpt lat="41.725155" lon="23.496127"><ele>2857.4</ele><time>2026-03-15T09:35:03.000Z</time></trkpt>
<trkpt lat="41.725155" lon="23.496127"><ele>2857.4</ele><time>2026-03-15T09:35:04.000Z</time></trkpt>
<trkpt lat="41.725155" lon="23.496127"><ele>2857.4</ele><time>2026-03-15T09:35:05.000Z</time></trkpt>
<trkpt lat="41.725155" lon="23.496127"><ele>2857.4</ele><time>2026-03-15T09:35:06.000Z</time></trkpt>
<trkpt lat="41.725155" lon="23.496127"><ele>2857.4</ele><time>2026-03-15T09:35:07.000Z</time></trkpt>
<trkpt lat="41.725155" lon="23.496127"><ele>2857.4</ele><time>2026-03-15T09:35:08.000Z</time></trkpt>
<trkpt lat="41.725155" lon="23.496127"><ele>2857.4</ele><time>2026-03-15T09:35:09.000Z</time></trkpt>
<trkpt lat="41.725155" lon="23.496127"><ele>2857.4</ele><time>2026-03-15T09:35:10.000Z</time></trkpt>
<trkpt lat="41.725155" lon="23.496127"><ele>2857.5</ele><time>2026-03-15T09:35:11.000Z</time></trkpt>
<trkpt lat="41.725155" lon="23.496127"><ele>2857.5</ele><time>2026-03-15T09:35:12.000Z</time></trkpt>
<trkpt lat="41.725155" lon="23.496127"><ele>2857.5</ele><time>2026-03-15T09:35:13.000Z</time></trkpt>
<trkpt lat="41.725155" lon="23.496127"><ele>2857.5</ele><time>2026-03-15T09:35:14.000Z</time></trkpt>
<trkpt lat="41.725155" lon="23.496127"><ele>2857.5</ele><time>2026-03-15T09:35:15.000Z</time></trkpt>
<trkpt lat="41.725155" lon="23.496127"><ele>2857.5</ele><time>2026-03-15T09:35:16.000Z</time></trkpt>
<trkpt lat="41.725155" lon="23.496127"><ele>2857.5</ele><time>2026-03-15T09:35:17.000Z</time></trkpt>
<trkpt lat="41.725155" lon="23.496126"><ele>2857.5</ele><time>2026-03-15T09:35:18.000Z</time></trkpt>
<trkpt lat="41.725154" lon="23.496126"><ele>2857.5</ele><time>2026-03-15T09:35:19.000Z</time></trkpt>
<trkpt lat="41.725153" lon="23.496126"><ele>2857.5</ele><time>2026-03-15T09:35:20.000Z</time></trkpt>
<trkpt lat="41.725153" lon="23.496126"><ele>2857.6</ele><time>2026-03-15T09:35:21.000Z</time></trkpt>
<trkpt lat="41.725152" lon="23.496125"><ele>2857.6</ele><time>2026-03-15T09:35:22.000Z</time></trkpt>
<trkpt lat="41.725152" lon="23.496125"><ele>2857.6</ele><time>2026-03-15T09:35:23.000Z</time></trkpt>
<trkpt lat="41.725152" lon="23.496124"><ele>2857.6</ele><time>2026-03-15T09:35:24.000Z</time></trkpt>
<trkpt lat="41.725152" lon="23.496123"><ele>2857.6</ele><time>2026-03-15T09:35:25.000Z</time></trkpt>
<trkpt lat="41.725153" lon="23.496122"><ele>2857.7</ele><time>2026-03-15T09:35:26.000Z</time></trkpt>
<trkpt lat="41.725153" lon="23.496122"><ele>2857.7</ele><time>2026-03-15T09:35:27.000Z</time></trkpt>
<trkpt lat="41.725154" lon="23.496121"><ele>2857.7</ele><time>2026-03-15T09:35:28.000Z</time></trkpt>
<trkpt lat="41.725155" lon="23.496121"><ele>2857.7</ele><time>2026-03-15T09:35:29.000Z</time></trkpt>
<trkpt lat="41.725155" lon="23.496121"><ele>2857.7</ele><time>2026-03-15T09:35:30.000Z</time></trkpt>
<trkpt lat="41.725155" lon="23.49612"><ele>2858.1</ele><time>2026-03-15T09:35:31.000Z</time></trkpt>
<trkpt lat="41.725155" lon="23.49612"><ele>2858.1</ele><time>2026-03-15T09:35:32.000Z</time></trkpt>
<trkpt lat="41.725156" lon="23.49612"><ele>2858.1</ele><time>2026-03-15T09:35:33.000Z</time></trkpt>
<trkpt lat="41.725157" lon="23.496122"><ele>2858.1</ele><time>2026-03-15T09:35:34.000Z</time></trkpt>
<trkpt lat="41.725159" lon="23.496125"><ele>2858.1</ele><time>2026-03-15T09:35:35.000Z</time></trkpt>
<trkpt lat="41.72516" lon="23.496129"><ele>2858.4</ele><time>2026-03-15T09:35:36.000Z</time></trkpt>
<trkpt lat="41.725161" lon="23.496133"><ele>2858.4</ele><time>2026-03-15T09:35:37.000Z</time></trkpt>
<trkpt lat="41.72516" lon="23.496137"><ele>2858.4</ele><time>2026-03-15T09:35:38.000Z</time></trkpt>
<trkpt lat="41.725159" lon="23.49614"><ele>2858.4</ele><time>2026-03-15T09:35:39.000Z</time></trkpt>
<trkpt lat="41.725159" lon="23.496142"><ele>2858.4</ele><time>2026-03-15T09:35:40.000Z</time></trkpt>
<trkpt lat="41.725159" lon="23.496142"><ele>2858.6</ele><time>2026-03-15T09:35:41.000Z</time></trkpt>
<trkpt lat="41.725158" lon="23.49614"><ele>2858.6</ele><time>2026-03-15T09:35:42.000Z</time></trkpt>
<trkpt lat="41.725159" lon="23.496137"><ele>2858.6</ele><time>2026-03-15T09:35:43.000Z</time></trkpt>
<trkpt lat="41.725159" lon="23.496134"><ele>2858.6</ele><time>2026-03-15T09:35:44.000Z</time></trkpt>
<trkpt lat="41.725159" lon="23.496132"><ele>2858.6</ele><time>2026-03-15T09:35:45.000Z</time></trkpt>
<trkpt lat="41.72516" lon="23.496131"><ele>2858.9</ele><time>2026-03-15T09:35:46.000Z</time></trkpt>
<trkpt lat="41.725162" lon="23.496133"><ele>2858.9</ele><time>2026-03-15T09:35:47.000Z</time></trkpt>
<trkpt lat="41.725163" lon="23.496136"><ele>2858.9</ele><time>2026-03-15T09:35:48.000Z</time></trkpt>
<trkpt lat="41.725165" lon="23.496141"><ele>2858.9</ele><time>2026-03-15T09:35:49.000Z</time></trkpt>
<trkpt lat="41.725166" lon="23.496144"><ele>2858.9</ele><time>2026-03-15T09:35:50.000Z</time></trkpt>
<trkpt lat="41.725165" lon="23.496148"><ele>2859</ele><time>2026-03-15T09:35:51.000Z</time></trkpt>
<trkpt lat="41.725164" lon="23.49615"><ele>2859</ele><time>2026-03-15T09:35:52.000Z</time></trkpt>
<trkpt lat="41.725163" lon="23.49615"><ele>2859</ele><time>2026-03-15T09:35:53.000Z</time></trkpt>
<trkpt lat="41.725161" lon="23.496149"><ele>2859</ele><time>2026-03-15T09:35:54.000Z</time></trkpt>
<trkpt lat="41.72516" lon="23.496147"><ele>2859</ele><time>2026-03-15T09:35:55.000Z</time></trkpt>
<trkpt lat="41.725161" lon="23.496145"><ele>2859</ele><time>2026-03-15T09:35:56.000Z</time></trkpt>
<trkpt lat="41.725162" lon="23.496144"><ele>2859</ele><time>2026-03-15T09:35:57.000Z</time></trkpt>
<trkpt lat="41.725164" lon="23.496145"><ele>2859</ele><time>2026-03-15T09:35:58.000Z</time></trkpt>
<trkpt lat="41.725165" lon="23.496145"><ele>2859</ele><time>2026-03-15T09:35:59.000Z</time></trkpt>
<trkpt lat="41.725165" lon="23.496147"><ele>2859</ele><time>2026-03-15T09:36:00.000Z</time></trkpt>
<trkpt lat="41.725165" lon="23.49615"><ele>2858.9</ele><time>2026-03-15T09:36:01.000Z</time></trkpt>
<trkpt lat="41.725164" lon="23.496152"><ele>2858.9</ele><time>2026-03-15T09:36:02.000Z</time></trkpt>
<trkpt lat="41.725165" lon="23.496154"><ele>2858.9</ele><time>2026-03-15T09:36:03.000Z</time></trkpt>
<trkpt lat="41.725165" lon="23.496156"><ele>2858.9</ele><time>2026-03-15T09:36:04.000Z</time></trkpt>
<trkpt lat="41.725164" lon="23.496157"><ele>2858.9</ele><time>2026-03-15T09:36:05.000Z</time></trkpt>
<trkpt lat="41.725164" lon="23.496157"><ele>2858.9</ele><time>2026-03-15T09:36:06.000Z</time></trkpt>
<trkpt lat="41.725164" lon="23.496157"><ele>2858.9</ele><time>2026-03-15T09:36:07.000Z</time></trkpt>
<trkpt lat="41.725164" lon="23.496157"><ele>2858.9</ele><time>2026-03-15T09:36:08.000Z</time></trkpt>
<trkpt lat="41.725165" lon="23.496156"><ele>2858.9</ele><time>2026-03-15T09:36:09.000Z</time></trkpt>
<trkpt lat="41.725165" lon="23.496155"><ele>2858.9</ele><time>2026-03-15T09:36:10.000Z</time></trkpt>
<trkpt lat="41.725165" lon="23.496153"><ele>2858.9</ele><time>2026-03-15T09:36:11.000Z</time></trkpt>
<trkpt lat="41.725164" lon="23.49615"><ele>2858.9</ele><time>2026-03-15T09:36:12.000Z</time></trkpt>
<trkpt lat="41.725164" lon="23.496145"><ele>2858.9</ele><time>2026-03-15T09:36:13.000Z</time></trkpt>
<trkpt lat="41.725162" lon="23.496142"><ele>2858.9</ele><time>2026-03-15T09:36:14.000Z</time></trkpt>
<trkpt lat="41.72516" lon="23.496138"><ele>2858.9</ele><time>2026-03-15T09:36:15.000Z</time></trkpt>
<trkpt lat="41.725159" lon="23.496135"><ele>2859</ele><time>2026-03-15T09:36:16.000Z</time></trkpt>
<trkpt lat="41.725159" lon="23.496133"><ele>2859</ele><time>2026-03-15T09:36:17.000Z</time></trkpt>
<trkpt lat="41.725159" lon="23.496132"><ele>2859</ele><time>2026-03-15T09:36:18.000Z</time></trkpt>
<trkpt lat="41.725159" lon="23.496132"><ele>2859</ele><time>2026-03-15T09:36:19.000Z</time></trkpt>
<trkpt lat="41.725159" lon="23.496132"><ele>2859</ele><time>2026-03-15T09:36:20.000Z</time></trkpt>
<trkpt lat="41.725159" lon="23.496132"><ele>2859.1</ele><time>2026-03-15T09:36:21.000Z</time></trkpt>
<trkpt lat="41.725159" lon="23.496132"><ele>2859.1</ele><time>2026-03-15T09:36:22.000Z</time></trkpt>
<trkpt lat="41.725159" lon="23.496132"><ele>2859.1</ele><time>2026-03-15T09:36:23.000Z</time></trkpt>
<trkpt lat="41.725159" lon="23.496132"><ele>2859.1</ele><time>2026-03-15T09:36:24.000Z</time></trkpt>
<trkpt lat="41.725159" lon="23.496133"><ele>2859.1</ele><time>2026-03-15T09:36:25.000Z</time></trkpt>
<trkpt lat="41.72516" lon="23.496135"><ele>2859.1</ele><time>2026-03-15T09:36:26.000Z</time></trkpt>
<trkpt lat="41.72516" lon="23.496136"><ele>2859.1</ele><time>2026-03-15T09:36:27.000Z</time></trkpt>
<trkpt lat="41.72516" lon="23.496138"><ele>2859.1</ele><time>2026-03-15T09:36:28.000Z</time></trkpt>
<trkpt lat="41.72516" lon="23.49614"><ele>2859.1</ele><time>2026-03-15T09:36:29.000Z</time></trkpt>
<trkpt lat="41.72516" lon="23.49614"><ele>2859.1</ele><time>2026-03-15T09:36:30.000Z</time></trkpt>
<trkpt lat="41.72516" lon="23.496139"><ele>2858.8</ele><time>2026-03-15T09:36:31.000Z</time></trkpt>
<trkpt lat="41.725161" lon="23.496138"><ele>2858.8</ele><time>2026-03-15T09:36:32.000Z</time></trkpt>
<trkpt lat="41.725162" lon="23.496137"><ele>2858.8</ele><time>2026-03-15T09:36:33.000Z</time></trkpt>
<trkpt lat="41.725162" lon="23.496136"><ele>2858.8</ele><time>2026-03-15T09:36:34.000Z</time></trkpt>
<trkpt lat="41.725162" lon="23.496135"><ele>2858.8</ele><time>2026-03-15T09:36:35.000Z</time></trkpt>
<trkpt lat="41.72516" lon="23.496134"><ele>2858.7</ele><time>2026-03-15T09:36:36.000Z</time></trkpt>
<trkpt lat="41.725158" lon="23.496135"><ele>2858.7</ele><time>2026-03-15T09:36:37.000Z</time></trkpt>
<trkpt lat="41.725156" lon="23.496135"><ele>2858.7</ele><time>2026-03-15T09:36:38.000Z</time></trkpt>
<trkpt lat="41.725155" lon="23.496135"><ele>2858.7</ele><time>2026-03-15T09:36:39.000Z</time></trkpt>
<trkpt lat="41.725156" lon="23.496135"><ele>2858.7</ele><time>2026-03-15T09:36:40.000Z</time></trkpt>
<trkpt lat="41.725156" lon="23.496136"><ele>2858.8</ele><time>2026-03-15T09:36:41.000Z</time></trkpt>
<trkpt lat="41.725157" lon="23.496136"><ele>2858.8</ele><time>2026-03-15T09:36:42.000Z</time></trkpt>
<trkpt lat="41.725157" lon="23.496137"><ele>2858.8</ele><time>2026-03-15T09:36:43.000Z</time></trkpt>
<trkpt lat="41.725158" lon="23.496138"><ele>2858.8</ele><time>2026-03-15T09:36:44.000Z</time></trkpt>
<trkpt lat="41.725158" lon="23.496139"><ele>2858.8</ele><time>2026-03-15T09:36:45.000Z</time></trkpt>
<trkpt lat="41.725159" lon="23.49614"><ele>2858.8</ele><time>2026-03-15T09:36:46.000Z</time></trkpt>
<trkpt lat="41.72516" lon="23.496141"><ele>2858.8</ele><time>2026-03-15T09:36:47.000Z</time></trkpt>
<trkpt lat="41.725161" lon="23.496141"><ele>2858.8</ele><time>2026-03-15T09:36:48.000Z</time></trkpt>
<trkpt lat="41.725161" lon="23.496141"><ele>2858.8</ele><time>2026-03-15T09:36:49.000Z</time></trkpt>
<trkpt lat="41.725161" lon="23.496141"><ele>2858.8</ele><time>2026-03-15T09:36:50.000Z</time></trkpt>
<trkpt lat="41.725161" lon="23.496141"><ele>2859</ele><time>2026-03-15T09:36:51.000Z</time></trkpt>
<trkpt lat="41.725162" lon="23.49614"><ele>2859</ele><time>2026-03-15T09:36:52.000Z</time></trkpt>
<trkpt lat="41.725162" lon="23.496139"><ele>2859</ele><time>2026-03-15T09:36:53.000Z</time></trkpt>
<trkpt lat="41.725161" lon="23.496139"><ele>2859</ele><time>2026-03-15T09:36:54.000Z</time></trkpt>
<trkpt lat="41.725161" lon="23.496138"><ele>2859</ele><time>2026-03-15T09:36:55.000Z</time></trkpt>
<trkpt lat="41.72516" lon="23.496137"><ele>2859.1</ele><time>2026-03-15T09:36:56.000Z</time></trkpt>
<trkpt lat="41.72516" lon="23.496137"><ele>2859.1</ele><time>2026-03-15T09:36:57.000Z</time></trkpt>
<trkpt lat="41.725159" lon="23.496137"><ele>2859.1</ele><time>2026-03-15T09:36:58.000Z</time></trkpt>
<trkpt lat="41.725159" lon="23.496137"><ele>2859.1</ele><time>2026-03-15T09:36:59.000Z</time></trkpt>
<trkpt lat="41.725158" lon="23.496137"><ele>2859.1</ele><time>2026-03-15T09:37:00.000Z</time></trkpt>
<trkpt lat="41.725157" lon="23.496137"><ele>2859.5</ele><time>2026-03-15T09:37:01.000Z</time></trkpt>
<trkpt lat="41.725157" lon="23.496137"><ele>2859.5</ele><time>2026-03-15T09:37:02.000Z</time></trkpt>
<trkpt lat="41.725157" lon="23.496137"><ele>2859.5</ele><time>2026-03-15T09:37:03.000Z</time></trkpt>
<trkpt lat="41.725157" lon="23.496137"><ele>2859.5</ele><time>2026-03-15T09:37:04.000Z</time></trkpt>
<trkpt lat="41.725158" lon="23.496137"><ele>2859.5</ele><time>2026-03-15T09:37:05.000Z</time></trkpt>
<trkpt lat="41.725158" lon="23.496138"><ele>2859.7</ele><time>2026-03-15T09:37:06.000Z</time></trkpt>
<trkpt lat="41.725158" lon="23.496138"><ele>2859.7</ele><time>2026-03-15T09:37:07.000Z</time></trkpt>
<trkpt lat="41.725158" lon="23.496138"><ele>2859.7</ele><time>2026-03-15T09:37:08.000Z</time></trkpt>
<trkpt lat="41.725158" lon="23.496138"><ele>2859.7</ele><time>2026-03-15T09:37:09.000Z</time></trkpt>
<trkpt lat="41.725158" lon="23.496138"><ele>2859.7</ele><time>2026-03-15T09:37:10.000Z</time></trkpt>
<trkpt lat="41.725158" lon="23.496138"><ele>2859.7</ele><time>2026-03-15T09:37:11.000Z</time></trkpt>
<trkpt lat="41.725158" lon="23.496137"><ele>2859.7</ele><time>2026-03-15T09:37:12.000Z</time></trkpt>
<trkpt lat="41.725159" lon="23.496137"><ele>2859.7</ele><time>2026-03-15T09:37:13.000Z</time></trkpt>
<trkpt lat="41.725159" lon="23.496137"><ele>2859.7</ele><time>2026-03-15T09:37:14.000Z</time></trkpt>
<trkpt lat="41.725159" lon="23.496136"><ele>2859.7</ele><time>2026-03-15T09:37:15.000Z</time></trkpt>
<trkpt lat="41.72516" lon="23.496136"><ele>2859.7</ele><time>2026-03-15T09:37:16.000Z</time></trkpt>
<trkpt lat="41.72516" lon="23.496136"><ele>2859.7</ele><time>2026-03-15T09:37:17.000Z</time></trkpt>
<trkpt lat="41.72516" lon="23.496135"><ele>2859.7</ele><time>2026-03-15T09:37:18.000Z</time></trkpt>
<trkpt lat="41.725161" lon="23.496135"><ele>2859.7</ele><time>2026-03-15T09:37:19.000Z</time></trkpt>
<trkpt lat="41.725162" lon="23.496135"><ele>2859.7</ele><time>2026-03-15T09:37:20.000Z</time></trkpt>
<trkpt lat="41.725163" lon="23.496134"><ele>2859.7</ele><time>2026-03-15T09:37:21.000Z</time></trkpt>
<trkpt lat="41.725164" lon="23.496134"><ele>2859.7</ele><time>2026-03-15T09:37:22.000Z</time></trkpt>
<trkpt lat="41.725164" lon="23.496134"><ele>2859.7</ele><time>2026-03-15T09:37:23.000Z</time></trkpt>
<trkpt lat="41.725165" lon="23.496134"><ele>2859.7</ele><time>2026-03-15T09:37:24.000Z</time></trkpt>
<trkpt lat="41.725165" lon="23.496134"><ele>2859.7</ele><time>2026-03-15T09:37:25.000Z</time></trkpt>
<trkpt lat="41.725165" lon="23.496134"><ele>2859.8</ele><time>2026-03-15T09:37:26.000Z</time></trkpt>
<trkpt lat="41.725165" lon="23.496134"><ele>2859.8</ele><time>2026-03-15T09:37:27.000Z</time></trkpt>
<trkpt lat="41.725165" lon="23.496134"><ele>2859.8</ele><time>2026-03-15T09:37:28.000Z</time></trkpt>
<trkpt lat="41.725165" lon="23.496134"><ele>2859.8</ele><time>2026-03-15T09:37:29.000Z</time></trkpt>
<trkpt lat="41.725165" lon="23.496134"><ele>2859.8</ele><time>2026-03-15T09:37:30.000Z</time></trkpt>
<trkpt lat="41.725165" lon="23.496134"><ele>2860.1</ele><time>2026-03-15T09:37:31.000Z</time></trkpt>
<trkpt lat="41.725165" lon="23.496134"><ele>2860.1</ele><time>2026-03-15T09:37:32.000Z</time></trkpt>
<trkpt lat="41.725165" lon="23.496134"><ele>2860.1</ele><time>2026-03-15T09:37:33.000Z</time></trkpt>
<trkpt lat="41.725165" lon="23.496134"><ele>2860.1</ele><time>2026-03-15T09:37:34.000Z</time></trkpt>
<trkpt lat="41.725165" lon="23.496134"><ele>2860.1</ele><time>2026-03-15T09:37:35.000Z</time></trkpt>
<trkpt lat="41.725165" lon="23.496134"><ele>2860.4</ele><time>2026-03-15T09:37:36.000Z</time></trkpt>
<trkpt lat="41.725165" lon="23.496134"><ele>2860.4</ele><time>2026-03-15T09:37:37.000Z</time></trkpt>
<trkpt lat="41.725165" lon="23.496134"><ele>2860.4</ele><time>2026-03-15T09:37:38.000Z</time></trkpt>
<trkpt lat="41.725165" lon="23.496134"><ele>2860.4</ele><time>2026-03-15T09:37:39.000Z</time></trkpt>
<trkpt lat="41.725165" lon="23.496134"><ele>2860.4</ele><time>2026-03-15T09:37:40.000Z</time></trkpt>
<trkpt lat="41.725165" lon="23.496134"><ele>2860.5</ele><time>2026-03-15T09:37:41.000Z</time></trkpt>
<trkpt lat="41.725165" lon="23.496133"><ele>2860.5</ele><time>2026-03-15T09:37:42.000Z</time></trkpt>
<trkpt lat="41.725165" lon="23.496133"><ele>2860.5</ele><time>2026-03-15T09:37:43.000Z</time></trkpt>
<trkpt lat="41.725165" lon="23.496133"><ele>2860.5</ele><time>2026-03-15T09:37:44.000Z</time></trkpt>
<trkpt lat="41.725165" lon="23.496133"><ele>2860.5</ele><time>2026-03-15T09:37:45.000Z</time></trkpt>
<trkpt lat="41.725165" lon="23.496133"><ele>2860.6</ele><time>2026-03-15T09:37:46.000Z</time></trkpt>
<trkpt lat="41.725165" lon="23.496133"><ele>2860.6</ele><time>2026-03-15T09:37:47.000Z</time></trkpt>
<trkpt lat="41.725165" lon="23.496133"><ele>2860.6</ele><time>2026-03-15T09:37:48.000Z</time></trkpt>
<trkpt lat="41.725166" lon="23.496133"><ele>2860.6</ele><time>2026-03-15T09:37:49.000Z</time></trkpt>
<trkpt lat="41.725166" lon="23.496133"><ele>2860.6</ele><time>2026-03-15T09:37:50.000Z</time></trkpt>
<trkpt lat="41.725166" lon="23.496133"><ele>2860.5</ele><time>2026-03-15T09:37:51.000Z</time></trkpt>
<trkpt lat="41.725166" lon="23.496133"><ele>2860.5</ele><time>2026-03-15T09:37:52.000Z</time></trkpt>
<trkpt lat="41.725166" lon="23.496133"><ele>2860.5</ele><time>2026-03-15T09:37:53.000Z</time></trkpt>
<trkpt lat="41.725166" lon="23.496133"><ele>2860.5</ele><time>2026-03-15T09:37:54.000Z</time></trkpt>
<trkpt lat="41.725166" lon="23.496133"><ele>2860.5</ele><time>2026-03-15T09:37:55.000Z</time></trkpt>
<trkpt lat="41.725166" lon="23.496133"><ele>2860.4</ele><time>2026-03-15T09:37:56.000Z</time></trkpt>
<trkpt lat="41.725165" lon="23.496133"><ele>2860.4</ele><time>2026-03-15T09:37:57.000Z</time></trkpt>
<trkpt lat="41.725165" lon="23.496133"><ele>2860.4</ele><time>2026-03-15T09:37:58.000Z</time></trkpt>
<trkpt lat="41.725165" lon="23.496134"><ele>2860.4</ele><time>2026-03-15T09:37:59.000Z</time></trkpt>
<trkpt lat="41.725165" lon="23.496134"><ele>2860.4</ele><time>2026-03-15T09:38:00.000Z</time></trkpt>
<trkpt lat="41.725165" lon="23.496134"><ele>2860.2</ele><time>2026-03-15T09:38:01.000Z</time></trkpt>
<trkpt lat="41.725165" lon="23.496134"><ele>2860.2</ele><time>2026-03-15T09:38:02.000Z</time></trkpt>
<trkpt lat="41.725165" lon="23.496133"><ele>2860.2</ele><time>2026-03-15T09:38:03.000Z</time></trkpt>
<trkpt lat="41.725166" lon="23.496132"><ele>2860.2</ele><time>2026-03-15T09:38:04.000Z</time></trkpt>
<trkpt lat="41.725166" lon="23.496129"><ele>2860.2</ele><time>2026-03-15T09:38:05.000Z</time></trkpt>
<trkpt lat="41.725166" lon="23.496124"><ele>2860</ele><time>2026-03-15T09:38:06.000Z</time></trkpt>
<trkpt lat="41.725166" lon="23.496119"><ele>2860</ele><time>2026-03-15T09:38:07.000Z</time></trkpt>
<trkpt lat="41.725166" lon="23.496115"><ele>2860</ele><time>2026-03-15T09:38:08.000Z</time></trkpt>
<trkpt lat="41.725165" lon="23.496112"><ele>2860</ele><time>2026-03-15T09:38:09.000Z</time></trkpt>
<trkpt lat="41.725165" lon="23.496111"><ele>2860</ele><time>2026-03-15T09:38:10.000Z</time></trkpt>
<trkpt lat="41.725165" lon="23.496111"><ele>2859.8</ele><time>2026-03-15T09:38:11.000Z</time></trkpt>
<trkpt lat="41.725165" lon="23.496111"><ele>2859.8</ele><time>2026-03-15T09:38:12.000Z</time></trkpt>
<trkpt lat="41.725165" lon="23.496111"><ele>2859.8</ele><time>2026-03-15T09:38:13.000Z</time></trkpt>
<trkpt lat="41.725164" lon="23.496112"><ele>2859.8</ele><time>2026-03-15T09:38:14.000Z</time></trkpt>
<trkpt lat="41.725164" lon="23.496112"><ele>2859.8</ele><time>2026-03-15T09:38:15.000Z</time></trkpt>
<trkpt lat="41.725164" lon="23.496112"><ele>2859.4</ele><time>2026-03-15T09:38:16.000Z</time></trkpt>
<trkpt lat="41.725164" lon="23.496112"><ele>2859.4</ele><time>2026-03-15T09:38:17.000Z</time></trkpt>
<trkpt lat="41.725164" lon="23.496112"><ele>2859.4</ele><time>2026-03-15T09:38:18.000Z</time></trkpt>
<trkpt lat="41.725164" lon="23.496112"><ele>2859.4</ele><time>2026-03-15T09:38:19.000Z</time></trkpt>
<trkpt lat="41.725164" lon="23.496112"><ele>2859.4</ele><time>2026-03-15T09:38:20.000Z</time></trkpt>
<trkpt lat="41.725164" lon="23.496112"><ele>2859.2</ele><time>2026-03-15T09:38:21.000Z</time></trkpt>
<trkpt lat="41.725164" lon="23.496112"><ele>2859.2</ele><time>2026-03-15T09:38:22.000Z</time></trkpt>
<trkpt lat="41.725164" lon="23.496112"><ele>2859.2</ele><time>2026-03-15T09:38:23.000Z</time></trkpt>
<trkpt lat="41.725164" lon="23.496112"><ele>2859.2</ele><time>2026-03-15T09:38:24.000Z</time></trkpt>
<trkpt lat="41.725164" lon="23.496113"><ele>2859.2</ele><time>2026-03-15T09:38:25.000Z</time></trkpt>
<trkpt lat="41.725163" lon="23.496114"><ele>2859.2</ele><time>2026-03-15T09:38:26.000Z</time></trkpt>
<trkpt lat="41.725163" lon="23.496114"><ele>2859.2</ele><time>2026-03-15T09:38:27.000Z</time></trkpt>
<trkpt lat="41.725164" lon="23.496116"><ele>2859.2</ele><time>2026-03-15T09:38:28.000Z</time></trkpt>
<trkpt lat="41.725164" lon="23.496118"><ele>2859.2</ele><time>2026-03-15T09:38:29.000Z</time></trkpt>
<trkpt lat="41.725165" lon="23.496122"><ele>2859.2</ele><time>2026-03-15T09:38:30.000Z</time></trkpt>
<trkpt lat="41.725164" lon="23.496126"><ele>2859.2</ele><time>2026-03-15T09:38:31.000Z</time></trkpt>
<trkpt lat="41.725162" lon="23.49613"><ele>2859.2</ele><time>2026-03-15T09:38:32.000Z</time></trkpt>
<trkpt lat="41.72516" lon="23.496134"><ele>2859.2</ele><time>2026-03-15T09:38:33.000Z</time></trkpt>
<trkpt lat="41.725157" lon="23.496135"><ele>2859.2</ele><time>2026-03-15T09:38:34.000Z</time></trkpt>
<trkpt lat="41.725155" lon="23.496135"><ele>2859.2</ele><time>2026-03-15T09:38:35.000Z</time></trkpt>
<trkpt lat="41.725154" lon="23.496134"><ele>2859.1</ele><time>2026-03-15T09:38:36.000Z</time></trkpt>
<trkpt lat="41.725154" lon="23.496133"><ele>2859.1</ele><time>2026-03-15T09:38:37.000Z</time></trkpt>
<trkpt lat="41.725154" lon="23.496132"><ele>2859.1</ele><time>2026-03-15T09:38:38.000Z</time></trkpt>
<trkpt lat="41.725154" lon="23.496133"><ele>2859.1</ele><time>2026-03-15T09:38:39.000Z</time></trkpt>
<trkpt lat="41.725154" lon="23.496133"><ele>2859.1</ele><time>2026-03-15T09:38:40.000Z</time></trkpt>
<trkpt lat="41.725154" lon="23.496133"><ele>2859.1</ele><time>2026-03-15T09:38:41.000Z</time></trkpt>
<trkpt lat="41.725154" lon="23.496133"><ele>2859.1</ele><time>2026-03-15T09:38:42.000Z</time></trkpt>
<trkpt lat="41.725154" lon="23.496133"><ele>2859.1</ele><time>2026-03-15T09:38:43.000Z</time></trkpt>
<trkpt lat="41.725154" lon="23.496133"><ele>2859.1</ele><time>2026-03-15T09:38:44.000Z</time></trkpt>
<trkpt lat="41.725154" lon="23.496132"><ele>2859.1</ele><time>2026-03-15T09:38:45.000Z</time></trkpt>
<trkpt lat="41.725155" lon="23.496131"><ele>2859</ele><time>2026-03-15T09:38:46.000Z</time></trkpt>
<trkpt lat="41.725155" lon="23.49613"><ele>2859</ele><time>2026-03-15T09:38:47.000Z</time></trkpt>
<trkpt lat="41.725156" lon="23.49613"><ele>2859</ele><time>2026-03-15T09:38:48.000Z</time></trkpt>
<trkpt lat="41.725157" lon="23.496129"><ele>2859</ele><time>2026-03-15T09:38:49.000Z</time></trkpt>
<trkpt lat="41.725157" lon="23.49613"><ele>2859</ele><time>2026-03-15T09:38:50.000Z</time></trkpt>
<trkpt lat="41.725158" lon="23.49613"><ele>2859</ele><time>2026-03-15T09:38:51.000Z</time></trkpt>
<trkpt lat="41.725159" lon="23.49613"><ele>2859</ele><time>2026-03-15T09:38:52.000Z</time></trkpt>
<trkpt lat="41.72516" lon="23.496129"><ele>2859</ele><time>2026-03-15T09:38:53.000Z</time></trkpt>
<trkpt lat="41.725161" lon="23.496129"><ele>2859</ele><time>2026-03-15T09:38:54.000Z</time></trkpt>
<trkpt lat="41.725161" lon="23.496128"><ele>2859</ele><time>2026-03-15T09:38:55.000Z</time></trkpt>
<trkpt lat="41.725161" lon="23.496129"><ele>2859</ele><time>2026-03-15T09:38:56.000Z</time></trkpt>
<trkpt lat="41.725161" lon="23.496129"><ele>2859</ele><time>2026-03-15T09:38:57.000Z</time></trkpt>
<trkpt lat="41.725161" lon="23.49613"><ele>2859</ele><time>2026-03-15T09:38:58.000Z</time></trkpt>
<trkpt lat="41.725161" lon="23.49613"><ele>2859</ele><time>2026-03-15T09:38:59.000Z</time></trkpt>
<trkpt lat="41.725161" lon="23.49613"><ele>2859</ele><time>2026-03-15T09:39:00.000Z</time></trkpt>
<trkpt lat="41.725161" lon="23.49613"><ele>2858.9</ele><time>2026-03-15T09:39:01.000Z</time></trkpt>
<trkpt lat="41.725162" lon="23.49613"><ele>2858.9</ele><time>2026-03-15T09:39:02.000Z</time></trkpt>
<trkpt lat="41.725162" lon="23.49613"><ele>2858.9</ele><time>2026-03-15T09:39:03.000Z</time></trkpt>
<trkpt lat="41.725162" lon="23.49613"><ele>2858.9</ele><time>2026-03-15T09:39:04.000Z</time></trkpt>
<trkpt lat="41.725162" lon="23.49613"><ele>2858.9</ele><time>2026-03-15T09:39:05.000Z</time></trkpt>
<trkpt lat="41.725162" lon="23.49613"><ele>2858.5</ele><time>2026-03-15T09:39:06.000Z</time></trkpt>
<trkpt lat="41.725162" lon="23.49613"><ele>2858.5</ele><time>2026-03-15T09:39:07.000Z</time></trkpt>
<trkpt lat="41.725162" lon="23.49613"><ele>2858.5</ele><time>2026-03-15T09:39:08.000Z</time></trkpt>
<trkpt lat="41.725162" lon="23.49613"><ele>2858.5</ele><time>2026-03-15T09:39:09.000Z</time></trkpt>
<trkpt lat="41.725162" lon="23.49613"><ele>2858.5</ele><time>2026-03-15T09:39:10.000Z</time></trkpt>
<trkpt lat="41.725161" lon="23.496131"><ele>2858.4</ele><time>2026-03-15T09:39:11.000Z</time></trkpt>
<trkpt lat="41.725162" lon="23.496132"><ele>2858.4</ele><time>2026-03-15T09:39:12.000Z</time></trkpt>
<trkpt lat="41.725162" lon="23.496132"><ele>2858.4</ele><time>2026-03-15T09:39:13.000Z</time></trkpt>
<trkpt lat="41.725162" lon="23.496133"><ele>2858.4</ele><time>2026-03-15T09:39:14.000Z</time></trkpt>
<trkpt lat="41.725163" lon="23.496133"><ele>2858.4</ele><time>2026-03-15T09:39:15.000Z</time></trkpt>
<trkpt lat="41.725163" lon="23.496133"><ele>2858.3</ele><time>2026-03-15T09:39:16.000Z</time></trkpt>
<trkpt lat="41.725163" lon="23.496133"><ele>2858.3</ele><time>2026-03-15T09:39:17.000Z</time></trkpt>
<trkpt lat="41.725162" lon="23.496134"><ele>2858.3</ele><time>2026-03-15T09:39:18.000Z</time></trkpt>
<trkpt lat="41.725162" lon="23.496134"><ele>2858.3</ele><time>2026-03-15T09:39:19.000Z</time></trkpt>
<trkpt lat="41.725162" lon="23.496134"><ele>2858.3</ele><time>2026-03-15T09:39:20.000Z</time></trkpt>
<trkpt lat="41.725162" lon="23.496134"><ele>2858.5</ele><time>2026-03-15T09:39:21.000Z</time></trkpt>
<trkpt lat="41.725162" lon="23.496134"><ele>2858.5</ele><time>2026-03-15T09:39:22.000Z</time></trkpt>
<trkpt lat="41.725162" lon="23.496134"><ele>2858.5</ele><time>2026-03-15T09:39:23.000Z</time></trkpt>
<trkpt lat="41.725162" lon="23.496135"><ele>2858.5</ele><time>2026-03-15T09:39:24.000Z</time></trkpt>
<trkpt lat="41.725162" lon="23.496135"><ele>2858.5</ele><time>2026-03-15T09:39:25.000Z</time></trkpt>
<trkpt lat="41.725162" lon="23.496135"><ele>2858.7</ele><time>2026-03-15T09:39:26.000Z</time></trkpt>
<trkpt lat="41.725162" lon="23.496136"><ele>2858.7</ele><time>2026-03-15T09:39:27.000Z</time></trkpt>
<trkpt lat="41.725162" lon="23.496136"><ele>2858.7</ele><time>2026-03-15T09:39:28.000Z</time></trkpt>
<trkpt lat="41.725162" lon="23.496136"><ele>2858.7</ele><time>2026-03-15T09:39:29.000Z</time></trkpt>
<trkpt lat="41.725162" lon="23.496136"><ele>2858.7</ele><time>2026-03-15T09:39:30.000Z</time></trkpt>
<trkpt lat="41.725161" lon="23.496135"><ele>2859.1</ele><time>2026-03-15T09:39:31.000Z</time></trkpt>
<trkpt lat="41.725161" lon="23.496135"><ele>2859.1</ele><time>2026-03-15T09:39:32.000Z</time></trkpt>
<trkpt lat="41.72516" lon="23.496134"><ele>2859.1</ele><time>2026-03-15T09:39:33.000Z</time></trkpt>
<trkpt lat="41.725158" lon="23.496132"><ele>2859.1</ele><time>2026-03-15T09:39:34.000Z</time></trkpt>
<trkpt lat="41.725157" lon="23.496129"><ele>2859.1</ele><time>2026-03-15T09:39:35.000Z</time></trkpt>
<trkpt lat="41.725155" lon="23.496127"><ele>2859</ele><time>2026-03-15T09:39:36.000Z</time></trkpt>
<trkpt lat="41.725154" lon="23.496124"><ele>2859</ele><time>2026-03-15T09:39:37.000Z</time></trkpt>
<trkpt lat="41.725153" lon="23.496122"><ele>2859</ele><time>2026-03-15T09:39:38.000Z</time></trkpt>
<trkpt lat="41.725152" lon="23.496122"><ele>2859</ele><time>2026-03-15T09:39:39.000Z</time></trkpt>
<trkpt lat="41.725151" lon="23.496122"><ele>2859</ele><time>2026-03-15T09:39:40.000Z</time></trkpt>
<trkpt lat="41.725151" lon="23.496123"><ele>2858.9</ele><time>2026-03-15T09:39:41.000Z</time></trkpt>
<trkpt lat="41.725151" lon="23.496123"><ele>2858.9</ele><time>2026-03-15T09:39:42.000Z</time></trkpt>
<trkpt lat="41.725152" lon="23.496123"><ele>2858.9</ele><time>2026-03-15T09:39:43.000Z</time></trkpt>
<trkpt lat="41.725152" lon="23.496123"><ele>2858.9</ele><time>2026-03-15T09:39:44.000Z</time></trkpt>
<trkpt lat="41.725155" lon="23.496124"><ele>2858.9</ele><time>2026-03-15T09:39:45.000Z</time></trkpt>
<trkpt lat="41.725156" lon="23.496125"><ele>2858.7</ele><time>2026-03-15T09:39:46.000Z</time></trkpt>
<trkpt lat="41.725158" lon="23.496126"><ele>2858.7</ele><time>2026-03-15T09:39:47.000Z</time></trkpt>
<trkpt lat="41.725159" lon="23.496127"><ele>2858.7</ele><time>2026-03-15T09:39:48.000Z</time></trkpt>
<trkpt lat="41.725161" lon="23.496128"><ele>2858.7</ele><time>2026-03-15T09:39:49.000Z</time></trkpt>
<trkpt lat="41.72516" lon="23.496128"><ele>2858.7</ele><time>2026-03-15T09:39:50.000Z</time></trkpt>
<trkpt lat="41.72516" lon="23.496127"><ele>2858.5</ele><time>2026-03-15T09:39:51.000Z</time></trkpt>
<trkpt lat="41.72516" lon="23.496127"><ele>2858.5</ele><time>2026-03-15T09:39:52.000Z</time></trkpt>
<trkpt lat="41.72516" lon="23.496127"><ele>2858.5</ele><time>2026-03-15T09:39:53.000Z</time></trkpt>
<trkpt lat="41.72516" lon="23.496127"><ele>2858.5</ele><time>2026-03-15T09:39:54.000Z</time></trkpt>
<trkpt lat="41.72516" lon="23.496127"><ele>2858.5</ele><time>2026-03-15T09:39:55.000Z</time></trkpt>
<trkpt lat="41.72516" lon="23.496127"><ele>2858.6</ele><time>2026-03-15T09:39:56.000Z</time></trkpt>
<trkpt lat="41.72516" lon="23.496127"><ele>2858.6</ele><time>2026-03-15T09:39:57.000Z</time></trkpt>
<trkpt lat="41.72516" lon="23.496127"><ele>2858.6</ele><time>2026-03-15T09:39:58.000Z</time></trkpt>
<trkpt lat="41.72516" lon="23.496127"><ele>2858.6</ele><time>2026-03-15T09:39:59.000Z</time></trkpt>
<trkpt lat="41.72516" lon="23.496127"><ele>2858.6</ele><time>2026-03-15T09:40:00.000Z</time></trkpt>
<trkpt lat="41.72516" lon="23.496127"><ele>2858.9</ele><time>2026-03-15T09:40:01.000Z</time></trkpt>
<trkpt lat="41.72516" lon="23.496127"><ele>2858.9</ele><time>2026-03-15T09:40:02.000Z</time></trkpt>
<trkpt lat="41.72516" lon="23.496127"><ele>2858.9</ele><time>2026-03-15T09:40:03.000Z</time></trkpt>
<trkpt lat="41.72516" lon="23.496127"><ele>2858.9</ele><time>2026-03-15T09:40:04.000Z</time></trkpt>
<trkpt lat="41.72516" lon="23.496127"><ele>2858.9</ele><time>2026-03-15T09:40:05.000Z</time></trkpt>
<trkpt lat="41.725159" lon="23.496128"><ele>2859.3</ele><time>2026-03-15T09:40:06.000Z</time></trkpt>
<trkpt lat="41.725159" lon="23.496128"><ele>2859.3</ele><time>2026-03-15T09:40:07.000Z</time></trkpt>
<trkpt lat="41.725159" lon="23.496129"><ele>2859.3</ele><time>2026-03-15T09:40:08.000Z</time></trkpt>
<trkpt lat="41.725159" lon="23.496129"><ele>2859.3</ele><time>2026-03-15T09:40:09.000Z</time></trkpt>
<trkpt lat="41.725159" lon="23.496129"><ele>2859.3</ele><time>2026-03-15T09:40:10.000Z</time></trkpt>
<trkpt lat="41.725159" lon="23.496129"><ele>2859.3</ele><time>2026-03-15T09:40:11.000Z</time></trkpt>
<trkpt lat="41.725159" lon="23.496129"><ele>2859.3</ele><time>2026-03-15T09:40:12.000Z</time></trkpt>
<trkpt lat="41.725159" lon="23.496129"><ele>2859.3</ele><time>2026-03-15T09:40:13.000Z</time></trkpt>
<trkpt lat="41.725159" lon="23.496129"><ele>2859.3</ele><time>2026-03-15T09:40:14.000Z</time></trkpt>
<trkpt lat="41.725159" lon="23.49613"><ele>2859.3</ele><time>2026-03-15T09:40:15.000Z</time></trkpt>
<trkpt lat="41.72516" lon="23.49613"><ele>2859.1</ele><time>2026-03-15T09:40:16.000Z</time></trkpt>
<trkpt lat="41.72516" lon="23.49613"><ele>2859.1</ele><time>2026-03-15T09:40:17.000Z</time></trkpt>
<trkpt lat="41.72516" lon="23.496131"><ele>2859.1</ele><time>2026-03-15T09:40:18.000Z</time></trkpt>
<trkpt lat="41.72516" lon="23.496131"><ele>2859.1</ele><time>2026-03-15T09:40:19.000Z</time></trkpt>
<trkpt lat="41.72516" lon="23.496131"><ele>2859.1</ele><time>2026-03-15T09:40:20.000Z</time></trkpt>
<trkpt lat="41.72516" lon="23.496132"><ele>2858.9</ele><time>2026-03-15T09:40:21.000Z</time></trkpt>
<trkpt lat="41.72516" lon="23.496132"><ele>2858.9</ele><time>2026-03-15T09:40:22.000Z</time></trkpt>
<trkpt lat="41.72516" lon="23.496132"><ele>2858.9</ele><time>2026-03-15T09:40:23.000Z</time></trkpt>
<trkpt lat="41.72516" lon="23.496132"><ele>2858.9</ele><time>2026-03-15T09:40:24.000Z</time></trkpt>
<trkpt lat="41.72516" lon="23.496132"><ele>2858.9</ele><time>2026-03-15T09:40:25.000Z</time></trkpt>
<trkpt lat="41.72516" lon="23.496133"><ele>2858.9</ele><time>2026-03-15T09:40:26.000Z</time></trkpt>
<trkpt lat="41.72516" lon="23.496133"><ele>2858.9</ele><time>2026-03-15T09:40:27.000Z</time></trkpt>
<trkpt lat="41.72516" lon="23.496133"><ele>2858.9</ele><time>2026-03-15T09:40:28.000Z</time></trkpt>
<trkpt lat="41.725161" lon="23.496133"><ele>2858.9</ele><time>2026-03-15T09:40:29.000Z</time></trkpt>
<trkpt lat="41.725161" lon="23.496133"><ele>2858.9</ele><time>2026-03-15T09:40:30.000Z</time></trkpt>
<trkpt lat="41.725161" lon="23.496133"><ele>2858.9</ele><time>2026-03-15T09:40:31.000Z</time></trkpt>
<trkpt lat="41.725161" lon="23.496133"><ele>2858.9</ele><time>2026-03-15T09:40:32.000Z</time></trkpt>
<trkpt lat="41.725161" lon="23.496133"><ele>2858.9</ele><time>2026-03-15T09:40:33.000Z</time></trkpt>
<trkpt lat="41.725161" lon="23.496133"><ele>2858.9</ele><time>2026-03-15T09:40:34.000Z</time></trkpt>
<trkpt lat="41.725161" lon="23.496133"><ele>2858.9</ele><time>2026-03-15T09:40:35.000Z</time></trkpt>
<trkpt lat="41.725161" lon="23.496134"><ele>2859</ele><time>2026-03-15T09:40:36.000Z</time></trkpt>
<trkpt lat="41.725162" lon="23.496134"><ele>2859</ele><time>2026-03-15T09:40:37.000Z</time></trkpt>
<trkpt lat="41.725163" lon="23.496135"><ele>2859</ele><time>2026-03-15T09:40:38.000Z</time></trkpt>
<trkpt lat="41.725163" lon="23.496136"><ele>2859</ele><time>2026-03-15T09:40:39.000Z</time></trkpt>
<trkpt lat="41.725164" lon="23.496136"><ele>2859</ele><time>2026-03-15T09:40:40.000Z</time></trkpt>
<trkpt lat="41.725164" lon="23.496136"><ele>2858.9</ele><time>2026-03-15T09:40:41.000Z</time></trkpt>
<trkpt lat="41.725164" lon="23.496136"><ele>2858.9</ele><time>2026-03-15T09:40:42.000Z</time></trkpt>
<trkpt lat="41.725164" lon="23.496136"><ele>2858.9</ele><time>2026-03-15T09:40:43.000Z</time></trkpt>
<trkpt lat="41.725163" lon="23.496136"><ele>2858.9</ele><time>2026-03-15T09:40:44.000Z</time></trkpt>
<trkpt lat="41.725163" lon="23.496136"><ele>2858.9</ele><time>2026-03-15T09:40:45.000Z</time></trkpt>
<trkpt lat="41.725163" lon="23.496137"><ele>2858.7</ele><time>2026-03-15T09:40:46.000Z</time></trkpt>
<trkpt lat="41.725162" lon="23.496137"><ele>2858.7</ele><time>2026-03-15T09:40:47.000Z</time></trkpt>
<trkpt lat="41.725161" lon="23.496137"><ele>2858.7</ele><time>2026-03-15T09:40:48.000Z</time></trkpt>
<trkpt lat="41.725161" lon="23.496137"><ele>2858.7</ele><time>2026-03-15T09:40:49.000Z</time></trkpt>
<trkpt lat="41.725161" lon="23.496137"><ele>2858.7</ele><time>2026-03-15T09:40:50.000Z</time></trkpt>
<trkpt lat="41.725161" lon="23.496137"><ele>2858.6</ele><time>2026-03-15T09:40:51.000Z</time></trkpt>
<trkpt lat="41.725162" lon="23.496137"><ele>2858.6</ele><time>2026-03-15T09:40:52.000Z</time></trkpt>
<trkpt lat="41.725163" lon="23.496137"><ele>2858.6</ele><time>2026-03-15T09:40:53.000Z</time></trkpt>
<trkpt lat="41.725164" lon="23.496136"><ele>2858.6</ele><time>2026-03-15T09:40:54.000Z</time></trkpt>
<trkpt lat="41.725164" lon="23.496136"><ele>2858.6</ele><time>2026-03-15T09:40:55.000Z</time></trkpt>
<trkpt lat="41.725163" lon="23.496135"><ele>2858.5</ele><time>2026-03-15T09:40:56.000Z</time></trkpt>
<trkpt lat="41.725162" lon="23.496133"><ele>2858.5</ele><time>2026-03-15T09:40:57.000Z</time></trkpt>
<trkpt lat="41.725161" lon="23.496132"><ele>2858.5</ele><time>2026-03-15T09:40:58.000Z</time></trkpt>
<trkpt lat="41.72516" lon="23.496131"><ele>2858.5</ele><time>2026-03-15T09:40:59.000Z</time></trkpt>
<trkpt lat="41.725159" lon="23.49613"><ele>2858.5</ele><time>2026-03-15T09:41:00.000Z</time></trkpt>
<trkpt lat="41.725158" lon="23.49613"><ele>2858.6</ele><time>2026-03-15T09:41:01.000Z</time></trkpt>
<trkpt lat="41.725158" lon="23.49613"><ele>2858.6</ele><time>2026-03-15T09:41:02.000Z</time></trkpt>
<trkpt lat="41.725158" lon="23.49613"><ele>2858.6</ele><time>2026-03-15T09:41:03.000Z</time></trkpt>
<trkpt lat="41.725158" lon="23.496131"><ele>2858.6</ele><time>2026-03-15T09:41:04.000Z</time></trkpt>
<trkpt lat="41.725157" lon="23.496131"><ele>2858.6</ele><time>2026-03-15T09:41:05.000Z</time></trkpt>
<trkpt lat="41.725157" lon="23.496132"><ele>2858.5</ele><time>2026-03-15T09:41:06.000Z</time></trkpt>
<trkpt lat="41.725157" lon="23.496132"><ele>2858.5</ele><time>2026-03-15T09:41:07.000Z</time></trkpt>
<trkpt lat="41.725157" lon="23.496133"><ele>2858.5</ele><time>2026-03-15T09:41:08.000Z</time></trkpt>
<trkpt lat="41.725156" lon="23.496134"><ele>2858.5</ele><time>2026-03-15T09:41:09.000Z</time></trkpt>
<trkpt lat="41.725156" lon="23.496136"><ele>2858.5</ele><time>2026-03-15T09:41:10.000Z</time></trkpt>
<trkpt lat="41.725155" lon="23.496137"><ele>2858.5</ele><time>2026-03-15T09:41:11.000Z</time></trkpt>
<trkpt lat="41.725155" lon="23.496139"><ele>2858.5</ele><time>2026-03-15T09:41:12.000Z</time></trkpt>
<trkpt lat="41.725155" lon="23.49614"><ele>2858.5</ele><time>2026-03-15T09:41:13.000Z</time></trkpt>
<trkpt lat="41.725155" lon="23.49614"><ele>2858.5</ele><time>2026-03-15T09:41:14.000Z</time></trkpt>
<trkpt lat="41.725155" lon="23.49614"><ele>2858.5</ele><time>2026-03-15T09:41:15.000Z</time></trkpt>
<trkpt lat="41.725156" lon="23.496141"><ele>2858.5</ele><time>2026-03-15T09:41:16.000Z</time></trkpt>
<trkpt lat="41.725157" lon="23.496141"><ele>2858.5</ele><time>2026-03-15T09:41:17.000Z</time></trkpt>
<trkpt lat="41.725159" lon="23.496141"><ele>2858.5</ele><time>2026-03-15T09:41:18.000Z</time></trkpt>
<trkpt lat="41.72516" lon="23.496141"><ele>2858.5</ele><time>2026-03-15T09:41:19.000Z</time></trkpt>
<trkpt lat="41.725161" lon="23.496142"><ele>2858.5</ele><time>2026-03-15T09:41:20.000Z</time></trkpt>
<trkpt lat="41.725162" lon="23.496141"><ele>2858.5</ele><time>2026-03-15T09:41:21.000Z</time></trkpt>
<trkpt lat="41.725162" lon="23.496141"><ele>2858.5</ele><time>2026-03-15T09:41:22.000Z</time></trkpt>
<trkpt lat="41.725162" lon="23.496141"><ele>2858.5</ele><time>2026-03-15T09:41:23.000Z</time></trkpt>
<trkpt lat="41.725162" lon="23.496141"><ele>2858.5</ele><time>2026-03-15T09:41:24.000Z</time></trkpt>
<trkpt lat="41.725162" lon="23.496141"><ele>2858.5</ele><time>2026-03-15T09:41:25.000Z</time></trkpt>
<trkpt lat="41.725162" lon="23.496141"><ele>2858.5</ele><time>2026-03-15T09:41:26.000Z</time></trkpt>
<trkpt lat="41.725162" lon="23.496141"><ele>2858.5</ele><time>2026-03-15T09:41:27.000Z</time></trkpt>
<trkpt lat="41.725162" lon="23.496141"><ele>2858.5</ele><time>2026-03-15T09:41:28.000Z</time></trkpt>
<trkpt lat="41.725162" lon="23.496141"><ele>2858.5</ele><time>2026-03-15T09:41:29.000Z</time></trkpt>
<trkpt lat="41.725162" lon="23.496141"><ele>2858.5</ele><time>2026-03-15T09:41:30.000Z</time></trkpt>
<trkpt lat="41.725162" lon="23.496141"><ele>2858.5</ele><time>2026-03-15T09:41:31.000Z</time></trkpt>
<trkpt lat="41.725162" lon="23.496141"><ele>2858.5</ele><time>2026-03-15T09:41:32.000Z</time></trkpt>
<trkpt lat="41.725162" lon="23.496141"><ele>2858.5</ele><time>2026-03-15T09:41:33.000Z</time></trkpt>
<trkpt lat="41.725162" lon="23.496141"><ele>2858.5</ele><time>2026-03-15T09:41:34.000Z</time></trkpt>
<trkpt lat="41.725162" lon="23.496141"><ele>2858.5</ele><time>2026-03-15T09:41:35.000Z</time></trkpt>
<trkpt lat="41.725162" lon="23.496141"><ele>2858.7</ele><time>2026-03-15T09:41:36.000Z</time></trkpt>
<trkpt lat="41.725162" lon="23.496141"><ele>2858.7</ele><time>2026-03-15T09:41:37.000Z</time></trkpt>
<trkpt lat="41.725162" lon="23.496141"><ele>2858.7</ele><time>2026-03-15T09:41:38.000Z</time></trkpt>
<trkpt lat="41.725162" lon="23.496141"><ele>2858.7</ele><time>2026-03-15T09:41:39.000Z</time></trkpt>
<trkpt lat="41.725162" lon="23.496141"><ele>2858.7</ele><time>2026-03-15T09:41:40.000Z</time></trkpt>
<trkpt lat="41.725162" lon="23.496141"><ele>2858.8</ele><time>2026-03-15T09:41:41.000Z</time></trkpt>
<trkpt lat="41.725162" lon="23.496141"><ele>2858.8</ele><time>2026-03-15T09:41:42.000Z</time></trkpt>
<trkpt lat="41.725162" lon="23.496141"><ele>2858.8</ele><time>2026-03-15T09:41:43.000Z</time></trkpt>
<trkpt lat="41.725162" lon="23.496141"><ele>2858.8</ele><time>2026-03-15T09:41:44.000Z</time></trkpt>
<trkpt lat="41.725162" lon="23.496141"><ele>2858.8</ele><time>2026-03-15T09:41:45.000Z</time></trkpt>
<trkpt lat="41.725162" lon="23.496141"><ele>2859</ele><time>2026-03-15T09:41:46.000Z</time></trkpt>
<trkpt lat="41.725162" lon="23.496141"><ele>2859</ele><time>2026-03-15T09:41:47.000Z</time></trkpt>
<trkpt lat="41.725162" lon="23.496141"><ele>2859</ele><time>2026-03-15T09:41:48.000Z</time></trkpt>
<trkpt lat="41.725162" lon="23.496141"><ele>2859</ele><time>2026-03-15T09:41:49.000Z</time></trkpt>
<trkpt lat="41.725162" lon="23.496141"><ele>2859</ele><time>2026-03-15T09:41:50.000Z</time></trkpt>
<trkpt lat="41.725162" lon="23.496141"><ele>2858.9</ele><time>2026-03-15T09:41:51.000Z</time></trkpt>
<trkpt lat="41.725162" lon="23.496141"><ele>2858.9</ele><time>2026-03-15T09:41:52.000Z</time></trkpt>
<trkpt lat="41.725162" lon="23.496141"><ele>2858.9</ele><time>2026-03-15T09:41:53.000Z</time></trkpt>
<trkpt lat="41.725162" lon="23.496142"><ele>2858.9</ele><time>2026-03-15T09:41:54.000Z</time></trkpt>
<trkpt lat="41.725161" lon="23.496142"><ele>2858.9</ele><time>2026-03-15T09:41:55.000Z</time></trkpt>
<trkpt lat="41.725161" lon="23.496142"><ele>2858.8</ele><time>2026-03-15T09:41:56.000Z</time></trkpt>
<trkpt lat="41.72516" lon="23.496142"><ele>2858.8</ele><time>2026-03-15T09:41:57.000Z</time></trkpt>
<trkpt lat="41.72516" lon="23.496142"><ele>2858.8</ele><time>2026-03-15T09:41:58.000Z</time></trkpt>
<trkpt lat="41.72516" lon="23.496141"><ele>2858.8</ele><time>2026-03-15T09:41:59.000Z</time></trkpt>
<trkpt lat="41.72516" lon="23.496141"><ele>2858.8</ele><time>2026-03-15T09:42:00.000Z</time></trkpt>
<trkpt lat="41.72516" lon="23.496141"><ele>2858.5</ele><time>2026-03-15T09:42:01.000Z</time></trkpt>
<trkpt lat="41.72516" lon="23.496141"><ele>2858.5</ele><time>2026-03-15T09:42:02.000Z</time></trkpt>
<trkpt lat="41.72516" lon="23.496141"><ele>2858.5</ele><time>2026-03-15T09:42:03.000Z</time></trkpt>
<trkpt lat="41.72516" lon="23.496141"><ele>2858.5</ele><time>2026-03-15T09:42:04.000Z</time></trkpt>
<trkpt lat="41.72516" lon="23.496141"><ele>2858.5</ele><time>2026-03-15T09:42:05.000Z</time></trkpt>
<trkpt lat="41.72516" lon="23.496141"><ele>2858.2</ele><time>2026-03-15T09:42:06.000Z</time></trkpt>
<trkpt lat="41.72516" lon="23.496141"><ele>2858.2</ele><time>2026-03-15T09:42:07.000Z</time></trkpt>
<trkpt lat="41.72516" lon="23.496141"><ele>2858.2</ele><time>2026-03-15T09:42:08.000Z</time></trkpt>
<trkpt lat="41.72516" lon="23.496141"><ele>2858.2</ele><time>2026-03-15T09:42:09.000Z</time></trkpt>
<trkpt lat="41.725161" lon="23.49614"><ele>2858.2</ele><time>2026-03-15T09:42:10.000Z</time></trkpt>
<trkpt lat="41.725161" lon="23.49614"><ele>2858</ele><time>2026-03-15T09:42:11.000Z</time></trkpt>
<trkpt lat="41.725161" lon="23.49614"><ele>2858</ele><time>2026-03-15T09:42:12.000Z</time></trkpt>
<trkpt lat="41.725161" lon="23.49614"><ele>2858</ele><time>2026-03-15T09:42:13.000Z</time></trkpt>
<trkpt lat="41.72516" lon="23.496139"><ele>2858</ele><time>2026-03-15T09:42:14.000Z</time></trkpt>
<trkpt lat="41.72516" lon="23.496139"><ele>2858</ele><time>2026-03-15T09:42:15.000Z</time></trkpt>
<trkpt lat="41.72516" lon="23.496138"><ele>2857.9</ele><time>2026-03-15T09:42:16.000Z</time></trkpt>
<trkpt lat="41.72516" lon="23.496138"><ele>2857.9</ele><time>2026-03-15T09:42:17.000Z</time></trkpt>
<trkpt lat="41.72516" lon="23.496137"><ele>2857.9</ele><time>2026-03-15T09:42:18.000Z</time></trkpt>
<trkpt lat="41.72516" lon="23.496137"><ele>2857.9</ele><time>2026-03-15T09:42:19.000Z</time></trkpt>
<trkpt lat="41.72516" lon="23.496137"><ele>2857.9</ele><time>2026-03-15T09:42:20.000Z</time></trkpt>
<trkpt lat="41.72516" lon="23.496137"><ele>2857.9</ele><time>2026-03-15T09:42:21.000Z</time></trkpt>
<trkpt lat="41.72516" lon="23.496136"><ele>2857.9</ele><time>2026-03-15T09:42:22.000Z</time></trkpt>
<trkpt lat="41.72516" lon="23.496136"><ele>2857.9</ele><time>2026-03-15T09:42:23.000Z</time></trkpt>
<trkpt lat="41.725159" lon="23.496134"><ele>2857.9</ele><time>2026-03-15T09:42:24.000Z</time></trkpt>
<trkpt lat="41.725158" lon="23.496133"><ele>2857.9</ele><time>2026-03-15T09:42:25.000Z</time></trkpt>
<trkpt lat="41.725158" lon="23.496131"><ele>2858</ele><time>2026-03-15T09:42:26.000Z</time></trkpt>
<trkpt lat="41.725158" lon="23.496131"><ele>2858</ele><time>2026-03-15T09:42:27.000Z</time></trkpt>
<trkpt lat="41.725158" lon="23.496131"><ele>2858</ele><time>2026-03-15T09:42:28.000Z</time></trkpt>
<trkpt lat="41.725158" lon="23.496132"><ele>2858</ele><time>2026-03-15T09:42:29.000Z</time></trkpt>
<trkpt lat="41.725159" lon="23.496132"><ele>2858</ele><time>2026-03-15T09:42:30.000Z</time></trkpt>
<trkpt lat="41.725159" lon="23.496133"><ele>2858.3</ele><time>2026-03-15T09:42:31.000Z</time></trkpt>
<trkpt lat="41.725159" lon="23.496134"><ele>2858.3</ele><time>2026-03-15T09:42:32.000Z</time></trkpt>
<trkpt lat="41.725159" lon="23.496134"><ele>2858.3</ele><time>2026-03-15T09:42:33.000Z</time></trkpt>
<trkpt lat="41.72516" lon="23.496134"><ele>2858.3</ele><time>2026-03-15T09:42:34.000Z</time></trkpt>
<trkpt lat="41.72516" lon="23.496134"><ele>2858.3</ele><time>2026-03-15T09:42:35.000Z</time></trkpt>
<trkpt lat="41.72516" lon="23.496134"><ele>2858.7</ele><time>2026-03-15T09:42:36.000Z</time></trkpt>
<trkpt lat="41.725161" lon="23.496134"><ele>2858.7</ele><time>2026-03-15T09:42:37.000Z</time></trkpt>
<trkpt lat="41.725161" lon="23.496134"><ele>2858.7</ele><time>2026-03-15T09:42:38.000Z</time></trkpt>
<trkpt lat="41.725162" lon="23.496134"><ele>2858.7</ele><time>2026-03-15T09:42:39.000Z</time></trkpt>
<trkpt lat="41.725162" lon="23.496133"><ele>2858.7</ele><time>2026-03-15T09:42:40.000Z</time></trkpt>
<trkpt lat="41.725162" lon="23.496133"><ele>2858.8</ele><time>2026-03-15T09:42:41.000Z</time></trkpt>
<trkpt lat="41.725162" lon="23.496131"><ele>2858.8</ele><time>2026-03-15T09:42:42.000Z</time></trkpt>
<trkpt lat="41.725163" lon="23.496127"><ele>2858.8</ele><time>2026-03-15T09:42:43.000Z</time></trkpt>
<trkpt lat="41.725164" lon="23.496122"><ele>2858.8</ele><time>2026-03-15T09:42:44.000Z</time></trkpt>
<trkpt lat="41.725166" lon="23.496114"><ele>2858.8</ele><time>2026-03-15T09:42:45.000Z</time></trkpt>
<trkpt lat="41.725169" lon="23.496104"><ele>2859</ele><time>2026-03-15T09:42:46.000Z</time></trkpt>
<trkpt lat="41.725173" lon="23.496094"><ele>2859</ele><time>2026-03-15T09:42:47.000Z</time></trkpt>
<trkpt lat="41.725177" lon="23.496082"><ele>2859</ele><time>2026-03-15T09:42:48.000Z</time></trkpt>
<trkpt lat="41.725183" lon="23.496069"><ele>2859</ele><time>2026-03-15T09:42:49.000Z</time></trkpt>
<trkpt lat="41.725189" lon="23.496057"><ele>2859</ele><time>2026-03-15T09:42:50.000Z</time></trkpt>
<trkpt lat="41.725195" lon="23.496044"><ele>2859</ele><time>2026-03-15T09:42:51.000Z</time></trkpt>
<trkpt lat="41.725201" lon="23.49603"><ele>2859</ele><time>2026-03-15T09:42:52.000Z</time></trkpt>
<trkpt lat="41.725207" lon="23.496016"><ele>2859</ele><time>2026-03-15T09:42:53.000Z</time></trkpt>
<trkpt lat="41.725212" lon="23.496001"><ele>2859</ele><time>2026-03-15T09:42:54.000Z</time></trkpt>
<trkpt lat="41.725218" lon="23.495986"><ele>2859</ele><time>2026-03-15T09:42:55.000Z</time></trkpt>
<trkpt lat="41.725224" lon="23.495971"><ele>2859</ele><time>2026-03-15T09:42:56.000Z</time></trkpt>
<trkpt lat="41.725229" lon="23.495956"><ele>2859</ele><time>2026-03-15T09:42:57.000Z</time></trkpt>
<trkpt lat="41.725234" lon="23.495941"><ele>2859</ele><time>2026-03-15T09:42:58.000Z</time></trkpt>
<trkpt lat="41.725238" lon="23.495927"><ele>2859</ele><time>2026-03-15T09:42:59.000Z</time></trkpt>
<trkpt lat="41.725242" lon="23.495914"><ele>2859</ele><time>2026-03-15T09:43:00.000Z</time></trkpt>
<trkpt lat="41.725246" lon="23.495901"><ele>2858.7</ele><time>2026-03-15T09:43:01.000Z</time></trkpt>
<trkpt lat="41.725251" lon="23.495887"><ele>2858.7</ele><time>2026-03-15T09:43:02.000Z</time></trkpt>
<trkpt lat="41.725255" lon="23.495874"><ele>2858.7</ele><time>2026-03-15T09:43:03.000Z</time></trkpt>
<trkpt lat="41.725259" lon="23.49586"><ele>2858.7</ele><time>2026-03-15T09:43:04.000Z</time></trkpt>
<trkpt lat="41.725263" lon="23.495846"><ele>2858.7</ele><time>2026-03-15T09:43:05.000Z</time></trkpt>
<trkpt lat="41.725266" lon="23.495831"><ele>2858.2</ele><time>2026-03-15T09:43:06.000Z</time></trkpt>
<trkpt lat="41.725269" lon="23.495817"><ele>2858.2</ele><time>2026-03-15T09:43:07.000Z</time></trkpt>
<trkpt lat="41.725273" lon="23.495802"><ele>2858.2</ele><time>2026-03-15T09:43:08.000Z</time></trkpt>
<trkpt lat="41.725278" lon="23.495787"><ele>2858.2</ele><time>2026-03-15T09:43:09.000Z</time></trkpt>
<trkpt lat="41.725283" lon="23.495772"><ele>2858.2</ele><time>2026-03-15T09:43:10.000Z</time></trkpt>
<trkpt lat="41.725287" lon="23.495758"><ele>2858</ele><time>2026-03-15T09:43:11.000Z</time></trkpt>
<trkpt lat="41.725292" lon="23.495744"><ele>2858</ele><time>2026-03-15T09:43:12.000Z</time></trkpt>
<trkpt lat="41.725297" lon="23.495732"><ele>2858</ele><time>2026-03-15T09:43:13.000Z</time></trkpt>
<trkpt lat="41.725302" lon="23.495721"><ele>2858</ele><time>2026-03-15T09:43:14.000Z</time></trkpt>
<trkpt lat="41.725308" lon="23.49571"><ele>2858</ele><time>2026-03-15T09:43:15.000Z</time></trkpt>
<trkpt lat="41.725313" lon="23.495701"><ele>2857.7</ele><time>2026-03-15T09:43:16.000Z</time></trkpt>
<trkpt lat="41.725319" lon="23.495692"><ele>2857.7</ele><time>2026-03-15T09:43:17.000Z</time></trkpt>
<trkpt lat="41.725323" lon="23.495682"><ele>2857.7</ele><time>2026-03-15T09:43:18.000Z</time></trkpt>
<trkpt lat="41.725326" lon="23.495673"><ele>2857.7</ele><time>2026-03-15T09:43:19.000Z</time></trkpt>
<trkpt lat="41.725329" lon="23.495665"><ele>2857.7</ele><time>2026-03-15T09:43:20.000Z</time></trkpt>
<trkpt lat="41.725332" lon="23.495657"><ele>2857.5</ele><time>2026-03-15T09:43:21.000Z</time></trkpt>
<trkpt lat="41.725335" lon="23.495648"><ele>2857.5</ele><time>2026-03-15T09:43:22.000Z</time></trkpt>
<trkpt lat="41.725337" lon="23.49564"><ele>2857.5</ele><time>2026-03-15T09:43:23.000Z</time></trkpt>
<trkpt lat="41.725339" lon="23.495632"><ele>2857.5</ele><time>2026-03-15T09:43:24.000Z</time></trkpt>
<trkpt lat="41.725341" lon="23.495622"><ele>2857.5</ele><time>2026-03-15T09:43:25.000Z</time></trkpt>
<trkpt lat="41.725342" lon="23.495611"><ele>2857.5</ele><time>2026-03-15T09:43:26.000Z</time></trkpt>
<trkpt lat="41.725343" lon="23.4956"><ele>2857.5</ele><time>2026-03-15T09:43:27.000Z</time></trkpt>
<trkpt lat="41.725345" lon="23.495589"><ele>2857.5</ele><time>2026-03-15T09:43:28.000Z</time></trkpt>
<trkpt lat="41.725346" lon="23.495578"><ele>2857.5</ele><time>2026-03-15T09:43:29.000Z</time></trkpt>
<trkpt lat="41.725348" lon="23.495566"><ele>2857.5</ele><time>2026-03-15T09:43:30.000Z</time></trkpt>
<trkpt lat="41.725349" lon="23.495554"><ele>2857.3</ele><time>2026-03-15T09:43:31.000Z</time></trkpt>
<trkpt lat="41.72535" lon="23.495543"><ele>2857.3</ele><time>2026-03-15T09:43:32.000Z</time></trkpt>
<trkpt lat="41.72535" lon="23.495532"><ele>2857.3</ele><time>2026-03-15T09:43:33.000Z</time></trkpt>
<trkpt lat="41.72535" lon="23.495523"><ele>2857.3</ele><time>2026-03-15T09:43:34.000Z</time></trkpt>
<trkpt lat="41.725349" lon="23.495512"><ele>2857.3</ele><time>2026-03-15T09:43:35.000Z</time></trkpt>
<trkpt lat="41.725349" lon="23.495503"><ele>2857</ele><time>2026-03-15T09:43:36.000Z</time></trkpt>
<trkpt lat="41.72535" lon="23.495495"><ele>2857</ele><time>2026-03-15T09:43:37.000Z</time></trkpt>
<trkpt lat="41.72535" lon="23.495486"><ele>2857</ele><time>2026-03-15T09:43:38.000Z</time></trkpt>
<trkpt lat="41.725351" lon="23.495478"><ele>2857</ele><time>2026-03-15T09:43:39.000Z</time></trkpt>
<trkpt lat="41.725352" lon="23.49547"><ele>2857</ele><time>2026-03-15T09:43:40.000Z</time></trkpt>
<trkpt lat="41.725353" lon="23.495461"><ele>2856.8</ele><time>2026-03-15T09:43:41.000Z</time></trkpt>
<trkpt lat="41.725354" lon="23.495451"><ele>2856.8</ele><time>2026-03-15T09:43:42.000Z</time></trkpt>
<trkpt lat="41.725355" lon="23.49544"><ele>2856.8</ele><time>2026-03-15T09:43:43.000Z</time></trkpt>
<trkpt lat="41.725356" lon="23.495429"><ele>2856.8</ele><time>2026-03-15T09:43:44.000Z</time></trkpt>
<trkpt lat="41.725357" lon="23.49542"><ele>2856.8</ele><time>2026-03-15T09:43:45.000Z</time></trkpt>
<trkpt lat="41.725358" lon="23.495412"><ele>2855.9</ele><time>2026-03-15T09:43:46.000Z</time></trkpt>
<trkpt lat="41.725359" lon="23.495404"><ele>2855.9</ele><time>2026-03-15T09:43:47.000Z</time></trkpt>
<trkpt lat="41.72536" lon="23.495397"><ele>2855.9</ele><time>2026-03-15T09:43:48.000Z</time></trkpt>
<trkpt lat="41.725361" lon="23.49539"><ele>2855.9</ele><time>2026-03-15T09:43:49.000Z</time></trkpt>
<trkpt lat="41.725362" lon="23.495382"><ele>2855.9</ele><time>2026-03-15T09:43:50.000Z</time></trkpt>
<trkpt lat="41.725363" lon="23.495374"><ele>2854.7</ele><time>2026-03-15T09:43:51.000Z</time></trkpt>
<trkpt lat="41.725365" lon="23.495366"><ele>2854.7</ele><time>2026-03-15T09:43:52.000Z</time></trkpt>
<trkpt lat="41.725366" lon="23.495358"><ele>2854.7</ele><time>2026-03-15T09:43:53.000Z</time></trkpt>
<trkpt lat="41.725367" lon="23.495353"><ele>2854.7</ele><time>2026-03-15T09:43:54.000Z</time></trkpt>
<trkpt lat="41.725368" lon="23.495349"><ele>2854.7</ele><time>2026-03-15T09:43:55.000Z</time></trkpt>
<trkpt lat="41.725368" lon="23.495347"><ele>2854</ele><time>2026-03-15T09:43:56.000Z</time></trkpt>
<trkpt lat="41.725368" lon="23.495346"><ele>2854</ele><time>2026-03-15T09:43:57.000Z</time></trkpt>
<trkpt lat="41.725367" lon="23.495346"><ele>2854</ele><time>2026-03-15T09:43:58.000Z</time></trkpt>
<trkpt lat="41.725367" lon="23.495346"><ele>2854</ele><time>2026-03-15T09:43:59.000Z</time></trkpt>
<trkpt lat="41.725367" lon="23.495346"><ele>2854</ele><time>2026-03-15T09:44:00.000Z</time></trkpt>
<trkpt lat="41.725367" lon="23.495346"><ele>2852.8</ele><time>2026-03-15T09:44:01.000Z</time></trkpt>
<trkpt lat="41.725367" lon="23.495346"><ele>2852.8</ele><time>2026-03-15T09:44:02.000Z</time></trkpt>
<trkpt lat="41.725367" lon="23.495346"><ele>2852.8</ele><time>2026-03-15T09:44:03.000Z</time></trkpt>
<trkpt lat="41.725367" lon="23.495344"><ele>2852.8</ele><time>2026-03-15T09:44:04.000Z</time></trkpt>
<trkpt lat="41.725368" lon="23.495341"><ele>2852.8</ele><time>2026-03-15T09:44:05.000Z</time></trkpt>
<trkpt lat="41.725369" lon="23.495337"><ele>2852.3</ele><time>2026-03-15T09:44:06.000Z</time></trkpt>
<trkpt lat="41.72537" lon="23.495331"><ele>2852.3</ele><time>2026-03-15T09:44:07.000Z</time></trkpt>
<trkpt lat="41.725371" lon="23.495324"><ele>2852.3</ele><time>2026-03-15T09:44:08.000Z</time></trkpt>
<trkpt lat="41.725372" lon="23.495318"><ele>2852.3</ele><time>2026-03-15T09:44:09.000Z</time></trkpt>
<trkpt lat="41.725373" lon="23.495312"><ele>2852.3</ele><time>2026-03-15T09:44:10.000Z</time></trkpt>
<trkpt lat="41.725374" lon="23.495307"><ele>2852.2</ele><time>2026-03-15T09:44:11.000Z</time></trkpt>
<trkpt lat="41.725375" lon="23.4953"><ele>2852.2</ele><time>2026-03-15T09:44:12.000Z</time></trkpt>
<trkpt lat="41.725376" lon="23.495292"><ele>2852.2</ele><time>2026-03-15T09:44:13.000Z</time></trkpt>
<trkpt lat="41.725377" lon="23.495284"><ele>2852.2</ele><time>2026-03-15T09:44:14.000Z</time></trkpt>
<trkpt lat="41.725377" lon="23.495276"><ele>2852.2</ele><time>2026-03-15T09:44:15.000Z</time></trkpt>
<trkpt lat="41.725378" lon="23.495268"><ele>2852</ele><time>2026-03-15T09:44:16.000Z</time></trkpt>
<trkpt lat="41.72538" lon="23.495261"><ele>2852</ele><time>2026-03-15T09:44:17.000Z</time></trkpt>
<trkpt lat="41.725381" lon="23.495254"><ele>2852</ele><time>2026-03-15T09:44:18.000Z</time></trkpt>
<trkpt lat="41.725383" lon="23.495247"><ele>2852</ele><time>2026-03-15T09:44:19.000Z</time></trkpt>
<trkpt lat="41.725385" lon="23.49524"><ele>2852</ele><time>2026-03-15T09:44:20.000Z</time></trkpt>
<trkpt lat="41.725387" lon="23.495232"><ele>2851.6</ele><time>2026-03-15T09:44:21.000Z</time></trkpt>
<trkpt lat="41.725388" lon="23.495224"><ele>2851.6</ele><time>2026-03-15T09:44:22.000Z</time></trkpt>
<trkpt lat="41.725389" lon="23.495215"><ele>2851.6</ele><time>2026-03-15T09:44:23.000Z</time></trkpt>
<trkpt lat="41.725391" lon="23.495205"><ele>2851.6</ele><time>2026-03-15T09:44:24.000Z</time></trkpt>
<trkpt lat="41.725393" lon="23.495196"><ele>2851.6</ele><time>2026-03-15T09:44:25.000Z</time></trkpt>
<trkpt lat="41.725394" lon="23.495187"><ele>2851.2</ele><time>2026-03-15T09:44:26.000Z</time></trkpt>
<trkpt lat="41.725397" lon="23.495179"><ele>2851.2</ele><time>2026-03-15T09:44:27.000Z</time></trkpt>
<trkpt lat="41.725399" lon="23.495172"><ele>2851.2</ele><time>2026-03-15T09:44:28.000Z</time></trkpt>
<trkpt lat="41.725401" lon="23.495167"><ele>2851.2</ele><time>2026-03-15T09:44:29.000Z</time></trkpt>
<trkpt lat="41.725402" lon="23.495164"><ele>2851.2</ele><time>2026-03-15T09:44:30.000Z</time></trkpt>
<trkpt lat="41.725403" lon="23.495162"><ele>2850.3</ele><time>2026-03-15T09:44:31.000Z</time></trkpt>
<trkpt lat="41.725403" lon="23.495162"><ele>2850.3</ele><time>2026-03-15T09:44:32.000Z</time></trkpt>
<trkpt lat="41.725403" lon="23.495162"><ele>2850.3</ele><time>2026-03-15T09:44:33.000Z</time></trkpt>
<trkpt lat="41.725403" lon="23.495162"><ele>2850.3</ele><time>2026-03-15T09:44:34.000Z</time></trkpt>
<trkpt lat="41.725403" lon="23.495163"><ele>2850.3</ele><time>2026-03-15T09:44:35.000Z</time></trkpt>
<trkpt lat="41.725404" lon="23.495163"><ele>2849.4</ele><time>2026-03-15T09:44:36.000Z</time></trkpt>
<trkpt lat="41.725404" lon="23.495162"><ele>2849.4</ele><time>2026-03-15T09:44:37.000Z</time></trkpt>
<trkpt lat="41.725404" lon="23.495162"><ele>2849.4</ele><time>2026-03-15T09:44:38.000Z</time></trkpt>
<trkpt lat="41.725404" lon="23.495163"><ele>2849.4</ele><time>2026-03-15T09:44:39.000Z</time></trkpt>
<trkpt lat="41.725405" lon="23.495163"><ele>2849.4</ele><time>2026-03-15T09:44:40.000Z</time></trkpt>
<trkpt lat="41.725405" lon="23.495164"><ele>2849.1</ele><time>2026-03-15T09:44:41.000Z</time></trkpt>
<trkpt lat="41.725405" lon="23.495164"><ele>2849.1</ele><time>2026-03-15T09:44:42.000Z</time></trkpt>
<trkpt lat="41.725406" lon="23.495165"><ele>2849.1</ele><time>2026-03-15T09:44:43.000Z</time></trkpt>
<trkpt lat="41.725406" lon="23.495165"><ele>2849.1</ele><time>2026-03-15T09:44:44.000Z</time></trkpt>
<trkpt lat="41.725406" lon="23.495165"><ele>2849.1</ele><time>2026-03-15T09:44:45.000Z</time></trkpt>
<trkpt lat="41.725406" lon="23.495165"><ele>2849</ele><time>2026-03-15T09:44:46.000Z</time></trkpt>
<trkpt lat="41.725406" lon="23.495165"><ele>2849</ele><time>2026-03-15T09:44:47.000Z</time></trkpt>
<trkpt lat="41.725406" lon="23.495165"><ele>2849</ele><time>2026-03-15T09:44:48.000Z</time></trkpt>
<trkpt lat="41.725406" lon="23.495163"><ele>2849</ele><time>2026-03-15T09:44:49.000Z</time></trkpt>
<trkpt lat="41.725406" lon="23.49516"><ele>2849</ele><time>2026-03-15T09:44:50.000Z</time></trkpt>
<trkpt lat="41.725407" lon="23.495155"><ele>2849.1</ele><time>2026-03-15T09:44:51.000Z</time></trkpt>
<trkpt lat="41.725407" lon="23.495149"><ele>2849.1</ele><time>2026-03-15T09:44:52.000Z</time></trkpt>
<trkpt lat="41.725408" lon="23.495142"><ele>2849.1</ele><time>2026-03-15T09:44:53.000Z</time></trkpt>
<trkpt lat="41.72541" lon="23.495134"><ele>2849.1</ele><time>2026-03-15T09:44:54.000Z</time></trkpt>
<trkpt lat="41.725412" lon="23.495128"><ele>2849.1</ele><time>2026-03-15T09:44:55.000Z</time></trkpt>
<trkpt lat="41.725413" lon="23.495121"><ele>2849.1</ele><time>2026-03-15T09:44:56.000Z</time></trkpt>
<trkpt lat="41.725415" lon="23.495113"><ele>2849.1</ele><time>2026-03-15T09:44:57.000Z</time></trkpt>
<trkpt lat="41.725416" lon="23.495104"><ele>2849.1</ele><time>2026-03-15T09:44:58.000Z</time></trkpt>
<trkpt lat="41.725418" lon="23.495097"><ele>2849.1</ele><time>2026-03-15T09:44:59.000Z</time></trkpt>
<trkpt lat="41.725418" lon="23.495091"><ele>2849.1</ele><time>2026-03-15T09:45:00.000Z</time></trkpt>
<trkpt lat="41.725419" lon="23.495087"><ele>2849</ele><time>2026-03-15T09:45:01.000Z</time></trkpt>
<trkpt lat="41.725419" lon="23.495085"><ele>2849</ele><time>2026-03-15T09:45:02.000Z</time></trkpt>
<trkpt lat="41.72542" lon="23.495083"><ele>2849</ele><time>2026-03-15T09:45:03.000Z</time></trkpt>
<trkpt lat="41.725421" lon="23.495082"><ele>2849</ele><time>2026-03-15T09:45:04.000Z</time></trkpt>
<trkpt lat="41.725422" lon="23.495081"><ele>2849</ele><time>2026-03-15T09:45:05.000Z</time></trkpt>
<trkpt lat="41.725423" lon="23.495079"><ele>2848.7</ele><time>2026-03-15T09:45:06.000Z</time></trkpt>
<trkpt lat="41.725424" lon="23.495075"><ele>2848.7</ele><time>2026-03-15T09:45:07.000Z</time></trkpt>
<trkpt lat="41.725424" lon="23.49507"><ele>2848.7</ele><time>2026-03-15T09:45:08.000Z</time></trkpt>
<trkpt lat="41.725424" lon="23.495064"><ele>2848.7</ele><time>2026-03-15T09:45:09.000Z</time></trkpt>
<trkpt lat="41.725424" lon="23.495057"><ele>2848.7</ele><time>2026-03-15T09:45:10.000Z</time></trkpt>
<trkpt lat="41.725425" lon="23.49505"><ele>2848.5</ele><time>2026-03-15T09:45:11.000Z</time></trkpt>
<trkpt lat="41.725426" lon="23.495044"><ele>2848.5</ele><time>2026-03-15T09:45:12.000Z</time></trkpt>
<trkpt lat="41.725427" lon="23.495038"><ele>2848.5</ele><time>2026-03-15T09:45:13.000Z</time></trkpt>
<trkpt lat="41.725427" lon="23.495032"><ele>2848.5</ele><time>2026-03-15T09:45:14.000Z</time></trkpt>
<trkpt lat="41.725427" lon="23.495027"><ele>2848.5</ele><time>2026-03-15T09:45:15.000Z</time></trkpt>
<trkpt lat="41.725428" lon="23.495021"><ele>2848.1</ele><time>2026-03-15T09:45:16.000Z</time></trkpt>
<trkpt lat="41.725428" lon="23.495016"><ele>2848.1</ele><time>2026-03-15T09:45:17.000Z</time></trkpt>
<trkpt lat="41.72543" lon="23.49501"><ele>2848.1</ele><time>2026-03-15T09:45:18.000Z</time></trkpt>
<trkpt lat="41.725431" lon="23.495005"><ele>2848.1</ele><time>2026-03-15T09:45:19.000Z</time></trkpt>
<trkpt lat="41.725433" lon="23.495"><ele>2848.1</ele><time>2026-03-15T09:45:20.000Z</time></trkpt>
<trkpt lat="41.725434" lon="23.494995"><ele>2847.4</ele><time>2026-03-15T09:45:21.000Z</time></trkpt>
<trkpt lat="41.725435" lon="23.494992"><ele>2847.4</ele><time>2026-03-15T09:45:22.000Z</time></trkpt>
<trkpt lat="41.725437" lon="23.494989"><ele>2847.4</ele><time>2026-03-15T09:45:23.000Z</time></trkpt>
<trkpt lat="41.725439" lon="23.494987"><ele>2847.4</ele><time>2026-03-15T09:45:24.000Z</time></trkpt>
<trkpt lat="41.725439" lon="23.494985"><ele>2847.4</ele><time>2026-03-15T09:45:25.000Z</time></trkpt>
<trkpt lat="41.72544" lon="23.494985"><ele>2847</ele><time>2026-03-15T09:45:26.000Z</time></trkpt>
<trkpt lat="41.72544" lon="23.494985"><ele>2847</ele><time>2026-03-15T09:45:27.000Z</time></trkpt>
<trkpt lat="41.725439" lon="23.494986"><ele>2847</ele><time>2026-03-15T09:45:28.000Z</time></trkpt>
<trkpt lat="41.725439" lon="23.494987"><ele>2847</ele><time>2026-03-15T09:45:29.000Z</time></trkpt>
<trkpt lat="41.725439" lon="23.494987"><ele>2847</ele><time>2026-03-15T09:45:30.000Z</time></trkpt>
<trkpt lat="41.725439" lon="23.494987"><ele>2845.9</ele><time>2026-03-15T09:45:31.000Z</time></trkpt>
<trkpt lat="41.725439" lon="23.494987"><ele>2845.9</ele><time>2026-03-15T09:45:32.000Z</time></trkpt>
<trkpt lat="41.725439" lon="23.494987"><ele>2845.9</ele><time>2026-03-15T09:45:33.000Z</time></trkpt>
<trkpt lat="41.725439" lon="23.494987"><ele>2845.9</ele><time>2026-03-15T09:45:34.000Z</time></trkpt>
<trkpt lat="41.725439" lon="23.494988"><ele>2845.9</ele><time>2026-03-15T09:45:35.000Z</time></trkpt>
<trkpt lat="41.72544" lon="23.494988"><ele>2845.2</ele><time>2026-03-15T09:45:36.000Z</time></trkpt>
<trkpt lat="41.72544" lon="23.494989"><ele>2845.2</ele><time>2026-03-15T09:45:37.000Z</time></trkpt>
<trkpt lat="41.72544" lon="23.494989"><ele>2845.2</ele><time>2026-03-15T09:45:38.000Z</time></trkpt>
<trkpt lat="41.72544" lon="23.49499"><ele>2845.2</ele><time>2026-03-15T09:45:39.000Z</time></trkpt>
<trkpt lat="41.72544" lon="23.49499"><ele>2845.2</ele><time>2026-03-15T09:45:40.000Z</time></trkpt>
<trkpt lat="41.725441" lon="23.49499"><ele>2845.1</ele><time>2026-03-15T09:45:41.000Z</time></trkpt>
<trkpt lat="41.725441" lon="23.494991"><ele>2845.1</ele><time>2026-03-15T09:45:42.000Z</time></trkpt>
<trkpt lat="41.725441" lon="23.494991"><ele>2845.1</ele><time>2026-03-15T09:45:43.000Z</time></trkpt>
<trkpt lat="41.725441" lon="23.494991"><ele>2845.1</ele><time>2026-03-15T09:45:44.000Z</time></trkpt>
<trkpt lat="41.725441" lon="23.494991"><ele>2845.1</ele><time>2026-03-15T09:45:45.000Z</time></trkpt>
<trkpt lat="41.725441" lon="23.494991"><ele>2845</ele><time>2026-03-15T09:45:46.000Z</time></trkpt>
<trkpt lat="41.725441" lon="23.494991"><ele>2845</ele><time>2026-03-15T09:45:47.000Z</time></trkpt>
<trkpt lat="41.725441" lon="23.494991"><ele>2845</ele><time>2026-03-15T09:45:48.000Z</time></trkpt>
<trkpt lat="41.725441" lon="23.494991"><ele>2845</ele><time>2026-03-15T09:45:49.000Z</time></trkpt>
<trkpt lat="41.725441" lon="23.494991"><ele>2845</ele><time>2026-03-15T09:45:50.000Z</time></trkpt>
<trkpt lat="41.725441" lon="23.494991"><ele>2845.1</ele><time>2026-03-15T09:45:51.000Z</time></trkpt>
<trkpt lat="41.725441" lon="23.494991"><ele>2845.1</ele><time>2026-03-15T09:45:52.000Z</time></trkpt>
<trkpt lat="41.72544" lon="23.494991"><ele>2845.1</ele><time>2026-03-15T09:45:53.000Z</time></trkpt>
<trkpt lat="41.72544" lon="23.494991"><ele>2845.1</ele><time>2026-03-15T09:45:54.000Z</time></trkpt>
<trkpt lat="41.72544" lon="23.494992"><ele>2845.1</ele><time>2026-03-15T09:45:55.000Z</time></trkpt>
<trkpt lat="41.72544" lon="23.494992"><ele>2845.2</ele><time>2026-03-15T09:45:56.000Z</time></trkpt>
<trkpt lat="41.72544" lon="23.494992"><ele>2845.2</ele><time>2026-03-15T09:45:57.000Z</time></trkpt>
<trkpt lat="41.72544" lon="23.494992"><ele>2845.2</ele><time>2026-03-15T09:45:58.000Z</time></trkpt>
<trkpt lat="41.72544" lon="23.494992"><ele>2845.2</ele><time>2026-03-15T09:45:59.000Z</time></trkpt>
<trkpt lat="41.72544" lon="23.494992"><ele>2845.2</ele><time>2026-03-15T09:46:00.000Z</time></trkpt>
<trkpt lat="41.72544" lon="23.494992"><ele>2845.2</ele><time>2026-03-15T09:46:01.000Z</time></trkpt>
<trkpt lat="41.72544" lon="23.494992"><ele>2845.2</ele><time>2026-03-15T09:46:02.000Z</time></trkpt>
<trkpt lat="41.72544" lon="23.494992"><ele>2845.2</ele><time>2026-03-15T09:46:03.000Z</time></trkpt>
<trkpt lat="41.72544" lon="23.494992"><ele>2845.2</ele><time>2026-03-15T09:46:04.000Z</time></trkpt>
<trkpt lat="41.72544" lon="23.494992"><ele>2845.2</ele><time>2026-03-15T09:46:05.000Z</time></trkpt>
<trkpt lat="41.72544" lon="23.494992"><ele>2845.1</ele><time>2026-03-15T09:46:06.000Z</time></trkpt>
<trkpt lat="41.72544" lon="23.494992"><ele>2845.1</ele><time>2026-03-15T09:46:07.000Z</time></trkpt>
<trkpt lat="41.72544" lon="23.494991"><ele>2845.1</ele><time>2026-03-15T09:46:08.000Z</time></trkpt>
<trkpt lat="41.72544" lon="23.494989"><ele>2845.1</ele><time>2026-03-15T09:46:09.000Z</time></trkpt>
<trkpt lat="41.725441" lon="23.494985"><ele>2845.1</ele><time>2026-03-15T09:46:10.000Z</time></trkpt>
<trkpt lat="41.725442" lon="23.49498"><ele>2845</ele><time>2026-03-15T09:46:11.000Z</time></trkpt>
<trkpt lat="41.725443" lon="23.494973"><ele>2845</ele><time>2026-03-15T09:46:12.000Z</time></trkpt>
<trkpt lat="41.725444" lon="23.494965"><ele>2845</ele><time>2026-03-15T09:46:13.000Z</time></trkpt>
<trkpt lat="41.725445" lon="23.494954"><ele>2845</ele><time>2026-03-15T09:46:14.000Z</time></trkpt>
<trkpt lat="41.725447" lon="23.494944"><ele>2845</ele><time>2026-03-15T09:46:15.000Z</time></trkpt>
<trkpt lat="41.725449" lon="23.494935"><ele>2844.9</ele><time>2026-03-15T09:46:16.000Z</time></trkpt>
<trkpt lat="41.725451" lon="23.494928"><ele>2844.9</ele><time>2026-03-15T09:46:17.000Z</time></trkpt>
<trkpt lat="41.725452" lon="23.494923"><ele>2844.9</ele><time>2026-03-15T09:46:18.000Z</time></trkpt>
<trkpt lat="41.725453" lon="23.494921"><ele>2844.9</ele><time>2026-03-15T09:46:19.000Z</time></trkpt>
<trkpt lat="41.725454" lon="23.494921"><ele>2844.9</ele><time>2026-03-15T09:46:20.000Z</time></trkpt>
<trkpt lat="41.725455" lon="23.494921"><ele>2844.7</ele><time>2026-03-15T09:46:21.000Z</time></trkpt>
<trkpt lat="41.725455" lon="23.494921"><ele>2844.7</ele><time>2026-03-15T09:46:22.000Z</time></trkpt>
<trkpt lat="41.725456" lon="23.494921"><ele>2844.7</ele><time>2026-03-15T09:46:23.000Z</time></trkpt>
<trkpt lat="41.725456" lon="23.494921"><ele>2844.7</ele><time>2026-03-15T09:46:24.000Z</time></trkpt>
<trkpt lat="41.725456" lon="23.494918"><ele>2844.7</ele><time>2026-03-15T09:46:25.000Z</time></trkpt>
<trkpt lat="41.725456" lon="23.494915"><ele>2844.5</ele><time>2026-03-15T09:46:26.000Z</time></trkpt>
<trkpt lat="41.725457" lon="23.49491"><ele>2844.5</ele><time>2026-03-15T09:46:27.000Z</time></trkpt>
<trkpt lat="41.725458" lon="23.494903"><ele>2844.5</ele><time>2026-03-15T09:46:28.000Z</time></trkpt>
<trkpt lat="41.725459" lon="23.494895"><ele>2844.5</ele><time>2026-03-15T09:46:29.000Z</time></trkpt>
<trkpt lat="41.72546" lon="23.494888"><ele>2844.5</ele><time>2026-03-15T09:46:30.000Z</time></trkpt>
<trkpt lat="41.725462" lon="23.49488"><ele>2844.1</ele><time>2026-03-15T09:46:31.000Z</time></trkpt>
<trkpt lat="41.725465" lon="23.494871"><ele>2844.1</ele><time>2026-03-15T09:46:32.000Z</time></trkpt>
<trkpt lat="41.725466" lon="23.494861"><ele>2844.1</ele><time>2026-03-15T09:46:33.000Z</time></trkpt>
<trkpt lat="41.725468" lon="23.49485"><ele>2844.1</ele><time>2026-03-15T09:46:34.000Z</time></trkpt>
<trkpt lat="41.725471" lon="23.494839"><ele>2844.1</ele><time>2026-03-15T09:46:35.000Z</time></trkpt>
<trkpt lat="41.725472" lon="23.494829"><ele>2843.6</ele><time>2026-03-15T09:46:36.000Z</time></trkpt>
<trkpt lat="41.725473" lon="23.494819"><ele>2843.6</ele><time>2026-03-15T09:46:37.000Z</time></trkpt>
<trkpt lat="41.725473" lon="23.494811"><ele>2843.6</ele><time>2026-03-15T09:46:38.000Z</time></trkpt>
<trkpt lat="41.725474" lon="23.494802"><ele>2843.6</ele><time>2026-03-15T09:46:39.000Z</time></trkpt>
<trkpt lat="41.725475" lon="23.494792"><ele>2843.6</ele><time>2026-03-15T09:46:40.000Z</time></trkpt>
<trkpt lat="41.725476" lon="23.494781"><ele>2843.3</ele><time>2026-03-15T09:46:41.000Z</time></trkpt>
<trkpt lat="41.725477" lon="23.494769"><ele>2843.3</ele><time>2026-03-15T09:46:42.000Z</time></trkpt>
<trkpt lat="41.725478" lon="23.494758"><ele>2843.3</ele><time>2026-03-15T09:46:43.000Z</time></trkpt>
<trkpt lat="41.72548" lon="23.494748"><ele>2843.3</ele><time>2026-03-15T09:46:44.000Z</time></trkpt>
<trkpt lat="41.725481" lon="23.494738"><ele>2843.3</ele><time>2026-03-15T09:46:45.000Z</time></trkpt>
<trkpt lat="41.725483" lon="23.494728"><ele>2842.2</ele><time>2026-03-15T09:46:46.000Z</time></trkpt>
<trkpt lat="41.725484" lon="23.494718"><ele>2842.2</ele><time>2026-03-15T09:46:47.000Z</time></trkpt>
<trkpt lat="41.725486" lon="23.494707"><ele>2842.2</ele><time>2026-03-15T09:46:48.000Z</time></trkpt>
<trkpt lat="41.725489" lon="23.494694"><ele>2842.2</ele><time>2026-03-15T09:46:49.000Z</time></trkpt>
<trkpt lat="41.725491" lon="23.494681"><ele>2842.2</ele><time>2026-03-15T09:46:50.000Z</time></trkpt>
<trkpt lat="41.725494" lon="23.494668"><ele>2841.1</ele><time>2026-03-15T09:46:51.000Z</time></trkpt>
<trkpt lat="41.725497" lon="23.494656"><ele>2841.1</ele><time>2026-03-15T09:46:52.000Z</time></trkpt>
<trkpt lat="41.7255" lon="23.494644"><ele>2841.1</ele><time>2026-03-15T09:46:53.000Z</time></trkpt>
<trkpt lat="41.725502" lon="23.494634"><ele>2841.1</ele><time>2026-03-15T09:46:54.000Z</time></trkpt>
<trkpt lat="41.725503" lon="23.494623"><ele>2841.1</ele><time>2026-03-15T09:46:55.000Z</time></trkpt>
<trkpt lat="41.725505" lon="23.494614"><ele>2840.4</ele><time>2026-03-15T09:46:56.000Z</time></trkpt>
<trkpt lat="41.725505" lon="23.494605"><ele>2840.4</ele><time>2026-03-15T09:46:57.000Z</time></trkpt>
<trkpt lat="41.725506" lon="23.494596"><ele>2840.4</ele><time>2026-03-15T09:46:58.000Z</time></trkpt>
<trkpt lat="41.725507" lon="23.494586"><ele>2840.4</ele><time>2026-03-15T09:46:59.000Z</time></trkpt>
<trkpt lat="41.725507" lon="23.494576"><ele>2840.4</ele><time>2026-03-15T09:47:00.000Z</time></trkpt>
<trkpt lat="41.725507" lon="23.494566"><ele>2838.9</ele><time>2026-03-15T09:47:01.000Z</time></trkpt>
<trkpt lat="41.725508" lon="23.494554"><ele>2838.9</ele><time>2026-03-15T09:47:02.000Z</time></trkpt>
<trkpt lat="41.725508" lon="23.494542"><ele>2838.9</ele><time>2026-03-15T09:47:03.000Z</time></trkpt>
<trkpt lat="41.72551" lon="23.49453"><ele>2838.9</ele><time>2026-03-15T09:47:04.000Z</time></trkpt>
<trkpt lat="41.725513" lon="23.494518"><ele>2838.9</ele><time>2026-03-15T09:47:05.000Z</time></trkpt>
<trkpt lat="41.725515" lon="23.494508"><ele>2837.4</ele><time>2026-03-15T09:47:06.000Z</time></trkpt>
<trkpt lat="41.725517" lon="23.4945"><ele>2837.4</ele><time>2026-03-15T09:47:07.000Z</time></trkpt>
<trkpt lat="41.725518" lon="23.494495"><ele>2837.4</ele><time>2026-03-15T09:47:08.000Z</time></trkpt>
<trkpt lat="41.725519" lon="23.494492"><ele>2837.4</ele><time>2026-03-15T09:47:09.000Z</time></trkpt>
<trkpt lat="41.725518" lon="23.494492"><ele>2837.4</ele><time>2026-03-15T09:47:10.000Z</time></trkpt>
<trkpt lat="41.725518" lon="23.494492"><ele>2836.7</ele><time>2026-03-15T09:47:11.000Z</time></trkpt>
<trkpt lat="41.725519" lon="23.494489"><ele>2836.7</ele><time>2026-03-15T09:47:12.000Z</time></trkpt>
<trkpt lat="41.72552" lon="23.494485"><ele>2836.7</ele><time>2026-03-15T09:47:13.000Z</time></trkpt>
<trkpt lat="41.725521" lon="23.494479"><ele>2836.7</ele><time>2026-03-15T09:47:14.000Z</time></trkpt>
<trkpt lat="41.725522" lon="23.49447"><ele>2836.7</ele><time>2026-03-15T09:47:15.000Z</time></trkpt>
<trkpt lat="41.725524" lon="23.494459"><ele>2835.4</ele><time>2026-03-15T09:47:16.000Z</time></trkpt>
<trkpt lat="41.725527" lon="23.494447"><ele>2835.4</ele><time>2026-03-15T09:47:17.000Z</time></trkpt>
<trkpt lat="41.72553" lon="23.494436"><ele>2835.4</ele><time>2026-03-15T09:47:18.000Z</time></trkpt>
<trkpt lat="41.725532" lon="23.494424"><ele>2835.4</ele><time>2026-03-15T09:47:19.000Z</time></trkpt>
<trkpt lat="41.725534" lon="23.494414"><ele>2835.4</ele><time>2026-03-15T09:47:20.000Z</time></trkpt>
<trkpt lat="41.725537" lon="23.494403"><ele>2834.7</ele><time>2026-03-15T09:47:21.000Z</time></trkpt>
<trkpt lat="41.725538" lon="23.494394"><ele>2834.7</ele><time>2026-03-15T09:47:22.000Z</time></trkpt>
<trkpt lat="41.72554" lon="23.494384"><ele>2834.7</ele><time>2026-03-15T09:47:23.000Z</time></trkpt>
<trkpt lat="41.725541" lon="23.494374"><ele>2834.7</ele><time>2026-03-15T09:47:24.000Z</time></trkpt>
<trkpt lat="41.725543" lon="23.494365"><ele>2834.7</ele><time>2026-03-15T09:47:25.000Z</time></trkpt>
<trkpt lat="41.725544" lon="23.494355"><ele>2834.5</ele><time>2026-03-15T09:47:26.000Z</time></trkpt>
<trkpt lat="41.725545" lon="23.494346"><ele>2834.5</ele><time>2026-03-15T09:47:27.000Z</time></trkpt>
<trkpt lat="41.725546" lon="23.494338"><ele>2834.5</ele><time>2026-03-15T09:47:28.000Z</time></trkpt>
<trkpt lat="41.725546" lon="23.494332"><ele>2834.5</ele><time>2026-03-15T09:47:29.000Z</time></trkpt>
<trkpt lat="41.725547" lon="23.494328"><ele>2834.5</ele><time>2026-03-15T09:47:30.000Z</time></trkpt>
<trkpt lat="41.725548" lon="23.494326"><ele>2834.1</ele><time>2026-03-15T09:47:31.000Z</time></trkpt>
<trkpt lat="41.725548" lon="23.494325"><ele>2834.1</ele><time>2026-03-15T09:47:32.000Z</time></trkpt>
<trkpt lat="41.725549" lon="23.494325"><ele>2834.1</ele><time>2026-03-15T09:47:33.000Z</time></trkpt>
<trkpt lat="41.725549" lon="23.494324"><ele>2834.1</ele><time>2026-03-15T09:47:34.000Z</time></trkpt>
<trkpt lat="41.725549" lon="23.494324"><ele>2834.1</ele><time>2026-03-15T09:47:35.000Z</time></trkpt>
<trkpt lat="41.725549" lon="23.494324"><ele>2833.4</ele><time>2026-03-15T09:47:36.000Z</time></trkpt>
<trkpt lat="41.725549" lon="23.494324"><ele>2833.4</ele><time>2026-03-15T09:47:37.000Z</time></trkpt>
<trkpt lat="41.725549" lon="23.494324"><ele>2833.4</ele><time>2026-03-15T09:47:38.000Z</time></trkpt>
<trkpt lat="41.725549" lon="23.494324"><ele>2833.4</ele><time>2026-03-15T09:47:39.000Z</time></trkpt>
<trkpt lat="41.725549" lon="23.494324"><ele>2833.4</ele><time>2026-03-15T09:47:40.000Z</time></trkpt>
<trkpt lat="41.725549" lon="23.494324"><ele>2833</ele><time>2026-03-15T09:47:41.000Z</time></trkpt>
<trkpt lat="41.725549" lon="23.494324"><ele>2833</ele><time>2026-03-15T09:47:42.000Z</time></trkpt>
<trkpt lat="41.725549" lon="23.494324"><ele>2833</ele><time>2026-03-15T09:47:43.000Z</time></trkpt>
<trkpt lat="41.725549" lon="23.494324"><ele>2833</ele><time>2026-03-15T09:47:44.000Z</time></trkpt>
<trkpt lat="41.725549" lon="23.494324"><ele>2833</ele><time>2026-03-15T09:47:45.000Z</time></trkpt>
<trkpt lat="41.725549" lon="23.494324"><ele>2832.5</ele><time>2026-03-15T09:47:46.000Z</time></trkpt>
<trkpt lat="41.725549" lon="23.494324"><ele>2832.5</ele><time>2026-03-15T09:47:47.000Z</time></trkpt>
<trkpt lat="41.725549" lon="23.494323"><ele>2832.5</ele><time>2026-03-15T09:47:48.000Z</time></trkpt>
<trkpt lat="41.72555" lon="23.49432"><ele>2832.5</ele><time>2026-03-15T09:47:49.000Z</time></trkpt>
<trkpt lat="41.725551" lon="23.494316"><ele>2832.5</ele><time>2026-03-15T09:47:50.000Z</time></trkpt>
<trkpt lat="41.725552" lon="23.494311"><ele>2832.4</ele><time>2026-03-15T09:47:51.000Z</time></trkpt>
<trkpt lat="41.725553" lon="23.494303"><ele>2832.4</ele><time>2026-03-15T09:47:52.000Z</time></trkpt>
<trkpt lat="41.725553" lon="23.494294"><ele>2832.4</ele><time>2026-03-15T09:47:53.000Z</time></trkpt>
<trkpt lat="41.725553" lon="23.494286"><ele>2832.4</ele><time>2026-03-15T09:47:54.000Z</time></trkpt>
<trkpt lat="41.725553" lon="23.494281"><ele>2832.4</ele><time>2026-03-15T09:47:55.000Z</time></trkpt>
<trkpt lat="41.725553" lon="23.494277"><ele>2832.5</ele><time>2026-03-15T09:47:56.000Z</time></trkpt>
<trkpt lat="41.725553" lon="23.494275"><ele>2832.5</ele><time>2026-03-15T09:47:57.000Z</time></trkpt>
<trkpt lat="41.725553" lon="23.494275"><ele>2832.5</ele><time>2026-03-15T09:47:58.000Z</time></trkpt>
<trkpt lat="41.725554" lon="23.494277"><ele>2832.5</ele><time>2026-03-15T09:47:59.000Z</time></trkpt>
<trkpt lat="41.725553" lon="23.494276"><ele>2832.5</ele><time>2026-03-15T09:48:00.000Z</time></trkpt>
<trkpt lat="41.725553" lon="23.494272"><ele>2832.3</ele><time>2026-03-15T09:48:01.000Z</time></trkpt>
<trkpt lat="41.725553" lon="23.494266"><ele>2832.3</ele><time>2026-03-15T09:48:02.000Z</time></trkpt>
<trkpt lat="41.725552" lon="23.494258"><ele>2832.3</ele><time>2026-03-15T09:48:03.000Z</time></trkpt>
<trkpt lat="41.725552" lon="23.494249"><ele>2832.3</ele><time>2026-03-15T09:48:04.000Z</time></trkpt>
<trkpt lat="41.725553" lon="23.49424"><ele>2832.3</ele><time>2026-03-15T09:48:05.000Z</time></trkpt>
<trkpt lat="41.725555" lon="23.494231"><ele>2831.7</ele><time>2026-03-15T09:48:06.000Z</time></trkpt>
<trkpt lat="41.725556" lon="23.494222"><ele>2831.7</ele><time>2026-03-15T09:48:07.000Z</time></trkpt>
<trkpt lat="41.725558" lon="23.494212"><ele>2831.7</ele><time>2026-03-15T09:48:08.000Z</time></trkpt>
<trkpt lat="41.72556" lon="23.494199"><ele>2831.7</ele><time>2026-03-15T09:48:09.000Z</time></trkpt>
<trkpt lat="41.725563" lon="23.494186"><ele>2831.7</ele><time>2026-03-15T09:48:10.000Z</time></trkpt>
<trkpt lat="41.725565" lon="23.494172"><ele>2831.3</ele><time>2026-03-15T09:48:11.000Z</time></trkpt>
<trkpt lat="41.725567" lon="23.494158"><ele>2831.3</ele><time>2026-03-15T09:48:12.000Z</time></trkpt>
<trkpt lat="41.725569" lon="23.494145"><ele>2831.3</ele><time>2026-03-15T09:48:13.000Z</time></trkpt>
<trkpt lat="41.72557" lon="23.494133"><ele>2831.3</ele><time>2026-03-15T09:48:14.000Z</time></trkpt>
<trkpt lat="41.725572" lon="23.494122"><ele>2831.3</ele><time>2026-03-15T09:48:15.000Z</time></trkpt>
<trkpt lat="41.725574" lon="23.49411"><ele>2830.5</ele><time>2026-03-15T09:48:16.000Z</time></trkpt>
<trkpt lat="41.725575" lon="23.494098"><ele>2830.5</ele><time>2026-03-15T09:48:17.000Z</time></trkpt>
<trkpt lat="41.725576" lon="23.494085"><ele>2830.5</ele><time>2026-03-15T09:48:18.000Z</time></trkpt>
<trkpt lat="41.725578" lon="23.494071"><ele>2830.5</ele><time>2026-03-15T09:48:19.000Z</time></trkpt>
<trkpt lat="41.725579" lon="23.494057"><ele>2830.5</ele><time>2026-03-15T09:48:20.000Z</time></trkpt>
<trkpt lat="41.725581" lon="23.494044"><ele>2829.8</ele><time>2026-03-15T09:48:21.000Z</time></trkpt>
<trkpt lat="41.725583" lon="23.49403"><ele>2829.8</ele><time>2026-03-15T09:48:22.000Z</time></trkpt>
<trkpt lat="41.725586" lon="23.494016"><ele>2829.8</ele><time>2026-03-15T09:48:23.000Z</time></trkpt>
<trkpt lat="41.725589" lon="23.494001"><ele>2829.8</ele><time>2026-03-15T09:48:24.000Z</time></trkpt>
<trkpt lat="41.725592" lon="23.493986"><ele>2829.8</ele><time>2026-03-15T09:48:25.000Z</time></trkpt>
<trkpt lat="41.725595" lon="23.493971"><ele>2829.5</ele><time>2026-03-15T09:48:26.000Z</time></trkpt>
<trkpt lat="41.725596" lon="23.493956"><ele>2829.5</ele><time>2026-03-15T09:48:27.000Z</time></trkpt>
<trkpt lat="41.725598" lon="23.493942"><ele>2829.5</ele><time>2026-03-15T09:48:28.000Z</time></trkpt>
<trkpt lat="41.7256" lon="23.493929"><ele>2829.5</ele><time>2026-03-15T09:48:29.000Z</time></trkpt>
<trkpt lat="41.725602" lon="23.493917"><ele>2829.5</ele><time>2026-03-15T09:48:30.000Z</time></trkpt>
<trkpt lat="41.725605" lon="23.493905"><ele>2828.9</ele><time>2026-03-15T09:48:31.000Z</time></trkpt>
<trkpt lat="41.725608" lon="23.493895"><ele>2828.9</ele><time>2026-03-15T09:48:32.000Z</time></trkpt>
<trkpt lat="41.725609" lon="23.493884"><ele>2828.9</ele><time>2026-03-15T09:48:33.000Z</time></trkpt>
<trkpt lat="41.72561" lon="23.493874"><ele>2828.9</ele><time>2026-03-15T09:48:34.000Z</time></trkpt>
<trkpt lat="41.725611" lon="23.493863"><ele>2828.9</ele><time>2026-03-15T09:48:35.000Z</time></trkpt>
<trkpt lat="41.725612" lon="23.493852"><ele>2828.3</ele><time>2026-03-15T09:48:36.000Z</time></trkpt>
<trkpt lat="41.725613" lon="23.493838"><ele>2828.3</ele><time>2026-03-15T09:48:37.000Z</time></trkpt>
<trkpt lat="41.725616" lon="23.493823"><ele>2828.3</ele><time>2026-03-15T09:48:38.000Z</time></trkpt>
<trkpt lat="41.725619" lon="23.493808"><ele>2828.3</ele><time>2026-03-15T09:48:39.000Z</time></trkpt>
<trkpt lat="41.725622" lon="23.493793"><ele>2828.3</ele><time>2026-03-15T09:48:40.000Z</time></trkpt>
<trkpt lat="41.725624" lon="23.493778"><ele>2828.2</ele><time>2026-03-15T09:48:41.000Z</time></trkpt>
<trkpt lat="41.725626" lon="23.493763"><ele>2828.2</ele><time>2026-03-15T09:48:42.000Z</time></trkpt>
<trkpt lat="41.725628" lon="23.493748"><ele>2828.2</ele><time>2026-03-15T09:48:43.000Z</time></trkpt>
<trkpt lat="41.72563" lon="23.493733"><ele>2828.2</ele><time>2026-03-15T09:48:44.000Z</time></trkpt>
<trkpt lat="41.725631" lon="23.493719"><ele>2828.2</ele><time>2026-03-15T09:48:45.000Z</time></trkpt>
<trkpt lat="41.725632" lon="23.493706"><ele>2828.1</ele><time>2026-03-15T09:48:46.000Z</time></trkpt>
<trkpt lat="41.725634" lon="23.493695"><ele>2828.1</ele><time>2026-03-15T09:48:47.000Z</time></trkpt>
<trkpt lat="41.725637" lon="23.493683"><ele>2828.1</ele><time>2026-03-15T09:48:48.000Z</time></trkpt>
<trkpt lat="41.72564" lon="23.493673"><ele>2828.1</ele><time>2026-03-15T09:48:49.000Z</time></trkpt>
<trkpt lat="41.725643" lon="23.493662"><ele>2828.1</ele><time>2026-03-15T09:48:50.000Z</time></trkpt>
<trkpt lat="41.725647" lon="23.493651"><ele>2828</ele><time>2026-03-15T09:48:51.000Z</time></trkpt>
<trkpt lat="41.72565" lon="23.49364"><ele>2828</ele><time>2026-03-15T09:48:52.000Z</time></trkpt>
<trkpt lat="41.725653" lon="23.493629"><ele>2828</ele><time>2026-03-15T09:48:53.000Z</time></trkpt>
<trkpt lat="41.725655" lon="23.493617"><ele>2828</ele><time>2026-03-15T09:48:54.000Z</time></trkpt>
<trkpt lat="41.725657" lon="23.493606"><ele>2828</ele><time>2026-03-15T09:48:55.000Z</time></trkpt>
<trkpt lat="41.725659" lon="23.493595"><ele>2827.9</ele><time>2026-03-15T09:48:56.000Z</time></trkpt>
<trkpt lat="41.725659" lon="23.493586"><ele>2827.9</ele><time>2026-03-15T09:48:57.000Z</time></trkpt>
<trkpt lat="41.725659" lon="23.493577"><ele>2827.9</ele><time>2026-03-15T09:48:58.000Z</time></trkpt>
<trkpt lat="41.72566" lon="23.493569"><ele>2827.9</ele><time>2026-03-15T09:48:59.000Z</time></trkpt>
<trkpt lat="41.725661" lon="23.493561"><ele>2827.9</ele><time>2026-03-15T09:49:00.000Z</time></trkpt>
<trkpt lat="41.725662" lon="23.49355"><ele>2827.9</ele><time>2026-03-15T09:49:01.000Z</time></trkpt>
<trkpt lat="41.725663" lon="23.493538"><ele>2827.9</ele><time>2026-03-15T09:49:02.000Z</time></trkpt>
<trkpt lat="41.725665" lon="23.493524"><ele>2827.9</ele><time>2026-03-15T09:49:03.000Z</time></trkpt>
<trkpt lat="41.725668" lon="23.49351"><ele>2827.9</ele><time>2026-03-15T09:49:04.000Z</time></trkpt>
<trkpt lat="41.725672" lon="23.493494"><ele>2827.9</ele><time>2026-03-15T09:49:05.000Z</time></trkpt>
<trkpt lat="41.725675" lon="23.493478"><ele>2827.9</ele><time>2026-03-15T09:49:06.000Z</time></trkpt>
<trkpt lat="41.725679" lon="23.493462"><ele>2827.9</ele><time>2026-03-15T09:49:07.000Z</time></trkpt>
<trkpt lat="41.725683" lon="23.493448"><ele>2827.9</ele><time>2026-03-15T09:49:08.000Z</time></trkpt>
<trkpt lat="41.725686" lon="23.493435"><ele>2827.9</ele><time>2026-03-15T09:49:09.000Z</time></trkpt>
<trkpt lat="41.72569" lon="23.493422"><ele>2827.9</ele><time>2026-03-15T09:49:10.000Z</time></trkpt>
<trkpt lat="41.725693" lon="23.49341"><ele>2827.7</ele><time>2026-03-15T09:49:11.000Z</time></trkpt>
<trkpt lat="41.725696" lon="23.4934"><ele>2827.7</ele><time>2026-03-15T09:49:12.000Z</time></trkpt>
<trkpt lat="41.7257" lon="23.493389"><ele>2827.7</ele><time>2026-03-15T09:49:13.000Z</time></trkpt>
<trkpt lat="41.725704" lon="23.493377"><ele>2827.7</ele><time>2026-03-15T09:49:14.000Z</time></trkpt>
<trkpt lat="41.725708" lon="23.493365"><ele>2827.7</ele><time>2026-03-15T09:49:15.000Z</time></trkpt>
<trkpt lat="41.725711" lon="23.493353"><ele>2827</ele><time>2026-03-15T09:49:16.000Z</time></trkpt>
<trkpt lat="41.725713" lon="23.493342"><ele>2827</ele><time>2026-03-15T09:49:17.000Z</time></trkpt>
<trkpt lat="41.725715" lon="23.493331"><ele>2827</ele><time>2026-03-15T09:49:18.000Z</time></trkpt>
<trkpt lat="41.725716" lon="23.49332"><ele>2827</ele><time>2026-03-15T09:49:19.000Z</time></trkpt>
<trkpt lat="41.725716" lon="23.493311"><ele>2827</ele><time>2026-03-15T09:49:20.000Z</time></trkpt>
<trkpt lat="41.725717" lon="23.493302"><ele>2826.6</ele><time>2026-03-15T09:49:21.000Z</time></trkpt>
<trkpt lat="41.725719" lon="23.493292"><ele>2826.6</ele><time>2026-03-15T09:49:22.000Z</time></trkpt>
<trkpt lat="41.72572" lon="23.493282"><ele>2826.6</ele><time>2026-03-15T09:49:23.000Z</time></trkpt>
<trkpt lat="41.725722" lon="23.493273"><ele>2826.6</ele><time>2026-03-15T09:49:24.000Z</time></trkpt>
<trkpt lat="41.725724" lon="23.493263"><ele>2826.6</ele><time>2026-03-15T09:49:25.000Z</time></trkpt>
<trkpt lat="41.725726" lon="23.493252"><ele>2826.6</ele><time>2026-03-15T09:49:26.000Z</time></trkpt>
<trkpt lat="41.725727" lon="23.493243"><ele>2826.6</ele><time>2026-03-15T09:49:27.000Z</time></trkpt>
<trkpt lat="41.725729" lon="23.493235"><ele>2826.6</ele><time>2026-03-15T09:49:28.000Z</time></trkpt>
<trkpt lat="41.72573" lon="23.493225"><ele>2826.6</ele><time>2026-03-15T09:49:29.000Z</time></trkpt>
<trkpt lat="41.725731" lon="23.493215"><ele>2826.6</ele><time>2026-03-15T09:49:30.000Z</time></trkpt>
<trkpt lat="41.725731" lon="23.493207"><ele>2827</ele><time>2026-03-15T09:49:31.000Z</time></trkpt>
<trkpt lat="41.725731" lon="23.493198"><ele>2827</ele><time>2026-03-15T09:49:32.000Z</time></trkpt>
<trkpt lat="41.725732" lon="23.493188"><ele>2827</ele><time>2026-03-15T09:49:33.000Z</time></trkpt>
<trkpt lat="41.725731" lon="23.493179"><ele>2827</ele><time>2026-03-15T09:49:34.000Z</time></trkpt>
<trkpt lat="41.725731" lon="23.493171"><ele>2827</ele><time>2026-03-15T09:49:35.000Z</time></trkpt>
<trkpt lat="41.725731" lon="23.493162"><ele>2827.9</ele><time>2026-03-15T09:49:36.000Z</time></trkpt>
<trkpt lat="41.725731" lon="23.493154"><ele>2827.9</ele><time>2026-03-15T09:49:37.000Z</time></trkpt>
<trkpt lat="41.725731" lon="23.493147"><ele>2827.9</ele><time>2026-03-15T09:49:38.000Z</time></trkpt>
<trkpt lat="41.725732" lon="23.49314"><ele>2827.9</ele><time>2026-03-15T09:49:39.000Z</time></trkpt>
<trkpt lat="41.725733" lon="23.493134"><ele>2827.9</ele><time>2026-03-15T09:49:40.000Z</time></trkpt>
<trkpt lat="41.725735" lon="23.49313"><ele>2828.4</ele><time>2026-03-15T09:49:41.000Z</time></trkpt>
<trkpt lat="41.725736" lon="23.493128"><ele>2828.4</ele><time>2026-03-15T09:49:42.000Z</time></trkpt>
<trkpt lat="41.725737" lon="23.493126"><ele>2828.4</ele><time>2026-03-15T09:49:43.000Z</time></trkpt>
<trkpt lat="41.725738" lon="23.493125"><ele>2828.4</ele><time>2026-03-15T09:49:44.000Z</time></trkpt>
<trkpt lat="41.725737" lon="23.493126"><ele>2828.4</ele><time>2026-03-15T09:49:45.000Z</time></trkpt>
<trkpt lat="41.725737" lon="23.493126"><ele>2829.4</ele><time>2026-03-15T09:49:46.000Z</time></trkpt>
<trkpt lat="41.725736" lon="23.493126"><ele>2829.4</ele><time>2026-03-15T09:49:47.000Z</time></trkpt>
<trkpt lat="41.725736" lon="23.493127"><ele>2829.4</ele><time>2026-03-15T09:49:48.000Z</time></trkpt>
<trkpt lat="41.725736" lon="23.493127"><ele>2829.4</ele><time>2026-03-15T09:49:49.000Z</time></trkpt>
<trkpt lat="41.725736" lon="23.493127"><ele>2829.4</ele><time>2026-03-15T09:49:50.000Z</time></trkpt>
<trkpt lat="41.725736" lon="23.493127"><ele>2830</ele><time>2026-03-15T09:49:51.000Z</time></trkpt>
<trkpt lat="41.725736" lon="23.493127"><ele>2830</ele><time>2026-03-15T09:49:52.000Z</time></trkpt>
<trkpt lat="41.725736" lon="23.493127"><ele>2830</ele><time>2026-03-15T09:49:53.000Z</time></trkpt>
<trkpt lat="41.725736" lon="23.493127"><ele>2830</ele><time>2026-03-15T09:49:54.000Z</time></trkpt>
<trkpt lat="41.725736" lon="23.493127"><ele>2830</ele><time>2026-03-15T09:49:55.000Z</time></trkpt>
<trkpt lat="41.725736" lon="23.493127"><ele>2830.1</ele><time>2026-03-15T09:49:56.000Z</time></trkpt>
<trkpt lat="41.725736" lon="23.493127"><ele>2830.1</ele><time>2026-03-15T09:49:57.000Z</time></trkpt>
<trkpt lat="41.725736" lon="23.493126"><ele>2830.1</ele><time>2026-03-15T09:49:58.000Z</time></trkpt>
<trkpt lat="41.725736" lon="23.493126"><ele>2830.1</ele><time>2026-03-15T09:49:59.000Z</time></trkpt>
<trkpt lat="41.725737" lon="23.493125"><ele>2830.1</ele><time>2026-03-15T09:50:00.000Z</time></trkpt>
<trkpt lat="41.725738" lon="23.493123"><ele>2830</ele><time>2026-03-15T09:50:01.000Z</time></trkpt>
<trkpt lat="41.725739" lon="23.493118"><ele>2830</ele><time>2026-03-15T09:50:02.000Z</time></trkpt>
<trkpt lat="41.725741" lon="23.493114"><ele>2830</ele><time>2026-03-15T09:50:03.000Z</time></trkpt>
<trkpt lat="41.725744" lon="23.493108"><ele>2830</ele><time>2026-03-15T09:50:04.000Z</time></trkpt>
<trkpt lat="41.725746" lon="23.493103"><ele>2830</ele><time>2026-03-15T09:50:05.000Z</time></trkpt>
<trkpt lat="41.725747" lon="23.493099"><ele>2829.6</ele><time>2026-03-15T09:50:06.000Z</time></trkpt>
<trkpt lat="41.725748" lon="23.493098"><ele>2829.6</ele><time>2026-03-15T09:50:07.000Z</time></trkpt>
<trkpt lat="41.725748" lon="23.493097"><ele>2829.6</ele><time>2026-03-15T09:50:08.000Z</time></trkpt>
<trkpt lat="41.725748" lon="23.493098"><ele>2829.6</ele><time>2026-03-15T09:50:09.000Z</time></trkpt>
<trkpt lat="41.725748" lon="23.493098"><ele>2829.6</ele><time>2026-03-15T09:50:10.000Z</time></trkpt>
<trkpt lat="41.725748" lon="23.493098"><ele>2829.4</ele><time>2026-03-15T09:50:11.000Z</time></trkpt>
<trkpt lat="41.725748" lon="23.493098"><ele>2829.4</ele><time>2026-03-15T09:50:12.000Z</time></trkpt>
<trkpt lat="41.725749" lon="23.493098"><ele>2829.4</ele><time>2026-03-15T09:50:13.000Z</time></trkpt>
<trkpt lat="41.725749" lon="23.493098"><ele>2829.4</ele><time>2026-03-15T09:50:14.000Z</time></trkpt>
<trkpt lat="41.725749" lon="23.493098"><ele>2829.4</ele><time>2026-03-15T09:50:15.000Z</time></trkpt>
<trkpt lat="41.725749" lon="23.493098"><ele>2829.2</ele><time>2026-03-15T09:50:16.000Z</time></trkpt>
<trkpt lat="41.725749" lon="23.493098"><ele>2829.2</ele><time>2026-03-15T09:50:17.000Z</time></trkpt>
<trkpt lat="41.725749" lon="23.493098"><ele>2829.2</ele><time>2026-03-15T09:50:18.000Z</time></trkpt>
<trkpt lat="41.725749" lon="23.493098"><ele>2829.2</ele><time>2026-03-15T09:50:19.000Z</time></trkpt>
<trkpt lat="41.725749" lon="23.493098"><ele>2829.2</ele><time>2026-03-15T09:50:20.000Z</time></trkpt>
<trkpt lat="41.725749" lon="23.493098"><ele>2829.1</ele><time>2026-03-15T09:50:21.000Z</time></trkpt>
<trkpt lat="41.725749" lon="23.493098"><ele>2829.1</ele><time>2026-03-15T09:50:22.000Z</time></trkpt>
<trkpt lat="41.725749" lon="23.493098"><ele>2829.1</ele><time>2026-03-15T09:50:23.000Z</time></trkpt>
<trkpt lat="41.72575" lon="23.493098"><ele>2829.1</ele><time>2026-03-15T09:50:24.000Z</time></trkpt>
<trkpt lat="41.72575" lon="23.493098"><ele>2829.1</ele><time>2026-03-15T09:50:25.000Z</time></trkpt>
<trkpt lat="41.72575" lon="23.493098"><ele>2829.1</ele><time>2026-03-15T09:50:26.000Z</time></trkpt>
<trkpt lat="41.725751" lon="23.493098"><ele>2829.1</ele><time>2026-03-15T09:50:27.000Z</time></trkpt>
<trkpt lat="41.725752" lon="23.493098"><ele>2829.1</ele><time>2026-03-15T09:50:28.000Z</time></trkpt>
<trkpt lat="41.725752" lon="23.493097"><ele>2829.1</ele><time>2026-03-15T09:50:29.000Z</time></trkpt>
<trkpt lat="41.725752" lon="23.493097"><ele>2829.1</ele><time>2026-03-15T09:50:30.000Z</time></trkpt>
<trkpt lat="41.725752" lon="23.493096"><ele>2829</ele><time>2026-03-15T09:50:31.000Z</time></trkpt>
<trkpt lat="41.725752" lon="23.493096"><ele>2829</ele><time>2026-03-15T09:50:32.000Z</time></trkpt>
<trkpt lat="41.725752" lon="23.493095"><ele>2829</ele><time>2026-03-15T09:50:33.000Z</time></trkpt>
<trkpt lat="41.725752" lon="23.493095"><ele>2829</ele><time>2026-03-15T09:50:34.000Z</time></trkpt>
<trkpt lat="41.725752" lon="23.493094"><ele>2829</ele><time>2026-03-15T09:50:35.000Z</time></trkpt>
<trkpt lat="41.725752" lon="23.493094"><ele>2829.2</ele><time>2026-03-15T09:50:36.000Z</time></trkpt>
<trkpt lat="41.725752" lon="23.493094"><ele>2829.2</ele><time>2026-03-15T09:50:37.000Z</time></trkpt>
<trkpt lat="41.725752" lon="23.493094"><ele>2829.2</ele><time>2026-03-15T09:50:38.000Z</time></trkpt>
<trkpt lat="41.725752" lon="23.493094"><ele>2829.2</ele><time>2026-03-15T09:50:39.000Z</time></trkpt>
<trkpt lat="41.725752" lon="23.493094"><ele>2829.2</ele><time>2026-03-15T09:50:40.000Z</time></trkpt>
<trkpt lat="41.725752" lon="23.493094"><ele>2829.2</ele><time>2026-03-15T09:50:41.000Z</time></trkpt>
<trkpt lat="41.725752" lon="23.493094"><ele>2829.2</ele><time>2026-03-15T09:50:42.000Z</time></trkpt>
<trkpt lat="41.725752" lon="23.493094"><ele>2829.2</ele><time>2026-03-15T09:50:43.000Z</time></trkpt>
<trkpt lat="41.725752" lon="23.493094"><ele>2829.2</ele><time>2026-03-15T09:50:44.000Z</time></trkpt>
<trkpt lat="41.725752" lon="23.493094"><ele>2829.2</ele><time>2026-03-15T09:50:45.000Z</time></trkpt>
<trkpt lat="41.725752" lon="23.493094"><ele>2829</ele><time>2026-03-15T09:50:46.000Z</time></trkpt>
<trkpt lat="41.725752" lon="23.493094"><ele>2829</ele><time>2026-03-15T09:50:47.000Z</time></trkpt>
<trkpt lat="41.725752" lon="23.493094"><ele>2829</ele><time>2026-03-15T09:50:48.000Z</time></trkpt>
<trkpt lat="41.725752" lon="23.493094"><ele>2829</ele><time>2026-03-15T09:50:49.000Z</time></trkpt>
<trkpt lat="41.725752" lon="23.493094"><ele>2829</ele><time>2026-03-15T09:50:50.000Z</time></trkpt>
<trkpt lat="41.725752" lon="23.493095"><ele>2828.8</ele><time>2026-03-15T09:50:51.000Z</time></trkpt>
<trkpt lat="41.725752" lon="23.493095"><ele>2828.8</ele><time>2026-03-15T09:50:52.000Z</time></trkpt>
<trkpt lat="41.725752" lon="23.493096"><ele>2828.8</ele><time>2026-03-15T09:50:53.000Z</time></trkpt>
<trkpt lat="41.725752" lon="23.493096"><ele>2828.8</ele><time>2026-03-15T09:50:54.000Z</time></trkpt>
<trkpt lat="41.725751" lon="23.493097"><ele>2828.8</ele><time>2026-03-15T09:50:55.000Z</time></trkpt>
<trkpt lat="41.725751" lon="23.493097"><ele>2828.8</ele><time>2026-03-15T09:50:56.000Z</time></trkpt>
<trkpt lat="41.725751" lon="23.493097"><ele>2828.8</ele><time>2026-03-15T09:50:57.000Z</time></trkpt>
<trkpt lat="41.72575" lon="23.493097"><ele>2828.8</ele><time>2026-03-15T09:50:58.000Z</time></trkpt>
<trkpt lat="41.725751" lon="23.493098"><ele>2828.8</ele><time>2026-03-15T09:50:59.000Z</time></trkpt>
<trkpt lat="41.725751" lon="23.493098"><ele>2828.8</ele><time>2026-03-15T09:51:00.000Z</time></trkpt>
<trkpt lat="41.725751" lon="23.493099"><ele>2829</ele><time>2026-03-15T09:51:01.000Z</time></trkpt>
<trkpt lat="41.725751" lon="23.493099"><ele>2829</ele><time>2026-03-15T09:51:02.000Z</time></trkpt>
<trkpt lat="41.725752" lon="23.493099"><ele>2829</ele><time>2026-03-15T09:51:03.000Z</time></trkpt>
<trkpt lat="41.725752" lon="23.493099"><ele>2829</ele><time>2026-03-15T09:51:04.000Z</time></trkpt>
<trkpt lat="41.725752" lon="23.493099"><ele>2829</ele><time>2026-03-15T09:51:05.000Z</time></trkpt>
<trkpt lat="41.725752" lon="23.493099"><ele>2829.1</ele><time>2026-03-15T09:51:06.000Z</time></trkpt>
<trkpt lat="41.725752" lon="23.493099"><ele>2829.1</ele><time>2026-03-15T09:51:07.000Z</time></trkpt>
<trkpt lat="41.725752" lon="23.493099"><ele>2829.1</ele><time>2026-03-15T09:51:08.000Z</time></trkpt>
<trkpt lat="41.725753" lon="23.493099"><ele>2829.1</ele><time>2026-03-15T09:51:09.000Z</time></trkpt>
<trkpt lat="41.725753" lon="23.4931"><ele>2829.1</ele><time>2026-03-15T09:51:10.000Z</time></trkpt>
<trkpt lat="41.725753" lon="23.493099"><ele>2829.1</ele><time>2026-03-15T09:51:11.000Z</time></trkpt>
<trkpt lat="41.725753" lon="23.493099"><ele>2829.1</ele><time>2026-03-15T09:51:12.000Z</time></trkpt>
<trkpt lat="41.725752" lon="23.493099"><ele>2829.1</ele><time>2026-03-15T09:51:13.000Z</time></trkpt>
<trkpt lat="41.725752" lon="23.493099"><ele>2829.1</ele><time>2026-03-15T09:51:14.000Z</time></trkpt>
<trkpt lat="41.725752" lon="23.493098"><ele>2829.1</ele><time>2026-03-15T09:51:15.000Z</time></trkpt>
<trkpt lat="41.725752" lon="23.493098"><ele>2828.9</ele><time>2026-03-15T09:51:16.000Z</time></trkpt>
<trkpt lat="41.725752" lon="23.493097"><ele>2828.9</ele><time>2026-03-15T09:51:17.000Z</time></trkpt>
<trkpt lat="41.725751" lon="23.493097"><ele>2828.9</ele><time>2026-03-15T09:51:18.000Z</time></trkpt>
<trkpt lat="41.725751" lon="23.493097"><ele>2828.9</ele><time>2026-03-15T09:51:19.000Z</time></trkpt>
<trkpt lat="41.725751" lon="23.493097"><ele>2828.9</ele><time>2026-03-15T09:51:20.000Z</time></trkpt>
<trkpt lat="41.725751" lon="23.493097"><ele>2829</ele><time>2026-03-15T09:51:21.000Z</time></trkpt>
<trkpt lat="41.725752" lon="23.493097"><ele>2829</ele><time>2026-03-15T09:51:22.000Z</time></trkpt>
<trkpt lat="41.725752" lon="23.493096"><ele>2829</ele><time>2026-03-15T09:51:23.000Z</time></trkpt>
<trkpt lat="41.725752" lon="23.493096"><ele>2829</ele><time>2026-03-15T09:51:24.000Z</time></trkpt>
<trkpt lat="41.725752" lon="23.493096"><ele>2829</ele><time>2026-03-15T09:51:25.000Z</time></trkpt>
<trkpt lat="41.725752" lon="23.493095"><ele>2829</ele><time>2026-03-15T09:51:26.000Z</time></trkpt>
<trkpt lat="41.725752" lon="23.493095"><ele>2829</ele><time>2026-03-15T09:51:27.000Z</time></trkpt>
<trkpt lat="41.725752" lon="23.493095"><ele>2829</ele><time>2026-03-15T09:51:28.000Z</time></trkpt>
<trkpt lat="41.725752" lon="23.493095"><ele>2829</ele><time>2026-03-15T09:51:29.000Z</time></trkpt>
<trkpt lat="41.725752" lon="23.493095"><ele>2829</ele><time>2026-03-15T09:51:30.000Z</time></trkpt>
<trkpt lat="41.725752" lon="23.493095"><ele>2829.1</ele><time>2026-03-15T09:51:31.000Z</time></trkpt>
<trkpt lat="41.725751" lon="23.493095"><ele>2829.1</ele><time>2026-03-15T09:51:32.000Z</time></trkpt>
<trkpt lat="41.725751" lon="23.493096"><ele>2829.1</ele><time>2026-03-15T09:51:33.000Z</time></trkpt>
<trkpt lat="41.725751" lon="23.493096"><ele>2829.1</ele><time>2026-03-15T09:51:34.000Z</time></trkpt>
<trkpt lat="41.725751" lon="23.493096"><ele>2829.1</ele><time>2026-03-15T09:51:35.000Z</time></trkpt>
<trkpt lat="41.725751" lon="23.493096"><ele>2829</ele><time>2026-03-15T09:51:36.000Z</time></trkpt>
<trkpt lat="41.725751" lon="23.493096"><ele>2829</ele><time>2026-03-15T09:51:37.000Z</time></trkpt>
<trkpt lat="41.72575" lon="23.493096"><ele>2829</ele><time>2026-03-15T09:51:38.000Z</time></trkpt>
<trkpt lat="41.72575" lon="23.493096"><ele>2829</ele><time>2026-03-15T09:51:39.000Z</time></trkpt>
<trkpt lat="41.72575" lon="23.493097"><ele>2829</ele><time>2026-03-15T09:51:40.000Z</time></trkpt>
<trkpt lat="41.725749" lon="23.493097"><ele>2829</ele><time>2026-03-15T09:51:41.000Z</time></trkpt>
<trkpt lat="41.725749" lon="23.493098"><ele>2829</ele><time>2026-03-15T09:51:42.000Z</time></trkpt>
<trkpt lat="41.72575" lon="23.493099"><ele>2829</ele><time>2026-03-15T09:51:43.000Z</time></trkpt>
<trkpt lat="41.725751" lon="23.4931"><ele>2829</ele><time>2026-03-15T09:51:44.000Z</time></trkpt>
<trkpt lat="41.725751" lon="23.493101"><ele>2829</ele><time>2026-03-15T09:51:45.000Z</time></trkpt>
<trkpt lat="41.725752" lon="23.493102"><ele>2829.1</ele><time>2026-03-15T09:51:46.000Z</time></trkpt>
<trkpt lat="41.725752" lon="23.493103"><ele>2829.1</ele><time>2026-03-15T09:51:47.000Z</time></trkpt>
<trkpt lat="41.725753" lon="23.493104"><ele>2829.1</ele><time>2026-03-15T09:51:48.000Z</time></trkpt>
<trkpt lat="41.725753" lon="23.493105"><ele>2829.1</ele><time>2026-03-15T09:51:49.000Z</time></trkpt>
<trkpt lat="41.725754" lon="23.493105"><ele>2829.1</ele><time>2026-03-15T09:51:50.000Z</time></trkpt>
<trkpt lat="41.725754" lon="23.493106"><ele>2829.1</ele><time>2026-03-15T09:51:51.000Z</time></trkpt>
<trkpt lat="41.725755" lon="23.493106"><ele>2829.1</ele><time>2026-03-15T09:51:52.000Z</time></trkpt>
<trkpt lat="41.725755" lon="23.493107"><ele>2829.1</ele><time>2026-03-15T09:51:53.000Z</time></trkpt>
<trkpt lat="41.725755" lon="23.493107"><ele>2829.1</ele><time>2026-03-15T09:51:54.000Z</time></trkpt>
<trkpt lat="41.725755" lon="23.493107"><ele>2829.1</ele><time>2026-03-15T09:51:55.000Z</time></trkpt>
<trkpt lat="41.725754" lon="23.493107"><ele>2829.1</ele><time>2026-03-15T09:51:56.000Z</time></trkpt>
<trkpt lat="41.725754" lon="23.493106"><ele>2829.1</ele><time>2026-03-15T09:51:57.000Z</time></trkpt>
<trkpt lat="41.725754" lon="23.493106"><ele>2829.1</ele><time>2026-03-15T09:51:58.000Z</time></trkpt>
<trkpt lat="41.725753" lon="23.493106"><ele>2829.1</ele><time>2026-03-15T09:51:59.000Z</time></trkpt>
<trkpt lat="41.725753" lon="23.493106"><ele>2829.1</ele><time>2026-03-15T09:52:00.000Z</time></trkpt>
<trkpt lat="41.725753" lon="23.493106"><ele>2829</ele><time>2026-03-15T09:52:01.000Z</time></trkpt>
<trkpt lat="41.725753" lon="23.493106"><ele>2829</ele><time>2026-03-15T09:52:02.000Z</time></trkpt>
<trkpt lat="41.725753" lon="23.493106"><ele>2829</ele><time>2026-03-15T09:52:03.000Z</time></trkpt>
<trkpt lat="41.725753" lon="23.493106"><ele>2829</ele><time>2026-03-15T09:52:04.000Z</time></trkpt>
<trkpt lat="41.725753" lon="23.493106"><ele>2829</ele><time>2026-03-15T09:52:05.000Z</time></trkpt>
<trkpt lat="41.725753" lon="23.493106"><ele>2829</ele><time>2026-03-15T09:52:06.000Z</time></trkpt>
<trkpt lat="41.725753" lon="23.493106"><ele>2829</ele><time>2026-03-15T09:52:07.000Z</time></trkpt>
<trkpt lat="41.725753" lon="23.493106"><ele>2829</ele><time>2026-03-15T09:52:08.000Z</time></trkpt>
<trkpt lat="41.725753" lon="23.493106"><ele>2829</ele><time>2026-03-15T09:52:09.000Z</time></trkpt>
<trkpt lat="41.725753" lon="23.493106"><ele>2829</ele><time>2026-03-15T09:52:10.000Z</time></trkpt>
<trkpt lat="41.725754" lon="23.493106"><ele>2829.1</ele><time>2026-03-15T09:52:11.000Z</time></trkpt>
<trkpt lat="41.725755" lon="23.493107"><ele>2829.1</ele><time>2026-03-15T09:52:12.000Z</time></trkpt>
<trkpt lat="41.725755" lon="23.493108"><ele>2829.1</ele><time>2026-03-15T09:52:13.000Z</time></trkpt>
<trkpt lat="41.725756" lon="23.493108"><ele>2829.1</ele><time>2026-03-15T09:52:14.000Z</time></trkpt>
<trkpt lat="41.725757" lon="23.493109"><ele>2829.1</ele><time>2026-03-15T09:52:15.000Z</time></trkpt>
<trkpt lat="41.725757" lon="23.493109"><ele>2829.2</ele><time>2026-03-15T09:52:16.000Z</time></trkpt>
<trkpt lat="41.725757" lon="23.493109"><ele>2829.2</ele><time>2026-03-15T09:52:17.000Z</time></trkpt>
<trkpt lat="41.725757" lon="23.493109"><ele>2829.2</ele><time>2026-03-15T09:52:18.000Z</time></trkpt>
<trkpt lat="41.725757" lon="23.493109"><ele>2829.2</ele><time>2026-03-15T09:52:19.000Z</time></trkpt>
<trkpt lat="41.725757" lon="23.493109"><ele>2829.2</ele><time>2026-03-15T09:52:20.000Z</time></trkpt>
<trkpt lat="41.725756" lon="23.493109"><ele>2829.2</ele><time>2026-03-15T09:52:21.000Z</time></trkpt>
<trkpt lat="41.725756" lon="23.493109"><ele>2829.2</ele><time>2026-03-15T09:52:22.000Z</time></trkpt>
<trkpt lat="41.725755" lon="23.493109"><ele>2829.2</ele><time>2026-03-15T09:52:23.000Z</time></trkpt>
<trkpt lat="41.725755" lon="23.493109"><ele>2829.2</ele><time>2026-03-15T09:52:24.000Z</time></trkpt>
<trkpt lat="41.725754" lon="23.493108"><ele>2829.2</ele><time>2026-03-15T09:52:25.000Z</time></trkpt>
<trkpt lat="41.725753" lon="23.493108"><ele>2829.1</ele><time>2026-03-15T09:52:26.000Z</time></trkpt>
<trkpt lat="41.725751" lon="23.493108"><ele>2829.1</ele><time>2026-03-15T09:52:27.000Z</time></trkpt>
<trkpt lat="41.725747" lon="23.493108"><ele>2829.1</ele><time>2026-03-15T09:52:28.000Z</time></trkpt>
<trkpt lat="41.725742" lon="23.493108"><ele>2829.1</ele><time>2026-03-15T09:52:29.000Z</time></trkpt>
<trkpt lat="41.725738" lon="23.493106"><ele>2829.1</ele><time>2026-03-15T09:52:30.000Z</time></trkpt>
<trkpt lat="41.725734" lon="23.493103"><ele>2828.9</ele><time>2026-03-15T09:52:31.000Z</time></trkpt>
<trkpt lat="41.725732" lon="23.493099"><ele>2828.9</ele><time>2026-03-15T09:52:32.000Z</time></trkpt>
<trkpt lat="41.725731" lon="23.493094"><ele>2828.9</ele><time>2026-03-15T09:52:33.000Z</time></trkpt>
<trkpt lat="41.725731" lon="23.493089"><ele>2828.9</ele><time>2026-03-15T09:52:34.000Z</time></trkpt>
<trkpt lat="41.725731" lon="23.493083"><ele>2828.9</ele><time>2026-03-15T09:52:35.000Z</time></trkpt>
<trkpt lat="41.725731" lon="23.493079"><ele>2828.6</ele><time>2026-03-15T09:52:36.000Z</time></trkpt>
<trkpt lat="41.72573" lon="23.493074"><ele>2828.6</ele><time>2026-03-15T09:52:37.000Z</time></trkpt>
<trkpt lat="41.725728" lon="23.49307"><ele>2828.6</ele><time>2026-03-15T09:52:38.000Z</time></trkpt>
<trkpt lat="41.725726" lon="23.493066"><ele>2828.6</ele><time>2026-03-15T09:52:39.000Z</time></trkpt>
<trkpt lat="41.725724" lon="23.493063"><ele>2828.6</ele><time>2026-03-15T09:52:40.000Z</time></trkpt>
<trkpt lat="41.725721" lon="23.493061"><ele>2828.5</ele><time>2026-03-15T09:52:41.000Z</time></trkpt>
<trkpt lat="41.725718" lon="23.493059"><ele>2828.5</ele><time>2026-03-15T09:52:42.000Z</time></trkpt>
<trkpt lat="41.725716" lon="23.493056"><ele>2828.5</ele><time>2026-03-15T09:52:43.000Z</time></trkpt>
<trkpt lat="41.725713" lon="23.493054"><ele>2828.5</ele><time>2026-03-15T09:52:44.000Z</time></trkpt>
<trkpt lat="41.72571" lon="23.49305"><ele>2828.5</ele><time>2026-03-15T09:52:45.000Z</time></trkpt>
<trkpt lat="41.725708" lon="23.493047"><ele>2828</ele><time>2026-03-15T09:52:46.000Z</time></trkpt>
<trkpt lat="41.725706" lon="23.493044"><ele>2828</ele><time>2026-03-15T09:52:47.000Z</time></trkpt>
<trkpt lat="41.725704" lon="23.493041"><ele>2828</ele><time>2026-03-15T09:52:48.000Z</time></trkpt>
<trkpt lat="41.725702" lon="23.493038"><ele>2828</ele><time>2026-03-15T09:52:49.000Z</time></trkpt>
<trkpt lat="41.7257" lon="23.493034"><ele>2828</ele><time>2026-03-15T09:52:50.000Z</time></trkpt>
<trkpt lat="41.725698" lon="23.493031"><ele>2827.2</ele><time>2026-03-15T09:52:51.000Z</time></trkpt>
<trkpt lat="41.725697" lon="23.493028"><ele>2827.2</ele><time>2026-03-15T09:52:52.000Z</time></trkpt>
<trkpt lat="41.725694" lon="23.493025"><ele>2827.2</ele><time>2026-03-15T09:52:53.000Z</time></trkpt>
<trkpt lat="41.72569" lon="23.493023"><ele>2827.2</ele><time>2026-03-15T09:52:54.000Z</time></trkpt>
<trkpt lat="41.725687" lon="23.493022"><ele>2827.2</ele><time>2026-03-15T09:52:55.000Z</time></trkpt>
<trkpt lat="41.725684" lon="23.493019"><ele>2826.6</ele><time>2026-03-15T09:52:56.000Z</time></trkpt>
<trkpt lat="41.72568" lon="23.493017"><ele>2826.6</ele><time>2026-03-15T09:52:57.000Z</time></trkpt>
<trkpt lat="41.725676" lon="23.493016"><ele>2826.6</ele><time>2026-03-15T09:52:58.000Z</time></trkpt>
<trkpt lat="41.725673" lon="23.493013"><ele>2826.6</ele><time>2026-03-15T09:52:59.000Z</time></trkpt>
<trkpt lat="41.725668" lon="23.49301"><ele>2826.6</ele><time>2026-03-15T09:53:00.000Z</time></trkpt>
<trkpt lat="41.725663" lon="23.493007"><ele>2825.3</ele><time>2026-03-15T09:53:01.000Z</time></trkpt>
<trkpt lat="41.725659" lon="23.493004"><ele>2825.3</ele><time>2026-03-15T09:53:02.000Z</time></trkpt>
<trkpt lat="41.725655" lon="23.493"><ele>2825.3</ele><time>2026-03-15T09:53:03.000Z</time></trkpt>
<trkpt lat="41.725652" lon="23.492996"><ele>2825.3</ele><time>2026-03-15T09:53:04.000Z</time></trkpt>
<trkpt lat="41.72565" lon="23.492992"><ele>2825.3</ele><time>2026-03-15T09:53:05.000Z</time></trkpt>
<trkpt lat="41.725648" lon="23.492988"><ele>2824</ele><time>2026-03-15T09:53:06.000Z</time></trkpt>
<trkpt lat="41.725647" lon="23.492983"><ele>2824</ele><time>2026-03-15T09:53:07.000Z</time></trkpt>
<trkpt lat="41.725645" lon="23.492979"><ele>2824</ele><time>2026-03-15T09:53:08.000Z</time></trkpt>
<trkpt lat="41.725643" lon="23.492976"><ele>2824</ele><time>2026-03-15T09:53:09.000Z</time></trkpt>
<trkpt lat="41.725641" lon="23.492972"><ele>2824</ele><time>2026-03-15T09:53:10.000Z</time></trkpt>
<trkpt lat="41.725639" lon="23.492969"><ele>2823.4</ele><time>2026-03-15T09:53:11.000Z</time></trkpt>
<trkpt lat="41.725637" lon="23.492966"><ele>2823.4</ele><time>2026-03-15T09:53:12.000Z</time></trkpt>
<trkpt lat="41.725635" lon="23.492964"><ele>2823.4</ele><time>2026-03-15T09:53:13.000Z</time></trkpt>
<trkpt lat="41.725632" lon="23.492963"><ele>2823.4</ele><time>2026-03-15T09:53:14.000Z</time></trkpt>
<trkpt lat="41.725629" lon="23.492962"><ele>2823.4</ele><time>2026-03-15T09:53:15.000Z</time></trkpt>
<trkpt lat="41.725625" lon="23.492962"><ele>2822.2</ele><time>2026-03-15T09:53:16.000Z</time></trkpt>
<trkpt lat="41.725621" lon="23.492963"><ele>2822.2</ele><time>2026-03-15T09:53:17.000Z</time></trkpt>
<trkpt lat="41.725617" lon="23.492963"><ele>2822.2</ele><time>2026-03-15T09:53:18.000Z</time></trkpt>
<trkpt lat="41.725614" lon="23.492963"><ele>2822.2</ele><time>2026-03-15T09:53:19.000Z</time></trkpt>
<trkpt lat="41.72561" lon="23.492963"><ele>2822.2</ele><time>2026-03-15T09:53:20.000Z</time></trkpt>
<trkpt lat="41.725606" lon="23.492962"><ele>2820.8</ele><time>2026-03-15T09:53:21.000Z</time></trkpt>
<trkpt lat="41.725602" lon="23.492961"><ele>2820.8</ele><time>2026-03-15T09:53:22.000Z</time></trkpt>
<trkpt lat="41.725597" lon="23.492959"><ele>2820.8</ele><time>2026-03-15T09:53:23.000Z</time></trkpt>
<trkpt lat="41.725593" lon="23.492956"><ele>2820.8</ele><time>2026-03-15T09:53:24.000Z</time></trkpt>
<trkpt lat="41.725589" lon="23.492953"><ele>2820.8</ele><time>2026-03-15T09:53:25.000Z</time></trkpt>
<trkpt lat="41.725584" lon="23.492949"><ele>2820.2</ele><time>2026-03-15T09:53:26.000Z</time></trkpt>
<trkpt lat="41.72558" lon="23.492946"><ele>2820.2</ele><time>2026-03-15T09:53:27.000Z</time></trkpt>
<trkpt lat="41.725577" lon="23.492943"><ele>2820.2</ele><time>2026-03-15T09:53:28.000Z</time></trkpt>
<trkpt lat="41.725574" lon="23.492942"><ele>2820.2</ele><time>2026-03-15T09:53:29.000Z</time></trkpt>
<trkpt lat="41.725572" lon="23.492941"><ele>2820.2</ele><time>2026-03-15T09:53:30.000Z</time></trkpt>
<trkpt lat="41.72557" lon="23.492941"><ele>2819.3</ele><time>2026-03-15T09:53:31.000Z</time></trkpt>
<trkpt lat="41.725567" lon="23.492941"><ele>2819.3</ele><time>2026-03-15T09:53:32.000Z</time></trkpt>
<trkpt lat="41.725564" lon="23.492941"><ele>2819.3</ele><time>2026-03-15T09:53:33.000Z</time></trkpt>
<trkpt lat="41.725561" lon="23.492941"><ele>2819.3</ele><time>2026-03-15T09:53:34.000Z</time></trkpt>
<trkpt lat="41.725558" lon="23.492939"><ele>2819.3</ele><time>2026-03-15T09:53:35.000Z</time></trkpt>
<trkpt lat="41.725555" lon="23.492937"><ele>2818.5</ele><time>2026-03-15T09:53:36.000Z</time></trkpt>
<trkpt lat="41.725552" lon="23.492936"><ele>2818.5</ele><time>2026-03-15T09:53:37.000Z</time></trkpt>
<trkpt lat="41.725549" lon="23.492933"><ele>2818.5</ele><time>2026-03-15T09:53:38.000Z</time></trkpt>
<trkpt lat="41.725547" lon="23.492931"><ele>2818.5</ele><time>2026-03-15T09:53:39.000Z</time></trkpt>
<trkpt lat="41.725545" lon="23.492929"><ele>2818.5</ele><time>2026-03-15T09:53:40.000Z</time></trkpt>
<trkpt lat="41.725543" lon="23.492926"><ele>2818.1</ele><time>2026-03-15T09:53:41.000Z</time></trkpt>
<trkpt lat="41.725543" lon="23.492923"><ele>2818.1</ele><time>2026-03-15T09:53:42.000Z</time></trkpt>
<trkpt lat="41.725542" lon="23.49292"><ele>2818.1</ele><time>2026-03-15T09:53:43.000Z</time></trkpt>
<trkpt lat="41.725542" lon="23.492917"><ele>2818.1</ele><time>2026-03-15T09:53:44.000Z</time></trkpt>
<trkpt lat="41.725542" lon="23.492915"><ele>2818.1</ele><time>2026-03-15T09:53:45.000Z</time></trkpt>
<trkpt lat="41.725541" lon="23.492914"><ele>2817.2</ele><time>2026-03-15T09:53:46.000Z</time></trkpt>
<trkpt lat="41.72554" lon="23.492912"><ele>2817.2</ele><time>2026-03-15T09:53:47.000Z</time></trkpt>
<trkpt lat="41.725538" lon="23.492911"><ele>2817.2</ele><time>2026-03-15T09:53:48.000Z</time></trkpt>
<trkpt lat="41.725536" lon="23.49291"><ele>2817.2</ele><time>2026-03-15T09:53:49.000Z</time></trkpt>
<trkpt lat="41.725534" lon="23.492909"><ele>2817.2</ele><time>2026-03-15T09:53:50.000Z</time></trkpt>
<trkpt lat="41.725532" lon="23.492909"><ele>2816.5</ele><time>2026-03-15T09:53:51.000Z</time></trkpt>
<trkpt lat="41.725531" lon="23.492908"><ele>2816.5</ele><time>2026-03-15T09:53:52.000Z</time></trkpt>
<trkpt lat="41.725529" lon="23.492906"><ele>2816.5</ele><time>2026-03-15T09:53:53.000Z</time></trkpt>
<trkpt lat="41.725528" lon="23.492905"><ele>2816.5</ele><time>2026-03-15T09:53:54.000Z</time></trkpt>
<trkpt lat="41.725526" lon="23.492902"><ele>2816.5</ele><time>2026-03-15T09:53:55.000Z</time></trkpt>
<trkpt lat="41.725524" lon="23.492898"><ele>2816.2</ele><time>2026-03-15T09:53:56.000Z</time></trkpt>
<trkpt lat="41.725522" lon="23.492895"><ele>2816.2</ele><time>2026-03-15T09:53:57.000Z</time></trkpt>
<trkpt lat="41.72552" lon="23.492891"><ele>2816.2</ele><time>2026-03-15T09:53:58.000Z</time></trkpt>
<trkpt lat="41.725517" lon="23.492886"><ele>2816.2</ele><time>2026-03-15T09:53:59.000Z</time></trkpt>
<trkpt lat="41.725515" lon="23.492883"><ele>2816.2</ele><time>2026-03-15T09:54:00.000Z</time></trkpt>
<trkpt lat="41.725512" lon="23.492881"><ele>2815.6</ele><time>2026-03-15T09:54:01.000Z</time></trkpt>
<trkpt lat="41.72551" lon="23.49288"><ele>2815.6</ele><time>2026-03-15T09:54:02.000Z</time></trkpt>
<trkpt lat="41.725507" lon="23.492879"><ele>2815.6</ele><time>2026-03-15T09:54:03.000Z</time></trkpt>
<trkpt lat="41.725504" lon="23.492879"><ele>2815.6</ele><time>2026-03-15T09:54:04.000Z</time></trkpt>
<trkpt lat="41.725501" lon="23.492877"><ele>2815.6</ele><time>2026-03-15T09:54:05.000Z</time></trkpt>
<trkpt lat="41.725497" lon="23.492875"><ele>2814.7</ele><time>2026-03-15T09:54:06.000Z</time></trkpt>
<trkpt lat="41.725495" lon="23.492871"><ele>2814.7</ele><time>2026-03-15T09:54:07.000Z</time></trkpt>
<trkpt lat="41.725491" lon="23.492867"><ele>2814.7</ele><time>2026-03-15T09:54:08.000Z</time></trkpt>
<trkpt lat="41.725488" lon="23.492863"><ele>2814.7</ele><time>2026-03-15T09:54:09.000Z</time></trkpt>
<trkpt lat="41.725484" lon="23.492859"><ele>2814.7</ele><time>2026-03-15T09:54:10.000Z</time></trkpt>
<trkpt lat="41.72548" lon="23.492855"><ele>2814.2</ele><time>2026-03-15T09:54:11.000Z</time></trkpt>
<trkpt lat="41.725475" lon="23.492851"><ele>2814.2</ele><time>2026-03-15T09:54:12.000Z</time></trkpt>
<trkpt lat="41.72547" lon="23.492848"><ele>2814.2</ele><time>2026-03-15T09:54:13.000Z</time></trkpt>
<trkpt lat="41.725465" lon="23.492845"><ele>2814.2</ele><time>2026-03-15T09:54:14.000Z</time></trkpt>
<trkpt lat="41.72546" lon="23.492845"><ele>2814.2</ele><time>2026-03-15T09:54:15.000Z</time></trkpt>
<trkpt lat="41.725456" lon="23.492846"><ele>2813</ele><time>2026-03-15T09:54:16.000Z</time></trkpt>
<trkpt lat="41.725451" lon="23.492848"><ele>2813</ele><time>2026-03-15T09:54:17.000Z</time></trkpt>
<trkpt lat="41.725447" lon="23.492848"><ele>2813</ele><time>2026-03-15T09:54:18.000Z</time></trkpt>
<trkpt lat="41.725442" lon="23.492846"><ele>2813</ele><time>2026-03-15T09:54:19.000Z</time></trkpt>
<trkpt lat="41.725438" lon="23.492842"><ele>2813</ele><time>2026-03-15T09:54:20.000Z</time></trkpt>
<trkpt lat="41.725433" lon="23.492837"><ele>2811.9</ele><time>2026-03-15T09:54:21.000Z</time></trkpt>
<trkpt lat="41.725429" lon="23.49283"><ele>2811.9</ele><time>2026-03-15T09:54:22.000Z</time></trkpt>
<trkpt lat="41.725425" lon="23.492825"><ele>2811.9</ele><time>2026-03-15T09:54:23.000Z</time></trkpt>
<trkpt lat="41.725421" lon="23.492818"><ele>2811.9</ele><time>2026-03-15T09:54:24.000Z</time></trkpt>
<trkpt lat="41.725417" lon="23.492813"><ele>2811.9</ele><time>2026-03-15T09:54:25.000Z</time></trkpt>
<trkpt lat="41.725413" lon="23.492807"><ele>2811.3</ele><time>2026-03-15T09:54:26.000Z</time></trkpt>
<trkpt lat="41.72541" lon="23.492802"><ele>2811.3</ele><time>2026-03-15T09:54:27.000Z</time></trkpt>
<trkpt lat="41.725406" lon="23.492795"><ele>2811.3</ele><time>2026-03-15T09:54:28.000Z</time></trkpt>
<trkpt lat="41.725403" lon="23.49279"><ele>2811.3</ele><time>2026-03-15T09:54:29.000Z</time></trkpt>
<trkpt lat="41.7254" lon="23.492783"><ele>2811.3</ele><time>2026-03-15T09:54:30.000Z</time></trkpt>
<trkpt lat="41.725399" lon="23.492778"><ele>2810</ele><time>2026-03-15T09:54:31.000Z</time></trkpt>
<trkpt lat="41.725397" lon="23.492775"><ele>2810</ele><time>2026-03-15T09:54:32.000Z</time></trkpt>
<trkpt lat="41.725396" lon="23.492774"><ele>2810</ele><time>2026-03-15T09:54:33.000Z</time></trkpt>
<trkpt lat="41.725395" lon="23.492773"><ele>2810</ele><time>2026-03-15T09:54:34.000Z</time></trkpt>
<trkpt lat="41.725395" lon="23.492774"><ele>2810</ele><time>2026-03-15T09:54:35.000Z</time></trkpt>
<trkpt lat="41.725395" lon="23.492774"><ele>2808.6</ele><time>2026-03-15T09:54:36.000Z</time></trkpt>
<trkpt lat="41.725395" lon="23.492774"><ele>2808.6</ele><time>2026-03-15T09:54:37.000Z</time></trkpt>
<trkpt lat="41.725395" lon="23.492774"><ele>2808.6</ele><time>2026-03-15T09:54:38.000Z</time></trkpt>
<trkpt lat="41.725395" lon="23.492774"><ele>2808.6</ele><time>2026-03-15T09:54:39.000Z</time></trkpt>
<trkpt lat="41.725395" lon="23.492774"><ele>2808.6</ele><time>2026-03-15T09:54:40.000Z</time></trkpt>
<trkpt lat="41.725395" lon="23.492774"><ele>2807.9</ele><time>2026-03-15T09:54:41.000Z</time></trkpt>
<trkpt lat="41.725395" lon="23.492773"><ele>2807.9</ele><time>2026-03-15T09:54:42.000Z</time></trkpt>
<trkpt lat="41.725394" lon="23.492771"><ele>2807.9</ele><time>2026-03-15T09:54:43.000Z</time></trkpt>
<trkpt lat="41.725393" lon="23.492769"><ele>2807.9</ele><time>2026-03-15T09:54:44.000Z</time></trkpt>
<trkpt lat="41.725392" lon="23.492768"><ele>2807.9</ele><time>2026-03-15T09:54:45.000Z</time></trkpt>
<trkpt lat="41.72539" lon="23.492767"><ele>2806.9</ele><time>2026-03-15T09:54:46.000Z</time></trkpt>
<trkpt lat="41.725389" lon="23.492767"><ele>2806.9</ele><time>2026-03-15T09:54:47.000Z</time></trkpt>
<trkpt lat="41.725388" lon="23.492768"><ele>2806.9</ele><time>2026-03-15T09:54:48.000Z</time></trkpt>
<trkpt lat="41.725388" lon="23.492769"><ele>2806.9</ele><time>2026-03-15T09:54:49.000Z</time></trkpt>
<trkpt lat="41.725388" lon="23.492769"><ele>2806.9</ele><time>2026-03-15T09:54:50.000Z</time></trkpt>
<trkpt lat="41.725388" lon="23.49277"><ele>2806.5</ele><time>2026-03-15T09:54:51.000Z</time></trkpt>
<trkpt lat="41.725388" lon="23.49277"><ele>2806.5</ele><time>2026-03-15T09:54:52.000Z</time></trkpt>
<trkpt lat="41.725388" lon="23.49277"><ele>2806.5</ele><time>2026-03-15T09:54:53.000Z</time></trkpt>
<trkpt lat="41.725387" lon="23.49277"><ele>2806.5</ele><time>2026-03-15T09:54:54.000Z</time></trkpt>
<trkpt lat="41.725387" lon="23.492771"><ele>2806.5</ele><time>2026-03-15T09:54:55.000Z</time></trkpt>
<trkpt lat="41.725385" lon="23.492773"><ele>2806.4</ele><time>2026-03-15T09:54:56.000Z</time></trkpt>
<trkpt lat="41.725382" lon="23.492775"><ele>2806.4</ele><time>2026-03-15T09:54:57.000Z</time></trkpt>
<trkpt lat="41.725378" lon="23.492776"><ele>2806.4</ele><time>2026-03-15T09:54:58.000Z</time></trkpt>
<trkpt lat="41.725373" lon="23.492777"><ele>2806.4</ele><time>2026-03-15T09:54:59.000Z</time></trkpt>
<trkpt lat="41.725368" lon="23.492776"><ele>2806.4</ele><time>2026-03-15T09:55:00.000Z</time></trkpt>
<trkpt lat="41.725363" lon="23.492775"><ele>2806.3</ele><time>2026-03-15T09:55:01.000Z</time></trkpt>
<trkpt lat="41.725358" lon="23.492773"><ele>2806.3</ele><time>2026-03-15T09:55:02.000Z</time></trkpt>
<trkpt lat="41.725353" lon="23.492769"><ele>2806.3</ele><time>2026-03-15T09:55:03.000Z</time></trkpt>
<trkpt lat="41.725349" lon="23.492765"><ele>2806.3</ele><time>2026-03-15T09:55:04.000Z</time></trkpt>
<trkpt lat="41.725344" lon="23.49276"><ele>2806.3</ele><time>2026-03-15T09:55:05.000Z</time></trkpt>
<trkpt lat="41.72534" lon="23.492755"><ele>2805.9</ele><time>2026-03-15T09:55:06.000Z</time></trkpt>
<trkpt lat="41.725337" lon="23.492748"><ele>2805.9</ele><time>2026-03-15T09:55:07.000Z</time></trkpt>
<trkpt lat="41.725336" lon="23.492743"><ele>2805.9</ele><time>2026-03-15T09:55:08.000Z</time></trkpt>
<trkpt lat="41.725335" lon="23.492738"><ele>2805.9</ele><time>2026-03-15T09:55:09.000Z</time></trkpt>
<trkpt lat="41.725334" lon="23.492734"><ele>2805.9</ele><time>2026-03-15T09:55:10.000Z</time></trkpt>
<trkpt lat="41.725333" lon="23.49273"><ele>2805.6</ele><time>2026-03-15T09:55:11.000Z</time></trkpt>
<trkpt lat="41.725332" lon="23.492726"><ele>2805.6</ele><time>2026-03-15T09:55:12.000Z</time></trkpt>
<trkpt lat="41.72533" lon="23.492723"><ele>2805.6</ele><time>2026-03-15T09:55:13.000Z</time></trkpt>
<trkpt lat="41.725328" lon="23.492719"><ele>2805.6</ele><time>2026-03-15T09:55:14.000Z</time></trkpt>
<trkpt lat="41.725326" lon="23.492715"><ele>2805.6</ele><time>2026-03-15T09:55:15.000Z</time></trkpt>
<trkpt lat="41.725323" lon="23.492711"><ele>2804.7</ele><time>2026-03-15T09:55:16.000Z</time></trkpt>
<trkpt lat="41.725321" lon="23.492707"><ele>2804.7</ele><time>2026-03-15T09:55:17.000Z</time></trkpt>
<trkpt lat="41.725318" lon="23.492703"><ele>2804.7</ele><time>2026-03-15T09:55:18.000Z</time></trkpt>
<trkpt lat="41.725316" lon="23.492699"><ele>2804.7</ele><time>2026-03-15T09:55:19.000Z</time></trkpt>
<trkpt lat="41.725315" lon="23.492695"><ele>2804.7</ele><time>2026-03-15T09:55:20.000Z</time></trkpt>
<trkpt lat="41.725315" lon="23.492692"><ele>2803.5</ele><time>2026-03-15T09:55:21.000Z</time></trkpt>
<trkpt lat="41.725315" lon="23.49269"><ele>2803.5</ele><time>2026-03-15T09:55:22.000Z</time></trkpt>
<trkpt lat="41.725316" lon="23.492688"><ele>2803.5</ele><time>2026-03-15T09:55:23.000Z</time></trkpt>
<trkpt lat="41.725316" lon="23.492687"><ele>2803.5</ele><time>2026-03-15T09:55:24.000Z</time></trkpt>
<trkpt lat="41.725317" lon="23.492687"><ele>2803.5</ele><time>2026-03-15T09:55:25.000Z</time></trkpt>
<trkpt lat="41.725316" lon="23.492687"><ele>2803</ele><time>2026-03-15T09:55:26.000Z</time></trkpt>
<trkpt lat="41.725316" lon="23.492687"><ele>2803</ele><time>2026-03-15T09:55:27.000Z</time></trkpt>
<trkpt lat="41.725316" lon="23.492687"><ele>2803</ele><time>2026-03-15T09:55:28.000Z</time></trkpt>
<trkpt lat="41.725316" lon="23.492687"><ele>2803</ele><time>2026-03-15T09:55:29.000Z</time></trkpt>
<trkpt lat="41.725316" lon="23.492687"><ele>2803</ele><time>2026-03-15T09:55:30.000Z</time></trkpt>
<trkpt lat="41.725316" lon="23.492687"><ele>2802.3</ele><time>2026-03-15T09:55:31.000Z</time></trkpt>
<trkpt lat="41.725316" lon="23.492687"><ele>2802.3</ele><time>2026-03-15T09:55:32.000Z</time></trkpt>
<trkpt lat="41.725316" lon="23.492686"><ele>2802.3</ele><time>2026-03-15T09:55:33.000Z</time></trkpt>
<trkpt lat="41.725316" lon="23.492684"><ele>2802.3</ele><time>2026-03-15T09:55:34.000Z</time></trkpt>
<trkpt lat="41.725316" lon="23.492681"><ele>2802.3</ele><time>2026-03-15T09:55:35.000Z</time></trkpt>
<trkpt lat="41.725317" lon="23.492678"><ele>2802.1</ele><time>2026-03-15T09:55:36.000Z</time></trkpt>
<trkpt lat="41.725317" lon="23.492675"><ele>2802.1</ele><time>2026-03-15T09:55:37.000Z</time></trkpt>
<trkpt lat="41.725319" lon="23.492674"><ele>2802.1</ele><time>2026-03-15T09:55:38.000Z</time></trkpt>
<trkpt lat="41.725321" lon="23.492673"><ele>2802.1</ele><time>2026-03-15T09:55:39.000Z</time></trkpt>
<trkpt lat="41.725322" lon="23.492672"><ele>2802.1</ele><time>2026-03-15T09:55:40.000Z</time></trkpt>
<trkpt lat="41.725322" lon="23.492671"><ele>2802</ele><time>2026-03-15T09:55:41.000Z</time></trkpt>
<trkpt lat="41.725322" lon="23.492669"><ele>2802</ele><time>2026-03-15T09:55:42.000Z</time></trkpt>
<trkpt lat="41.725323" lon="23.492665"><ele>2802</ele><time>2026-03-15T09:55:43.000Z</time></trkpt>
<trkpt lat="41.725323" lon="23.492663"><ele>2802</ele><time>2026-03-15T09:55:44.000Z</time></trkpt>
<trkpt lat="41.725324" lon="23.492662"><ele>2802</ele><time>2026-03-15T09:55:45.000Z</time></trkpt>
<trkpt lat="41.725325" lon="23.49266"><ele>2801.5</ele><time>2026-03-15T09:55:46.000Z</time></trkpt>
<trkpt lat="41.725328" lon="23.492658"><ele>2801.5</ele><time>2026-03-15T09:55:47.000Z</time></trkpt>
<trkpt lat="41.725331" lon="23.492657"><ele>2801.5</ele><time>2026-03-15T09:55:48.000Z</time></trkpt>
<trkpt lat="41.725334" lon="23.492655"><ele>2801.5</ele><time>2026-03-15T09:55:49.000Z</time></trkpt>
<trkpt lat="41.725337" lon="23.492652"><ele>2801.5</ele><time>2026-03-15T09:55:50.000Z</time></trkpt>
<trkpt lat="41.725338" lon="23.492648"><ele>2800.7</ele><time>2026-03-15T09:55:51.000Z</time></trkpt>
<trkpt lat="41.725339" lon="23.492645"><ele>2800.7</ele><time>2026-03-15T09:55:52.000Z</time></trkpt>
<trkpt lat="41.725338" lon="23.492641"><ele>2800.7</ele><time>2026-03-15T09:55:53.000Z</time></trkpt>
<trkpt lat="41.725336" lon="23.492636"><ele>2800.7</ele><time>2026-03-15T09:55:54.000Z</time></trkpt>
<trkpt lat="41.725333" lon="23.492632"><ele>2800.7</ele><time>2026-03-15T09:55:55.000Z</time></trkpt>
<trkpt lat="41.725329" lon="23.492627"><ele>2800.4</ele><time>2026-03-15T09:55:56.000Z</time></trkpt>
<trkpt lat="41.725324" lon="23.492623"><ele>2800.4</ele><time>2026-03-15T09:55:57.000Z</time></trkpt>
<trkpt lat="41.725321" lon="23.492619"><ele>2800.4</ele><time>2026-03-15T09:55:58.000Z</time></trkpt>
<trkpt lat="41.725319" lon="23.492616"><ele>2800.4</ele><time>2026-03-15T09:55:59.000Z</time></trkpt>
<trkpt lat="41.725318" lon="23.492613"><ele>2800.4</ele><time>2026-03-15T09:56:00.000Z</time></trkpt>
<trkpt lat="41.725318" lon="23.49261"><ele>2799.8</ele><time>2026-03-15T09:56:01.000Z</time></trkpt>
<trkpt lat="41.725319" lon="23.492608"><ele>2799.8</ele><time>2026-03-15T09:56:02.000Z</time></trkpt>
<trkpt lat="41.72532" lon="23.492607"><ele>2799.8</ele><time>2026-03-15T09:56:03.000Z</time></trkpt>
<trkpt lat="41.725321" lon="23.492607"><ele>2799.8</ele><time>2026-03-15T09:56:04.000Z</time></trkpt>
<trkpt lat="41.725321" lon="23.492608"><ele>2799.8</ele><time>2026-03-15T09:56:05.000Z</time></trkpt>
<trkpt lat="41.725321" lon="23.492608"><ele>2799</ele><time>2026-03-15T09:56:06.000Z</time></trkpt>
<trkpt lat="41.72532" lon="23.492608"><ele>2799</ele><time>2026-03-15T09:56:07.000Z</time></trkpt>
<trkpt lat="41.72532" lon="23.492607"><ele>2799</ele><time>2026-03-15T09:56:08.000Z</time></trkpt>
<trkpt lat="41.725319" lon="23.492607"><ele>2799</ele><time>2026-03-15T09:56:09.000Z</time></trkpt>
<trkpt lat="41.725318" lon="23.492607"><ele>2799</ele><time>2026-03-15T09:56:10.000Z</time></trkpt>
<trkpt lat="41.725317" lon="23.49261"><ele>2798.6</ele><time>2026-03-15T09:56:11.000Z</time></trkpt>
<trkpt lat="41.725316" lon="23.492613"><ele>2798.6</ele><time>2026-03-15T09:56:12.000Z</time></trkpt>
<trkpt lat="41.725314" lon="23.492615"><ele>2798.6</ele><time>2026-03-15T09:56:13.000Z</time></trkpt>
<trkpt lat="41.725312" lon="23.492616"><ele>2798.6</ele><time>2026-03-15T09:56:14.000Z</time></trkpt>
<trkpt lat="41.72531" lon="23.492616"><ele>2798.6</ele><time>2026-03-15T09:56:15.000Z</time></trkpt>
<trkpt lat="41.725307" lon="23.492616"><ele>2798</ele><time>2026-03-15T09:56:16.000Z</time></trkpt>
<trkpt lat="41.725304" lon="23.492615"><ele>2798</ele><time>2026-03-15T09:56:17.000Z</time></trkpt>
<trkpt lat="41.7253" lon="23.492614"><ele>2798</ele><time>2026-03-15T09:56:18.000Z</time></trkpt>
<trkpt lat="41.725294" lon="23.492614"><ele>2798</ele><time>2026-03-15T09:56:19.000Z</time></trkpt>
<trkpt lat="41.725288" lon="23.492613"><ele>2798</ele><time>2026-03-15T09:56:20.000Z</time></trkpt>
<trkpt lat="41.725282" lon="23.492612"><ele>2797.5</ele><time>2026-03-15T09:56:21.000Z</time></trkpt>
<trkpt lat="41.725274" lon="23.49261"><ele>2797.5</ele><time>2026-03-15T09:56:22.000Z</time></trkpt>
<trkpt lat="41.725267" lon="23.492606"><ele>2797.5</ele><time>2026-03-15T09:56:23.000Z</time></trkpt>
<trkpt lat="41.725259" lon="23.492601"><ele>2797.5</ele><time>2026-03-15T09:56:24.000Z</time></trkpt>
<trkpt lat="41.72525" lon="23.492594"><ele>2797.5</ele><time>2026-03-15T09:56:25.000Z</time></trkpt>
<trkpt lat="41.725242" lon="23.492588"><ele>2797.3</ele><time>2026-03-15T09:56:26.000Z</time></trkpt>
<trkpt lat="41.725234" lon="23.492584"><ele>2797.3</ele><time>2026-03-15T09:56:27.000Z</time></trkpt>
<trkpt lat="41.725226" lon="23.49258"><ele>2797.3</ele><time>2026-03-15T09:56:28.000Z</time></trkpt>
<trkpt lat="41.725218" lon="23.492575"><ele>2797.3</ele><time>2026-03-15T09:56:29.000Z</time></trkpt>
<trkpt lat="41.725211" lon="23.492572"><ele>2797.3</ele><time>2026-03-15T09:56:30.000Z</time></trkpt>
<trkpt lat="41.725204" lon="23.492566"><ele>2796.5</ele><time>2026-03-15T09:56:31.000Z</time></trkpt>
<trkpt lat="41.725198" lon="23.49256"><ele>2796.5</ele><time>2026-03-15T09:56:32.000Z</time></trkpt>
<trkpt lat="41.725192" lon="23.492552"><ele>2796.5</ele><time>2026-03-15T09:56:33.000Z</time></trkpt>
<trkpt lat="41.725188" lon="23.492546"><ele>2796.5</ele><time>2026-03-15T09:56:34.000Z</time></trkpt>
<trkpt lat="41.725185" lon="23.492539"><ele>2796.5</ele><time>2026-03-15T09:56:35.000Z</time></trkpt>
<trkpt lat="41.725183" lon="23.492535"><ele>2795.2</ele><time>2026-03-15T09:56:36.000Z</time></trkpt>
<trkpt lat="41.725182" lon="23.492533"><ele>2795.2</ele><time>2026-03-15T09:56:37.000Z</time></trkpt>
<trkpt lat="41.725182" lon="23.492531"><ele>2795.2</ele><time>2026-03-15T09:56:38.000Z</time></trkpt>
<trkpt lat="41.725182" lon="23.49253"><ele>2795.2</ele><time>2026-03-15T09:56:39.000Z</time></trkpt>
<trkpt lat="41.725181" lon="23.49253"><ele>2795.2</ele><time>2026-03-15T09:56:40.000Z</time></trkpt>
<trkpt lat="41.725181" lon="23.492529"><ele>2794.4</ele><time>2026-03-15T09:56:41.000Z</time></trkpt>
<trkpt lat="41.725181" lon="23.492529"><ele>2794.4</ele><time>2026-03-15T09:56:42.000Z</time></trkpt>
<trkpt lat="41.725181" lon="23.492529"><ele>2794.4</ele><time>2026-03-15T09:56:43.000Z</time></trkpt>
<trkpt lat="41.725181" lon="23.492529"><ele>2794.4</ele><time>2026-03-15T09:56:44.000Z</time></trkpt>
<trkpt lat="41.725181" lon="23.492529"><ele>2794.4</ele><time>2026-03-15T09:56:45.000Z</time></trkpt>
<trkpt lat="41.725181" lon="23.492529"><ele>2792.8</ele><time>2026-03-15T09:56:46.000Z</time></trkpt>
<trkpt lat="41.725181" lon="23.492529"><ele>2792.8</ele><time>2026-03-15T09:56:47.000Z</time></trkpt>
<trkpt lat="41.725181" lon="23.492529"><ele>2792.8</ele><time>2026-03-15T09:56:48.000Z</time></trkpt>
<trkpt lat="41.725181" lon="23.492529"><ele>2792.8</ele><time>2026-03-15T09:56:49.000Z</time></trkpt>
<trkpt lat="41.725181" lon="23.492529"><ele>2792.8</ele><time>2026-03-15T09:56:50.000Z</time></trkpt>
<trkpt lat="41.725181" lon="23.492529"><ele>2791.9</ele><time>2026-03-15T09:56:51.000Z</time></trkpt>
<trkpt lat="41.725181" lon="23.492529"><ele>2791.9</ele><time>2026-03-15T09:56:52.000Z</time></trkpt>
<trkpt lat="41.725181" lon="23.492529"><ele>2791.9</ele><time>2026-03-15T09:56:53.000Z</time></trkpt>
<trkpt lat="41.725182" lon="23.492528"><ele>2791.9</ele><time>2026-03-15T09:56:54.000Z</time></trkpt>
<trkpt lat="41.725182" lon="23.492526"><ele>2791.9</ele><time>2026-03-15T09:56:55.000Z</time></trkpt>
<trkpt lat="41.725182" lon="23.492524"><ele>2791.7</ele><time>2026-03-15T09:56:56.000Z</time></trkpt>
<trkpt lat="41.725183" lon="23.492521"><ele>2791.7</ele><time>2026-03-15T09:56:57.000Z</time></trkpt>
<trkpt lat="41.725183" lon="23.492517"><ele>2791.7</ele><time>2026-03-15T09:56:58.000Z</time></trkpt>
<trkpt lat="41.725184" lon="23.492513"><ele>2791.7</ele><time>2026-03-15T09:56:59.000Z</time></trkpt>
<trkpt lat="41.725184" lon="23.49251"><ele>2791.7</ele><time>2026-03-15T09:57:00.000Z</time></trkpt>
<trkpt lat="41.725185" lon="23.492506"><ele>2791.7</ele><time>2026-03-15T09:57:01.000Z</time></trkpt>
<trkpt lat="41.725184" lon="23.492501"><ele>2791.7</ele><time>2026-03-15T09:57:02.000Z</time></trkpt>
<trkpt lat="41.725182" lon="23.492497"><ele>2791.7</ele><time>2026-03-15T09:57:03.000Z</time></trkpt>
<trkpt lat="41.72518" lon="23.492492"><ele>2791.7</ele><time>2026-03-15T09:57:04.000Z</time></trkpt>
<trkpt lat="41.725178" lon="23.492489"><ele>2791.7</ele><time>2026-03-15T09:57:05.000Z</time></trkpt>
<trkpt lat="41.725176" lon="23.492487"><ele>2791.6</ele><time>2026-03-15T09:57:06.000Z</time></trkpt>
<trkpt lat="41.725176" lon="23.492486"><ele>2791.6</ele><time>2026-03-15T09:57:07.000Z</time></trkpt>
<trkpt lat="41.725176" lon="23.492486"><ele>2791.6</ele><time>2026-03-15T09:57:08.000Z</time></trkpt>
<trkpt lat="41.725176" lon="23.492486"><ele>2791.6</ele><time>2026-03-15T09:57:09.000Z</time></trkpt>
<trkpt lat="41.725176" lon="23.492487"><ele>2791.6</ele><time>2026-03-15T09:57:10.000Z</time></trkpt>
<trkpt lat="41.725176" lon="23.492487"><ele>2791.6</ele><time>2026-03-15T09:57:11.000Z</time></trkpt>
<trkpt lat="41.725176" lon="23.492487"><ele>2791.6</ele><time>2026-03-15T09:57:12.000Z</time></trkpt>
<trkpt lat="41.725177" lon="23.492487"><ele>2791.6</ele><time>2026-03-15T09:57:13.000Z</time></trkpt>
<trkpt lat="41.725177" lon="23.492486"><ele>2791.6</ele><time>2026-03-15T09:57:14.000Z</time></trkpt>
<trkpt lat="41.725178" lon="23.492485"><ele>2791.6</ele><time>2026-03-15T09:57:15.000Z</time></trkpt>
<trkpt lat="41.725179" lon="23.492484"><ele>2791.5</ele><time>2026-03-15T09:57:16.000Z</time></trkpt>
<trkpt lat="41.725179" lon="23.492484"><ele>2791.5</ele><time>2026-03-15T09:57:17.000Z</time></trkpt>
<trkpt lat="41.72518" lon="23.492483"><ele>2791.5</ele><time>2026-03-15T09:57:18.000Z</time></trkpt>
<trkpt lat="41.72518" lon="23.492483"><ele>2791.5</ele><time>2026-03-15T09:57:19.000Z</time></trkpt>
<trkpt lat="41.72518" lon="23.492482"><ele>2791.5</ele><time>2026-03-15T09:57:20.000Z</time></trkpt>
<trkpt lat="41.725182" lon="23.492481"><ele>2791.3</ele><time>2026-03-15T09:57:21.000Z</time></trkpt>
<trkpt lat="41.725183" lon="23.49248"><ele>2791.3</ele><time>2026-03-15T09:57:22.000Z</time></trkpt>
<trkpt lat="41.725185" lon="23.492479"><ele>2791.3</ele><time>2026-03-15T09:57:23.000Z</time></trkpt>
<trkpt lat="41.725187" lon="23.492477"><ele>2791.3</ele><time>2026-03-15T09:57:24.000Z</time></trkpt>
<trkpt lat="41.725188" lon="23.492476"><ele>2791.3</ele><time>2026-03-15T09:57:25.000Z</time></trkpt>
<trkpt lat="41.725188" lon="23.492476"><ele>2791.3</ele><time>2026-03-15T09:57:26.000Z</time></trkpt>
<trkpt lat="41.725189" lon="23.492475"><ele>2791.3</ele><time>2026-03-15T09:57:27.000Z</time></trkpt>
<trkpt lat="41.725189" lon="23.492475"><ele>2791.3</ele><time>2026-03-15T09:57:28.000Z</time></trkpt>
<trkpt lat="41.725188" lon="23.492475"><ele>2791.3</ele><time>2026-03-15T09:57:29.000Z</time></trkpt>
<trkpt lat="41.725188" lon="23.492475"><ele>2791.3</ele><time>2026-03-15T09:57:30.000Z</time></trkpt>
<trkpt lat="41.725188" lon="23.492475"><ele>2791.1</ele><time>2026-03-15T09:57:31.000Z</time></trkpt>
<trkpt lat="41.725188" lon="23.492475"><ele>2791.1</ele><time>2026-03-15T09:57:32.000Z</time></trkpt>
<trkpt lat="41.725188" lon="23.492475"><ele>2791.1</ele><time>2026-03-15T09:57:33.000Z</time></trkpt>
<trkpt lat="41.725188" lon="23.492475"><ele>2791.1</ele><time>2026-03-15T09:57:34.000Z</time></trkpt>
<trkpt lat="41.725188" lon="23.492475"><ele>2791.1</ele><time>2026-03-15T09:57:35.000Z</time></trkpt>
<trkpt lat="41.725188" lon="23.492475"><ele>2791</ele><time>2026-03-15T09:57:36.000Z</time></trkpt>
<trkpt lat="41.725188" lon="23.492475"><ele>2791</ele><time>2026-03-15T09:57:37.000Z</time></trkpt>
<trkpt lat="41.725188" lon="23.492475"><ele>2791</ele><time>2026-03-15T09:57:38.000Z</time></trkpt>
<trkpt lat="41.725188" lon="23.492474"><ele>2791</ele><time>2026-03-15T09:57:39.000Z</time></trkpt>
<trkpt lat="41.725188" lon="23.492473"><ele>2791</ele><time>2026-03-15T09:57:40.000Z</time></trkpt>
<trkpt lat="41.725186" lon="23.492471"><ele>2791</ele><time>2026-03-15T09:57:41.000Z</time></trkpt>
<trkpt lat="41.725184" lon="23.492468"><ele>2791</ele><time>2026-03-15T09:57:42.000Z</time></trkpt>
<trkpt lat="41.725182" lon="23.492464"><ele>2791</ele><time>2026-03-15T09:57:43.000Z</time></trkpt>
<trkpt lat="41.72518" lon="23.492459"><ele>2791</ele><time>2026-03-15T09:57:44.000Z</time></trkpt>
<trkpt lat="41.725177" lon="23.492454"><ele>2791</ele><time>2026-03-15T09:57:45.000Z</time></trkpt>
<trkpt lat="41.725174" lon="23.492449"><ele>2791.2</ele><time>2026-03-15T09:57:46.000Z</time></trkpt>
<trkpt lat="41.725172" lon="23.492443"><ele>2791.2</ele><time>2026-03-15T09:57:47.000Z</time></trkpt>
<trkpt lat="41.72517" lon="23.492437"><ele>2791.2</ele><time>2026-03-15T09:57:48.000Z</time></trkpt>
<trkpt lat="41.725168" lon="23.492431"><ele>2791.2</ele><time>2026-03-15T09:57:49.000Z</time></trkpt>
<trkpt lat="41.725166" lon="23.492427"><ele>2791.2</ele><time>2026-03-15T09:57:50.000Z</time></trkpt>
<trkpt lat="41.725164" lon="23.492425"><ele>2791.3</ele><time>2026-03-15T09:57:51.000Z</time></trkpt>
<trkpt lat="41.725161" lon="23.492426"><ele>2791.3</ele><time>2026-03-15T09:57:52.000Z</time></trkpt>
<trkpt lat="41.725158" lon="23.492428"><ele>2791.3</ele><time>2026-03-15T09:57:53.000Z</time></trkpt>
<trkpt lat="41.725154" lon="23.492431"><ele>2791.3</ele><time>2026-03-15T09:57:54.000Z</time></trkpt>
<trkpt lat="41.725149" lon="23.492434"><ele>2791.3</ele><time>2026-03-15T09:57:55.000Z</time></trkpt>
<trkpt lat="41.725143" lon="23.492434"><ele>2791</ele><time>2026-03-15T09:57:56.000Z</time></trkpt>
<trkpt lat="41.725138" lon="23.492432"><ele>2791</ele><time>2026-03-15T09:57:57.000Z</time></trkpt>
<trkpt lat="41.725133" lon="23.492427"><ele>2791</ele><time>2026-03-15T09:57:58.000Z</time></trkpt>
<trkpt lat="41.72513" lon="23.49242"><ele>2791</ele><time>2026-03-15T09:57:59.000Z</time></trkpt>
<trkpt lat="41.725129" lon="23.492414"><ele>2791</ele><time>2026-03-15T09:58:00.000Z</time></trkpt>
<trkpt lat="41.725128" lon="23.492408"><ele>2789.8</ele><time>2026-03-15T09:58:01.000Z</time></trkpt>
<trkpt lat="41.725127" lon="23.492404"><ele>2789.8</ele><time>2026-03-15T09:58:02.000Z</time></trkpt>
<trkpt lat="41.725126" lon="23.4924"><ele>2789.8</ele><time>2026-03-15T09:58:03.000Z</time></trkpt>
<trkpt lat="41.725124" lon="23.492397"><ele>2789.8</ele><time>2026-03-15T09:58:04.000Z</time></trkpt>
<trkpt lat="41.725123" lon="23.492395"><ele>2789.8</ele><time>2026-03-15T09:58:05.000Z</time></trkpt>
<trkpt lat="41.725121" lon="23.492392"><ele>2788.4</ele><time>2026-03-15T09:58:06.000Z</time></trkpt>
<trkpt lat="41.725119" lon="23.492388"><ele>2788.4</ele><time>2026-03-15T09:58:07.000Z</time></trkpt>
<trkpt lat="41.725117" lon="23.492385"><ele>2788.4</ele><time>2026-03-15T09:58:08.000Z</time></trkpt>
<trkpt lat="41.725116" lon="23.492381"><ele>2788.4</ele><time>2026-03-15T09:58:09.000Z</time></trkpt>
<trkpt lat="41.725114" lon="23.492377"><ele>2788.4</ele><time>2026-03-15T09:58:10.000Z</time></trkpt>
<trkpt lat="41.725113" lon="23.492374"><ele>2787.8</ele><time>2026-03-15T09:58:11.000Z</time></trkpt>
<trkpt lat="41.725112" lon="23.49237"><ele>2787.8</ele><time>2026-03-15T09:58:12.000Z</time></trkpt>
<trkpt lat="41.725111" lon="23.492368"><ele>2787.8</ele><time>2026-03-15T09:58:13.000Z</time></trkpt>
<trkpt lat="41.72511" lon="23.492365"><ele>2787.8</ele><time>2026-03-15T09:58:14.000Z</time></trkpt>
<trkpt lat="41.72511" lon="23.492364"><ele>2787.8</ele><time>2026-03-15T09:58:15.000Z</time></trkpt>
<trkpt lat="41.725109" lon="23.492362"><ele>2786.9</ele><time>2026-03-15T09:58:16.000Z</time></trkpt>
<trkpt lat="41.725108" lon="23.492361"><ele>2786.9</ele><time>2026-03-15T09:58:17.000Z</time></trkpt>
<trkpt lat="41.725107" lon="23.492359"><ele>2786.9</ele><time>2026-03-15T09:58:18.000Z</time></trkpt>
<trkpt lat="41.725107" lon="23.492355"><ele>2786.9</ele><time>2026-03-15T09:58:19.000Z</time></trkpt>
<trkpt lat="41.725106" lon="23.492351"><ele>2786.9</ele><time>2026-03-15T09:58:20.000Z</time></trkpt>
<trkpt lat="41.725105" lon="23.492347"><ele>2786.2</ele><time>2026-03-15T09:58:21.000Z</time></trkpt>
<trkpt lat="41.725104" lon="23.492343"><ele>2786.2</ele><time>2026-03-15T09:58:22.000Z</time></trkpt>
<trkpt lat="41.725102" lon="23.492339"><ele>2786.2</ele><time>2026-03-15T09:58:23.000Z</time></trkpt>
<trkpt lat="41.725099" lon="23.492338"><ele>2786.2</ele><time>2026-03-15T09:58:24.000Z</time></trkpt>
<trkpt lat="41.725095" lon="23.492337"><ele>2786.2</ele><time>2026-03-15T09:58:25.000Z</time></trkpt>
<trkpt lat="41.72509" lon="23.492339"><ele>2785.8</ele><time>2026-03-15T09:58:26.000Z</time></trkpt>
<trkpt lat="41.725085" lon="23.492343"><ele>2785.8</ele><time>2026-03-15T09:58:27.000Z</time></trkpt>
<trkpt lat="41.72508" lon="23.492348"><ele>2785.8</ele><time>2026-03-15T09:58:28.000Z</time></trkpt>
<trkpt lat="41.725075" lon="23.492354"><ele>2785.8</ele><time>2026-03-15T09:58:29.000Z</time></trkpt>
<trkpt lat="41.725071" lon="23.492358"><ele>2785.8</ele><time>2026-03-15T09:58:30.000Z</time></trkpt>
<trkpt lat="41.725068" lon="23.492359"><ele>2784.9</ele><time>2026-03-15T09:58:31.000Z</time></trkpt>
<trkpt lat="41.725066" lon="23.492359"><ele>2784.9</ele><time>2026-03-15T09:58:32.000Z</time></trkpt>
<trkpt lat="41.725064" lon="23.492358"><ele>2784.9</ele><time>2026-03-15T09:58:33.000Z</time></trkpt>
<trkpt lat="41.725062" lon="23.492355"><ele>2784.9</ele><time>2026-03-15T09:58:34.000Z</time></trkpt>
<trkpt lat="41.72506" lon="23.492352"><ele>2784.9</ele><time>2026-03-15T09:58:35.000Z</time></trkpt>
<trkpt lat="41.725058" lon="23.492349"><ele>2783.8</ele><time>2026-03-15T09:58:36.000Z</time></trkpt>
<trkpt lat="41.725055" lon="23.492345"><ele>2783.8</ele><time>2026-03-15T09:58:37.000Z</time></trkpt>
<trkpt lat="41.725051" lon="23.492341"><ele>2783.8</ele><time>2026-03-15T09:58:38.000Z</time></trkpt>
<trkpt lat="41.725048" lon="23.492337"><ele>2783.8</ele><time>2026-03-15T09:58:39.000Z</time></trkpt>
<trkpt lat="41.725044" lon="23.492333"><ele>2783.8</ele><time>2026-03-15T09:58:40.000Z</time></trkpt>
<trkpt lat="41.725041" lon="23.492328"><ele>2783.2</ele><time>2026-03-15T09:58:41.000Z</time></trkpt>
<trkpt lat="41.725039" lon="23.492324"><ele>2783.2</ele><time>2026-03-15T09:58:42.000Z</time></trkpt>
<trkpt lat="41.725038" lon="23.49232"><ele>2783.2</ele><time>2026-03-15T09:58:43.000Z</time></trkpt>
<trkpt lat="41.725037" lon="23.492318"><ele>2783.2</ele><time>2026-03-15T09:58:44.000Z</time></trkpt>
<trkpt lat="41.725036" lon="23.492318"><ele>2783.2</ele><time>2026-03-15T09:58:45.000Z</time></trkpt>
<trkpt lat="41.725036" lon="23.492319"><ele>2782</ele><time>2026-03-15T09:58:46.000Z</time></trkpt>
<trkpt lat="41.725035" lon="23.492321"><ele>2782</ele><time>2026-03-15T09:58:47.000Z</time></trkpt>
<trkpt lat="41.725034" lon="23.492324"><ele>2782</ele><time>2026-03-15T09:58:48.000Z</time></trkpt>
<trkpt lat="41.725033" lon="23.492325"><ele>2782</ele><time>2026-03-15T09:58:49.000Z</time></trkpt>
<trkpt lat="41.725033" lon="23.492325"><ele>2782</ele><time>2026-03-15T09:58:50.000Z</time></trkpt>
<trkpt lat="41.725032" lon="23.492324"><ele>2781</ele><time>2026-03-15T09:58:51.000Z</time></trkpt>
<trkpt lat="41.725031" lon="23.492321"><ele>2781</ele><time>2026-03-15T09:58:52.000Z</time></trkpt>
<trkpt lat="41.725028" lon="23.492317"><ele>2781</ele><time>2026-03-15T09:58:53.000Z</time></trkpt>
<trkpt lat="41.725025" lon="23.492313"><ele>2781</ele><time>2026-03-15T09:58:54.000Z</time></trkpt>
<trkpt lat="41.72502" lon="23.492308"><ele>2781</ele><time>2026-03-15T09:58:55.000Z</time></trkpt>
<trkpt lat="41.725016" lon="23.492302"><ele>2780.5</ele><time>2026-03-15T09:58:56.000Z</time></trkpt>
<trkpt lat="41.725012" lon="23.492296"><ele>2780.5</ele><time>2026-03-15T09:58:57.000Z</time></trkpt>
<trkpt lat="41.725009" lon="23.492291"><ele>2780.5</ele><time>2026-03-15T09:58:58.000Z</time></trkpt>
<trkpt lat="41.725005" lon="23.492286"><ele>2780.5</ele><time>2026-03-15T09:58:59.000Z</time></trkpt>
<trkpt lat="41.725001" lon="23.492282"><ele>2780.5</ele><time>2026-03-15T09:59:00.000Z</time></trkpt>
<trkpt lat="41.724997" lon="23.492279"><ele>2779.9</ele><time>2026-03-15T09:59:01.000Z</time></trkpt>
<trkpt lat="41.724993" lon="23.492276"><ele>2779.9</ele><time>2026-03-15T09:59:02.000Z</time></trkpt>
<trkpt lat="41.724989" lon="23.492275"><ele>2779.9</ele><time>2026-03-15T09:59:03.000Z</time></trkpt>
<trkpt lat="41.724985" lon="23.492274"><ele>2779.9</ele><time>2026-03-15T09:59:04.000Z</time></trkpt>
<trkpt lat="41.724981" lon="23.492274"><ele>2779.9</ele><time>2026-03-15T09:59:05.000Z</time></trkpt>
<trkpt lat="41.724976" lon="23.492275"><ele>2779.1</ele><time>2026-03-15T09:59:06.000Z</time></trkpt>
<trkpt lat="41.724971" lon="23.492276"><ele>2779.1</ele><time>2026-03-15T09:59:07.000Z</time></trkpt>
<trkpt lat="41.724966" lon="23.492274"><ele>2779.1</ele><time>2026-03-15T09:59:08.000Z</time></trkpt>
<trkpt lat="41.724962" lon="23.492272"><ele>2779.1</ele><time>2026-03-15T09:59:09.000Z</time></trkpt>
<trkpt lat="41.72496" lon="23.492268"><ele>2779.1</ele><time>2026-03-15T09:59:10.000Z</time></trkpt>
<trkpt lat="41.72496" lon="23.492265"><ele>2778.4</ele><time>2026-03-15T09:59:11.000Z</time></trkpt>
<trkpt lat="41.72496" lon="23.492261"><ele>2778.4</ele><time>2026-03-15T09:59:12.000Z</time></trkpt>
<trkpt lat="41.724961" lon="23.492261"><ele>2778.4</ele><time>2026-03-15T09:59:13.000Z</time></trkpt>
<trkpt lat="41.724961" lon="23.492262"><ele>2778.4</ele><time>2026-03-15T09:59:14.000Z</time></trkpt>
<trkpt lat="41.724961" lon="23.492263"><ele>2778.4</ele><time>2026-03-15T09:59:15.000Z</time></trkpt>
<trkpt lat="41.724961" lon="23.492263"><ele>2776.9</ele><time>2026-03-15T09:59:16.000Z</time></trkpt>
<trkpt lat="41.724961" lon="23.492264"><ele>2776.9</ele><time>2026-03-15T09:59:17.000Z</time></trkpt>
<trkpt lat="41.724961" lon="23.492265"><ele>2776.9</ele><time>2026-03-15T09:59:18.000Z</time></trkpt>
<trkpt lat="41.724961" lon="23.492264"><ele>2776.9</ele><time>2026-03-15T09:59:19.000Z</time></trkpt>
<trkpt lat="41.724961" lon="23.492264"><ele>2776.9</ele><time>2026-03-15T09:59:20.000Z</time></trkpt>
<trkpt lat="41.724961" lon="23.492264"><ele>2775.7</ele><time>2026-03-15T09:59:21.000Z</time></trkpt>
<trkpt lat="41.724961" lon="23.492264"><ele>2775.7</ele><time>2026-03-15T09:59:22.000Z</time></trkpt>
<trkpt lat="41.724961" lon="23.492264"><ele>2775.7</ele><time>2026-03-15T09:59:23.000Z</time></trkpt>
<trkpt lat="41.724961" lon="23.492264"><ele>2775.7</ele><time>2026-03-15T09:59:24.000Z</time></trkpt>
<trkpt lat="41.724961" lon="23.492264"><ele>2775.7</ele><time>2026-03-15T09:59:25.000Z</time></trkpt>
<trkpt lat="41.724961" lon="23.492264"><ele>2775.3</ele><time>2026-03-15T09:59:26.000Z</time></trkpt>
<trkpt lat="41.724961" lon="23.492264"><ele>2775.3</ele><time>2026-03-15T09:59:27.000Z</time></trkpt>
<trkpt lat="41.72496" lon="23.492264"><ele>2775.3</ele><time>2026-03-15T09:59:28.000Z</time></trkpt>
<trkpt lat="41.724959" lon="23.492264"><ele>2775.3</ele><time>2026-03-15T09:59:29.000Z</time></trkpt>
<trkpt lat="41.724956" lon="23.492264"><ele>2775.3</ele><time>2026-03-15T09:59:30.000Z</time></trkpt>
<trkpt lat="41.724952" lon="23.492264"><ele>2775.1</ele><time>2026-03-15T09:59:31.000Z</time></trkpt>
<trkpt lat="41.724947" lon="23.492265"><ele>2775.1</ele><time>2026-03-15T09:59:32.000Z</time></trkpt>
<trkpt lat="41.724941" lon="23.492267"><ele>2775.1</ele><time>2026-03-15T09:59:33.000Z</time></trkpt>
<trkpt lat="41.724933" lon="23.49227"><ele>2775.1</ele><time>2026-03-15T09:59:34.000Z</time></trkpt>
<trkpt lat="41.724924" lon="23.492272"><ele>2775.1</ele><time>2026-03-15T09:59:35.000Z</time></trkpt>
<trkpt lat="41.724917" lon="23.492273"><ele>2774.9</ele><time>2026-03-15T09:59:36.000Z</time></trkpt>
<trkpt lat="41.72491" lon="23.492272"><ele>2774.9</ele><time>2026-03-15T09:59:37.000Z</time></trkpt>
<trkpt lat="41.724905" lon="23.492271"><ele>2774.9</ele><time>2026-03-15T09:59:38.000Z</time></trkpt>
<trkpt lat="41.724902" lon="23.492268"><ele>2774.9</ele><time>2026-03-15T09:59:39.000Z</time></trkpt>
<trkpt lat="41.7249" lon="23.492266"><ele>2774.9</ele><time>2026-03-15T09:59:40.000Z</time></trkpt>
<trkpt lat="41.7249" lon="23.492266"><ele>2774.8</ele><time>2026-03-15T09:59:41.000Z</time></trkpt>
<trkpt lat="41.724901" lon="23.492266"><ele>2774.8</ele><time>2026-03-15T09:59:42.000Z</time></trkpt>
<trkpt lat="41.724902" lon="23.492266"><ele>2774.8</ele><time>2026-03-15T09:59:43.000Z</time></trkpt>
<trkpt lat="41.724903" lon="23.492267"><ele>2774.8</ele><time>2026-03-15T09:59:44.000Z</time></trkpt>
<trkpt lat="41.724904" lon="23.492268"><ele>2774.8</ele><time>2026-03-15T09:59:45.000Z</time></trkpt>
<trkpt lat="41.724905" lon="23.492269"><ele>2773.9</ele><time>2026-03-15T09:59:46.000Z</time></trkpt>
<trkpt lat="41.724905" lon="23.49227"><ele>2773.9</ele><time>2026-03-15T09:59:47.000Z</time></trkpt>
<trkpt lat="41.724906" lon="23.492272"><ele>2773.9</ele><time>2026-03-15T09:59:48.000Z</time></trkpt>
<trkpt lat="41.724906" lon="23.492273"><ele>2773.9</ele><time>2026-03-15T09:59:49.000Z</time></trkpt>
<trkpt lat="41.724907" lon="23.492274"><ele>2773.9</ele><time>2026-03-15T09:59:50.000Z</time></trkpt>
<trkpt lat="41.724907" lon="23.492274"><ele>2773</ele><time>2026-03-15T09:59:51.000Z</time></trkpt>
<trkpt lat="41.724907" lon="23.492274"><ele>2773</ele><time>2026-03-15T09:59:52.000Z</time></trkpt>
<trkpt lat="41.724907" lon="23.492274"><ele>2773</ele><time>2026-03-15T09:59:53.000Z</time></trkpt>
<trkpt lat="41.724907" lon="23.492274"><ele>2773</ele><time>2026-03-15T09:59:54.000Z</time></trkpt>
<trkpt lat="41.724907" lon="23.492272"><ele>2773</ele><time>2026-03-15T09:59:55.000Z</time></trkpt>
<trkpt lat="41.724906" lon="23.492268"><ele>2772.7</ele><time>2026-03-15T09:59:56.000Z</time></trkpt>
<trkpt lat="41.724904" lon="23.492262"><ele>2772.7</ele><time>2026-03-15T09:59:57.000Z</time></trkpt>
<trkpt lat="41.724902" lon="23.492256"><ele>2772.7</ele><time>2026-03-15T09:59:58.000Z</time></trkpt>
<trkpt lat="41.724899" lon="23.492249"><ele>2772.7</ele><time>2026-03-15T09:59:59.000Z</time></trkpt>
<trkpt lat="41.724895" lon="23.492243"><ele>2772.7</ele><time>2026-03-15T10:00:00.000Z</time></trkpt>
<trkpt lat="41.72489" lon="23.492237"><ele>2772.6</ele><time>2026-03-15T10:00:01.000Z</time></trkpt>
<trkpt lat="41.724886" lon="23.492231"><ele>2772.6</ele><time>2026-03-15T10:00:02.000Z</time></trkpt>
<trkpt lat="41.724883" lon="23.492226"><ele>2772.6</ele><time>2026-03-15T10:00:03.000Z</time></trkpt>
<trkpt lat="41.724881" lon="23.492219"><ele>2772.6</ele><time>2026-03-15T10:00:04.000Z</time></trkpt>
<trkpt lat="41.72488" lon="23.492213"><ele>2772.6</ele><time>2026-03-15T10:00:05.000Z</time></trkpt>
<trkpt lat="41.72488" lon="23.49221"><ele>2772.3</ele><time>2026-03-15T10:00:06.000Z</time></trkpt>
<trkpt lat="41.72488" lon="23.492208"><ele>2772.3</ele><time>2026-03-15T10:00:07.000Z</time></trkpt>
<trkpt lat="41.72488" lon="23.492206"><ele>2772.3</ele><time>2026-03-15T10:00:08.000Z</time></trkpt>
<trkpt lat="41.724878" lon="23.492208"><ele>2772.3</ele><time>2026-03-15T10:00:09.000Z</time></trkpt>
<trkpt lat="41.724877" lon="23.492209"><ele>2772.3</ele><time>2026-03-15T10:00:10.000Z</time></trkpt>
<trkpt lat="41.724876" lon="23.49221"><ele>2772</ele><time>2026-03-15T10:00:11.000Z</time></trkpt>
<trkpt lat="41.724875" lon="23.492211"><ele>2772</ele><time>2026-03-15T10:00:12.000Z</time></trkpt>
<trkpt lat="41.724874" lon="23.492212"><ele>2772</ele><time>2026-03-15T10:00:13.000Z</time></trkpt>
<trkpt lat="41.724874" lon="23.492212"><ele>2772</ele><time>2026-03-15T10:00:14.000Z</time></trkpt>
<trkpt lat="41.724874" lon="23.492212"><ele>2772</ele><time>2026-03-15T10:00:15.000Z</time></trkpt>
<trkpt lat="41.724874" lon="23.492213"><ele>2771.4</ele><time>2026-03-15T10:00:16.000Z</time></trkpt>
<trkpt lat="41.724874" lon="23.492213"><ele>2771.4</ele><time>2026-03-15T10:00:17.000Z</time></trkpt>
<trkpt lat="41.724874" lon="23.492213"><ele>2771.4</ele><time>2026-03-15T10:00:18.000Z</time></trkpt>
<trkpt lat="41.724874" lon="23.492213"><ele>2771.4</ele><time>2026-03-15T10:00:19.000Z</time></trkpt>
<trkpt lat="41.724874" lon="23.492213"><ele>2771.4</ele><time>2026-03-15T10:00:20.000Z</time></trkpt>
<trkpt lat="41.724874" lon="23.492213"><ele>2770.9</ele><time>2026-03-15T10:00:21.000Z</time></trkpt>
<trkpt lat="41.724874" lon="23.492213"><ele>2770.9</ele><time>2026-03-15T10:00:22.000Z</time></trkpt>
<trkpt lat="41.724874" lon="23.492213"><ele>2770.9</ele><time>2026-03-15T10:00:23.000Z</time></trkpt>
<trkpt lat="41.724874" lon="23.492213"><ele>2770.9</ele><time>2026-03-15T10:00:24.000Z</time></trkpt>
<trkpt lat="41.724874" lon="23.492213"><ele>2770.9</ele><time>2026-03-15T10:00:25.000Z</time></trkpt>
<trkpt lat="41.724874" lon="23.492213"><ele>2770.8</ele><time>2026-03-15T10:00:26.000Z</time></trkpt>
<trkpt lat="41.724874" lon="23.492213"><ele>2770.8</ele><time>2026-03-15T10:00:27.000Z</time></trkpt>
<trkpt lat="41.724873" lon="23.492213"><ele>2770.8</ele><time>2026-03-15T10:00:28.000Z</time></trkpt>
<trkpt lat="41.724873" lon="23.492213"><ele>2770.8</ele><time>2026-03-15T10:00:29.000Z</time></trkpt>
<trkpt lat="41.72487" lon="23.492215"><ele>2770.8</ele><time>2026-03-15T10:00:30.000Z</time></trkpt>
<trkpt lat="41.724867" lon="23.492217"><ele>2770.7</ele><time>2026-03-15T10:00:31.000Z</time></trkpt>
<trkpt lat="41.724861" lon="23.49222"><ele>2770.7</ele><time>2026-03-15T10:00:32.000Z</time></trkpt>
<trkpt lat="41.724855" lon="23.49222"><ele>2770.7</ele><time>2026-03-15T10:00:33.000Z</time></trkpt>
<trkpt lat="41.724847" lon="23.492218"><ele>2770.7</ele><time>2026-03-15T10:00:34.000Z</time></trkpt>
<trkpt lat="41.724839" lon="23.492214"><ele>2770.7</ele><time>2026-03-15T10:00:35.000Z</time></trkpt>
<trkpt lat="41.724833" lon="23.492208"><ele>2770.5</ele><time>2026-03-15T10:00:36.000Z</time></trkpt>
<trkpt lat="41.724827" lon="23.4922"><ele>2770.5</ele><time>2026-03-15T10:00:37.000Z</time></trkpt>
<trkpt lat="41.724821" lon="23.492193"><ele>2770.5</ele><time>2026-03-15T10:00:38.000Z</time></trkpt>
<trkpt lat="41.724815" lon="23.492184"><ele>2770.5</ele><time>2026-03-15T10:00:39.000Z</time></trkpt>
<trkpt lat="41.724811" lon="23.492175"><ele>2770.5</ele><time>2026-03-15T10:00:40.000Z</time></trkpt>
<trkpt lat="41.724807" lon="23.492164"><ele>2770.3</ele><time>2026-03-15T10:00:41.000Z</time></trkpt>
<trkpt lat="41.724805" lon="23.492152"><ele>2770.3</ele><time>2026-03-15T10:00:42.000Z</time></trkpt>
<trkpt lat="41.724804" lon="23.492139"><ele>2770.3</ele><time>2026-03-15T10:00:43.000Z</time></trkpt>
<trkpt lat="41.724805" lon="23.492127"><ele>2770.3</ele><time>2026-03-15T10:00:44.000Z</time></trkpt>
<trkpt lat="41.724806" lon="23.492115"><ele>2770.3</ele><time>2026-03-15T10:00:45.000Z</time></trkpt>
<trkpt lat="41.724809" lon="23.492103"><ele>2769.4</ele><time>2026-03-15T10:00:46.000Z</time></trkpt>
<trkpt lat="41.724813" lon="23.492091"><ele>2769.4</ele><time>2026-03-15T10:00:47.000Z</time></trkpt>
<trkpt lat="41.724817" lon="23.492081"><ele>2769.4</ele><time>2026-03-15T10:00:48.000Z</time></trkpt>
<trkpt lat="41.724824" lon="23.492074"><ele>2769.4</ele><time>2026-03-15T10:00:49.000Z</time></trkpt>
<trkpt lat="41.724831" lon="23.492068"><ele>2769.4</ele><time>2026-03-15T10:00:50.000Z</time></trkpt>
<trkpt lat="41.724839" lon="23.492064"><ele>2767.9</ele><time>2026-03-15T10:00:51.000Z</time></trkpt>
<trkpt lat="41.724846" lon="23.492061"><ele>2767.9</ele><time>2026-03-15T10:00:52.000Z</time></trkpt>
<trkpt lat="41.724852" lon="23.492057"><ele>2767.9</ele><time>2026-03-15T10:00:53.000Z</time></trkpt>
<trkpt lat="41.724857" lon="23.492051"><ele>2767.9</ele><time>2026-03-15T10:00:54.000Z</time></trkpt>
<trkpt lat="41.72486" lon="23.492043"><ele>2767.9</ele><time>2026-03-15T10:00:55.000Z</time></trkpt>
<trkpt lat="41.724863" lon="23.492034"><ele>2767.1</ele><time>2026-03-15T10:00:56.000Z</time></trkpt>
<trkpt lat="41.724864" lon="23.492023"><ele>2767.1</ele><time>2026-03-15T10:00:57.000Z</time></trkpt>
<trkpt lat="41.724866" lon="23.492013"><ele>2767.1</ele><time>2026-03-15T10:00:58.000Z</time></trkpt>
<trkpt lat="41.724867" lon="23.492001"><ele>2767.1</ele><time>2026-03-15T10:00:59.000Z</time></trkpt>
<trkpt lat="41.724869" lon="23.491989"><ele>2767.1</ele><time>2026-03-15T10:01:00.000Z</time></trkpt>
<trkpt lat="41.72487" lon="23.491976"><ele>2765.6</ele><time>2026-03-15T10:01:01.000Z</time></trkpt>
<trkpt lat="41.724873" lon="23.491962"><ele>2765.6</ele><time>2026-03-15T10:01:02.000Z</time></trkpt>
<trkpt lat="41.724876" lon="23.491947"><ele>2765.6</ele><time>2026-03-15T10:01:03.000Z</time></trkpt>
<trkpt lat="41.724878" lon="23.491933"><ele>2765.6</ele><time>2026-03-15T10:01:04.000Z</time></trkpt>
<trkpt lat="41.724881" lon="23.491918"><ele>2765.6</ele><time>2026-03-15T10:01:05.000Z</time></trkpt>
<trkpt lat="41.724885" lon="23.491905"><ele>2764.2</ele><time>2026-03-15T10:01:06.000Z</time></trkpt>
<trkpt lat="41.724889" lon="23.491894"><ele>2764.2</ele><time>2026-03-15T10:01:07.000Z</time></trkpt>
<trkpt lat="41.724892" lon="23.491883"><ele>2764.2</ele><time>2026-03-15T10:01:08.000Z</time></trkpt>
<trkpt lat="41.724895" lon="23.491873"><ele>2764.2</ele><time>2026-03-15T10:01:09.000Z</time></trkpt>
<trkpt lat="41.724897" lon="23.491862"><ele>2764.2</ele><time>2026-03-15T10:01:10.000Z</time></trkpt>
<trkpt lat="41.724899" lon="23.491851"><ele>2763.5</ele><time>2026-03-15T10:01:11.000Z</time></trkpt>
<trkpt lat="41.724899" lon="23.49184"><ele>2763.5</ele><time>2026-03-15T10:01:12.000Z</time></trkpt>
<trkpt lat="41.724901" lon="23.491827"><ele>2763.5</ele><time>2026-03-15T10:01:13.000Z</time></trkpt>
<trkpt lat="41.724904" lon="23.491814"><ele>2763.5</ele><time>2026-03-15T10:01:14.000Z</time></trkpt>
<trkpt lat="41.724906" lon="23.491801"><ele>2763.5</ele><time>2026-03-15T10:01:15.000Z</time></trkpt>
<trkpt lat="41.724908" lon="23.491788"><ele>2761.8</ele><time>2026-03-15T10:01:16.000Z</time></trkpt>
<trkpt lat="41.724911" lon="23.491774"><ele>2761.8</ele><time>2026-03-15T10:01:17.000Z</time></trkpt>
<trkpt lat="41.724913" lon="23.491762"><ele>2761.8</ele><time>2026-03-15T10:01:18.000Z</time></trkpt>
<trkpt lat="41.724915" lon="23.491751"><ele>2761.8</ele><time>2026-03-15T10:01:19.000Z</time></trkpt>
<trkpt lat="41.724918" lon="23.49174"><ele>2761.8</ele><time>2026-03-15T10:01:20.000Z</time></trkpt>
<trkpt lat="41.724921" lon="23.491729"><ele>2759.7</ele><time>2026-03-15T10:01:21.000Z</time></trkpt>
<trkpt lat="41.724924" lon="23.491717"><ele>2759.7</ele><time>2026-03-15T10:01:22.000Z</time></trkpt>
<trkpt lat="41.724926" lon="23.491705"><ele>2759.7</ele><time>2026-03-15T10:01:23.000Z</time></trkpt>
<trkpt lat="41.724928" lon="23.491692"><ele>2759.7</ele><time>2026-03-15T10:01:24.000Z</time></trkpt>
<trkpt lat="41.72493" lon="23.49168"><ele>2759.7</ele><time>2026-03-15T10:01:25.000Z</time></trkpt>
<trkpt lat="41.724931" lon="23.491667"><ele>2758.5</ele><time>2026-03-15T10:01:26.000Z</time></trkpt>
<trkpt lat="41.724932" lon="23.491654"><ele>2758.5</ele><time>2026-03-15T10:01:27.000Z</time></trkpt>
<trkpt lat="41.724933" lon="23.491641"><ele>2758.5</ele><time>2026-03-15T10:01:28.000Z</time></trkpt>
<trkpt lat="41.724934" lon="23.491626"><ele>2758.5</ele><time>2026-03-15T10:01:29.000Z</time></trkpt>
<trkpt lat="41.724935" lon="23.491612"><ele>2758.5</ele><time>2026-03-15T10:01:30.000Z</time></trkpt>
<trkpt lat="41.724936" lon="23.491597"><ele>2756.2</ele><time>2026-03-15T10:01:31.000Z</time></trkpt>
<trkpt lat="41.724937" lon="23.491582"><ele>2756.2</ele><time>2026-03-15T10:01:32.000Z</time></trkpt>
<trkpt lat="41.724939" lon="23.491568"><ele>2756.2</ele><time>2026-03-15T10:01:33.000Z</time></trkpt>
<trkpt lat="41.724942" lon="23.491554"><ele>2756.2</ele><time>2026-03-15T10:01:34.000Z</time></trkpt>
<trkpt lat="41.724944" lon="23.49154"><ele>2756.2</ele><time>2026-03-15T10:01:35.000Z</time></trkpt>
<trkpt lat="41.724946" lon="23.491527"><ele>2754.1</ele><time>2026-03-15T10:01:36.000Z</time></trkpt>
<trkpt lat="41.724948" lon="23.491514"><ele>2754.1</ele><time>2026-03-15T10:01:37.000Z</time></trkpt>
<trkpt lat="41.724951" lon="23.4915"><ele>2754.1</ele><time>2026-03-15T10:01:38.000Z</time></trkpt>
<trkpt lat="41.724952" lon="23.491486"><ele>2754.1</ele><time>2026-03-15T10:01:39.000Z</time></trkpt>
<trkpt lat="41.724955" lon="23.491473"><ele>2754.1</ele><time>2026-03-15T10:01:40.000Z</time></trkpt>
<trkpt lat="41.724957" lon="23.491458"><ele>2753.1</ele><time>2026-03-15T10:01:41.000Z</time></trkpt>
<trkpt lat="41.724959" lon="23.491445"><ele>2753.1</ele><time>2026-03-15T10:01:42.000Z</time></trkpt>
<trkpt lat="41.72496" lon="23.491431"><ele>2753.1</ele><time>2026-03-15T10:01:43.000Z</time></trkpt>
<trkpt lat="41.724961" lon="23.491416"><ele>2753.1</ele><time>2026-03-15T10:01:44.000Z</time></trkpt>
<trkpt lat="41.724962" lon="23.491401"><ele>2753.1</ele><time>2026-03-15T10:01:45.000Z</time></trkpt>
<trkpt lat="41.724964" lon="23.491386"><ele>2751.1</ele><time>2026-03-15T10:01:46.000Z</time></trkpt>
<trkpt lat="41.724965" lon="23.491371"><ele>2751.1</ele><time>2026-03-15T10:01:47.000Z</time></trkpt>
<trkpt lat="41.724966" lon="23.491356"><ele>2751.1</ele><time>2026-03-15T10:01:48.000Z</time></trkpt>
<trkpt lat="41.724967" lon="23.491341"><ele>2751.1</ele><time>2026-03-15T10:01:49.000Z</time></trkpt>
<trkpt lat="41.724968" lon="23.491327"><ele>2751.1</ele><time>2026-03-15T10:01:50.000Z</time></trkpt>
<trkpt lat="41.724969" lon="23.491312"><ele>2749</ele><time>2026-03-15T10:01:51.000Z</time></trkpt>
<trkpt lat="41.72497" lon="23.491298"><ele>2749</ele><time>2026-03-15T10:01:52.000Z</time></trkpt>
<trkpt lat="41.724971" lon="23.491283"><ele>2749</ele><time>2026-03-15T10:01:53.000Z</time></trkpt>
<trkpt lat="41.724974" lon="23.49127"><ele>2749</ele><time>2026-03-15T10:01:54.000Z</time></trkpt>
<trkpt lat="41.724978" lon="23.491257"><ele>2749</ele><time>2026-03-15T10:01:55.000Z</time></trkpt>
<trkpt lat="41.724983" lon="23.491246"><ele>2748</ele><time>2026-03-15T10:01:56.000Z</time></trkpt>
<trkpt lat="41.724989" lon="23.491235"><ele>2748</ele><time>2026-03-15T10:01:57.000Z</time></trkpt>
<trkpt lat="41.724995" lon="23.491225"><ele>2748</ele><time>2026-03-15T10:01:58.000Z</time></trkpt>
<trkpt lat="41.725" lon="23.491215"><ele>2748</ele><time>2026-03-15T10:01:59.000Z</time></trkpt>
<trkpt lat="41.725005" lon="23.491205"><ele>2748</ele><time>2026-03-15T10:02:00.000Z</time></trkpt>
<trkpt lat="41.725009" lon="23.491194"><ele>2746.1</ele><time>2026-03-15T10:02:01.000Z</time></trkpt>
<trkpt lat="41.725011" lon="23.491183"><ele>2746.1</ele><time>2026-03-15T10:02:02.000Z</time></trkpt>
<trkpt lat="41.725012" lon="23.491172"><ele>2746.1</ele><time>2026-03-15T10:02:03.000Z</time></trkpt>
<trkpt lat="41.725013" lon="23.491161"><ele>2746.1</ele><time>2026-03-15T10:02:04.000Z</time></trkpt>
<trkpt lat="41.725013" lon="23.49115"><ele>2746.1</ele><time>2026-03-15T10:02:05.000Z</time></trkpt>
<trkpt lat="41.725013" lon="23.491138"><ele>2744.4</ele><time>2026-03-15T10:02:06.000Z</time></trkpt>
<trkpt lat="41.725013" lon="23.491126"><ele>2744.4</ele><time>2026-03-15T10:02:07.000Z</time></trkpt>
<trkpt lat="41.725014" lon="23.491114"><ele>2744.4</ele><time>2026-03-15T10:02:08.000Z</time></trkpt>
<trkpt lat="41.725015" lon="23.491103"><ele>2744.4</ele><time>2026-03-15T10:02:09.000Z</time></trkpt>
<trkpt lat="41.725015" lon="23.49109"><ele>2744.4</ele><time>2026-03-15T10:02:10.000Z</time></trkpt>
<trkpt lat="41.725016" lon="23.491077"><ele>2743.6</ele><time>2026-03-15T10:02:11.000Z</time></trkpt>
<trkpt lat="41.725017" lon="23.491063"><ele>2743.6</ele><time>2026-03-15T10:02:12.000Z</time></trkpt>
<trkpt lat="41.725017" lon="23.491049"><ele>2743.6</ele><time>2026-03-15T10:02:13.000Z</time></trkpt>
<trkpt lat="41.725018" lon="23.491034"><ele>2743.6</ele><time>2026-03-15T10:02:14.000Z</time></trkpt>
<trkpt lat="41.725019" lon="23.49102"><ele>2743.6</ele><time>2026-03-15T10:02:15.000Z</time></trkpt>
<trkpt lat="41.725019" lon="23.491006"><ele>2742.1</ele><time>2026-03-15T10:02:16.000Z</time></trkpt>
<trkpt lat="41.725021" lon="23.490993"><ele>2742.1</ele><time>2026-03-15T10:02:17.000Z</time></trkpt>
<trkpt lat="41.725023" lon="23.49098"><ele>2742.1</ele><time>2026-03-15T10:02:18.000Z</time></trkpt>
<trkpt lat="41.725026" lon="23.490967"><ele>2742.1</ele><time>2026-03-15T10:02:19.000Z</time></trkpt>
<trkpt lat="41.725029" lon="23.490955"><ele>2742.1</ele><time>2026-03-15T10:02:20.000Z</time></trkpt>
<trkpt lat="41.725031" lon="23.490942"><ele>2740.8</ele><time>2026-03-15T10:02:21.000Z</time></trkpt>
<trkpt lat="41.725035" lon="23.490929"><ele>2740.8</ele><time>2026-03-15T10:02:22.000Z</time></trkpt>
<trkpt lat="41.725039" lon="23.490917"><ele>2740.8</ele><time>2026-03-15T10:02:23.000Z</time></trkpt>
<trkpt lat="41.725042" lon="23.490904"><ele>2740.8</ele><time>2026-03-15T10:02:24.000Z</time></trkpt>
<trkpt lat="41.725047" lon="23.490892"><ele>2740.8</ele><time>2026-03-15T10:02:25.000Z</time></trkpt>
<trkpt lat="41.725051" lon="23.49088"><ele>2740.1</ele><time>2026-03-15T10:02:26.000Z</time></trkpt>
<trkpt lat="41.725056" lon="23.490868"><ele>2740.1</ele><time>2026-03-15T10:02:27.000Z</time></trkpt>
<trkpt lat="41.72506" lon="23.490857"><ele>2740.1</ele><time>2026-03-15T10:02:28.000Z</time></trkpt>
<trkpt lat="41.725065" lon="23.490845"><ele>2740.1</ele><time>2026-03-15T10:02:29.000Z</time></trkpt>
<trkpt lat="41.72507" lon="23.490833"><ele>2740.1</ele><time>2026-03-15T10:02:30.000Z</time></trkpt>
<trkpt lat="41.725074" lon="23.490821"><ele>2738.7</ele><time>2026-03-15T10:02:31.000Z</time></trkpt>
<trkpt lat="41.725079" lon="23.490808"><ele>2738.7</ele><time>2026-03-15T10:02:32.000Z</time></trkpt>
<trkpt lat="41.725084" lon="23.490795"><ele>2738.7</ele><time>2026-03-15T10:02:33.000Z</time></trkpt>
<trkpt lat="41.725088" lon="23.490784"><ele>2738.7</ele><time>2026-03-15T10:02:34.000Z</time></trkpt>
<trkpt lat="41.725094" lon="23.490773"><ele>2738.7</ele><time>2026-03-15T10:02:35.000Z</time></trkpt>
<trkpt lat="41.725099" lon="23.490762"><ele>2737.2</ele><time>2026-03-15T10:02:36.000Z</time></trkpt>
<trkpt lat="41.725106" lon="23.490753"><ele>2737.2</ele><time>2026-03-15T10:02:37.000Z</time></trkpt>
<trkpt lat="41.725112" lon="23.490744"><ele>2737.2</ele><time>2026-03-15T10:02:38.000Z</time></trkpt>
<trkpt lat="41.725118" lon="23.490735"><ele>2737.2</ele><time>2026-03-15T10:02:39.000Z</time></trkpt>
<trkpt lat="41.725125" lon="23.490727"><ele>2737.2</ele><time>2026-03-15T10:02:40.000Z</time></trkpt>
<trkpt lat="41.72513" lon="23.490719"><ele>2736.4</ele><time>2026-03-15T10:02:41.000Z</time></trkpt>
<trkpt lat="41.725137" lon="23.49071"><ele>2736.4</ele><time>2026-03-15T10:02:42.000Z</time></trkpt>
<trkpt lat="41.725143" lon="23.490702"><ele>2736.4</ele><time>2026-03-15T10:02:43.000Z</time></trkpt>
<trkpt lat="41.725149" lon="23.490694"><ele>2736.4</ele><time>2026-03-15T10:02:44.000Z</time></trkpt>
<trkpt lat="41.725154" lon="23.490685"><ele>2736.4</ele><time>2026-03-15T10:02:45.000Z</time></trkpt>
<trkpt lat="41.72516" lon="23.490676"><ele>2734.7</ele><time>2026-03-15T10:02:46.000Z</time></trkpt>
<trkpt lat="41.725164" lon="23.490667"><ele>2734.7</ele><time>2026-03-15T10:02:47.000Z</time></trkpt>
<trkpt lat="41.725169" lon="23.490657"><ele>2734.7</ele><time>2026-03-15T10:02:48.000Z</time></trkpt>
<trkpt lat="41.725173" lon="23.490646"><ele>2734.7</ele><time>2026-03-15T10:02:49.000Z</time></trkpt>
<trkpt lat="41.725178" lon="23.490636"><ele>2734.7</ele><time>2026-03-15T10:02:50.000Z</time></trkpt>
<trkpt lat="41.725183" lon="23.490625"><ele>2732.8</ele><time>2026-03-15T10:02:51.000Z</time></trkpt>
<trkpt lat="41.725187" lon="23.490615"><ele>2732.8</ele><time>2026-03-15T10:02:52.000Z</time></trkpt>
<trkpt lat="41.725192" lon="23.490606"><ele>2732.8</ele><time>2026-03-15T10:02:53.000Z</time></trkpt>
<trkpt lat="41.725198" lon="23.490598"><ele>2732.8</ele><time>2026-03-15T10:02:54.000Z</time></trkpt>
<trkpt lat="41.725202" lon="23.490591"><ele>2732.8</ele><time>2026-03-15T10:02:55.000Z</time></trkpt>
<trkpt lat="41.725207" lon="23.490584"><ele>2731.8</ele><time>2026-03-15T10:02:56.000Z</time></trkpt>
<trkpt lat="41.725212" lon="23.490576"><ele>2731.8</ele><time>2026-03-15T10:02:57.000Z</time></trkpt>
<trkpt lat="41.725215" lon="23.490568"><ele>2731.8</ele><time>2026-03-15T10:02:58.000Z</time></trkpt>
<trkpt lat="41.725218" lon="23.490558"><ele>2731.8</ele><time>2026-03-15T10:02:59.000Z</time></trkpt>
<trkpt lat="41.725222" lon="23.490549"><ele>2731.8</ele><time>2026-03-15T10:03:00.000Z</time></trkpt>
<trkpt lat="41.725225" lon="23.49054"><ele>2729.8</ele><time>2026-03-15T10:03:01.000Z</time></trkpt>
<trkpt lat="41.725227" lon="23.49053"><ele>2729.8</ele><time>2026-03-15T10:03:02.000Z</time></trkpt>
<trkpt lat="41.725229" lon="23.490521"><ele>2729.8</ele><time>2026-03-15T10:03:03.000Z</time></trkpt>
<trkpt lat="41.725232" lon="23.490512"><ele>2729.8</ele><time>2026-03-15T10:03:04.000Z</time></trkpt>
<trkpt lat="41.725235" lon="23.490502"><ele>2729.8</ele><time>2026-03-15T10:03:05.000Z</time></trkpt>
<trkpt lat="41.725239" lon="23.490494"><ele>2728.1</ele><time>2026-03-15T10:03:06.000Z</time></trkpt>
<trkpt lat="41.725244" lon="23.490486"><ele>2728.1</ele><time>2026-03-15T10:03:07.000Z</time></trkpt>
<trkpt lat="41.725248" lon="23.490478"><ele>2728.1</ele><time>2026-03-15T10:03:08.000Z</time></trkpt>
<trkpt lat="41.725253" lon="23.49047"><ele>2728.1</ele><time>2026-03-15T10:03:09.000Z</time></trkpt>
<trkpt lat="41.725257" lon="23.490461"><ele>2728.1</ele><time>2026-03-15T10:03:10.000Z</time></trkpt>
<trkpt lat="41.725261" lon="23.490452"><ele>2727.4</ele><time>2026-03-15T10:03:11.000Z</time></trkpt>
<trkpt lat="41.725266" lon="23.490443"><ele>2727.4</ele><time>2026-03-15T10:03:12.000Z</time></trkpt>
<trkpt lat="41.72527" lon="23.490433"><ele>2727.4</ele><time>2026-03-15T10:03:13.000Z</time></trkpt>
<trkpt lat="41.725275" lon="23.490424"><ele>2727.4</ele><time>2026-03-15T10:03:14.000Z</time></trkpt>
<trkpt lat="41.725279" lon="23.490416"><ele>2727.4</ele><time>2026-03-15T10:03:15.000Z</time></trkpt>
<trkpt lat="41.725284" lon="23.490408"><ele>2726.2</ele><time>2026-03-15T10:03:16.000Z</time></trkpt>
<trkpt lat="41.725289" lon="23.4904"><ele>2726.2</ele><time>2026-03-15T10:03:17.000Z</time></trkpt>
<trkpt lat="41.725294" lon="23.490393"><ele>2726.2</ele><time>2026-03-15T10:03:18.000Z</time></trkpt>
<trkpt lat="41.7253" lon="23.490384"><ele>2726.2</ele><time>2026-03-15T10:03:19.000Z</time></trkpt>
<trkpt lat="41.725305" lon="23.490375"><ele>2726.2</ele><time>2026-03-15T10:03:20.000Z</time></trkpt>
<trkpt lat="41.725311" lon="23.490367"><ele>2724.6</ele><time>2026-03-15T10:03:21.000Z</time></trkpt>
<trkpt lat="41.725316" lon="23.49036"><ele>2724.6</ele><time>2026-03-15T10:03:22.000Z</time></trkpt>
<trkpt lat="41.725322" lon="23.490353"><ele>2724.6</ele><time>2026-03-15T10:03:23.000Z</time></trkpt>
<trkpt lat="41.725328" lon="23.490346"><ele>2724.6</ele><time>2026-03-15T10:03:24.000Z</time></trkpt>
<trkpt lat="41.725333" lon="23.49034"><ele>2724.6</ele><time>2026-03-15T10:03:25.000Z</time></trkpt>
<trkpt lat="41.725337" lon="23.490333"><ele>2723.7</ele><time>2026-03-15T10:03:26.000Z</time></trkpt>
<trkpt lat="41.725342" lon="23.490325"><ele>2723.7</ele><time>2026-03-15T10:03:27.000Z</time></trkpt>
<trkpt lat="41.725347" lon="23.490316"><ele>2723.7</ele><time>2026-03-15T10:03:28.000Z</time></trkpt>
<trkpt lat="41.725351" lon="23.490308"><ele>2723.7</ele><time>2026-03-15T10:03:29.000Z</time></trkpt>
<trkpt lat="41.725356" lon="23.490299"><ele>2723.7</ele><time>2026-03-15T10:03:30.000Z</time></trkpt>
<trkpt lat="41.72536" lon="23.490289"><ele>2722</ele><time>2026-03-15T10:03:31.000Z</time></trkpt>
<trkpt lat="41.725364" lon="23.490279"><ele>2722</ele><time>2026-03-15T10:03:32.000Z</time></trkpt>
<trkpt lat="41.725366" lon="23.490267"><ele>2722</ele><time>2026-03-15T10:03:33.000Z</time></trkpt>
<trkpt lat="41.725369" lon="23.490256"><ele>2722</ele><time>2026-03-15T10:03:34.000Z</time></trkpt>
<trkpt lat="41.725373" lon="23.490246"><ele>2722</ele><time>2026-03-15T10:03:35.000Z</time></trkpt>
<trkpt lat="41.725377" lon="23.490237"><ele>2720.2</ele><time>2026-03-15T10:03:36.000Z</time></trkpt>
<trkpt lat="41.725381" lon="23.490229"><ele>2720.2</ele><time>2026-03-15T10:03:37.000Z</time></trkpt>
<trkpt lat="41.725386" lon="23.490221"><ele>2720.2</ele><time>2026-03-15T10:03:38.000Z</time></trkpt>
<trkpt lat="41.725391" lon="23.490212"><ele>2720.2</ele><time>2026-03-15T10:03:39.000Z</time></trkpt>
<trkpt lat="41.725395" lon="23.490201"><ele>2720.2</ele><time>2026-03-15T10:03:40.000Z</time></trkpt>
<trkpt lat="41.7254" lon="23.49019"><ele>2719.3</ele><time>2026-03-15T10:03:41.000Z</time></trkpt>
<trkpt lat="41.725405" lon="23.490177"><ele>2719.3</ele><time>2026-03-15T10:03:42.000Z</time></trkpt>
<trkpt lat="41.725411" lon="23.490165"><ele>2719.3</ele><time>2026-03-15T10:03:43.000Z</time></trkpt>
<trkpt lat="41.725417" lon="23.490154"><ele>2719.3</ele><time>2026-03-15T10:03:44.000Z</time></trkpt>
<trkpt lat="41.725423" lon="23.490144"><ele>2719.3</ele><time>2026-03-15T10:03:45.000Z</time></trkpt>
<trkpt lat="41.72543" lon="23.490134"><ele>2717.4</ele><time>2026-03-15T10:03:46.000Z</time></trkpt>
<trkpt lat="41.725436" lon="23.490124"><ele>2717.4</ele><time>2026-03-15T10:03:47.000Z</time></trkpt>
<trkpt lat="41.725443" lon="23.490113"><ele>2717.4</ele><time>2026-03-15T10:03:48.000Z</time></trkpt>
<trkpt lat="41.72545" lon="23.490103"><ele>2717.4</ele><time>2026-03-15T10:03:49.000Z</time></trkpt>
<trkpt lat="41.725456" lon="23.490092"><ele>2717.4</ele><time>2026-03-15T10:03:50.000Z</time></trkpt>
<trkpt lat="41.725463" lon="23.490082"><ele>2715.4</ele><time>2026-03-15T10:03:51.000Z</time></trkpt>
<trkpt lat="41.72547" lon="23.490071"><ele>2715.4</ele><time>2026-03-15T10:03:52.000Z</time></trkpt>
<trkpt lat="41.725477" lon="23.490061"><ele>2715.4</ele><time>2026-03-15T10:03:53.000Z</time></trkpt>
<trkpt lat="41.725484" lon="23.49005"><ele>2715.4</ele><time>2026-03-15T10:03:54.000Z</time></trkpt>
<trkpt lat="41.725491" lon="23.49004"><ele>2715.4</ele><time>2026-03-15T10:03:55.000Z</time></trkpt>
<trkpt lat="41.725497" lon="23.490029"><ele>2714.3</ele><time>2026-03-15T10:03:56.000Z</time></trkpt>
<trkpt lat="41.725504" lon="23.490019"><ele>2714.3</ele><time>2026-03-15T10:03:57.000Z</time></trkpt>
<trkpt lat="41.725511" lon="23.490009"><ele>2714.3</ele><time>2026-03-15T10:03:58.000Z</time></trkpt>
<trkpt lat="41.725518" lon="23.489999"><ele>2714.3</ele><time>2026-03-15T10:03:59.000Z</time></trkpt>
<trkpt lat="41.725524" lon="23.48999"><ele>2714.3</ele><time>2026-03-15T10:04:00.000Z</time></trkpt>
<trkpt lat="41.725529" lon="23.489981"><ele>2712</ele><time>2026-03-15T10:04:01.000Z</time></trkpt>
<trkpt lat="41.725535" lon="23.489973"><ele>2712</ele><time>2026-03-15T10:04:02.000Z</time></trkpt>
<trkpt lat="41.725539" lon="23.489965"><ele>2712</ele><time>2026-03-15T10:04:03.000Z</time></trkpt>
<trkpt lat="41.725543" lon="23.489957"><ele>2712</ele><time>2026-03-15T10:04:04.000Z</time></trkpt>
<trkpt lat="41.725547" lon="23.489949"><ele>2712</ele><time>2026-03-15T10:04:05.000Z</time></trkpt>
<trkpt lat="41.725551" lon="23.489941"><ele>2709.7</ele><time>2026-03-15T10:04:06.000Z</time></trkpt>
<trkpt lat="41.725555" lon="23.489932"><ele>2709.7</ele><time>2026-03-15T10:04:07.000Z</time></trkpt>
<trkpt lat="41.725558" lon="23.489923"><ele>2709.7</ele><time>2026-03-15T10:04:08.000Z</time></trkpt>
<trkpt lat="41.725563" lon="23.489913"><ele>2709.7</ele><time>2026-03-15T10:04:09.000Z</time></trkpt>
<trkpt lat="41.725568" lon="23.489903"><ele>2709.7</ele><time>2026-03-15T10:04:10.000Z</time></trkpt>
<trkpt lat="41.725573" lon="23.489894"><ele>2708.6</ele><time>2026-03-15T10:04:11.000Z</time></trkpt>
<trkpt lat="41.72558" lon="23.489883"><ele>2708.6</ele><time>2026-03-15T10:04:12.000Z</time></trkpt>
<trkpt lat="41.725585" lon="23.489875"><ele>2708.6</ele><time>2026-03-15T10:04:13.000Z</time></trkpt>
<trkpt lat="41.725591" lon="23.489867"><ele>2708.6</ele><time>2026-03-15T10:04:14.000Z</time></trkpt>
<trkpt lat="41.725596" lon="23.489858"><ele>2708.6</ele><time>2026-03-15T10:04:15.000Z</time></trkpt>
<trkpt lat="41.725601" lon="23.489849"><ele>2706.6</ele><time>2026-03-15T10:04:16.000Z</time></trkpt>
<trkpt lat="41.725605" lon="23.489841"><ele>2706.6</ele><time>2026-03-15T10:04:17.000Z</time></trkpt>
<trkpt lat="41.725609" lon="23.489831"><ele>2706.6</ele><time>2026-03-15T10:04:18.000Z</time></trkpt>
<trkpt lat="41.725613" lon="23.489822"><ele>2706.6</ele><time>2026-03-15T10:04:19.000Z</time></trkpt>
<trkpt lat="41.725616" lon="23.489812"><ele>2706.6</ele><time>2026-03-15T10:04:20.000Z</time></trkpt>
<trkpt lat="41.72562" lon="23.489802"><ele>2704.8</ele><time>2026-03-15T10:04:21.000Z</time></trkpt>
<trkpt lat="41.725624" lon="23.48979"><ele>2704.8</ele><time>2026-03-15T10:04:22.000Z</time></trkpt>
<trkpt lat="41.725628" lon="23.489779"><ele>2704.8</ele><time>2026-03-15T10:04:23.000Z</time></trkpt>
<trkpt lat="41.725631" lon="23.489768"><ele>2704.8</ele><time>2026-03-15T10:04:24.000Z</time></trkpt>
<trkpt lat="41.725635" lon="23.489757"><ele>2704.8</ele><time>2026-03-15T10:04:25.000Z</time></trkpt>
<trkpt lat="41.725638" lon="23.489746"><ele>2703.9</ele><time>2026-03-15T10:04:26.000Z</time></trkpt>
<trkpt lat="41.725641" lon="23.489735"><ele>2703.9</ele><time>2026-03-15T10:04:27.000Z</time></trkpt>
<trkpt lat="41.725645" lon="23.489726"><ele>2703.9</ele><time>2026-03-15T10:04:28.000Z</time></trkpt>
<trkpt lat="41.72565" lon="23.489716"><ele>2703.9</ele><time>2026-03-15T10:04:29.000Z</time></trkpt>
<trkpt lat="41.725655" lon="23.489708"><ele>2703.9</ele><time>2026-03-15T10:04:30.000Z</time></trkpt>
<trkpt lat="41.725659" lon="23.489699"><ele>2702</ele><time>2026-03-15T10:04:31.000Z</time></trkpt>
<trkpt lat="41.725663" lon="23.48969"><ele>2702</ele><time>2026-03-15T10:04:32.000Z</time></trkpt>
<trkpt lat="41.725667" lon="23.48968"><ele>2702</ele><time>2026-03-15T10:04:33.000Z</time></trkpt>
<trkpt lat="41.725671" lon="23.48967"><ele>2702</ele><time>2026-03-15T10:04:34.000Z</time></trkpt>
<trkpt lat="41.725675" lon="23.489661"><ele>2702</ele><time>2026-03-15T10:04:35.000Z</time></trkpt>
<trkpt lat="41.725679" lon="23.489651"><ele>2700</ele><time>2026-03-15T10:04:36.000Z</time></trkpt>
<trkpt lat="41.725683" lon="23.489641"><ele>2700</ele><time>2026-03-15T10:04:37.000Z</time></trkpt>
<trkpt lat="41.725687" lon="23.489631"><ele>2700</ele><time>2026-03-15T10:04:38.000Z</time></trkpt>
<trkpt lat="41.725691" lon="23.48962"><ele>2700</ele><time>2026-03-15T10:04:39.000Z</time></trkpt>
<trkpt lat="41.725696" lon="23.489609"><ele>2700</ele><time>2026-03-15T10:04:40.000Z</time></trkpt>
<trkpt lat="41.725701" lon="23.489598"><ele>2699</ele><time>2026-03-15T10:04:41.000Z</time></trkpt>
<trkpt lat="41.725706" lon="23.489587"><ele>2699</ele><time>2026-03-15T10:04:42.000Z</time></trkpt>
<trkpt lat="41.725712" lon="23.489577"><ele>2699</ele><time>2026-03-15T10:04:43.000Z</time></trkpt>
<trkpt lat="41.725717" lon="23.489566"><ele>2699</ele><time>2026-03-15T10:04:44.000Z</time></trkpt>
<trkpt lat="41.725721" lon="23.489556"><ele>2699</ele><time>2026-03-15T10:04:45.000Z</time></trkpt>
<trkpt lat="41.725725" lon="23.489547"><ele>2697</ele><time>2026-03-15T10:04:46.000Z</time></trkpt>
<trkpt lat="41.72573" lon="23.489538"><ele>2697</ele><time>2026-03-15T10:04:47.000Z</time></trkpt>
<trkpt lat="41.725734" lon="23.489528"><ele>2697</ele><time>2026-03-15T10:04:48.000Z</time></trkpt>
<trkpt lat="41.725738" lon="23.489518"><ele>2697</ele><time>2026-03-15T10:04:49.000Z</time></trkpt>
<trkpt lat="41.725744" lon="23.489508"><ele>2697</ele><time>2026-03-15T10:04:50.000Z</time></trkpt>
<trkpt lat="41.725751" lon="23.489497"><ele>2695</ele><time>2026-03-15T10:04:51.000Z</time></trkpt>
<trkpt lat="41.725757" lon="23.489487"><ele>2695</ele><time>2026-03-15T10:04:52.000Z</time></trkpt>
<trkpt lat="41.725763" lon="23.489478"><ele>2695</ele><time>2026-03-15T10:04:53.000Z</time></trkpt>
<trkpt lat="41.72577" lon="23.489469"><ele>2695</ele><time>2026-03-15T10:04:54.000Z</time></trkpt>
<trkpt lat="41.725774" lon="23.48946"><ele>2695</ele><time>2026-03-15T10:04:55.000Z</time></trkpt>
<trkpt lat="41.725778" lon="23.489451"><ele>2694.2</ele><time>2026-03-15T10:04:56.000Z</time></trkpt>
<trkpt lat="41.725782" lon="23.489442"><ele>2694.2</ele><time>2026-03-15T10:04:57.000Z</time></trkpt>
<trkpt lat="41.725786" lon="23.489433"><ele>2694.2</ele><time>2026-03-15T10:04:58.000Z</time></trkpt>
<trkpt lat="41.725789" lon="23.489423"><ele>2694.2</ele><time>2026-03-15T10:04:59.000Z</time></trkpt>
<trkpt lat="41.725793" lon="23.489413"><ele>2694.2</ele><time>2026-03-15T10:05:00.000Z</time></trkpt>
<trkpt lat="41.725797" lon="23.489404"><ele>2692.6</ele><time>2026-03-15T10:05:01.000Z</time></trkpt>
<trkpt lat="41.725802" lon="23.489394"><ele>2692.6</ele><time>2026-03-15T10:05:02.000Z</time></trkpt>
<trkpt lat="41.725806" lon="23.489384"><ele>2692.6</ele><time>2026-03-15T10:05:03.000Z</time></trkpt>
<trkpt lat="41.725811" lon="23.489375"><ele>2692.6</ele><time>2026-03-15T10:05:04.000Z</time></trkpt>
<trkpt lat="41.725816" lon="23.489365"><ele>2692.6</ele><time>2026-03-15T10:05:05.000Z</time></trkpt>
<trkpt lat="41.725821" lon="23.489355"><ele>2691.1</ele><time>2026-03-15T10:05:06.000Z</time></trkpt>
<trkpt lat="41.725824" lon="23.489345"><ele>2691.1</ele><time>2026-03-15T10:05:07.000Z</time></trkpt>
<trkpt lat="41.725828" lon="23.489335"><ele>2691.1</ele><time>2026-03-15T10:05:08.000Z</time></trkpt>
<trkpt lat="41.725831" lon="23.489327"><ele>2691.1</ele><time>2026-03-15T10:05:09.000Z</time></trkpt>
<trkpt lat="41.725834" lon="23.48932"><ele>2691.1</ele><time>2026-03-15T10:05:10.000Z</time></trkpt>
<trkpt lat="41.725835" lon="23.489315"><ele>2690.3</ele><time>2026-03-15T10:05:11.000Z</time></trkpt>
<trkpt lat="41.725837" lon="23.489311"><ele>2690.3</ele><time>2026-03-15T10:05:12.000Z</time></trkpt>
<trkpt lat="41.725838" lon="23.489305"><ele>2690.3</ele><time>2026-03-15T10:05:13.000Z</time></trkpt>
<trkpt lat="41.725839" lon="23.489298"><ele>2690.3</ele><time>2026-03-15T10:05:14.000Z</time></trkpt>
<trkpt lat="41.72584" lon="23.489289"><ele>2690.3</ele><time>2026-03-15T10:05:15.000Z</time></trkpt>
<trkpt lat="41.725842" lon="23.489277"><ele>2689</ele><time>2026-03-15T10:05:16.000Z</time></trkpt>
<trkpt lat="41.725845" lon="23.489266"><ele>2689</ele><time>2026-03-15T10:05:17.000Z</time></trkpt>
<trkpt lat="41.725847" lon="23.489255"><ele>2689</ele><time>2026-03-15T10:05:18.000Z</time></trkpt>
<trkpt lat="41.72585" lon="23.489245"><ele>2689</ele><time>2026-03-15T10:05:19.000Z</time></trkpt>
<trkpt lat="41.725855" lon="23.489235"><ele>2689</ele><time>2026-03-15T10:05:20.000Z</time></trkpt>
<trkpt lat="41.725858" lon="23.489225"><ele>2688.2</ele><time>2026-03-15T10:05:21.000Z</time></trkpt>
<trkpt lat="41.725862" lon="23.489217"><ele>2688.2</ele><time>2026-03-15T10:05:22.000Z</time></trkpt>
<trkpt lat="41.725865" lon="23.489209"><ele>2688.2</ele><time>2026-03-15T10:05:23.000Z</time></trkpt>
<trkpt lat="41.725869" lon="23.4892"><ele>2688.2</ele><time>2026-03-15T10:05:24.000Z</time></trkpt>
<trkpt lat="41.725871" lon="23.489192"><ele>2688.2</ele><time>2026-03-15T10:05:25.000Z</time></trkpt>
<trkpt lat="41.725874" lon="23.489183"><ele>2687.9</ele><time>2026-03-15T10:05:26.000Z</time></trkpt>
<trkpt lat="41.725877" lon="23.489173"><ele>2687.9</ele><time>2026-03-15T10:05:27.000Z</time></trkpt>
<trkpt lat="41.725881" lon="23.489163"><ele>2687.9</ele><time>2026-03-15T10:05:28.000Z</time></trkpt>
<trkpt lat="41.725885" lon="23.489154"><ele>2687.9</ele><time>2026-03-15T10:05:29.000Z</time></trkpt>
<trkpt lat="41.725889" lon="23.489145"><ele>2687.9</ele><time>2026-03-15T10:05:30.000Z</time></trkpt>
<trkpt lat="41.725894" lon="23.489136"><ele>2687.4</ele><time>2026-03-15T10:05:31.000Z</time></trkpt>
<trkpt lat="41.725898" lon="23.489127"><ele>2687.4</ele><time>2026-03-15T10:05:32.000Z</time></trkpt>
<trkpt lat="41.725902" lon="23.489118"><ele>2687.4</ele><time>2026-03-15T10:05:33.000Z</time></trkpt>
<trkpt lat="41.725907" lon="23.489107"><ele>2687.4</ele><time>2026-03-15T10:05:34.000Z</time></trkpt>
<trkpt lat="41.725911" lon="23.489098"><ele>2687.4</ele><time>2026-03-15T10:05:35.000Z</time></trkpt>
<trkpt lat="41.725916" lon="23.48909"><ele>2686.7</ele><time>2026-03-15T10:05:36.000Z</time></trkpt>
<trkpt lat="41.72592" lon="23.489083"><ele>2686.7</ele><time>2026-03-15T10:05:37.000Z</time></trkpt>
<trkpt lat="41.725925" lon="23.489076"><ele>2686.7</ele><time>2026-03-15T10:05:38.000Z</time></trkpt>
<trkpt lat="41.725929" lon="23.48907"><ele>2686.7</ele><time>2026-03-15T10:05:39.000Z</time></trkpt>
<trkpt lat="41.725933" lon="23.489062"><ele>2686.7</ele><time>2026-03-15T10:05:40.000Z</time></trkpt>
<trkpt lat="41.725936" lon="23.489054"><ele>2686.2</ele><time>2026-03-15T10:05:41.000Z</time></trkpt>
<trkpt lat="41.72594" lon="23.489045"><ele>2686.2</ele><time>2026-03-15T10:05:42.000Z</time></trkpt>
<trkpt lat="41.725943" lon="23.489037"><ele>2686.2</ele><time>2026-03-15T10:05:43.000Z</time></trkpt>
<trkpt lat="41.725947" lon="23.489028"><ele>2686.2</ele><time>2026-03-15T10:05:44.000Z</time></trkpt>
<trkpt lat="41.725951" lon="23.489019"><ele>2686.2</ele><time>2026-03-15T10:05:45.000Z</time></trkpt>
<trkpt lat="41.725955" lon="23.489011"><ele>2685.3</ele><time>2026-03-15T10:05:46.000Z</time></trkpt>
<trkpt lat="41.725959" lon="23.489004"><ele>2685.3</ele><time>2026-03-15T10:05:47.000Z</time></trkpt>
<trkpt lat="41.725961" lon="23.488997"><ele>2685.3</ele><time>2026-03-15T10:05:48.000Z</time></trkpt>
<trkpt lat="41.725963" lon="23.488993"><ele>2685.3</ele><time>2026-03-15T10:05:49.000Z</time></trkpt>
<trkpt lat="41.725964" lon="23.488987"><ele>2685.3</ele><time>2026-03-15T10:05:50.000Z</time></trkpt>
<trkpt lat="41.725964" lon="23.488981"><ele>2684.4</ele><time>2026-03-15T10:05:51.000Z</time></trkpt>
<trkpt lat="41.725965" lon="23.488975"><ele>2684.4</ele><time>2026-03-15T10:05:52.000Z</time></trkpt>
<trkpt lat="41.725966" lon="23.488967"><ele>2684.4</ele><time>2026-03-15T10:05:53.000Z</time></trkpt>
<trkpt lat="41.725969" lon="23.488958"><ele>2684.4</ele><time>2026-03-15T10:05:54.000Z</time></trkpt>
<trkpt lat="41.725971" lon="23.488949"><ele>2684.4</ele><time>2026-03-15T10:05:55.000Z</time></trkpt>
<trkpt lat="41.725974" lon="23.488941"><ele>2684</ele><time>2026-03-15T10:05:56.000Z</time></trkpt>
<trkpt lat="41.725977" lon="23.488931"><ele>2684</ele><time>2026-03-15T10:05:57.000Z</time></trkpt>
<trkpt lat="41.725981" lon="23.48892"><ele>2684</ele><time>2026-03-15T10:05:58.000Z</time></trkpt>
<trkpt lat="41.725983" lon="23.488908"><ele>2684</ele><time>2026-03-15T10:05:59.000Z</time></trkpt>
<trkpt lat="41.725985" lon="23.488897"><ele>2684</ele><time>2026-03-15T10:06:00.000Z</time></trkpt>
<trkpt lat="41.725986" lon="23.488885"><ele>2683.4</ele><time>2026-03-15T10:06:01.000Z</time></trkpt>
<trkpt lat="41.725988" lon="23.488872"><ele>2683.4</ele><time>2026-03-15T10:06:02.000Z</time></trkpt>
<trkpt lat="41.725988" lon="23.488861"><ele>2683.4</ele><time>2026-03-15T10:06:03.000Z</time></trkpt>
<trkpt lat="41.725988" lon="23.48885"><ele>2683.4</ele><time>2026-03-15T10:06:04.000Z</time></trkpt>
<trkpt lat="41.725989" lon="23.488838"><ele>2683.4</ele><time>2026-03-15T10:06:05.000Z</time></trkpt>
<trkpt lat="41.72599" lon="23.488826"><ele>2682.8</ele><time>2026-03-15T10:06:06.000Z</time></trkpt>
<trkpt lat="41.725991" lon="23.488814"><ele>2682.8</ele><time>2026-03-15T10:06:07.000Z</time></trkpt>
<trkpt lat="41.725992" lon="23.488802"><ele>2682.8</ele><time>2026-03-15T10:06:08.000Z</time></trkpt>
<trkpt lat="41.725993" lon="23.488789"><ele>2682.8</ele><time>2026-03-15T10:06:09.000Z</time></trkpt>
<trkpt lat="41.725993" lon="23.488776"><ele>2682.8</ele><time>2026-03-15T10:06:10.000Z</time></trkpt>
<trkpt lat="41.725993" lon="23.488764"><ele>2682.5</ele><time>2026-03-15T10:06:11.000Z</time></trkpt>
<trkpt lat="41.725993" lon="23.488752"><ele>2682.5</ele><time>2026-03-15T10:06:12.000Z</time></trkpt>
<trkpt lat="41.725993" lon="23.48874"><ele>2682.5</ele><time>2026-03-15T10:06:13.000Z</time></trkpt>
<trkpt lat="41.725993" lon="23.488728"><ele>2682.5</ele><time>2026-03-15T10:06:14.000Z</time></trkpt>
<trkpt lat="41.725994" lon="23.488716"><ele>2682.5</ele><time>2026-03-15T10:06:15.000Z</time></trkpt>
<trkpt lat="41.725994" lon="23.488704"><ele>2682</ele><time>2026-03-15T10:06:16.000Z</time></trkpt>
<trkpt lat="41.725995" lon="23.488692"><ele>2682</ele><time>2026-03-15T10:06:17.000Z</time></trkpt>
<trkpt lat="41.725995" lon="23.48868"><ele>2682</ele><time>2026-03-15T10:06:18.000Z</time></trkpt>
<trkpt lat="41.725994" lon="23.488669"><ele>2682</ele><time>2026-03-15T10:06:19.000Z</time></trkpt>
<trkpt lat="41.725993" lon="23.488657"><ele>2682</ele><time>2026-03-15T10:06:20.000Z</time></trkpt>
<trkpt lat="41.725993" lon="23.488646"><ele>2681.3</ele><time>2026-03-15T10:06:21.000Z</time></trkpt>
<trkpt lat="41.725993" lon="23.488633"><ele>2681.3</ele><time>2026-03-15T10:06:22.000Z</time></trkpt>
<trkpt lat="41.725993" lon="23.488622"><ele>2681.3</ele><time>2026-03-15T10:06:23.000Z</time></trkpt>
<trkpt lat="41.725994" lon="23.48861"><ele>2681.3</ele><time>2026-03-15T10:06:24.000Z</time></trkpt>
<trkpt lat="41.725994" lon="23.488598"><ele>2681.3</ele><time>2026-03-15T10:06:25.000Z</time></trkpt>
<trkpt lat="41.725995" lon="23.488586"><ele>2681</ele><time>2026-03-15T10:06:26.000Z</time></trkpt>
<trkpt lat="41.725997" lon="23.488575"><ele>2681</ele><time>2026-03-15T10:06:27.000Z</time></trkpt>
<trkpt lat="41.725998" lon="23.488562"><ele>2681</ele><time>2026-03-15T10:06:28.000Z</time></trkpt>
<trkpt lat="41.725999" lon="23.488551"><ele>2681</ele><time>2026-03-15T10:06:29.000Z</time></trkpt>
<trkpt lat="41.725999" lon="23.488539"><ele>2681</ele><time>2026-03-15T10:06:30.000Z</time></trkpt>
<trkpt lat="41.725999" lon="23.488526"><ele>2680.4</ele><time>2026-03-15T10:06:31.000Z</time></trkpt>
<trkpt lat="41.726" lon="23.488513"><ele>2680.4</ele><time>2026-03-15T10:06:32.000Z</time></trkpt>
<trkpt lat="41.726" lon="23.4885"><ele>2680.4</ele><time>2026-03-15T10:06:33.000Z</time></trkpt>
<trkpt lat="41.726001" lon="23.488488"><ele>2680.4</ele><time>2026-03-15T10:06:34.000Z</time></trkpt>
<trkpt lat="41.726002" lon="23.488476"><ele>2680.4</ele><time>2026-03-15T10:06:35.000Z</time></trkpt>
<trkpt lat="41.726002" lon="23.488464"><ele>2679.8</ele><time>2026-03-15T10:06:36.000Z</time></trkpt>
<trkpt lat="41.726003" lon="23.488452"><ele>2679.8</ele><time>2026-03-15T10:06:37.000Z</time></trkpt>
<trkpt lat="41.726004" lon="23.48844"><ele>2679.8</ele><time>2026-03-15T10:06:38.000Z</time></trkpt>
<trkpt lat="41.726005" lon="23.488428"><ele>2679.8</ele><time>2026-03-15T10:06:39.000Z</time></trkpt>
<trkpt lat="41.726006" lon="23.488415"><ele>2679.8</ele><time>2026-03-15T10:06:40.000Z</time></trkpt>
<trkpt lat="41.726007" lon="23.488402"><ele>2679.5</ele><time>2026-03-15T10:06:41.000Z</time></trkpt>
<trkpt lat="41.726008" lon="23.488389"><ele>2679.5</ele><time>2026-03-15T10:06:42.000Z</time></trkpt>
<trkpt lat="41.726009" lon="23.488376"><ele>2679.5</ele><time>2026-03-15T10:06:43.000Z</time></trkpt>
<trkpt lat="41.726009" lon="23.488363"><ele>2679.5</ele><time>2026-03-15T10:06:44.000Z</time></trkpt>
<trkpt lat="41.726009" lon="23.488349"><ele>2679.5</ele><time>2026-03-15T10:06:45.000Z</time></trkpt>
<trkpt lat="41.72601" lon="23.488336"><ele>2679.1</ele><time>2026-03-15T10:06:46.000Z</time></trkpt>
<trkpt lat="41.726012" lon="23.488324"><ele>2679.1</ele><time>2026-03-15T10:06:47.000Z</time></trkpt>
<trkpt lat="41.726014" lon="23.488311"><ele>2679.1</ele><time>2026-03-15T10:06:48.000Z</time></trkpt>
<trkpt lat="41.726017" lon="23.4883"><ele>2679.1</ele><time>2026-03-15T10:06:49.000Z</time></trkpt>
<trkpt lat="41.726021" lon="23.488289"><ele>2679.1</ele><time>2026-03-15T10:06:50.000Z</time></trkpt>
<trkpt lat="41.726025" lon="23.488278"><ele>2678.8</ele><time>2026-03-15T10:06:51.000Z</time></trkpt>
<trkpt lat="41.726028" lon="23.488268"><ele>2678.8</ele><time>2026-03-15T10:06:52.000Z</time></trkpt>
<trkpt lat="41.72603" lon="23.488258"><ele>2678.8</ele><time>2026-03-15T10:06:53.000Z</time></trkpt>
<trkpt lat="41.726032" lon="23.488246"><ele>2678.8</ele><time>2026-03-15T10:06:54.000Z</time></trkpt>
<trkpt lat="41.726032" lon="23.488233"><ele>2678.8</ele><time>2026-03-15T10:06:55.000Z</time></trkpt>
<trkpt lat="41.726032" lon="23.48822"><ele>2678.6</ele><time>2026-03-15T10:06:56.000Z</time></trkpt>
<trkpt lat="41.726032" lon="23.488207"><ele>2678.6</ele><time>2026-03-15T10:06:57.000Z</time></trkpt>
<trkpt lat="41.726031" lon="23.488194"><ele>2678.6</ele><time>2026-03-15T10:06:58.000Z</time></trkpt>
<trkpt lat="41.726031" lon="23.488182"><ele>2678.6</ele><time>2026-03-15T10:06:59.000Z</time></trkpt>
<trkpt lat="41.726031" lon="23.48817"><ele>2678.6</ele><time>2026-03-15T10:07:00.000Z</time></trkpt>
<trkpt lat="41.726032" lon="23.488159"><ele>2678.3</ele><time>2026-03-15T10:07:01.000Z</time></trkpt>
<trkpt lat="41.726032" lon="23.488148"><ele>2678.3</ele><time>2026-03-15T10:07:02.000Z</time></trkpt>
<trkpt lat="41.726033" lon="23.488136"><ele>2678.3</ele><time>2026-03-15T10:07:03.000Z</time></trkpt>
<trkpt lat="41.726034" lon="23.488124"><ele>2678.3</ele><time>2026-03-15T10:07:04.000Z</time></trkpt>
<trkpt lat="41.726035" lon="23.488113"><ele>2678.3</ele><time>2026-03-15T10:07:05.000Z</time></trkpt>
<trkpt lat="41.726036" lon="23.488101"><ele>2678</ele><time>2026-03-15T10:07:06.000Z</time></trkpt>
<trkpt lat="41.726039" lon="23.488088"><ele>2678</ele><time>2026-03-15T10:07:07.000Z</time></trkpt>
<trkpt lat="41.726042" lon="23.488076"><ele>2678</ele><time>2026-03-15T10:07:08.000Z</time></trkpt>
<trkpt lat="41.726045" lon="23.488065"><ele>2678</ele><time>2026-03-15T10:07:09.000Z</time></trkpt>
<trkpt lat="41.726048" lon="23.488054"><ele>2678</ele><time>2026-03-15T10:07:10.000Z</time></trkpt>
<trkpt lat="41.726051" lon="23.488044"><ele>2677.8</ele><time>2026-03-15T10:07:11.000Z</time></trkpt>
<trkpt lat="41.726053" lon="23.488035"><ele>2677.8</ele><time>2026-03-15T10:07:12.000Z</time></trkpt>
<trkpt lat="41.726054" lon="23.488025"><ele>2677.8</ele><time>2026-03-15T10:07:13.000Z</time></trkpt>
<trkpt lat="41.726055" lon="23.488014"><ele>2677.8</ele><time>2026-03-15T10:07:14.000Z</time></trkpt>
<trkpt lat="41.726056" lon="23.488003"><ele>2677.8</ele><time>2026-03-15T10:07:15.000Z</time></trkpt>
<trkpt lat="41.726057" lon="23.487992"><ele>2677.5</ele><time>2026-03-15T10:07:16.000Z</time></trkpt>
<trkpt lat="41.726057" lon="23.487982"><ele>2677.5</ele><time>2026-03-15T10:07:17.000Z</time></trkpt>
<trkpt lat="41.726057" lon="23.487972"><ele>2677.5</ele><time>2026-03-15T10:07:18.000Z</time></trkpt>
<trkpt lat="41.726058" lon="23.487961"><ele>2677.5</ele><time>2026-03-15T10:07:19.000Z</time></trkpt>
<trkpt lat="41.726058" lon="23.487951"><ele>2677.5</ele><time>2026-03-15T10:07:20.000Z</time></trkpt>
<trkpt lat="41.726059" lon="23.487941"><ele>2677.2</ele><time>2026-03-15T10:07:21.000Z</time></trkpt>
<trkpt lat="41.72606" lon="23.487931"><ele>2677.2</ele><time>2026-03-15T10:07:22.000Z</time></trkpt>
<trkpt lat="41.726062" lon="23.487921"><ele>2677.2</ele><time>2026-03-15T10:07:23.000Z</time></trkpt>
<trkpt lat="41.726063" lon="23.48791"><ele>2677.2</ele><time>2026-03-15T10:07:24.000Z</time></trkpt>
<trkpt lat="41.726063" lon="23.4879"><ele>2677.2</ele><time>2026-03-15T10:07:25.000Z</time></trkpt>
<trkpt lat="41.726064" lon="23.48789"><ele>2677.1</ele><time>2026-03-15T10:07:26.000Z</time></trkpt>
<trkpt lat="41.726065" lon="23.487879"><ele>2677.1</ele><time>2026-03-15T10:07:27.000Z</time></trkpt>
<trkpt lat="41.726065" lon="23.487868"><ele>2677.1</ele><time>2026-03-15T10:07:28.000Z</time></trkpt>
<trkpt lat="41.726065" lon="23.487857"><ele>2677.1</ele><time>2026-03-15T10:07:29.000Z</time></trkpt>
<trkpt lat="41.726066" lon="23.487847"><ele>2677.1</ele><time>2026-03-15T10:07:30.000Z</time></trkpt>
<trkpt lat="41.726067" lon="23.487836"><ele>2676.8</ele><time>2026-03-15T10:07:31.000Z</time></trkpt>
<trkpt lat="41.726067" lon="23.487825"><ele>2676.8</ele><time>2026-03-15T10:07:32.000Z</time></trkpt>
<trkpt lat="41.726068" lon="23.487815"><ele>2676.8</ele><time>2026-03-15T10:07:33.000Z</time></trkpt>
<trkpt lat="41.726068" lon="23.487804"><ele>2676.8</ele><time>2026-03-15T10:07:34.000Z</time></trkpt>
<trkpt lat="41.726069" lon="23.487794"><ele>2676.8</ele><time>2026-03-15T10:07:35.000Z</time></trkpt>
<trkpt lat="41.72607" lon="23.487783"><ele>2676.8</ele><time>2026-03-15T10:07:36.000Z</time></trkpt>
<trkpt lat="41.726071" lon="23.487771"><ele>2676.8</ele><time>2026-03-15T10:07:37.000Z</time></trkpt>
<trkpt lat="41.726073" lon="23.487759"><ele>2676.8</ele><time>2026-03-15T10:07:38.000Z</time></trkpt>
<trkpt lat="41.726075" lon="23.487747"><ele>2676.8</ele><time>2026-03-15T10:07:39.000Z</time></trkpt>
<trkpt lat="41.726076" lon="23.487734"><ele>2676.8</ele><time>2026-03-15T10:07:40.000Z</time></trkpt>
<trkpt lat="41.726078" lon="23.487722"><ele>2676.8</ele><time>2026-03-15T10:07:41.000Z</time></trkpt>
<trkpt lat="41.72608" lon="23.487711"><ele>2676.8</ele><time>2026-03-15T10:07:42.000Z</time></trkpt>
<trkpt lat="41.726081" lon="23.487701"><ele>2676.8</ele><time>2026-03-15T10:07:43.000Z</time></trkpt>
<trkpt lat="41.726082" lon="23.487691"><ele>2676.8</ele><time>2026-03-15T10:07:44.000Z</time></trkpt>
<trkpt lat="41.726084" lon="23.48768"><ele>2676.8</ele><time>2026-03-15T10:07:45.000Z</time></trkpt>
<trkpt lat="41.726085" lon="23.487669"><ele>2676.9</ele><time>2026-03-15T10:07:46.000Z</time></trkpt>
<trkpt lat="41.726087" lon="23.487659"><ele>2676.9</ele><time>2026-03-15T10:07:47.000Z</time></trkpt>
<trkpt lat="41.726089" lon="23.487649"><ele>2676.9</ele><time>2026-03-15T10:07:48.000Z</time></trkpt>
<trkpt lat="41.726091" lon="23.487637"><ele>2676.9</ele><time>2026-03-15T10:07:49.000Z</time></trkpt>
<trkpt lat="41.726093" lon="23.487626"><ele>2676.9</ele><time>2026-03-15T10:07:50.000Z</time></trkpt>
<trkpt lat="41.726094" lon="23.487614"><ele>2676.9</ele><time>2026-03-15T10:07:51.000Z</time></trkpt>
<trkpt lat="41.726096" lon="23.487602"><ele>2676.9</ele><time>2026-03-15T10:07:52.000Z</time></trkpt>
<trkpt lat="41.726097" lon="23.487588"><ele>2676.9</ele><time>2026-03-15T10:07:53.000Z</time></trkpt>
<trkpt lat="41.726098" lon="23.487575"><ele>2676.9</ele><time>2026-03-15T10:07:54.000Z</time></trkpt>
<trkpt lat="41.726099" lon="23.487562"><ele>2676.9</ele><time>2026-03-15T10:07:55.000Z</time></trkpt>
<trkpt lat="41.7261" lon="23.487549"><ele>2676.8</ele><time>2026-03-15T10:07:56.000Z</time></trkpt>
<trkpt lat="41.726101" lon="23.487538"><ele>2676.8</ele><time>2026-03-15T10:07:57.000Z</time></trkpt>
<trkpt lat="41.726101" lon="23.487527"><ele>2676.8</ele><time>2026-03-15T10:07:58.000Z</time></trkpt>
<trkpt lat="41.726102" lon="23.487517"><ele>2676.8</ele><time>2026-03-15T10:07:59.000Z</time></trkpt>
<trkpt lat="41.726102" lon="23.487506"><ele>2676.8</ele><time>2026-03-15T10:08:00.000Z</time></trkpt>
<trkpt lat="41.726102" lon="23.487496"><ele>2676.7</ele><time>2026-03-15T10:08:01.000Z</time></trkpt>
<trkpt lat="41.726103" lon="23.487485"><ele>2676.7</ele><time>2026-03-15T10:08:02.000Z</time></trkpt>
<trkpt lat="41.726105" lon="23.487474"><ele>2676.7</ele><time>2026-03-15T10:08:03.000Z</time></trkpt>
<trkpt lat="41.726107" lon="23.487463"><ele>2676.7</ele><time>2026-03-15T10:08:04.000Z</time></trkpt>
<trkpt lat="41.726109" lon="23.487452"><ele>2676.7</ele><time>2026-03-15T10:08:05.000Z</time></trkpt>
<trkpt lat="41.726111" lon="23.487441"><ele>2676.7</ele><time>2026-03-15T10:08:06.000Z</time></trkpt>
<trkpt lat="41.726114" lon="23.487429"><ele>2676.7</ele><time>2026-03-15T10:08:07.000Z</time></trkpt>
<trkpt lat="41.726116" lon="23.487418"><ele>2676.7</ele><time>2026-03-15T10:08:08.000Z</time></trkpt>
<trkpt lat="41.726117" lon="23.487407"><ele>2676.7</ele><time>2026-03-15T10:08:09.000Z</time></trkpt>
<trkpt lat="41.72612" lon="23.487396"><ele>2676.7</ele><time>2026-03-15T10:08:10.000Z</time></trkpt>
<trkpt lat="41.726122" lon="23.487385"><ele>2676.7</ele><time>2026-03-15T10:08:11.000Z</time></trkpt>
<trkpt lat="41.726125" lon="23.487373"><ele>2676.7</ele><time>2026-03-15T10:08:12.000Z</time></trkpt>
<trkpt lat="41.726128" lon="23.487362"><ele>2676.7</ele><time>2026-03-15T10:08:13.000Z</time></trkpt>
<trkpt lat="41.72613" lon="23.487351"><ele>2676.7</ele><time>2026-03-15T10:08:14.000Z</time></trkpt>
<trkpt lat="41.726133" lon="23.487341"><ele>2676.7</ele><time>2026-03-15T10:08:15.000Z</time></trkpt>
<trkpt lat="41.726135" lon="23.487331"><ele>2676.6</ele><time>2026-03-15T10:08:16.000Z</time></trkpt>
<trkpt lat="41.726137" lon="23.487321"><ele>2676.6</ele><time>2026-03-15T10:08:17.000Z</time></trkpt>
<trkpt lat="41.726139" lon="23.487311"><ele>2676.6</ele><time>2026-03-15T10:08:18.000Z</time></trkpt>
<trkpt lat="41.726141" lon="23.487302"><ele>2676.6</ele><time>2026-03-15T10:08:19.000Z</time></trkpt>
<trkpt lat="41.726143" lon="23.487292"><ele>2676.6</ele><time>2026-03-15T10:08:20.000Z</time></trkpt>
<trkpt lat="41.726146" lon="23.487283"><ele>2676.7</ele><time>2026-03-15T10:08:21.000Z</time></trkpt>
<trkpt lat="41.726148" lon="23.487274"><ele>2676.7</ele><time>2026-03-15T10:08:22.000Z</time></trkpt>
<trkpt lat="41.72615" lon="23.487265"><ele>2676.7</ele><time>2026-03-15T10:08:23.000Z</time></trkpt>
<trkpt lat="41.726152" lon="23.487254"><ele>2676.7</ele><time>2026-03-15T10:08:24.000Z</time></trkpt>
<trkpt lat="41.726154" lon="23.487243"><ele>2676.7</ele><time>2026-03-15T10:08:25.000Z</time></trkpt>
<trkpt lat="41.726155" lon="23.487232"><ele>2676.7</ele><time>2026-03-15T10:08:26.000Z</time></trkpt>
<trkpt lat="41.726157" lon="23.487221"><ele>2676.7</ele><time>2026-03-15T10:08:27.000Z</time></trkpt>
<trkpt lat="41.726158" lon="23.487209"><ele>2676.7</ele><time>2026-03-15T10:08:28.000Z</time></trkpt>
<trkpt lat="41.72616" lon="23.487198"><ele>2676.7</ele><time>2026-03-15T10:08:29.000Z</time></trkpt>
<trkpt lat="41.726162" lon="23.487187"><ele>2676.7</ele><time>2026-03-15T10:08:30.000Z</time></trkpt>
<trkpt lat="41.726163" lon="23.487177"><ele>2676.8</ele><time>2026-03-15T10:08:31.000Z</time></trkpt>
<trkpt lat="41.726165" lon="23.487166"><ele>2676.8</ele><time>2026-03-15T10:08:32.000Z</time></trkpt>
<trkpt lat="41.726167" lon="23.487155"><ele>2676.8</ele><time>2026-03-15T10:08:33.000Z</time></trkpt>
<trkpt lat="41.726169" lon="23.487144"><ele>2676.8</ele><time>2026-03-15T10:08:34.000Z</time></trkpt>
<trkpt lat="41.726171" lon="23.487133"><ele>2676.8</ele><time>2026-03-15T10:08:35.000Z</time></trkpt>
<trkpt lat="41.726173" lon="23.487121"><ele>2676.8</ele><time>2026-03-15T10:08:36.000Z</time></trkpt>
<trkpt lat="41.726175" lon="23.487108"><ele>2676.8</ele><time>2026-03-15T10:08:37.000Z</time></trkpt>
<trkpt lat="41.726178" lon="23.487096"><ele>2676.8</ele><time>2026-03-15T10:08:38.000Z</time></trkpt>
<trkpt lat="41.726181" lon="23.487083"><ele>2676.8</ele><time>2026-03-15T10:08:39.000Z</time></trkpt>
<trkpt lat="41.726184" lon="23.487071"><ele>2676.8</ele><time>2026-03-15T10:08:40.000Z</time></trkpt>
<trkpt lat="41.726187" lon="23.487059"><ele>2676.8</ele><time>2026-03-15T10:08:41.000Z</time></trkpt>
<trkpt lat="41.72619" lon="23.487048"><ele>2676.8</ele><time>2026-03-15T10:08:42.000Z</time></trkpt>
<trkpt lat="41.726193" lon="23.487039"><ele>2676.8</ele><time>2026-03-15T10:08:43.000Z</time></trkpt>
<trkpt lat="41.726195" lon="23.487029"><ele>2676.8</ele><time>2026-03-15T10:08:44.000Z</time></trkpt>
<trkpt lat="41.726198" lon="23.48702"><ele>2676.8</ele><time>2026-03-15T10:08:45.000Z</time></trkpt>
<trkpt lat="41.726201" lon="23.48701"><ele>2676.8</ele><time>2026-03-15T10:08:46.000Z</time></trkpt>
<trkpt lat="41.726203" lon="23.487001"><ele>2676.8</ele><time>2026-03-15T10:08:47.000Z</time></trkpt>
<trkpt lat="41.726206" lon="23.486991"><ele>2676.8</ele><time>2026-03-15T10:08:48.000Z</time></trkpt>
<trkpt lat="41.726208" lon="23.48698"><ele>2676.8</ele><time>2026-03-15T10:08:49.000Z</time></trkpt>
<trkpt lat="41.72621" lon="23.48697"><ele>2676.8</ele><time>2026-03-15T10:08:50.000Z</time></trkpt>
<trkpt lat="41.726211" lon="23.486959"><ele>2676.8</ele><time>2026-03-15T10:08:51.000Z</time></trkpt>
<trkpt lat="41.726211" lon="23.486948"><ele>2676.8</ele><time>2026-03-15T10:08:52.000Z</time></trkpt>
<trkpt lat="41.726212" lon="23.486936"><ele>2676.8</ele><time>2026-03-15T10:08:53.000Z</time></trkpt>
<trkpt lat="41.726212" lon="23.486924"><ele>2676.8</ele><time>2026-03-15T10:08:54.000Z</time></trkpt>
<trkpt lat="41.726213" lon="23.486911"><ele>2676.8</ele><time>2026-03-15T10:08:55.000Z</time></trkpt>
<trkpt lat="41.726215" lon="23.486899"><ele>2676.7</ele><time>2026-03-15T10:08:56.000Z</time></trkpt>
<trkpt lat="41.726216" lon="23.486888"><ele>2676.7</ele><time>2026-03-15T10:08:57.000Z</time></trkpt>
<trkpt lat="41.726217" lon="23.486875"><ele>2676.7</ele><time>2026-03-15T10:08:58.000Z</time></trkpt>
<trkpt lat="41.72622" lon="23.486863"><ele>2676.7</ele><time>2026-03-15T10:08:59.000Z</time></trkpt>
<trkpt lat="41.726221" lon="23.486852"><ele>2676.7</ele><time>2026-03-15T10:09:00.000Z</time></trkpt>
<trkpt lat="41.726223" lon="23.48684"><ele>2676.7</ele><time>2026-03-15T10:09:01.000Z</time></trkpt>
<trkpt lat="41.726225" lon="23.486829"><ele>2676.7</ele><time>2026-03-15T10:09:02.000Z</time></trkpt>
<trkpt lat="41.726227" lon="23.486817"><ele>2676.7</ele><time>2026-03-15T10:09:03.000Z</time></trkpt>
<trkpt lat="41.726228" lon="23.486805"><ele>2676.7</ele><time>2026-03-15T10:09:04.000Z</time></trkpt>
<trkpt lat="41.72623" lon="23.486793"><ele>2676.7</ele><time>2026-03-15T10:09:05.000Z</time></trkpt>
<trkpt lat="41.726232" lon="23.486781"><ele>2676.6</ele><time>2026-03-15T10:09:06.000Z</time></trkpt>
<trkpt lat="41.726233" lon="23.486769"><ele>2676.6</ele><time>2026-03-15T10:09:07.000Z</time></trkpt>
<trkpt lat="41.726235" lon="23.486757"><ele>2676.6</ele><time>2026-03-15T10:09:08.000Z</time></trkpt>
<trkpt lat="41.726236" lon="23.486745"><ele>2676.6</ele><time>2026-03-15T10:09:09.000Z</time></trkpt>
<trkpt lat="41.726237" lon="23.486732"><ele>2676.6</ele><time>2026-03-15T10:09:10.000Z</time></trkpt>
<trkpt lat="41.726238" lon="23.48672"><ele>2676.6</ele><time>2026-03-15T10:09:11.000Z</time></trkpt>
<trkpt lat="41.726238" lon="23.486708"><ele>2676.6</ele><time>2026-03-15T10:09:12.000Z</time></trkpt>
<trkpt lat="41.726239" lon="23.486696"><ele>2676.6</ele><time>2026-03-15T10:09:13.000Z</time></trkpt>
<trkpt lat="41.72624" lon="23.486685"><ele>2676.6</ele><time>2026-03-15T10:09:14.000Z</time></trkpt>
<trkpt lat="41.726241" lon="23.486674"><ele>2676.6</ele><time>2026-03-15T10:09:15.000Z</time></trkpt>
<trkpt lat="41.726241" lon="23.486663"><ele>2676.6</ele><time>2026-03-15T10:09:16.000Z</time></trkpt>
<trkpt lat="41.726243" lon="23.486653"><ele>2676.6</ele><time>2026-03-15T10:09:17.000Z</time></trkpt>
<trkpt lat="41.726244" lon="23.486643"><ele>2676.6</ele><time>2026-03-15T10:09:18.000Z</time></trkpt>
<trkpt lat="41.726245" lon="23.486632"><ele>2676.6</ele><time>2026-03-15T10:09:19.000Z</time></trkpt>
<trkpt lat="41.726247" lon="23.486623"><ele>2676.6</ele><time>2026-03-15T10:09:20.000Z</time></trkpt>
<trkpt lat="41.726249" lon="23.486613"><ele>2676.6</ele><time>2026-03-15T10:09:21.000Z</time></trkpt>
<trkpt lat="41.726251" lon="23.486603"><ele>2676.6</ele><time>2026-03-15T10:09:22.000Z</time></trkpt>
<trkpt lat="41.726253" lon="23.486593"><ele>2676.6</ele><time>2026-03-15T10:09:23.000Z</time></trkpt>
<trkpt lat="41.726255" lon="23.486582"><ele>2676.6</ele><time>2026-03-15T10:09:24.000Z</time></trkpt>
<trkpt lat="41.726257" lon="23.48657"><ele>2676.6</ele><time>2026-03-15T10:09:25.000Z</time></trkpt>
<trkpt lat="41.726258" lon="23.486557"><ele>2676.6</ele><time>2026-03-15T10:09:26.000Z</time></trkpt>
<trkpt lat="41.726258" lon="23.486546"><ele>2676.6</ele><time>2026-03-15T10:09:27.000Z</time></trkpt>
<trkpt lat="41.726257" lon="23.486534"><ele>2676.6</ele><time>2026-03-15T10:09:28.000Z</time></trkpt>
<trkpt lat="41.726256" lon="23.486522"><ele>2676.6</ele><time>2026-03-15T10:09:29.000Z</time></trkpt>
<trkpt lat="41.726255" lon="23.48651"><ele>2676.6</ele><time>2026-03-15T10:09:30.000Z</time></trkpt>
<trkpt lat="41.726255" lon="23.486498"><ele>2676.5</ele><time>2026-03-15T10:09:31.000Z</time></trkpt>
<trkpt lat="41.726256" lon="23.486484"><ele>2676.5</ele><time>2026-03-15T10:09:32.000Z</time></trkpt>
<trkpt lat="41.726258" lon="23.486472"><ele>2676.5</ele><time>2026-03-15T10:09:33.000Z</time></trkpt>
<trkpt lat="41.726259" lon="23.486458"><ele>2676.5</ele><time>2026-03-15T10:09:34.000Z</time></trkpt>
<trkpt lat="41.72626" lon="23.486444"><ele>2676.5</ele><time>2026-03-15T10:09:35.000Z</time></trkpt>
<trkpt lat="41.726261" lon="23.486431"><ele>2676.4</ele><time>2026-03-15T10:09:36.000Z</time></trkpt>
<trkpt lat="41.726262" lon="23.486417"><ele>2676.4</ele><time>2026-03-15T10:09:37.000Z</time></trkpt>
<trkpt lat="41.726263" lon="23.486404"><ele>2676.4</ele><time>2026-03-15T10:09:38.000Z</time></trkpt>
<trkpt lat="41.726264" lon="23.486391"><ele>2676.4</ele><time>2026-03-15T10:09:39.000Z</time></trkpt>
<trkpt lat="41.726264" lon="23.486379"><ele>2676.4</ele><time>2026-03-15T10:09:40.000Z</time></trkpt>
<trkpt lat="41.726266" lon="23.486365"><ele>2676.3</ele><time>2026-03-15T10:09:41.000Z</time></trkpt>
<trkpt lat="41.726267" lon="23.486351"><ele>2676.3</ele><time>2026-03-15T10:09:42.000Z</time></trkpt>
<trkpt lat="41.726269" lon="23.486336"><ele>2676.3</ele><time>2026-03-15T10:09:43.000Z</time></trkpt>
<trkpt lat="41.726272" lon="23.48632"><ele>2676.3</ele><time>2026-03-15T10:09:44.000Z</time></trkpt>
<trkpt lat="41.726275" lon="23.486305"><ele>2676.3</ele><time>2026-03-15T10:09:45.000Z</time></trkpt>
<trkpt lat="41.726278" lon="23.486291"><ele>2676</ele><time>2026-03-15T10:09:46.000Z</time></trkpt>
<trkpt lat="41.726282" lon="23.486277"><ele>2676</ele><time>2026-03-15T10:09:47.000Z</time></trkpt>
<trkpt lat="41.726285" lon="23.486263"><ele>2676</ele><time>2026-03-15T10:09:48.000Z</time></trkpt>
<trkpt lat="41.726288" lon="23.48625"><ele>2676</ele><time>2026-03-15T10:09:49.000Z</time></trkpt>
<trkpt lat="41.72629" lon="23.486236"><ele>2676</ele><time>2026-03-15T10:09:50.000Z</time></trkpt>
<trkpt lat="41.726293" lon="23.486223"><ele>2675.7</ele><time>2026-03-15T10:09:51.000Z</time></trkpt>
<trkpt lat="41.726296" lon="23.486211"><ele>2675.7</ele><time>2026-03-15T10:09:52.000Z</time></trkpt>
<trkpt lat="41.7263" lon="23.4862"><ele>2675.7</ele><time>2026-03-15T10:09:53.000Z</time></trkpt>
<trkpt lat="41.726303" lon="23.486188"><ele>2675.7</ele><time>2026-03-15T10:09:54.000Z</time></trkpt>
<trkpt lat="41.726307" lon="23.486176"><ele>2675.7</ele><time>2026-03-15T10:09:55.000Z</time></trkpt>
<trkpt lat="41.726311" lon="23.486164"><ele>2675.5</ele><time>2026-03-15T10:09:56.000Z</time></trkpt>
<trkpt lat="41.726316" lon="23.486151"><ele>2675.5</ele><time>2026-03-15T10:09:57.000Z</time></trkpt>
<trkpt lat="41.72632" lon="23.486139"><ele>2675.5</ele><time>2026-03-15T10:09:58.000Z</time></trkpt>
<trkpt lat="41.726325" lon="23.486127"><ele>2675.5</ele><time>2026-03-15T10:09:59.000Z</time></trkpt>
<trkpt lat="41.726329" lon="23.486116"><ele>2675.5</ele><time>2026-03-15T10:10:00.000Z</time></trkpt>
<trkpt lat="41.726334" lon="23.486105"><ele>2675.4</ele><time>2026-03-15T10:10:01.000Z</time></trkpt>
<trkpt lat="41.726338" lon="23.486094"><ele>2675.4</ele><time>2026-03-15T10:10:02.000Z</time></trkpt>
<trkpt lat="41.726344" lon="23.486084"><ele>2675.4</ele><time>2026-03-15T10:10:03.000Z</time></trkpt>
<trkpt lat="41.726349" lon="23.486074"><ele>2675.4</ele><time>2026-03-15T10:10:04.000Z</time></trkpt>
<trkpt lat="41.726354" lon="23.486063"><ele>2675.4</ele><time>2026-03-15T10:10:05.000Z</time></trkpt>
<trkpt lat="41.72636" lon="23.486054"><ele>2675.2</ele><time>2026-03-15T10:10:06.000Z</time></trkpt>
<trkpt lat="41.726365" lon="23.486044"><ele>2675.2</ele><time>2026-03-15T10:10:07.000Z</time></trkpt>
<trkpt lat="41.72637" lon="23.486034"><ele>2675.2</ele><time>2026-03-15T10:10:08.000Z</time></trkpt>
<trkpt lat="41.726375" lon="23.486024"><ele>2675.2</ele><time>2026-03-15T10:10:09.000Z</time></trkpt>
<trkpt lat="41.72638" lon="23.486015"><ele>2675.2</ele><time>2026-03-15T10:10:10.000Z</time></trkpt>
<trkpt lat="41.726385" lon="23.486005"><ele>2675.2</ele><time>2026-03-15T10:10:11.000Z</time></trkpt>
<trkpt lat="41.72639" lon="23.485996"><ele>2675.2</ele><time>2026-03-15T10:10:12.000Z</time></trkpt>
<trkpt lat="41.726394" lon="23.485986"><ele>2675.2</ele><time>2026-03-15T10:10:13.000Z</time></trkpt>
<trkpt lat="41.726399" lon="23.485977"><ele>2675.2</ele><time>2026-03-15T10:10:14.000Z</time></trkpt>
<trkpt lat="41.726404" lon="23.485967"><ele>2675.2</ele><time>2026-03-15T10:10:15.000Z</time></trkpt>
<trkpt lat="41.726409" lon="23.485958"><ele>2675.4</ele><time>2026-03-15T10:10:16.000Z</time></trkpt>
<trkpt lat="41.726414" lon="23.485948"><ele>2675.4</ele><time>2026-03-15T10:10:17.000Z</time></trkpt>
<trkpt lat="41.726418" lon="23.485939"><ele>2675.4</ele><time>2026-03-15T10:10:18.000Z</time></trkpt>
<trkpt lat="41.726424" lon="23.485928"><ele>2675.4</ele><time>2026-03-15T10:10:19.000Z</time></trkpt>
<trkpt lat="41.726429" lon="23.485919"><ele>2675.4</ele><time>2026-03-15T10:10:20.000Z</time></trkpt>
<trkpt lat="41.726434" lon="23.485909"><ele>2675.6</ele><time>2026-03-15T10:10:21.000Z</time></trkpt>
<trkpt lat="41.726439" lon="23.4859"><ele>2675.6</ele><time>2026-03-15T10:10:22.000Z</time></trkpt>
<trkpt lat="41.726445" lon="23.485891"><ele>2675.6</ele><time>2026-03-15T10:10:23.000Z</time></trkpt>
<trkpt lat="41.726449" lon="23.485882"><ele>2675.6</ele><time>2026-03-15T10:10:24.000Z</time></trkpt>
<trkpt lat="41.726454" lon="23.485873"><ele>2675.6</ele><time>2026-03-15T10:10:25.000Z</time></trkpt>
<trkpt lat="41.726459" lon="23.485863"><ele>2675.7</ele><time>2026-03-15T10:10:26.000Z</time></trkpt>
<trkpt lat="41.726465" lon="23.485852"><ele>2675.7</ele><time>2026-03-15T10:10:27.000Z</time></trkpt>
<trkpt lat="41.72647" lon="23.48584"><ele>2675.7</ele><time>2026-03-15T10:10:28.000Z</time></trkpt>
<trkpt lat="41.726476" lon="23.485829"><ele>2675.7</ele><time>2026-03-15T10:10:29.000Z</time></trkpt>
<trkpt lat="41.726482" lon="23.485817"><ele>2675.7</ele><time>2026-03-15T10:10:30.000Z</time></trkpt>
<trkpt lat="41.726489" lon="23.485805"><ele>2675.9</ele><time>2026-03-15T10:10:31.000Z</time></trkpt>
<trkpt lat="41.726495" lon="23.485794"><ele>2675.9</ele><time>2026-03-15T10:10:32.000Z</time></trkpt>
<trkpt lat="41.7265" lon="23.485783"><ele>2675.9</ele><time>2026-03-15T10:10:33.000Z</time></trkpt>
<trkpt lat="41.726506" lon="23.485772"><ele>2675.9</ele><time>2026-03-15T10:10:34.000Z</time></trkpt>
<trkpt lat="41.726512" lon="23.485763"><ele>2675.9</ele><time>2026-03-15T10:10:35.000Z</time></trkpt>
<trkpt lat="41.726517" lon="23.485754"><ele>2676.2</ele><time>2026-03-15T10:10:36.000Z</time></trkpt>
<trkpt lat="41.726522" lon="23.485745"><ele>2676.2</ele><time>2026-03-15T10:10:37.000Z</time></trkpt>
<trkpt lat="41.726527" lon="23.485737"><ele>2676.2</ele><time>2026-03-15T10:10:38.000Z</time></trkpt>
<trkpt lat="41.726532" lon="23.485728"><ele>2676.2</ele><time>2026-03-15T10:10:39.000Z</time></trkpt>
<trkpt lat="41.726537" lon="23.48572"><ele>2676.2</ele><time>2026-03-15T10:10:40.000Z</time></trkpt>
<trkpt lat="41.726542" lon="23.48571"><ele>2676.5</ele><time>2026-03-15T10:10:41.000Z</time></trkpt>
<trkpt lat="41.726546" lon="23.485701"><ele>2676.5</ele><time>2026-03-15T10:10:42.000Z</time></trkpt>
<trkpt lat="41.726551" lon="23.485693"><ele>2676.5</ele><time>2026-03-15T10:10:43.000Z</time></trkpt>
<trkpt lat="41.726556" lon="23.485684"><ele>2676.5</ele><time>2026-03-15T10:10:44.000Z</time></trkpt>
<trkpt lat="41.726561" lon="23.485675"><ele>2676.5</ele><time>2026-03-15T10:10:45.000Z</time></trkpt>
<trkpt lat="41.726566" lon="23.485667"><ele>2677.1</ele><time>2026-03-15T10:10:46.000Z</time></trkpt>
<trkpt lat="41.726571" lon="23.48566"><ele>2677.1</ele><time>2026-03-15T10:10:47.000Z</time></trkpt>
<trkpt lat="41.726578" lon="23.485652"><ele>2677.1</ele><time>2026-03-15T10:10:48.000Z</time></trkpt>
<trkpt lat="41.726584" lon="23.485645"><ele>2677.1</ele><time>2026-03-15T10:10:49.000Z</time></trkpt>
<trkpt lat="41.726592" lon="23.485637"><ele>2677.1</ele><time>2026-03-15T10:10:50.000Z</time></trkpt>
<trkpt lat="41.726599" lon="23.485629"><ele>2677.7</ele><time>2026-03-15T10:10:51.000Z</time></trkpt>
<trkpt lat="41.726606" lon="23.48562"><ele>2677.7</ele><time>2026-03-15T10:10:52.000Z</time></trkpt>
<trkpt lat="41.726612" lon="23.485611"><ele>2677.7</ele><time>2026-03-15T10:10:53.000Z</time></trkpt>
<trkpt lat="41.726618" lon="23.485602"><ele>2677.7</ele><time>2026-03-15T10:10:54.000Z</time></trkpt>
<trkpt lat="41.726623" lon="23.485593"><ele>2677.7</ele><time>2026-03-15T10:10:55.000Z</time></trkpt>
<trkpt lat="41.726628" lon="23.485584"><ele>2678</ele><time>2026-03-15T10:10:56.000Z</time></trkpt>
<trkpt lat="41.726635" lon="23.485576"><ele>2678</ele><time>2026-03-15T10:10:57.000Z</time></trkpt>
<trkpt lat="41.726641" lon="23.485567"><ele>2678</ele><time>2026-03-15T10:10:58.000Z</time></trkpt>
<trkpt lat="41.726648" lon="23.485559"><ele>2678</ele><time>2026-03-15T10:10:59.000Z</time></trkpt>
<trkpt lat="41.726655" lon="23.485551"><ele>2678</ele><time>2026-03-15T10:11:00.000Z</time></trkpt>
<trkpt lat="41.726661" lon="23.485541"><ele>2678.4</ele><time>2026-03-15T10:11:01.000Z</time></trkpt>
<trkpt lat="41.726667" lon="23.485531"><ele>2678.4</ele><time>2026-03-15T10:11:02.000Z</time></trkpt>
<trkpt lat="41.726673" lon="23.485521"><ele>2678.4</ele><time>2026-03-15T10:11:03.000Z</time></trkpt>
<trkpt lat="41.726678" lon="23.48551"><ele>2678.4</ele><time>2026-03-15T10:11:04.000Z</time></trkpt>
<trkpt lat="41.726683" lon="23.4855"><ele>2678.4</ele><time>2026-03-15T10:11:05.000Z</time></trkpt>
<trkpt lat="41.726689" lon="23.48549"><ele>2678.7</ele><time>2026-03-15T10:11:06.000Z</time></trkpt>
<trkpt lat="41.726695" lon="23.485481"><ele>2678.7</ele><time>2026-03-15T10:11:07.000Z</time></trkpt>
<trkpt lat="41.7267" lon="23.485473"><ele>2678.7</ele><time>2026-03-15T10:11:08.000Z</time></trkpt>
<trkpt lat="41.726706" lon="23.485466"><ele>2678.7</ele><time>2026-03-15T10:11:09.000Z</time></trkpt>
<trkpt lat="41.726711" lon="23.485458"><ele>2678.7</ele><time>2026-03-15T10:11:10.000Z</time></trkpt>
<trkpt lat="41.726717" lon="23.48545"><ele>2678.8</ele><time>2026-03-15T10:11:11.000Z</time></trkpt>
<trkpt lat="41.726721" lon="23.485441"><ele>2678.8</ele><time>2026-03-15T10:11:12.000Z</time></trkpt>
<trkpt lat="41.726726" lon="23.485432"><ele>2678.8</ele><time>2026-03-15T10:11:13.000Z</time></trkpt>
<trkpt lat="41.72673" lon="23.485421"><ele>2678.8</ele><time>2026-03-15T10:11:14.000Z</time></trkpt>
<trkpt lat="41.726735" lon="23.485411"><ele>2678.8</ele><time>2026-03-15T10:11:15.000Z</time></trkpt>
<trkpt lat="41.726739" lon="23.485401"><ele>2679.3</ele><time>2026-03-15T10:11:16.000Z</time></trkpt>
<trkpt lat="41.726742" lon="23.485392"><ele>2679.3</ele><time>2026-03-15T10:11:17.000Z</time></trkpt>
<trkpt lat="41.726747" lon="23.485382"><ele>2679.3</ele><time>2026-03-15T10:11:18.000Z</time></trkpt>
<trkpt lat="41.726751" lon="23.485371"><ele>2679.3</ele><time>2026-03-15T10:11:19.000Z</time></trkpt>
<trkpt lat="41.726756" lon="23.485361"><ele>2679.3</ele><time>2026-03-15T10:11:20.000Z</time></trkpt>
<trkpt lat="41.726761" lon="23.485351"><ele>2679.9</ele><time>2026-03-15T10:11:21.000Z</time></trkpt>
<trkpt lat="41.726767" lon="23.485341"><ele>2679.9</ele><time>2026-03-15T10:11:22.000Z</time></trkpt>
<trkpt lat="41.726773" lon="23.485331"><ele>2679.9</ele><time>2026-03-15T10:11:23.000Z</time></trkpt>
<trkpt lat="41.726779" lon="23.485322"><ele>2679.9</ele><time>2026-03-15T10:11:24.000Z</time></trkpt>
<trkpt lat="41.726785" lon="23.485313"><ele>2679.9</ele><time>2026-03-15T10:11:25.000Z</time></trkpt>
<trkpt lat="41.72679" lon="23.485305"><ele>2680.1</ele><time>2026-03-15T10:11:26.000Z</time></trkpt>
<trkpt lat="41.726795" lon="23.485297"><ele>2680.1</ele><time>2026-03-15T10:11:27.000Z</time></trkpt>
<trkpt lat="41.7268" lon="23.485289"><ele>2680.1</ele><time>2026-03-15T10:11:28.000Z</time></trkpt>
<trkpt lat="41.726804" lon="23.485282"><ele>2680.1</ele><time>2026-03-15T10:11:29.000Z</time></trkpt>
<trkpt lat="41.726809" lon="23.485274"><ele>2680.1</ele><time>2026-03-15T10:11:30.000Z</time></trkpt>
<trkpt lat="41.726813" lon="23.485266"><ele>2680.5</ele><time>2026-03-15T10:11:31.000Z</time></trkpt>
<trkpt lat="41.726819" lon="23.485258"><ele>2680.5</ele><time>2026-03-15T10:11:32.000Z</time></trkpt>
<trkpt lat="41.726824" lon="23.48525"><ele>2680.5</ele><time>2026-03-15T10:11:33.000Z</time></trkpt>
<trkpt lat="41.72683" lon="23.485242"><ele>2680.5</ele><time>2026-03-15T10:11:34.000Z</time></trkpt>
<trkpt lat="41.726837" lon="23.485235"><ele>2680.5</ele><time>2026-03-15T10:11:35.000Z</time></trkpt>
<trkpt lat="41.726845" lon="23.485227"><ele>2681</ele><time>2026-03-15T10:11:36.000Z</time></trkpt>
<trkpt lat="41.726852" lon="23.485219"><ele>2681</ele><time>2026-03-15T10:11:37.000Z</time></trkpt>
<trkpt lat="41.726859" lon="23.485212"><ele>2681</ele><time>2026-03-15T10:11:38.000Z</time></trkpt>
<trkpt lat="41.726866" lon="23.485203"><ele>2681</ele><time>2026-03-15T10:11:39.000Z</time></trkpt>
<trkpt lat="41.726873" lon="23.485193"><ele>2681</ele><time>2026-03-15T10:11:40.000Z</time></trkpt>
<trkpt lat="41.726879" lon="23.485183"><ele>2681.2</ele><time>2026-03-15T10:11:41.000Z</time></trkpt>
<trkpt lat="41.726885" lon="23.485173"><ele>2681.2</ele><time>2026-03-15T10:11:42.000Z</time></trkpt>
<trkpt lat="41.726891" lon="23.485163"><ele>2681.2</ele><time>2026-03-15T10:11:43.000Z</time></trkpt>
<trkpt lat="41.726897" lon="23.485154"><ele>2681.2</ele><time>2026-03-15T10:11:44.000Z</time></trkpt>
<trkpt lat="41.726903" lon="23.485146"><ele>2681.2</ele><time>2026-03-15T10:11:45.000Z</time></trkpt>
<trkpt lat="41.726909" lon="23.485139"><ele>2681.8</ele><time>2026-03-15T10:11:46.000Z</time></trkpt>
<trkpt lat="41.726916" lon="23.485131"><ele>2681.8</ele><time>2026-03-15T10:11:47.000Z</time></trkpt>
<trkpt lat="41.726923" lon="23.485124"><ele>2681.8</ele><time>2026-03-15T10:11:48.000Z</time></trkpt>
<trkpt lat="41.72693" lon="23.485117"><ele>2681.8</ele><time>2026-03-15T10:11:49.000Z</time></trkpt>
<trkpt lat="41.726937" lon="23.48511"><ele>2681.8</ele><time>2026-03-15T10:11:50.000Z</time></trkpt>
<trkpt lat="41.726944" lon="23.485104"><ele>2682.3</ele><time>2026-03-15T10:11:51.000Z</time></trkpt>
<trkpt lat="41.726951" lon="23.485098"><ele>2682.3</ele><time>2026-03-15T10:11:52.000Z</time></trkpt>
<trkpt lat="41.726959" lon="23.485092"><ele>2682.3</ele><time>2026-03-15T10:11:53.000Z</time></trkpt>
<trkpt lat="41.726967" lon="23.485086"><ele>2682.3</ele><time>2026-03-15T10:11:54.000Z</time></trkpt>
<trkpt lat="41.726974" lon="23.48508"><ele>2682.3</ele><time>2026-03-15T10:11:55.000Z</time></trkpt>
<trkpt lat="41.726981" lon="23.485073"><ele>2682.5</ele><time>2026-03-15T10:11:56.000Z</time></trkpt>
<trkpt lat="41.726988" lon="23.485066"><ele>2682.5</ele><time>2026-03-15T10:11:57.000Z</time></trkpt>
<trkpt lat="41.726995" lon="23.485058"><ele>2682.5</ele><time>2026-03-15T10:11:58.000Z</time></trkpt>
<trkpt lat="41.727001" lon="23.48505"><ele>2682.5</ele><time>2026-03-15T10:11:59.000Z</time></trkpt>
<trkpt lat="41.727008" lon="23.485041"><ele>2682.5</ele><time>2026-03-15T10:12:00.000Z</time></trkpt>
<trkpt lat="41.727014" lon="23.485033"><ele>2683</ele><time>2026-03-15T10:12:01.000Z</time></trkpt>
<trkpt lat="41.727021" lon="23.485025"><ele>2683</ele><time>2026-03-15T10:12:02.000Z</time></trkpt>
<trkpt lat="41.727027" lon="23.485018"><ele>2683</ele><time>2026-03-15T10:12:03.000Z</time></trkpt>
<trkpt lat="41.727032" lon="23.485011"><ele>2683</ele><time>2026-03-15T10:12:04.000Z</time></trkpt>
<trkpt lat="41.727039" lon="23.485005"><ele>2683</ele><time>2026-03-15T10:12:05.000Z</time></trkpt>
<trkpt lat="41.727045" lon="23.484998"><ele>2683.4</ele><time>2026-03-15T10:12:06.000Z</time></trkpt>
<trkpt lat="41.727052" lon="23.484991"><ele>2683.4</ele><time>2026-03-15T10:12:07.000Z</time></trkpt>
<trkpt lat="41.727059" lon="23.484984"><ele>2683.4</ele><time>2026-03-15T10:12:08.000Z</time></trkpt>
<trkpt lat="41.727066" lon="23.484978"><ele>2683.4</ele><time>2026-03-15T10:12:09.000Z</time></trkpt>
<trkpt lat="41.727073" lon="23.484972"><ele>2683.4</ele><time>2026-03-15T10:12:10.000Z</time></trkpt>
<trkpt lat="41.727078" lon="23.484968"><ele>2683.6</ele><time>2026-03-15T10:12:11.000Z</time></trkpt>
<trkpt lat="41.727082" lon="23.484966"><ele>2683.6</ele><time>2026-03-15T10:12:12.000Z</time></trkpt>
<trkpt lat="41.727084" lon="23.484965"><ele>2683.6</ele><time>2026-03-15T10:12:13.000Z</time></trkpt>
<trkpt lat="41.727084" lon="23.484966"><ele>2683.6</ele><time>2026-03-15T10:12:14.000Z</time></trkpt>
<trkpt lat="41.727084" lon="23.484967"><ele>2683.6</ele><time>2026-03-15T10:12:15.000Z</time></trkpt>
<trkpt lat="41.727083" lon="23.484968"><ele>2684.1</ele><time>2026-03-15T10:12:16.000Z</time></trkpt>
<trkpt lat="41.727083" lon="23.484969"><ele>2684.1</ele><time>2026-03-15T10:12:17.000Z</time></trkpt>
<trkpt lat="41.727083" lon="23.484969"><ele>2684.1</ele><time>2026-03-15T10:12:18.000Z</time></trkpt>
<trkpt lat="41.727083" lon="23.484969"><ele>2684.1</ele><time>2026-03-15T10:12:19.000Z</time></trkpt>
<trkpt lat="41.727083" lon="23.484969"><ele>2684.1</ele><time>2026-03-15T10:12:20.000Z</time></trkpt>
<trkpt lat="41.727083" lon="23.48497"><ele>2684.9</ele><time>2026-03-15T10:12:21.000Z</time></trkpt>
<trkpt lat="41.727083" lon="23.484968"><ele>2684.9</ele><time>2026-03-15T10:12:22.000Z</time></trkpt>
<trkpt lat="41.727084" lon="23.484965"><ele>2684.9</ele><time>2026-03-15T10:12:23.000Z</time></trkpt>
<trkpt lat="41.727087" lon="23.48496"><ele>2684.9</ele><time>2026-03-15T10:12:24.000Z</time></trkpt>
<trkpt lat="41.727091" lon="23.484954"><ele>2684.9</ele><time>2026-03-15T10:12:25.000Z</time></trkpt>
<trkpt lat="41.727097" lon="23.484946"><ele>2685.2</ele><time>2026-03-15T10:12:26.000Z</time></trkpt>
<trkpt lat="41.727102" lon="23.484938"><ele>2685.2</ele><time>2026-03-15T10:12:27.000Z</time></trkpt>
<trkpt lat="41.727108" lon="23.48493"><ele>2685.2</ele><time>2026-03-15T10:12:28.000Z</time></trkpt>
<trkpt lat="41.727112" lon="23.484923"><ele>2685.2</ele><time>2026-03-15T10:12:29.000Z</time></trkpt>
<trkpt lat="41.727115" lon="23.484916"><ele>2685.2</ele><time>2026-03-15T10:12:30.000Z</time></trkpt>
<trkpt lat="41.727118" lon="23.484908"><ele>2685.6</ele><time>2026-03-15T10:12:31.000Z</time></trkpt>
<trkpt lat="41.727123" lon="23.4849"><ele>2685.6</ele><time>2026-03-15T10:12:32.000Z</time></trkpt>
<trkpt lat="41.727128" lon="23.484893"><ele>2685.6</ele><time>2026-03-15T10:12:33.000Z</time></trkpt>
<trkpt lat="41.727134" lon="23.484887"><ele>2685.6</ele><time>2026-03-15T10:12:34.000Z</time></trkpt>
<trkpt lat="41.72714" lon="23.48488"><ele>2685.6</ele><time>2026-03-15T10:12:35.000Z</time></trkpt>
<trkpt lat="41.727145" lon="23.484874"><ele>2685.7</ele><time>2026-03-15T10:12:36.000Z</time></trkpt>
<trkpt lat="41.727149" lon="23.484869"><ele>2685.7</ele><time>2026-03-15T10:12:37.000Z</time></trkpt>
<trkpt lat="41.727153" lon="23.484863"><ele>2685.7</ele><time>2026-03-15T10:12:38.000Z</time></trkpt>
<trkpt lat="41.727156" lon="23.484858"><ele>2685.7</ele><time>2026-03-15T10:12:39.000Z</time></trkpt>
<trkpt lat="41.72716" lon="23.484853"><ele>2685.7</ele><time>2026-03-15T10:12:40.000Z</time></trkpt>
<trkpt lat="41.727163" lon="23.484848"><ele>2685.8</ele><time>2026-03-15T10:12:41.000Z</time></trkpt>
<trkpt lat="41.727166" lon="23.484843"><ele>2685.8</ele><time>2026-03-15T10:12:42.000Z</time></trkpt>
<trkpt lat="41.727168" lon="23.484839"><ele>2685.8</ele><time>2026-03-15T10:12:43.000Z</time></trkpt>
<trkpt lat="41.727169" lon="23.484834"><ele>2685.8</ele><time>2026-03-15T10:12:44.000Z</time></trkpt>
<trkpt lat="41.727169" lon="23.484831"><ele>2685.8</ele><time>2026-03-15T10:12:45.000Z</time></trkpt>
<trkpt lat="41.727168" lon="23.484829"><ele>2686.2</ele><time>2026-03-15T10:12:46.000Z</time></trkpt>
<trkpt lat="41.727167" lon="23.484827"><ele>2686.2</ele><time>2026-03-15T10:12:47.000Z</time></trkpt>
<trkpt lat="41.727167" lon="23.484826"><ele>2686.2</ele><time>2026-03-15T10:12:48.000Z</time></trkpt>
<trkpt lat="41.727167" lon="23.484826"><ele>2686.2</ele><time>2026-03-15T10:12:49.000Z</time></trkpt>
<trkpt lat="41.727168" lon="23.484825"><ele>2686.2</ele><time>2026-03-15T10:12:50.000Z</time></trkpt>
<trkpt lat="41.727169" lon="23.484825"><ele>2686.7</ele><time>2026-03-15T10:12:51.000Z</time></trkpt>
<trkpt lat="41.727169" lon="23.484825"><ele>2686.7</ele><time>2026-03-15T10:12:52.000Z</time></trkpt>
<trkpt lat="41.727169" lon="23.484826"><ele>2686.7</ele><time>2026-03-15T10:12:53.000Z</time></trkpt>
<trkpt lat="41.727169" lon="23.484826"><ele>2686.7</ele><time>2026-03-15T10:12:54.000Z</time></trkpt>
<trkpt lat="41.727168" lon="23.484826"><ele>2686.7</ele><time>2026-03-15T10:12:55.000Z</time></trkpt>
<trkpt lat="41.727168" lon="23.484826"><ele>2686.8</ele><time>2026-03-15T10:12:56.000Z</time></trkpt>
<trkpt lat="41.727168" lon="23.484826"><ele>2686.8</ele><time>2026-03-15T10:12:57.000Z</time></trkpt>
<trkpt lat="41.727167" lon="23.484826"><ele>2686.8</ele><time>2026-03-15T10:12:58.000Z</time></trkpt>
<trkpt lat="41.727167" lon="23.484826"><ele>2686.8</ele><time>2026-03-15T10:12:59.000Z</time></trkpt>
<trkpt lat="41.727167" lon="23.484826"><ele>2686.8</ele><time>2026-03-15T10:13:00.000Z</time></trkpt>
<trkpt lat="41.727167" lon="23.484826"><ele>2687</ele><time>2026-03-15T10:13:01.000Z</time></trkpt>
<trkpt lat="41.727167" lon="23.484826"><ele>2687</ele><time>2026-03-15T10:13:02.000Z</time></trkpt>
<trkpt lat="41.727167" lon="23.484826"><ele>2687</ele><time>2026-03-15T10:13:03.000Z</time></trkpt>
<trkpt lat="41.727167" lon="23.484826"><ele>2687</ele><time>2026-03-15T10:13:04.000Z</time></trkpt>
<trkpt lat="41.727167" lon="23.484826"><ele>2687</ele><time>2026-03-15T10:13:05.000Z</time></trkpt>
<trkpt lat="41.727168" lon="23.484826"><ele>2687.2</ele><time>2026-03-15T10:13:06.000Z</time></trkpt>
<trkpt lat="41.727168" lon="23.484826"><ele>2687.2</ele><time>2026-03-15T10:13:07.000Z</time></trkpt>
<trkpt lat="41.727168" lon="23.484826"><ele>2687.2</ele><time>2026-03-15T10:13:08.000Z</time></trkpt>
<trkpt lat="41.727168" lon="23.484826"><ele>2687.2</ele><time>2026-03-15T10:13:09.000Z</time></trkpt>
<trkpt lat="41.727168" lon="23.484826"><ele>2687.2</ele><time>2026-03-15T10:13:10.000Z</time></trkpt>
<trkpt lat="41.727168" lon="23.484826"><ele>2687.2</ele><time>2026-03-15T10:13:11.000Z</time></trkpt>
<trkpt lat="41.727168" lon="23.484826"><ele>2687.2</ele><time>2026-03-15T10:13:12.000Z</time></trkpt>
<trkpt lat="41.727168" lon="23.484826"><ele>2687.2</ele><time>2026-03-15T10:13:13.000Z</time></trkpt>
<trkpt lat="41.727168" lon="23.484826"><ele>2687.2</ele><time>2026-03-15T10:13:14.000Z</time></trkpt>
<trkpt lat="41.727168" lon="23.484826"><ele>2687.2</ele><time>2026-03-15T10:13:15.000Z</time></trkpt>
<trkpt lat="41.727169" lon="23.484825"><ele>2687.2</ele><time>2026-03-15T10:13:16.000Z</time></trkpt>
<trkpt lat="41.727169" lon="23.484825"><ele>2687.2</ele><time>2026-03-15T10:13:17.000Z</time></trkpt>
<trkpt lat="41.727169" lon="23.484824"><ele>2687.2</ele><time>2026-03-15T10:13:18.000Z</time></trkpt>
<trkpt lat="41.727169" lon="23.484824"><ele>2687.2</ele><time>2026-03-15T10:13:19.000Z</time></trkpt>
<trkpt lat="41.727169" lon="23.484825"><ele>2687.2</ele><time>2026-03-15T10:13:20.000Z</time></trkpt>
<trkpt lat="41.727169" lon="23.484826"><ele>2687.2</ele><time>2026-03-15T10:13:21.000Z</time></trkpt>
<trkpt lat="41.727168" lon="23.484827"><ele>2687.2</ele><time>2026-03-15T10:13:22.000Z</time></trkpt>
<trkpt lat="41.727168" lon="23.484827"><ele>2687.2</ele><time>2026-03-15T10:13:23.000Z</time></trkpt>
<trkpt lat="41.727168" lon="23.484826"><ele>2687.2</ele><time>2026-03-15T10:13:24.000Z</time></trkpt>
<trkpt lat="41.727167" lon="23.484825"><ele>2687.2</ele><time>2026-03-15T10:13:25.000Z</time></trkpt>
<trkpt lat="41.727167" lon="23.484824"><ele>2687.1</ele><time>2026-03-15T10:13:26.000Z</time></trkpt>
<trkpt lat="41.727166" lon="23.484823"><ele>2687.1</ele><time>2026-03-15T10:13:27.000Z</time></trkpt>
<trkpt lat="41.727166" lon="23.484822"><ele>2687.1</ele><time>2026-03-15T10:13:28.000Z</time></trkpt>
<trkpt lat="41.727166" lon="23.484822"><ele>2687.1</ele><time>2026-03-15T10:13:29.000Z</time></trkpt>
<trkpt lat="41.727166" lon="23.484822"><ele>2687.1</ele><time>2026-03-15T10:13:30.000Z</time></trkpt>
<trkpt lat="41.727166" lon="23.484822"><ele>2687</ele><time>2026-03-15T10:13:31.000Z</time></trkpt>
<trkpt lat="41.727167" lon="23.484821"><ele>2687</ele><time>2026-03-15T10:13:32.000Z</time></trkpt>
<trkpt lat="41.727166" lon="23.484821"><ele>2687</ele><time>2026-03-15T10:13:33.000Z</time></trkpt>
<trkpt lat="41.727166" lon="23.48482"><ele>2687</ele><time>2026-03-15T10:13:34.000Z</time></trkpt>
<trkpt lat="41.727166" lon="23.48482"><ele>2687</ele><time>2026-03-15T10:13:35.000Z</time></trkpt>
<trkpt lat="41.727166" lon="23.484819"><ele>2687</ele><time>2026-03-15T10:13:36.000Z</time></trkpt>
<trkpt lat="41.727165" lon="23.484817"><ele>2687</ele><time>2026-03-15T10:13:37.000Z</time></trkpt>
<trkpt lat="41.727165" lon="23.484816"><ele>2687</ele><time>2026-03-15T10:13:38.000Z</time></trkpt>
<trkpt lat="41.727165" lon="23.484815"><ele>2687</ele><time>2026-03-15T10:13:39.000Z</time></trkpt>
<trkpt lat="41.727165" lon="23.484814"><ele>2687</ele><time>2026-03-15T10:13:40.000Z</time></trkpt>
<trkpt lat="41.727164" lon="23.484815"><ele>2687</ele><time>2026-03-15T10:13:41.000Z</time></trkpt>
<trkpt lat="41.727164" lon="23.484815"><ele>2687</ele><time>2026-03-15T10:13:42.000Z</time></trkpt>
<trkpt lat="41.727164" lon="23.484816"><ele>2687</ele><time>2026-03-15T10:13:43.000Z</time></trkpt>
<trkpt lat="41.727164" lon="23.484816"><ele>2687</ele><time>2026-03-15T10:13:44.000Z</time></trkpt>
<trkpt lat="41.727164" lon="23.484816"><ele>2687</ele><time>2026-03-15T10:13:45.000Z</time></trkpt>
<trkpt lat="41.727164" lon="23.484816"><ele>2687.1</ele><time>2026-03-15T10:13:46.000Z</time></trkpt>
<trkpt lat="41.727164" lon="23.484816"><ele>2687.1</ele><time>2026-03-15T10:13:47.000Z</time></trkpt>
<trkpt lat="41.727164" lon="23.484816"><ele>2687.1</ele><time>2026-03-15T10:13:48.000Z</time></trkpt>
<trkpt lat="41.727164" lon="23.484816"><ele>2687.1</ele><time>2026-03-15T10:13:49.000Z</time></trkpt>
<trkpt lat="41.727164" lon="23.484816"><ele>2687.1</ele><time>2026-03-15T10:13:50.000Z</time></trkpt>
<trkpt lat="41.727163" lon="23.484816"><ele>2687</ele><time>2026-03-15T10:13:51.000Z</time></trkpt>
<trkpt lat="41.727162" lon="23.484817"><ele>2687</ele><time>2026-03-15T10:13:52.000Z</time></trkpt>
<trkpt lat="41.727161" lon="23.484818"><ele>2687</ele><time>2026-03-15T10:13:53.000Z</time></trkpt>
<trkpt lat="41.727159" lon="23.484819"><ele>2687</ele><time>2026-03-15T10:13:54.000Z</time></trkpt>
<trkpt lat="41.727158" lon="23.484819"><ele>2687</ele><time>2026-03-15T10:13:55.000Z</time></trkpt>
<trkpt lat="41.727157" lon="23.48482"><ele>2686.9</ele><time>2026-03-15T10:13:56.000Z</time></trkpt>
<trkpt lat="41.727157" lon="23.48482"><ele>2686.9</ele><time>2026-03-15T10:13:57.000Z</time></trkpt>
<trkpt lat="41.727157" lon="23.48482"><ele>2686.9</ele><time>2026-03-15T10:13:58.000Z</time></trkpt>
<trkpt lat="41.727156" lon="23.484819"><ele>2686.9</ele><time>2026-03-15T10:13:59.000Z</time></trkpt>
<trkpt lat="41.727156" lon="23.484819"><ele>2686.9</ele><time>2026-03-15T10:14:00.000Z</time></trkpt>
<trkpt lat="41.727156" lon="23.484819"><ele>2686.7</ele><time>2026-03-15T10:14:01.000Z</time></trkpt>
<trkpt lat="41.727156" lon="23.484819"><ele>2686.7</ele><time>2026-03-15T10:14:02.000Z</time></trkpt>
<trkpt lat="41.727156" lon="23.484819"><ele>2686.7</ele><time>2026-03-15T10:14:03.000Z</time></trkpt>
<trkpt lat="41.727156" lon="23.484819"><ele>2686.7</ele><time>2026-03-15T10:14:04.000Z</time></trkpt>
<trkpt lat="41.727155" lon="23.484819"><ele>2686.7</ele><time>2026-03-15T10:14:05.000Z</time></trkpt>
<trkpt lat="41.727155" lon="23.484819"><ele>2686.7</ele><time>2026-03-15T10:14:06.000Z</time></trkpt>
<trkpt lat="41.727155" lon="23.484819"><ele>2686.7</ele><time>2026-03-15T10:14:07.000Z</time></trkpt>
<trkpt lat="41.727155" lon="23.484819"><ele>2686.7</ele><time>2026-03-15T10:14:08.000Z</time></trkpt>
<trkpt lat="41.727155" lon="23.484819"><ele>2686.7</ele><time>2026-03-15T10:14:09.000Z</time></trkpt>
<trkpt lat="41.727155" lon="23.484819"><ele>2686.7</ele><time>2026-03-15T10:14:10.000Z</time></trkpt>
<trkpt lat="41.727155" lon="23.484819"><ele>2686.8</ele><time>2026-03-15T10:14:11.000Z</time></trkpt>
<trkpt lat="41.727155" lon="23.484818"><ele>2686.8</ele><time>2026-03-15T10:14:12.000Z</time></trkpt>
<trkpt lat="41.727156" lon="23.484818"><ele>2686.8</ele><time>2026-03-15T10:14:13.000Z</time></trkpt>
<trkpt lat="41.727156" lon="23.484818"><ele>2686.8</ele><time>2026-03-15T10:14:14.000Z</time></trkpt>
<trkpt lat="41.727157" lon="23.484817"><ele>2686.8</ele><time>2026-03-15T10:14:15.000Z</time></trkpt>
<trkpt lat="41.727158" lon="23.484817"><ele>2686.8</ele><time>2026-03-15T10:14:16.000Z</time></trkpt>
<trkpt lat="41.727158" lon="23.484817"><ele>2686.8</ele><time>2026-03-15T10:14:17.000Z</time></trkpt>
<trkpt lat="41.727158" lon="23.484817"><ele>2686.8</ele><time>2026-03-15T10:14:18.000Z</time></trkpt>
<trkpt lat="41.727159" lon="23.484816"><ele>2686.8</ele><time>2026-03-15T10:14:19.000Z</time></trkpt>
<trkpt lat="41.72716" lon="23.484816"><ele>2686.8</ele><time>2026-03-15T10:14:20.000Z</time></trkpt>
<trkpt lat="41.72716" lon="23.484816"><ele>2686.7</ele><time>2026-03-15T10:14:21.000Z</time></trkpt>
<trkpt lat="41.727161" lon="23.484816"><ele>2686.7</ele><time>2026-03-15T10:14:22.000Z</time></trkpt>
<trkpt lat="41.727162" lon="23.484815"><ele>2686.7</ele><time>2026-03-15T10:14:23.000Z</time></trkpt>
<trkpt lat="41.727163" lon="23.484814"><ele>2686.7</ele><time>2026-03-15T10:14:24.000Z</time></trkpt>
<trkpt lat="41.727163" lon="23.484813"><ele>2686.7</ele><time>2026-03-15T10:14:25.000Z</time></trkpt>
<trkpt lat="41.727164" lon="23.484813"><ele>2686.7</ele><time>2026-03-15T10:14:26.000Z</time></trkpt>
<trkpt lat="41.727165" lon="23.484813"><ele>2686.7</ele><time>2026-03-15T10:14:27.000Z</time></trkpt>
<trkpt lat="41.727166" lon="23.484813"><ele>2686.7</ele><time>2026-03-15T10:14:28.000Z</time></trkpt>
<trkpt lat="41.727167" lon="23.484815"><ele>2686.7</ele><time>2026-03-15T10:14:29.000Z</time></trkpt>
<trkpt lat="41.727167" lon="23.484817"><ele>2686.7</ele><time>2026-03-15T10:14:30.000Z</time></trkpt>
<trkpt lat="41.727167" lon="23.484818"><ele>2686.6</ele><time>2026-03-15T10:14:31.000Z</time></trkpt>
<trkpt lat="41.727167" lon="23.484818"><ele>2686.6</ele><time>2026-03-15T10:14:32.000Z</time></trkpt>
<trkpt lat="41.727167" lon="23.484819"><ele>2686.6</ele><time>2026-03-15T10:14:33.000Z</time></trkpt>
<trkpt lat="41.727167" lon="23.484819"><ele>2686.6</ele><time>2026-03-15T10:14:34.000Z</time></trkpt>
<trkpt lat="41.727167" lon="23.484819"><ele>2686.6</ele><time>2026-03-15T10:14:35.000Z</time></trkpt>
<trkpt lat="41.727167" lon="23.48482"><ele>2686.5</ele><time>2026-03-15T10:14:36.000Z</time></trkpt>
<trkpt lat="41.727167" lon="23.48482"><ele>2686.5</ele><time>2026-03-15T10:14:37.000Z</time></trkpt>
<trkpt lat="41.727167" lon="23.484821"><ele>2686.5</ele><time>2026-03-15T10:14:38.000Z</time></trkpt>
<trkpt lat="41.727168" lon="23.48482"><ele>2686.5</ele><time>2026-03-15T10:14:39.000Z</time></trkpt>
<trkpt lat="41.727168" lon="23.48482"><ele>2686.5</ele><time>2026-03-15T10:14:40.000Z</time></trkpt>
<trkpt lat="41.727169" lon="23.48482"><ele>2686.4</ele><time>2026-03-15T10:14:41.000Z</time></trkpt>
<trkpt lat="41.727169" lon="23.48482"><ele>2686.4</ele><time>2026-03-15T10:14:42.000Z</time></trkpt>
<trkpt lat="41.72717" lon="23.484818"><ele>2686.4</ele><time>2026-03-15T10:14:43.000Z</time></trkpt>
<trkpt lat="41.72717" lon="23.484816"><ele>2686.4</ele><time>2026-03-15T10:14:44.000Z</time></trkpt>
<trkpt lat="41.727171" lon="23.484815"><ele>2686.4</ele><time>2026-03-15T10:14:45.000Z</time></trkpt>
<trkpt lat="41.727172" lon="23.484813"><ele>2686.2</ele><time>2026-03-15T10:14:46.000Z</time></trkpt>
<trkpt lat="41.727172" lon="23.484812"><ele>2686.2</ele><time>2026-03-15T10:14:47.000Z</time></trkpt>
<trkpt lat="41.727172" lon="23.484812"><ele>2686.2</ele><time>2026-03-15T10:14:48.000Z</time></trkpt>
<trkpt lat="41.727171" lon="23.484813"><ele>2686.2</ele><time>2026-03-15T10:14:49.000Z</time></trkpt>
<trkpt lat="41.72717" lon="23.484815"><ele>2686.2</ele><time>2026-03-15T10:14:50.000Z</time></trkpt>
<trkpt lat="41.727169" lon="23.484817"><ele>2686.2</ele><time>2026-03-15T10:14:51.000Z</time></trkpt>
<trkpt lat="41.727168" lon="23.48482"><ele>2686.2</ele><time>2026-03-15T10:14:52.000Z</time></trkpt>
<trkpt lat="41.727169" lon="23.484823"><ele>2686.2</ele><time>2026-03-15T10:14:53.000Z</time></trkpt>
<trkpt lat="41.72717" lon="23.484826"><ele>2686.2</ele><time>2026-03-15T10:14:54.000Z</time></trkpt>
<trkpt lat="41.727171" lon="23.484827"><ele>2686.2</ele><time>2026-03-15T10:14:55.000Z</time></trkpt>
<trkpt lat="41.727172" lon="23.484827"><ele>2686.4</ele><time>2026-03-15T10:14:56.000Z</time></trkpt>
<trkpt lat="41.727172" lon="23.484826"><ele>2686.4</ele><time>2026-03-15T10:14:57.000Z</time></trkpt>
<trkpt lat="41.727173" lon="23.484825"><ele>2686.4</ele><time>2026-03-15T10:14:58.000Z</time></trkpt>
<trkpt lat="41.727173" lon="23.484824"><ele>2686.4</ele><time>2026-03-15T10:14:59.000Z</time></trkpt>
<trkpt lat="41.727173" lon="23.484824"><ele>2686.4</ele><time>2026-03-15T10:15:00.000Z</time></trkpt>
<trkpt lat="41.727173" lon="23.484824"><ele>2686.6</ele><time>2026-03-15T10:15:01.000Z</time></trkpt>
<trkpt lat="41.727173" lon="23.484824"><ele>2686.6</ele><time>2026-03-15T10:15:02.000Z</time></trkpt>
<trkpt lat="41.727172" lon="23.484825"><ele>2686.6</ele><time>2026-03-15T10:15:03.000Z</time></trkpt>
<trkpt lat="41.727172" lon="23.484825"><ele>2686.6</ele><time>2026-03-15T10:15:04.000Z</time></trkpt>
<trkpt lat="41.727172" lon="23.484825"><ele>2686.6</ele><time>2026-03-15T10:15:05.000Z</time></trkpt>
<trkpt lat="41.727171" lon="23.484826"><ele>2686.5</ele><time>2026-03-15T10:15:06.000Z</time></trkpt>
<trkpt lat="41.727171" lon="23.484826"><ele>2686.5</ele><time>2026-03-15T10:15:07.000Z</time></trkpt>
<trkpt lat="41.727171" lon="23.484827"><ele>2686.5</ele><time>2026-03-15T10:15:08.000Z</time></trkpt>
<trkpt lat="41.727171" lon="23.48483"><ele>2686.5</ele><time>2026-03-15T10:15:09.000Z</time></trkpt>
<trkpt lat="41.727171" lon="23.484832"><ele>2686.5</ele><time>2026-03-15T10:15:10.000Z</time></trkpt>
<trkpt lat="41.727171" lon="23.484835"><ele>2686.4</ele><time>2026-03-15T10:15:11.000Z</time></trkpt>
<trkpt lat="41.727172" lon="23.484837"><ele>2686.4</ele><time>2026-03-15T10:15:12.000Z</time></trkpt>
<trkpt lat="41.727174" lon="23.484838"><ele>2686.4</ele><time>2026-03-15T10:15:13.000Z</time></trkpt>
<trkpt lat="41.727174" lon="23.484837"><ele>2686.4</ele><time>2026-03-15T10:15:14.000Z</time></trkpt>
<trkpt lat="41.727175" lon="23.484836"><ele>2686.4</ele><time>2026-03-15T10:15:15.000Z</time></trkpt>
<trkpt lat="41.727175" lon="23.484836"><ele>2686.4</ele><time>2026-03-15T10:15:16.000Z</time></trkpt>
<trkpt lat="41.727175" lon="23.484835"><ele>2686.4</ele><time>2026-03-15T10:15:17.000Z</time></trkpt>
<trkpt lat="41.727176" lon="23.484835"><ele>2686.4</ele><time>2026-03-15T10:15:18.000Z</time></trkpt>
<trkpt lat="41.727176" lon="23.484834"><ele>2686.4</ele><time>2026-03-15T10:15:19.000Z</time></trkpt>
<trkpt lat="41.727176" lon="23.484834"><ele>2686.4</ele><time>2026-03-15T10:15:20.000Z</time></trkpt>
<trkpt lat="41.727176" lon="23.484834"><ele>2686.7</ele><time>2026-03-15T10:15:21.000Z</time></trkpt>
<trkpt lat="41.727175" lon="23.484834"><ele>2686.7</ele><time>2026-03-15T10:15:22.000Z</time></trkpt>
<trkpt lat="41.727175" lon="23.484834"><ele>2686.7</ele><time>2026-03-15T10:15:23.000Z</time></trkpt>
<trkpt lat="41.727175" lon="23.484834"><ele>2686.7</ele><time>2026-03-15T10:15:24.000Z</time></trkpt>
<trkpt lat="41.727175" lon="23.484832"><ele>2686.7</ele><time>2026-03-15T10:15:25.000Z</time></trkpt>
<trkpt lat="41.727174" lon="23.484833"><ele>2686.9</ele><time>2026-03-15T10:15:26.000Z</time></trkpt>
<trkpt lat="41.727173" lon="23.484832"><ele>2686.9</ele><time>2026-03-15T10:15:27.000Z</time></trkpt>
<trkpt lat="41.727173" lon="23.48483"><ele>2686.9</ele><time>2026-03-15T10:15:28.000Z</time></trkpt>
<trkpt lat="41.727173" lon="23.484827"><ele>2686.9</ele><time>2026-03-15T10:15:29.000Z</time></trkpt>
<trkpt lat="41.727174" lon="23.484823"><ele>2686.9</ele><time>2026-03-15T10:15:30.000Z</time></trkpt>
<trkpt lat="41.727178" lon="23.484817"><ele>2687.2</ele><time>2026-03-15T10:15:31.000Z</time></trkpt>
<trkpt lat="41.727183" lon="23.484812"><ele>2687.2</ele><time>2026-03-15T10:15:32.000Z</time></trkpt>
<trkpt lat="41.727188" lon="23.484808"><ele>2687.2</ele><time>2026-03-15T10:15:33.000Z</time></trkpt>
<trkpt lat="41.727194" lon="23.484802"><ele>2687.2</ele><time>2026-03-15T10:15:34.000Z</time></trkpt>
<trkpt lat="41.7272" lon="23.484797"><ele>2687.2</ele><time>2026-03-15T10:15:35.000Z</time></trkpt>
<trkpt lat="41.727206" lon="23.484792"><ele>2687.3</ele><time>2026-03-15T10:15:36.000Z</time></trkpt>
<trkpt lat="41.727212" lon="23.484785"><ele>2687.3</ele><time>2026-03-15T10:15:37.000Z</time></trkpt>
<trkpt lat="41.727218" lon="23.484777"><ele>2687.3</ele><time>2026-03-15T10:15:38.000Z</time></trkpt>
<trkpt lat="41.727223" lon="23.48477"><ele>2687.3</ele><time>2026-03-15T10:15:39.000Z</time></trkpt>
<trkpt lat="41.727228" lon="23.484762"><ele>2687.3</ele><time>2026-03-15T10:15:40.000Z</time></trkpt>
<trkpt lat="41.727234" lon="23.484754"><ele>2687.3</ele><time>2026-03-15T10:15:41.000Z</time></trkpt>
<trkpt lat="41.727238" lon="23.484748"><ele>2687.3</ele><time>2026-03-15T10:15:42.000Z</time></trkpt>
<trkpt lat="41.727244" lon="23.484742"><ele>2687.3</ele><time>2026-03-15T10:15:43.000Z</time></trkpt>
<trkpt lat="41.72725" lon="23.484738"><ele>2687.3</ele><time>2026-03-15T10:15:44.000Z</time></trkpt>
<trkpt lat="41.727256" lon="23.484736"><ele>2687.3</ele><time>2026-03-15T10:15:45.000Z</time></trkpt>
<trkpt lat="41.727263" lon="23.484734"><ele>2687.5</ele><time>2026-03-15T10:15:46.000Z</time></trkpt>
<trkpt lat="41.727269" lon="23.484733"><ele>2687.5</ele><time>2026-03-15T10:15:47.000Z</time></trkpt>
<trkpt lat="41.727275" lon="23.484731"><ele>2687.5</ele><time>2026-03-15T10:15:48.000Z</time></trkpt>
<trkpt lat="41.727282" lon="23.484729"><ele>2687.5</ele><time>2026-03-15T10:15:49.000Z</time></trkpt>
<trkpt lat="41.727288" lon="23.484727"><ele>2687.5</ele><time>2026-03-15T10:15:50.000Z</time></trkpt>
<trkpt lat="41.727294" lon="23.484724"><ele>2687.6</ele><time>2026-03-15T10:15:51.000Z</time></trkpt>
<trkpt lat="41.727299" lon="23.48472"><ele>2687.6</ele><time>2026-03-15T10:15:52.000Z</time></trkpt>
<trkpt lat="41.727305" lon="23.484717"><ele>2687.6</ele><time>2026-03-15T10:15:53.000Z</time></trkpt>
<trkpt lat="41.72731" lon="23.484713"><ele>2687.6</ele><time>2026-03-15T10:15:54.000Z</time></trkpt>
<trkpt lat="41.727315" lon="23.484708"><ele>2687.6</ele><time>2026-03-15T10:15:55.000Z</time></trkpt>
<trkpt lat="41.72732" lon="23.484704"><ele>2687.7</ele><time>2026-03-15T10:15:56.000Z</time></trkpt>
<trkpt lat="41.727326" lon="23.484701"><ele>2687.7</ele><time>2026-03-15T10:15:57.000Z</time></trkpt>
<trkpt lat="41.727332" lon="23.484698"><ele>2687.7</ele><time>2026-03-15T10:15:58.000Z</time></trkpt>
<trkpt lat="41.727338" lon="23.484695"><ele>2687.7</ele><time>2026-03-15T10:15:59.000Z</time></trkpt>
<trkpt lat="41.727344" lon="23.484692"><ele>2687.7</ele><time>2026-03-15T10:16:00.000Z</time></trkpt>
<trkpt lat="41.727349" lon="23.484687"><ele>2687.9</ele><time>2026-03-15T10:16:01.000Z</time></trkpt>
<trkpt lat="41.727353" lon="23.484681"><ele>2687.9</ele><time>2026-03-15T10:16:02.000Z</time></trkpt>
<trkpt lat="41.727357" lon="23.484675"><ele>2687.9</ele><time>2026-03-15T10:16:03.000Z</time></trkpt>
<trkpt lat="41.727361" lon="23.484667"><ele>2687.9</ele><time>2026-03-15T10:16:04.000Z</time></trkpt>
<trkpt lat="41.727365" lon="23.484659"><ele>2687.9</ele><time>2026-03-15T10:16:05.000Z</time></trkpt>
<trkpt lat="41.727369" lon="23.484652"><ele>2688.5</ele><time>2026-03-15T10:16:06.000Z</time></trkpt>
<trkpt lat="41.727374" lon="23.484646"><ele>2688.5</ele><time>2026-03-15T10:16:07.000Z</time></trkpt>
<trkpt lat="41.727378" lon="23.484641"><ele>2688.5</ele><time>2026-03-15T10:16:08.000Z</time></trkpt>
<trkpt lat="41.727382" lon="23.484636"><ele>2688.5</ele><time>2026-03-15T10:16:09.000Z</time></trkpt>
<trkpt lat="41.727385" lon="23.484631"><ele>2688.5</ele><time>2026-03-15T10:16:10.000Z</time></trkpt>
<trkpt lat="41.727388" lon="23.484627"><ele>2688.8</ele><time>2026-03-15T10:16:11.000Z</time></trkpt>
<trkpt lat="41.727391" lon="23.484622"><ele>2688.8</ele><time>2026-03-15T10:16:12.000Z</time></trkpt>
<trkpt lat="41.727394" lon="23.484617"><ele>2688.8</ele><time>2026-03-15T10:16:13.000Z</time></trkpt>
<trkpt lat="41.727398" lon="23.484612"><ele>2688.8</ele><time>2026-03-15T10:16:14.000Z</time></trkpt>
<trkpt lat="41.727402" lon="23.484607"><ele>2688.8</ele><time>2026-03-15T10:16:15.000Z</time></trkpt>
<trkpt lat="41.727406" lon="23.484603"><ele>2689.5</ele><time>2026-03-15T10:16:16.000Z</time></trkpt>
<trkpt lat="41.72741" lon="23.484598"><ele>2689.5</ele><time>2026-03-15T10:16:17.000Z</time></trkpt>
<trkpt lat="41.727414" lon="23.484594"><ele>2689.5</ele><time>2026-03-15T10:16:18.000Z</time></trkpt>
<trkpt lat="41.727418" lon="23.484591"><ele>2689.5</ele><time>2026-03-15T10:16:19.000Z</time></trkpt>
<trkpt lat="41.727422" lon="23.484588"><ele>2689.5</ele><time>2026-03-15T10:16:20.000Z</time></trkpt>
<trkpt lat="41.727425" lon="23.484585"><ele>2690.4</ele><time>2026-03-15T10:16:21.000Z</time></trkpt>
<trkpt lat="41.727429" lon="23.484582"><ele>2690.4</ele><time>2026-03-15T10:16:22.000Z</time></trkpt>
<trkpt lat="41.727433" lon="23.484579"><ele>2690.4</ele><time>2026-03-15T10:16:23.000Z</time></trkpt>
<trkpt lat="41.727436" lon="23.484576"><ele>2690.4</ele><time>2026-03-15T10:16:24.000Z</time></trkpt>
<trkpt lat="41.727439" lon="23.484573"><ele>2690.4</ele><time>2026-03-15T10:16:25.000Z</time></trkpt>
<trkpt lat="41.727442" lon="23.484569"><ele>2690.8</ele><time>2026-03-15T10:16:26.000Z</time></trkpt>
<trkpt lat="41.727445" lon="23.484568"><ele>2690.8</ele><time>2026-03-15T10:16:27.000Z</time></trkpt>
<trkpt lat="41.727447" lon="23.484565"><ele>2690.8</ele><time>2026-03-15T10:16:28.000Z</time></trkpt>
<trkpt lat="41.72745" lon="23.484562"><ele>2690.8</ele><time>2026-03-15T10:16:29.000Z</time></trkpt>
<trkpt lat="41.727453" lon="23.484559"><ele>2690.8</ele><time>2026-03-15T10:16:30.000Z</time></trkpt>
<trkpt lat="41.727455" lon="23.484557"><ele>2691.7</ele><time>2026-03-15T10:16:31.000Z</time></trkpt>
<trkpt lat="41.727459" lon="23.484555"><ele>2691.7</ele><time>2026-03-15T10:16:32.000Z</time></trkpt>
<trkpt lat="41.727462" lon="23.484554"><ele>2691.7</ele><time>2026-03-15T10:16:33.000Z</time></trkpt>
<trkpt lat="41.727463" lon="23.484552"><ele>2691.7</ele><time>2026-03-15T10:16:34.000Z</time></trkpt>
<trkpt lat="41.727465" lon="23.484552"><ele>2691.7</ele><time>2026-03-15T10:16:35.000Z</time></trkpt>
<trkpt lat="41.727467" lon="23.484551"><ele>2692.6</ele><time>2026-03-15T10:16:36.000Z</time></trkpt>
<trkpt lat="41.727469" lon="23.484549"><ele>2692.6</ele><time>2026-03-15T10:16:37.000Z</time></trkpt>
<trkpt lat="41.727471" lon="23.484547"><ele>2692.6</ele><time>2026-03-15T10:16:38.000Z</time></trkpt>
<trkpt lat="41.727473" lon="23.484545"><ele>2692.6</ele><time>2026-03-15T10:16:39.000Z</time></trkpt>
<trkpt lat="41.727476" lon="23.484542"><ele>2692.6</ele><time>2026-03-15T10:16:40.000Z</time></trkpt>
<trkpt lat="41.727479" lon="23.484538"><ele>2693</ele><time>2026-03-15T10:16:41.000Z</time></trkpt>
<trkpt lat="41.727481" lon="23.484534"><ele>2693</ele><time>2026-03-15T10:16:42.000Z</time></trkpt>
<trkpt lat="41.727484" lon="23.484531"><ele>2693</ele><time>2026-03-15T10:16:43.000Z</time></trkpt>
<trkpt lat="41.727486" lon="23.484527"><ele>2693</ele><time>2026-03-15T10:16:44.000Z</time></trkpt>
<trkpt lat="41.727489" lon="23.484525"><ele>2693</ele><time>2026-03-15T10:16:45.000Z</time></trkpt>
<trkpt lat="41.72749" lon="23.484523"><ele>2693.8</ele><time>2026-03-15T10:16:46.000Z</time></trkpt>
<trkpt lat="41.727491" lon="23.484522"><ele>2693.8</ele><time>2026-03-15T10:16:47.000Z</time></trkpt>
<trkpt lat="41.727491" lon="23.48452"><ele>2693.8</ele><time>2026-03-15T10:16:48.000Z</time></trkpt>
<trkpt lat="41.727491" lon="23.48452"><ele>2693.8</ele><time>2026-03-15T10:16:49.000Z</time></trkpt>
<trkpt lat="41.727491" lon="23.484519"><ele>2693.8</ele><time>2026-03-15T10:16:50.000Z</time></trkpt>
<trkpt lat="41.72749" lon="23.484518"><ele>2694.5</ele><time>2026-03-15T10:16:51.000Z</time></trkpt>
<trkpt lat="41.727489" lon="23.484516"><ele>2694.5</ele><time>2026-03-15T10:16:52.000Z</time></trkpt>
<trkpt lat="41.727489" lon="23.484515"><ele>2694.5</ele><time>2026-03-15T10:16:53.000Z</time></trkpt>
<trkpt lat="41.727489" lon="23.484514"><ele>2694.5</ele><time>2026-03-15T10:16:54.000Z</time></trkpt>
<trkpt lat="41.727488" lon="23.484512"><ele>2694.5</ele><time>2026-03-15T10:16:55.000Z</time></trkpt>
<trkpt lat="41.727488" lon="23.484512"><ele>2694.9</ele><time>2026-03-15T10:16:56.000Z</time></trkpt>
<trkpt lat="41.727488" lon="23.484511"><ele>2694.9</ele><time>2026-03-15T10:16:57.000Z</time></trkpt>
<trkpt lat="41.727488" lon="23.484511"><ele>2694.9</ele><time>2026-03-15T10:16:58.000Z</time></trkpt>
<trkpt lat="41.727488" lon="23.48451"><ele>2694.9</ele><time>2026-03-15T10:16:59.000Z</time></trkpt>
<trkpt lat="41.727488" lon="23.48451"><ele>2694.9</ele><time>2026-03-15T10:17:00.000Z</time></trkpt>
<trkpt lat="41.727488" lon="23.484509"><ele>2695.3</ele><time>2026-03-15T10:17:01.000Z</time></trkpt>
<trkpt lat="41.727487" lon="23.484509"><ele>2695.3</ele><time>2026-03-15T10:17:02.000Z</time></trkpt>
<trkpt lat="41.727487" lon="23.484509"><ele>2695.3</ele><time>2026-03-15T10:17:03.000Z</time></trkpt>
<trkpt lat="41.727486" lon="23.484509"><ele>2695.3</ele><time>2026-03-15T10:17:04.000Z</time></trkpt>
<trkpt lat="41.727486" lon="23.48451"><ele>2695.3</ele><time>2026-03-15T10:17:05.000Z</time></trkpt>
<trkpt lat="41.727486" lon="23.48451"><ele>2695.3</ele><time>2026-03-15T10:17:06.000Z</time></trkpt>
<trkpt lat="41.727486" lon="23.48451"><ele>2695.3</ele><time>2026-03-15T10:17:07.000Z</time></trkpt>
<trkpt lat="41.727485" lon="23.48451"><ele>2695.3</ele><time>2026-03-15T10:17:08.000Z</time></trkpt>
<trkpt lat="41.727485" lon="23.48451"><ele>2695.3</ele><time>2026-03-15T10:17:09.000Z</time></trkpt>
<trkpt lat="41.727485" lon="23.48451"><ele>2695.3</ele><time>2026-03-15T10:17:10.000Z</time></trkpt>
<trkpt lat="41.727485" lon="23.484509"><ele>2695.1</ele><time>2026-03-15T10:17:11.000Z</time></trkpt>
<trkpt lat="41.727485" lon="23.484509"><ele>2695.1</ele><time>2026-03-15T10:17:12.000Z</time></trkpt>
<trkpt lat="41.727485" lon="23.484509"><ele>2695.1</ele><time>2026-03-15T10:17:13.000Z</time></trkpt>
<trkpt lat="41.727485" lon="23.484508"><ele>2695.1</ele><time>2026-03-15T10:17:14.000Z</time></trkpt>
<trkpt lat="41.727485" lon="23.484508"><ele>2695.1</ele><time>2026-03-15T10:17:15.000Z</time></trkpt>
<trkpt lat="41.727485" lon="23.484508"><ele>2694.7</ele><time>2026-03-15T10:17:16.000Z</time></trkpt>
<trkpt lat="41.727485" lon="23.484509"><ele>2694.7</ele><time>2026-03-15T10:17:17.000Z</time></trkpt>
<trkpt lat="41.727485" lon="23.484509"><ele>2694.7</ele><time>2026-03-15T10:17:18.000Z</time></trkpt>
<trkpt lat="41.727485" lon="23.484509"><ele>2694.7</ele><time>2026-03-15T10:17:19.000Z</time></trkpt>
<trkpt lat="41.727485" lon="23.484509"><ele>2694.7</ele><time>2026-03-15T10:17:20.000Z</time></trkpt>
<trkpt lat="41.727485" lon="23.484509"><ele>2694.4</ele><time>2026-03-15T10:17:21.000Z</time></trkpt>
<trkpt lat="41.727485" lon="23.484509"><ele>2694.4</ele><time>2026-03-15T10:17:22.000Z</time></trkpt>
<trkpt lat="41.727485" lon="23.484509"><ele>2694.4</ele><time>2026-03-15T10:17:23.000Z</time></trkpt>
<trkpt lat="41.727485" lon="23.48451"><ele>2694.4</ele><time>2026-03-15T10:17:24.000Z</time></trkpt>
<trkpt lat="41.727485" lon="23.484511"><ele>2694.4</ele><time>2026-03-15T10:17:25.000Z</time></trkpt>
<trkpt lat="41.727485" lon="23.484512"><ele>2694.3</ele><time>2026-03-15T10:17:26.000Z</time></trkpt>
<trkpt lat="41.727485" lon="23.484514"><ele>2694.3</ele><time>2026-03-15T10:17:27.000Z</time></trkpt>
<trkpt lat="41.727486" lon="23.484516"><ele>2694.3</ele><time>2026-03-15T10:17:28.000Z</time></trkpt>
<trkpt lat="41.727486" lon="23.484518"><ele>2694.3</ele><time>2026-03-15T10:17:29.000Z</time></trkpt>
<trkpt lat="41.727487" lon="23.484519"><ele>2694.3</ele><time>2026-03-15T10:17:30.000Z</time></trkpt>
<trkpt lat="41.727487" lon="23.484521"><ele>2694.2</ele><time>2026-03-15T10:17:31.000Z</time></trkpt>
<trkpt lat="41.727487" lon="23.484521"><ele>2694.2</ele><time>2026-03-15T10:17:32.000Z</time></trkpt>
<trkpt lat="41.727487" lon="23.48452"><ele>2694.2</ele><time>2026-03-15T10:17:33.000Z</time></trkpt>
<trkpt lat="41.727487" lon="23.484519"><ele>2694.2</ele><time>2026-03-15T10:17:34.000Z</time></trkpt>
<trkpt lat="41.727486" lon="23.484519"><ele>2694.2</ele><time>2026-03-15T10:17:35.000Z</time></trkpt>
<trkpt lat="41.727486" lon="23.484518"><ele>2694.3</ele><time>2026-03-15T10:17:36.000Z</time></trkpt>
<trkpt lat="41.727486" lon="23.484518"><ele>2694.3</ele><time>2026-03-15T10:17:37.000Z</time></trkpt>
<trkpt lat="41.727486" lon="23.484518"><ele>2694.3</ele><time>2026-03-15T10:17:38.000Z</time></trkpt>
<trkpt lat="41.727486" lon="23.484518"><ele>2694.3</ele><time>2026-03-15T10:17:39.000Z</time></trkpt>
<trkpt lat="41.727486" lon="23.484518"><ele>2694.3</ele><time>2026-03-15T10:17:40.000Z</time></trkpt>
<trkpt lat="41.727487" lon="23.484519"><ele>2694.3</ele><time>2026-03-15T10:17:41.000Z</time></trkpt>
<trkpt lat="41.727487" lon="23.484519"><ele>2694.3</ele><time>2026-03-15T10:17:42.000Z</time></trkpt>
<trkpt lat="41.727488" lon="23.48452"><ele>2694.3</ele><time>2026-03-15T10:17:43.000Z</time></trkpt>
<trkpt lat="41.727488" lon="23.48452"><ele>2694.3</ele><time>2026-03-15T10:17:44.000Z</time></trkpt>
<trkpt lat="41.727488" lon="23.48452"><ele>2694.3</ele><time>2026-03-15T10:17:45.000Z</time></trkpt>
<trkpt lat="41.727487" lon="23.48452"><ele>2694.3</ele><time>2026-03-15T10:17:46.000Z</time></trkpt>
<trkpt lat="41.727486" lon="23.48452"><ele>2694.3</ele><time>2026-03-15T10:17:47.000Z</time></trkpt>
<trkpt lat="41.727486" lon="23.484519"><ele>2694.3</ele><time>2026-03-15T10:17:48.000Z</time></trkpt>
<trkpt lat="41.727484" lon="23.484518"><ele>2694.3</ele><time>2026-03-15T10:17:49.000Z</time></trkpt>
<trkpt lat="41.727483" lon="23.484517"><ele>2694.3</ele><time>2026-03-15T10:17:50.000Z</time></trkpt>
<trkpt lat="41.727482" lon="23.484515"><ele>2694.3</ele><time>2026-03-15T10:17:51.000Z</time></trkpt>
<trkpt lat="41.727481" lon="23.484513"><ele>2694.3</ele><time>2026-03-15T10:17:52.000Z</time></trkpt>
<trkpt lat="41.727479" lon="23.484511"><ele>2694.3</ele><time>2026-03-15T10:17:53.000Z</time></trkpt>
<trkpt lat="41.727479" lon="23.48451"><ele>2694.3</ele><time>2026-03-15T10:17:54.000Z</time></trkpt>
<trkpt lat="41.727478" lon="23.484509"><ele>2694.3</ele><time>2026-03-15T10:17:55.000Z</time></trkpt>
<trkpt lat="41.727478" lon="23.484509"><ele>2694.3</ele><time>2026-03-15T10:17:56.000Z</time></trkpt>
<trkpt lat="41.727478" lon="23.484508"><ele>2694.3</ele><time>2026-03-15T10:17:57.000Z</time></trkpt>
<trkpt lat="41.727477" lon="23.484508"><ele>2694.3</ele><time>2026-03-15T10:17:58.000Z</time></trkpt>
<trkpt lat="41.727477" lon="23.484508"><ele>2694.3</ele><time>2026-03-15T10:17:59.000Z</time></trkpt>
<trkpt lat="41.727477" lon="23.484508"><ele>2694.3</ele><time>2026-03-15T10:18:00.000Z</time></trkpt>
<trkpt lat="41.727477" lon="23.484508"><ele>2694.3</ele><time>2026-03-15T10:18:01.000Z</time></trkpt>
<trkpt lat="41.727478" lon="23.484509"><ele>2694.3</ele><time>2026-03-15T10:18:02.000Z</time></trkpt>
<trkpt lat="41.727478" lon="23.484509"><ele>2694.3</ele><time>2026-03-15T10:18:03.000Z</time></trkpt>
<trkpt lat="41.727478" lon="23.484509"><ele>2694.3</ele><time>2026-03-15T10:18:04.000Z</time></trkpt>
<trkpt lat="41.727479" lon="23.48451"><ele>2694.3</ele><time>2026-03-15T10:18:05.000Z</time></trkpt>
<trkpt lat="41.72748" lon="23.484511"><ele>2694.3</ele><time>2026-03-15T10:18:06.000Z</time></trkpt>
<trkpt lat="41.72748" lon="23.484511"><ele>2694.3</ele><time>2026-03-15T10:18:07.000Z</time></trkpt>
<trkpt lat="41.727482" lon="23.484512"><ele>2694.3</ele><time>2026-03-15T10:18:08.000Z</time></trkpt>
<trkpt lat="41.727484" lon="23.484513"><ele>2694.3</ele><time>2026-03-15T10:18:09.000Z</time></trkpt>
<trkpt lat="41.727486" lon="23.484513"><ele>2694.3</ele><time>2026-03-15T10:18:10.000Z</time></trkpt>
<trkpt lat="41.727487" lon="23.484513"><ele>2694.2</ele><time>2026-03-15T10:18:11.000Z</time></trkpt>
<trkpt lat="41.727487" lon="23.484513"><ele>2694.2</ele><time>2026-03-15T10:18:12.000Z</time></trkpt>
<trkpt lat="41.727486" lon="23.484512"><ele>2694.2</ele><time>2026-03-15T10:18:13.000Z</time></trkpt>
<trkpt lat="41.727486" lon="23.484512"><ele>2694.2</ele><time>2026-03-15T10:18:14.000Z</time></trkpt>
<trkpt lat="41.727486" lon="23.484514"><ele>2694.2</ele><time>2026-03-15T10:18:15.000Z</time></trkpt>
<trkpt lat="41.727486" lon="23.484516"><ele>2694.1</ele><time>2026-03-15T10:18:16.000Z</time></trkpt>
<trkpt lat="41.727487" lon="23.484518"><ele>2694.1</ele><time>2026-03-15T10:18:17.000Z</time></trkpt>
<trkpt lat="41.727488" lon="23.48452"><ele>2694.1</ele><time>2026-03-15T10:18:18.000Z</time></trkpt>
<trkpt lat="41.727489" lon="23.484521"><ele>2694.1</ele><time>2026-03-15T10:18:19.000Z</time></trkpt>
<trkpt lat="41.72749" lon="23.484521"><ele>2694.1</ele><time>2026-03-15T10:18:20.000Z</time></trkpt>
<trkpt lat="41.72749" lon="23.48452"><ele>2693.9</ele><time>2026-03-15T10:18:21.000Z</time></trkpt>
<trkpt lat="41.72749" lon="23.484519"><ele>2693.9</ele><time>2026-03-15T10:18:22.000Z</time></trkpt>
<trkpt lat="41.72749" lon="23.484519"><ele>2693.9</ele><time>2026-03-15T10:18:23.000Z</time></trkpt>
<trkpt lat="41.727489" lon="23.484517"><ele>2693.9</ele><time>2026-03-15T10:18:24.000Z</time></trkpt>
<trkpt lat="41.727488" lon="23.484515"><ele>2693.9</ele><time>2026-03-15T10:18:25.000Z</time></trkpt>
<trkpt lat="41.727487" lon="23.484513"><ele>2693.9</ele><time>2026-03-15T10:18:26.000Z</time></trkpt>
<trkpt lat="41.727486" lon="23.484511"><ele>2693.9</ele><time>2026-03-15T10:18:27.000Z</time></trkpt>
<trkpt lat="41.727484" lon="23.484508"><ele>2693.9</ele><time>2026-03-15T10:18:28.000Z</time></trkpt>
<trkpt lat="41.727484" lon="23.484507"><ele>2693.9</ele><time>2026-03-15T10:18:29.000Z</time></trkpt>
<trkpt lat="41.727484" lon="23.484506"><ele>2693.9</ele><time>2026-03-15T10:18:30.000Z</time></trkpt>
<trkpt lat="41.727483" lon="23.484505"><ele>2694.1</ele><time>2026-03-15T10:18:31.000Z</time></trkpt>
<trkpt lat="41.727483" lon="23.484503"><ele>2694.1</ele><time>2026-03-15T10:18:32.000Z</time></trkpt>
<trkpt lat="41.727483" lon="23.484503"><ele>2694.1</ele><time>2026-03-15T10:18:33.000Z</time></trkpt>
<trkpt lat="41.727483" lon="23.484502"><ele>2694.1</ele><time>2026-03-15T10:18:34.000Z</time></trkpt>
<trkpt lat="41.727482" lon="23.484503"><ele>2694.1</ele><time>2026-03-15T10:18:35.000Z</time></trkpt>
<trkpt lat="41.727482" lon="23.484504"><ele>2694.5</ele><time>2026-03-15T10:18:36.000Z</time></trkpt>
<trkpt lat="41.727481" lon="23.484504"><ele>2694.5</ele><time>2026-03-15T10:18:37.000Z</time></trkpt>
<trkpt lat="41.727481" lon="23.484505"><ele>2694.5</ele><time>2026-03-15T10:18:38.000Z</time></trkpt>
<trkpt lat="41.72748" lon="23.484506"><ele>2694.5</ele><time>2026-03-15T10:18:39.000Z</time></trkpt>
<trkpt lat="41.72748" lon="23.484505"><ele>2694.5</ele><time>2026-03-15T10:18:40.000Z</time></trkpt>
<trkpt lat="41.72748" lon="23.484505"><ele>2694.6</ele><time>2026-03-15T10:18:41.000Z</time></trkpt>
<trkpt lat="41.727481" lon="23.484506"><ele>2694.6</ele><time>2026-03-15T10:18:42.000Z</time></trkpt>
<trkpt lat="41.727481" lon="23.484506"><ele>2694.6</ele><time>2026-03-15T10:18:43.000Z</time></trkpt>
<trkpt lat="41.727481" lon="23.484507"><ele>2694.6</ele><time>2026-03-15T10:18:44.000Z</time></trkpt>
<trkpt lat="41.727481" lon="23.484507"><ele>2694.6</ele><time>2026-03-15T10:18:45.000Z</time></trkpt>
<trkpt lat="41.727482" lon="23.484507"><ele>2694.7</ele><time>2026-03-15T10:18:46.000Z</time></trkpt>
<trkpt lat="41.727482" lon="23.484507"><ele>2694.7</ele><time>2026-03-15T10:18:47.000Z</time></trkpt>
<trkpt lat="41.727481" lon="23.484507"><ele>2694.7</ele><time>2026-03-15T10:18:48.000Z</time></trkpt>
<trkpt lat="41.727481" lon="23.484507"><ele>2694.7</ele><time>2026-03-15T10:18:49.000Z</time></trkpt>
<trkpt lat="41.72748" lon="23.484507"><ele>2694.7</ele><time>2026-03-15T10:18:50.000Z</time></trkpt>
<trkpt lat="41.72748" lon="23.484506"><ele>2694.6</ele><time>2026-03-15T10:18:51.000Z</time></trkpt>
<trkpt lat="41.727479" lon="23.484506"><ele>2694.6</ele><time>2026-03-15T10:18:52.000Z</time></trkpt>
<trkpt lat="41.727479" lon="23.484507"><ele>2694.6</ele><time>2026-03-15T10:18:53.000Z</time></trkpt>
<trkpt lat="41.727479" lon="23.484507"><ele>2694.6</ele><time>2026-03-15T10:18:54.000Z</time></trkpt>
<trkpt lat="41.727478" lon="23.484507"><ele>2694.6</ele><time>2026-03-15T10:18:55.000Z</time></trkpt>
<trkpt lat="41.727478" lon="23.484508"><ele>2694.6</ele><time>2026-03-15T10:18:56.000Z</time></trkpt>
<trkpt lat="41.727478" lon="23.484508"><ele>2694.6</ele><time>2026-03-15T10:18:57.000Z</time></trkpt>
<trkpt lat="41.727478" lon="23.484507"><ele>2694.6</ele><time>2026-03-15T10:18:58.000Z</time></trkpt>
<trkpt lat="41.727478" lon="23.484507"><ele>2694.6</ele><time>2026-03-15T10:18:59.000Z</time></trkpt>
<trkpt lat="41.727478" lon="23.484506"><ele>2694.6</ele><time>2026-03-15T10:19:00.000Z</time></trkpt>
<trkpt lat="41.727478" lon="23.484506"><ele>2694.9</ele><time>2026-03-15T10:19:01.000Z</time></trkpt>
<trkpt lat="41.727479" lon="23.484505"><ele>2694.9</ele><time>2026-03-15T10:19:02.000Z</time></trkpt>
<trkpt lat="41.72748" lon="23.484505"><ele>2694.9</ele><time>2026-03-15T10:19:03.000Z</time></trkpt>
<trkpt lat="41.72748" lon="23.484504"><ele>2694.9</ele><time>2026-03-15T10:19:04.000Z</time></trkpt>
<trkpt lat="41.72748" lon="23.484504"><ele>2694.9</ele><time>2026-03-15T10:19:05.000Z</time></trkpt>
<trkpt lat="41.72748" lon="23.484504"><ele>2695</ele><time>2026-03-15T10:19:06.000Z</time></trkpt>
<trkpt lat="41.72748" lon="23.484504"><ele>2695</ele><time>2026-03-15T10:19:07.000Z</time></trkpt>
<trkpt lat="41.727481" lon="23.484504"><ele>2695</ele><time>2026-03-15T10:19:08.000Z</time></trkpt>
<trkpt lat="41.727481" lon="23.484504"><ele>2695</ele><time>2026-03-15T10:19:09.000Z</time></trkpt>
<trkpt lat="41.727481" lon="23.484503"><ele>2695</ele><time>2026-03-15T10:19:10.000Z</time></trkpt>
<trkpt lat="41.727481" lon="23.484503"><ele>2695</ele><time>2026-03-15T10:19:11.000Z</time></trkpt>
<trkpt lat="41.727481" lon="23.484502"><ele>2695</ele><time>2026-03-15T10:19:12.000Z</time></trkpt>
<trkpt lat="41.727481" lon="23.484502"><ele>2695</ele><time>2026-03-15T10:19:13.000Z</time></trkpt>
<trkpt lat="41.727481" lon="23.484502"><ele>2695</ele><time>2026-03-15T10:19:14.000Z</time></trkpt>
<trkpt lat="41.727481" lon="23.484502"><ele>2695</ele><time>2026-03-15T10:19:15.000Z</time></trkpt>
<trkpt lat="41.727481" lon="23.484502"><ele>2695</ele><time>2026-03-15T10:19:16.000Z</time></trkpt>
<trkpt lat="41.727481" lon="23.484502"><ele>2695</ele><time>2026-03-15T10:19:17.000Z</time></trkpt>
<trkpt lat="41.72748" lon="23.484502"><ele>2695</ele><time>2026-03-15T10:19:18.000Z</time></trkpt>
<trkpt lat="41.72748" lon="23.484502"><ele>2695</ele><time>2026-03-15T10:19:19.000Z</time></trkpt>
<trkpt lat="41.72748" lon="23.484502"><ele>2695</ele><time>2026-03-15T10:19:20.000Z</time></trkpt>
<trkpt lat="41.72748" lon="23.484501"><ele>2695</ele><time>2026-03-15T10:19:21.000Z</time></trkpt>
<trkpt lat="41.72748" lon="23.484501"><ele>2695</ele><time>2026-03-15T10:19:22.000Z</time></trkpt>
<trkpt lat="41.72748" lon="23.4845"><ele>2695</ele><time>2026-03-15T10:19:23.000Z</time></trkpt>
<trkpt lat="41.727481" lon="23.484499"><ele>2695</ele><time>2026-03-15T10:19:24.000Z</time></trkpt>
<trkpt lat="41.727481" lon="23.484499"><ele>2695</ele><time>2026-03-15T10:19:25.000Z</time></trkpt>
<trkpt lat="41.727482" lon="23.484499"><ele>2695</ele><time>2026-03-15T10:19:26.000Z</time></trkpt>
<trkpt lat="41.727483" lon="23.484499"><ele>2695</ele><time>2026-03-15T10:19:27.000Z</time></trkpt>
<trkpt lat="41.727484" lon="23.4845"><ele>2695</ele><time>2026-03-15T10:19:28.000Z</time></trkpt>
<trkpt lat="41.727484" lon="23.4845"><ele>2695</ele><time>2026-03-15T10:19:29.000Z</time></trkpt>
<trkpt lat="41.727484" lon="23.4845"><ele>2695</ele><time>2026-03-15T10:19:30.000Z</time></trkpt>
<trkpt lat="41.727484" lon="23.4845"><ele>2694.8</ele><time>2026-03-15T10:19:31.000Z</time></trkpt>
<trkpt lat="41.727484" lon="23.4845"><ele>2694.8</ele><time>2026-03-15T10:19:32.000Z</time></trkpt>
<trkpt lat="41.727484" lon="23.484499"><ele>2694.8</ele><time>2026-03-15T10:19:33.000Z</time></trkpt>
<trkpt lat="41.727484" lon="23.484498"><ele>2694.8</ele><time>2026-03-15T10:19:34.000Z</time></trkpt>
<trkpt lat="41.727484" lon="23.484497"><ele>2694.8</ele><time>2026-03-15T10:19:35.000Z</time></trkpt>
<trkpt lat="41.727484" lon="23.484495"><ele>2694.4</ele><time>2026-03-15T10:19:36.000Z</time></trkpt>
<trkpt lat="41.727486" lon="23.484493"><ele>2694.4</ele><time>2026-03-15T10:19:37.000Z</time></trkpt>
<trkpt lat="41.727489" lon="23.484491"><ele>2694.4</ele><time>2026-03-15T10:19:38.000Z</time></trkpt>
<trkpt lat="41.727492" lon="23.484489"><ele>2694.4</ele><time>2026-03-15T10:19:39.000Z</time></trkpt>
<trkpt lat="41.727495" lon="23.484486"><ele>2694.4</ele><time>2026-03-15T10:19:40.000Z</time></trkpt>
<trkpt lat="41.7275" lon="23.484483"><ele>2694.2</ele><time>2026-03-15T10:19:41.000Z</time></trkpt>
<trkpt lat="41.727503" lon="23.484479"><ele>2694.2</ele><time>2026-03-15T10:19:42.000Z</time></trkpt>
<trkpt lat="41.727507" lon="23.484475"><ele>2694.2</ele><time>2026-03-15T10:19:43.000Z</time></trkpt>
<trkpt lat="41.727511" lon="23.484471"><ele>2694.2</ele><time>2026-03-15T10:19:44.000Z</time></trkpt>
<trkpt lat="41.727515" lon="23.484467"><ele>2694.2</ele><time>2026-03-15T10:19:45.000Z</time></trkpt>
<trkpt lat="41.727519" lon="23.484462"><ele>2694.3</ele><time>2026-03-15T10:19:46.000Z</time></trkpt>
<trkpt lat="41.727522" lon="23.484457"><ele>2694.3</ele><time>2026-03-15T10:19:47.000Z</time></trkpt>
<trkpt lat="41.727526" lon="23.484452"><ele>2694.3</ele><time>2026-03-15T10:19:48.000Z</time></trkpt>
<trkpt lat="41.727531" lon="23.484447"><ele>2694.3</ele><time>2026-03-15T10:19:49.000Z</time></trkpt>
<trkpt lat="41.727535" lon="23.484442"><ele>2694.3</ele><time>2026-03-15T10:19:50.000Z</time></trkpt>
<trkpt lat="41.727539" lon="23.484437"><ele>2694.9</ele><time>2026-03-15T10:19:51.000Z</time></trkpt>
<trkpt lat="41.727544" lon="23.484433"><ele>2694.9</ele><time>2026-03-15T10:19:52.000Z</time></trkpt>
<trkpt lat="41.727548" lon="23.48443"><ele>2694.9</ele><time>2026-03-15T10:19:53.000Z</time></trkpt>
<trkpt lat="41.727552" lon="23.484427"><ele>2694.9</ele><time>2026-03-15T10:19:54.000Z</time></trkpt>
<trkpt lat="41.727554" lon="23.484423"><ele>2694.9</ele><time>2026-03-15T10:19:55.000Z</time></trkpt>
<trkpt lat="41.727557" lon="23.48442"><ele>2695.4</ele><time>2026-03-15T10:19:56.000Z</time></trkpt>
<trkpt lat="41.727559" lon="23.484416"><ele>2695.4</ele><time>2026-03-15T10:19:57.000Z</time></trkpt>
<trkpt lat="41.727561" lon="23.484412"><ele>2695.4</ele><time>2026-03-15T10:19:58.000Z</time></trkpt>
<trkpt lat="41.727562" lon="23.484408"><ele>2695.4</ele><time>2026-03-15T10:19:59.000Z</time></trkpt>
<trkpt lat="41.727563" lon="23.484402"><ele>2695.4</ele><time>2026-03-15T10:20:00.000Z</time></trkpt>
<trkpt lat="41.727563" lon="23.484397"><ele>2696.4</ele><time>2026-03-15T10:20:01.000Z</time></trkpt>
<trkpt lat="41.727563" lon="23.484391"><ele>2696.4</ele><time>2026-03-15T10:20:02.000Z</time></trkpt>
<trkpt lat="41.727563" lon="23.484384"><ele>2696.4</ele><time>2026-03-15T10:20:03.000Z</time></trkpt>
<trkpt lat="41.727563" lon="23.484378"><ele>2696.4</ele><time>2026-03-15T10:20:04.000Z</time></trkpt>
<trkpt lat="41.727563" lon="23.484373"><ele>2696.4</ele><time>2026-03-15T10:20:05.000Z</time></trkpt>
<trkpt lat="41.727564" lon="23.484366"><ele>2697.6</ele><time>2026-03-15T10:20:06.000Z</time></trkpt>
<trkpt lat="41.727565" lon="23.48436"><ele>2697.6</ele><time>2026-03-15T10:20:07.000Z</time></trkpt>
<trkpt lat="41.727566" lon="23.484354"><ele>2697.6</ele><time>2026-03-15T10:20:08.000Z</time></trkpt>
<trkpt lat="41.727567" lon="23.484347"><ele>2697.6</ele><time>2026-03-15T10:20:09.000Z</time></trkpt>
<trkpt lat="41.727567" lon="23.484341"><ele>2697.6</ele><time>2026-03-15T10:20:10.000Z</time></trkpt>
<trkpt lat="41.727568" lon="23.484334"><ele>2698.1</ele><time>2026-03-15T10:20:11.000Z</time></trkpt>
<trkpt lat="41.727569" lon="23.48433"><ele>2698.1</ele><time>2026-03-15T10:20:12.000Z</time></trkpt>
<trkpt lat="41.72757" lon="23.484325"><ele>2698.1</ele><time>2026-03-15T10:20:13.000Z</time></trkpt>
<trkpt lat="41.72757" lon="23.484323"><ele>2698.1</ele><time>2026-03-15T10:20:14.000Z</time></trkpt>
<trkpt lat="41.727571" lon="23.484321"><ele>2698.1</ele><time>2026-03-15T10:20:15.000Z</time></trkpt>
<trkpt lat="41.727571" lon="23.484318"><ele>2699.2</ele><time>2026-03-15T10:20:16.000Z</time></trkpt>
<trkpt lat="41.727572" lon="23.484316"><ele>2699.2</ele><time>2026-03-15T10:20:17.000Z</time></trkpt>
<trkpt lat="41.727574" lon="23.484312"><ele>2699.2</ele><time>2026-03-15T10:20:18.000Z</time></trkpt>
<trkpt lat="41.727575" lon="23.484309"><ele>2699.2</ele><time>2026-03-15T10:20:19.000Z</time></trkpt>
<trkpt lat="41.727576" lon="23.484306"><ele>2699.2</ele><time>2026-03-15T10:20:20.000Z</time></trkpt>
<trkpt lat="41.727577" lon="23.484304"><ele>2700.1</ele><time>2026-03-15T10:20:21.000Z</time></trkpt>
<trkpt lat="41.727579" lon="23.4843"><ele>2700.1</ele><time>2026-03-15T10:20:22.000Z</time></trkpt>
<trkpt lat="41.727579" lon="23.484297"><ele>2700.1</ele><time>2026-03-15T10:20:23.000Z</time></trkpt>
<trkpt lat="41.727579" lon="23.484292"><ele>2700.1</ele><time>2026-03-15T10:20:24.000Z</time></trkpt>
<trkpt lat="41.72758" lon="23.484286"><ele>2700.1</ele><time>2026-03-15T10:20:25.000Z</time></trkpt>
<trkpt lat="41.727581" lon="23.484279"><ele>2700.6</ele><time>2026-03-15T10:20:26.000Z</time></trkpt>
<trkpt lat="41.727582" lon="23.484274"><ele>2700.6</ele><time>2026-03-15T10:20:27.000Z</time></trkpt>
<trkpt lat="41.727583" lon="23.484268"><ele>2700.6</ele><time>2026-03-15T10:20:28.000Z</time></trkpt>
<trkpt lat="41.727584" lon="23.484263"><ele>2700.6</ele><time>2026-03-15T10:20:29.000Z</time></trkpt>
<trkpt lat="41.727586" lon="23.484257"><ele>2700.6</ele><time>2026-03-15T10:20:30.000Z</time></trkpt>
<trkpt lat="41.727587" lon="23.48425"><ele>2701.5</ele><time>2026-03-15T10:20:31.000Z</time></trkpt>
<trkpt lat="41.727587" lon="23.484243"><ele>2701.5</ele><time>2026-03-15T10:20:32.000Z</time></trkpt>
<trkpt lat="41.727588" lon="23.484235"><ele>2701.5</ele><time>2026-03-15T10:20:33.000Z</time></trkpt>
<trkpt lat="41.727589" lon="23.484228"><ele>2701.5</ele><time>2026-03-15T10:20:34.000Z</time></trkpt>
<trkpt lat="41.72759" lon="23.484221"><ele>2701.5</ele><time>2026-03-15T10:20:35.000Z</time></trkpt>
<trkpt lat="41.727591" lon="23.484215"><ele>2702.5</ele><time>2026-03-15T10:20:36.000Z</time></trkpt>
<trkpt lat="41.727593" lon="23.48421"><ele>2702.5</ele><time>2026-03-15T10:20:37.000Z</time></trkpt>
<trkpt lat="41.727595" lon="23.484206"><ele>2702.5</ele><time>2026-03-15T10:20:38.000Z</time></trkpt>
<trkpt lat="41.727598" lon="23.484202"><ele>2702.5</ele><time>2026-03-15T10:20:39.000Z</time></trkpt>
<trkpt lat="41.7276" lon="23.484199"><ele>2702.5</ele><time>2026-03-15T10:20:40.000Z</time></trkpt>
<trkpt lat="41.727602" lon="23.484196"><ele>2703</ele><time>2026-03-15T10:20:41.000Z</time></trkpt>
<trkpt lat="41.727605" lon="23.484194"><ele>2703</ele><time>2026-03-15T10:20:42.000Z</time></trkpt>
<trkpt lat="41.727607" lon="23.48419"><ele>2703</ele><time>2026-03-15T10:20:43.000Z</time></trkpt>
<trkpt lat="41.727609" lon="23.484186"><ele>2703</ele><time>2026-03-15T10:20:44.000Z</time></trkpt>
<trkpt lat="41.727612" lon="23.484182"><ele>2703</ele><time>2026-03-15T10:20:45.000Z</time></trkpt>
<trkpt lat="41.727614" lon="23.484178"><ele>2703.9</ele><time>2026-03-15T10:20:46.000Z</time></trkpt>
<trkpt lat="41.727616" lon="23.484174"><ele>2703.9</ele><time>2026-03-15T10:20:47.000Z</time></trkpt>
<trkpt lat="41.727618" lon="23.48417"><ele>2703.9</ele><time>2026-03-15T10:20:48.000Z</time></trkpt>
<trkpt lat="41.72762" lon="23.484167"><ele>2703.9</ele><time>2026-03-15T10:20:49.000Z</time></trkpt>
<trkpt lat="41.727623" lon="23.484163"><ele>2703.9</ele><time>2026-03-15T10:20:50.000Z</time></trkpt>
<trkpt lat="41.727625" lon="23.484158"><ele>2704.8</ele><time>2026-03-15T10:20:51.000Z</time></trkpt>
<trkpt lat="41.727629" lon="23.484154"><ele>2704.8</ele><time>2026-03-15T10:20:52.000Z</time></trkpt>
<trkpt lat="41.727632" lon="23.484151"><ele>2704.8</ele><time>2026-03-15T10:20:53.000Z</time></trkpt>
<trkpt lat="41.727636" lon="23.484149"><ele>2704.8</ele><time>2026-03-15T10:20:54.000Z</time></trkpt>
<trkpt lat="41.727638" lon="23.484147"><ele>2704.8</ele><time>2026-03-15T10:20:55.000Z</time></trkpt>
<trkpt lat="41.727641" lon="23.484147"><ele>2705.3</ele><time>2026-03-15T10:20:56.000Z</time></trkpt>
<trkpt lat="41.727644" lon="23.484147"><ele>2705.3</ele><time>2026-03-15T10:20:57.000Z</time></trkpt>
<trkpt lat="41.727646" lon="23.484146"><ele>2705.3</ele><time>2026-03-15T10:20:58.000Z</time></trkpt>
<trkpt lat="41.727648" lon="23.484145"><ele>2705.3</ele><time>2026-03-15T10:20:59.000Z</time></trkpt>
<trkpt lat="41.72765" lon="23.484144"><ele>2705.3</ele><time>2026-03-15T10:21:00.000Z</time></trkpt>
<trkpt lat="41.727653" lon="23.484142"><ele>2706.2</ele><time>2026-03-15T10:21:01.000Z</time></trkpt>
<trkpt lat="41.727655" lon="23.48414"><ele>2706.2</ele><time>2026-03-15T10:21:02.000Z</time></trkpt>
<trkpt lat="41.727657" lon="23.484136"><ele>2706.2</ele><time>2026-03-15T10:21:03.000Z</time></trkpt>
<trkpt lat="41.727659" lon="23.484131"><ele>2706.2</ele><time>2026-03-15T10:21:04.000Z</time></trkpt>
<trkpt lat="41.727662" lon="23.484126"><ele>2706.2</ele><time>2026-03-15T10:21:05.000Z</time></trkpt>
<trkpt lat="41.727664" lon="23.484121"><ele>2707.1</ele><time>2026-03-15T10:21:06.000Z</time></trkpt>
<trkpt lat="41.727667" lon="23.484116"><ele>2707.1</ele><time>2026-03-15T10:21:07.000Z</time></trkpt>
<trkpt lat="41.727671" lon="23.484112"><ele>2707.1</ele><time>2026-03-15T10:21:08.000Z</time></trkpt>
<trkpt lat="41.727675" lon="23.484109"><ele>2707.1</ele><time>2026-03-15T10:21:09.000Z</time></trkpt>
<trkpt lat="41.727679" lon="23.484107"><ele>2707.1</ele><time>2026-03-15T10:21:10.000Z</time></trkpt>
<trkpt lat="41.727682" lon="23.484105"><ele>2707.6</ele><time>2026-03-15T10:21:11.000Z</time></trkpt>
<trkpt lat="41.727686" lon="23.484103"><ele>2707.6</ele><time>2026-03-15T10:21:12.000Z</time></trkpt>
<trkpt lat="41.727689" lon="23.484101"><ele>2707.6</ele><time>2026-03-15T10:21:13.000Z</time></trkpt>
<trkpt lat="41.72769" lon="23.484099"><ele>2707.6</ele><time>2026-03-15T10:21:14.000Z</time></trkpt>
<trkpt lat="41.727691" lon="23.484096"><ele>2707.6</ele><time>2026-03-15T10:21:15.000Z</time></trkpt>
<trkpt lat="41.727692" lon="23.484093"><ele>2708.6</ele><time>2026-03-15T10:21:16.000Z</time></trkpt>
<trkpt lat="41.727692" lon="23.48409"><ele>2708.6</ele><time>2026-03-15T10:21:17.000Z</time></trkpt>
<trkpt lat="41.727693" lon="23.484087"><ele>2708.6</ele><time>2026-03-15T10:21:18.000Z</time></trkpt>
<trkpt lat="41.727694" lon="23.484085"><ele>2708.6</ele><time>2026-03-15T10:21:19.000Z</time></trkpt>
<trkpt lat="41.727696" lon="23.484083"><ele>2708.6</ele><time>2026-03-15T10:21:20.000Z</time></trkpt>
<trkpt lat="41.727697" lon="23.48408"><ele>2709.6</ele><time>2026-03-15T10:21:21.000Z</time></trkpt>
<trkpt lat="41.727698" lon="23.484077"><ele>2709.6</ele><time>2026-03-15T10:21:22.000Z</time></trkpt>
<trkpt lat="41.727699" lon="23.484074"><ele>2709.6</ele><time>2026-03-15T10:21:23.000Z</time></trkpt>
<trkpt lat="41.727699" lon="23.484069"><ele>2709.6</ele><time>2026-03-15T10:21:24.000Z</time></trkpt>
<trkpt lat="41.727701" lon="23.484064"><ele>2709.6</ele><time>2026-03-15T10:21:25.000Z</time></trkpt>
<trkpt lat="41.727703" lon="23.484059"><ele>2710.1</ele><time>2026-03-15T10:21:26.000Z</time></trkpt>
<trkpt lat="41.727705" lon="23.484054"><ele>2710.1</ele><time>2026-03-15T10:21:27.000Z</time></trkpt>
<trkpt lat="41.727708" lon="23.484048"><ele>2710.1</ele><time>2026-03-15T10:21:28.000Z</time></trkpt>
<trkpt lat="41.72771" lon="23.484045"><ele>2710.1</ele><time>2026-03-15T10:21:29.000Z</time></trkpt>
<trkpt lat="41.727713" lon="23.484039"><ele>2710.1</ele><time>2026-03-15T10:21:30.000Z</time></trkpt>
<trkpt lat="41.727715" lon="23.484036"><ele>2710.7</ele><time>2026-03-15T10:21:31.000Z</time></trkpt>
<trkpt lat="41.727718" lon="23.484033"><ele>2710.7</ele><time>2026-03-15T10:21:32.000Z</time></trkpt>
<trkpt lat="41.72772" lon="23.48403"><ele>2710.7</ele><time>2026-03-15T10:21:33.000Z</time></trkpt>
<trkpt lat="41.727723" lon="23.484027"><ele>2710.7</ele><time>2026-03-15T10:21:34.000Z</time></trkpt>
<trkpt lat="41.727724" lon="23.484024"><ele>2710.7</ele><time>2026-03-15T10:21:35.000Z</time></trkpt>
<trkpt lat="41.727726" lon="23.48402"><ele>2711.2</ele><time>2026-03-15T10:21:36.000Z</time></trkpt>
<trkpt lat="41.727726" lon="23.484014"><ele>2711.2</ele><time>2026-03-15T10:21:37.000Z</time></trkpt>
<trkpt lat="41.727727" lon="23.484007"><ele>2711.2</ele><time>2026-03-15T10:21:38.000Z</time></trkpt>
<trkpt lat="41.727728" lon="23.484002"><ele>2711.2</ele><time>2026-03-15T10:21:39.000Z</time></trkpt>
<trkpt lat="41.727729" lon="23.483996"><ele>2711.2</ele><time>2026-03-15T10:21:40.000Z</time></trkpt>
<trkpt lat="41.72773" lon="23.48399"><ele>2711.5</ele><time>2026-03-15T10:21:41.000Z</time></trkpt>
<trkpt lat="41.727731" lon="23.483984"><ele>2711.5</ele><time>2026-03-15T10:21:42.000Z</time></trkpt>
<trkpt lat="41.727732" lon="23.483979"><ele>2711.5</ele><time>2026-03-15T10:21:43.000Z</time></trkpt>
<trkpt lat="41.727734" lon="23.483973"><ele>2711.5</ele><time>2026-03-15T10:21:44.000Z</time></trkpt>
<trkpt lat="41.727735" lon="23.483968"><ele>2711.5</ele><time>2026-03-15T10:21:45.000Z</time></trkpt>
<trkpt lat="41.727736" lon="23.483962"><ele>2712.2</ele><time>2026-03-15T10:21:46.000Z</time></trkpt>
<trkpt lat="41.727737" lon="23.483956"><ele>2712.2</ele><time>2026-03-15T10:21:47.000Z</time></trkpt>
<trkpt lat="41.727738" lon="23.48395"><ele>2712.2</ele><time>2026-03-15T10:21:48.000Z</time></trkpt>
<trkpt lat="41.727739" lon="23.483944"><ele>2712.2</ele><time>2026-03-15T10:21:49.000Z</time></trkpt>
<trkpt lat="41.72774" lon="23.483938"><ele>2712.2</ele><time>2026-03-15T10:21:50.000Z</time></trkpt>
<trkpt lat="41.72774" lon="23.483932"><ele>2713.1</ele><time>2026-03-15T10:21:51.000Z</time></trkpt>
<trkpt lat="41.727741" lon="23.483924"><ele>2713.1</ele><time>2026-03-15T10:21:52.000Z</time></trkpt>
<trkpt lat="41.727741" lon="23.483918"><ele>2713.1</ele><time>2026-03-15T10:21:53.000Z</time></trkpt>
<trkpt lat="41.727742" lon="23.483911"><ele>2713.1</ele><time>2026-03-15T10:21:54.000Z</time></trkpt>
<trkpt lat="41.727744" lon="23.483902"><ele>2713.1</ele><time>2026-03-15T10:21:55.000Z</time></trkpt>
<trkpt lat="41.727745" lon="23.483895"><ele>2713.5</ele><time>2026-03-15T10:21:56.000Z</time></trkpt>
<trkpt lat="41.727747" lon="23.483889"><ele>2713.5</ele><time>2026-03-15T10:21:57.000Z</time></trkpt>
<trkpt lat="41.727749" lon="23.483882"><ele>2713.5</ele><time>2026-03-15T10:21:58.000Z</time></trkpt>
<trkpt lat="41.727752" lon="23.483875"><ele>2713.5</ele><time>2026-03-15T10:21:59.000Z</time></trkpt>
<trkpt lat="41.727753" lon="23.483868"><ele>2713.5</ele><time>2026-03-15T10:22:00.000Z</time></trkpt>
<trkpt lat="41.727755" lon="23.48386"><ele>2714.3</ele><time>2026-03-15T10:22:01.000Z</time></trkpt>
<trkpt lat="41.727756" lon="23.483852"><ele>2714.3</ele><time>2026-03-15T10:22:02.000Z</time></trkpt>
<trkpt lat="41.727756" lon="23.483845"><ele>2714.3</ele><time>2026-03-15T10:22:03.000Z</time></trkpt>
<trkpt lat="41.727757" lon="23.483836"><ele>2714.3</ele><time>2026-03-15T10:22:04.000Z</time></trkpt>
<trkpt lat="41.727757" lon="23.483829"><ele>2714.3</ele><time>2026-03-15T10:22:05.000Z</time></trkpt>
<trkpt lat="41.727759" lon="23.483821"><ele>2715</ele><time>2026-03-15T10:22:06.000Z</time></trkpt>
<trkpt lat="41.72776" lon="23.483815"><ele>2715</ele><time>2026-03-15T10:22:07.000Z</time></trkpt>
<trkpt lat="41.727762" lon="23.483807"><ele>2715</ele><time>2026-03-15T10:22:08.000Z</time></trkpt>
<trkpt lat="41.727762" lon="23.4838"><ele>2715</ele><time>2026-03-15T10:22:09.000Z</time></trkpt>
<trkpt lat="41.727764" lon="23.483793"><ele>2715</ele><time>2026-03-15T10:22:10.000Z</time></trkpt>
<trkpt lat="41.727764" lon="23.483786"><ele>2715.4</ele><time>2026-03-15T10:22:11.000Z</time></trkpt>
<trkpt lat="41.727766" lon="23.483778"><ele>2715.4</ele><time>2026-03-15T10:22:12.000Z</time></trkpt>
<trkpt lat="41.727768" lon="23.483772"><ele>2715.4</ele><time>2026-03-15T10:22:13.000Z</time></trkpt>
<trkpt lat="41.72777" lon="23.483766"><ele>2715.4</ele><time>2026-03-15T10:22:14.000Z</time></trkpt>
<trkpt lat="41.727773" lon="23.483761"><ele>2715.4</ele><time>2026-03-15T10:22:15.000Z</time></trkpt>
<trkpt lat="41.727775" lon="23.483757"><ele>2716.4</ele><time>2026-03-15T10:22:16.000Z</time></trkpt>
<trkpt lat="41.727778" lon="23.483753"><ele>2716.4</ele><time>2026-03-15T10:22:17.000Z</time></trkpt>
<trkpt lat="41.727781" lon="23.48375"><ele>2716.4</ele><time>2026-03-15T10:22:18.000Z</time></trkpt>
<trkpt lat="41.727783" lon="23.483748"><ele>2716.4</ele><time>2026-03-15T10:22:19.000Z</time></trkpt>
<trkpt lat="41.727785" lon="23.483745"><ele>2716.4</ele><time>2026-03-15T10:22:20.000Z</time></trkpt>
<trkpt lat="41.727788" lon="23.483743"><ele>2717.3</ele><time>2026-03-15T10:22:21.000Z</time></trkpt>
<trkpt lat="41.727789" lon="23.483742"><ele>2717.3</ele><time>2026-03-15T10:22:22.000Z</time></trkpt>
<trkpt lat="41.727791" lon="23.483741"><ele>2717.3</ele><time>2026-03-15T10:22:23.000Z</time></trkpt>
<trkpt lat="41.727794" lon="23.48374"><ele>2717.3</ele><time>2026-03-15T10:22:24.000Z</time></trkpt>
<trkpt lat="41.727797" lon="23.48374"><ele>2717.3</ele><time>2026-03-15T10:22:25.000Z</time></trkpt>
<trkpt lat="41.7278" lon="23.483741"><ele>2717.9</ele><time>2026-03-15T10:22:26.000Z</time></trkpt>
<trkpt lat="41.727803" lon="23.483741"><ele>2717.9</ele><time>2026-03-15T10:22:27.000Z</time></trkpt>
<trkpt lat="41.727807" lon="23.483742"><ele>2717.9</ele><time>2026-03-15T10:22:28.000Z</time></trkpt>
<trkpt lat="41.72781" lon="23.483742"><ele>2717.9</ele><time>2026-03-15T10:22:29.000Z</time></trkpt>
<trkpt lat="41.727812" lon="23.483741"><ele>2717.9</ele><time>2026-03-15T10:22:30.000Z</time></trkpt>
<trkpt lat="41.727815" lon="23.48374"><ele>2719.1</ele><time>2026-03-15T10:22:31.000Z</time></trkpt>
<trkpt lat="41.727816" lon="23.483738"><ele>2719.1</ele><time>2026-03-15T10:22:32.000Z</time></trkpt>
<trkpt lat="41.727818" lon="23.483736"><ele>2719.1</ele><time>2026-03-15T10:22:33.000Z</time></trkpt>
<trkpt lat="41.727819" lon="23.483733"><ele>2719.1</ele><time>2026-03-15T10:22:34.000Z</time></trkpt>
<trkpt lat="41.727819" lon="23.48373"><ele>2719.1</ele><time>2026-03-15T10:22:35.000Z</time></trkpt>
<trkpt lat="41.72782" lon="23.483727"><ele>2720.4</ele><time>2026-03-15T10:22:36.000Z</time></trkpt>
<trkpt lat="41.727821" lon="23.483724"><ele>2720.4</ele><time>2026-03-15T10:22:37.000Z</time></trkpt>
<trkpt lat="41.727823" lon="23.483721"><ele>2720.4</ele><time>2026-03-15T10:22:38.000Z</time></trkpt>
<trkpt lat="41.727824" lon="23.483719"><ele>2720.4</ele><time>2026-03-15T10:22:39.000Z</time></trkpt>
<trkpt lat="41.727825" lon="23.483716"><ele>2720.4</ele><time>2026-03-15T10:22:40.000Z</time></trkpt>
<trkpt lat="41.727827" lon="23.483714"><ele>2720.9</ele><time>2026-03-15T10:22:41.000Z</time></trkpt>
<trkpt lat="41.727828" lon="23.483711"><ele>2720.9</ele><time>2026-03-15T10:22:42.000Z</time></trkpt>
<trkpt lat="41.72783" lon="23.483709"><ele>2720.9</ele><time>2026-03-15T10:22:43.000Z</time></trkpt>
<trkpt lat="41.727832" lon="23.483706"><ele>2720.9</ele><time>2026-03-15T10:22:44.000Z</time></trkpt>
<trkpt lat="41.727834" lon="23.483703"><ele>2720.9</ele><time>2026-03-15T10:22:45.000Z</time></trkpt>
<trkpt lat="41.727836" lon="23.4837"><ele>2721.8</ele><time>2026-03-15T10:22:46.000Z</time></trkpt>
<trkpt lat="41.727837" lon="23.483697"><ele>2721.8</ele><time>2026-03-15T10:22:47.000Z</time></trkpt>
<trkpt lat="41.727838" lon="23.483694"><ele>2721.8</ele><time>2026-03-15T10:22:48.000Z</time></trkpt>
<trkpt lat="41.72784" lon="23.483691"><ele>2721.8</ele><time>2026-03-15T10:22:49.000Z</time></trkpt>
<trkpt lat="41.727841" lon="23.483687"><ele>2721.8</ele><time>2026-03-15T10:22:50.000Z</time></trkpt>
<trkpt lat="41.727843" lon="23.483684"><ele>2722.6</ele><time>2026-03-15T10:22:51.000Z</time></trkpt>
<trkpt lat="41.727843" lon="23.48368"><ele>2722.6</ele><time>2026-03-15T10:22:52.000Z</time></trkpt>
<trkpt lat="41.727844" lon="23.483676"><ele>2722.6</ele><time>2026-03-15T10:22:53.000Z</time></trkpt>
<trkpt lat="41.727845" lon="23.483672"><ele>2722.6</ele><time>2026-03-15T10:22:54.000Z</time></trkpt>
<trkpt lat="41.727846" lon="23.483668"><ele>2722.6</ele><time>2026-03-15T10:22:55.000Z</time></trkpt>
<trkpt lat="41.727847" lon="23.483663"><ele>2723</ele><time>2026-03-15T10:22:56.000Z</time></trkpt>
<trkpt lat="41.727849" lon="23.483659"><ele>2723</ele><time>2026-03-15T10:22:57.000Z</time></trkpt>
<trkpt lat="41.727851" lon="23.483655"><ele>2723</ele><time>2026-03-15T10:22:58.000Z</time></trkpt>
<trkpt lat="41.727852" lon="23.48365"><ele>2723</ele><time>2026-03-15T10:22:59.000Z</time></trkpt>
<trkpt lat="41.727854" lon="23.483645"><ele>2723</ele><time>2026-03-15T10:23:00.000Z</time></trkpt>
<trkpt lat="41.727856" lon="23.483642"><ele>2723.8</ele><time>2026-03-15T10:23:01.000Z</time></trkpt>
<trkpt lat="41.727859" lon="23.48364"><ele>2723.8</ele><time>2026-03-15T10:23:02.000Z</time></trkpt>
<trkpt lat="41.727861" lon="23.483639"><ele>2723.8</ele><time>2026-03-15T10:23:03.000Z</time></trkpt>
<trkpt lat="41.727864" lon="23.483638"><ele>2723.8</ele><time>2026-03-15T10:23:04.000Z</time></trkpt>
<trkpt lat="41.727867" lon="23.483638"><ele>2723.8</ele><time>2026-03-15T10:23:05.000Z</time></trkpt>
<trkpt lat="41.727869" lon="23.483639"><ele>2724.5</ele><time>2026-03-15T10:23:06.000Z</time></trkpt>
<trkpt lat="41.727872" lon="23.483639"><ele>2724.5</ele><time>2026-03-15T10:23:07.000Z</time></trkpt>
<trkpt lat="41.727875" lon="23.483639"><ele>2724.5</ele><time>2026-03-15T10:23:08.000Z</time></trkpt>
<trkpt lat="41.727878" lon="23.483639"><ele>2724.5</ele><time>2026-03-15T10:23:09.000Z</time></trkpt>
<trkpt lat="41.72788" lon="23.48364"><ele>2724.5</ele><time>2026-03-15T10:23:10.000Z</time></trkpt>
<trkpt lat="41.727883" lon="23.483641"><ele>2724.9</ele><time>2026-03-15T10:23:11.000Z</time></trkpt>
<trkpt lat="41.727886" lon="23.483642"><ele>2724.9</ele><time>2026-03-15T10:23:12.000Z</time></trkpt>
<trkpt lat="41.727889" lon="23.483642"><ele>2724.9</ele><time>2026-03-15T10:23:13.000Z</time></trkpt>
<trkpt lat="41.727891" lon="23.483643"><ele>2724.9</ele><time>2026-03-15T10:23:14.000Z</time></trkpt>
<trkpt lat="41.727892" lon="23.483644"><ele>2724.9</ele><time>2026-03-15T10:23:15.000Z</time></trkpt>
<trkpt lat="41.727894" lon="23.483645"><ele>2725.7</ele><time>2026-03-15T10:23:16.000Z</time></trkpt>
<trkpt lat="41.727896" lon="23.483646"><ele>2725.7</ele><time>2026-03-15T10:23:17.000Z</time></trkpt>
<trkpt lat="41.727898" lon="23.483647"><ele>2725.7</ele><time>2026-03-15T10:23:18.000Z</time></trkpt>
<trkpt lat="41.727902" lon="23.483649"><ele>2725.7</ele><time>2026-03-15T10:23:19.000Z</time></trkpt>
<trkpt lat="41.727905" lon="23.48365"><ele>2725.7</ele><time>2026-03-15T10:23:20.000Z</time></trkpt>
<trkpt lat="41.727908" lon="23.48365"><ele>2726.6</ele><time>2026-03-15T10:23:21.000Z</time></trkpt>
<trkpt lat="41.727911" lon="23.483649"><ele>2726.6</ele><time>2026-03-15T10:23:22.000Z</time></trkpt>
<trkpt lat="41.727913" lon="23.483648"><ele>2726.6</ele><time>2026-03-15T10:23:23.000Z</time></trkpt>
<trkpt lat="41.727915" lon="23.483646"><ele>2726.6</ele><time>2026-03-15T10:23:24.000Z</time></trkpt>
<trkpt lat="41.727916" lon="23.483643"><ele>2726.6</ele><time>2026-03-15T10:23:25.000Z</time></trkpt>
<trkpt lat="41.727917" lon="23.48364"><ele>2726.9</ele><time>2026-03-15T10:23:26.000Z</time></trkpt>
<trkpt lat="41.727917" lon="23.483637"><ele>2726.9</ele><time>2026-03-15T10:23:27.000Z</time></trkpt>
<trkpt lat="41.727917" lon="23.483633"><ele>2726.9</ele><time>2026-03-15T10:23:28.000Z</time></trkpt>
<trkpt lat="41.727917" lon="23.48363"><ele>2726.9</ele><time>2026-03-15T10:23:29.000Z</time></trkpt>
<trkpt lat="41.727918" lon="23.483625"><ele>2726.9</ele><time>2026-03-15T10:23:30.000Z</time></trkpt>
<trkpt lat="41.727918" lon="23.483622"><ele>2727.4</ele><time>2026-03-15T10:23:31.000Z</time></trkpt>
<trkpt lat="41.727919" lon="23.483619"><ele>2727.4</ele><time>2026-03-15T10:23:32.000Z</time></trkpt>
<trkpt lat="41.727919" lon="23.483617"><ele>2727.4</ele><time>2026-03-15T10:23:33.000Z</time></trkpt>
<trkpt lat="41.727921" lon="23.483614"><ele>2727.4</ele><time>2026-03-15T10:23:34.000Z</time></trkpt>
<trkpt lat="41.727922" lon="23.483612"><ele>2727.4</ele><time>2026-03-15T10:23:35.000Z</time></trkpt>
<trkpt lat="41.727924" lon="23.483609"><ele>2727.9</ele><time>2026-03-15T10:23:36.000Z</time></trkpt>
<trkpt lat="41.727925" lon="23.483606"><ele>2727.9</ele><time>2026-03-15T10:23:37.000Z</time></trkpt>
<trkpt lat="41.727927" lon="23.483602"><ele>2727.9</ele><time>2026-03-15T10:23:38.000Z</time></trkpt>
<trkpt lat="41.727928" lon="23.483599"><ele>2727.9</ele><time>2026-03-15T10:23:39.000Z</time></trkpt>
<trkpt lat="41.727929" lon="23.483597"><ele>2727.9</ele><time>2026-03-15T10:23:40.000Z</time></trkpt>
<trkpt lat="41.72793" lon="23.483594"><ele>2728.2</ele><time>2026-03-15T10:23:41.000Z</time></trkpt>
<trkpt lat="41.727931" lon="23.483592"><ele>2728.2</ele><time>2026-03-15T10:23:42.000Z</time></trkpt>
<trkpt lat="41.727932" lon="23.483589"><ele>2728.2</ele><time>2026-03-15T10:23:43.000Z</time></trkpt>
<trkpt lat="41.727934" lon="23.483587"><ele>2728.2</ele><time>2026-03-15T10:23:44.000Z</time></trkpt>
<trkpt lat="41.727936" lon="23.483583"><ele>2728.2</ele><time>2026-03-15T10:23:45.000Z</time></trkpt>
<trkpt lat="41.727938" lon="23.48358"><ele>2728.7</ele><time>2026-03-15T10:23:46.000Z</time></trkpt>
<trkpt lat="41.727939" lon="23.483577"><ele>2728.7</ele><time>2026-03-15T10:23:47.000Z</time></trkpt>
<trkpt lat="41.72794" lon="23.483573"><ele>2728.7</ele><time>2026-03-15T10:23:48.000Z</time></trkpt>
<trkpt lat="41.727941" lon="23.48357"><ele>2728.7</ele><time>2026-03-15T10:23:49.000Z</time></trkpt>
<trkpt lat="41.727942" lon="23.483568"><ele>2728.7</ele><time>2026-03-15T10:23:50.000Z</time></trkpt>
<trkpt lat="41.727943" lon="23.483565"><ele>2729.4</ele><time>2026-03-15T10:23:51.000Z</time></trkpt>
<trkpt lat="41.727944" lon="23.483562"><ele>2729.4</ele><time>2026-03-15T10:23:52.000Z</time></trkpt>
<trkpt lat="41.727945" lon="23.48356"><ele>2729.4</ele><time>2026-03-15T10:23:53.000Z</time></trkpt>
<trkpt lat="41.727946" lon="23.483558"><ele>2729.4</ele><time>2026-03-15T10:23:54.000Z</time></trkpt>
<trkpt lat="41.727946" lon="23.483557"><ele>2729.4</ele><time>2026-03-15T10:23:55.000Z</time></trkpt>
<trkpt lat="41.727948" lon="23.483555"><ele>2729.8</ele><time>2026-03-15T10:23:56.000Z</time></trkpt>
<trkpt lat="41.727949" lon="23.483553"><ele>2729.8</ele><time>2026-03-15T10:23:57.000Z</time></trkpt>
<trkpt lat="41.727951" lon="23.483551"><ele>2729.8</ele><time>2026-03-15T10:23:58.000Z</time></trkpt>
<trkpt lat="41.727952" lon="23.48355"><ele>2729.8</ele><time>2026-03-15T10:23:59.000Z</time></trkpt>
<trkpt lat="41.727955" lon="23.483549"><ele>2729.8</ele><time>2026-03-15T10:24:00.000Z</time></trkpt>
<trkpt lat="41.727956" lon="23.483547"><ele>2730.6</ele><time>2026-03-15T10:24:01.000Z</time></trkpt>
<trkpt lat="41.727958" lon="23.483547"><ele>2730.6</ele><time>2026-03-15T10:24:02.000Z</time></trkpt>
<trkpt lat="41.727959" lon="23.483546"><ele>2730.6</ele><time>2026-03-15T10:24:03.000Z</time></trkpt>
<trkpt lat="41.727961" lon="23.483545"><ele>2730.6</ele><time>2026-03-15T10:24:04.000Z</time></trkpt>
<trkpt lat="41.727963" lon="23.483544"><ele>2730.6</ele><time>2026-03-15T10:24:05.000Z</time></trkpt>
<trkpt lat="41.727965" lon="23.483542"><ele>2731.4</ele><time>2026-03-15T10:24:06.000Z</time></trkpt>
<trkpt lat="41.727968" lon="23.48354"><ele>2731.4</ele><time>2026-03-15T10:24:07.000Z</time></trkpt>
<trkpt lat="41.727971" lon="23.483538"><ele>2731.4</ele><time>2026-03-15T10:24:08.000Z</time></trkpt>
<trkpt lat="41.727974" lon="23.483535"><ele>2731.4</ele><time>2026-03-15T10:24:09.000Z</time></trkpt>
<trkpt lat="41.727976" lon="23.483532"><ele>2731.4</ele><time>2026-03-15T10:24:10.000Z</time></trkpt>
<trkpt lat="41.72798" lon="23.48353"><ele>2731.8</ele><time>2026-03-15T10:24:11.000Z</time></trkpt>
<trkpt lat="41.727982" lon="23.483527"><ele>2731.8</ele><time>2026-03-15T10:24:12.000Z</time></trkpt>
<trkpt lat="41.727984" lon="23.483526"><ele>2731.8</ele><time>2026-03-15T10:24:13.000Z</time></trkpt>
<trkpt lat="41.727987" lon="23.483524"><ele>2731.8</ele><time>2026-03-15T10:24:14.000Z</time></trkpt>
<trkpt lat="41.727989" lon="23.483522"><ele>2731.8</ele><time>2026-03-15T10:24:15.000Z</time></trkpt>
<trkpt lat="41.72799" lon="23.48352"><ele>2732.6</ele><time>2026-03-15T10:24:16.000Z</time></trkpt>
<trkpt lat="41.727991" lon="23.483517"><ele>2732.6</ele><time>2026-03-15T10:24:17.000Z</time></trkpt>
<trkpt lat="41.727992" lon="23.483514"><ele>2732.6</ele><time>2026-03-15T10:24:18.000Z</time></trkpt>
<trkpt lat="41.727994" lon="23.483511"><ele>2732.6</ele><time>2026-03-15T10:24:19.000Z</time></trkpt>
<trkpt lat="41.727995" lon="23.483507"><ele>2732.6</ele><time>2026-03-15T10:24:20.000Z</time></trkpt>
<trkpt lat="41.727997" lon="23.483504"><ele>2733.4</ele><time>2026-03-15T10:24:21.000Z</time></trkpt>
<trkpt lat="41.728" lon="23.483501"><ele>2733.4</ele><time>2026-03-15T10:24:22.000Z</time></trkpt>
<trkpt lat="41.728003" lon="23.483498"><ele>2733.4</ele><time>2026-03-15T10:24:23.000Z</time></trkpt>
<trkpt lat="41.728007" lon="23.483493"><ele>2733.4</ele><time>2026-03-15T10:24:24.000Z</time></trkpt>
<trkpt lat="41.728009" lon="23.483489"><ele>2733.4</ele><time>2026-03-15T10:24:25.000Z</time></trkpt>
<trkpt lat="41.728012" lon="23.483484"><ele>2733.9</ele><time>2026-03-15T10:24:26.000Z</time></trkpt>
<trkpt lat="41.728014" lon="23.48348"><ele>2733.9</ele><time>2026-03-15T10:24:27.000Z</time></trkpt>
<trkpt lat="41.728016" lon="23.483476"><ele>2733.9</ele><time>2026-03-15T10:24:28.000Z</time></trkpt>
<trkpt lat="41.728018" lon="23.483473"><ele>2733.9</ele><time>2026-03-15T10:24:29.000Z</time></trkpt>
<trkpt lat="41.728021" lon="23.48347"><ele>2733.9</ele><time>2026-03-15T10:24:30.000Z</time></trkpt>
<trkpt lat="41.728024" lon="23.483467"><ele>2734.9</ele><time>2026-03-15T10:24:31.000Z</time></trkpt>
<trkpt lat="41.728026" lon="23.483464"><ele>2734.9</ele><time>2026-03-15T10:24:32.000Z</time></trkpt>
<trkpt lat="41.728029" lon="23.48346"><ele>2734.9</ele><time>2026-03-15T10:24:33.000Z</time></trkpt>
<trkpt lat="41.728031" lon="23.483456"><ele>2734.9</ele><time>2026-03-15T10:24:34.000Z</time></trkpt>
<trkpt lat="41.728034" lon="23.483451"><ele>2734.9</ele><time>2026-03-15T10:24:35.000Z</time></trkpt>
<trkpt lat="41.728037" lon="23.483447"><ele>2735.8</ele><time>2026-03-15T10:24:36.000Z</time></trkpt>
<trkpt lat="41.72804" lon="23.483443"><ele>2735.8</ele><time>2026-03-15T10:24:37.000Z</time></trkpt>
<trkpt lat="41.728042" lon="23.483439"><ele>2735.8</ele><time>2026-03-15T10:24:38.000Z</time></trkpt>
<trkpt lat="41.728044" lon="23.483435"><ele>2735.8</ele><time>2026-03-15T10:24:39.000Z</time></trkpt>
<trkpt lat="41.728046" lon="23.483431"><ele>2735.8</ele><time>2026-03-15T10:24:40.000Z</time></trkpt>
<trkpt lat="41.728049" lon="23.483428"><ele>2736.2</ele><time>2026-03-15T10:24:41.000Z</time></trkpt>
<trkpt lat="41.72805" lon="23.483425"><ele>2736.2</ele><time>2026-03-15T10:24:42.000Z</time></trkpt>
<trkpt lat="41.728052" lon="23.483424"><ele>2736.2</ele><time>2026-03-15T10:24:43.000Z</time></trkpt>
<trkpt lat="41.728052" lon="23.483424"><ele>2736.2</ele><time>2026-03-15T10:24:44.000Z</time></trkpt>
<trkpt lat="41.728052" lon="23.483423"><ele>2736.2</ele><time>2026-03-15T10:24:45.000Z</time></trkpt>
<trkpt lat="41.728051" lon="23.483423"><ele>2737</ele><time>2026-03-15T10:24:46.000Z</time></trkpt>
<trkpt lat="41.72805" lon="23.483423"><ele>2737</ele><time>2026-03-15T10:24:47.000Z</time></trkpt>
<trkpt lat="41.728049" lon="23.483423"><ele>2737</ele><time>2026-03-15T10:24:48.000Z</time></trkpt>
<trkpt lat="41.728048" lon="23.483423"><ele>2737</ele><time>2026-03-15T10:24:49.000Z</time></trkpt>
<trkpt lat="41.728048" lon="23.483424"><ele>2737</ele><time>2026-03-15T10:24:50.000Z</time></trkpt>
<trkpt lat="41.728048" lon="23.483424"><ele>2737.8</ele><time>2026-03-15T10:24:51.000Z</time></trkpt>
<trkpt lat="41.728048" lon="23.483425"><ele>2737.8</ele><time>2026-03-15T10:24:52.000Z</time></trkpt>
<trkpt lat="41.728047" lon="23.483424"><ele>2737.8</ele><time>2026-03-15T10:24:53.000Z</time></trkpt>
<trkpt lat="41.728047" lon="23.483424"><ele>2737.8</ele><time>2026-03-15T10:24:54.000Z</time></trkpt>
<trkpt lat="41.728047" lon="23.483424"><ele>2737.8</ele><time>2026-03-15T10:24:55.000Z</time></trkpt>
<trkpt lat="41.728047" lon="23.483424"><ele>2738.1</ele><time>2026-03-15T10:24:56.000Z</time></trkpt>
<trkpt lat="41.728047" lon="23.483424"><ele>2738.1</ele><time>2026-03-15T10:24:57.000Z</time></trkpt>
<trkpt lat="41.728046" lon="23.483425"><ele>2738.1</ele><time>2026-03-15T10:24:58.000Z</time></trkpt>
<trkpt lat="41.728046" lon="23.483425"><ele>2738.1</ele><time>2026-03-15T10:24:59.000Z</time></trkpt>
<trkpt lat="41.728046" lon="23.483425"><ele>2738.1</ele><time>2026-03-15T10:25:00.000Z</time></trkpt>
<trkpt lat="41.728046" lon="23.483425"><ele>2738.5</ele><time>2026-03-15T10:25:01.000Z</time></trkpt>
<trkpt lat="41.728047" lon="23.483425"><ele>2738.5</ele><time>2026-03-15T10:25:02.000Z</time></trkpt>
<trkpt lat="41.728047" lon="23.483425"><ele>2738.5</ele><time>2026-03-15T10:25:03.000Z</time></trkpt>
<trkpt lat="41.728047" lon="23.483425"><ele>2738.5</ele><time>2026-03-15T10:25:04.000Z</time></trkpt>
<trkpt lat="41.728047" lon="23.483425"><ele>2738.5</ele><time>2026-03-15T10:25:05.000Z</time></trkpt>
<trkpt lat="41.728047" lon="23.483425"><ele>2738.5</ele><time>2026-03-15T10:25:06.000Z</time></trkpt>
<trkpt lat="41.728047" lon="23.483424"><ele>2738.5</ele><time>2026-03-15T10:25:07.000Z</time></trkpt>
<trkpt lat="41.728047" lon="23.483423"><ele>2738.5</ele><time>2026-03-15T10:25:08.000Z</time></trkpt>
<trkpt lat="41.728049" lon="23.48342"><ele>2738.5</ele><time>2026-03-15T10:25:09.000Z</time></trkpt>
<trkpt lat="41.728051" lon="23.483417"><ele>2738.5</ele><time>2026-03-15T10:25:10.000Z</time></trkpt>
<trkpt lat="41.728054" lon="23.483412"><ele>2738.5</ele><time>2026-03-15T10:25:11.000Z</time></trkpt>
<trkpt lat="41.728057" lon="23.483407"><ele>2738.5</ele><time>2026-03-15T10:25:12.000Z</time></trkpt>
<trkpt lat="41.72806" lon="23.483402"><ele>2738.5</ele><time>2026-03-15T10:25:13.000Z</time></trkpt>
<trkpt lat="41.728062" lon="23.483396"><ele>2738.5</ele><time>2026-03-15T10:25:14.000Z</time></trkpt>
<trkpt lat="41.728064" lon="23.483389"><ele>2738.5</ele><time>2026-03-15T10:25:15.000Z</time></trkpt>
<trkpt lat="41.728065" lon="23.483383"><ele>2738.5</ele><time>2026-03-15T10:25:16.000Z</time></trkpt>
<trkpt lat="41.728066" lon="23.483376"><ele>2738.5</ele><time>2026-03-15T10:25:17.000Z</time></trkpt>
<trkpt lat="41.728068" lon="23.483368"><ele>2738.5</ele><time>2026-03-15T10:25:18.000Z</time></trkpt>
<trkpt lat="41.72807" lon="23.483361"><ele>2738.5</ele><time>2026-03-15T10:25:19.000Z</time></trkpt>
<trkpt lat="41.728073" lon="23.483354"><ele>2738.5</ele><time>2026-03-15T10:25:20.000Z</time></trkpt>
<trkpt lat="41.728076" lon="23.483348"><ele>2738.6</ele><time>2026-03-15T10:25:21.000Z</time></trkpt>
<trkpt lat="41.728079" lon="23.483342"><ele>2738.6</ele><time>2026-03-15T10:25:22.000Z</time></trkpt>
<trkpt lat="41.728082" lon="23.483335"><ele>2738.6</ele><time>2026-03-15T10:25:23.000Z</time></trkpt>
<trkpt lat="41.728084" lon="23.48333"><ele>2738.6</ele><time>2026-03-15T10:25:24.000Z</time></trkpt>
<trkpt lat="41.728087" lon="23.483324"><ele>2738.6</ele><time>2026-03-15T10:25:25.000Z</time></trkpt>
<trkpt lat="41.728089" lon="23.483319"><ele>2738.9</ele><time>2026-03-15T10:25:26.000Z</time></trkpt>
<trkpt lat="41.728091" lon="23.483314"><ele>2738.9</ele><time>2026-03-15T10:25:27.000Z</time></trkpt>
<trkpt lat="41.728094" lon="23.48331"><ele>2738.9</ele><time>2026-03-15T10:25:28.000Z</time></trkpt>
<trkpt lat="41.728095" lon="23.483306"><ele>2738.9</ele><time>2026-03-15T10:25:29.000Z</time></trkpt>
<trkpt lat="41.728096" lon="23.483303"><ele>2738.9</ele><time>2026-03-15T10:25:30.000Z</time></trkpt>
<trkpt lat="41.728098" lon="23.483299"><ele>2739.9</ele><time>2026-03-15T10:25:31.000Z</time></trkpt>
<trkpt lat="41.728099" lon="23.483294"><ele>2739.9</ele><time>2026-03-15T10:25:32.000Z</time></trkpt>
<trkpt lat="41.728101" lon="23.483289"><ele>2739.9</ele><time>2026-03-15T10:25:33.000Z</time></trkpt>
<trkpt lat="41.728103" lon="23.483283"><ele>2739.9</ele><time>2026-03-15T10:25:34.000Z</time></trkpt>
<trkpt lat="41.728106" lon="23.483277"><ele>2739.9</ele><time>2026-03-15T10:25:35.000Z</time></trkpt>
<trkpt lat="41.728109" lon="23.483271"><ele>2741.3</ele><time>2026-03-15T10:25:36.000Z</time></trkpt>
<trkpt lat="41.728111" lon="23.483265"><ele>2741.3</ele><time>2026-03-15T10:25:37.000Z</time></trkpt>
<trkpt lat="41.728112" lon="23.483259"><ele>2741.3</ele><time>2026-03-15T10:25:38.000Z</time></trkpt>
<trkpt lat="41.728114" lon="23.483254"><ele>2741.3</ele><time>2026-03-15T10:25:39.000Z</time></trkpt>
<trkpt lat="41.728115" lon="23.483249"><ele>2741.3</ele><time>2026-03-15T10:25:40.000Z</time></trkpt>
<trkpt lat="41.728117" lon="23.483243"><ele>2742</ele><time>2026-03-15T10:25:41.000Z</time></trkpt>
<trkpt lat="41.728119" lon="23.483239"><ele>2742</ele><time>2026-03-15T10:25:42.000Z</time></trkpt>
<trkpt lat="41.728121" lon="23.483234"><ele>2742</ele><time>2026-03-15T10:25:43.000Z</time></trkpt>
<trkpt lat="41.728124" lon="23.48323"><ele>2742</ele><time>2026-03-15T10:25:44.000Z</time></trkpt>
<trkpt lat="41.728128" lon="23.483227"><ele>2742</ele><time>2026-03-15T10:25:45.000Z</time></trkpt>
<trkpt lat="41.728131" lon="23.483226"><ele>2743.3</ele><time>2026-03-15T10:25:46.000Z</time></trkpt>
<trkpt lat="41.728134" lon="23.483225"><ele>2743.3</ele><time>2026-03-15T10:25:47.000Z</time></trkpt>
<trkpt lat="41.728137" lon="23.483224"><ele>2743.3</ele><time>2026-03-15T10:25:48.000Z</time></trkpt>
<trkpt lat="41.72814" lon="23.483223"><ele>2743.3</ele><time>2026-03-15T10:25:49.000Z</time></trkpt>
<trkpt lat="41.728142" lon="23.483221"><ele>2743.3</ele><time>2026-03-15T10:25:50.000Z</time></trkpt>
<trkpt lat="41.728144" lon="23.48322"><ele>2744.5</ele><time>2026-03-15T10:25:51.000Z</time></trkpt>
<trkpt lat="41.728145" lon="23.483219"><ele>2744.5</ele><time>2026-03-15T10:25:52.000Z</time></trkpt>
<trkpt lat="41.728146" lon="23.483219"><ele>2744.5</ele><time>2026-03-15T10:25:53.000Z</time></trkpt>
<trkpt lat="41.728146" lon="23.483219"><ele>2744.5</ele><time>2026-03-15T10:25:54.000Z</time></trkpt>
<trkpt lat="41.728145" lon="23.48322"><ele>2744.5</ele><time>2026-03-15T10:25:55.000Z</time></trkpt>
<trkpt lat="41.728144" lon="23.48322"><ele>2745.1</ele><time>2026-03-15T10:25:56.000Z</time></trkpt>
<trkpt lat="41.728143" lon="23.483219"><ele>2745.1</ele><time>2026-03-15T10:25:57.000Z</time></trkpt>
<trkpt lat="41.728143" lon="23.483219"><ele>2745.1</ele><time>2026-03-15T10:25:58.000Z</time></trkpt>
<trkpt lat="41.728142" lon="23.483219"><ele>2745.1</ele><time>2026-03-15T10:25:59.000Z</time></trkpt>
<trkpt lat="41.728141" lon="23.483218"><ele>2745.1</ele><time>2026-03-15T10:26:00.000Z</time></trkpt>
<trkpt lat="41.728142" lon="23.483217"><ele>2746.1</ele><time>2026-03-15T10:26:01.000Z</time></trkpt>
<trkpt lat="41.728143" lon="23.483215"><ele>2746.1</ele><time>2026-03-15T10:26:02.000Z</time></trkpt>
<trkpt lat="41.728144" lon="23.483211"><ele>2746.1</ele><time>2026-03-15T10:26:03.000Z</time></trkpt>
<trkpt lat="41.728145" lon="23.483207"><ele>2746.1</ele><time>2026-03-15T10:26:04.000Z</time></trkpt>
<trkpt lat="41.728147" lon="23.483202"><ele>2746.1</ele><time>2026-03-15T10:26:05.000Z</time></trkpt>
<trkpt lat="41.728149" lon="23.483196"><ele>2746.7</ele><time>2026-03-15T10:26:06.000Z</time></trkpt>
<trkpt lat="41.728152" lon="23.483191"><ele>2746.7</ele><time>2026-03-15T10:26:07.000Z</time></trkpt>
<trkpt lat="41.728155" lon="23.483187"><ele>2746.7</ele><time>2026-03-15T10:26:08.000Z</time></trkpt>
<trkpt lat="41.728157" lon="23.483184"><ele>2746.7</ele><time>2026-03-15T10:26:09.000Z</time></trkpt>
<trkpt lat="41.728159" lon="23.483182"><ele>2746.7</ele><time>2026-03-15T10:26:10.000Z</time></trkpt>
<trkpt lat="41.72816" lon="23.48318"><ele>2746.9</ele><time>2026-03-15T10:26:11.000Z</time></trkpt>
<trkpt lat="41.728162" lon="23.483178"><ele>2746.9</ele><time>2026-03-15T10:26:12.000Z</time></trkpt>
<trkpt lat="41.728162" lon="23.483177"><ele>2746.9</ele><time>2026-03-15T10:26:13.000Z</time></trkpt>
<trkpt lat="41.728163" lon="23.483174"><ele>2746.9</ele><time>2026-03-15T10:26:14.000Z</time></trkpt>
<trkpt lat="41.728164" lon="23.483171"><ele>2746.9</ele><time>2026-03-15T10:26:15.000Z</time></trkpt>
<trkpt lat="41.728166" lon="23.483169"><ele>2747.3</ele><time>2026-03-15T10:26:16.000Z</time></trkpt>
<trkpt lat="41.728168" lon="23.483166"><ele>2747.3</ele><time>2026-03-15T10:26:17.000Z</time></trkpt>
<trkpt lat="41.72817" lon="23.483163"><ele>2747.3</ele><time>2026-03-15T10:26:18.000Z</time></trkpt>
<trkpt lat="41.728172" lon="23.48316"><ele>2747.3</ele><time>2026-03-15T10:26:19.000Z</time></trkpt>
<trkpt lat="41.728174" lon="23.483157"><ele>2747.3</ele><time>2026-03-15T10:26:20.000Z</time></trkpt>
<trkpt lat="41.728177" lon="23.483152"><ele>2747.9</ele><time>2026-03-15T10:26:21.000Z</time></trkpt>
<trkpt lat="41.728178" lon="23.483148"><ele>2747.9</ele><time>2026-03-15T10:26:22.000Z</time></trkpt>
<trkpt lat="41.72818" lon="23.483143"><ele>2747.9</ele><time>2026-03-15T10:26:23.000Z</time></trkpt>
<trkpt lat="41.728181" lon="23.48314"><ele>2747.9</ele><time>2026-03-15T10:26:24.000Z</time></trkpt>
<trkpt lat="41.728183" lon="23.483137"><ele>2747.9</ele><time>2026-03-15T10:26:25.000Z</time></trkpt>
<trkpt lat="41.728184" lon="23.483137"><ele>2748.3</ele><time>2026-03-15T10:26:26.000Z</time></trkpt>
<trkpt lat="41.728186" lon="23.483135"><ele>2748.3</ele><time>2026-03-15T10:26:27.000Z</time></trkpt>
<trkpt lat="41.728188" lon="23.483135"><ele>2748.3</ele><time>2026-03-15T10:26:28.000Z</time></trkpt>
<trkpt lat="41.728189" lon="23.483133"><ele>2748.3</ele><time>2026-03-15T10:26:29.000Z</time></trkpt>
<trkpt lat="41.728191" lon="23.483132"><ele>2748.3</ele><time>2026-03-15T10:26:30.000Z</time></trkpt>
<trkpt lat="41.728193" lon="23.483128"><ele>2749</ele><time>2026-03-15T10:26:31.000Z</time></trkpt>
<trkpt lat="41.728194" lon="23.483124"><ele>2749</ele><time>2026-03-15T10:26:32.000Z</time></trkpt>
<trkpt lat="41.728197" lon="23.483118"><ele>2749</ele><time>2026-03-15T10:26:33.000Z</time></trkpt>
<trkpt lat="41.728199" lon="23.483111"><ele>2749</ele><time>2026-03-15T10:26:34.000Z</time></trkpt>
<trkpt lat="41.7282" lon="23.483105"><ele>2749</ele><time>2026-03-15T10:26:35.000Z</time></trkpt>
<trkpt lat="41.728202" lon="23.483099"><ele>2749.6</ele><time>2026-03-15T10:26:36.000Z</time></trkpt>
<trkpt lat="41.728204" lon="23.483094"><ele>2749.6</ele><time>2026-03-15T10:26:37.000Z</time></trkpt>
<trkpt lat="41.728204" lon="23.483092"><ele>2749.6</ele><time>2026-03-15T10:26:38.000Z</time></trkpt>
<trkpt lat="41.728205" lon="23.48309"><ele>2749.6</ele><time>2026-03-15T10:26:39.000Z</time></trkpt>
<trkpt lat="41.728206" lon="23.483089"><ele>2749.6</ele><time>2026-03-15T10:26:40.000Z</time></trkpt>
<trkpt lat="41.728205" lon="23.483089"><ele>2749.9</ele><time>2026-03-15T10:26:41.000Z</time></trkpt>
<trkpt lat="41.728205" lon="23.483089"><ele>2749.9</ele><time>2026-03-15T10:26:42.000Z</time></trkpt>
<trkpt lat="41.728205" lon="23.483089"><ele>2749.9</ele><time>2026-03-15T10:26:43.000Z</time></trkpt>
<trkpt lat="41.728205" lon="23.483088"><ele>2749.9</ele><time>2026-03-15T10:26:44.000Z</time></trkpt>
<trkpt lat="41.728206" lon="23.483086"><ele>2749.9</ele><time>2026-03-15T10:26:45.000Z</time></trkpt>
<trkpt lat="41.728207" lon="23.483084"><ele>2750.3</ele><time>2026-03-15T10:26:46.000Z</time></trkpt>
<trkpt lat="41.728208" lon="23.48308"><ele>2750.3</ele><time>2026-03-15T10:26:47.000Z</time></trkpt>
<trkpt lat="41.728209" lon="23.483075"><ele>2750.3</ele><time>2026-03-15T10:26:48.000Z</time></trkpt>
<trkpt lat="41.728209" lon="23.483069"><ele>2750.3</ele><time>2026-03-15T10:26:49.000Z</time></trkpt>
<trkpt lat="41.728208" lon="23.483064"><ele>2750.3</ele><time>2026-03-15T10:26:50.000Z</time></trkpt>
<trkpt lat="41.728208" lon="23.483057"><ele>2750.7</ele><time>2026-03-15T10:26:51.000Z</time></trkpt>
<trkpt lat="41.728208" lon="23.483051"><ele>2750.7</ele><time>2026-03-15T10:26:52.000Z</time></trkpt>
<trkpt lat="41.728209" lon="23.483045"><ele>2750.7</ele><time>2026-03-15T10:26:53.000Z</time></trkpt>
<trkpt lat="41.72821" lon="23.48304"><ele>2750.7</ele><time>2026-03-15T10:26:54.000Z</time></trkpt>
<trkpt lat="41.728212" lon="23.483035"><ele>2750.7</ele><time>2026-03-15T10:26:55.000Z</time></trkpt>
<trkpt lat="41.728214" lon="23.483031"><ele>2750.9</ele><time>2026-03-15T10:26:56.000Z</time></trkpt>
<trkpt lat="41.728217" lon="23.483028"><ele>2750.9</ele><time>2026-03-15T10:26:57.000Z</time></trkpt>
<trkpt lat="41.728219" lon="23.483025"><ele>2750.9</ele><time>2026-03-15T10:26:58.000Z</time></trkpt>
<trkpt lat="41.728221" lon="23.483022"><ele>2750.9</ele><time>2026-03-15T10:26:59.000Z</time></trkpt>
<trkpt lat="41.728222" lon="23.48302"><ele>2750.9</ele><time>2026-03-15T10:27:00.000Z</time></trkpt>
<trkpt lat="41.728223" lon="23.483018"><ele>2751.4</ele><time>2026-03-15T10:27:01.000Z</time></trkpt>
<trkpt lat="41.728224" lon="23.483014"><ele>2751.4</ele><time>2026-03-15T10:27:02.000Z</time></trkpt>
<trkpt lat="41.728226" lon="23.483011"><ele>2751.4</ele><time>2026-03-15T10:27:03.000Z</time></trkpt>
<trkpt lat="41.728228" lon="23.483008"><ele>2751.4</ele><time>2026-03-15T10:27:04.000Z</time></trkpt>
<trkpt lat="41.72823" lon="23.483005"><ele>2751.4</ele><time>2026-03-15T10:27:05.000Z</time></trkpt>
<trkpt lat="41.728232" lon="23.483003"><ele>2752</ele><time>2026-03-15T10:27:06.000Z</time></trkpt>
<trkpt lat="41.728233" lon="23.483004"><ele>2752</ele><time>2026-03-15T10:27:07.000Z</time></trkpt>
<trkpt lat="41.728234" lon="23.483004"><ele>2752</ele><time>2026-03-15T10:27:08.000Z</time></trkpt>
<trkpt lat="41.728235" lon="23.483006"><ele>2752</ele><time>2026-03-15T10:27:09.000Z</time></trkpt>
<trkpt lat="41.728235" lon="23.483006"><ele>2752</ele><time>2026-03-15T10:27:10.000Z</time></trkpt>
<trkpt lat="41.728236" lon="23.483006"><ele>2752.5</ele><time>2026-03-15T10:27:11.000Z</time></trkpt>
<trkpt lat="41.728236" lon="23.483005"><ele>2752.5</ele><time>2026-03-15T10:27:12.000Z</time></trkpt>
<trkpt lat="41.728237" lon="23.483003"><ele>2752.5</ele><time>2026-03-15T10:27:13.000Z</time></trkpt>
<trkpt lat="41.728238" lon="23.483002"><ele>2752.5</ele><time>2026-03-15T10:27:14.000Z</time></trkpt>
<trkpt lat="41.728239" lon="23.483001"><ele>2752.5</ele><time>2026-03-15T10:27:15.000Z</time></trkpt>
<trkpt lat="41.72824" lon="23.483"><ele>2753.4</ele><time>2026-03-15T10:27:16.000Z</time></trkpt>
<trkpt lat="41.728241" lon="23.482998"><ele>2753.4</ele><time>2026-03-15T10:27:17.000Z</time></trkpt>
<trkpt lat="41.72824" lon="23.482997"><ele>2753.4</ele><time>2026-03-15T10:27:18.000Z</time></trkpt>
<trkpt lat="41.72824" lon="23.482996"><ele>2753.4</ele><time>2026-03-15T10:27:19.000Z</time></trkpt>
<trkpt lat="41.72824" lon="23.482996"><ele>2753.4</ele><time>2026-03-15T10:27:20.000Z</time></trkpt>
<trkpt lat="41.72824" lon="23.482995"><ele>2754.1</ele><time>2026-03-15T10:27:21.000Z</time></trkpt>
<trkpt lat="41.72824" lon="23.482995"><ele>2754.1</ele><time>2026-03-15T10:27:22.000Z</time></trkpt>
<trkpt lat="41.72824" lon="23.482994"><ele>2754.1</ele><time>2026-03-15T10:27:23.000Z</time></trkpt>
<trkpt lat="41.72824" lon="23.482994"><ele>2754.1</ele><time>2026-03-15T10:27:24.000Z</time></trkpt>
<trkpt lat="41.72824" lon="23.482992"><ele>2754.1</ele><time>2026-03-15T10:27:25.000Z</time></trkpt>
<trkpt lat="41.72824" lon="23.482991"><ele>2754.4</ele><time>2026-03-15T10:27:26.000Z</time></trkpt>
<trkpt lat="41.72824" lon="23.48299"><ele>2754.4</ele><time>2026-03-15T10:27:27.000Z</time></trkpt>
<trkpt lat="41.728241" lon="23.482988"><ele>2754.4</ele><time>2026-03-15T10:27:28.000Z</time></trkpt>
<trkpt lat="41.728242" lon="23.482985"><ele>2754.4</ele><time>2026-03-15T10:27:29.000Z</time></trkpt>
<trkpt lat="41.728244" lon="23.482982"><ele>2754.4</ele><time>2026-03-15T10:27:30.000Z</time></trkpt>
<trkpt lat="41.728247" lon="23.482979"><ele>2754.9</ele><time>2026-03-15T10:27:31.000Z</time></trkpt>
<trkpt lat="41.72825" lon="23.482976"><ele>2754.9</ele><time>2026-03-15T10:27:32.000Z</time></trkpt>
<trkpt lat="41.728253" lon="23.482973"><ele>2754.9</ele><time>2026-03-15T10:27:33.000Z</time></trkpt>
<trkpt lat="41.728256" lon="23.482972"><ele>2754.9</ele><time>2026-03-15T10:27:34.000Z</time></trkpt>
<trkpt lat="41.728259" lon="23.482972"><ele>2754.9</ele><time>2026-03-15T10:27:35.000Z</time></trkpt>
<trkpt lat="41.728261" lon="23.48297"><ele>2755.1</ele><time>2026-03-15T10:27:36.000Z</time></trkpt>
<trkpt lat="41.728263" lon="23.482969"><ele>2755.1</ele><time>2026-03-15T10:27:37.000Z</time></trkpt>
<trkpt lat="41.728264" lon="23.482966"><ele>2755.1</ele><time>2026-03-15T10:27:38.000Z</time></trkpt>
<trkpt lat="41.728266" lon="23.482962"><ele>2755.1</ele><time>2026-03-15T10:27:39.000Z</time></trkpt>
<trkpt lat="41.728266" lon="23.482958"><ele>2755.1</ele><time>2026-03-15T10:27:40.000Z</time></trkpt>
<trkpt lat="41.728267" lon="23.482954"><ele>2755.3</ele><time>2026-03-15T10:27:41.000Z</time></trkpt>
<trkpt lat="41.728268" lon="23.482948"><ele>2755.3</ele><time>2026-03-15T10:27:42.000Z</time></trkpt>
<trkpt lat="41.728269" lon="23.482942"><ele>2755.3</ele><time>2026-03-15T10:27:43.000Z</time></trkpt>
<trkpt lat="41.72827" lon="23.482937"><ele>2755.3</ele><time>2026-03-15T10:27:44.000Z</time></trkpt>
<trkpt lat="41.72827" lon="23.482931"><ele>2755.3</ele><time>2026-03-15T10:27:45.000Z</time></trkpt>
<trkpt lat="41.728271" lon="23.482926"><ele>2755.7</ele><time>2026-03-15T10:27:46.000Z</time></trkpt>
<trkpt lat="41.728272" lon="23.482921"><ele>2755.7</ele><time>2026-03-15T10:27:47.000Z</time></trkpt>
<trkpt lat="41.728273" lon="23.482917"><ele>2755.7</ele><time>2026-03-15T10:27:48.000Z</time></trkpt>
<trkpt lat="41.728275" lon="23.482913"><ele>2755.7</ele><time>2026-03-15T10:27:49.000Z</time></trkpt>
<trkpt lat="41.728278" lon="23.48291"><ele>2755.7</ele><time>2026-03-15T10:27:50.000Z</time></trkpt>
<trkpt lat="41.728279" lon="23.482906"><ele>2756.4</ele><time>2026-03-15T10:27:51.000Z</time></trkpt>
<trkpt lat="41.72828" lon="23.482904"><ele>2756.4</ele><time>2026-03-15T10:27:52.000Z</time></trkpt>
<trkpt lat="41.728282" lon="23.4829"><ele>2756.4</ele><time>2026-03-15T10:27:53.000Z</time></trkpt>
<trkpt lat="41.728283" lon="23.482897"><ele>2756.4</ele><time>2026-03-15T10:27:54.000Z</time></trkpt>
<trkpt lat="41.728284" lon="23.482893"><ele>2756.4</ele><time>2026-03-15T10:27:55.000Z</time></trkpt>
<trkpt lat="41.728287" lon="23.482891"><ele>2756.7</ele><time>2026-03-15T10:27:56.000Z</time></trkpt>
<trkpt lat="41.728291" lon="23.482888"><ele>2756.7</ele><time>2026-03-15T10:27:57.000Z</time></trkpt>
<trkpt lat="41.728295" lon="23.482886"><ele>2756.7</ele><time>2026-03-15T10:27:58.000Z</time></trkpt>
<trkpt lat="41.728298" lon="23.482887"><ele>2756.7</ele><time>2026-03-15T10:27:59.000Z</time></trkpt>
<trkpt lat="41.728302" lon="23.482887"><ele>2756.7</ele><time>2026-03-15T10:28:00.000Z</time></trkpt>
<trkpt lat="41.728305" lon="23.482887"><ele>2757.6</ele><time>2026-03-15T10:28:01.000Z</time></trkpt>
<trkpt lat="41.728308" lon="23.482888"><ele>2757.6</ele><time>2026-03-15T10:28:02.000Z</time></trkpt>
<trkpt lat="41.728311" lon="23.482887"><ele>2757.6</ele><time>2026-03-15T10:28:03.000Z</time></trkpt>
<trkpt lat="41.728313" lon="23.482886"><ele>2757.6</ele><time>2026-03-15T10:28:04.000Z</time></trkpt>
<trkpt lat="41.728316" lon="23.482885"><ele>2757.6</ele><time>2026-03-15T10:28:05.000Z</time></trkpt>
<trkpt lat="41.728318" lon="23.482885"><ele>2758.4</ele><time>2026-03-15T10:28:06.000Z</time></trkpt>
<trkpt lat="41.72832" lon="23.482884"><ele>2758.4</ele><time>2026-03-15T10:28:07.000Z</time></trkpt>
<trkpt lat="41.72832" lon="23.482883"><ele>2758.4</ele><time>2026-03-15T10:28:08.000Z</time></trkpt>
<trkpt lat="41.728321" lon="23.482882"><ele>2758.4</ele><time>2026-03-15T10:28:09.000Z</time></trkpt>
<trkpt lat="41.728322" lon="23.482882"><ele>2758.4</ele><time>2026-03-15T10:28:10.000Z</time></trkpt>
<trkpt lat="41.728322" lon="23.482881"><ele>2758.9</ele><time>2026-03-15T10:28:11.000Z</time></trkpt>
<trkpt lat="41.728322" lon="23.48288"><ele>2758.9</ele><time>2026-03-15T10:28:12.000Z</time></trkpt>
<trkpt lat="41.728322" lon="23.48288"><ele>2758.9</ele><time>2026-03-15T10:28:13.000Z</time></trkpt>
<trkpt lat="41.728321" lon="23.48288"><ele>2758.9</ele><time>2026-03-15T10:28:14.000Z</time></trkpt>
<trkpt lat="41.728321" lon="23.48288"><ele>2758.9</ele><time>2026-03-15T10:28:15.000Z</time></trkpt>
<trkpt lat="41.728321" lon="23.482881"><ele>2759.6</ele><time>2026-03-15T10:28:16.000Z</time></trkpt>
<trkpt lat="41.72832" lon="23.482882"><ele>2759.6</ele><time>2026-03-15T10:28:17.000Z</time></trkpt>
<trkpt lat="41.72832" lon="23.482883"><ele>2759.6</ele><time>2026-03-15T10:28:18.000Z</time></trkpt>
<trkpt lat="41.728319" lon="23.482883"><ele>2759.6</ele><time>2026-03-15T10:28:19.000Z</time></trkpt>
<trkpt lat="41.728319" lon="23.482883"><ele>2759.6</ele><time>2026-03-15T10:28:20.000Z</time></trkpt>
<trkpt lat="41.728318" lon="23.482883"><ele>2760</ele><time>2026-03-15T10:28:21.000Z</time></trkpt>
<trkpt lat="41.728317" lon="23.482883"><ele>2760</ele><time>2026-03-15T10:28:22.000Z</time></trkpt>
<trkpt lat="41.728317" lon="23.482883"><ele>2760</ele><time>2026-03-15T10:28:23.000Z</time></trkpt>
<trkpt lat="41.728316" lon="23.482882"><ele>2760</ele><time>2026-03-15T10:28:24.000Z</time></trkpt>
<trkpt lat="41.728316" lon="23.482882"><ele>2760</ele><time>2026-03-15T10:28:25.000Z</time></trkpt>
<trkpt lat="41.728316" lon="23.482883"><ele>2760.1</ele><time>2026-03-15T10:28:26.000Z</time></trkpt>
<trkpt lat="41.728316" lon="23.482883"><ele>2760.1</ele><time>2026-03-15T10:28:27.000Z</time></trkpt>
<trkpt lat="41.728316" lon="23.482883"><ele>2760.1</ele><time>2026-03-15T10:28:28.000Z</time></trkpt>
<trkpt lat="41.728316" lon="23.482884"><ele>2760.1</ele><time>2026-03-15T10:28:29.000Z</time></trkpt>
<trkpt lat="41.728316" lon="23.482883"><ele>2760.1</ele><time>2026-03-15T10:28:30.000Z</time></trkpt>
<trkpt lat="41.728317" lon="23.482883"><ele>2760.2</ele><time>2026-03-15T10:28:31.000Z</time></trkpt>
<trkpt lat="41.728317" lon="23.482881"><ele>2760.2</ele><time>2026-03-15T10:28:32.000Z</time></trkpt>
<trkpt lat="41.728317" lon="23.48288"><ele>2760.2</ele><time>2026-03-15T10:28:33.000Z</time></trkpt>
<trkpt lat="41.728316" lon="23.482878"><ele>2760.2</ele><time>2026-03-15T10:28:34.000Z</time></trkpt>
<trkpt lat="41.728316" lon="23.482876"><ele>2760.2</ele><time>2026-03-15T10:28:35.000Z</time></trkpt>
<trkpt lat="41.728315" lon="23.482875"><ele>2760.6</ele><time>2026-03-15T10:28:36.000Z</time></trkpt>
<trkpt lat="41.728316" lon="23.482875"><ele>2760.6</ele><time>2026-03-15T10:28:37.000Z</time></trkpt>
<trkpt lat="41.728316" lon="23.482874"><ele>2760.6</ele><time>2026-03-15T10:28:38.000Z</time></trkpt>
<trkpt lat="41.728316" lon="23.482875"><ele>2760.6</ele><time>2026-03-15T10:28:39.000Z</time></trkpt>
<trkpt lat="41.728316" lon="23.482875"><ele>2760.6</ele><time>2026-03-15T10:28:40.000Z</time></trkpt>
<trkpt lat="41.728315" lon="23.482875"><ele>2760.8</ele><time>2026-03-15T10:28:41.000Z</time></trkpt>
<trkpt lat="41.728315" lon="23.482876"><ele>2760.8</ele><time>2026-03-15T10:28:42.000Z</time></trkpt>
<trkpt lat="41.728316" lon="23.482877"><ele>2760.8</ele><time>2026-03-15T10:28:43.000Z</time></trkpt>
<trkpt lat="41.728318" lon="23.482877"><ele>2760.8</ele><time>2026-03-15T10:28:44.000Z</time></trkpt>
<trkpt lat="41.728319" lon="23.482879"><ele>2760.8</ele><time>2026-03-15T10:28:45.000Z</time></trkpt>
<trkpt lat="41.728322" lon="23.482882"><ele>2760.9</ele><time>2026-03-15T10:28:46.000Z</time></trkpt>
<trkpt lat="41.728323" lon="23.482886"><ele>2760.9</ele><time>2026-03-15T10:28:47.000Z</time></trkpt>
<trkpt lat="41.728324" lon="23.48289"><ele>2760.9</ele><time>2026-03-15T10:28:48.000Z</time></trkpt>
<trkpt lat="41.728324" lon="23.482893"><ele>2760.9</ele><time>2026-03-15T10:28:49.000Z</time></trkpt>
<trkpt lat="41.728323" lon="23.482896"><ele>2760.9</ele><time>2026-03-15T10:28:50.000Z</time></trkpt>
<trkpt lat="41.728323" lon="23.482898"><ele>2760.7</ele><time>2026-03-15T10:28:51.000Z</time></trkpt>
<trkpt lat="41.728323" lon="23.482899"><ele>2760.7</ele><time>2026-03-15T10:28:52.000Z</time></trkpt>
<trkpt lat="41.728323" lon="23.482899"><ele>2760.7</ele><time>2026-03-15T10:28:53.000Z</time></trkpt>
<trkpt lat="41.728323" lon="23.482899"><ele>2760.7</ele><time>2026-03-15T10:28:54.000Z</time></trkpt>
<trkpt lat="41.728323" lon="23.482899"><ele>2760.7</ele><time>2026-03-15T10:28:55.000Z</time></trkpt>
<trkpt lat="41.728323" lon="23.482899"><ele>2760.7</ele><time>2026-03-15T10:28:56.000Z</time></trkpt>
<trkpt lat="41.728323" lon="23.482899"><ele>2760.7</ele><time>2026-03-15T10:28:57.000Z</time></trkpt>
<trkpt lat="41.728324" lon="23.4829"><ele>2760.7</ele><time>2026-03-15T10:28:58.000Z</time></trkpt>
<trkpt lat="41.728326" lon="23.482901"><ele>2760.7</ele><time>2026-03-15T10:28:59.000Z</time></trkpt>
<trkpt lat="41.72833" lon="23.482903"><ele>2760.7</ele><time>2026-03-15T10:29:00.000Z</time></trkpt>
<trkpt lat="41.728335" lon="23.482906"><ele>2760.7</ele><time>2026-03-15T10:29:01.000Z</time></trkpt>
<trkpt lat="41.728341" lon="23.482909"><ele>2760.7</ele><time>2026-03-15T10:29:02.000Z</time></trkpt>
<trkpt lat="41.728346" lon="23.482912"><ele>2760.7</ele><time>2026-03-15T10:29:03.000Z</time></trkpt>
<trkpt lat="41.728351" lon="23.482915"><ele>2760.7</ele><time>2026-03-15T10:29:04.000Z</time></trkpt>
<trkpt lat="41.728355" lon="23.482917"><ele>2760.7</ele><time>2026-03-15T10:29:05.000Z</time></trkpt>
<trkpt lat="41.728359" lon="23.482919"><ele>2761</ele><time>2026-03-15T10:29:06.000Z</time></trkpt>
<trkpt lat="41.728363" lon="23.482922"><ele>2761</ele><time>2026-03-15T10:29:07.000Z</time></trkpt>
<trkpt lat="41.728367" lon="23.482925"><ele>2761</ele><time>2026-03-15T10:29:08.000Z</time></trkpt>
<trkpt lat="41.72837" lon="23.482927"><ele>2761</ele><time>2026-03-15T10:29:09.000Z</time></trkpt>
<trkpt lat="41.728372" lon="23.482929"><ele>2761</ele><time>2026-03-15T10:29:10.000Z</time></trkpt>
<trkpt lat="41.728374" lon="23.482932"><ele>2761.3</ele><time>2026-03-15T10:29:11.000Z</time></trkpt>
<trkpt lat="41.728374" lon="23.482932"><ele>2761.3</ele><time>2026-03-15T10:29:12.000Z</time></trkpt>
<trkpt lat="41.728375" lon="23.482934"><ele>2761.3</ele><time>2026-03-15T10:29:13.000Z</time></trkpt>
<trkpt lat="41.728376" lon="23.482935"><ele>2761.3</ele><time>2026-03-15T10:29:14.000Z</time></trkpt>
<trkpt lat="41.728376" lon="23.482936"><ele>2761.3</ele><time>2026-03-15T10:29:15.000Z</time></trkpt>
<trkpt lat="41.728377" lon="23.482936"><ele>2761.9</ele><time>2026-03-15T10:29:16.000Z</time></trkpt>
<trkpt lat="41.728377" lon="23.482937"><ele>2761.9</ele><time>2026-03-15T10:29:17.000Z</time></trkpt>
<trkpt lat="41.728377" lon="23.482938"><ele>2761.9</ele><time>2026-03-15T10:29:18.000Z</time></trkpt>
<trkpt lat="41.728377" lon="23.482939"><ele>2761.9</ele><time>2026-03-15T10:29:19.000Z</time></trkpt>
<trkpt lat="41.728377" lon="23.482939"><ele>2761.9</ele><time>2026-03-15T10:29:20.000Z</time></trkpt>
<trkpt lat="41.728377" lon="23.48294"><ele>2762.4</ele><time>2026-03-15T10:29:21.000Z</time></trkpt>
<trkpt lat="41.728378" lon="23.482941"><ele>2762.4</ele><time>2026-03-15T10:29:22.000Z</time></trkpt>
<trkpt lat="41.728378" lon="23.482942"><ele>2762.4</ele><time>2026-03-15T10:29:23.000Z</time></trkpt>
<trkpt lat="41.728378" lon="23.482942"><ele>2762.4</ele><time>2026-03-15T10:29:24.000Z</time></trkpt>
<trkpt lat="41.728377" lon="23.482942"><ele>2762.4</ele><time>2026-03-15T10:29:25.000Z</time></trkpt>
<trkpt lat="41.728377" lon="23.482942"><ele>2762.6</ele><time>2026-03-15T10:29:26.000Z</time></trkpt>
<trkpt lat="41.728377" lon="23.482942"><ele>2762.6</ele><time>2026-03-15T10:29:27.000Z</time></trkpt>
<trkpt lat="41.728376" lon="23.482941"><ele>2762.6</ele><time>2026-03-15T10:29:28.000Z</time></trkpt>
<trkpt lat="41.728376" lon="23.482941"><ele>2762.6</ele><time>2026-03-15T10:29:29.000Z</time></trkpt>
<trkpt lat="41.728377" lon="23.48294"><ele>2762.6</ele><time>2026-03-15T10:29:30.000Z</time></trkpt>
<trkpt lat="41.728377" lon="23.48294"><ele>2762.7</ele><time>2026-03-15T10:29:31.000Z</time></trkpt>
<trkpt lat="41.728379" lon="23.482939"><ele>2762.7</ele><time>2026-03-15T10:29:32.000Z</time></trkpt>
<trkpt lat="41.72838" lon="23.482939"><ele>2762.7</ele><time>2026-03-15T10:29:33.000Z</time></trkpt>
<trkpt lat="41.728381" lon="23.482939"><ele>2762.7</ele><time>2026-03-15T10:29:34.000Z</time></trkpt>
<trkpt lat="41.728381" lon="23.48294"><ele>2762.7</ele><time>2026-03-15T10:29:35.000Z</time></trkpt>
<trkpt lat="41.728381" lon="23.482939"><ele>2762.7</ele><time>2026-03-15T10:29:36.000Z</time></trkpt>
<trkpt lat="41.728381" lon="23.48294"><ele>2762.7</ele><time>2026-03-15T10:29:37.000Z</time></trkpt>
<trkpt lat="41.728382" lon="23.482939"><ele>2762.7</ele><time>2026-03-15T10:29:38.000Z</time></trkpt>
<trkpt lat="41.728383" lon="23.482938"><ele>2762.7</ele><time>2026-03-15T10:29:39.000Z</time></trkpt>
<trkpt lat="41.728383" lon="23.482937"><ele>2762.7</ele><time>2026-03-15T10:29:40.000Z</time></trkpt>
<trkpt lat="41.728384" lon="23.482936"><ele>2762.6</ele><time>2026-03-15T10:29:41.000Z</time></trkpt>
<trkpt lat="41.728385" lon="23.482935"><ele>2762.6</ele><time>2026-03-15T10:29:42.000Z</time></trkpt>
<trkpt lat="41.728385" lon="23.482935"><ele>2762.6</ele><time>2026-03-15T10:29:43.000Z</time></trkpt>
<trkpt lat="41.728385" lon="23.482935"><ele>2762.6</ele><time>2026-03-15T10:29:44.000Z</time></trkpt>
<trkpt lat="41.728385" lon="23.482935"><ele>2762.6</ele><time>2026-03-15T10:29:45.000Z</time></trkpt>
<trkpt lat="41.728385" lon="23.482935"><ele>2762.7</ele><time>2026-03-15T10:29:46.000Z</time></trkpt>
<trkpt lat="41.728385" lon="23.482935"><ele>2762.7</ele><time>2026-03-15T10:29:47.000Z</time></trkpt>
<trkpt lat="41.728385" lon="23.482935"><ele>2762.7</ele><time>2026-03-15T10:29:48.000Z</time></trkpt>
<trkpt lat="41.728385" lon="23.482935"><ele>2762.7</ele><time>2026-03-15T10:29:49.000Z</time></trkpt>
<trkpt lat="41.728385" lon="23.482935"><ele>2762.7</ele><time>2026-03-15T10:29:50.000Z</time></trkpt>
<trkpt lat="41.728385" lon="23.482935"><ele>2763</ele><time>2026-03-15T10:29:51.000Z</time></trkpt>
<trkpt lat="41.728384" lon="23.482936"><ele>2763</ele><time>2026-03-15T10:29:52.000Z</time></trkpt>
<trkpt lat="41.728383" lon="23.482936"><ele>2763</ele><time>2026-03-15T10:29:53.000Z</time></trkpt>
<trkpt lat="41.728382" lon="23.482936"><ele>2763</ele><time>2026-03-15T10:29:54.000Z</time></trkpt>
<trkpt lat="41.728381" lon="23.482936"><ele>2763</ele><time>2026-03-15T10:29:55.000Z</time></trkpt>
<trkpt lat="41.728381" lon="23.482935"><ele>2763</ele><time>2026-03-15T10:29:56.000Z</time></trkpt>
<trkpt lat="41.728381" lon="23.482934"><ele>2763</ele><time>2026-03-15T10:29:57.000Z</time></trkpt>
<trkpt lat="41.728381" lon="23.482933"><ele>2763</ele><time>2026-03-15T10:29:58.000Z</time></trkpt>
<trkpt lat="41.728382" lon="23.482932"><ele>2763</ele><time>2026-03-15T10:29:59.000Z</time></trkpt>
<trkpt lat="41.728383" lon="23.482931"><ele>2763</ele><time>2026-03-15T10:30:00.000Z</time></trkpt>
<trkpt lat="41.728383" lon="23.482929"><ele>2762.9</ele><time>2026-03-15T10:30:01.000Z</time></trkpt>
<trkpt lat="41.728384" lon="23.482928"><ele>2762.9</ele><time>2026-03-15T10:30:02.000Z</time></trkpt>
<trkpt lat="41.728385" lon="23.482927"><ele>2762.9</ele><time>2026-03-15T10:30:03.000Z</time></trkpt>
<trkpt lat="41.728385" lon="23.482925"><ele>2762.9</ele><time>2026-03-15T10:30:04.000Z</time></trkpt>
<trkpt lat="41.728386" lon="23.482924"><ele>2762.9</ele><time>2026-03-15T10:30:05.000Z</time></trkpt>
<trkpt lat="41.728386" lon="23.482923"><ele>2762.8</ele><time>2026-03-15T10:30:06.000Z</time></trkpt>
<trkpt lat="41.728386" lon="23.482923"><ele>2762.8</ele><time>2026-03-15T10:30:07.000Z</time></trkpt>
<trkpt lat="41.728386" lon="23.482922"><ele>2762.8</ele><time>2026-03-15T10:30:08.000Z</time></trkpt>
<trkpt lat="41.728386" lon="23.482922"><ele>2762.8</ele><time>2026-03-15T10:30:09.000Z</time></trkpt>
<trkpt lat="41.728386" lon="23.482922"><ele>2762.8</ele><time>2026-03-15T10:30:10.000Z</time></trkpt>
<trkpt lat="41.728386" lon="23.482922"><ele>2762.8</ele><time>2026-03-15T10:30:11.000Z</time></trkpt>
<trkpt lat="41.728386" lon="23.482922"><ele>2762.8</ele><time>2026-03-15T10:30:12.000Z</time></trkpt>
<trkpt lat="41.728386" lon="23.482922"><ele>2762.8</ele><time>2026-03-15T10:30:13.000Z</time></trkpt>
<trkpt lat="41.728386" lon="23.482922"><ele>2762.8</ele><time>2026-03-15T10:30:14.000Z</time></trkpt>
<trkpt lat="41.728386" lon="23.482923"><ele>2762.8</ele><time>2026-03-15T10:30:15.000Z</time></trkpt>
<trkpt lat="41.728386" lon="23.482923"><ele>2762.8</ele><time>2026-03-15T10:30:16.000Z</time></trkpt>
<trkpt lat="41.728386" lon="23.482923"><ele>2762.8</ele><time>2026-03-15T10:30:17.000Z</time></trkpt>
<trkpt lat="41.728386" lon="23.482923"><ele>2762.8</ele><time>2026-03-15T10:30:18.000Z</time></trkpt>
<trkpt lat="41.728386" lon="23.482923"><ele>2762.8</ele><time>2026-03-15T10:30:19.000Z</time></trkpt>
<trkpt lat="41.728386" lon="23.482923"><ele>2762.8</ele><time>2026-03-15T10:30:20.000Z</time></trkpt>
<trkpt lat="41.728386" lon="23.482924"><ele>2762.8</ele><time>2026-03-15T10:30:21.000Z</time></trkpt>
<trkpt lat="41.728387" lon="23.482925"><ele>2762.8</ele><time>2026-03-15T10:30:22.000Z</time></trkpt>
<trkpt lat="41.728388" lon="23.482927"><ele>2762.8</ele><time>2026-03-15T10:30:23.000Z</time></trkpt>
<trkpt lat="41.728389" lon="23.48293"><ele>2762.8</ele><time>2026-03-15T10:30:24.000Z</time></trkpt>
<trkpt lat="41.728392" lon="23.482935"><ele>2762.8</ele><time>2026-03-15T10:30:25.000Z</time></trkpt>
<trkpt lat="41.728395" lon="23.482938"><ele>2762.9</ele><time>2026-03-15T10:30:26.000Z</time></trkpt>
<trkpt lat="41.728398" lon="23.482941"><ele>2762.9</ele><time>2026-03-15T10:30:27.000Z</time></trkpt>
<trkpt lat="41.728402" lon="23.482944"><ele>2762.9</ele><time>2026-03-15T10:30:28.000Z</time></trkpt>
<trkpt lat="41.728405" lon="23.482947"><ele>2762.9</ele><time>2026-03-15T10:30:29.000Z</time></trkpt>
<trkpt lat="41.728408" lon="23.482949"><ele>2762.9</ele><time>2026-03-15T10:30:30.000Z</time></trkpt>
<trkpt lat="41.728413" lon="23.482951"><ele>2763.1</ele><time>2026-03-15T10:30:31.000Z</time></trkpt>
<trkpt lat="41.728416" lon="23.482953"><ele>2763.1</ele><time>2026-03-15T10:30:32.000Z</time></trkpt>
<trkpt lat="41.728419" lon="23.482955"><ele>2763.1</ele><time>2026-03-15T10:30:33.000Z</time></trkpt>
<trkpt lat="41.728423" lon="23.482955"><ele>2763.1</ele><time>2026-03-15T10:30:34.000Z</time></trkpt>
<trkpt lat="41.728427" lon="23.482956"><ele>2763.1</ele><time>2026-03-15T10:30:35.000Z</time></trkpt>
<trkpt lat="41.728432" lon="23.482957"><ele>2763.5</ele><time>2026-03-15T10:30:36.000Z</time></trkpt>
<trkpt lat="41.728438" lon="23.482958"><ele>2763.5</ele><time>2026-03-15T10:30:37.000Z</time></trkpt>
<trkpt lat="41.728445" lon="23.48296"><ele>2763.5</ele><time>2026-03-15T10:30:38.000Z</time></trkpt>
<trkpt lat="41.728451" lon="23.482961"><ele>2763.5</ele><time>2026-03-15T10:30:39.000Z</time></trkpt>
<trkpt lat="41.728455" lon="23.482961"><ele>2763.5</ele><time>2026-03-15T10:30:40.000Z</time></trkpt>
<trkpt lat="41.728458" lon="23.48296"><ele>2763.8</ele><time>2026-03-15T10:30:41.000Z</time></trkpt>
<trkpt lat="41.72846" lon="23.48296"><ele>2763.8</ele><time>2026-03-15T10:30:42.000Z</time></trkpt>
<trkpt lat="41.728462" lon="23.482959"><ele>2763.8</ele><time>2026-03-15T10:30:43.000Z</time></trkpt>
<trkpt lat="41.728463" lon="23.482959"><ele>2763.8</ele><time>2026-03-15T10:30:44.000Z</time></trkpt>
<trkpt lat="41.728463" lon="23.482959"><ele>2763.8</ele><time>2026-03-15T10:30:45.000Z</time></trkpt>
<trkpt lat="41.728462" lon="23.482961"><ele>2764.5</ele><time>2026-03-15T10:30:46.000Z</time></trkpt>
<trkpt lat="41.728459" lon="23.482962"><ele>2764.5</ele><time>2026-03-15T10:30:47.000Z</time></trkpt>
<trkpt lat="41.728454" lon="23.482962"><ele>2764.5</ele><time>2026-03-15T10:30:48.000Z</time></trkpt>
<trkpt lat="41.728447" lon="23.482961"><ele>2764.5</ele><time>2026-03-15T10:30:49.000Z</time></trkpt>
<trkpt lat="41.728442" lon="23.482959"><ele>2764.5</ele><time>2026-03-15T10:30:50.000Z</time></trkpt>
<trkpt lat="41.728438" lon="23.482956"><ele>2765</ele><time>2026-03-15T10:30:51.000Z</time></trkpt>
<trkpt lat="41.728436" lon="23.482953"><ele>2765</ele><time>2026-03-15T10:30:52.000Z</time></trkpt>
<trkpt lat="41.728434" lon="23.482951"><ele>2765</ele><time>2026-03-15T10:30:53.000Z</time></trkpt>
<trkpt lat="41.728434" lon="23.48295"><ele>2765</ele><time>2026-03-15T10:30:54.000Z</time></trkpt>
<trkpt lat="41.728435" lon="23.482949"><ele>2765</ele><time>2026-03-15T10:30:55.000Z</time></trkpt>
<trkpt lat="41.728435" lon="23.482948"><ele>2765.1</ele><time>2026-03-15T10:30:56.000Z</time></trkpt>
<trkpt lat="41.728434" lon="23.482948"><ele>2765.1</ele><time>2026-03-15T10:30:57.000Z</time></trkpt>
<trkpt lat="41.728434" lon="23.482948"><ele>2765.1</ele><time>2026-03-15T10:30:58.000Z</time></trkpt>
<trkpt lat="41.728433" lon="23.482949"><ele>2765.1</ele><time>2026-03-15T10:30:59.000Z</time></trkpt>
<trkpt lat="41.728432" lon="23.482953"><ele>2765.1</ele><time>2026-03-15T10:31:00.000Z</time></trkpt>
<trkpt lat="41.728429" lon="23.482958"><ele>2765.1</ele><time>2026-03-15T10:31:01.000Z</time></trkpt>
<trkpt lat="41.728428" lon="23.482962"><ele>2765.1</ele><time>2026-03-15T10:31:02.000Z</time></trkpt>
<trkpt lat="41.728427" lon="23.482966"><ele>2765.1</ele><time>2026-03-15T10:31:03.000Z</time></trkpt>
<trkpt lat="41.728426" lon="23.482968"><ele>2765.1</ele><time>2026-03-15T10:31:04.000Z</time></trkpt>
<trkpt lat="41.728425" lon="23.482966"><ele>2765.1</ele><time>2026-03-15T10:31:05.000Z</time></trkpt>
<trkpt lat="41.728426" lon="23.482964"><ele>2765</ele><time>2026-03-15T10:31:06.000Z</time></trkpt>
<trkpt lat="41.728428" lon="23.482961"><ele>2765</ele><time>2026-03-15T10:31:07.000Z</time></trkpt>
<trkpt lat="41.72843" lon="23.482958"><ele>2765</ele><time>2026-03-15T10:31:08.000Z</time></trkpt>
<trkpt lat="41.728434" lon="23.482957"><ele>2765</ele><time>2026-03-15T10:31:09.000Z</time></trkpt>
<trkpt lat="41.728438" lon="23.482958"><ele>2765</ele><time>2026-03-15T10:31:10.000Z</time></trkpt>
<trkpt lat="41.728441" lon="23.482958"><ele>2765</ele><time>2026-03-15T10:31:11.000Z</time></trkpt>
<trkpt lat="41.728445" lon="23.482959"><ele>2765</ele><time>2026-03-15T10:31:12.000Z</time></trkpt>
<trkpt lat="41.728449" lon="23.48296"><ele>2765</ele><time>2026-03-15T10:31:13.000Z</time></trkpt>
<trkpt lat="41.728453" lon="23.482961"><ele>2765</ele><time>2026-03-15T10:31:14.000Z</time></trkpt>
<trkpt lat="41.728457" lon="23.482962"><ele>2765</ele><time>2026-03-15T10:31:15.000Z</time></trkpt>
<trkpt lat="41.72846" lon="23.482963"><ele>2765</ele><time>2026-03-15T10:31:16.000Z</time></trkpt>
<trkpt lat="41.728463" lon="23.482963"><ele>2765</ele><time>2026-03-15T10:31:17.000Z</time></trkpt>
<trkpt lat="41.728463" lon="23.482963"><ele>2765</ele><time>2026-03-15T10:31:18.000Z</time></trkpt>
<trkpt lat="41.728464" lon="23.482962"><ele>2765</ele><time>2026-03-15T10:31:19.000Z</time></trkpt>
<trkpt lat="41.728464" lon="23.482959"><ele>2765</ele><time>2026-03-15T10:31:20.000Z</time></trkpt>
<trkpt lat="41.728464" lon="23.482957"><ele>2765.1</ele><time>2026-03-15T10:31:21.000Z</time></trkpt>
<trkpt lat="41.728466" lon="23.482954"><ele>2765.1</ele><time>2026-03-15T10:31:22.000Z</time></trkpt>
<trkpt lat="41.728468" lon="23.482951"><ele>2765.1</ele><time>2026-03-15T10:31:23.000Z</time></trkpt>
<trkpt lat="41.728469" lon="23.482948"><ele>2765.1</ele><time>2026-03-15T10:31:24.000Z</time></trkpt>
<trkpt lat="41.728469" lon="23.482948"><ele>2765.1</ele><time>2026-03-15T10:31:25.000Z</time></trkpt>
<trkpt lat="41.728468" lon="23.482948"><ele>2765.1</ele><time>2026-03-15T10:31:26.000Z</time></trkpt>
<trkpt lat="41.728467" lon="23.482948"><ele>2765.1</ele><time>2026-03-15T10:31:27.000Z</time></trkpt>
<trkpt lat="41.728465" lon="23.482948"><ele>2765.1</ele><time>2026-03-15T10:31:28.000Z</time></trkpt>
<trkpt lat="41.728463" lon="23.482948"><ele>2765.1</ele><time>2026-03-15T10:31:29.000Z</time></trkpt>
<trkpt lat="41.728462" lon="23.482948"><ele>2765.1</ele><time>2026-03-15T10:31:30.000Z</time></trkpt>
<trkpt lat="41.728462" lon="23.482948"><ele>2765.2</ele><time>2026-03-15T10:31:31.000Z</time></trkpt>
<trkpt lat="41.728462" lon="23.482949"><ele>2765.2</ele><time>2026-03-15T10:31:32.000Z</time></trkpt>
<trkpt lat="41.728461" lon="23.482952"><ele>2765.2</ele><time>2026-03-15T10:31:33.000Z</time></trkpt>
<trkpt lat="41.72846" lon="23.482954"><ele>2765.2</ele><time>2026-03-15T10:31:34.000Z</time></trkpt>
<trkpt lat="41.728458" lon="23.482958"><ele>2765.2</ele><time>2026-03-15T10:31:35.000Z</time></trkpt>
<trkpt lat="41.728456" lon="23.482961"><ele>2765.3</ele><time>2026-03-15T10:31:36.000Z</time></trkpt>
<trkpt lat="41.728453" lon="23.482963"><ele>2765.3</ele><time>2026-03-15T10:31:37.000Z</time></trkpt>
<trkpt lat="41.728451" lon="23.482962"><ele>2765.3</ele><time>2026-03-15T10:31:38.000Z</time></trkpt>
<trkpt lat="41.728448" lon="23.482959"><ele>2765.3</ele><time>2026-03-15T10:31:39.000Z</time></trkpt>
<trkpt lat="41.728446" lon="23.482955"><ele>2765.3</ele><time>2026-03-15T10:31:40.000Z</time></trkpt>
<trkpt lat="41.728444" lon="23.482952"><ele>2765.3</ele><time>2026-03-15T10:31:41.000Z</time></trkpt>
<trkpt lat="41.728444" lon="23.48295"><ele>2765.3</ele><time>2026-03-15T10:31:42.000Z</time></trkpt>
<trkpt lat="41.728445" lon="23.482951"><ele>2765.3</ele><time>2026-03-15T10:31:43.000Z</time></trkpt>
<trkpt lat="41.728446" lon="23.482952"><ele>2765.3</ele><time>2026-03-15T10:31:44.000Z</time></trkpt>
<trkpt lat="41.728448" lon="23.482953"><ele>2765.3</ele><time>2026-03-15T10:31:45.000Z</time></trkpt>
<trkpt lat="41.72845" lon="23.482954"><ele>2765.3</ele><time>2026-03-15T10:31:46.000Z</time></trkpt>
<trkpt lat="41.728452" lon="23.482954"><ele>2765.3</ele><time>2026-03-15T10:31:47.000Z</time></trkpt>
<trkpt lat="41.728454" lon="23.482955"><ele>2765.3</ele><time>2026-03-15T10:31:48.000Z</time></trkpt>
<trkpt lat="41.728456" lon="23.482956"><ele>2765.3</ele><time>2026-03-15T10:31:49.000Z</time></trkpt>
<trkpt lat="41.728457" lon="23.482957"><ele>2765.3</ele><time>2026-03-15T10:31:50.000Z</time></trkpt>
<trkpt lat="41.728457" lon="23.482958"><ele>2765.3</ele><time>2026-03-15T10:31:51.000Z</time></trkpt>
<trkpt lat="41.728457" lon="23.482959"><ele>2765.3</ele><time>2026-03-15T10:31:52.000Z</time></trkpt>
<trkpt lat="41.728458" lon="23.482959"><ele>2765.3</ele><time>2026-03-15T10:31:53.000Z</time></trkpt>
<trkpt lat="41.728458" lon="23.482959"><ele>2765.3</ele><time>2026-03-15T10:31:54.000Z</time></trkpt>
<trkpt lat="41.728458" lon="23.482959"><ele>2765.3</ele><time>2026-03-15T10:31:55.000Z</time></trkpt>
<trkpt lat="41.728458" lon="23.482959"><ele>2765.3</ele><time>2026-03-15T10:31:56.000Z</time></trkpt>
<trkpt lat="41.728458" lon="23.482959"><ele>2765.3</ele><time>2026-03-15T10:31:57.000Z</time></trkpt>
<trkpt lat="41.728458" lon="23.482959"><ele>2765.3</ele><time>2026-03-15T10:31:58.000Z</time></trkpt>
<trkpt lat="41.728458" lon="23.482959"><ele>2765.3</ele><time>2026-03-15T10:31:59.000Z</time></trkpt>
<trkpt lat="41.728458" lon="23.482959"><ele>2765.3</ele><time>2026-03-15T10:32:00.000Z</time></trkpt>
<trkpt lat="41.728458" lon="23.482959"><ele>2765.4</ele><time>2026-03-15T10:32:01.000Z</time></trkpt>
<trkpt lat="41.728458" lon="23.482959"><ele>2765.4</ele><time>2026-03-15T10:32:02.000Z</time></trkpt>
<trkpt lat="41.728458" lon="23.482958"><ele>2765.4</ele><time>2026-03-15T10:32:03.000Z</time></trkpt>
<trkpt lat="41.728459" lon="23.482958"><ele>2765.4</ele><time>2026-03-15T10:32:04.000Z</time></trkpt>
<trkpt lat="41.728459" lon="23.482957"><ele>2765.4</ele><time>2026-03-15T10:32:05.000Z</time></trkpt>
<trkpt lat="41.728459" lon="23.482956"><ele>2765.5</ele><time>2026-03-15T10:32:06.000Z</time></trkpt>
<trkpt lat="41.728459" lon="23.482956"><ele>2765.5</ele><time>2026-03-15T10:32:07.000Z</time></trkpt>
<trkpt lat="41.728459" lon="23.482955"><ele>2765.5</ele><time>2026-03-15T10:32:08.000Z</time></trkpt>
<trkpt lat="41.728459" lon="23.482954"><ele>2765.5</ele><time>2026-03-15T10:32:09.000Z</time></trkpt>
<trkpt lat="41.728459" lon="23.482954"><ele>2765.5</ele><time>2026-03-15T10:32:10.000Z</time></trkpt>
<trkpt lat="41.72846" lon="23.482953"><ele>2765.5</ele><time>2026-03-15T10:32:11.000Z</time></trkpt>
<trkpt lat="41.72846" lon="23.482953"><ele>2765.5</ele><time>2026-03-15T10:32:12.000Z</time></trkpt>
<trkpt lat="41.72846" lon="23.482953"><ele>2765.5</ele><time>2026-03-15T10:32:13.000Z</time></trkpt>
<trkpt lat="41.72846" lon="23.482953"><ele>2765.5</ele><time>2026-03-15T10:32:14.000Z</time></trkpt>
<trkpt lat="41.72846" lon="23.482953"><ele>2765.5</ele><time>2026-03-15T10:32:15.000Z</time></trkpt>
<trkpt lat="41.72846" lon="23.482953"><ele>2765.6</ele><time>2026-03-15T10:32:16.000Z</time></trkpt>
<trkpt lat="41.72846" lon="23.482953"><ele>2765.6</ele><time>2026-03-15T10:32:17.000Z</time></trkpt>
<trkpt lat="41.72846" lon="23.482953"><ele>2765.6</ele><time>2026-03-15T10:32:18.000Z</time></trkpt>
<trkpt lat="41.72846" lon="23.482953"><ele>2765.6</ele><time>2026-03-15T10:32:19.000Z</time></trkpt>
<trkpt lat="41.72846" lon="23.482953"><ele>2765.6</ele><time>2026-03-15T10:32:20.000Z</time></trkpt>
<trkpt lat="41.72846" lon="23.482953"><ele>2765.6</ele><time>2026-03-15T10:32:21.000Z</time></trkpt>
<trkpt lat="41.72846" lon="23.482953"><ele>2765.6</ele><time>2026-03-15T10:32:22.000Z</time></trkpt>
<trkpt lat="41.72846" lon="23.482953"><ele>2765.6</ele><time>2026-03-15T10:32:23.000Z</time></trkpt>
<trkpt lat="41.72846" lon="23.482953"><ele>2765.6</ele><time>2026-03-15T10:32:24.000Z</time></trkpt>
<trkpt lat="41.72846" lon="23.482953"><ele>2765.6</ele><time>2026-03-15T10:32:25.000Z</time></trkpt>
<trkpt lat="41.72846" lon="23.482953"><ele>2765.7</ele><time>2026-03-15T10:32:26.000Z</time></trkpt>
<trkpt lat="41.72846" lon="23.482952"><ele>2765.7</ele><time>2026-03-15T10:32:27.000Z</time></trkpt>
<trkpt lat="41.72846" lon="23.482952"><ele>2765.7</ele><time>2026-03-15T10:32:28.000Z</time></trkpt>
<trkpt lat="41.72846" lon="23.482951"><ele>2765.7</ele><time>2026-03-15T10:32:29.000Z</time></trkpt>
<trkpt lat="41.72846" lon="23.482951"><ele>2765.7</ele><time>2026-03-15T10:32:30.000Z</time></trkpt>
<trkpt lat="41.72846" lon="23.482951"><ele>2765.8</ele><time>2026-03-15T10:32:31.000Z</time></trkpt>
<trkpt lat="41.72846" lon="23.482951"><ele>2765.8</ele><time>2026-03-15T10:32:32.000Z</time></trkpt>
<trkpt lat="41.72846" lon="23.482951"><ele>2765.8</ele><time>2026-03-15T10:32:33.000Z</time></trkpt>
<trkpt lat="41.72846" lon="23.482951"><ele>2765.8</ele><time>2026-03-15T10:32:34.000Z</time></trkpt>
<trkpt lat="41.72846" lon="23.482951"><ele>2765.8</ele><time>2026-03-15T10:32:35.000Z</time></trkpt>
<trkpt lat="41.72846" lon="23.482951"><ele>2765.9</ele><time>2026-03-15T10:32:36.000Z</time></trkpt>
<trkpt lat="41.72846" lon="23.482951"><ele>2765.9</ele><time>2026-03-15T10:32:37.000Z</time></trkpt>
<trkpt lat="41.72846" lon="23.482952"><ele>2765.9</ele><time>2026-03-15T10:32:38.000Z</time></trkpt>
<trkpt lat="41.72846" lon="23.482952"><ele>2765.9</ele><time>2026-03-15T10:32:39.000Z</time></trkpt>
<trkpt lat="41.72846" lon="23.482952"><ele>2765.9</ele><time>2026-03-15T10:32:40.000Z</time></trkpt>
<trkpt lat="41.72846" lon="23.482953"><ele>2765.9</ele><time>2026-03-15T10:32:41.000Z</time></trkpt>
<trkpt lat="41.72846" lon="23.482953"><ele>2765.9</ele><time>2026-03-15T10:32:42.000Z</time></trkpt>
<trkpt lat="41.72846" lon="23.482954"><ele>2765.9</ele><time>2026-03-15T10:32:43.000Z</time></trkpt>
<trkpt lat="41.728459" lon="23.482955"><ele>2765.9</ele><time>2026-03-15T10:32:44.000Z</time></trkpt>
<trkpt lat="41.728458" lon="23.482955"><ele>2765.9</ele><time>2026-03-15T10:32:45.000Z</time></trkpt>
<trkpt lat="41.728457" lon="23.482956"><ele>2765.9</ele><time>2026-03-15T10:32:46.000Z</time></trkpt>
<trkpt lat="41.728456" lon="23.482956"><ele>2765.9</ele><time>2026-03-15T10:32:47.000Z</time></trkpt>
<trkpt lat="41.728455" lon="23.482957"><ele>2765.9</ele><time>2026-03-15T10:32:48.000Z</time></trkpt>
<trkpt lat="41.728453" lon="23.482956"><ele>2765.9</ele><time>2026-03-15T10:32:49.000Z</time></trkpt>
<trkpt lat="41.72845" lon="23.482956"><ele>2765.9</ele><time>2026-03-15T10:32:50.000Z</time></trkpt>
<trkpt lat="41.728446" lon="23.482955"><ele>2765.9</ele><time>2026-03-15T10:32:51.000Z</time></trkpt>
<trkpt lat="41.72844" lon="23.482954"><ele>2765.9</ele><time>2026-03-15T10:32:52.000Z</time></trkpt>
<trkpt lat="41.728435" lon="23.482952"><ele>2765.9</ele><time>2026-03-15T10:32:53.000Z</time></trkpt>
<trkpt lat="41.728431" lon="23.482949"><ele>2765.9</ele><time>2026-03-15T10:32:54.000Z</time></trkpt>
<trkpt lat="41.728429" lon="23.482947"><ele>2765.9</ele><time>2026-03-15T10:32:55.000Z</time></trkpt>
<trkpt lat="41.728428" lon="23.482946"><ele>2765.8</ele><time>2026-03-15T10:32:56.000Z</time></trkpt>
<trkpt lat="41.728429" lon="23.482946"><ele>2765.8</ele><time>2026-03-15T10:32:57.000Z</time></trkpt>
<trkpt lat="41.728431" lon="23.482948"><ele>2765.8</ele><time>2026-03-15T10:32:58.000Z</time></trkpt>
<trkpt lat="41.728433" lon="23.482952"><ele>2765.8</ele><time>2026-03-15T10:32:59.000Z</time></trkpt>
<trkpt lat="41.728433" lon="23.482956"><ele>2765.8</ele><time>2026-03-15T10:33:00.000Z</time></trkpt>
<trkpt lat="41.728432" lon="23.482959"><ele>2765.4</ele><time>2026-03-15T10:33:01.000Z</time></trkpt>
<trkpt lat="41.728432" lon="23.482961"><ele>2765.4</ele><time>2026-03-15T10:33:02.000Z</time></trkpt>
<trkpt lat="41.728432" lon="23.482963"><ele>2765.4</ele><time>2026-03-15T10:33:03.000Z</time></trkpt>
<trkpt lat="41.728432" lon="23.482963"><ele>2765.4</ele><time>2026-03-15T10:33:04.000Z</time></trkpt>
<trkpt lat="41.728434" lon="23.482963"><ele>2765.4</ele><time>2026-03-15T10:33:05.000Z</time></trkpt>
<trkpt lat="41.728436" lon="23.482964"><ele>2765</ele><time>2026-03-15T10:33:06.000Z</time></trkpt>
<trkpt lat="41.728437" lon="23.482964"><ele>2765</ele><time>2026-03-15T10:33:07.000Z</time></trkpt>
<trkpt lat="41.728437" lon="23.482963"><ele>2765</ele><time>2026-03-15T10:33:08.000Z</time></trkpt>
<trkpt lat="41.728437" lon="23.482963"><ele>2765</ele><time>2026-03-15T10:33:09.000Z</time></trkpt>
<trkpt lat="41.728437" lon="23.482963"><ele>2765</ele><time>2026-03-15T10:33:10.000Z</time></trkpt>
<trkpt lat="41.728437" lon="23.482962"><ele>2764.8</ele><time>2026-03-15T10:33:11.000Z</time></trkpt>
<trkpt lat="41.728437" lon="23.482962"><ele>2764.8</ele><time>2026-03-15T10:33:12.000Z</time></trkpt>
<trkpt lat="41.728437" lon="23.482962"><ele>2764.8</ele><time>2026-03-15T10:33:13.000Z</time></trkpt>
<trkpt lat="41.728437" lon="23.482961"><ele>2764.8</ele><time>2026-03-15T10:33:14.000Z</time></trkpt>
<trkpt lat="41.728436" lon="23.482961"><ele>2764.8</ele><time>2026-03-15T10:33:15.000Z</time></trkpt>
<trkpt lat="41.728436" lon="23.48296"><ele>2764.7</ele><time>2026-03-15T10:33:16.000Z</time></trkpt>
<trkpt lat="41.728436" lon="23.482959"><ele>2764.7</ele><time>2026-03-15T10:33:17.000Z</time></trkpt>
<trkpt lat="41.728435" lon="23.482958"><ele>2764.7</ele><time>2026-03-15T10:33:18.000Z</time></trkpt>
<trkpt lat="41.728434" lon="23.482957"><ele>2764.7</ele><time>2026-03-15T10:33:19.000Z</time></trkpt>
<trkpt lat="41.728434" lon="23.482957"><ele>2764.7</ele><time>2026-03-15T10:33:20.000Z</time></trkpt>
<trkpt lat="41.728434" lon="23.482956"><ele>2764.6</ele><time>2026-03-15T10:33:21.000Z</time></trkpt>
<trkpt lat="41.728433" lon="23.482956"><ele>2764.6</ele><time>2026-03-15T10:33:22.000Z</time></trkpt>
<trkpt lat="41.728432" lon="23.482955"><ele>2764.6</ele><time>2026-03-15T10:33:23.000Z</time></trkpt>
<trkpt lat="41.728432" lon="23.482955"><ele>2764.6</ele><time>2026-03-15T10:33:24.000Z</time></trkpt>
<trkpt lat="41.728431" lon="23.482955"><ele>2764.6</ele><time>2026-03-15T10:33:25.000Z</time></trkpt>
<trkpt lat="41.72843" lon="23.482955"><ele>2764.5</ele><time>2026-03-15T10:33:26.000Z</time></trkpt>
<trkpt lat="41.728429" lon="23.482955"><ele>2764.5</ele><time>2026-03-15T10:33:27.000Z</time></trkpt>
<trkpt lat="41.728429" lon="23.482955"><ele>2764.5</ele><time>2026-03-15T10:33:28.000Z</time></trkpt>
<trkpt lat="41.728429" lon="23.482956"><ele>2764.5</ele><time>2026-03-15T10:33:29.000Z</time></trkpt>
<trkpt lat="41.728428" lon="23.482956"><ele>2764.5</ele><time>2026-03-15T10:33:30.000Z</time></trkpt>
<trkpt lat="41.728428" lon="23.482956"><ele>2764.5</ele><time>2026-03-15T10:33:31.000Z</time></trkpt>
<trkpt lat="41.728428" lon="23.482956"><ele>2764.5</ele><time>2026-03-15T10:33:32.000Z</time></trkpt>
<trkpt lat="41.728428" lon="23.482956"><ele>2764.5</ele><time>2026-03-15T10:33:33.000Z</time></trkpt>
<trkpt lat="41.728429" lon="23.482957"><ele>2764.5</ele><time>2026-03-15T10:33:34.000Z</time></trkpt>
<trkpt lat="41.728431" lon="23.482959"><ele>2764.5</ele><time>2026-03-15T10:33:35.000Z</time></trkpt>
<trkpt lat="41.728433" lon="23.482961"><ele>2764.7</ele><time>2026-03-15T10:33:36.000Z</time></trkpt>
<trkpt lat="41.728434" lon="23.482963"><ele>2764.7</ele><time>2026-03-15T10:33:37.000Z</time></trkpt>
<trkpt lat="41.728436" lon="23.482964"><ele>2764.7</ele><time>2026-03-15T10:33:38.000Z</time></trkpt>
<trkpt lat="41.728437" lon="23.482965"><ele>2764.7</ele><time>2026-03-15T10:33:39.000Z</time></trkpt>
<trkpt lat="41.728438" lon="23.482964"><ele>2764.7</ele><time>2026-03-15T10:33:40.000Z</time></trkpt>
<trkpt lat="41.728439" lon="23.482963"><ele>2764.8</ele><time>2026-03-15T10:33:41.000Z</time></trkpt>
<trkpt lat="41.72844" lon="23.482962"><ele>2764.8</ele><time>2026-03-15T10:33:42.000Z</time></trkpt>
<trkpt lat="41.72844" lon="23.482961"><ele>2764.8</ele><time>2026-03-15T10:33:43.000Z</time></trkpt>
<trkpt lat="41.72844" lon="23.482961"><ele>2764.8</ele><time>2026-03-15T10:33:44.000Z</time></trkpt>
<trkpt lat="41.72844" lon="23.48296"><ele>2764.8</ele><time>2026-03-15T10:33:45.000Z</time></trkpt>
<trkpt lat="41.72844" lon="23.48296"><ele>2765</ele><time>2026-03-15T10:33:46.000Z</time></trkpt>
<trkpt lat="41.728441" lon="23.482959"><ele>2765</ele><time>2026-03-15T10:33:47.000Z</time></trkpt>
<trkpt lat="41.728441" lon="23.482958"><ele>2765</ele><time>2026-03-15T10:33:48.000Z</time></trkpt>
<trkpt lat="41.728441" lon="23.482957"><ele>2765</ele><time>2026-03-15T10:33:49.000Z</time></trkpt>
<trkpt lat="41.728441" lon="23.482957"><ele>2765</ele><time>2026-03-15T10:33:50.000Z</time></trkpt>
<trkpt lat="41.728441" lon="23.482956"><ele>2765</ele><time>2026-03-15T10:33:51.000Z</time></trkpt>
<trkpt lat="41.728441" lon="23.482956"><ele>2765</ele><time>2026-03-15T10:33:52.000Z</time></trkpt>
<trkpt lat="41.728441" lon="23.482955"><ele>2765</ele><time>2026-03-15T10:33:53.000Z</time></trkpt>
<trkpt lat="41.728441" lon="23.482955"><ele>2765</ele><time>2026-03-15T10:33:54.000Z</time></trkpt>
<trkpt lat="41.728441" lon="23.482954"><ele>2765</ele><time>2026-03-15T10:33:55.000Z</time></trkpt>
<trkpt lat="41.728441" lon="23.482954"><ele>2764.9</ele><time>2026-03-15T10:33:56.000Z</time></trkpt>
<trkpt lat="41.728441" lon="23.482954"><ele>2764.9</ele><time>2026-03-15T10:33:57.000Z</time></trkpt>
<trkpt lat="41.728441" lon="23.482954"><ele>2764.9</ele><time>2026-03-15T10:33:58.000Z</time></trkpt>
<trkpt lat="41.728441" lon="23.482954"><ele>2764.9</ele><time>2026-03-15T10:33:59.000Z</time></trkpt>
<trkpt lat="41.728441" lon="23.482954"><ele>2764.9</ele><time>2026-03-15T10:34:00.000Z</time></trkpt>
<trkpt lat="41.728441" lon="23.482954"><ele>2764.8</ele><time>2026-03-15T10:34:01.000Z</time></trkpt>
<trkpt lat="41.728441" lon="23.482954"><ele>2764.8</ele><time>2026-03-15T10:34:02.000Z</time></trkpt>
<trkpt lat="41.728441" lon="23.482954"><ele>2764.8</ele><time>2026-03-15T10:34:03.000Z</time></trkpt>
<trkpt lat="41.728441" lon="23.482954"><ele>2764.8</ele><time>2026-03-15T10:34:04.000Z</time></trkpt>
<trkpt lat="41.728441" lon="23.482954"><ele>2764.8</ele><time>2026-03-15T10:34:05.000Z</time></trkpt>
<trkpt lat="41.728441" lon="23.482955"><ele>2764.7</ele><time>2026-03-15T10:34:06.000Z</time></trkpt>
<trkpt lat="41.728441" lon="23.482955"><ele>2764.7</ele><time>2026-03-15T10:34:07.000Z</time></trkpt>
<trkpt lat="41.728441" lon="23.482955"><ele>2764.7</ele><time>2026-03-15T10:34:08.000Z</time></trkpt>
<trkpt lat="41.72844" lon="23.482955"><ele>2764.7</ele><time>2026-03-15T10:34:09.000Z</time></trkpt>
<trkpt lat="41.728439" lon="23.482955"><ele>2764.7</ele><time>2026-03-15T10:34:10.000Z</time></trkpt>
<trkpt lat="41.728439" lon="23.482955"><ele>2764.6</ele><time>2026-03-15T10:34:11.000Z</time></trkpt>
<trkpt lat="41.728438" lon="23.482955"><ele>2764.6</ele><time>2026-03-15T10:34:12.000Z</time></trkpt>
<trkpt lat="41.728437" lon="23.482955"><ele>2764.6</ele><time>2026-03-15T10:34:13.000Z</time></trkpt>
<trkpt lat="41.728437" lon="23.482955"><ele>2764.6</ele><time>2026-03-15T10:34:14.000Z</time></trkpt>
<trkpt lat="41.728437" lon="23.482955"><ele>2764.6</ele><time>2026-03-15T10:34:15.000Z</time></trkpt>
<trkpt lat="41.728437" lon="23.482955"><ele>2764.4</ele><time>2026-03-15T10:34:16.000Z</time></trkpt>
<trkpt lat="41.728437" lon="23.482955"><ele>2764.4</ele><time>2026-03-15T10:34:17.000Z</time></trkpt>
<trkpt lat="41.728437" lon="23.482955"><ele>2764.4</ele><time>2026-03-15T10:34:18.000Z</time></trkpt>
<trkpt lat="41.728437" lon="23.482955"><ele>2764.4</ele><time>2026-03-15T10:34:19.000Z</time></trkpt>
<trkpt lat="41.728437" lon="23.482955"><ele>2764.4</ele><time>2026-03-15T10:34:20.000Z</time></trkpt>
<trkpt lat="41.728437" lon="23.482955"><ele>2764.4</ele><time>2026-03-15T10:34:21.000Z</time></trkpt>
<trkpt lat="41.728437" lon="23.482955"><ele>2764.4</ele><time>2026-03-15T10:34:22.000Z</time></trkpt>
<trkpt lat="41.728437" lon="23.482955"><ele>2764.4</ele><time>2026-03-15T10:34:23.000Z</time></trkpt>
<trkpt lat="41.728436" lon="23.482954"><ele>2764.4</ele><time>2026-03-15T10:34:24.000Z</time></trkpt>
<trkpt lat="41.728436" lon="23.482954"><ele>2764.4</ele><time>2026-03-15T10:34:25.000Z</time></trkpt>
<trkpt lat="41.728436" lon="23.482954"><ele>2764.4</ele><time>2026-03-15T10:34:26.000Z</time></trkpt>
<trkpt lat="41.728436" lon="23.482954"><ele>2764.4</ele><time>2026-03-15T10:34:27.000Z</time></trkpt>
<trkpt lat="41.728436" lon="23.482954"><ele>2764.4</ele><time>2026-03-15T10:34:28.000Z</time></trkpt>
<trkpt lat="41.728436" lon="23.482954"><ele>2764.4</ele><time>2026-03-15T10:34:29.000Z</time></trkpt>
<trkpt lat="41.728436" lon="23.482953"><ele>2764.4</ele><time>2026-03-15T10:34:30.000Z</time></trkpt>
<trkpt lat="41.728436" lon="23.482953"><ele>2764.4</ele><time>2026-03-15T10:34:31.000Z</time></trkpt>
<trkpt lat="41.728436" lon="23.482953"><ele>2764.4</ele><time>2026-03-15T10:34:32.000Z</time></trkpt>
<trkpt lat="41.728436" lon="23.482953"><ele>2764.4</ele><time>2026-03-15T10:34:33.000Z</time></trkpt>
<trkpt lat="41.728436" lon="23.482952"><ele>2764.4</ele><time>2026-03-15T10:34:34.000Z</time></trkpt>
<trkpt lat="41.728436" lon="23.482953"><ele>2764.4</ele><time>2026-03-15T10:34:35.000Z</time></trkpt>
<trkpt lat="41.728436" lon="23.482954"><ele>2764.2</ele><time>2026-03-15T10:34:36.000Z</time></trkpt>
<trkpt lat="41.728436" lon="23.482954"><ele>2764.2</ele><time>2026-03-15T10:34:37.000Z</time></trkpt>
<trkpt lat="41.728437" lon="23.482955"><ele>2764.2</ele><time>2026-03-15T10:34:38.000Z</time></trkpt>
<trkpt lat="41.728437" lon="23.482956"><ele>2764.2</ele><time>2026-03-15T10:34:39.000Z</time></trkpt>
<trkpt lat="41.728437" lon="23.482956"><ele>2764.2</ele><time>2026-03-15T10:34:40.000Z</time></trkpt>
<trkpt lat="41.728436" lon="23.482956"><ele>2764.1</ele><time>2026-03-15T10:34:41.000Z</time></trkpt>
<trkpt lat="41.728436" lon="23.482956"><ele>2764.1</ele><time>2026-03-15T10:34:42.000Z</time></trkpt>
<trkpt lat="41.728436" lon="23.482956"><ele>2764.1</ele><time>2026-03-15T10:34:43.000Z</time></trkpt>
<trkpt lat="41.728435" lon="23.482956"><ele>2764.1</ele><time>2026-03-15T10:34:44.000Z</time></trkpt>
<trkpt lat="41.728434" lon="23.482956"><ele>2764.1</ele><time>2026-03-15T10:34:45.000Z</time></trkpt>
<trkpt lat="41.728433" lon="23.482956"><ele>2763.8</ele><time>2026-03-15T10:34:46.000Z</time></trkpt>
<trkpt lat="41.728431" lon="23.482956"><ele>2763.8</ele><time>2026-03-15T10:34:47.000Z</time></trkpt>
<trkpt lat="41.728429" lon="23.482955"><ele>2763.8</ele><time>2026-03-15T10:34:48.000Z</time></trkpt>
<trkpt lat="41.728426" lon="23.482955"><ele>2763.8</ele><time>2026-03-15T10:34:49.000Z</time></trkpt>
<trkpt lat="41.728425" lon="23.482954"><ele>2763.8</ele><time>2026-03-15T10:34:50.000Z</time></trkpt>
<trkpt lat="41.728424" lon="23.482954"><ele>2763.7</ele><time>2026-03-15T10:34:51.000Z</time></trkpt>
<trkpt lat="41.728424" lon="23.482954"><ele>2763.7</ele><time>2026-03-15T10:34:52.000Z</time></trkpt>
<trkpt lat="41.728425" lon="23.482955"><ele>2763.7</ele><time>2026-03-15T10:34:53.000Z</time></trkpt>
<trkpt lat="41.728425" lon="23.482956"><ele>2763.7</ele><time>2026-03-15T10:34:54.000Z</time></trkpt>
<trkpt lat="41.728425" lon="23.482956"><ele>2763.7</ele><time>2026-03-15T10:34:55.000Z</time></trkpt>
<trkpt lat="41.728425" lon="23.482957"><ele>2763.7</ele><time>2026-03-15T10:34:56.000Z</time></trkpt>
<trkpt lat="41.728425" lon="23.482957"><ele>2763.7</ele><time>2026-03-15T10:34:57.000Z</time></trkpt>
<trkpt lat="41.728425" lon="23.482957"><ele>2763.7</ele><time>2026-03-15T10:34:58.000Z</time></trkpt>
<trkpt lat="41.728425" lon="23.482957"><ele>2763.7</ele><time>2026-03-15T10:34:59.000Z</time></trkpt>
<trkpt lat="41.728425" lon="23.482957"><ele>2763.7</ele><time>2026-03-15T10:35:00.000Z</time></trkpt>
<trkpt lat="41.728425" lon="23.482957"><ele>2764</ele><time>2026-03-15T10:35:01.000Z</time></trkpt>
<trkpt lat="41.728425" lon="23.482956"><ele>2764</ele><time>2026-03-15T10:35:02.000Z</time></trkpt>
<trkpt lat="41.728426" lon="23.482955"><ele>2764</ele><time>2026-03-15T10:35:03.000Z</time></trkpt>
<trkpt lat="41.728426" lon="23.482954"><ele>2764</ele><time>2026-03-15T10:35:04.000Z</time></trkpt>
<trkpt lat="41.728427" lon="23.482953"><ele>2764</ele><time>2026-03-15T10:35:05.000Z</time></trkpt>
<trkpt lat="41.728427" lon="23.482952"><ele>2764.3</ele><time>2026-03-15T10:35:06.000Z</time></trkpt>
<trkpt lat="41.728427" lon="23.482952"><ele>2764.3</ele><time>2026-03-15T10:35:07.000Z</time></trkpt>
<trkpt lat="41.728426" lon="23.482952"><ele>2764.3</ele><time>2026-03-15T10:35:08.000Z</time></trkpt>
<trkpt lat="41.728426" lon="23.482952"><ele>2764.3</ele><time>2026-03-15T10:35:09.000Z</time></trkpt>
<trkpt lat="41.728426" lon="23.482952"><ele>2764.3</ele><time>2026-03-15T10:35:10.000Z</time></trkpt>
<trkpt lat="41.728426" lon="23.482952"><ele>2764.3</ele><time>2026-03-15T10:35:11.000Z</time></trkpt>
<trkpt lat="41.728426" lon="23.482952"><ele>2764.3</ele><time>2026-03-15T10:35:12.000Z</time></trkpt>
<trkpt lat="41.728426" lon="23.482952"><ele>2764.3</ele><time>2026-03-15T10:35:13.000Z</time></trkpt>
<trkpt lat="41.728425" lon="23.482952"><ele>2764.3</ele><time>2026-03-15T10:35:14.000Z</time></trkpt>
<trkpt lat="41.728425" lon="23.482952"><ele>2764.3</ele><time>2026-03-15T10:35:15.000Z</time></trkpt>
<trkpt lat="41.728425" lon="23.482952"><ele>2764.2</ele><time>2026-03-15T10:35:16.000Z</time></trkpt>
<trkpt lat="41.728425" lon="23.482952"><ele>2764.2</ele><time>2026-03-15T10:35:17.000Z</time></trkpt>
<trkpt lat="41.728424" lon="23.482952"><ele>2764.2</ele><time>2026-03-15T10:35:18.000Z</time></trkpt>
<trkpt lat="41.728422" lon="23.482952"><ele>2764.2</ele><time>2026-03-15T10:35:19.000Z</time></trkpt>
<trkpt lat="41.728419" lon="23.482952"><ele>2764.2</ele><time>2026-03-15T10:35:20.000Z</time></trkpt>
<trkpt lat="41.728415" lon="23.482953"><ele>2764.1</ele><time>2026-03-15T10:35:21.000Z</time></trkpt>
<trkpt lat="41.728411" lon="23.482953"><ele>2764.1</ele><time>2026-03-15T10:35:22.000Z</time></trkpt>
<trkpt lat="41.728408" lon="23.482953"><ele>2764.1</ele><time>2026-03-15T10:35:23.000Z</time></trkpt>
<trkpt lat="41.728405" lon="23.482953"><ele>2764.1</ele><time>2026-03-15T10:35:24.000Z</time></trkpt>
<trkpt lat="41.728404" lon="23.482952"><ele>2764.1</ele><time>2026-03-15T10:35:25.000Z</time></trkpt>
<trkpt lat="41.728404" lon="23.48295"><ele>2764</ele><time>2026-03-15T10:35:26.000Z</time></trkpt>
<trkpt lat="41.728404" lon="23.48295"><ele>2764</ele><time>2026-03-15T10:35:27.000Z</time></trkpt>
<trkpt lat="41.728404" lon="23.48295"><ele>2764</ele><time>2026-03-15T10:35:28.000Z</time></trkpt>
<trkpt lat="41.728404" lon="23.48295"><ele>2764</ele><time>2026-03-15T10:35:29.000Z</time></trkpt>
<trkpt lat="41.728403" lon="23.48295"><ele>2764</ele><time>2026-03-15T10:35:30.000Z</time></trkpt>
<trkpt lat="41.728402" lon="23.482951"><ele>2764</ele><time>2026-03-15T10:35:31.000Z</time></trkpt>
<trkpt lat="41.728401" lon="23.48295"><ele>2764</ele><time>2026-03-15T10:35:32.000Z</time></trkpt>
<trkpt lat="41.728399" lon="23.48295"><ele>2764</ele><time>2026-03-15T10:35:33.000Z</time></trkpt>
<trkpt lat="41.728398" lon="23.48295"><ele>2764</ele><time>2026-03-15T10:35:34.000Z</time></trkpt>
<trkpt lat="41.728397" lon="23.482949"><ele>2764</ele><time>2026-03-15T10:35:35.000Z</time></trkpt>
<trkpt lat="41.728397" lon="23.482949"><ele>2763.7</ele><time>2026-03-15T10:35:36.000Z</time></trkpt>
<trkpt lat="41.728397" lon="23.482949"><ele>2763.7</ele><time>2026-03-15T10:35:37.000Z</time></trkpt>
<trkpt lat="41.728397" lon="23.482949"><ele>2763.7</ele><time>2026-03-15T10:35:38.000Z</time></trkpt>
<trkpt lat="41.728397" lon="23.482948"><ele>2763.7</ele><time>2026-03-15T10:35:39.000Z</time></trkpt>
<trkpt lat="41.728397" lon="23.482948"><ele>2763.7</ele><time>2026-03-15T10:35:40.000Z</time></trkpt>
<trkpt lat="41.728397" lon="23.482948"><ele>2763.4</ele><time>2026-03-15T10:35:41.000Z</time></trkpt>
<trkpt lat="41.728397" lon="23.482948"><ele>2763.4</ele><time>2026-03-15T10:35:42.000Z</time></trkpt>
<trkpt lat="41.728396" lon="23.482948"><ele>2763.4</ele><time>2026-03-15T10:35:43.000Z</time></trkpt>
<trkpt lat="41.728395" lon="23.482947"><ele>2763.4</ele><time>2026-03-15T10:35:44.000Z</time></trkpt>
<trkpt lat="41.728395" lon="23.482947"><ele>2763.4</ele><time>2026-03-15T10:35:45.000Z</time></trkpt>
<trkpt lat="41.728394" lon="23.482945"><ele>2763.1</ele><time>2026-03-15T10:35:46.000Z</time></trkpt>
<trkpt lat="41.728393" lon="23.482944"><ele>2763.1</ele><time>2026-03-15T10:35:47.000Z</time></trkpt>
<trkpt lat="41.728393" lon="23.482943"><ele>2763.1</ele><time>2026-03-15T10:35:48.000Z</time></trkpt>
<trkpt lat="41.728393" lon="23.482941"><ele>2763.1</ele><time>2026-03-15T10:35:49.000Z</time></trkpt>
<trkpt lat="41.728393" lon="23.48294"><ele>2763.1</ele><time>2026-03-15T10:35:50.000Z</time></trkpt>
<trkpt lat="41.728393" lon="23.482939"><ele>2762.8</ele><time>2026-03-15T10:35:51.000Z</time></trkpt>
<trkpt lat="41.728392" lon="23.482938"><ele>2762.8</ele><time>2026-03-15T10:35:52.000Z</time></trkpt>
<trkpt lat="41.728392" lon="23.482938"><ele>2762.8</ele><time>2026-03-15T10:35:53.000Z</time></trkpt>
<trkpt lat="41.728391" lon="23.482939"><ele>2762.8</ele><time>2026-03-15T10:35:54.000Z</time></trkpt>
<trkpt lat="41.728391" lon="23.482939"><ele>2762.8</ele><time>2026-03-15T10:35:55.000Z</time></trkpt>
<trkpt lat="41.728391" lon="23.48294"><ele>2762.6</ele><time>2026-03-15T10:35:56.000Z</time></trkpt>
<trkpt lat="41.72839" lon="23.48294"><ele>2762.6</ele><time>2026-03-15T10:35:57.000Z</time></trkpt>
<trkpt lat="41.728391" lon="23.48294"><ele>2762.6</ele><time>2026-03-15T10:35:58.000Z</time></trkpt>
<trkpt lat="41.728391" lon="23.48294"><ele>2762.6</ele><time>2026-03-15T10:35:59.000Z</time></trkpt>
<trkpt lat="41.728391" lon="23.48294"><ele>2762.6</ele><time>2026-03-15T10:36:00.000Z</time></trkpt>
<trkpt lat="41.728391" lon="23.48294"><ele>2762.5</ele><time>2026-03-15T10:36:01.000Z</time></trkpt>
<trkpt lat="41.728392" lon="23.48294"><ele>2762.5</ele><time>2026-03-15T10:36:02.000Z</time></trkpt>
<trkpt lat="41.728393" lon="23.482941"><ele>2762.5</ele><time>2026-03-15T10:36:03.000Z</time></trkpt>
<trkpt lat="41.728393" lon="23.482942"><ele>2762.5</ele><time>2026-03-15T10:36:04.000Z</time></trkpt>
<trkpt lat="41.728393" lon="23.482943"><ele>2762.5</ele><time>2026-03-15T10:36:05.000Z</time></trkpt>
<trkpt lat="41.728392" lon="23.482944"><ele>2762.5</ele><time>2026-03-15T10:36:06.000Z</time></trkpt>
<trkpt lat="41.728392" lon="23.482945"><ele>2762.5</ele><time>2026-03-15T10:36:07.000Z</time></trkpt>
<trkpt lat="41.728392" lon="23.482945"><ele>2762.5</ele><time>2026-03-15T10:36:08.000Z</time></trkpt>
<trkpt lat="41.728391" lon="23.482946"><ele>2762.5</ele><time>2026-03-15T10:36:09.000Z</time></trkpt>
<trkpt lat="41.728392" lon="23.482946"><ele>2762.5</ele><time>2026-03-15T10:36:10.000Z</time></trkpt>
<trkpt lat="41.728393" lon="23.482947"><ele>2762.5</ele><time>2026-03-15T10:36:11.000Z</time></trkpt>
<trkpt lat="41.728394" lon="23.482948"><ele>2762.5</ele><time>2026-03-15T10:36:12.000Z</time></trkpt>
<trkpt lat="41.728395" lon="23.482949"><ele>2762.5</ele><time>2026-03-15T10:36:13.000Z</time></trkpt>
<trkpt lat="41.728396" lon="23.482951"><ele>2762.5</ele><time>2026-03-15T10:36:14.000Z</time></trkpt>
<trkpt lat="41.728398" lon="23.482952"><ele>2762.5</ele><time>2026-03-15T10:36:15.000Z</time></trkpt>
<trkpt lat="41.728399" lon="23.482953"><ele>2762.5</ele><time>2026-03-15T10:36:16.000Z</time></trkpt>
<trkpt lat="41.7284" lon="23.482953"><ele>2762.5</ele><time>2026-03-15T10:36:17.000Z</time></trkpt>
<trkpt lat="41.728401" lon="23.482954"><ele>2762.5</ele><time>2026-03-15T10:36:18.000Z</time></trkpt>
<trkpt lat="41.728401" lon="23.482954"><ele>2762.5</ele><time>2026-03-15T10:36:19.000Z</time></trkpt>
<trkpt lat="41.728402" lon="23.482954"><ele>2762.5</ele><time>2026-03-15T10:36:20.000Z</time></trkpt>
<trkpt lat="41.728402" lon="23.482953"><ele>2762.5</ele><time>2026-03-15T10:36:21.000Z</time></trkpt>
<trkpt lat="41.728403" lon="23.482953"><ele>2762.5</ele><time>2026-03-15T10:36:22.000Z</time></trkpt>
<trkpt lat="41.728404" lon="23.482952"><ele>2762.5</ele><time>2026-03-15T10:36:23.000Z</time></trkpt>
<trkpt lat="41.728404" lon="23.482951"><ele>2762.5</ele><time>2026-03-15T10:36:24.000Z</time></trkpt>
<trkpt lat="41.728405" lon="23.482951"><ele>2762.5</ele><time>2026-03-15T10:36:25.000Z</time></trkpt>
<trkpt lat="41.728405" lon="23.48295"><ele>2762.5</ele><time>2026-03-15T10:36:26.000Z</time></trkpt>
<trkpt lat="41.728405" lon="23.48295"><ele>2762.5</ele><time>2026-03-15T10:36:27.000Z</time></trkpt>
<trkpt lat="41.728405" lon="23.48295"><ele>2762.5</ele><time>2026-03-15T10:36:28.000Z</time></trkpt>
<trkpt lat="41.728405" lon="23.48295"><ele>2762.5</ele><time>2026-03-15T10:36:29.000Z</time></trkpt>
<trkpt lat="41.728405" lon="23.48295"><ele>2762.5</ele><time>2026-03-15T10:36:30.000Z</time></trkpt>
<trkpt lat="41.728405" lon="23.48295"><ele>2762.6</ele><time>2026-03-15T10:36:31.000Z</time></trkpt>
<trkpt lat="41.728405" lon="23.48295"><ele>2762.6</ele><time>2026-03-15T10:36:32.000Z</time></trkpt>
<trkpt lat="41.728405" lon="23.482949"><ele>2762.6</ele><time>2026-03-15T10:36:33.000Z</time></trkpt>
<trkpt lat="41.728405" lon="23.482949"><ele>2762.6</ele><time>2026-03-15T10:36:34.000Z</time></trkpt>
<trkpt lat="41.728405" lon="23.482949"><ele>2762.6</ele><time>2026-03-15T10:36:35.000Z</time></trkpt>
<trkpt lat="41.728405" lon="23.482949"><ele>2762.6</ele><time>2026-03-15T10:36:36.000Z</time></trkpt>
<trkpt lat="41.728405" lon="23.482949"><ele>2762.6</ele><time>2026-03-15T10:36:37.000Z</time></trkpt>
<trkpt lat="41.728405" lon="23.482949"><ele>2762.6</ele><time>2026-03-15T10:36:38.000Z</time></trkpt>
<trkpt lat="41.728405" lon="23.482949"><ele>2762.6</ele><time>2026-03-15T10:36:39.000Z</time></trkpt>
<trkpt lat="41.728405" lon="23.482949"><ele>2762.6</ele><time>2026-03-15T10:36:40.000Z</time></trkpt>
<trkpt lat="41.728405" lon="23.482949"><ele>2762.5</ele><time>2026-03-15T10:36:41.000Z</time></trkpt>
<trkpt lat="41.728405" lon="23.482948"><ele>2762.5</ele><time>2026-03-15T10:36:42.000Z</time></trkpt>
<trkpt lat="41.728405" lon="23.482948"><ele>2762.5</ele><time>2026-03-15T10:36:43.000Z</time></trkpt>
<trkpt lat="41.728405" lon="23.482947"><ele>2762.5</ele><time>2026-03-15T10:36:44.000Z</time></trkpt>
<trkpt lat="41.728405" lon="23.482947"><ele>2762.5</ele><time>2026-03-15T10:36:45.000Z</time></trkpt>
<trkpt lat="41.728405" lon="23.482947"><ele>2762.5</ele><time>2026-03-15T10:36:46.000Z</time></trkpt>
<trkpt lat="41.728405" lon="23.482947"><ele>2762.5</ele><time>2026-03-15T10:36:47.000Z</time></trkpt>
<trkpt lat="41.728405" lon="23.482947"><ele>2762.5</ele><time>2026-03-15T10:36:48.000Z</time></trkpt>
<trkpt lat="41.728405" lon="23.482947"><ele>2762.5</ele><time>2026-03-15T10:36:49.000Z</time></trkpt>
<trkpt lat="41.728405" lon="23.482947"><ele>2762.5</ele><time>2026-03-15T10:36:50.000Z</time></trkpt>
<trkpt lat="41.728405" lon="23.482947"><ele>2762.6</ele><time>2026-03-15T10:36:51.000Z</time></trkpt>
<trkpt lat="41.728405" lon="23.482947"><ele>2762.6</ele><time>2026-03-15T10:36:52.000Z</time></trkpt>
<trkpt lat="41.728405" lon="23.482947"><ele>2762.6</ele><time>2026-03-15T10:36:53.000Z</time></trkpt>
<trkpt lat="41.728404" lon="23.482947"><ele>2762.6</ele><time>2026-03-15T10:36:54.000Z</time></trkpt>
<trkpt lat="41.728403" lon="23.482947"><ele>2762.6</ele><time>2026-03-15T10:36:55.000Z</time></trkpt>
<trkpt lat="41.728403" lon="23.482946"><ele>2762.7</ele><time>2026-03-15T10:36:56.000Z</time></trkpt>
<trkpt lat="41.728402" lon="23.482945"><ele>2762.7</ele><time>2026-03-15T10:36:57.000Z</time></trkpt>
<trkpt lat="41.728401" lon="23.482945"><ele>2762.7</ele><time>2026-03-15T10:36:58.000Z</time></trkpt>
<trkpt lat="41.728401" lon="23.482945"><ele>2762.7</ele><time>2026-03-15T10:36:59.000Z</time></trkpt>
<trkpt lat="41.7284" lon="23.482945"><ele>2762.7</ele><time>2026-03-15T10:37:00.000Z</time></trkpt>
<trkpt lat="41.728399" lon="23.482946"><ele>2762.8</ele><time>2026-03-15T10:37:01.000Z</time></trkpt>
<trkpt lat="41.728398" lon="23.482946"><ele>2762.8</ele><time>2026-03-15T10:37:02.000Z</time></trkpt>
<trkpt lat="41.728398" lon="23.482947"><ele>2762.8</ele><time>2026-03-15T10:37:03.000Z</time></trkpt>
<trkpt lat="41.728397" lon="23.482947"><ele>2762.8</ele><time>2026-03-15T10:37:04.000Z</time></trkpt>
<trkpt lat="41.728398" lon="23.482948"><ele>2762.8</ele><time>2026-03-15T10:37:05.000Z</time></trkpt>
<trkpt lat="41.728399" lon="23.482949"><ele>2762.8</ele><time>2026-03-15T10:37:06.000Z</time></trkpt>
<trkpt lat="41.7284" lon="23.482952"><ele>2762.8</ele><time>2026-03-15T10:37:07.000Z</time></trkpt>
<trkpt lat="41.728402" lon="23.482957"><ele>2762.8</ele><time>2026-03-15T10:37:08.000Z</time></trkpt>
<trkpt lat="41.728404" lon="23.482962"><ele>2762.8</ele><time>2026-03-15T10:37:09.000Z</time></trkpt>
<trkpt lat="41.728405" lon="23.482966"><ele>2762.8</ele><time>2026-03-15T10:37:10.000Z</time></trkpt>
<trkpt lat="41.728405" lon="23.48297"><ele>2762.8</ele><time>2026-03-15T10:37:11.000Z</time></trkpt>
<trkpt lat="41.728406" lon="23.482971"><ele>2762.8</ele><time>2026-03-15T10:37:12.000Z</time></trkpt>
<trkpt lat="41.728405" lon="23.482971"><ele>2762.8</ele><time>2026-03-15T10:37:13.000Z</time></trkpt>
<trkpt lat="41.728405" lon="23.48297"><ele>2762.8</ele><time>2026-03-15T10:37:14.000Z</time></trkpt>
<trkpt lat="41.728405" lon="23.482969"><ele>2762.8</ele><time>2026-03-15T10:37:15.000Z</time></trkpt>
<trkpt lat="41.728404" lon="23.482969"><ele>2762.9</ele><time>2026-03-15T10:37:16.000Z</time></trkpt>
<trkpt lat="41.728406" lon="23.482969"><ele>2762.9</ele><time>2026-03-15T10:37:17.000Z</time></trkpt>
<trkpt lat="41.728407" lon="23.482969"><ele>2762.9</ele><time>2026-03-15T10:37:18.000Z</time></trkpt>
<trkpt lat="41.728408" lon="23.48297"><ele>2762.9</ele><time>2026-03-15T10:37:19.000Z</time></trkpt>
<trkpt lat="41.728409" lon="23.482969"><ele>2762.9</ele><time>2026-03-15T10:37:20.000Z</time></trkpt>
<trkpt lat="41.72841" lon="23.482969"><ele>2763.2</ele><time>2026-03-15T10:37:21.000Z</time></trkpt>
<trkpt lat="41.72841" lon="23.482971"><ele>2763.2</ele><time>2026-03-15T10:37:22.000Z</time></trkpt>
<trkpt lat="41.728411" lon="23.482971"><ele>2763.2</ele><time>2026-03-15T10:37:23.000Z</time></trkpt>
<trkpt lat="41.728411" lon="23.482971"><ele>2763.2</ele><time>2026-03-15T10:37:24.000Z</time></trkpt>
<trkpt lat="41.728411" lon="23.482972"><ele>2763.2</ele><time>2026-03-15T10:37:25.000Z</time></trkpt>
<trkpt lat="41.72841" lon="23.48297"><ele>2763.3</ele><time>2026-03-15T10:37:26.000Z</time></trkpt>
<trkpt lat="41.728409" lon="23.482968"><ele>2763.3</ele><time>2026-03-15T10:37:27.000Z</time></trkpt>
<trkpt lat="41.728408" lon="23.482967"><ele>2763.3</ele><time>2026-03-15T10:37:28.000Z</time></trkpt>
<trkpt lat="41.728407" lon="23.482965"><ele>2763.3</ele><time>2026-03-15T10:37:29.000Z</time></trkpt>
<trkpt lat="41.728407" lon="23.482964"><ele>2763.3</ele><time>2026-03-15T10:37:30.000Z</time></trkpt>
<trkpt lat="41.728408" lon="23.482964"><ele>2763.4</ele><time>2026-03-15T10:37:31.000Z</time></trkpt>
<trkpt lat="41.728408" lon="23.482964"><ele>2763.4</ele><time>2026-03-15T10:37:32.000Z</time></trkpt>
<trkpt lat="41.728408" lon="23.482964"><ele>2763.4</ele><time>2026-03-15T10:37:33.000Z</time></trkpt>
<trkpt lat="41.728408" lon="23.482964"><ele>2763.4</ele><time>2026-03-15T10:37:34.000Z</time></trkpt>
<trkpt lat="41.728407" lon="23.482964"><ele>2763.4</ele><time>2026-03-15T10:37:35.000Z</time></trkpt>
<trkpt lat="41.728407" lon="23.482963"><ele>2763.3</ele><time>2026-03-15T10:37:36.000Z</time></trkpt>
<trkpt lat="41.728407" lon="23.482963"><ele>2763.3</ele><time>2026-03-15T10:37:37.000Z</time></trkpt>
<trkpt lat="41.728406" lon="23.482963"><ele>2763.3</ele><time>2026-03-15T10:37:38.000Z</time></trkpt>
<trkpt lat="41.728404" lon="23.482965"><ele>2763.3</ele><time>2026-03-15T10:37:39.000Z</time></trkpt>
<trkpt lat="41.728402" lon="23.482966"><ele>2763.3</ele><time>2026-03-15T10:37:40.000Z</time></trkpt>
<trkpt lat="41.728401" lon="23.482967"><ele>2763.2</ele><time>2026-03-15T10:37:41.000Z</time></trkpt>
<trkpt lat="41.728402" lon="23.482969"><ele>2763.2</ele><time>2026-03-15T10:37:42.000Z</time></trkpt>
<trkpt lat="41.728402" lon="23.482969"><ele>2763.2</ele><time>2026-03-15T10:37:43.000Z</time></trkpt>
<trkpt lat="41.728404" lon="23.482968"><ele>2763.2</ele><time>2026-03-15T10:37:44.000Z</time></trkpt>
<trkpt lat="41.728405" lon="23.482965"><ele>2763.2</ele><time>2026-03-15T10:37:45.000Z</time></trkpt>
<trkpt lat="41.728405" lon="23.482961"><ele>2762.9</ele><time>2026-03-15T10:37:46.000Z</time></trkpt>
<trkpt lat="41.728404" lon="23.482956"><ele>2762.9</ele><time>2026-03-15T10:37:47.000Z</time></trkpt>
<trkpt lat="41.728405" lon="23.482952"><ele>2762.9</ele><time>2026-03-15T10:37:48.000Z</time></trkpt>
<trkpt lat="41.728406" lon="23.482947"><ele>2762.9</ele><time>2026-03-15T10:37:49.000Z</time></trkpt>
<trkpt lat="41.728408" lon="23.482945"><ele>2762.9</ele><time>2026-03-15T10:37:50.000Z</time></trkpt>
<trkpt lat="41.72841" lon="23.482944"><ele>2762.9</ele><time>2026-03-15T10:37:51.000Z</time></trkpt>
<trkpt lat="41.728413" lon="23.482943"><ele>2762.9</ele><time>2026-03-15T10:37:52.000Z</time></trkpt>
<trkpt lat="41.728417" lon="23.482943"><ele>2762.9</ele><time>2026-03-15T10:37:53.000Z</time></trkpt>
<trkpt lat="41.728421" lon="23.482945"><ele>2762.9</ele><time>2026-03-15T10:37:54.000Z</time></trkpt>
<trkpt lat="41.728424" lon="23.482949"><ele>2762.9</ele><time>2026-03-15T10:37:55.000Z</time></trkpt>
<trkpt lat="41.728428" lon="23.482954"><ele>2763.1</ele><time>2026-03-15T10:37:56.000Z</time></trkpt>
<trkpt lat="41.728431" lon="23.482958"><ele>2763.1</ele><time>2026-03-15T10:37:57.000Z</time></trkpt>
<trkpt lat="41.728432" lon="23.482962"><ele>2763.1</ele><time>2026-03-15T10:37:58.000Z</time></trkpt>
<trkpt lat="41.728433" lon="23.482963"><ele>2763.1</ele><time>2026-03-15T10:37:59.000Z</time></trkpt>
<trkpt lat="41.728435" lon="23.482961"><ele>2763.1</ele><time>2026-03-15T10:38:00.000Z</time></trkpt>
<trkpt lat="41.728437" lon="23.482958"><ele>2763.6</ele><time>2026-03-15T10:38:01.000Z</time></trkpt>
<trkpt lat="41.728438" lon="23.482956"><ele>2763.6</ele><time>2026-03-15T10:38:02.000Z</time></trkpt>
<trkpt lat="41.728439" lon="23.482954"><ele>2763.6</ele><time>2026-03-15T10:38:03.000Z</time></trkpt>
<trkpt lat="41.728441" lon="23.482952"><ele>2763.6</ele><time>2026-03-15T10:38:04.000Z</time></trkpt>
<trkpt lat="41.728442" lon="23.482952"><ele>2763.6</ele><time>2026-03-15T10:38:05.000Z</time></trkpt>
<trkpt lat="41.728443" lon="23.482952"><ele>2764.1</ele><time>2026-03-15T10:38:06.000Z</time></trkpt>
<trkpt lat="41.728444" lon="23.482952"><ele>2764.1</ele><time>2026-03-15T10:38:07.000Z</time></trkpt>
<trkpt lat="41.728446" lon="23.482954"><ele>2764.1</ele><time>2026-03-15T10:38:08.000Z</time></trkpt>
<trkpt lat="41.728446" lon="23.482956"><ele>2764.1</ele><time>2026-03-15T10:38:09.000Z</time></trkpt>
<trkpt lat="41.728447" lon="23.482958"><ele>2764.1</ele><time>2026-03-15T10:38:10.000Z</time></trkpt>
<trkpt lat="41.728449" lon="23.482959"><ele>2764.3</ele><time>2026-03-15T10:38:11.000Z</time></trkpt>
<trkpt lat="41.728452" lon="23.482961"><ele>2764.3</ele><time>2026-03-15T10:38:12.000Z</time></trkpt>
<trkpt lat="41.728457" lon="23.482963"><ele>2764.3</ele><time>2026-03-15T10:38:13.000Z</time></trkpt>
<trkpt lat="41.728463" lon="23.482965"><ele>2764.3</ele><time>2026-03-15T10:38:14.000Z</time></trkpt>
<trkpt lat="41.728469" lon="23.482966"><ele>2764.3</ele><time>2026-03-15T10:38:15.000Z</time></trkpt>
<trkpt lat="41.728475" lon="23.482967"><ele>2764.7</ele><time>2026-03-15T10:38:16.000Z</time></trkpt>
<trkpt lat="41.72848" lon="23.482967"><ele>2764.7</ele><time>2026-03-15T10:38:17.000Z</time></trkpt>
<trkpt lat="41.728483" lon="23.482966"><ele>2764.7</ele><time>2026-03-15T10:38:18.000Z</time></trkpt>
<trkpt lat="41.728486" lon="23.482964"><ele>2764.7</ele><time>2026-03-15T10:38:19.000Z</time></trkpt>
<trkpt lat="41.728487" lon="23.482963"><ele>2764.7</ele><time>2026-03-15T10:38:20.000Z</time></trkpt>
<trkpt lat="41.728489" lon="23.482961"><ele>2765</ele><time>2026-03-15T10:38:21.000Z</time></trkpt>
<trkpt lat="41.72849" lon="23.482959"><ele>2765</ele><time>2026-03-15T10:38:22.000Z</time></trkpt>
<trkpt lat="41.728491" lon="23.482957"><ele>2765</ele><time>2026-03-15T10:38:23.000Z</time></trkpt>
<trkpt lat="41.728492" lon="23.482956"><ele>2765</ele><time>2026-03-15T10:38:24.000Z</time></trkpt>
<trkpt lat="41.728492" lon="23.482955"><ele>2765</ele><time>2026-03-15T10:38:25.000Z</time></trkpt>
<trkpt lat="41.728491" lon="23.482954"><ele>2765.1</ele><time>2026-03-15T10:38:26.000Z</time></trkpt>
<trkpt lat="41.728491" lon="23.482954"><ele>2765.1</ele><time>2026-03-15T10:38:27.000Z</time></trkpt>
<trkpt lat="41.728491" lon="23.482954"><ele>2765.1</ele><time>2026-03-15T10:38:28.000Z</time></trkpt>
<trkpt lat="41.728491" lon="23.482955"><ele>2765.1</ele><time>2026-03-15T10:38:29.000Z</time></trkpt>
<trkpt lat="41.728491" lon="23.482954"><ele>2765.1</ele><time>2026-03-15T10:38:30.000Z</time></trkpt>
<trkpt lat="41.728491" lon="23.482954"><ele>2765</ele><time>2026-03-15T10:38:31.000Z</time></trkpt>
<trkpt lat="41.728491" lon="23.482954"><ele>2765</ele><time>2026-03-15T10:38:32.000Z</time></trkpt>
<trkpt lat="41.728491" lon="23.482953"><ele>2765</ele><time>2026-03-15T10:38:33.000Z</time></trkpt>
<trkpt lat="41.728491" lon="23.482953"><ele>2765</ele><time>2026-03-15T10:38:34.000Z</time></trkpt>
<trkpt lat="41.728491" lon="23.482953"><ele>2765</ele><time>2026-03-15T10:38:35.000Z</time></trkpt>
<trkpt lat="41.728491" lon="23.482953"><ele>2764.9</ele><time>2026-03-15T10:38:36.000Z</time></trkpt>
<trkpt lat="41.728491" lon="23.482953"><ele>2764.9</ele><time>2026-03-15T10:38:37.000Z</time></trkpt>
<trkpt lat="41.728491" lon="23.482953"><ele>2764.9</ele><time>2026-03-15T10:38:38.000Z</time></trkpt>
<trkpt lat="41.728491" lon="23.482953"><ele>2764.9</ele><time>2026-03-15T10:38:39.000Z</time></trkpt>
<trkpt lat="41.728491" lon="23.482953"><ele>2764.9</ele><time>2026-03-15T10:38:40.000Z</time></trkpt>
<trkpt lat="41.728491" lon="23.482953"><ele>2764.9</ele><time>2026-03-15T10:38:41.000Z</time></trkpt>
<trkpt lat="41.728491" lon="23.482953"><ele>2764.9</ele><time>2026-03-15T10:38:42.000Z</time></trkpt>
<trkpt lat="41.728491" lon="23.482953"><ele>2764.9</ele><time>2026-03-15T10:38:43.000Z</time></trkpt>
<trkpt lat="41.728491" lon="23.482952"><ele>2764.9</ele><time>2026-03-15T10:38:44.000Z</time></trkpt>
<trkpt lat="41.728491" lon="23.482952"><ele>2764.9</ele><time>2026-03-15T10:38:45.000Z</time></trkpt>
<trkpt lat="41.72849" lon="23.482952"><ele>2764.9</ele><time>2026-03-15T10:38:46.000Z</time></trkpt>
<trkpt lat="41.72849" lon="23.482952"><ele>2764.9</ele><time>2026-03-15T10:38:47.000Z</time></trkpt>
<trkpt lat="41.728489" lon="23.482952"><ele>2764.9</ele><time>2026-03-15T10:38:48.000Z</time></trkpt>
<trkpt lat="41.728489" lon="23.482952"><ele>2764.9</ele><time>2026-03-15T10:38:49.000Z</time></trkpt>
<trkpt lat="41.728489" lon="23.482952"><ele>2764.9</ele><time>2026-03-15T10:38:50.000Z</time></trkpt>
<trkpt lat="41.728489" lon="23.482952"><ele>2764.9</ele><time>2026-03-15T10:38:51.000Z</time></trkpt>
<trkpt lat="41.728489" lon="23.482952"><ele>2764.9</ele><time>2026-03-15T10:38:52.000Z</time></trkpt>
<trkpt lat="41.728489" lon="23.482951"><ele>2764.9</ele><time>2026-03-15T10:38:53.000Z</time></trkpt>
<trkpt lat="41.728489" lon="23.482951"><ele>2764.9</ele><time>2026-03-15T10:38:54.000Z</time></trkpt>
<trkpt lat="41.728489" lon="23.482951"><ele>2764.9</ele><time>2026-03-15T10:38:55.000Z</time></trkpt>
<trkpt lat="41.728489" lon="23.48295"><ele>2764.9</ele><time>2026-03-15T10:38:56.000Z</time></trkpt>
<trkpt lat="41.728489" lon="23.48295"><ele>2764.9</ele><time>2026-03-15T10:38:57.000Z</time></trkpt>
<trkpt lat="41.728489" lon="23.482949"><ele>2764.9</ele><time>2026-03-15T10:38:58.000Z</time></trkpt>
<trkpt lat="41.728488" lon="23.482949"><ele>2764.9</ele><time>2026-03-15T10:38:59.000Z</time></trkpt>
<trkpt lat="41.728488" lon="23.482949"><ele>2764.9</ele><time>2026-03-15T10:39:00.000Z</time></trkpt>
<trkpt lat="41.728488" lon="23.48295"><ele>2764.8</ele><time>2026-03-15T10:39:01.000Z</time></trkpt>
<trkpt lat="41.728488" lon="23.48295"><ele>2764.8</ele><time>2026-03-15T10:39:02.000Z</time></trkpt>
<trkpt lat="41.728488" lon="23.48295"><ele>2764.8</ele><time>2026-03-15T10:39:03.000Z</time></trkpt>
<trkpt lat="41.728488" lon="23.48295"><ele>2764.8</ele><time>2026-03-15T10:39:04.000Z</time></trkpt>
<trkpt lat="41.728488" lon="23.48295"><ele>2764.8</ele><time>2026-03-15T10:39:05.000Z</time></trkpt>
<trkpt lat="41.728488" lon="23.48295"><ele>2764.7</ele><time>2026-03-15T10:39:06.000Z</time></trkpt>
<trkpt lat="41.728488" lon="23.48295"><ele>2764.7</ele><time>2026-03-15T10:39:07.000Z</time></trkpt>
<trkpt lat="41.728488" lon="23.48295"><ele>2764.7</ele><time>2026-03-15T10:39:08.000Z</time></trkpt>
<trkpt lat="41.728488" lon="23.48295"><ele>2764.7</ele><time>2026-03-15T10:39:09.000Z</time></trkpt>
<trkpt lat="41.728488" lon="23.48295"><ele>2764.7</ele><time>2026-03-15T10:39:10.000Z</time></trkpt>
<trkpt lat="41.728488" lon="23.48295"><ele>2764.7</ele><time>2026-03-15T10:39:11.000Z</time></trkpt>
<trkpt lat="41.728488" lon="23.48295"><ele>2764.7</ele><time>2026-03-15T10:39:12.000Z</time></trkpt>
<trkpt lat="41.728488" lon="23.48295"><ele>2764.7</ele><time>2026-03-15T10:39:13.000Z</time></trkpt>
<trkpt lat="41.728488" lon="23.48295"><ele>2764.7</ele><time>2026-03-15T10:39:14.000Z</time></trkpt>
<trkpt lat="41.728488" lon="23.48295"><ele>2764.7</ele><time>2026-03-15T10:39:15.000Z</time></trkpt>
<trkpt lat="41.728488" lon="23.48295"><ele>2764.8</ele><time>2026-03-15T10:39:16.000Z</time></trkpt>
<trkpt lat="41.728488" lon="23.48295"><ele>2764.8</ele><time>2026-03-15T10:39:17.000Z</time></trkpt>
<trkpt lat="41.728489" lon="23.48295"><ele>2764.8</ele><time>2026-03-15T10:39:18.000Z</time></trkpt>
<trkpt lat="41.728489" lon="23.48295"><ele>2764.8</ele><time>2026-03-15T10:39:19.000Z</time></trkpt>
<trkpt lat="41.728489" lon="23.48295"><ele>2764.8</ele><time>2026-03-15T10:39:20.000Z</time></trkpt>
<trkpt lat="41.728489" lon="23.48295"><ele>2765</ele><time>2026-03-15T10:39:21.000Z</time></trkpt>
<trkpt lat="41.728488" lon="23.48295"><ele>2765</ele><time>2026-03-15T10:39:22.000Z</time></trkpt>
<trkpt lat="41.728488" lon="23.48295"><ele>2765</ele><time>2026-03-15T10:39:23.000Z</time></trkpt>
<trkpt lat="41.728488" lon="23.482951"><ele>2765</ele><time>2026-03-15T10:39:24.000Z</time></trkpt>
<trkpt lat="41.728487" lon="23.482952"><ele>2765</ele><time>2026-03-15T10:39:25.000Z</time></trkpt>
<trkpt lat="41.728487" lon="23.482952"><ele>2765</ele><time>2026-03-15T10:39:26.000Z</time></trkpt>
<trkpt lat="41.728487" lon="23.482952"><ele>2765</ele><time>2026-03-15T10:39:27.000Z</time></trkpt>
<trkpt lat="41.728487" lon="23.482952"><ele>2765</ele><time>2026-03-15T10:39:28.000Z</time></trkpt>
<trkpt lat="41.728487" lon="23.482952"><ele>2765</ele><time>2026-03-15T10:39:29.000Z</time></trkpt>
<trkpt lat="41.728487" lon="23.482952"><ele>2765</ele><time>2026-03-15T10:39:30.000Z</time></trkpt>
<trkpt lat="41.728487" lon="23.482952"><ele>2765</ele><time>2026-03-15T10:39:31.000Z</time></trkpt>
<trkpt lat="41.728487" lon="23.482952"><ele>2765</ele><time>2026-03-15T10:39:32.000Z</time></trkpt>
<trkpt lat="41.728487" lon="23.482952"><ele>2765</ele><time>2026-03-15T10:39:33.000Z</time></trkpt>
<trkpt lat="41.728487" lon="23.482952"><ele>2765</ele><time>2026-03-15T10:39:34.000Z</time></trkpt>
<trkpt lat="41.728487" lon="23.482952"><ele>2765</ele><time>2026-03-15T10:39:35.000Z</time></trkpt>
<trkpt lat="41.728486" lon="23.482952"><ele>2765.1</ele><time>2026-03-15T10:39:36.000Z</time></trkpt>
<trkpt lat="41.728486" lon="23.482952"><ele>2765.1</ele><time>2026-03-15T10:39:37.000Z</time></trkpt>
<trkpt lat="41.728486" lon="23.482952"><ele>2765.1</ele><time>2026-03-15T10:39:38.000Z</time></trkpt>
<trkpt lat="41.728486" lon="23.482952"><ele>2765.1</ele><time>2026-03-15T10:39:39.000Z</time></trkpt>
<trkpt lat="41.728486" lon="23.482951"><ele>2765.1</ele><time>2026-03-15T10:39:40.000Z</time></trkpt>
<trkpt lat="41.728486" lon="23.482951"><ele>2765.2</ele><time>2026-03-15T10:39:41.000Z</time></trkpt>
<trkpt lat="41.728486" lon="23.482952"><ele>2765.2</ele><time>2026-03-15T10:39:42.000Z</time></trkpt>
<trkpt lat="41.728486" lon="23.482952"><ele>2765.2</ele><time>2026-03-15T10:39:43.000Z</time></trkpt>
<trkpt lat="41.728486" lon="23.482952"><ele>2765.2</ele><time>2026-03-15T10:39:44.000Z</time></trkpt>
<trkpt lat="41.728486" lon="23.482952"><ele>2765.2</ele><time>2026-03-15T10:39:45.000Z</time></trkpt>
<trkpt lat="41.728485" lon="23.482951"><ele>2765.3</ele><time>2026-03-15T10:39:46.000Z</time></trkpt>
<trkpt lat="41.728485" lon="23.482951"><ele>2765.3</ele><time>2026-03-15T10:39:47.000Z</time></trkpt>
<trkpt lat="41.728485" lon="23.482951"><ele>2765.3</ele><time>2026-03-15T10:39:48.000Z</time></trkpt>
<trkpt lat="41.728485" lon="23.482952"><ele>2765.3</ele><time>2026-03-15T10:39:49.000Z</time></trkpt>
<trkpt lat="41.728485" lon="23.482953"><ele>2765.3</ele><time>2026-03-15T10:39:50.000Z</time></trkpt>
<trkpt lat="41.728485" lon="23.482955"><ele>2765.3</ele><time>2026-03-15T10:39:51.000Z</time></trkpt>
<trkpt lat="41.728483" lon="23.482958"><ele>2765.3</ele><time>2026-03-15T10:39:52.000Z</time></trkpt>
<trkpt lat="41.728481" lon="23.48296"><ele>2765.3</ele><time>2026-03-15T10:39:53.000Z</time></trkpt>
<trkpt lat="41.728479" lon="23.482962"><ele>2765.3</ele><time>2026-03-15T10:39:54.000Z</time></trkpt>
<trkpt lat="41.728477" lon="23.482965"><ele>2765.3</ele><time>2026-03-15T10:39:55.000Z</time></trkpt>
<trkpt lat="41.728475" lon="23.482966"><ele>2765.3</ele><time>2026-03-15T10:39:56.000Z</time></trkpt>
<trkpt lat="41.728474" lon="23.482964"><ele>2765.3</ele><time>2026-03-15T10:39:57.000Z</time></trkpt>
<trkpt lat="41.728473" lon="23.482963"><ele>2765.3</ele><time>2026-03-15T10:39:58.000Z</time></trkpt>
<trkpt lat="41.728472" lon="23.482959"><ele>2765.3</ele><time>2026-03-15T10:39:59.000Z</time></trkpt>
<trkpt lat="41.728471" lon="23.482956"><ele>2765.3</ele><time>2026-03-15T10:40:00.000Z</time></trkpt>
<trkpt lat="41.728471" lon="23.482954"><ele>2765.2</ele><time>2026-03-15T10:40:01.000Z</time></trkpt>
<trkpt lat="41.728471" lon="23.482952"><ele>2765.2</ele><time>2026-03-15T10:40:02.000Z</time></trkpt>
<trkpt lat="41.728472" lon="23.482951"><ele>2765.2</ele><time>2026-03-15T10:40:03.000Z</time></trkpt>
<trkpt lat="41.728473" lon="23.482952"><ele>2765.2</ele><time>2026-03-15T10:40:04.000Z</time></trkpt>
<trkpt lat="41.728473" lon="23.482952"><ele>2765.2</ele><time>2026-03-15T10:40:05.000Z</time></trkpt>
<trkpt lat="41.728473" lon="23.482952"><ele>2765.3</ele><time>2026-03-15T10:40:06.000Z</time></trkpt>
<trkpt lat="41.728473" lon="23.482953"><ele>2765.3</ele><time>2026-03-15T10:40:07.000Z</time></trkpt>
<trkpt lat="41.728473" lon="23.482954"><ele>2765.3</ele><time>2026-03-15T10:40:08.000Z</time></trkpt>
<trkpt lat="41.728473" lon="23.482954"><ele>2765.3</ele><time>2026-03-15T10:40:09.000Z</time></trkpt>
<trkpt lat="41.728474" lon="23.482953"><ele>2765.3</ele><time>2026-03-15T10:40:10.000Z</time></trkpt>
<trkpt lat="41.728475" lon="23.482952"><ele>2765.3</ele><time>2026-03-15T10:40:11.000Z</time></trkpt>
<trkpt lat="41.728475" lon="23.482951"><ele>2765.3</ele><time>2026-03-15T10:40:12.000Z</time></trkpt>
<trkpt lat="41.728476" lon="23.482949"><ele>2765.3</ele><time>2026-03-15T10:40:13.000Z</time></trkpt>
<trkpt lat="41.728476" lon="23.482948"><ele>2765.3</ele><time>2026-03-15T10:40:14.000Z</time></trkpt>
<trkpt lat="41.728476" lon="23.482948"><ele>2765.3</ele><time>2026-03-15T10:40:15.000Z</time></trkpt>
<trkpt lat="41.728475" lon="23.482948"><ele>2765.4</ele><time>2026-03-15T10:40:16.000Z</time></trkpt>
<trkpt lat="41.728475" lon="23.48295"><ele>2765.4</ele><time>2026-03-15T10:40:17.000Z</time></trkpt>
<trkpt lat="41.728474" lon="23.482951"><ele>2765.4</ele><time>2026-03-15T10:40:18.000Z</time></trkpt>
<trkpt lat="41.728472" lon="23.482952"><ele>2765.4</ele><time>2026-03-15T10:40:19.000Z</time></trkpt>
<trkpt lat="41.728469" lon="23.482952"><ele>2765.4</ele><time>2026-03-15T10:40:20.000Z</time></trkpt>
<trkpt lat="41.728466" lon="23.482953"><ele>2765.5</ele><time>2026-03-15T10:40:21.000Z</time></trkpt>
<trkpt lat="41.728461" lon="23.482952"><ele>2765.5</ele><time>2026-03-15T10:40:22.000Z</time></trkpt>
<trkpt lat="41.728455" lon="23.482951"><ele>2765.5</ele><time>2026-03-15T10:40:23.000Z</time></trkpt>
<trkpt lat="41.72845" lon="23.482951"><ele>2765.5</ele><time>2026-03-15T10:40:24.000Z</time></trkpt>
<trkpt lat="41.728445" lon="23.482951"><ele>2765.5</ele><time>2026-03-15T10:40:25.000Z</time></trkpt>
<trkpt lat="41.728441" lon="23.482951"><ele>2765.5</ele><time>2026-03-15T10:40:26.000Z</time></trkpt>
<trkpt lat="41.728439" lon="23.482951"><ele>2765.5</ele><time>2026-03-15T10:40:27.000Z</time></trkpt>
<trkpt lat="41.728437" lon="23.482952"><ele>2765.5</ele><time>2026-03-15T10:40:28.000Z</time></trkpt>
<trkpt lat="41.728436" lon="23.482952"><ele>2765.5</ele><time>2026-03-15T10:40:29.000Z</time></trkpt>
<trkpt lat="41.728435" lon="23.482952"><ele>2765.5</ele><time>2026-03-15T10:40:30.000Z</time></trkpt>
<trkpt lat="41.728434" lon="23.482952"><ele>2765.4</ele><time>2026-03-15T10:40:31.000Z</time></trkpt>
<trkpt lat="41.728433" lon="23.482952"><ele>2765.4</ele><time>2026-03-15T10:40:32.000Z</time></trkpt>
<trkpt lat="41.728433" lon="23.482953"><ele>2765.4</ele><time>2026-03-15T10:40:33.000Z</time></trkpt>
<trkpt lat="41.728432" lon="23.482953"><ele>2765.4</ele><time>2026-03-15T10:40:34.000Z</time></trkpt>
<trkpt lat="41.728432" lon="23.482953"><ele>2765.4</ele><time>2026-03-15T10:40:35.000Z</time></trkpt>
<trkpt lat="41.728431" lon="23.482953"><ele>2764.9</ele><time>2026-03-15T10:40:36.000Z</time></trkpt>
<trkpt lat="41.728431" lon="23.482953"><ele>2764.9</ele><time>2026-03-15T10:40:37.000Z</time></trkpt>
<trkpt lat="41.728431" lon="23.482953"><ele>2764.9</ele><time>2026-03-15T10:40:38.000Z</time></trkpt>
<trkpt lat="41.728431" lon="23.482953"><ele>2764.9</ele><time>2026-03-15T10:40:39.000Z</time></trkpt>
<trkpt lat="41.728431" lon="23.482953"><ele>2764.9</ele><time>2026-03-15T10:40:40.000Z</time></trkpt>
<trkpt lat="41.728431" lon="23.482953"><ele>2764.6</ele><time>2026-03-15T10:40:41.000Z</time></trkpt>
<trkpt lat="41.728431" lon="23.482953"><ele>2764.6</ele><time>2026-03-15T10:40:42.000Z</time></trkpt>
<trkpt lat="41.728431" lon="23.482953"><ele>2764.6</ele><time>2026-03-15T10:40:43.000Z</time></trkpt>
<trkpt lat="41.728431" lon="23.482953"><ele>2764.6</ele><time>2026-03-15T10:40:44.000Z</time></trkpt>
<trkpt lat="41.72843" lon="23.482953"><ele>2764.6</ele><time>2026-03-15T10:40:45.000Z</time></trkpt>
<trkpt lat="41.72843" lon="23.482953"><ele>2764.2</ele><time>2026-03-15T10:40:46.000Z</time></trkpt>
<trkpt lat="41.72843" lon="23.482954"><ele>2764.2</ele><time>2026-03-15T10:40:47.000Z</time></trkpt>
<trkpt lat="41.728431" lon="23.482954"><ele>2764.2</ele><time>2026-03-15T10:40:48.000Z</time></trkpt>
<trkpt lat="41.728431" lon="23.482954"><ele>2764.2</ele><time>2026-03-15T10:40:49.000Z</time></trkpt>
<trkpt lat="41.728431" lon="23.482955"><ele>2764.2</ele><time>2026-03-15T10:40:50.000Z</time></trkpt>
<trkpt lat="41.728431" lon="23.482955"><ele>2764.1</ele><time>2026-03-15T10:40:51.000Z</time></trkpt>
<trkpt lat="41.728431" lon="23.482955"><ele>2764.1</ele><time>2026-03-15T10:40:52.000Z</time></trkpt>
<trkpt lat="41.728431" lon="23.482955"><ele>2764.1</ele><time>2026-03-15T10:40:53.000Z</time></trkpt>
<trkpt lat="41.728431" lon="23.482955"><ele>2764.1</ele><time>2026-03-15T10:40:54.000Z</time></trkpt>
<trkpt lat="41.728431" lon="23.482955"><ele>2764.1</ele><time>2026-03-15T10:40:55.000Z</time></trkpt>
<trkpt lat="41.728431" lon="23.482956"><ele>2764.1</ele><time>2026-03-15T10:40:56.000Z</time></trkpt>
<trkpt lat="41.728431" lon="23.482957"><ele>2764.1</ele><time>2026-03-15T10:40:57.000Z</time></trkpt>
<trkpt lat="41.728431" lon="23.482959"><ele>2764.1</ele><time>2026-03-15T10:40:58.000Z</time></trkpt>
<trkpt lat="41.728431" lon="23.482961"><ele>2764.1</ele><time>2026-03-15T10:40:59.000Z</time></trkpt>
<trkpt lat="41.728431" lon="23.482962"><ele>2764.1</ele><time>2026-03-15T10:41:00.000Z</time></trkpt>
<trkpt lat="41.728431" lon="23.482964"><ele>2764.1</ele><time>2026-03-15T10:41:01.000Z</time></trkpt>
<trkpt lat="41.728431" lon="23.482964"><ele>2764.1</ele><time>2026-03-15T10:41:02.000Z</time></trkpt>
<trkpt lat="41.728431" lon="23.482963"><ele>2764.1</ele><time>2026-03-15T10:41:03.000Z</time></trkpt>
<trkpt lat="41.728431" lon="23.482963"><ele>2764.1</ele><time>2026-03-15T10:41:04.000Z</time></trkpt>
<trkpt lat="41.728431" lon="23.482962"><ele>2764.1</ele><time>2026-03-15T10:41:05.000Z</time></trkpt>
<trkpt lat="41.728431" lon="23.482962"><ele>2764.5</ele><time>2026-03-15T10:41:06.000Z</time></trkpt>
<trkpt lat="41.728431" lon="23.482961"><ele>2764.5</ele><time>2026-03-15T10:41:07.000Z</time></trkpt>
<trkpt lat="41.728431" lon="23.482961"><ele>2764.5</ele><time>2026-03-15T10:41:08.000Z</time></trkpt>
<trkpt lat="41.728431" lon="23.482961"><ele>2764.5</ele><time>2026-03-15T10:41:09.000Z</time></trkpt>
<trkpt lat="41.728431" lon="23.482961"><ele>2764.5</ele><time>2026-03-15T10:41:10.000Z</time></trkpt>
<trkpt lat="41.72843" lon="23.482961"><ele>2764.7</ele><time>2026-03-15T10:41:11.000Z</time></trkpt>
<trkpt lat="41.72843" lon="23.482961"><ele>2764.7</ele><time>2026-03-15T10:41:12.000Z</time></trkpt>
<trkpt lat="41.72843" lon="23.482961"><ele>2764.7</ele><time>2026-03-15T10:41:13.000Z</time></trkpt>
<trkpt lat="41.72843" lon="23.48296"><ele>2764.7</ele><time>2026-03-15T10:41:14.000Z</time></trkpt>
<trkpt lat="41.72843" lon="23.48296"><ele>2764.7</ele><time>2026-03-15T10:41:15.000Z</time></trkpt>
<trkpt lat="41.72843" lon="23.48296"><ele>2765</ele><time>2026-03-15T10:41:16.000Z</time></trkpt>
<trkpt lat="41.72843" lon="23.48296"><ele>2765</ele><time>2026-03-15T10:41:17.000Z</time></trkpt>
<trkpt lat="41.728429" lon="23.48296"><ele>2765</ele><time>2026-03-15T10:41:18.000Z</time></trkpt>
<trkpt lat="41.728429" lon="23.48296"><ele>2765</ele><time>2026-03-15T10:41:19.000Z</time></trkpt>
<trkpt lat="41.728428" lon="23.48296"><ele>2765</ele><time>2026-03-15T10:41:20.000Z</time></trkpt>
<trkpt lat="41.728428" lon="23.48296"><ele>2765.3</ele><time>2026-03-15T10:41:21.000Z</time></trkpt>
<trkpt lat="41.728429" lon="23.482959"><ele>2765.3</ele><time>2026-03-15T10:41:22.000Z</time></trkpt>
<trkpt lat="41.728429" lon="23.482959"><ele>2765.3</ele><time>2026-03-15T10:41:23.000Z</time></trkpt>
<trkpt lat="41.728429" lon="23.482959"><ele>2765.3</ele><time>2026-03-15T10:41:24.000Z</time></trkpt>
<trkpt lat="41.728429" lon="23.482958"><ele>2765.3</ele><time>2026-03-15T10:41:25.000Z</time></trkpt>
<trkpt lat="41.728429" lon="23.482958"><ele>2765.4</ele><time>2026-03-15T10:41:26.000Z</time></trkpt>
<trkpt lat="41.728429" lon="23.482958"><ele>2765.4</ele><time>2026-03-15T10:41:27.000Z</time></trkpt>
<trkpt lat="41.728429" lon="23.482958"><ele>2765.4</ele><time>2026-03-15T10:41:28.000Z</time></trkpt>
<trkpt lat="41.728428" lon="23.482958"><ele>2765.4</ele><time>2026-03-15T10:41:29.000Z</time></trkpt>
<trkpt lat="41.728428" lon="23.482958"><ele>2765.4</ele><time>2026-03-15T10:41:30.000Z</time></trkpt>
<trkpt lat="41.728428" lon="23.482958"><ele>2765.4</ele><time>2026-03-15T10:41:31.000Z</time></trkpt>
<trkpt lat="41.728428" lon="23.482958"><ele>2765.4</ele><time>2026-03-15T10:41:32.000Z</time></trkpt>
<trkpt lat="41.728428" lon="23.482959"><ele>2765.4</ele><time>2026-03-15T10:41:33.000Z</time></trkpt>
<trkpt lat="41.728428" lon="23.482959"><ele>2765.4</ele><time>2026-03-15T10:41:34.000Z</time></trkpt>
<trkpt lat="41.728428" lon="23.482959"><ele>2765.4</ele><time>2026-03-15T10:41:35.000Z</time></trkpt>
<trkpt lat="41.728428" lon="23.482959"><ele>2765.3</ele><time>2026-03-15T10:41:36.000Z</time></trkpt>
<trkpt lat="41.728428" lon="23.482959"><ele>2765.3</ele><time>2026-03-15T10:41:37.000Z</time></trkpt>
<trkpt lat="41.728428" lon="23.48296"><ele>2765.3</ele><time>2026-03-15T10:41:38.000Z</time></trkpt>
<trkpt lat="41.728428" lon="23.482961"><ele>2765.3</ele><time>2026-03-15T10:41:39.000Z</time></trkpt>
<trkpt lat="41.728428" lon="23.482962"><ele>2765.3</ele><time>2026-03-15T10:41:40.000Z</time></trkpt>
<trkpt lat="41.728429" lon="23.482963"><ele>2765.2</ele><time>2026-03-15T10:41:41.000Z</time></trkpt>
<trkpt lat="41.728429" lon="23.482964"><ele>2765.2</ele><time>2026-03-15T10:41:42.000Z</time></trkpt>
<trkpt lat="41.72843" lon="23.482965"><ele>2765.2</ele><time>2026-03-15T10:41:43.000Z</time></trkpt>
<trkpt lat="41.728431" lon="23.482966"><ele>2765.2</ele><time>2026-03-15T10:41:44.000Z</time></trkpt>
<trkpt lat="41.728432" lon="23.482966"><ele>2765.2</ele><time>2026-03-15T10:41:45.000Z</time></trkpt>
<trkpt lat="41.728432" lon="23.482966"><ele>2765</ele><time>2026-03-15T10:41:46.000Z</time></trkpt>
<trkpt lat="41.728432" lon="23.482965"><ele>2765</ele><time>2026-03-15T10:41:47.000Z</time></trkpt>
<trkpt lat="41.728431" lon="23.482964"><ele>2765</ele><time>2026-03-15T10:41:48.000Z</time></trkpt>
<trkpt lat="41.728431" lon="23.482964"><ele>2765</ele><time>2026-03-15T10:41:49.000Z</time></trkpt>
<trkpt lat="41.728431" lon="23.482963"><ele>2765</ele><time>2026-03-15T10:41:50.000Z</time></trkpt>
<trkpt lat="41.728431" lon="23.482963"><ele>2764.7</ele><time>2026-03-15T10:41:51.000Z</time></trkpt>
<trkpt lat="41.728431" lon="23.482962"><ele>2764.7</ele><time>2026-03-15T10:41:52.000Z</time></trkpt>
<trkpt lat="41.728432" lon="23.482961"><ele>2764.7</ele><time>2026-03-15T10:41:53.000Z</time></trkpt>
<trkpt lat="41.728434" lon="23.482958"><ele>2764.7</ele><time>2026-03-15T10:41:54.000Z</time></trkpt>
<trkpt lat="41.728437" lon="23.482956"><ele>2764.7</ele><time>2026-03-15T10:41:55.000Z</time></trkpt>
<trkpt lat="41.728441" lon="23.482955"><ele>2764.6</ele><time>2026-03-15T10:41:56.000Z</time></trkpt>
<trkpt lat="41.728445" lon="23.482955"><ele>2764.6</ele><time>2026-03-15T10:41:57.000Z</time></trkpt>
<trkpt lat="41.728448" lon="23.482955"><ele>2764.6</ele><time>2026-03-15T10:41:58.000Z</time></trkpt>
<trkpt lat="41.72845" lon="23.482956"><ele>2764.6</ele><time>2026-03-15T10:41:59.000Z</time></trkpt>
<trkpt lat="41.728451" lon="23.482956"><ele>2764.6</ele><time>2026-03-15T10:42:00.000Z</time></trkpt>
<trkpt lat="41.728451" lon="23.482956"><ele>2764.7</ele><time>2026-03-15T10:42:01.000Z</time></trkpt>
<trkpt lat="41.728452" lon="23.482955"><ele>2764.7</ele><time>2026-03-15T10:42:02.000Z</time></trkpt>
<trkpt lat="41.728452" lon="23.482954"><ele>2764.7</ele><time>2026-03-15T10:42:03.000Z</time></trkpt>
<trkpt lat="41.72845" lon="23.482955"><ele>2764.7</ele><time>2026-03-15T10:42:04.000Z</time></trkpt>
<trkpt lat="41.728448" lon="23.482955"><ele>2764.7</ele><time>2026-03-15T10:42:05.000Z</time></trkpt>
<trkpt lat="41.728445" lon="23.482955"><ele>2765.2</ele><time>2026-03-15T10:42:06.000Z</time></trkpt>
<trkpt lat="41.728442" lon="23.482955"><ele>2765.2</ele><time>2026-03-15T10:42:07.000Z</time></trkpt>
<trkpt lat="41.72844" lon="23.482955"><ele>2765.2</ele><time>2026-03-15T10:42:08.000Z</time></trkpt>
<trkpt lat="41.72844" lon="23.482953"><ele>2765.2</ele><time>2026-03-15T10:42:09.000Z</time></trkpt>
<trkpt lat="41.728442" lon="23.482952"><ele>2765.2</ele><time>2026-03-15T10:42:10.000Z</time></trkpt>
<trkpt lat="41.728447" lon="23.482952"><ele>2765.4</ele><time>2026-03-15T10:42:11.000Z</time></trkpt>
<trkpt lat="41.728452" lon="23.482951"><ele>2765.4</ele><time>2026-03-15T10:42:12.000Z</time></trkpt>
<trkpt lat="41.728457" lon="23.48295"><ele>2765.4</ele><time>2026-03-15T10:42:13.000Z</time></trkpt>
<trkpt lat="41.728461" lon="23.48295"><ele>2765.4</ele><time>2026-03-15T10:42:14.000Z</time></trkpt>
<trkpt lat="41.728465" lon="23.48295"><ele>2765.4</ele><time>2026-03-15T10:42:15.000Z</time></trkpt>
<trkpt lat="41.728469" lon="23.482949"><ele>2765.5</ele><time>2026-03-15T10:42:16.000Z</time></trkpt>
<trkpt lat="41.728471" lon="23.482949"><ele>2765.5</ele><time>2026-03-15T10:42:17.000Z</time></trkpt>
<trkpt lat="41.728474" lon="23.482948"><ele>2765.5</ele><time>2026-03-15T10:42:18.000Z</time></trkpt>
<trkpt lat="41.728478" lon="23.482948"><ele>2765.5</ele><time>2026-03-15T10:42:19.000Z</time></trkpt>
<trkpt lat="41.728481" lon="23.482947"><ele>2765.5</ele><time>2026-03-15T10:42:20.000Z</time></trkpt>
<trkpt lat="41.728483" lon="23.482946"><ele>2765.4</ele><time>2026-03-15T10:42:21.000Z</time></trkpt>
<trkpt lat="41.728486" lon="23.482945"><ele>2765.4</ele><time>2026-03-15T10:42:22.000Z</time></trkpt>
<trkpt lat="41.728487" lon="23.482944"><ele>2765.4</ele><time>2026-03-15T10:42:23.000Z</time></trkpt>
<trkpt lat="41.728488" lon="23.482943"><ele>2765.4</ele><time>2026-03-15T10:42:24.000Z</time></trkpt>
<trkpt lat="41.728488" lon="23.482943"><ele>2765.4</ele><time>2026-03-15T10:42:25.000Z</time></trkpt>
<trkpt lat="41.728488" lon="23.482943"><ele>2765.5</ele><time>2026-03-15T10:42:26.000Z</time></trkpt>
<trkpt lat="41.728487" lon="23.482944"><ele>2765.5</ele><time>2026-03-15T10:42:27.000Z</time></trkpt>
<trkpt lat="41.728486" lon="23.482944"><ele>2765.5</ele><time>2026-03-15T10:42:28.000Z</time></trkpt>
<trkpt lat="41.728486" lon="23.482944"><ele>2765.5</ele><time>2026-03-15T10:42:29.000Z</time></trkpt>
<trkpt lat="41.728485" lon="23.482944"><ele>2765.5</ele><time>2026-03-15T10:42:30.000Z</time></trkpt>
<trkpt lat="41.728485" lon="23.482944"><ele>2765.6</ele><time>2026-03-15T10:42:31.000Z</time></trkpt>
<trkpt lat="41.728485" lon="23.482944"><ele>2765.6</ele><time>2026-03-15T10:42:32.000Z</time></trkpt>
<trkpt lat="41.728485" lon="23.482944"><ele>2765.6</ele><time>2026-03-15T10:42:33.000Z</time></trkpt>
<trkpt lat="41.728485" lon="23.482944"><ele>2765.6</ele><time>2026-03-15T10:42:34.000Z</time></trkpt>
<trkpt lat="41.728485" lon="23.482944"><ele>2765.6</ele><time>2026-03-15T10:42:35.000Z</time></trkpt>
<trkpt lat="41.728485" lon="23.482944"><ele>2765.5</ele><time>2026-03-15T10:42:36.000Z</time></trkpt>
<trkpt lat="41.728485" lon="23.482944"><ele>2765.5</ele><time>2026-03-15T10:42:37.000Z</time></trkpt>
<trkpt lat="41.728485" lon="23.482944"><ele>2765.5</ele><time>2026-03-15T10:42:38.000Z</time></trkpt>
<trkpt lat="41.728485" lon="23.482944"><ele>2765.5</ele><time>2026-03-15T10:42:39.000Z</time></trkpt>
<trkpt lat="41.728485" lon="23.482944"><ele>2765.5</ele><time>2026-03-15T10:42:40.000Z</time></trkpt>
<trkpt lat="41.728484" lon="23.482945"><ele>2765.4</ele><time>2026-03-15T10:42:41.000Z</time></trkpt>
<trkpt lat="41.728482" lon="23.482946"><ele>2765.4</ele><time>2026-03-15T10:42:42.000Z</time></trkpt>
<trkpt lat="41.72848" lon="23.482947"><ele>2765.4</ele><time>2026-03-15T10:42:43.000Z</time></trkpt>
<trkpt lat="41.728477" lon="23.482949"><ele>2765.4</ele><time>2026-03-15T10:42:44.000Z</time></trkpt>
<trkpt lat="41.728474" lon="23.482952"><ele>2765.4</ele><time>2026-03-15T10:42:45.000Z</time></trkpt>
<trkpt lat="41.728471" lon="23.482953"><ele>2765.1</ele><time>2026-03-15T10:42:46.000Z</time></trkpt>
<trkpt lat="41.728469" lon="23.482955"><ele>2765.1</ele><time>2026-03-15T10:42:47.000Z</time></trkpt>
<trkpt lat="41.728466" lon="23.482956"><ele>2765.1</ele><time>2026-03-15T10:42:48.000Z</time></trkpt>
<trkpt lat="41.728464" lon="23.482957"><ele>2765.1</ele><time>2026-03-15T10:42:49.000Z</time></trkpt>
<trkpt lat="41.728463" lon="23.482956"><ele>2765.1</ele><time>2026-03-15T10:42:50.000Z</time></trkpt>
<trkpt lat="41.728462" lon="23.482956"><ele>2765</ele><time>2026-03-15T10:42:51.000Z</time></trkpt>
<trkpt lat="41.728462" lon="23.482956"><ele>2765</ele><time>2026-03-15T10:42:52.000Z</time></trkpt>
<trkpt lat="41.728462" lon="23.482957"><ele>2765</ele><time>2026-03-15T10:42:53.000Z</time></trkpt>
<trkpt lat="41.728462" lon="23.482957"><ele>2765</ele><time>2026-03-15T10:42:54.000Z</time></trkpt>
<trkpt lat="41.728462" lon="23.482957"><ele>2765</ele><time>2026-03-15T10:42:55.000Z</time></trkpt>
<trkpt lat="41.728462" lon="23.482957"><ele>2765.2</ele><time>2026-03-15T10:42:56.000Z</time></trkpt>
<trkpt lat="41.728462" lon="23.482957"><ele>2765.2</ele><time>2026-03-15T10:42:57.000Z</time></trkpt>
<trkpt lat="41.728462" lon="23.482957"><ele>2765.2</ele><time>2026-03-15T10:42:58.000Z</time></trkpt>
<trkpt lat="41.728462" lon="23.482957"><ele>2765.2</ele><time>2026-03-15T10:42:59.000Z</time></trkpt>
<trkpt lat="41.728462" lon="23.482957"><ele>2765.2</ele><time>2026-03-15T10:43:00.000Z</time></trkpt>
<trkpt lat="41.728462" lon="23.482957"><ele>2765.6</ele><time>2026-03-15T10:43:01.000Z</time></trkpt>
<trkpt lat="41.728461" lon="23.482957"><ele>2765.6</ele><time>2026-03-15T10:43:02.000Z</time></trkpt>
<trkpt lat="41.728461" lon="23.482957"><ele>2765.6</ele><time>2026-03-15T10:43:03.000Z</time></trkpt>
<trkpt lat="41.72846" lon="23.482958"><ele>2765.6</ele><time>2026-03-15T10:43:04.000Z</time></trkpt>
<trkpt lat="41.728458" lon="23.482959"><ele>2765.6</ele><time>2026-03-15T10:43:05.000Z</time></trkpt>
<trkpt lat="41.728454" lon="23.482958"><ele>2765.8</ele><time>2026-03-15T10:43:06.000Z</time></trkpt>
<trkpt lat="41.72845" lon="23.482958"><ele>2765.8</ele><time>2026-03-15T10:43:07.000Z</time></trkpt>
<trkpt lat="41.728445" lon="23.482956"><ele>2765.8</ele><time>2026-03-15T10:43:08.000Z</time></trkpt>
<trkpt lat="41.72844" lon="23.482955"><ele>2765.8</ele><time>2026-03-15T10:43:09.000Z</time></trkpt>
<trkpt lat="41.728437" lon="23.482956"><ele>2765.8</ele><time>2026-03-15T10:43:10.000Z</time></trkpt>
<trkpt lat="41.728434" lon="23.482957"><ele>2765.8</ele><time>2026-03-15T10:43:11.000Z</time></trkpt>
<trkpt lat="41.728432" lon="23.482958"><ele>2765.8</ele><time>2026-03-15T10:43:12.000Z</time></trkpt>
<trkpt lat="41.728431" lon="23.482961"><ele>2765.8</ele><time>2026-03-15T10:43:13.000Z</time></trkpt>
<trkpt lat="41.72843" lon="23.482964"><ele>2765.8</ele><time>2026-03-15T10:43:14.000Z</time></trkpt>
<trkpt lat="41.728429" lon="23.482966"><ele>2765.8</ele><time>2026-03-15T10:43:15.000Z</time></trkpt>
<trkpt lat="41.72843" lon="23.482967"><ele>2765.5</ele><time>2026-03-15T10:43:16.000Z</time></trkpt>
<trkpt lat="41.72843" lon="23.482969"><ele>2765.5</ele><time>2026-03-15T10:43:17.000Z</time></trkpt>
<trkpt lat="41.72843" lon="23.48297"><ele>2765.5</ele><time>2026-03-15T10:43:18.000Z</time></trkpt>
<trkpt lat="41.72843" lon="23.482969"><ele>2765.5</ele><time>2026-03-15T10:43:19.000Z</time></trkpt>
<trkpt lat="41.728431" lon="23.482969"><ele>2765.5</ele><time>2026-03-15T10:43:20.000Z</time></trkpt>
<trkpt lat="41.728431" lon="23.482969"><ele>2765.1</ele><time>2026-03-15T10:43:21.000Z</time></trkpt>
<trkpt lat="41.72843" lon="23.482968"><ele>2765.1</ele><time>2026-03-15T10:43:22.000Z</time></trkpt>
<trkpt lat="41.72843" lon="23.482968"><ele>2765.1</ele><time>2026-03-15T10:43:23.000Z</time></trkpt>
<trkpt lat="41.72843" lon="23.482968"><ele>2765.1</ele><time>2026-03-15T10:43:24.000Z</time></trkpt>
<trkpt lat="41.728429" lon="23.482968"><ele>2765.1</ele><time>2026-03-15T10:43:25.000Z</time></trkpt>
<trkpt lat="41.728429" lon="23.482968"><ele>2765</ele><time>2026-03-15T10:43:26.000Z</time></trkpt>
<trkpt lat="41.728429" lon="23.482968"><ele>2765</ele><time>2026-03-15T10:43:27.000Z</time></trkpt>
<trkpt lat="41.728428" lon="23.482968"><ele>2765</ele><time>2026-03-15T10:43:28.000Z</time></trkpt>
<trkpt lat="41.728428" lon="23.482968"><ele>2765</ele><time>2026-03-15T10:43:29.000Z</time></trkpt>
<trkpt lat="41.728428" lon="23.482968"><ele>2765</ele><time>2026-03-15T10:43:30.000Z</time></trkpt>
<trkpt lat="41.728427" lon="23.482968"><ele>2764.9</ele><time>2026-03-15T10:43:31.000Z</time></trkpt>
<trkpt lat="41.728426" lon="23.482968"><ele>2764.9</ele><time>2026-03-15T10:43:32.000Z</time></trkpt>
<trkpt lat="41.728425" lon="23.482966"><ele>2764.9</ele><time>2026-03-15T10:43:33.000Z</time></trkpt>
<trkpt lat="41.728425" lon="23.482965"><ele>2764.9</ele><time>2026-03-15T10:43:34.000Z</time></trkpt>
<trkpt lat="41.728426" lon="23.482965"><ele>2764.9</ele><time>2026-03-15T10:43:35.000Z</time></trkpt>
<trkpt lat="41.728427" lon="23.482966"><ele>2765</ele><time>2026-03-15T10:43:36.000Z</time></trkpt>
<trkpt lat="41.72843" lon="23.482966"><ele>2765</ele><time>2026-03-15T10:43:37.000Z</time></trkpt>
<trkpt lat="41.728432" lon="23.482967"><ele>2765</ele><time>2026-03-15T10:43:38.000Z</time></trkpt>
<trkpt lat="41.728433" lon="23.482969"><ele>2765</ele><time>2026-03-15T10:43:39.000Z</time></trkpt>
<trkpt lat="41.728434" lon="23.482969"><ele>2765</ele><time>2026-03-15T10:43:40.000Z</time></trkpt>
<trkpt lat="41.728434" lon="23.482969"><ele>2764.9</ele><time>2026-03-15T10:43:41.000Z</time></trkpt>
<trkpt lat="41.728434" lon="23.482969"><ele>2764.9</ele><time>2026-03-15T10:43:42.000Z</time></trkpt>
<trkpt lat="41.728434" lon="23.482969"><ele>2764.9</ele><time>2026-03-15T10:43:43.000Z</time></trkpt>
<trkpt lat="41.728434" lon="23.482968"><ele>2764.9</ele><time>2026-03-15T10:43:44.000Z</time></trkpt>
<trkpt lat="41.728434" lon="23.482968"><ele>2764.9</ele><time>2026-03-15T10:43:45.000Z</time></trkpt>
<trkpt lat="41.728434" lon="23.482968"><ele>2764.5</ele><time>2026-03-15T10:43:46.000Z</time></trkpt>
<trkpt lat="41.728434" lon="23.482968"><ele>2764.5</ele><time>2026-03-15T10:43:47.000Z</time></trkpt>
<trkpt lat="41.728434" lon="23.482968"><ele>2764.5</ele><time>2026-03-15T10:43:48.000Z</time></trkpt>
<trkpt lat="41.728434" lon="23.482968"><ele>2764.5</ele><time>2026-03-15T10:43:49.000Z</time></trkpt>
<trkpt lat="41.728434" lon="23.482968"><ele>2764.5</ele><time>2026-03-15T10:43:50.000Z</time></trkpt>
<trkpt lat="41.728434" lon="23.482968"><ele>2764.2</ele><time>2026-03-15T10:43:51.000Z</time></trkpt>
<trkpt lat="41.728434" lon="23.482968"><ele>2764.2</ele><time>2026-03-15T10:43:52.000Z</time></trkpt>
<trkpt lat="41.728434" lon="23.482968"><ele>2764.2</ele><time>2026-03-15T10:43:53.000Z</time></trkpt>
<trkpt lat="41.728434" lon="23.482968"><ele>2764.2</ele><time>2026-03-15T10:43:54.000Z</time></trkpt>
<trkpt lat="41.728434" lon="23.482968"><ele>2764.2</ele><time>2026-03-15T10:43:55.000Z</time></trkpt>
<trkpt lat="41.728434" lon="23.482968"><ele>2764.2</ele><time>2026-03-15T10:43:56.000Z</time></trkpt>
<trkpt lat="41.728434" lon="23.482968"><ele>2764.2</ele><time>2026-03-15T10:43:57.000Z</time></trkpt>
<trkpt lat="41.728434" lon="23.482968"><ele>2764.2</ele><time>2026-03-15T10:43:58.000Z</time></trkpt>
<trkpt lat="41.728434" lon="23.482968"><ele>2764.2</ele><time>2026-03-15T10:43:59.000Z</time></trkpt>
<trkpt lat="41.728434" lon="23.482968"><ele>2764.2</ele><time>2026-03-15T10:44:00.000Z</time></trkpt>
<trkpt lat="41.728434" lon="23.482968"><ele>2764.3</ele><time>2026-03-15T10:44:01.000Z</time></trkpt>
<trkpt lat="41.728434" lon="23.482968"><ele>2764.3</ele><time>2026-03-15T10:44:02.000Z</time></trkpt>
<trkpt lat="41.728434" lon="23.482968"><ele>2764.3</ele><time>2026-03-15T10:44:03.000Z</time></trkpt>
<trkpt lat="41.728434" lon="23.482968"><ele>2764.3</ele><time>2026-03-15T10:44:04.000Z</time></trkpt>
<trkpt lat="41.728434" lon="23.482968"><ele>2764.3</ele><time>2026-03-15T10:44:05.000Z</time></trkpt>
<trkpt lat="41.728434" lon="23.482968"><ele>2764.4</ele><time>2026-03-15T10:44:06.000Z</time></trkpt>
<trkpt lat="41.728434" lon="23.482968"><ele>2764.4</ele><time>2026-03-15T10:44:07.000Z</time></trkpt>
<trkpt lat="41.728433" lon="23.482968"><ele>2764.4</ele><time>2026-03-15T10:44:08.000Z</time></trkpt>
<trkpt lat="41.728433" lon="23.482968"><ele>2764.4</ele><time>2026-03-15T10:44:09.000Z</time></trkpt>
<trkpt lat="41.728433" lon="23.482969"><ele>2764.4</ele><time>2026-03-15T10:44:10.000Z</time></trkpt>
<trkpt lat="41.728431" lon="23.482969"><ele>2764.5</ele><time>2026-03-15T10:44:11.000Z</time></trkpt>
<trkpt lat="41.72843" lon="23.48297"><ele>2764.5</ele><time>2026-03-15T10:44:12.000Z</time></trkpt>
<trkpt lat="41.728427" lon="23.48297"><ele>2764.5</ele><time>2026-03-15T10:44:13.000Z</time></trkpt>
<trkpt lat="41.728426" lon="23.482971"><ele>2764.5</ele><time>2026-03-15T10:44:14.000Z</time></trkpt>
<trkpt lat="41.728426" lon="23.482971"><ele>2764.5</ele><time>2026-03-15T10:44:15.000Z</time></trkpt>
<trkpt lat="41.728426" lon="23.48297"><ele>2764.3</ele><time>2026-03-15T10:44:16.000Z</time></trkpt>
<trkpt lat="41.728426" lon="23.48297"><ele>2764.3</ele><time>2026-03-15T10:44:17.000Z</time></trkpt>
<trkpt lat="41.728426" lon="23.482969"><ele>2764.3</ele><time>2026-03-15T10:44:18.000Z</time></trkpt>
<trkpt lat="41.728426" lon="23.482969"><ele>2764.3</ele><time>2026-03-15T10:44:19.000Z</time></trkpt>
<trkpt lat="41.728426" lon="23.482969"><ele>2764.3</ele><time>2026-03-15T10:44:20.000Z</time></trkpt>
<trkpt lat="41.728425" lon="23.482968"><ele>2764.3</ele><time>2026-03-15T10:44:21.000Z</time></trkpt>
<trkpt lat="41.728425" lon="23.482968"><ele>2764.3</ele><time>2026-03-15T10:44:22.000Z</time></trkpt>
<trkpt lat="41.728426" lon="23.482968"><ele>2764.3</ele><time>2026-03-15T10:44:23.000Z</time></trkpt>
<trkpt lat="41.728426" lon="23.482968"><ele>2764.3</ele><time>2026-03-15T10:44:24.000Z</time></trkpt>
<trkpt lat="41.728425" lon="23.482967"><ele>2764.3</ele><time>2026-03-15T10:44:25.000Z</time></trkpt>
<trkpt lat="41.728425" lon="23.482965"><ele>2764.5</ele><time>2026-03-15T10:44:26.000Z</time></trkpt>
<trkpt lat="41.728424" lon="23.482964"><ele>2764.5</ele><time>2026-03-15T10:44:27.000Z</time></trkpt>
<trkpt lat="41.728424" lon="23.482963"><ele>2764.5</ele><time>2026-03-15T10:44:28.000Z</time></trkpt>
<trkpt lat="41.728423" lon="23.482962"><ele>2764.5</ele><time>2026-03-15T10:44:29.000Z</time></trkpt>
<trkpt lat="41.728423" lon="23.482961"><ele>2764.5</ele><time>2026-03-15T10:44:30.000Z</time></trkpt>
<trkpt lat="41.728422" lon="23.482961"><ele>2764.9</ele><time>2026-03-15T10:44:31.000Z</time></trkpt>
<trkpt lat="41.728421" lon="23.48296"><ele>2764.9</ele><time>2026-03-15T10:44:32.000Z</time></trkpt>
<trkpt lat="41.72842" lon="23.482959"><ele>2764.9</ele><time>2026-03-15T10:44:33.000Z</time></trkpt>
<trkpt lat="41.728419" lon="23.482959"><ele>2764.9</ele><time>2026-03-15T10:44:34.000Z</time></trkpt>
<trkpt lat="41.728419" lon="23.482958"><ele>2764.9</ele><time>2026-03-15T10:44:35.000Z</time></trkpt>
<trkpt lat="41.72842" lon="23.482957"><ele>2765.2</ele><time>2026-03-15T10:44:36.000Z</time></trkpt>
<trkpt lat="41.728421" lon="23.482956"><ele>2765.2</ele><time>2026-03-15T10:44:37.000Z</time></trkpt>
<trkpt lat="41.728423" lon="23.482956"><ele>2765.2</ele><time>2026-03-15T10:44:38.000Z</time></trkpt>
<trkpt lat="41.728424" lon="23.482956"><ele>2765.2</ele><time>2026-03-15T10:44:39.000Z</time></trkpt>
<trkpt lat="41.728425" lon="23.482957"><ele>2765.2</ele><time>2026-03-15T10:44:40.000Z</time></trkpt>
<trkpt lat="41.728426" lon="23.482959"><ele>2765.2</ele><time>2026-03-15T10:44:41.000Z</time></trkpt>
<trkpt lat="41.728425" lon="23.48296"><ele>2765.2</ele><time>2026-03-15T10:44:42.000Z</time></trkpt>
<trkpt lat="41.728425" lon="23.482961"><ele>2765.2</ele><time>2026-03-15T10:44:43.000Z</time></trkpt>
<trkpt lat="41.728424" lon="23.482962"><ele>2765.2</ele><time>2026-03-15T10:44:44.000Z</time></trkpt>
<trkpt lat="41.728424" lon="23.482963"><ele>2765.2</ele><time>2026-03-15T10:44:45.000Z</time></trkpt>
<trkpt lat="41.728423" lon="23.482963"><ele>2765.2</ele><time>2026-03-15T10:44:46.000Z</time></trkpt>
<trkpt lat="41.728423" lon="23.482964"><ele>2765.2</ele><time>2026-03-15T10:44:47.000Z</time></trkpt>
<trkpt lat="41.728422" lon="23.482964"><ele>2765.2</ele><time>2026-03-15T10:44:48.000Z</time></trkpt>
<trkpt lat="41.728422" lon="23.482964"><ele>2765.2</ele><time>2026-03-15T10:44:49.000Z</time></trkpt>
<trkpt lat="41.728422" lon="23.482965"><ele>2765.2</ele><time>2026-03-15T10:44:50.000Z</time></trkpt>
<trkpt lat="41.728422" lon="23.482965"><ele>2765.2</ele><time>2026-03-15T10:44:51.000Z</time></trkpt>
<trkpt lat="41.728423" lon="23.482965"><ele>2765.2</ele><time>2026-03-15T10:44:52.000Z</time></trkpt>
<trkpt lat="41.728423" lon="23.482965"><ele>2765.2</ele><time>2026-03-15T10:44:53.000Z</time></trkpt>
<trkpt lat="41.728424" lon="23.482965"><ele>2765.2</ele><time>2026-03-15T10:44:54.000Z</time></trkpt>
<trkpt lat="41.728424" lon="23.482965"><ele>2765.2</ele><time>2026-03-15T10:44:55.000Z</time></trkpt>
<trkpt lat="41.728424" lon="23.482965"><ele>2765.3</ele><time>2026-03-15T10:44:56.000Z</time></trkpt>
<trkpt lat="41.728424" lon="23.482965"><ele>2765.3</ele><time>2026-03-15T10:44:57.000Z</time></trkpt>
<trkpt lat="41.728424" lon="23.482965"><ele>2765.3</ele><time>2026-03-15T10:44:58.000Z</time></trkpt>
<trkpt lat="41.728424" lon="23.482965"><ele>2765.3</ele><time>2026-03-15T10:44:59.000Z</time></trkpt>
<trkpt lat="41.728424" lon="23.482966"><ele>2765.3</ele><time>2026-03-15T10:45:00.000Z</time></trkpt>
<trkpt lat="41.728424" lon="23.482966"><ele>2765.3</ele><time>2026-03-15T10:45:01.000Z</time></trkpt>
<trkpt lat="41.728424" lon="23.482966"><ele>2765.3</ele><time>2026-03-15T10:45:02.000Z</time></trkpt>
<trkpt lat="41.728424" lon="23.482966"><ele>2765.3</ele><time>2026-03-15T10:45:03.000Z</time></trkpt>
<trkpt lat="41.728424" lon="23.482966"><ele>2765.3</ele><time>2026-03-15T10:45:04.000Z</time></trkpt>
<trkpt lat="41.728424" lon="23.482966"><ele>2765.3</ele><time>2026-03-15T10:45:05.000Z</time></trkpt>
<trkpt lat="41.728424" lon="23.482966"><ele>2765.1</ele><time>2026-03-15T10:45:06.000Z</time></trkpt>
<trkpt lat="41.728424" lon="23.482966"><ele>2765.1</ele><time>2026-03-15T10:45:07.000Z</time></trkpt>
<trkpt lat="41.728424" lon="23.482965"><ele>2765.1</ele><time>2026-03-15T10:45:08.000Z</time></trkpt>
<trkpt lat="41.728424" lon="23.482965"><ele>2765.1</ele><time>2026-03-15T10:45:09.000Z</time></trkpt>
<trkpt lat="41.728424" lon="23.482964"><ele>2765.1</ele><time>2026-03-15T10:45:10.000Z</time></trkpt>
<trkpt lat="41.728424" lon="23.482963"><ele>2765.1</ele><time>2026-03-15T10:45:11.000Z</time></trkpt>
<trkpt lat="41.728424" lon="23.482963"><ele>2765.1</ele><time>2026-03-15T10:45:12.000Z</time></trkpt>
<trkpt lat="41.728424" lon="23.482964"><ele>2765.1</ele><time>2026-03-15T10:45:13.000Z</time></trkpt>
<trkpt lat="41.728424" lon="23.482964"><ele>2765.1</ele><time>2026-03-15T10:45:14.000Z</time></trkpt>
<trkpt lat="41.728424" lon="23.482964"><ele>2765.1</ele><time>2026-03-15T10:45:15.000Z</time></trkpt>
<trkpt lat="41.728423" lon="23.482964"><ele>2765.1</ele><time>2026-03-15T10:45:16.000Z</time></trkpt>
<trkpt lat="41.728423" lon="23.482964"><ele>2765.1</ele><time>2026-03-15T10:45:17.000Z</time></trkpt>
<trkpt lat="41.728422" lon="23.482963"><ele>2765.1</ele><time>2026-03-15T10:45:18.000Z</time></trkpt>
<trkpt lat="41.728422" lon="23.482965"><ele>2765.1</ele><time>2026-03-15T10:45:19.000Z</time></trkpt>
<trkpt lat="41.728422" lon="23.482966"><ele>2765.1</ele><time>2026-03-15T10:45:20.000Z</time></trkpt>
<trkpt lat="41.728422" lon="23.482969"><ele>2765.3</ele><time>2026-03-15T10:45:21.000Z</time></trkpt>
<trkpt lat="41.728422" lon="23.48297"><ele>2765.3</ele><time>2026-03-15T10:45:22.000Z</time></trkpt>
<trkpt lat="41.728423" lon="23.482972"><ele>2765.3</ele><time>2026-03-15T10:45:23.000Z</time></trkpt>
<trkpt lat="41.728422" lon="23.482973"><ele>2765.3</ele><time>2026-03-15T10:45:24.000Z</time></trkpt>
<trkpt lat="41.728422" lon="23.482973"><ele>2765.3</ele><time>2026-03-15T10:45:25.000Z</time></trkpt>
<trkpt lat="41.728422" lon="23.482973"><ele>2765.4</ele><time>2026-03-15T10:45:26.000Z</time></trkpt>
<trkpt lat="41.728422" lon="23.482973"><ele>2765.4</ele><time>2026-03-15T10:45:27.000Z</time></trkpt>
<trkpt lat="41.728423" lon="23.482972"><ele>2765.4</ele><time>2026-03-15T10:45:28.000Z</time></trkpt>
<trkpt lat="41.728424" lon="23.482973"><ele>2765.4</ele><time>2026-03-15T10:45:29.000Z</time></trkpt>
<trkpt lat="41.728424" lon="23.482973"><ele>2765.4</ele><time>2026-03-15T10:45:30.000Z</time></trkpt>
<trkpt lat="41.728425" lon="23.482973"><ele>2765.5</ele><time>2026-03-15T10:45:31.000Z</time></trkpt>
<trkpt lat="41.728426" lon="23.482973"><ele>2765.5</ele><time>2026-03-15T10:45:32.000Z</time></trkpt>
<trkpt lat="41.728426" lon="23.482974"><ele>2765.5</ele><time>2026-03-15T10:45:33.000Z</time></trkpt>
<trkpt lat="41.728427" lon="23.482975"><ele>2765.5</ele><time>2026-03-15T10:45:34.000Z</time></trkpt>
<trkpt lat="41.728429" lon="23.482976"><ele>2765.5</ele><time>2026-03-15T10:45:35.000Z</time></trkpt>
<trkpt lat="41.72843" lon="23.482976"><ele>2765.5</ele><time>2026-03-15T10:45:36.000Z</time></trkpt>
<trkpt lat="41.72843" lon="23.482977"><ele>2765.5</ele><time>2026-03-15T10:45:37.000Z</time></trkpt>
<trkpt lat="41.728431" lon="23.482977"><ele>2765.5</ele><time>2026-03-15T10:45:38.000Z</time></trkpt>
<trkpt lat="41.728431" lon="23.482977"><ele>2765.5</ele><time>2026-03-15T10:45:39.000Z</time></trkpt>
<trkpt lat="41.728431" lon="23.482977"><ele>2765.5</ele><time>2026-03-15T10:45:40.000Z</time></trkpt>
<trkpt lat="41.728431" lon="23.482977"><ele>2765.5</ele><time>2026-03-15T10:45:41.000Z</time></trkpt>
<trkpt lat="41.728431" lon="23.482977"><ele>2765.5</ele><time>2026-03-15T10:45:42.000Z</time></trkpt>
<trkpt lat="41.728431" lon="23.482977"><ele>2765.5</ele><time>2026-03-15T10:45:43.000Z</time></trkpt>
<trkpt lat="41.728432" lon="23.482977"><ele>2765.5</ele><time>2026-03-15T10:45:44.000Z</time></trkpt>
<trkpt lat="41.728434" lon="23.482976"><ele>2765.5</ele><time>2026-03-15T10:45:45.000Z</time></trkpt>
<trkpt lat="41.728437" lon="23.482975"><ele>2765.5</ele><time>2026-03-15T10:45:46.000Z</time></trkpt>
<trkpt lat="41.728441" lon="23.482974"><ele>2765.5</ele><time>2026-03-15T10:45:47.000Z</time></trkpt>
<trkpt lat="41.728447" lon="23.482972"><ele>2765.5</ele><time>2026-03-15T10:45:48.000Z</time></trkpt>
<trkpt lat="41.728452" lon="23.48297"><ele>2765.5</ele><time>2026-03-15T10:45:49.000Z</time></trkpt>
<trkpt lat="41.728458" lon="23.482968"><ele>2765.5</ele><time>2026-03-15T10:45:50.000Z</time></trkpt>
<trkpt lat="41.728464" lon="23.482966"><ele>2765.7</ele><time>2026-03-15T10:45:51.000Z</time></trkpt>
<trkpt lat="41.728468" lon="23.482963"><ele>2765.7</ele><time>2026-03-15T10:45:52.000Z</time></trkpt>
<trkpt lat="41.728471" lon="23.482961"><ele>2765.7</ele><time>2026-03-15T10:45:53.000Z</time></trkpt>
<trkpt lat="41.728472" lon="23.48296"><ele>2765.7</ele><time>2026-03-15T10:45:54.000Z</time></trkpt>
<trkpt lat="41.728472" lon="23.48296"><ele>2765.7</ele><time>2026-03-15T10:45:55.000Z</time></trkpt>
<trkpt lat="41.72847" lon="23.48296"><ele>2765.8</ele><time>2026-03-15T10:45:56.000Z</time></trkpt>
<trkpt lat="41.72847" lon="23.482961"><ele>2765.8</ele><time>2026-03-15T10:45:57.000Z</time></trkpt>
<trkpt lat="41.72847" lon="23.482962"><ele>2765.8</ele><time>2026-03-15T10:45:58.000Z</time></trkpt>
<trkpt lat="41.728469" lon="23.482961"><ele>2765.8</ele><time>2026-03-15T10:45:59.000Z</time></trkpt>
<trkpt lat="41.728469" lon="23.482961"><ele>2765.8</ele><time>2026-03-15T10:46:00.000Z</time></trkpt>
<trkpt lat="41.728468" lon="23.482961"><ele>2765.9</ele><time>2026-03-15T10:46:01.000Z</time></trkpt>
<trkpt lat="41.728467" lon="23.48296"><ele>2765.9</ele><time>2026-03-15T10:46:02.000Z</time></trkpt>
<trkpt lat="41.728466" lon="23.482959"><ele>2765.9</ele><time>2026-03-15T10:46:03.000Z</time></trkpt>
<trkpt lat="41.728465" lon="23.482959"><ele>2765.9</ele><time>2026-03-15T10:46:04.000Z</time></trkpt>
<trkpt lat="41.728465" lon="23.482959"><ele>2765.9</ele><time>2026-03-15T10:46:05.000Z</time></trkpt>
<trkpt lat="41.728465" lon="23.482959"><ele>2766.2</ele><time>2026-03-15T10:46:06.000Z</time></trkpt>
<trkpt lat="41.728466" lon="23.482959"><ele>2766.2</ele><time>2026-03-15T10:46:07.000Z</time></trkpt>
<trkpt lat="41.728467" lon="23.482959"><ele>2766.2</ele><time>2026-03-15T10:46:08.000Z</time></trkpt>
<trkpt lat="41.728468" lon="23.482959"><ele>2766.2</ele><time>2026-03-15T10:46:09.000Z</time></trkpt>
<trkpt lat="41.728468" lon="23.482959"><ele>2766.2</ele><time>2026-03-15T10:46:10.000Z</time></trkpt>
<trkpt lat="41.728468" lon="23.482958"><ele>2766.3</ele><time>2026-03-15T10:46:11.000Z</time></trkpt>
<trkpt lat="41.728468" lon="23.482957"><ele>2766.3</ele><time>2026-03-15T10:46:12.000Z</time></trkpt>
<trkpt lat="41.728468" lon="23.482957"><ele>2766.3</ele><time>2026-03-15T10:46:13.000Z</time></trkpt>
<trkpt lat="41.728468" lon="23.482956"><ele>2766.3</ele><time>2026-03-15T10:46:14.000Z</time></trkpt>
<trkpt lat="41.728468" lon="23.482957"><ele>2766.3</ele><time>2026-03-15T10:46:15.000Z</time></trkpt>
<trkpt lat="41.728469" lon="23.482958"><ele>2766.2</ele><time>2026-03-15T10:46:16.000Z</time></trkpt>
<trkpt lat="41.72847" lon="23.482958"><ele>2766.2</ele><time>2026-03-15T10:46:17.000Z</time></trkpt>
<trkpt lat="41.728471" lon="23.482959"><ele>2766.2</ele><time>2026-03-15T10:46:18.000Z</time></trkpt>
<trkpt lat="41.728472" lon="23.482959"><ele>2766.2</ele><time>2026-03-15T10:46:19.000Z</time></trkpt>
<trkpt lat="41.728472" lon="23.48296"><ele>2766.2</ele><time>2026-03-15T10:46:20.000Z</time></trkpt>
<trkpt lat="41.728472" lon="23.48296"><ele>2766</ele><time>2026-03-15T10:46:21.000Z</time></trkpt>
<trkpt lat="41.728472" lon="23.48296"><ele>2766</ele><time>2026-03-15T10:46:22.000Z</time></trkpt>
<trkpt lat="41.728472" lon="23.482961"><ele>2766</ele><time>2026-03-15T10:46:23.000Z</time></trkpt>
<trkpt lat="41.728471" lon="23.482962"><ele>2766</ele><time>2026-03-15T10:46:24.000Z</time></trkpt>
<trkpt lat="41.72847" lon="23.482961"><ele>2766</ele><time>2026-03-15T10:46:25.000Z</time></trkpt>
<trkpt lat="41.728469" lon="23.482959"><ele>2765.9</ele><time>2026-03-15T10:46:26.000Z</time></trkpt>
<trkpt lat="41.728467" lon="23.482957"><ele>2765.9</ele><time>2026-03-15T10:46:27.000Z</time></trkpt>
<trkpt lat="41.728467" lon="23.482953"><ele>2765.9</ele><time>2026-03-15T10:46:28.000Z</time></trkpt>
<trkpt lat="41.728467" lon="23.48295"><ele>2765.9</ele><time>2026-03-15T10:46:29.000Z</time></trkpt>
<trkpt lat="41.728468" lon="23.482947"><ele>2765.9</ele><time>2026-03-15T10:46:30.000Z</time></trkpt>
<trkpt lat="41.728468" lon="23.482945"><ele>2766.1</ele><time>2026-03-15T10:46:31.000Z</time></trkpt>
<trkpt lat="41.728468" lon="23.482945"><ele>2766.1</ele><time>2026-03-15T10:46:32.000Z</time></trkpt>
<trkpt lat="41.728468" lon="23.482945"><ele>2766.1</ele><time>2026-03-15T10:46:33.000Z</time></trkpt>
<trkpt lat="41.728467" lon="23.482945"><ele>2766.1</ele><time>2026-03-15T10:46:34.000Z</time></trkpt>
<trkpt lat="41.728467" lon="23.482945"><ele>2766.1</ele><time>2026-03-15T10:46:35.000Z</time></trkpt>
<trkpt lat="41.728467" lon="23.482945"><ele>2766.2</ele><time>2026-03-15T10:46:36.000Z</time></trkpt>
<trkpt lat="41.728467" lon="23.482944"><ele>2766.2</ele><time>2026-03-15T10:46:37.000Z</time></trkpt>
<trkpt lat="41.728467" lon="23.482943"><ele>2766.2</ele><time>2026-03-15T10:46:38.000Z</time></trkpt>
<trkpt lat="41.728466" lon="23.482943"><ele>2766.2</ele><time>2026-03-15T10:46:39.000Z</time></trkpt>
<trkpt lat="41.728466" lon="23.482943"><ele>2766.2</ele><time>2026-03-15T10:46:40.000Z</time></trkpt>
<trkpt lat="41.728466" lon="23.482943"><ele>2766.2</ele><time>2026-03-15T10:46:41.000Z</time></trkpt>
<trkpt lat="41.728466" lon="23.482943"><ele>2766.2</ele><time>2026-03-15T10:46:42.000Z</time></trkpt>
<trkpt lat="41.728466" lon="23.482943"><ele>2766.2</ele><time>2026-03-15T10:46:43.000Z</time></trkpt>
<trkpt lat="41.728466" lon="23.482943"><ele>2766.2</ele><time>2026-03-15T10:46:44.000Z</time></trkpt>
<trkpt lat="41.728466" lon="23.482943"><ele>2766.2</ele><time>2026-03-15T10:46:45.000Z</time></trkpt>
<trkpt lat="41.728466" lon="23.482943"><ele>2766.3</ele><time>2026-03-15T10:46:46.000Z</time></trkpt>
<trkpt lat="41.728466" lon="23.482943"><ele>2766.3</ele><time>2026-03-15T10:46:47.000Z</time></trkpt>
<trkpt lat="41.728466" lon="23.482943"><ele>2766.3</ele><time>2026-03-15T10:46:48.000Z</time></trkpt>
<trkpt lat="41.728466" lon="23.482943"><ele>2766.3</ele><time>2026-03-15T10:46:49.000Z</time></trkpt>
<trkpt lat="41.728466" lon="23.482943"><ele>2766.3</ele><time>2026-03-15T10:46:50.000Z</time></trkpt>
<trkpt lat="41.728466" lon="23.482943"><ele>2766.4</ele><time>2026-03-15T10:46:51.000Z</time></trkpt>
<trkpt lat="41.728466" lon="23.482943"><ele>2766.4</ele><time>2026-03-15T10:46:52.000Z</time></trkpt>
<trkpt lat="41.728466" lon="23.482944"><ele>2766.4</ele><time>2026-03-15T10:46:53.000Z</time></trkpt>
<trkpt lat="41.728465" lon="23.482945"><ele>2766.4</ele><time>2026-03-15T10:46:54.000Z</time></trkpt>
<trkpt lat="41.728463" lon="23.482946"><ele>2766.4</ele><time>2026-03-15T10:46:55.000Z</time></trkpt>
<trkpt lat="41.72846" lon="23.482948"><ele>2766.5</ele><time>2026-03-15T10:46:56.000Z</time></trkpt>
<trkpt lat="41.728457" lon="23.482949"><ele>2766.5</ele><time>2026-03-15T10:46:57.000Z</time></trkpt>
<trkpt lat="41.728455" lon="23.482949"><ele>2766.5</ele><time>2026-03-15T10:46:58.000Z</time></trkpt>
<trkpt lat="41.728453" lon="23.482949"><ele>2766.5</ele><time>2026-03-15T10:46:59.000Z</time></trkpt>
<trkpt lat="41.728452" lon="23.482948"><ele>2766.5</ele><time>2026-03-15T10:47:00.000Z</time></trkpt>
<trkpt lat="41.728451" lon="23.482947"><ele>2766.5</ele><time>2026-03-15T10:47:01.000Z</time></trkpt>
<trkpt lat="41.728448" lon="23.482947"><ele>2766.5</ele><time>2026-03-15T10:47:02.000Z</time></trkpt>
<trkpt lat="41.728443" lon="23.482946"><ele>2766.5</ele><time>2026-03-15T10:47:03.000Z</time></trkpt>
<trkpt lat="41.728438" lon="23.482944"><ele>2766.5</ele><time>2026-03-15T10:47:04.000Z</time></trkpt>
<trkpt lat="41.728433" lon="23.482942"><ele>2766.5</ele><time>2026-03-15T10:47:05.000Z</time></trkpt>
<trkpt lat="41.728429" lon="23.482939"><ele>2766.3</ele><time>2026-03-15T10:47:06.000Z</time></trkpt>
<trkpt lat="41.728426" lon="23.482936"><ele>2766.3</ele><time>2026-03-15T10:47:07.000Z</time></trkpt>
<trkpt lat="41.728425" lon="23.482933"><ele>2766.3</ele><time>2026-03-15T10:47:08.000Z</time></trkpt>
<trkpt lat="41.728426" lon="23.48293"><ele>2766.3</ele><time>2026-03-15T10:47:09.000Z</time></trkpt>
<trkpt lat="41.728427" lon="23.482928"><ele>2766.3</ele><time>2026-03-15T10:47:10.000Z</time></trkpt>
<trkpt lat="41.728428" lon="23.482926"><ele>2766.1</ele><time>2026-03-15T10:47:11.000Z</time></trkpt>
<trkpt lat="41.728428" lon="23.482925"><ele>2766.1</ele><time>2026-03-15T10:47:12.000Z</time></trkpt>
<trkpt lat="41.728429" lon="23.482926"><ele>2766.1</ele><time>2026-03-15T10:47:13.000Z</time></trkpt>
<trkpt lat="41.728429" lon="23.482926"><ele>2766.1</ele><time>2026-03-15T10:47:14.000Z</time></trkpt>
<trkpt lat="41.728429" lon="23.482927"><ele>2766.1</ele><time>2026-03-15T10:47:15.000Z</time></trkpt>
<trkpt lat="41.728428" lon="23.482929"><ele>2765.7</ele><time>2026-03-15T10:47:16.000Z</time></trkpt>
<trkpt lat="41.728428" lon="23.48293"><ele>2765.7</ele><time>2026-03-15T10:47:17.000Z</time></trkpt>
<trkpt lat="41.728428" lon="23.482931"><ele>2765.7</ele><time>2026-03-15T10:47:18.000Z</time></trkpt>
<trkpt lat="41.728428" lon="23.482932"><ele>2765.7</ele><time>2026-03-15T10:47:19.000Z</time></trkpt>
<trkpt lat="41.728428" lon="23.482933"><ele>2765.7</ele><time>2026-03-15T10:47:20.000Z</time></trkpt>
<trkpt lat="41.728429" lon="23.482933"><ele>2765.3</ele><time>2026-03-15T10:47:21.000Z</time></trkpt>
<trkpt lat="41.728429" lon="23.482933"><ele>2765.3</ele><time>2026-03-15T10:47:22.000Z</time></trkpt>
<trkpt lat="41.728428" lon="23.482933"><ele>2765.3</ele><time>2026-03-15T10:47:23.000Z</time></trkpt>
<trkpt lat="41.728428" lon="23.482932"><ele>2765.3</ele><time>2026-03-15T10:47:24.000Z</time></trkpt>
<trkpt lat="41.728428" lon="23.482932"><ele>2765.3</ele><time>2026-03-15T10:47:25.000Z</time></trkpt>
<trkpt lat="41.728428" lon="23.482932"><ele>2765.1</ele><time>2026-03-15T10:47:26.000Z</time></trkpt>
<trkpt lat="41.728427" lon="23.482932"><ele>2765.1</ele><time>2026-03-15T10:47:27.000Z</time></trkpt>
<trkpt lat="41.728427" lon="23.482932"><ele>2765.1</ele><time>2026-03-15T10:47:28.000Z</time></trkpt>
<trkpt lat="41.728427" lon="23.482932"><ele>2765.1</ele><time>2026-03-15T10:47:29.000Z</time></trkpt>
<trkpt lat="41.728427" lon="23.482931"><ele>2765.1</ele><time>2026-03-15T10:47:30.000Z</time></trkpt>
<trkpt lat="41.728426" lon="23.482931"><ele>2764.9</ele><time>2026-03-15T10:47:31.000Z</time></trkpt>
<trkpt lat="41.728426" lon="23.482931"><ele>2764.9</ele><time>2026-03-15T10:47:32.000Z</time></trkpt>
<trkpt lat="41.728426" lon="23.482931"><ele>2764.9</ele><time>2026-03-15T10:47:33.000Z</time></trkpt>
<trkpt lat="41.728426" lon="23.482931"><ele>2764.9</ele><time>2026-03-15T10:47:34.000Z</time></trkpt>
<trkpt lat="41.728426" lon="23.482931"><ele>2764.9</ele><time>2026-03-15T10:47:35.000Z</time></trkpt>
<trkpt lat="41.728426" lon="23.482931"><ele>2765</ele><time>2026-03-15T10:47:36.000Z</time></trkpt>
<trkpt lat="41.728425" lon="23.482931"><ele>2765</ele><time>2026-03-15T10:47:37.000Z</time></trkpt>
<trkpt lat="41.728425" lon="23.482932"><ele>2765</ele><time>2026-03-15T10:47:38.000Z</time></trkpt>
<trkpt lat="41.728425" lon="23.482932"><ele>2765</ele><time>2026-03-15T10:47:39.000Z</time></trkpt>
<trkpt lat="41.728425" lon="23.482932"><ele>2765</ele><time>2026-03-15T10:47:40.000Z</time></trkpt>
<trkpt lat="41.728425" lon="23.482932"><ele>2765.1</ele><time>2026-03-15T10:47:41.000Z</time></trkpt>
<trkpt lat="41.728425" lon="23.482932"><ele>2765.1</ele><time>2026-03-15T10:47:42.000Z</time></trkpt>
<trkpt lat="41.728425" lon="23.482932"><ele>2765.1</ele><time>2026-03-15T10:47:43.000Z</time></trkpt>
<trkpt lat="41.728425" lon="23.482932"><ele>2765.1</ele><time>2026-03-15T10:47:44.000Z</time></trkpt>
<trkpt lat="41.728425" lon="23.482932"><ele>2765.1</ele><time>2026-03-15T10:47:45.000Z</time></trkpt>
<trkpt lat="41.728425" lon="23.482932"><ele>2765.1</ele><time>2026-03-15T10:47:46.000Z</time></trkpt>
<trkpt lat="41.728425" lon="23.482932"><ele>2765.1</ele><time>2026-03-15T10:47:47.000Z</time></trkpt>
<trkpt lat="41.728425" lon="23.482932"><ele>2765.1</ele><time>2026-03-15T10:47:48.000Z</time></trkpt>
<trkpt lat="41.728425" lon="23.482932"><ele>2765.1</ele><time>2026-03-15T10:47:49.000Z</time></trkpt>
<trkpt lat="41.728425" lon="23.482932"><ele>2765.1</ele><time>2026-03-15T10:47:50.000Z</time></trkpt>
<trkpt lat="41.728425" lon="23.482932"><ele>2765.1</ele><time>2026-03-15T10:47:51.000Z</time></trkpt>
<trkpt lat="41.728426" lon="23.482932"><ele>2765.1</ele><time>2026-03-15T10:47:52.000Z</time></trkpt>
<trkpt lat="41.728426" lon="23.482932"><ele>2765.1</ele><time>2026-03-15T10:47:53.000Z</time></trkpt>
<trkpt lat="41.728426" lon="23.482932"><ele>2765.1</ele><time>2026-03-15T10:47:54.000Z</time></trkpt>
<trkpt lat="41.728426" lon="23.482932"><ele>2765.1</ele><time>2026-03-15T10:47:55.000Z</time></trkpt>
<trkpt lat="41.728426" lon="23.482932"><ele>2765</ele><time>2026-03-15T10:47:56.000Z</time></trkpt>
<trkpt lat="41.728426" lon="23.482932"><ele>2765</ele><time>2026-03-15T10:47:57.000Z</time></trkpt>
<trkpt lat="41.728426" lon="23.482932"><ele>2765</ele><time>2026-03-15T10:47:58.000Z</time></trkpt>
<trkpt lat="41.728426" lon="23.482932"><ele>2765</ele><time>2026-03-15T10:47:59.000Z</time></trkpt>
<trkpt lat="41.728426" lon="23.482933"><ele>2765</ele><time>2026-03-15T10:48:00.000Z</time></trkpt>
<trkpt lat="41.728427" lon="23.482933"><ele>2765</ele><time>2026-03-15T10:48:01.000Z</time></trkpt>
<trkpt lat="41.728427" lon="23.482933"><ele>2765</ele><time>2026-03-15T10:48:02.000Z</time></trkpt>
<trkpt lat="41.728427" lon="23.482933"><ele>2765</ele><time>2026-03-15T10:48:03.000Z</time></trkpt>
<trkpt lat="41.728427" lon="23.482933"><ele>2765</ele><time>2026-03-15T10:48:04.000Z</time></trkpt>
<trkpt lat="41.728427" lon="23.482933"><ele>2765</ele><time>2026-03-15T10:48:05.000Z</time></trkpt>
<trkpt lat="41.728427" lon="23.482933"><ele>2765</ele><time>2026-03-15T10:48:06.000Z</time></trkpt>
<trkpt lat="41.728427" lon="23.482933"><ele>2765</ele><time>2026-03-15T10:48:07.000Z</time></trkpt>
<trkpt lat="41.728427" lon="23.482933"><ele>2765</ele><time>2026-03-15T10:48:08.000Z</time></trkpt>
<trkpt lat="41.728427" lon="23.482933"><ele>2765</ele><time>2026-03-15T10:48:09.000Z</time></trkpt>
<trkpt lat="41.728427" lon="23.482933"><ele>2765</ele><time>2026-03-15T10:48:10.000Z</time></trkpt>
<trkpt lat="41.728427" lon="23.482933"><ele>2765</ele><time>2026-03-15T10:48:11.000Z</time></trkpt>
<trkpt lat="41.728427" lon="23.482933"><ele>2765</ele><time>2026-03-15T10:48:12.000Z</time></trkpt>
<trkpt lat="41.728427" lon="23.482933"><ele>2765</ele><time>2026-03-15T10:48:13.000Z</time></trkpt>
<trkpt lat="41.728427" lon="23.482933"><ele>2765</ele><time>2026-03-15T10:48:14.000Z</time></trkpt>
<trkpt lat="41.728427" lon="23.482933"><ele>2765</ele><time>2026-03-15T10:48:15.000Z</time></trkpt>
<trkpt lat="41.728427" lon="23.482933"><ele>2765</ele><time>2026-03-15T10:48:16.000Z</time></trkpt>
<trkpt lat="41.728426" lon="23.482934"><ele>2765</ele><time>2026-03-15T10:48:17.000Z</time></trkpt>
<trkpt lat="41.728426" lon="23.482936"><ele>2765</ele><time>2026-03-15T10:48:18.000Z</time></trkpt>
<trkpt lat="41.728426" lon="23.482937"><ele>2765</ele><time>2026-03-15T10:48:19.000Z</time></trkpt>
<trkpt lat="41.728425" lon="23.482939"><ele>2765</ele><time>2026-03-15T10:48:20.000Z</time></trkpt>
<trkpt lat="41.728424" lon="23.482941"><ele>2765.1</ele><time>2026-03-15T10:48:21.000Z</time></trkpt>
<trkpt lat="41.728423" lon="23.482942"><ele>2765.1</ele><time>2026-03-15T10:48:22.000Z</time></trkpt>
<trkpt lat="41.728422" lon="23.482944"><ele>2765.1</ele><time>2026-03-15T10:48:23.000Z</time></trkpt>
<trkpt lat="41.72842" lon="23.482946"><ele>2765.1</ele><time>2026-03-15T10:48:24.000Z</time></trkpt>
<trkpt lat="41.728419" lon="23.482947"><ele>2765.1</ele><time>2026-03-15T10:48:25.000Z</time></trkpt>
<trkpt lat="41.728418" lon="23.482949"><ele>2765</ele><time>2026-03-15T10:48:26.000Z</time></trkpt>
<trkpt lat="41.728418" lon="23.48295"><ele>2765</ele><time>2026-03-15T10:48:27.000Z</time></trkpt>
<trkpt lat="41.728417" lon="23.482951"><ele>2765</ele><time>2026-03-15T10:48:28.000Z</time></trkpt>
<trkpt lat="41.728417" lon="23.482952"><ele>2765</ele><time>2026-03-15T10:48:29.000Z</time></trkpt>
<trkpt lat="41.728417" lon="23.482952"><ele>2765</ele><time>2026-03-15T10:48:30.000Z</time></trkpt>
<trkpt lat="41.728417" lon="23.482952"><ele>2764.9</ele><time>2026-03-15T10:48:31.000Z</time></trkpt>
<trkpt lat="41.728417" lon="23.482952"><ele>2764.9</ele><time>2026-03-15T10:48:32.000Z</time></trkpt>
<trkpt lat="41.728417" lon="23.482952"><ele>2764.9</ele><time>2026-03-15T10:48:33.000Z</time></trkpt>
<trkpt lat="41.728417" lon="23.482952"><ele>2764.9</ele><time>2026-03-15T10:48:34.000Z</time></trkpt>
<trkpt lat="41.728417" lon="23.482953"><ele>2764.9</ele><time>2026-03-15T10:48:35.000Z</time></trkpt>
<trkpt lat="41.728417" lon="23.482953"><ele>2764.9</ele><time>2026-03-15T10:48:36.000Z</time></trkpt>
<trkpt lat="41.728417" lon="23.482954"><ele>2764.9</ele><time>2026-03-15T10:48:37.000Z</time></trkpt>
<trkpt lat="41.728417" lon="23.482954"><ele>2764.9</ele><time>2026-03-15T10:48:38.000Z</time></trkpt>
<trkpt lat="41.728418" lon="23.482953"><ele>2764.9</ele><time>2026-03-15T10:48:39.000Z</time></trkpt>
<trkpt lat="41.728419" lon="23.482952"><ele>2764.9</ele><time>2026-03-15T10:48:40.000Z</time></trkpt>
<trkpt lat="41.72842" lon="23.482951"><ele>2765.1</ele><time>2026-03-15T10:48:41.000Z</time></trkpt>
<trkpt lat="41.72842" lon="23.48295"><ele>2765.1</ele><time>2026-03-15T10:48:42.000Z</time></trkpt>
<trkpt lat="41.72842" lon="23.482949"><ele>2765.1</ele><time>2026-03-15T10:48:43.000Z</time></trkpt>
<trkpt lat="41.728419" lon="23.48295"><ele>2765.1</ele><time>2026-03-15T10:48:44.000Z</time></trkpt>
<trkpt lat="41.728417" lon="23.482952"><ele>2765.1</ele><time>2026-03-15T10:48:45.000Z</time></trkpt>
<trkpt lat="41.728415" lon="23.482955"><ele>2765.4</ele><time>2026-03-15T10:48:46.000Z</time></trkpt>
<trkpt lat="41.728413" lon="23.482957"><ele>2765.4</ele><time>2026-03-15T10:48:47.000Z</time></trkpt>
<trkpt lat="41.728412" lon="23.482959"><ele>2765.4</ele><time>2026-03-15T10:48:48.000Z</time></trkpt>
<trkpt lat="41.728411" lon="23.48296"><ele>2765.4</ele><time>2026-03-15T10:48:49.000Z</time></trkpt>
<trkpt lat="41.728412" lon="23.48296"><ele>2765.4</ele><time>2026-03-15T10:48:50.000Z</time></trkpt>
<trkpt lat="41.728412" lon="23.48296"><ele>2765.4</ele><time>2026-03-15T10:48:51.000Z</time></trkpt>
<trkpt lat="41.728412" lon="23.482959"><ele>2765.4</ele><time>2026-03-15T10:48:52.000Z</time></trkpt>
<trkpt lat="41.728412" lon="23.482959"><ele>2765.4</ele><time>2026-03-15T10:48:53.000Z</time></trkpt>
<trkpt lat="41.728412" lon="23.482959"><ele>2765.4</ele><time>2026-03-15T10:48:54.000Z</time></trkpt>
<trkpt lat="41.728412" lon="23.482958"><ele>2765.4</ele><time>2026-03-15T10:48:55.000Z</time></trkpt>
<trkpt lat="41.728412" lon="23.482958"><ele>2765.3</ele><time>2026-03-15T10:48:56.000Z</time></trkpt>
<trkpt lat="41.728412" lon="23.482958"><ele>2765.3</ele><time>2026-03-15T10:48:57.000Z</time></trkpt>
<trkpt lat="41.728412" lon="23.482958"><ele>2765.3</ele><time>2026-03-15T10:48:58.000Z</time></trkpt>
<trkpt lat="41.728412" lon="23.482958"><ele>2765.3</ele><time>2026-03-15T10:48:59.000Z</time></trkpt>
<trkpt lat="41.728412" lon="23.482958"><ele>2765.3</ele><time>2026-03-15T10:49:00.000Z</time></trkpt>
<trkpt lat="41.728412" lon="23.482958"><ele>2765.1</ele><time>2026-03-15T10:49:01.000Z</time></trkpt>
<trkpt lat="41.728412" lon="23.482958"><ele>2765.1</ele><time>2026-03-15T10:49:02.000Z</time></trkpt>
<trkpt lat="41.728412" lon="23.482958"><ele>2765.1</ele><time>2026-03-15T10:49:03.000Z</time></trkpt>
<trkpt lat="41.728412" lon="23.482958"><ele>2765.1</ele><time>2026-03-15T10:49:04.000Z</time></trkpt>
<trkpt lat="41.728412" lon="23.482958"><ele>2765.1</ele><time>2026-03-15T10:49:05.000Z</time></trkpt>
<trkpt lat="41.728412" lon="23.482958"><ele>2765</ele><time>2026-03-15T10:49:06.000Z</time></trkpt>
<trkpt lat="41.728412" lon="23.482958"><ele>2765</ele><time>2026-03-15T10:49:07.000Z</time></trkpt>
<trkpt lat="41.728412" lon="23.482958"><ele>2765</ele><time>2026-03-15T10:49:08.000Z</time></trkpt>
<trkpt lat="41.728413" lon="23.482958"><ele>2765</ele><time>2026-03-15T10:49:09.000Z</time></trkpt>
<trkpt lat="41.728413" lon="23.482958"><ele>2765</ele><time>2026-03-15T10:49:10.000Z</time></trkpt>
<trkpt lat="41.728413" lon="23.482958"><ele>2765.1</ele><time>2026-03-15T10:49:11.000Z</time></trkpt>
<trkpt lat="41.728412" lon="23.482958"><ele>2765.1</ele><time>2026-03-15T10:49:12.000Z</time></trkpt>
<trkpt lat="41.728412" lon="23.482958"><ele>2765.1</ele><time>2026-03-15T10:49:13.000Z</time></trkpt>
<trkpt lat="41.728412" lon="23.482958"><ele>2765.1</ele><time>2026-03-15T10:49:14.000Z</time></trkpt>
<trkpt lat="41.728412" lon="23.482958"><ele>2765.1</ele><time>2026-03-15T10:49:15.000Z</time></trkpt>
<trkpt lat="41.728412" lon="23.482958"><ele>2765</ele><time>2026-03-15T10:49:16.000Z</time></trkpt>
<trkpt lat="41.728413" lon="23.482957"><ele>2765</ele><time>2026-03-15T10:49:17.000Z</time></trkpt>
<trkpt lat="41.728413" lon="23.482957"><ele>2765</ele><time>2026-03-15T10:49:18.000Z</time></trkpt>
<trkpt lat="41.728413" lon="23.482957"><ele>2765</ele><time>2026-03-15T10:49:19.000Z</time></trkpt>
<trkpt lat="41.728413" lon="23.482957"><ele>2765</ele><time>2026-03-15T10:49:20.000Z</time></trkpt>
<trkpt lat="41.728413" lon="23.482957"><ele>2765</ele><time>2026-03-15T10:49:21.000Z</time></trkpt>
<trkpt lat="41.728413" lon="23.482957"><ele>2765</ele><time>2026-03-15T10:49:22.000Z</time></trkpt>
<trkpt lat="41.728413" lon="23.482957"><ele>2765</ele><time>2026-03-15T10:49:23.000Z</time></trkpt>
<trkpt lat="41.728413" lon="23.482958"><ele>2765</ele><time>2026-03-15T10:49:24.000Z</time></trkpt>
<trkpt lat="41.728413" lon="23.482958"><ele>2765</ele><time>2026-03-15T10:49:25.000Z</time></trkpt>
<trkpt lat="41.728413" lon="23.482957"><ele>2764.9</ele><time>2026-03-15T10:49:26.000Z</time></trkpt>
<trkpt lat="41.728414" lon="23.482958"><ele>2764.9</ele><time>2026-03-15T10:49:27.000Z</time></trkpt>
<trkpt lat="41.728417" lon="23.482958"><ele>2764.9</ele><time>2026-03-15T10:49:28.000Z</time></trkpt>
<trkpt lat="41.728418" lon="23.482957"><ele>2764.9</ele><time>2026-03-15T10:49:29.000Z</time></trkpt>
<trkpt lat="41.728419" lon="23.482959"><ele>2764.9</ele><time>2026-03-15T10:49:30.000Z</time></trkpt>
<trkpt lat="41.728419" lon="23.48296"><ele>2764.9</ele><time>2026-03-15T10:49:31.000Z</time></trkpt>
<trkpt lat="41.728418" lon="23.48296"><ele>2764.9</ele><time>2026-03-15T10:49:32.000Z</time></trkpt>
<trkpt lat="41.728416" lon="23.482961"><ele>2764.9</ele><time>2026-03-15T10:49:33.000Z</time></trkpt>
<trkpt lat="41.728415" lon="23.482961"><ele>2764.9</ele><time>2026-03-15T10:49:34.000Z</time></trkpt>
<trkpt lat="41.728414" lon="23.482961"><ele>2764.9</ele><time>2026-03-15T10:49:35.000Z</time></trkpt>
<trkpt lat="41.728414" lon="23.482961"><ele>2764.9</ele><time>2026-03-15T10:49:36.000Z</time></trkpt>
<trkpt lat="41.728414" lon="23.482961"><ele>2764.9</ele><time>2026-03-15T10:49:37.000Z</time></trkpt>
<trkpt lat="41.728415" lon="23.48296"><ele>2764.9</ele><time>2026-03-15T10:49:38.000Z</time></trkpt>
<trkpt lat="41.728416" lon="23.482959"><ele>2764.9</ele><time>2026-03-15T10:49:39.000Z</time></trkpt>
<trkpt lat="41.728417" lon="23.482959"><ele>2764.9</ele><time>2026-03-15T10:49:40.000Z</time></trkpt>
<trkpt lat="41.728418" lon="23.482958"><ele>2764.9</ele><time>2026-03-15T10:49:41.000Z</time></trkpt>
<trkpt lat="41.728419" lon="23.482958"><ele>2764.9</ele><time>2026-03-15T10:49:42.000Z</time></trkpt>
<trkpt lat="41.728418" lon="23.482959"><ele>2764.9</ele><time>2026-03-15T10:49:43.000Z</time></trkpt>
<trkpt lat="41.728418" lon="23.48296"><ele>2764.9</ele><time>2026-03-15T10:49:44.000Z</time></trkpt>
<trkpt lat="41.728418" lon="23.482961"><ele>2764.9</ele><time>2026-03-15T10:49:45.000Z</time></trkpt>
<trkpt lat="41.728418" lon="23.482962"><ele>2764.9</ele><time>2026-03-15T10:49:46.000Z</time></trkpt>
<trkpt lat="41.728418" lon="23.482962"><ele>2764.9</ele><time>2026-03-15T10:49:47.000Z</time></trkpt>
<trkpt lat="41.728418" lon="23.482963"><ele>2764.9</ele><time>2026-03-15T10:49:48.000Z</time></trkpt>
<trkpt lat="41.728418" lon="23.482963"><ele>2764.9</ele><time>2026-03-15T10:49:49.000Z</time></trkpt>
<trkpt lat="41.728419" lon="23.482963"><ele>2764.9</ele><time>2026-03-15T10:49:50.000Z</time></trkpt>
<trkpt lat="41.728419" lon="23.482963"><ele>2764.9</ele><time>2026-03-15T10:49:51.000Z</time></trkpt>
<trkpt lat="41.728419" lon="23.482963"><ele>2764.9</ele><time>2026-03-15T10:49:52.000Z</time></trkpt>
<trkpt lat="41.728419" lon="23.482963"><ele>2764.9</ele><time>2026-03-15T10:49:53.000Z</time></trkpt>
<trkpt lat="41.728419" lon="23.482963"><ele>2764.9</ele><time>2026-03-15T10:49:54.000Z</time></trkpt>
<trkpt lat="41.728419" lon="23.482963"><ele>2764.9</ele><time>2026-03-15T10:49:55.000Z</time></trkpt>
<trkpt lat="41.728419" lon="23.482963"><ele>2765</ele><time>2026-03-15T10:49:56.000Z</time></trkpt>
<trkpt lat="41.728419" lon="23.482963"><ele>2765</ele><time>2026-03-15T10:49:57.000Z</time></trkpt>
<trkpt lat="41.72842" lon="23.482963"><ele>2765</ele><time>2026-03-15T10:49:58.000Z</time></trkpt>
<trkpt lat="41.72842" lon="23.482963"><ele>2765</ele><time>2026-03-15T10:49:59.000Z</time></trkpt>
<trkpt lat="41.72842" lon="23.482963"><ele>2765</ele><time>2026-03-15T10:50:00.000Z</time></trkpt>
<trkpt lat="41.72842" lon="23.482964"><ele>2765.1</ele><time>2026-03-15T10:50:01.000Z</time></trkpt>
<trkpt lat="41.72842" lon="23.482964"><ele>2765.1</ele><time>2026-03-15T10:50:02.000Z</time></trkpt>
<trkpt lat="41.72842" lon="23.482965"><ele>2765.1</ele><time>2026-03-15T10:50:03.000Z</time></trkpt>
<trkpt lat="41.728419" lon="23.482965"><ele>2765.1</ele><time>2026-03-15T10:50:04.000Z</time></trkpt>
<trkpt lat="41.728419" lon="23.482966"><ele>2765.1</ele><time>2026-03-15T10:50:05.000Z</time></trkpt>
<trkpt lat="41.728419" lon="23.482966"><ele>2765.1</ele><time>2026-03-15T10:50:06.000Z</time></trkpt>
<trkpt lat="41.728419" lon="23.482966"><ele>2765.1</ele><time>2026-03-15T10:50:07.000Z</time></trkpt>
<trkpt lat="41.728419" lon="23.482967"><ele>2765.1</ele><time>2026-03-15T10:50:08.000Z</time></trkpt>
<trkpt lat="41.728418" lon="23.482968"><ele>2765.1</ele><time>2026-03-15T10:50:09.000Z</time></trkpt>
<trkpt lat="41.728418" lon="23.482968"><ele>2765.1</ele><time>2026-03-15T10:50:10.000Z</time></trkpt>
<trkpt lat="41.728417" lon="23.482969"><ele>2765.2</ele><time>2026-03-15T10:50:11.000Z</time></trkpt>
<trkpt lat="41.728417" lon="23.48297"><ele>2765.2</ele><time>2026-03-15T10:50:12.000Z</time></trkpt>
<trkpt lat="41.728416" lon="23.48297"><ele>2765.2</ele><time>2026-03-15T10:50:13.000Z</time></trkpt>
<trkpt lat="41.728416" lon="23.48297"><ele>2765.2</ele><time>2026-03-15T10:50:14.000Z</time></trkpt>
<trkpt lat="41.728416" lon="23.48297"><ele>2765.2</ele><time>2026-03-15T10:50:15.000Z</time></trkpt>
<trkpt lat="41.728416" lon="23.48297"><ele>2765.4</ele><time>2026-03-15T10:50:16.000Z</time></trkpt>
<trkpt lat="41.728416" lon="23.48297"><ele>2765.4</ele><time>2026-03-15T10:50:17.000Z</time></trkpt>
<trkpt lat="41.728416" lon="23.48297"><ele>2765.4</ele><time>2026-03-15T10:50:18.000Z</time></trkpt>
<trkpt lat="41.728416" lon="23.48297"><ele>2765.4</ele><time>2026-03-15T10:50:19.000Z</time></trkpt>
<trkpt lat="41.728416" lon="23.48297"><ele>2765.4</ele><time>2026-03-15T10:50:20.000Z</time></trkpt>
<trkpt lat="41.728416" lon="23.48297"><ele>2765.6</ele><time>2026-03-15T10:50:21.000Z</time></trkpt>
<trkpt lat="41.728416" lon="23.48297"><ele>2765.6</ele><time>2026-03-15T10:50:22.000Z</time></trkpt>
<trkpt lat="41.728416" lon="23.48297"><ele>2765.6</ele><time>2026-03-15T10:50:23.000Z</time></trkpt>
<trkpt lat="41.728416" lon="23.48297"><ele>2765.6</ele><time>2026-03-15T10:50:24.000Z</time></trkpt>
<trkpt lat="41.728416" lon="23.48297"><ele>2765.6</ele><time>2026-03-15T10:50:25.000Z</time></trkpt>
<trkpt lat="41.728415" lon="23.48297"><ele>2765.6</ele><time>2026-03-15T10:50:26.000Z</time></trkpt>
<trkpt lat="41.728415" lon="23.48297"><ele>2765.6</ele><time>2026-03-15T10:50:27.000Z</time></trkpt>
<trkpt lat="41.728415" lon="23.48297"><ele>2765.6</ele><time>2026-03-15T10:50:28.000Z</time></trkpt>
<trkpt lat="41.728415" lon="23.48297"><ele>2765.6</ele><time>2026-03-15T10:50:29.000Z</time></trkpt>
<trkpt lat="41.728415" lon="23.48297"><ele>2765.6</ele><time>2026-03-15T10:50:30.000Z</time></trkpt>
<trkpt lat="41.728415" lon="23.48297"><ele>2765.7</ele><time>2026-03-15T10:50:31.000Z</time></trkpt>
<trkpt lat="41.728414" lon="23.482969"><ele>2765.7</ele><time>2026-03-15T10:50:32.000Z</time></trkpt>
<trkpt lat="41.728414" lon="23.482969"><ele>2765.7</ele><time>2026-03-15T10:50:33.000Z</time></trkpt>
<trkpt lat="41.728414" lon="23.482969"><ele>2765.7</ele><time>2026-03-15T10:50:34.000Z</time></trkpt>
<trkpt lat="41.728413" lon="23.482969"><ele>2765.7</ele><time>2026-03-15T10:50:35.000Z</time></trkpt>
<trkpt lat="41.728413" lon="23.482968"><ele>2765.6</ele><time>2026-03-15T10:50:36.000Z</time></trkpt>
<trkpt lat="41.728412" lon="23.482968"><ele>2765.6</ele><time>2026-03-15T10:50:37.000Z</time></trkpt>
<trkpt lat="41.728412" lon="23.482968"><ele>2765.6</ele><time>2026-03-15T10:50:38.000Z</time></trkpt>
<trkpt lat="41.728411" lon="23.482968"><ele>2765.6</ele><time>2026-03-15T10:50:39.000Z</time></trkpt>
<trkpt lat="41.728411" lon="23.482969"><ele>2765.6</ele><time>2026-03-15T10:50:40.000Z</time></trkpt>
<trkpt lat="41.728411" lon="23.482969"><ele>2765.5</ele><time>2026-03-15T10:50:41.000Z</time></trkpt>
<trkpt lat="41.728411" lon="23.482969"><ele>2765.5</ele><time>2026-03-15T10:50:42.000Z</time></trkpt>
<trkpt lat="41.728411" lon="23.482969"><ele>2765.5</ele><time>2026-03-15T10:50:43.000Z</time></trkpt>
<trkpt lat="41.728411" lon="23.48297"><ele>2765.5</ele><time>2026-03-15T10:50:44.000Z</time></trkpt>
<trkpt lat="41.728411" lon="23.482971"><ele>2765.5</ele><time>2026-03-15T10:50:45.000Z</time></trkpt>
<trkpt lat="41.728411" lon="23.482972"><ele>2765.4</ele><time>2026-03-15T10:50:46.000Z</time></trkpt>
<trkpt lat="41.728411" lon="23.482973"><ele>2765.4</ele><time>2026-03-15T10:50:47.000Z</time></trkpt>
<trkpt lat="41.728411" lon="23.482974"><ele>2765.4</ele><time>2026-03-15T10:50:48.000Z</time></trkpt>
<trkpt lat="41.728411" lon="23.482975"><ele>2765.4</ele><time>2026-03-15T10:50:49.000Z</time></trkpt>
<trkpt lat="41.728411" lon="23.482975"><ele>2765.4</ele><time>2026-03-15T10:50:50.000Z</time></trkpt>
<trkpt lat="41.728411" lon="23.482975"><ele>2765.4</ele><time>2026-03-15T10:50:51.000Z</time></trkpt>
<trkpt lat="41.728411" lon="23.482975"><ele>2765.4</ele><time>2026-03-15T10:50:52.000Z</time></trkpt>
<trkpt lat="41.728411" lon="23.482975"><ele>2765.4</ele><time>2026-03-15T10:50:53.000Z</time></trkpt>
<trkpt lat="41.728411" lon="23.482975"><ele>2765.4</ele><time>2026-03-15T10:50:54.000Z</time></trkpt>
<trkpt lat="41.728411" lon="23.482975"><ele>2765.4</ele><time>2026-03-15T10:50:55.000Z</time></trkpt>
<trkpt lat="41.728411" lon="23.482975"><ele>2765.4</ele><time>2026-03-15T10:50:56.000Z</time></trkpt>
<trkpt lat="41.728411" lon="23.482975"><ele>2765.4</ele><time>2026-03-15T10:50:57.000Z</time></trkpt>
<trkpt lat="41.728411" lon="23.482975"><ele>2765.4</ele><time>2026-03-15T10:50:58.000Z</time></trkpt>
<trkpt lat="41.728411" lon="23.482976"><ele>2765.4</ele><time>2026-03-15T10:50:59.000Z</time></trkpt>
<trkpt lat="41.728411" lon="23.482975"><ele>2765.4</ele><time>2026-03-15T10:51:00.000Z</time></trkpt>
<trkpt lat="41.728412" lon="23.482975"><ele>2765.4</ele><time>2026-03-15T10:51:01.000Z</time></trkpt>
<trkpt lat="41.728413" lon="23.482974"><ele>2765.4</ele><time>2026-03-15T10:51:02.000Z</time></trkpt>
<trkpt lat="41.728413" lon="23.482973"><ele>2765.4</ele><time>2026-03-15T10:51:03.000Z</time></trkpt>
<trkpt lat="41.728414" lon="23.482972"><ele>2765.4</ele><time>2026-03-15T10:51:04.000Z</time></trkpt>
<trkpt lat="41.728414" lon="23.482972"><ele>2765.4</ele><time>2026-03-15T10:51:05.000Z</time></trkpt>
<trkpt lat="41.728415" lon="23.482972"><ele>2765.2</ele><time>2026-03-15T10:51:06.000Z</time></trkpt>
<trkpt lat="41.728415" lon="23.482972"><ele>2765.2</ele><time>2026-03-15T10:51:07.000Z</time></trkpt>
<trkpt lat="41.728415" lon="23.482972"><ele>2765.2</ele><time>2026-03-15T10:51:08.000Z</time></trkpt>
<trkpt lat="41.728415" lon="23.482973"><ele>2765.2</ele><time>2026-03-15T10:51:09.000Z</time></trkpt>
<trkpt lat="41.728416" lon="23.482973"><ele>2765.2</ele><time>2026-03-15T10:51:10.000Z</time></trkpt>
<trkpt lat="41.728416" lon="23.482973"><ele>2765.1</ele><time>2026-03-15T10:51:11.000Z</time></trkpt>
<trkpt lat="41.728416" lon="23.482974"><ele>2765.1</ele><time>2026-03-15T10:51:12.000Z</time></trkpt>
<trkpt lat="41.728416" lon="23.482974"><ele>2765.1</ele><time>2026-03-15T10:51:13.000Z</time></trkpt>
<trkpt lat="41.728416" lon="23.482974"><ele>2765.1</ele><time>2026-03-15T10:51:14.000Z</time></trkpt>
<trkpt lat="41.728416" lon="23.482975"><ele>2765.1</ele><time>2026-03-15T10:51:15.000Z</time></trkpt>
<trkpt lat="41.728416" lon="23.482975"><ele>2765.2</ele><time>2026-03-15T10:51:16.000Z</time></trkpt>
<trkpt lat="41.728416" lon="23.482975"><ele>2765.2</ele><time>2026-03-15T10:51:17.000Z</time></trkpt>
<trkpt lat="41.728416" lon="23.482975"><ele>2765.2</ele><time>2026-03-15T10:51:18.000Z</time></trkpt>
<trkpt lat="41.728416" lon="23.482976"><ele>2765.2</ele><time>2026-03-15T10:51:19.000Z</time></trkpt>
<trkpt lat="41.728416" lon="23.482976"><ele>2765.2</ele><time>2026-03-15T10:51:20.000Z</time></trkpt>
<trkpt lat="41.728416" lon="23.482976"><ele>2765.4</ele><time>2026-03-15T10:51:21.000Z</time></trkpt>
<trkpt lat="41.728416" lon="23.482975"><ele>2765.4</ele><time>2026-03-15T10:51:22.000Z</time></trkpt>
<trkpt lat="41.728416" lon="23.482975"><ele>2765.4</ele><time>2026-03-15T10:51:23.000Z</time></trkpt>
<trkpt lat="41.728416" lon="23.482975"><ele>2765.4</ele><time>2026-03-15T10:51:24.000Z</time></trkpt>
<trkpt lat="41.728416" lon="23.482975"><ele>2765.4</ele><time>2026-03-15T10:51:25.000Z</time></trkpt>
<trkpt lat="41.728415" lon="23.482974"><ele>2765.5</ele><time>2026-03-15T10:51:26.000Z</time></trkpt>
<trkpt lat="41.728415" lon="23.482974"><ele>2765.5</ele><time>2026-03-15T10:51:27.000Z</time></trkpt>
<trkpt lat="41.728415" lon="23.482973"><ele>2765.5</ele><time>2026-03-15T10:51:28.000Z</time></trkpt>
<trkpt lat="41.728415" lon="23.482972"><ele>2765.5</ele><time>2026-03-15T10:51:29.000Z</time></trkpt>
<trkpt lat="41.728414" lon="23.482972"><ele>2765.5</ele><time>2026-03-15T10:51:30.000Z</time></trkpt>
<trkpt lat="41.728414" lon="23.482971"><ele>2765.6</ele><time>2026-03-15T10:51:31.000Z</time></trkpt>
<trkpt lat="41.728414" lon="23.482971"><ele>2765.6</ele><time>2026-03-15T10:51:32.000Z</time></trkpt>
<trkpt lat="41.728414" lon="23.482971"><ele>2765.6</ele><time>2026-03-15T10:51:33.000Z</time></trkpt>
<trkpt lat="41.728414" lon="23.482971"><ele>2765.6</ele><time>2026-03-15T10:51:34.000Z</time></trkpt>
<trkpt lat="41.728414" lon="23.482971"><ele>2765.6</ele><time>2026-03-15T10:51:35.000Z</time></trkpt>
<trkpt lat="41.728414" lon="23.482971"><ele>2765.6</ele><time>2026-03-15T10:51:36.000Z</time></trkpt>
<trkpt lat="41.728414" lon="23.482971"><ele>2765.6</ele><time>2026-03-15T10:51:37.000Z</time></trkpt>
<trkpt lat="41.728414" lon="23.482971"><ele>2765.6</ele><time>2026-03-15T10:51:38.000Z</time></trkpt>
<trkpt lat="41.728414" lon="23.482971"><ele>2765.6</ele><time>2026-03-15T10:51:39.000Z</time></trkpt>
<trkpt lat="41.728414" lon="23.482971"><ele>2765.6</ele><time>2026-03-15T10:51:40.000Z</time></trkpt>
<trkpt lat="41.728415" lon="23.482971"><ele>2765.6</ele><time>2026-03-15T10:51:41.000Z</time></trkpt>
<trkpt lat="41.728415" lon="23.482971"><ele>2765.6</ele><time>2026-03-15T10:51:42.000Z</time></trkpt>
<trkpt lat="41.728415" lon="23.482971"><ele>2765.6</ele><time>2026-03-15T10:51:43.000Z</time></trkpt>
<trkpt lat="41.728415" lon="23.482971"><ele>2765.6</ele><time>2026-03-15T10:51:44.000Z</time></trkpt>
<trkpt lat="41.728415" lon="23.482971"><ele>2765.6</ele><time>2026-03-15T10:51:45.000Z</time></trkpt>
<trkpt lat="41.728415" lon="23.482971"><ele>2765.7</ele><time>2026-03-15T10:51:46.000Z</time></trkpt>
<trkpt lat="41.728415" lon="23.482971"><ele>2765.7</ele><time>2026-03-15T10:51:47.000Z</time></trkpt>
<trkpt lat="41.728415" lon="23.482971"><ele>2765.7</ele><time>2026-03-15T10:51:48.000Z</time></trkpt>
<trkpt lat="41.728415" lon="23.482971"><ele>2765.7</ele><time>2026-03-15T10:51:49.000Z</time></trkpt>
<trkpt lat="41.728415" lon="23.482971"><ele>2765.7</ele><time>2026-03-15T10:51:50.000Z</time></trkpt>
<trkpt lat="41.728415" lon="23.482971"><ele>2765.9</ele><time>2026-03-15T10:51:51.000Z</time></trkpt>
<trkpt lat="41.728415" lon="23.482971"><ele>2765.9</ele><time>2026-03-15T10:51:52.000Z</time></trkpt>
<trkpt lat="41.728415" lon="23.482971"><ele>2765.9</ele><time>2026-03-15T10:51:53.000Z</time></trkpt>
<trkpt lat="41.728415" lon="23.482971"><ele>2765.9</ele><time>2026-03-15T10:51:54.000Z</time></trkpt>
<trkpt lat="41.728415" lon="23.482971"><ele>2765.9</ele><time>2026-03-15T10:51:55.000Z</time></trkpt>
<trkpt lat="41.728415" lon="23.482971"><ele>2766</ele><time>2026-03-15T10:51:56.000Z</time></trkpt>
<trkpt lat="41.728415" lon="23.482971"><ele>2766</ele><time>2026-03-15T10:51:57.000Z</time></trkpt>
<trkpt lat="41.728415" lon="23.482971"><ele>2766</ele><time>2026-03-15T10:51:58.000Z</time></trkpt>
<trkpt lat="41.728415" lon="23.482971"><ele>2766</ele><time>2026-03-15T10:51:59.000Z</time></trkpt>
<trkpt lat="41.728415" lon="23.482971"><ele>2766</ele><time>2026-03-15T10:52:00.000Z</time></trkpt>
<trkpt lat="41.728416" lon="23.482971"><ele>2766</ele><time>2026-03-15T10:52:01.000Z</time></trkpt>
<trkpt lat="41.728416" lon="23.482971"><ele>2766</ele><time>2026-03-15T10:52:02.000Z</time></trkpt>
<trkpt lat="41.728416" lon="23.48297"><ele>2766</ele><time>2026-03-15T10:52:03.000Z</time></trkpt>
<trkpt lat="41.728416" lon="23.48297"><ele>2766</ele><time>2026-03-15T10:52:04.000Z</time></trkpt>
<trkpt lat="41.728416" lon="23.48297"><ele>2766</ele><time>2026-03-15T10:52:05.000Z</time></trkpt>
<trkpt lat="41.728416" lon="23.482971"><ele>2766</ele><time>2026-03-15T10:52:06.000Z</time></trkpt>
<trkpt lat="41.728415" lon="23.482971"><ele>2766</ele><time>2026-03-15T10:52:07.000Z</time></trkpt>
<trkpt lat="41.728415" lon="23.482971"><ele>2766</ele><time>2026-03-15T10:52:08.000Z</time></trkpt>
<trkpt lat="41.728414" lon="23.482971"><ele>2766</ele><time>2026-03-15T10:52:09.000Z</time></trkpt>
<trkpt lat="41.728415" lon="23.48297"><ele>2766</ele><time>2026-03-15T10:52:10.000Z</time></trkpt>
<trkpt lat="41.728415" lon="23.48297"><ele>2765.9</ele><time>2026-03-15T10:52:11.000Z</time></trkpt>
<trkpt lat="41.728415" lon="23.48297"><ele>2765.9</ele><time>2026-03-15T10:52:12.000Z</time></trkpt>
<trkpt lat="41.728415" lon="23.482969"><ele>2765.9</ele><time>2026-03-15T10:52:13.000Z</time></trkpt>
<trkpt lat="41.728415" lon="23.482969"><ele>2765.9</ele><time>2026-03-15T10:52:14.000Z</time></trkpt>
<trkpt lat="41.728415" lon="23.482969"><ele>2765.9</ele><time>2026-03-15T10:52:15.000Z</time></trkpt>
<trkpt lat="41.728415" lon="23.482969"><ele>2765.8</ele><time>2026-03-15T10:52:16.000Z</time></trkpt>
<trkpt lat="41.728415" lon="23.482969"><ele>2765.8</ele><time>2026-03-15T10:52:17.000Z</time></trkpt>
<trkpt lat="41.728415" lon="23.482969"><ele>2765.8</ele><time>2026-03-15T10:52:18.000Z</time></trkpt>
<trkpt lat="41.728415" lon="23.482969"><ele>2765.8</ele><time>2026-03-15T10:52:19.000Z</time></trkpt>
<trkpt lat="41.728415" lon="23.482969"><ele>2765.8</ele><time>2026-03-15T10:52:20.000Z</time></trkpt>
<trkpt lat="41.728415" lon="23.482969"><ele>2765.8</ele><time>2026-03-15T10:52:21.000Z</time></trkpt>
<trkpt lat="41.728415" lon="23.482969"><ele>2765.8</ele><time>2026-03-15T10:52:22.000Z</time></trkpt>
<trkpt lat="41.728415" lon="23.482969"><ele>2765.8</ele><time>2026-03-15T10:52:23.000Z</time></trkpt>
<trkpt lat="41.728415" lon="23.482969"><ele>2765.8</ele><time>2026-03-15T10:52:24.000Z</time></trkpt>
<trkpt lat="41.728415" lon="23.482969"><ele>2765.8</ele><time>2026-03-15T10:52:25.000Z</time></trkpt>
<trkpt lat="41.728415" lon="23.482969"><ele>2765.9</ele><time>2026-03-15T10:52:26.000Z</time></trkpt>
<trkpt lat="41.728415" lon="23.482969"><ele>2765.9</ele><time>2026-03-15T10:52:27.000Z</time></trkpt>
<trkpt lat="41.728415" lon="23.482969"><ele>2765.9</ele><time>2026-03-15T10:52:28.000Z</time></trkpt>
<trkpt lat="41.728415" lon="23.48297"><ele>2765.9</ele><time>2026-03-15T10:52:29.000Z</time></trkpt>
<trkpt lat="41.728415" lon="23.48297"><ele>2765.9</ele><time>2026-03-15T10:52:30.000Z</time></trkpt>
<trkpt lat="41.728415" lon="23.48297"><ele>2765.9</ele><time>2026-03-15T10:52:31.000Z</time></trkpt>
<trkpt lat="41.728415" lon="23.48297"><ele>2765.9</ele><time>2026-03-15T10:52:32.000Z</time></trkpt>
<trkpt lat="41.728415" lon="23.48297"><ele>2765.9</ele><time>2026-03-15T10:52:33.000Z</time></trkpt>
<trkpt lat="41.728415" lon="23.48297"><ele>2765.9</ele><time>2026-03-15T10:52:34.000Z</time></trkpt>
<trkpt lat="41.728415" lon="23.48297"><ele>2765.9</ele><time>2026-03-15T10:52:35.000Z</time></trkpt>
<trkpt lat="41.728415" lon="23.48297"><ele>2765.8</ele><time>2026-03-15T10:52:36.000Z</time></trkpt>
<trkpt lat="41.728415" lon="23.48297"><ele>2765.8</ele><time>2026-03-15T10:52:37.000Z</time></trkpt>
<trkpt lat="41.728415" lon="23.48297"><ele>2765.8</ele><time>2026-03-15T10:52:38.000Z</time></trkpt>
<trkpt lat="41.728415" lon="23.482969"><ele>2765.8</ele><time>2026-03-15T10:52:39.000Z</time></trkpt>
<trkpt lat="41.728414" lon="23.482969"><ele>2765.8</ele><time>2026-03-15T10:52:40.000Z</time></trkpt>
<trkpt lat="41.728414" lon="23.482969"><ele>2765.7</ele><time>2026-03-15T10:52:41.000Z</time></trkpt>
<trkpt lat="41.728414" lon="23.482969"><ele>2765.7</ele><time>2026-03-15T10:52:42.000Z</time></trkpt>
<trkpt lat="41.728414" lon="23.482969"><ele>2765.7</ele><time>2026-03-15T10:52:43.000Z</time></trkpt>
<trkpt lat="41.728414" lon="23.48297"><ele>2765.7</ele><time>2026-03-15T10:52:44.000Z</time></trkpt>
<trkpt lat="41.728414" lon="23.48297"><ele>2765.7</ele><time>2026-03-15T10:52:45.000Z</time></trkpt>
<trkpt lat="41.728414" lon="23.48297"><ele>2765.7</ele><time>2026-03-15T10:52:46.000Z</time></trkpt>
<trkpt lat="41.728414" lon="23.48297"><ele>2765.7</ele><time>2026-03-15T10:52:47.000Z</time></trkpt>
<trkpt lat="41.728414" lon="23.48297"><ele>2765.7</ele><time>2026-03-15T10:52:48.000Z</time></trkpt>
<trkpt lat="41.728414" lon="23.482969"><ele>2765.7</ele><time>2026-03-15T10:52:49.000Z</time></trkpt>
<trkpt lat="41.728414" lon="23.482969"><ele>2765.7</ele><time>2026-03-15T10:52:50.000Z</time></trkpt>
<trkpt lat="41.728415" lon="23.482969"><ele>2765.9</ele><time>2026-03-15T10:52:51.000Z</time></trkpt>
<trkpt lat="41.728415" lon="23.482969"><ele>2765.9</ele><time>2026-03-15T10:52:52.000Z</time></trkpt>
<trkpt lat="41.728415" lon="23.48297"><ele>2765.9</ele><time>2026-03-15T10:52:53.000Z</time></trkpt>
<trkpt lat="41.728415" lon="23.48297"><ele>2765.9</ele><time>2026-03-15T10:52:54.000Z</time></trkpt>
<trkpt lat="41.728415" lon="23.482971"><ele>2765.9</ele><time>2026-03-15T10:52:55.000Z</time></trkpt>
<trkpt lat="41.728415" lon="23.482971"><ele>2766</ele><time>2026-03-15T10:52:56.000Z</time></trkpt>
<trkpt lat="41.728415" lon="23.482971"><ele>2766</ele><time>2026-03-15T10:52:57.000Z</time></trkpt>
<trkpt lat="41.728414" lon="23.482971"><ele>2766</ele><time>2026-03-15T10:52:58.000Z</time></trkpt>
<trkpt lat="41.728414" lon="23.482972"><ele>2766</ele><time>2026-03-15T10:52:59.000Z</time></trkpt>
<trkpt lat="41.728414" lon="23.482971"><ele>2766</ele><time>2026-03-15T10:53:00.000Z</time></trkpt>
<trkpt lat="41.728414" lon="23.482971"><ele>2766</ele><time>2026-03-15T10:53:01.000Z</time></trkpt>
<trkpt lat="41.728414" lon="23.482972"><ele>2766</ele><time>2026-03-15T10:53:02.000Z</time></trkpt>
<trkpt lat="41.728414" lon="23.482972"><ele>2766</ele><time>2026-03-15T10:53:03.000Z</time></trkpt>
<trkpt lat="41.728414" lon="23.482972"><ele>2766</ele><time>2026-03-15T10:53:04.000Z</time></trkpt>
<trkpt lat="41.728414" lon="23.482972"><ele>2766</ele><time>2026-03-15T10:53:05.000Z</time></trkpt>
<trkpt lat="41.728414" lon="23.482972"><ele>2766</ele><time>2026-03-15T10:53:06.000Z</time></trkpt>
<trkpt lat="41.728414" lon="23.482972"><ele>2766</ele><time>2026-03-15T10:53:07.000Z</time></trkpt>
<trkpt lat="41.728414" lon="23.482972"><ele>2766</ele><time>2026-03-15T10:53:08.000Z</time></trkpt>
<trkpt lat="41.728414" lon="23.482972"><ele>2766</ele><time>2026-03-15T10:53:09.000Z</time></trkpt>
<trkpt lat="41.728414" lon="23.482972"><ele>2766</ele><time>2026-03-15T10:53:10.000Z</time></trkpt>
<trkpt lat="41.728414" lon="23.482972"><ele>2766.1</ele><time>2026-03-15T10:53:11.000Z</time></trkpt>
<trkpt lat="41.728414" lon="23.482972"><ele>2766.1</ele><time>2026-03-15T10:53:12.000Z</time></trkpt>
<trkpt lat="41.728414" lon="23.482972"><ele>2766.1</ele><time>2026-03-15T10:53:13.000Z</time></trkpt>
<trkpt lat="41.728414" lon="23.482972"><ele>2766.1</ele><time>2026-03-15T10:53:14.000Z</time></trkpt>
<trkpt lat="41.728414" lon="23.482972"><ele>2766.1</ele><time>2026-03-15T10:53:15.000Z</time></trkpt>
<trkpt lat="41.728414" lon="23.482972"><ele>2766.2</ele><time>2026-03-15T10:53:16.000Z</time></trkpt>
<trkpt lat="41.728414" lon="23.482973"><ele>2766.2</ele><time>2026-03-15T10:53:17.000Z</time></trkpt>
<trkpt lat="41.728414" lon="23.482973"><ele>2766.2</ele><time>2026-03-15T10:53:18.000Z</time></trkpt>
<trkpt lat="41.728414" lon="23.482974"><ele>2766.2</ele><time>2026-03-15T10:53:19.000Z</time></trkpt>
<trkpt lat="41.728414" lon="23.482975"><ele>2766.2</ele><time>2026-03-15T10:53:20.000Z</time></trkpt>
<trkpt lat="41.728415" lon="23.482975"><ele>2766</ele><time>2026-03-15T10:53:21.000Z</time></trkpt>
<trkpt lat="41.728415" lon="23.482976"><ele>2766</ele><time>2026-03-15T10:53:22.000Z</time></trkpt>
<trkpt lat="41.728416" lon="23.482977"><ele>2766</ele><time>2026-03-15T10:53:23.000Z</time></trkpt>
<trkpt lat="41.728416" lon="23.482977"><ele>2766</ele><time>2026-03-15T10:53:24.000Z</time></trkpt>
<trkpt lat="41.728417" lon="23.482978"><ele>2766</ele><time>2026-03-15T10:53:25.000Z</time></trkpt>
<trkpt lat="41.728417" lon="23.482978"><ele>2765.9</ele><time>2026-03-15T10:53:26.000Z</time></trkpt>
<trkpt lat="41.728417" lon="23.482977"><ele>2765.9</ele><time>2026-03-15T10:53:27.000Z</time></trkpt>
<trkpt lat="41.728417" lon="23.482977"><ele>2765.9</ele><time>2026-03-15T10:53:28.000Z</time></trkpt>
<trkpt lat="41.728417" lon="23.482977"><ele>2765.9</ele><time>2026-03-15T10:53:29.000Z</time></trkpt>
<trkpt lat="41.728417" lon="23.482977"><ele>2765.9</ele><time>2026-03-15T10:53:30.000Z</time></trkpt>
<trkpt lat="41.728417" lon="23.482977"><ele>2765.8</ele><time>2026-03-15T10:53:31.000Z</time></trkpt>
<trkpt lat="41.728417" lon="23.482977"><ele>2765.8</ele><time>2026-03-15T10:53:32.000Z</time></trkpt>
<trkpt lat="41.728417" lon="23.482978"><ele>2765.8</ele><time>2026-03-15T10:53:33.000Z</time></trkpt>
<trkpt lat="41.728418" lon="23.482979"><ele>2765.8</ele><time>2026-03-15T10:53:34.000Z</time></trkpt>
<trkpt lat="41.728418" lon="23.48298"><ele>2765.8</ele><time>2026-03-15T10:53:35.000Z</time></trkpt>
<trkpt lat="41.728419" lon="23.482981"><ele>2765.9</ele><time>2026-03-15T10:53:36.000Z</time></trkpt>
<trkpt lat="41.728419" lon="23.482982"><ele>2765.9</ele><time>2026-03-15T10:53:37.000Z</time></trkpt>
<trkpt lat="41.728419" lon="23.482982"><ele>2765.9</ele><time>2026-03-15T10:53:38.000Z</time></trkpt>
<trkpt lat="41.728419" lon="23.482983"><ele>2765.9</ele><time>2026-03-15T10:53:39.000Z</time></trkpt>
<trkpt lat="41.728418" lon="23.482983"><ele>2765.9</ele><time>2026-03-15T10:53:40.000Z</time></trkpt>
<trkpt lat="41.728417" lon="23.482984"><ele>2765.9</ele><time>2026-03-15T10:53:41.000Z</time></trkpt>
<trkpt lat="41.728416" lon="23.482984"><ele>2765.9</ele><time>2026-03-15T10:53:42.000Z</time></trkpt>
<trkpt lat="41.728416" lon="23.482984"><ele>2765.9</ele><time>2026-03-15T10:53:43.000Z</time></trkpt>
<trkpt lat="41.728415" lon="23.482984"><ele>2765.9</ele><time>2026-03-15T10:53:44.000Z</time></trkpt>
<trkpt lat="41.728416" lon="23.482983"><ele>2765.9</ele><time>2026-03-15T10:53:45.000Z</time></trkpt>
<trkpt lat="41.728416" lon="23.482981"><ele>2765.9</ele><time>2026-03-15T10:53:46.000Z</time></trkpt>
<trkpt lat="41.728417" lon="23.482979"><ele>2765.9</ele><time>2026-03-15T10:53:47.000Z</time></trkpt>
<trkpt lat="41.728418" lon="23.482978"><ele>2765.9</ele><time>2026-03-15T10:53:48.000Z</time></trkpt>
<trkpt lat="41.728419" lon="23.482978"><ele>2765.9</ele><time>2026-03-15T10:53:49.000Z</time></trkpt>
<trkpt lat="41.728419" lon="23.482977"><ele>2765.9</ele><time>2026-03-15T10:53:50.000Z</time></trkpt>
<trkpt lat="41.728419" lon="23.482977"><ele>2765.9</ele><time>2026-03-15T10:53:51.000Z</time></trkpt>
<trkpt lat="41.728418" lon="23.482977"><ele>2765.9</ele><time>2026-03-15T10:53:52.000Z</time></trkpt>
<trkpt lat="41.728418" lon="23.482977"><ele>2765.9</ele><time>2026-03-15T10:53:53.000Z</time></trkpt>
<trkpt lat="41.728418" lon="23.482976"><ele>2765.9</ele><time>2026-03-15T10:53:54.000Z</time></trkpt>
<trkpt lat="41.728417" lon="23.482976"><ele>2765.9</ele><time>2026-03-15T10:53:55.000Z</time></trkpt>
<trkpt lat="41.728417" lon="23.482976"><ele>2765.9</ele><time>2026-03-15T10:53:56.000Z</time></trkpt>
<trkpt lat="41.728417" lon="23.482976"><ele>2765.9</ele><time>2026-03-15T10:53:57.000Z</time></trkpt>
<trkpt lat="41.728417" lon="23.482976"><ele>2765.9</ele><time>2026-03-15T10:53:58.000Z</time></trkpt>
<trkpt lat="41.728417" lon="23.482975"><ele>2765.9</ele><time>2026-03-15T10:53:59.000Z</time></trkpt>
<trkpt lat="41.728418" lon="23.482975"><ele>2765.9</ele><time>2026-03-15T10:54:00.000Z</time></trkpt>
<trkpt lat="41.728418" lon="23.482974"><ele>2766</ele><time>2026-03-15T10:54:01.000Z</time></trkpt>
<trkpt lat="41.728418" lon="23.482974"><ele>2766</ele><time>2026-03-15T10:54:02.000Z</time></trkpt>
<trkpt lat="41.728419" lon="23.482973"><ele>2766</ele><time>2026-03-15T10:54:03.000Z</time></trkpt>
<trkpt lat="41.728419" lon="23.482973"><ele>2766</ele><time>2026-03-15T10:54:04.000Z</time></trkpt>
<trkpt lat="41.728419" lon="23.482973"><ele>2766</ele><time>2026-03-15T10:54:05.000Z</time></trkpt>
<trkpt lat="41.728419" lon="23.482973"><ele>2766.2</ele><time>2026-03-15T10:54:06.000Z</time></trkpt>
<trkpt lat="41.728419" lon="23.482973"><ele>2766.2</ele><time>2026-03-15T10:54:07.000Z</time></trkpt>
<trkpt lat="41.728419" lon="23.482973"><ele>2766.2</ele><time>2026-03-15T10:54:08.000Z</time></trkpt>
<trkpt lat="41.728419" lon="23.482973"><ele>2766.2</ele><time>2026-03-15T10:54:09.000Z</time></trkpt>
<trkpt lat="41.728419" lon="23.482973"><ele>2766.2</ele><time>2026-03-15T10:54:10.000Z</time></trkpt>
<trkpt lat="41.728419" lon="23.482973"><ele>2766.2</ele><time>2026-03-15T10:54:11.000Z</time></trkpt>
<trkpt lat="41.728419" lon="23.482973"><ele>2766.2</ele><time>2026-03-15T10:54:12.000Z</time></trkpt>
<trkpt lat="41.728419" lon="23.482973"><ele>2766.2</ele><time>2026-03-15T10:54:13.000Z</time></trkpt>
<trkpt lat="41.728419" lon="23.482973"><ele>2766.2</ele><time>2026-03-15T10:54:14.000Z</time></trkpt>
<trkpt lat="41.728419" lon="23.482973"><ele>2766.2</ele><time>2026-03-15T10:54:15.000Z</time></trkpt>
<trkpt lat="41.728419" lon="23.482973"><ele>2766.3</ele><time>2026-03-15T10:54:16.000Z</time></trkpt>
<trkpt lat="41.728419" lon="23.482973"><ele>2766.3</ele><time>2026-03-15T10:54:17.000Z</time></trkpt>
<trkpt lat="41.728419" lon="23.482973"><ele>2766.3</ele><time>2026-03-15T10:54:18.000Z</time></trkpt>
<trkpt lat="41.728419" lon="23.482973"><ele>2766.3</ele><time>2026-03-15T10:54:19.000Z</time></trkpt>
<trkpt lat="41.728419" lon="23.482973"><ele>2766.3</ele><time>2026-03-15T10:54:20.000Z</time></trkpt>
<trkpt lat="41.728419" lon="23.482973"><ele>2766.3</ele><time>2026-03-15T10:54:21.000Z</time></trkpt>
<trkpt lat="41.728418" lon="23.482972"><ele>2766.3</ele><time>2026-03-15T10:54:22.000Z</time></trkpt>
<trkpt lat="41.728418" lon="23.482971"><ele>2766.3</ele><time>2026-03-15T10:54:23.000Z</time></trkpt>
<trkpt lat="41.728418" lon="23.48297"><ele>2766.3</ele><time>2026-03-15T10:54:24.000Z</time></trkpt>
<trkpt lat="41.728417" lon="23.482968"><ele>2766.3</ele><time>2026-03-15T10:54:25.000Z</time></trkpt>
<trkpt lat="41.728416" lon="23.482967"><ele>2766.3</ele><time>2026-03-15T10:54:26.000Z</time></trkpt>
<trkpt lat="41.728416" lon="23.482966"><ele>2766.3</ele><time>2026-03-15T10:54:27.000Z</time></trkpt>
<trkpt lat="41.728415" lon="23.482965"><ele>2766.3</ele><time>2026-03-15T10:54:28.000Z</time></trkpt>
<trkpt lat="41.728415" lon="23.482965"><ele>2766.3</ele><time>2026-03-15T10:54:29.000Z</time></trkpt>
<trkpt lat="41.728415" lon="23.482965"><ele>2766.3</ele><time>2026-03-15T10:54:30.000Z</time></trkpt>
<trkpt lat="41.728415" lon="23.482965"><ele>2766.1</ele><time>2026-03-15T10:54:31.000Z</time></trkpt>
<trkpt lat="41.728415" lon="23.482965"><ele>2766.1</ele><time>2026-03-15T10:54:32.000Z</time></trkpt>
<trkpt lat="41.728415" lon="23.482966"><ele>2766.1</ele><time>2026-03-15T10:54:33.000Z</time></trkpt>
<trkpt lat="41.728415" lon="23.482966"><ele>2766.1</ele><time>2026-03-15T10:54:34.000Z</time></trkpt>
<trkpt lat="41.728416" lon="23.482967"><ele>2766.1</ele><time>2026-03-15T10:54:35.000Z</time></trkpt>
<trkpt lat="41.728416" lon="23.482968"><ele>2765.9</ele><time>2026-03-15T10:54:36.000Z</time></trkpt>
<trkpt lat="41.728416" lon="23.482968"><ele>2765.9</ele><time>2026-03-15T10:54:37.000Z</time></trkpt>
<trkpt lat="41.728417" lon="23.482969"><ele>2765.9</ele><time>2026-03-15T10:54:38.000Z</time></trkpt>
<trkpt lat="41.728417" lon="23.482969"><ele>2765.9</ele><time>2026-03-15T10:54:39.000Z</time></trkpt>
<trkpt lat="41.728417" lon="23.482969"><ele>2765.9</ele><time>2026-03-15T10:54:40.000Z</time></trkpt>
<trkpt lat="41.728417" lon="23.482968"><ele>2765.8</ele><time>2026-03-15T10:54:41.000Z</time></trkpt>
<trkpt lat="41.728417" lon="23.482968"><ele>2765.8</ele><time>2026-03-15T10:54:42.000Z</time></trkpt>
<trkpt lat="41.728417" lon="23.482968"><ele>2765.8</ele><time>2026-03-15T10:54:43.000Z</time></trkpt>
<trkpt lat="41.728417" lon="23.482968"><ele>2765.8</ele><time>2026-03-15T10:54:44.000Z</time></trkpt>
<trkpt lat="41.728417" lon="23.482968"><ele>2765.8</ele><time>2026-03-15T10:54:45.000Z</time></trkpt>
<trkpt lat="41.728417" lon="23.482968"><ele>2765.7</ele><time>2026-03-15T10:54:46.000Z</time></trkpt>
<trkpt lat="41.728417" lon="23.482968"><ele>2765.7</ele><time>2026-03-15T10:54:47.000Z</time></trkpt>
<trkpt lat="41.728417" lon="23.482968"><ele>2765.7</ele><time>2026-03-15T10:54:48.000Z</time></trkpt>
<trkpt lat="41.728417" lon="23.482968"><ele>2765.7</ele><time>2026-03-15T10:54:49.000Z</time></trkpt>
<trkpt lat="41.728417" lon="23.482968"><ele>2765.7</ele><time>2026-03-15T10:54:50.000Z</time></trkpt>
<trkpt lat="41.728417" lon="23.482968"><ele>2765.8</ele><time>2026-03-15T10:54:51.000Z</time></trkpt>
<trkpt lat="41.728417" lon="23.482968"><ele>2765.8</ele><time>2026-03-15T10:54:52.000Z</time></trkpt>
<trkpt lat="41.728417" lon="23.482968"><ele>2765.8</ele><time>2026-03-15T10:54:53.000Z</time></trkpt>
<trkpt lat="41.728417" lon="23.482967"><ele>2765.8</ele><time>2026-03-15T10:54:54.000Z</time></trkpt>
<trkpt lat="41.728417" lon="23.482967"><ele>2765.8</ele><time>2026-03-15T10:54:55.000Z</time></trkpt>
<trkpt lat="41.728417" lon="23.482967"><ele>2765.8</ele><time>2026-03-15T10:54:56.000Z</time></trkpt>
<trkpt lat="41.728417" lon="23.482967"><ele>2765.8</ele><time>2026-03-15T10:54:57.000Z</time></trkpt>
<trkpt lat="41.728417" lon="23.482967"><ele>2765.8</ele><time>2026-03-15T10:54:58.000Z</time></trkpt>
<trkpt lat="41.728416" lon="23.482966"><ele>2765.8</ele><time>2026-03-15T10:54:59.000Z</time></trkpt>
<trkpt lat="41.728416" lon="23.482966"><ele>2765.8</ele><time>2026-03-15T10:55:00.000Z</time></trkpt>
<trkpt lat="41.728416" lon="23.482966"><ele>2765.9</ele><time>2026-03-15T10:55:01.000Z</time></trkpt>
<trkpt lat="41.728415" lon="23.482965"><ele>2765.9</ele><time>2026-03-15T10:55:02.000Z</time></trkpt>
<trkpt lat="41.728415" lon="23.482964"><ele>2765.9</ele><time>2026-03-15T10:55:03.000Z</time></trkpt>
<trkpt lat="41.728415" lon="23.482964"><ele>2765.9</ele><time>2026-03-15T10:55:04.000Z</time></trkpt>
<trkpt lat="41.728415" lon="23.482963"><ele>2765.9</ele><time>2026-03-15T10:55:05.000Z</time></trkpt>
<trkpt lat="41.728415" lon="23.482962"><ele>2766.1</ele><time>2026-03-15T10:55:06.000Z</time></trkpt>
<trkpt lat="41.728415" lon="23.482962"><ele>2766.1</ele><time>2026-03-15T10:55:07.000Z</time></trkpt>
<trkpt lat="41.728415" lon="23.482962"><ele>2766.1</ele><time>2026-03-15T10:55:08.000Z</time></trkpt>
<trkpt lat="41.728415" lon="23.482962"><ele>2766.1</ele><time>2026-03-15T10:55:09.000Z</time></trkpt>
<trkpt lat="41.728415" lon="23.482961"><ele>2766.1</ele><time>2026-03-15T10:55:10.000Z</time></trkpt>
<trkpt lat="41.728415" lon="23.482961"><ele>2766.2</ele><time>2026-03-15T10:55:11.000Z</time></trkpt>
<trkpt lat="41.728415" lon="23.482961"><ele>2766.2</ele><time>2026-03-15T10:55:12.000Z</time></trkpt>
<trkpt lat="41.728415" lon="23.482961"><ele>2766.2</ele><time>2026-03-15T10:55:13.000Z</time></trkpt>
<trkpt lat="41.728415" lon="23.482961"><ele>2766.2</ele><time>2026-03-15T10:55:14.000Z</time></trkpt>
<trkpt lat="41.728415" lon="23.482961"><ele>2766.2</ele><time>2026-03-15T10:55:15.000Z</time></trkpt>
<trkpt lat="41.728415" lon="23.482961"><ele>2766.5</ele><time>2026-03-15T10:55:16.000Z</time></trkpt>
<trkpt lat="41.728415" lon="23.482961"><ele>2766.5</ele><time>2026-03-15T10:55:17.000Z</time></trkpt>
<trkpt lat="41.728415" lon="23.482961"><ele>2766.5</ele><time>2026-03-15T10:55:18.000Z</time></trkpt>
<trkpt lat="41.728415" lon="23.482961"><ele>2766.5</ele><time>2026-03-15T10:55:19.000Z</time></trkpt>
<trkpt lat="41.728415" lon="23.482961"><ele>2766.5</ele><time>2026-03-15T10:55:20.000Z</time></trkpt>
<trkpt lat="41.728415" lon="23.482961"><ele>2766.7</ele><time>2026-03-15T10:55:21.000Z</time></trkpt>
<trkpt lat="41.728415" lon="23.482961"><ele>2766.7</ele><time>2026-03-15T10:55:22.000Z</time></trkpt>
<trkpt lat="41.728415" lon="23.482961"><ele>2766.7</ele><time>2026-03-15T10:55:23.000Z</time></trkpt>
<trkpt lat="41.728415" lon="23.482961"><ele>2766.7</ele><time>2026-03-15T10:55:24.000Z</time></trkpt>
<trkpt lat="41.728416" lon="23.482961"><ele>2766.7</ele><time>2026-03-15T10:55:25.000Z</time></trkpt>
<trkpt lat="41.728416" lon="23.482961"><ele>2766.6</ele><time>2026-03-15T10:55:26.000Z</time></trkpt>
<trkpt lat="41.728416" lon="23.482962"><ele>2766.6</ele><time>2026-03-15T10:55:27.000Z</time></trkpt>
<trkpt lat="41.728416" lon="23.482962"><ele>2766.6</ele><time>2026-03-15T10:55:28.000Z</time></trkpt>
<trkpt lat="41.728416" lon="23.482963"><ele>2766.6</ele><time>2026-03-15T10:55:29.000Z</time></trkpt>
<trkpt lat="41.728415" lon="23.482963"><ele>2766.6</ele><time>2026-03-15T10:55:30.000Z</time></trkpt>
<trkpt lat="41.728415" lon="23.482963"><ele>2766.2</ele><time>2026-03-15T10:55:31.000Z</time></trkpt>
<trkpt lat="41.728414" lon="23.482962"><ele>2766.2</ele><time>2026-03-15T10:55:32.000Z</time></trkpt>
<trkpt lat="41.728412" lon="23.482962"><ele>2766.2</ele><time>2026-03-15T10:55:33.000Z</time></trkpt>
<trkpt lat="41.728411" lon="23.482962"><ele>2766.2</ele><time>2026-03-15T10:55:34.000Z</time></trkpt>
<trkpt lat="41.72841" lon="23.482962"><ele>2766.2</ele><time>2026-03-15T10:55:35.000Z</time></trkpt>
<trkpt lat="41.728409" lon="23.482962"><ele>2765.7</ele><time>2026-03-15T10:55:36.000Z</time></trkpt>
<trkpt lat="41.728409" lon="23.482962"><ele>2765.7</ele><time>2026-03-15T10:55:37.000Z</time></trkpt>
<trkpt lat="41.728408" lon="23.482962"><ele>2765.7</ele><time>2026-03-15T10:55:38.000Z</time></trkpt>
<trkpt lat="41.728408" lon="23.482962"><ele>2765.7</ele><time>2026-03-15T10:55:39.000Z</time></trkpt>
<trkpt lat="41.728407" lon="23.482962"><ele>2765.7</ele><time>2026-03-15T10:55:40.000Z</time></trkpt>
<trkpt lat="41.728406" lon="23.482962"><ele>2765.7</ele><time>2026-03-15T10:55:41.000Z</time></trkpt>
<trkpt lat="41.728406" lon="23.482962"><ele>2765.7</ele><time>2026-03-15T10:55:42.000Z</time></trkpt>
<trkpt lat="41.728406" lon="23.482962"><ele>2765.7</ele><time>2026-03-15T10:55:43.000Z</time></trkpt>
<trkpt lat="41.728406" lon="23.482962"><ele>2765.7</ele><time>2026-03-15T10:55:44.000Z</time></trkpt>
<trkpt lat="41.728406" lon="23.482963"><ele>2765.7</ele><time>2026-03-15T10:55:45.000Z</time></trkpt>
<trkpt lat="41.728407" lon="23.482963"><ele>2765.9</ele><time>2026-03-15T10:55:46.000Z</time></trkpt>
<trkpt lat="41.728407" lon="23.482963"><ele>2765.9</ele><time>2026-03-15T10:55:47.000Z</time></trkpt>
<trkpt lat="41.728407" lon="23.482963"><ele>2765.9</ele><time>2026-03-15T10:55:48.000Z</time></trkpt>
<trkpt lat="41.728405" lon="23.482963"><ele>2765.9</ele><time>2026-03-15T10:55:49.000Z</time></trkpt>
<trkpt lat="41.728403" lon="23.482962"><ele>2765.9</ele><time>2026-03-15T10:55:50.000Z</time></trkpt>
<trkpt lat="41.728401" lon="23.482961"><ele>2766.2</ele><time>2026-03-15T10:55:51.000Z</time></trkpt>
<trkpt lat="41.728399" lon="23.48296"><ele>2766.2</ele><time>2026-03-15T10:55:52.000Z</time></trkpt>
<trkpt lat="41.728397" lon="23.482959"><ele>2766.2</ele><time>2026-03-15T10:55:53.000Z</time></trkpt>
<trkpt lat="41.728396" lon="23.482958"><ele>2766.2</ele><time>2026-03-15T10:55:54.000Z</time></trkpt>
<trkpt lat="41.728396" lon="23.482958"><ele>2766.2</ele><time>2026-03-15T10:55:55.000Z</time></trkpt>
<trkpt lat="41.728396" lon="23.482959"><ele>2766.2</ele><time>2026-03-15T10:55:56.000Z</time></trkpt>
<trkpt lat="41.728396" lon="23.482958"><ele>2766.2</ele><time>2026-03-15T10:55:57.000Z</time></trkpt>
<trkpt lat="41.728396" lon="23.482957"><ele>2766.2</ele><time>2026-03-15T10:55:58.000Z</time></trkpt>
<trkpt lat="41.728396" lon="23.482956"><ele>2766.2</ele><time>2026-03-15T10:55:59.000Z</time></trkpt>
<trkpt lat="41.728397" lon="23.482955"><ele>2766.2</ele><time>2026-03-15T10:56:00.000Z</time></trkpt>
<trkpt lat="41.728397" lon="23.482955"><ele>2766.1</ele><time>2026-03-15T10:56:01.000Z</time></trkpt>
<trkpt lat="41.728397" lon="23.482957"><ele>2766.1</ele><time>2026-03-15T10:56:02.000Z</time></trkpt>
<trkpt lat="41.728397" lon="23.482958"><ele>2766.1</ele><time>2026-03-15T10:56:03.000Z</time></trkpt>
<trkpt lat="41.728397" lon="23.482959"><ele>2766.1</ele><time>2026-03-15T10:56:04.000Z</time></trkpt>
<trkpt lat="41.728397" lon="23.482959"><ele>2766.1</ele><time>2026-03-15T10:56:05.000Z</time></trkpt>
<trkpt lat="41.728397" lon="23.482959"><ele>2765.8</ele><time>2026-03-15T10:56:06.000Z</time></trkpt>
<trkpt lat="41.728397" lon="23.482959"><ele>2765.8</ele><time>2026-03-15T10:56:07.000Z</time></trkpt>
<trkpt lat="41.728397" lon="23.482958"><ele>2765.8</ele><time>2026-03-15T10:56:08.000Z</time></trkpt>
<trkpt lat="41.728397" lon="23.482958"><ele>2765.8</ele><time>2026-03-15T10:56:09.000Z</time></trkpt>
<trkpt lat="41.728397" lon="23.482958"><ele>2765.8</ele><time>2026-03-15T10:56:10.000Z</time></trkpt>
<trkpt lat="41.728397" lon="23.482958"><ele>2765.7</ele><time>2026-03-15T10:56:11.000Z</time></trkpt>
<trkpt lat="41.728397" lon="23.482958"><ele>2765.7</ele><time>2026-03-15T10:56:12.000Z</time></trkpt>
<trkpt lat="41.728397" lon="23.482958"><ele>2765.7</ele><time>2026-03-15T10:56:13.000Z</time></trkpt>
<trkpt lat="41.728397" lon="23.482958"><ele>2765.7</ele><time>2026-03-15T10:56:14.000Z</time></trkpt>
<trkpt lat="41.728397" lon="23.482958"><ele>2765.7</ele><time>2026-03-15T10:56:15.000Z</time></trkpt>
<trkpt lat="41.728397" lon="23.482958"><ele>2765.7</ele><time>2026-03-15T10:56:16.000Z</time></trkpt>
<trkpt lat="41.728397" lon="23.482958"><ele>2765.7</ele><time>2026-03-15T10:56:17.000Z</time></trkpt>
<trkpt lat="41.728397" lon="23.482957"><ele>2765.7</ele><time>2026-03-15T10:56:18.000Z</time></trkpt>
<trkpt lat="41.728397" lon="23.482957"><ele>2765.7</ele><time>2026-03-15T10:56:19.000Z</time></trkpt>
<trkpt lat="41.728397" lon="23.482957"><ele>2765.7</ele><time>2026-03-15T10:56:20.000Z</time></trkpt>
<trkpt lat="41.728397" lon="23.482957"><ele>2765.7</ele><time>2026-03-15T10:56:21.000Z</time></trkpt>
<trkpt lat="41.728397" lon="23.482957"><ele>2765.7</ele><time>2026-03-15T10:56:22.000Z</time></trkpt>
<trkpt lat="41.728397" lon="23.482957"><ele>2765.7</ele><time>2026-03-15T10:56:23.000Z</time></trkpt>
<trkpt lat="41.728397" lon="23.482957"><ele>2765.7</ele><time>2026-03-15T10:56:24.000Z</time></trkpt>
<trkpt lat="41.728397" lon="23.482957"><ele>2765.7</ele><time>2026-03-15T10:56:25.000Z</time></trkpt>
<trkpt lat="41.728397" lon="23.482957"><ele>2765.7</ele><time>2026-03-15T10:56:26.000Z</time></trkpt>
<trkpt lat="41.728396" lon="23.482957"><ele>2765.7</ele><time>2026-03-15T10:56:27.000Z</time></trkpt>
<trkpt lat="41.728395" lon="23.482957"><ele>2765.7</ele><time>2026-03-15T10:56:28.000Z</time></trkpt>
<trkpt lat="41.728394" lon="23.482958"><ele>2765.7</ele><time>2026-03-15T10:56:29.000Z</time></trkpt>
<trkpt lat="41.728393" lon="23.482958"><ele>2765.7</ele><time>2026-03-15T10:56:30.000Z</time></trkpt>
<trkpt lat="41.728392" lon="23.482959"><ele>2765.7</ele><time>2026-03-15T10:56:31.000Z</time></trkpt>
<trkpt lat="41.728392" lon="23.48296"><ele>2765.7</ele><time>2026-03-15T10:56:32.000Z</time></trkpt>
<trkpt lat="41.728392" lon="23.48296"><ele>2765.7</ele><time>2026-03-15T10:56:33.000Z</time></trkpt>
<trkpt lat="41.728392" lon="23.48296"><ele>2765.7</ele><time>2026-03-15T10:56:34.000Z</time></trkpt>
<trkpt lat="41.728392" lon="23.48296"><ele>2765.7</ele><time>2026-03-15T10:56:35.000Z</time></trkpt>
<trkpt lat="41.728392" lon="23.48296"><ele>2765.7</ele><time>2026-03-15T10:56:36.000Z</time></trkpt>
<trkpt lat="41.728392" lon="23.48296"><ele>2765.7</ele><time>2026-03-15T10:56:37.000Z</time></trkpt>
<trkpt lat="41.728392" lon="23.48296"><ele>2765.7</ele><time>2026-03-15T10:56:38.000Z</time></trkpt>
<trkpt lat="41.728392" lon="23.48296"><ele>2765.7</ele><time>2026-03-15T10:56:39.000Z</time></trkpt>
<trkpt lat="41.728392" lon="23.482959"><ele>2765.7</ele><time>2026-03-15T10:56:40.000Z</time></trkpt>
<trkpt lat="41.728392" lon="23.482959"><ele>2765.7</ele><time>2026-03-15T10:56:41.000Z</time></trkpt>
<trkpt lat="41.728393" lon="23.482958"><ele>2765.7</ele><time>2026-03-15T10:56:42.000Z</time></trkpt>
<trkpt lat="41.728393" lon="23.482958"><ele>2765.7</ele><time>2026-03-15T10:56:43.000Z</time></trkpt>
<trkpt lat="41.728393" lon="23.482957"><ele>2765.7</ele><time>2026-03-15T10:56:44.000Z</time></trkpt>
<trkpt lat="41.728392" lon="23.482957"><ele>2765.7</ele><time>2026-03-15T10:56:45.000Z</time></trkpt>
<trkpt lat="41.728392" lon="23.482957"><ele>2765.5</ele><time>2026-03-15T10:56:46.000Z</time></trkpt>
<trkpt lat="41.728391" lon="23.482957"><ele>2765.5</ele><time>2026-03-15T10:56:47.000Z</time></trkpt>
<trkpt lat="41.728391" lon="23.482957"><ele>2765.5</ele><time>2026-03-15T10:56:48.000Z</time></trkpt>
<trkpt lat="41.728391" lon="23.482956"><ele>2765.5</ele><time>2026-03-15T10:56:49.000Z</time></trkpt>
<trkpt lat="41.728391" lon="23.482957"><ele>2765.5</ele><time>2026-03-15T10:56:50.000Z</time></trkpt>
<trkpt lat="41.728392" lon="23.482958"><ele>2765.4</ele><time>2026-03-15T10:56:51.000Z</time></trkpt>
<trkpt lat="41.728393" lon="23.482959"><ele>2765.4</ele><time>2026-03-15T10:56:52.000Z</time></trkpt>
<trkpt lat="41.728394" lon="23.48296"><ele>2765.4</ele><time>2026-03-15T10:56:53.000Z</time></trkpt>
<trkpt lat="41.728395" lon="23.482961"><ele>2765.4</ele><time>2026-03-15T10:56:54.000Z</time></trkpt>
<trkpt lat="41.728396" lon="23.482961"><ele>2765.4</ele><time>2026-03-15T10:56:55.000Z</time></trkpt>
<trkpt lat="41.728396" lon="23.482962"><ele>2765.3</ele><time>2026-03-15T10:56:56.000Z</time></trkpt>
<trkpt lat="41.728396" lon="23.482962"><ele>2765.3</ele><time>2026-03-15T10:56:57.000Z</time></trkpt>
<trkpt lat="41.728396" lon="23.482962"><ele>2765.3</ele><time>2026-03-15T10:56:58.000Z</time></trkpt>
<trkpt lat="41.728397" lon="23.482962"><ele>2765.3</ele><time>2026-03-15T10:56:59.000Z</time></trkpt>
<trkpt lat="41.728397" lon="23.482962"><ele>2765.3</ele><time>2026-03-15T10:57:00.000Z</time></trkpt>
<trkpt lat="41.728397" lon="23.482962"><ele>2765.2</ele><time>2026-03-15T10:57:01.000Z</time></trkpt>
<trkpt lat="41.728398" lon="23.482962"><ele>2765.2</ele><time>2026-03-15T10:57:02.000Z</time></trkpt>
<trkpt lat="41.728398" lon="23.482962"><ele>2765.2</ele><time>2026-03-15T10:57:03.000Z</time></trkpt>
<trkpt lat="41.728398" lon="23.482962"><ele>2765.2</ele><time>2026-03-15T10:57:04.000Z</time></trkpt>
<trkpt lat="41.728398" lon="23.482962"><ele>2765.2</ele><time>2026-03-15T10:57:05.000Z</time></trkpt>
<trkpt lat="41.728399" lon="23.482962"><ele>2765.2</ele><time>2026-03-15T10:57:06.000Z</time></trkpt>
<trkpt lat="41.728399" lon="23.482962"><ele>2765.2</ele><time>2026-03-15T10:57:07.000Z</time></trkpt>
<trkpt lat="41.7284" lon="23.482962"><ele>2765.2</ele><time>2026-03-15T10:57:08.000Z</time></trkpt>
<trkpt lat="41.7284" lon="23.482962"><ele>2765.2</ele><time>2026-03-15T10:57:09.000Z</time></trkpt>
<trkpt lat="41.7284" lon="23.482962"><ele>2765.2</ele><time>2026-03-15T10:57:10.000Z</time></trkpt>
<trkpt lat="41.7284" lon="23.482962"><ele>2765.2</ele><time>2026-03-15T10:57:11.000Z</time></trkpt>
<trkpt lat="41.7284" lon="23.482962"><ele>2765.2</ele><time>2026-03-15T10:57:12.000Z</time></trkpt>
<trkpt lat="41.7284" lon="23.482962"><ele>2765.2</ele><time>2026-03-15T10:57:13.000Z</time></trkpt>
<trkpt lat="41.7284" lon="23.482962"><ele>2765.2</ele><time>2026-03-15T10:57:14.000Z</time></trkpt>
<trkpt lat="41.7284" lon="23.482962"><ele>2765.2</ele><time>2026-03-15T10:57:15.000Z</time></trkpt>
<trkpt lat="41.7284" lon="23.482962"><ele>2765.4</ele><time>2026-03-15T10:57:16.000Z</time></trkpt>
<trkpt lat="41.7284" lon="23.482962"><ele>2765.4</ele><time>2026-03-15T10:57:17.000Z</time></trkpt>
<trkpt lat="41.7284" lon="23.482961"><ele>2765.4</ele><time>2026-03-15T10:57:18.000Z</time></trkpt>
<trkpt lat="41.7284" lon="23.482961"><ele>2765.4</ele><time>2026-03-15T10:57:19.000Z</time></trkpt>
<trkpt lat="41.7284" lon="23.482961"><ele>2765.4</ele><time>2026-03-15T10:57:20.000Z</time></trkpt>
<trkpt lat="41.7284" lon="23.48296"><ele>2765.6</ele><time>2026-03-15T10:57:21.000Z</time></trkpt>
<trkpt lat="41.7284" lon="23.48296"><ele>2765.6</ele><time>2026-03-15T10:57:22.000Z</time></trkpt>
<trkpt lat="41.7284" lon="23.48296"><ele>2765.6</ele><time>2026-03-15T10:57:23.000Z</time></trkpt>
<trkpt lat="41.7284" lon="23.48296"><ele>2765.6</ele><time>2026-03-15T10:57:24.000Z</time></trkpt>
<trkpt lat="41.7284" lon="23.48296"><ele>2765.6</ele><time>2026-03-15T10:57:25.000Z</time></trkpt>
<trkpt lat="41.728401" lon="23.48296"><ele>2765.8</ele><time>2026-03-15T10:57:26.000Z</time></trkpt>
<trkpt lat="41.728401" lon="23.48296"><ele>2765.8</ele><time>2026-03-15T10:57:27.000Z</time></trkpt>
<trkpt lat="41.728402" lon="23.482961"><ele>2765.8</ele><time>2026-03-15T10:57:28.000Z</time></trkpt>
<trkpt lat="41.728402" lon="23.482961"><ele>2765.8</ele><time>2026-03-15T10:57:29.000Z</time></trkpt>
<trkpt lat="41.728403" lon="23.482961"><ele>2765.8</ele><time>2026-03-15T10:57:30.000Z</time></trkpt>
<trkpt lat="41.728403" lon="23.482961"><ele>2765.8</ele><time>2026-03-15T10:57:31.000Z</time></trkpt>
<trkpt lat="41.728403" lon="23.482962"><ele>2765.8</ele><time>2026-03-15T10:57:32.000Z</time></trkpt>
<trkpt lat="41.728402" lon="23.482962"><ele>2765.8</ele><time>2026-03-15T10:57:33.000Z</time></trkpt>
<trkpt lat="41.728402" lon="23.482963"><ele>2765.8</ele><time>2026-03-15T10:57:34.000Z</time></trkpt>
<trkpt lat="41.728402" lon="23.482964"><ele>2765.8</ele><time>2026-03-15T10:57:35.000Z</time></trkpt>
<trkpt lat="41.728403" lon="23.482966"><ele>2765.6</ele><time>2026-03-15T10:57:36.000Z</time></trkpt>
<trkpt lat="41.728404" lon="23.482966"><ele>2765.6</ele><time>2026-03-15T10:57:37.000Z</time></trkpt>
<trkpt lat="41.728405" lon="23.482967"><ele>2765.6</ele><time>2026-03-15T10:57:38.000Z</time></trkpt>
<trkpt lat="41.728406" lon="23.482967"><ele>2765.6</ele><time>2026-03-15T10:57:39.000Z</time></trkpt>
<trkpt lat="41.728407" lon="23.482968"><ele>2765.6</ele><time>2026-03-15T10:57:40.000Z</time></trkpt>
<trkpt lat="41.728408" lon="23.482968"><ele>2765.6</ele><time>2026-03-15T10:57:41.000Z</time></trkpt>
<trkpt lat="41.728409" lon="23.482969"><ele>2765.6</ele><time>2026-03-15T10:57:42.000Z</time></trkpt>
<trkpt lat="41.72841" lon="23.482968"><ele>2765.6</ele><time>2026-03-15T10:57:43.000Z</time></trkpt>
<trkpt lat="41.72841" lon="23.482969"><ele>2765.6</ele><time>2026-03-15T10:57:44.000Z</time></trkpt>
<trkpt lat="41.72841" lon="23.482969"><ele>2765.6</ele><time>2026-03-15T10:57:45.000Z</time></trkpt>
<trkpt lat="41.72841" lon="23.482969"><ele>2765.6</ele><time>2026-03-15T10:57:46.000Z</time></trkpt>
<trkpt lat="41.72841" lon="23.482969"><ele>2765.6</ele><time>2026-03-15T10:57:47.000Z</time></trkpt>
<trkpt lat="41.72841" lon="23.482969"><ele>2765.6</ele><time>2026-03-15T10:57:48.000Z</time></trkpt>
<trkpt lat="41.72841" lon="23.482969"><ele>2765.6</ele><time>2026-03-15T10:57:49.000Z</time></trkpt>
<trkpt lat="41.72841" lon="23.482969"><ele>2765.6</ele><time>2026-03-15T10:57:50.000Z</time></trkpt>
<trkpt lat="41.72841" lon="23.48297"><ele>2765.6</ele><time>2026-03-15T10:57:51.000Z</time></trkpt>
<trkpt lat="41.72841" lon="23.48297"><ele>2765.6</ele><time>2026-03-15T10:57:52.000Z</time></trkpt>
<trkpt lat="41.72841" lon="23.482971"><ele>2765.6</ele><time>2026-03-15T10:57:53.000Z</time></trkpt>
<trkpt lat="41.72841" lon="23.482972"><ele>2765.6</ele><time>2026-03-15T10:57:54.000Z</time></trkpt>
<trkpt lat="41.72841" lon="23.482972"><ele>2765.6</ele><time>2026-03-15T10:57:55.000Z</time></trkpt>
<trkpt lat="41.72841" lon="23.482973"><ele>2765.6</ele><time>2026-03-15T10:57:56.000Z</time></trkpt>
<trkpt lat="41.72841" lon="23.482974"><ele>2765.6</ele><time>2026-03-15T10:57:57.000Z</time></trkpt>
<trkpt lat="41.72841" lon="23.482975"><ele>2765.6</ele><time>2026-03-15T10:57:58.000Z</time></trkpt>
<trkpt lat="41.72841" lon="23.482975"><ele>2765.6</ele><time>2026-03-15T10:57:59.000Z</time></trkpt>
<trkpt lat="41.728409" lon="23.482975"><ele>2765.6</ele><time>2026-03-15T10:58:00.000Z</time></trkpt>
<trkpt lat="41.728409" lon="23.482975"><ele>2765.5</ele><time>2026-03-15T10:58:01.000Z</time></trkpt>
<trkpt lat="41.728409" lon="23.482975"><ele>2765.5</ele><time>2026-03-15T10:58:02.000Z</time></trkpt>
<trkpt lat="41.728409" lon="23.482974"><ele>2765.5</ele><time>2026-03-15T10:58:03.000Z</time></trkpt>
<trkpt lat="41.728409" lon="23.482973"><ele>2765.5</ele><time>2026-03-15T10:58:04.000Z</time></trkpt>
<trkpt lat="41.728409" lon="23.482973"><ele>2765.5</ele><time>2026-03-15T10:58:05.000Z</time></trkpt>
<trkpt lat="41.728409" lon="23.482974"><ele>2765.3</ele><time>2026-03-15T10:58:06.000Z</time></trkpt>
<trkpt lat="41.728409" lon="23.482975"><ele>2765.3</ele><time>2026-03-15T10:58:07.000Z</time></trkpt>
<trkpt lat="41.728409" lon="23.482975"><ele>2765.3</ele><time>2026-03-15T10:58:08.000Z</time></trkpt>
<trkpt lat="41.728409" lon="23.482976"><ele>2765.3</ele><time>2026-03-15T10:58:09.000Z</time></trkpt>
<trkpt lat="41.728409" lon="23.482976"><ele>2765.3</ele><time>2026-03-15T10:58:10.000Z</time></trkpt>
<trkpt lat="41.728409" lon="23.482975"><ele>2765.2</ele><time>2026-03-15T10:58:11.000Z</time></trkpt>
<trkpt lat="41.72841" lon="23.482975"><ele>2765.2</ele><time>2026-03-15T10:58:12.000Z</time></trkpt>
<trkpt lat="41.728411" lon="23.482974"><ele>2765.2</ele><time>2026-03-15T10:58:13.000Z</time></trkpt>
<trkpt lat="41.728413" lon="23.482974"><ele>2765.2</ele><time>2026-03-15T10:58:14.000Z</time></trkpt>
<trkpt lat="41.728415" lon="23.482974"><ele>2765.2</ele><time>2026-03-15T10:58:15.000Z</time></trkpt>
<trkpt lat="41.728418" lon="23.482974"><ele>2765.2</ele><time>2026-03-15T10:58:16.000Z</time></trkpt>
<trkpt lat="41.728421" lon="23.482973"><ele>2765.2</ele><time>2026-03-15T10:58:17.000Z</time></trkpt>
<trkpt lat="41.728422" lon="23.482973"><ele>2765.2</ele><time>2026-03-15T10:58:18.000Z</time></trkpt>
<trkpt lat="41.728424" lon="23.482972"><ele>2765.2</ele><time>2026-03-15T10:58:19.000Z</time></trkpt>
<trkpt lat="41.728424" lon="23.482971"><ele>2765.2</ele><time>2026-03-15T10:58:20.000Z</time></trkpt>
<trkpt lat="41.728425" lon="23.48297"><ele>2765.1</ele><time>2026-03-15T10:58:21.000Z</time></trkpt>
<trkpt lat="41.728425" lon="23.48297"><ele>2765.1</ele><time>2026-03-15T10:58:22.000Z</time></trkpt>
<trkpt lat="41.728426" lon="23.482971"><ele>2765.1</ele><time>2026-03-15T10:58:23.000Z</time></trkpt>
<trkpt lat="41.728425" lon="23.482971"><ele>2765.1</ele><time>2026-03-15T10:58:24.000Z</time></trkpt>
<trkpt lat="41.728426" lon="23.482972"><ele>2765.1</ele><time>2026-03-15T10:58:25.000Z</time></trkpt>
<trkpt lat="41.728426" lon="23.482973"><ele>2765.1</ele><time>2026-03-15T10:58:26.000Z</time></trkpt>
<trkpt lat="41.728425" lon="23.482973"><ele>2765.1</ele><time>2026-03-15T10:58:27.000Z</time></trkpt>
<trkpt lat="41.728425" lon="23.482973"><ele>2765.1</ele><time>2026-03-15T10:58:28.000Z</time></trkpt>
<trkpt lat="41.728425" lon="23.482973"><ele>2765.1</ele><time>2026-03-15T10:58:29.000Z</time></trkpt>
<trkpt lat="41.728424" lon="23.482972"><ele>2765.1</ele><time>2026-03-15T10:58:30.000Z</time></trkpt>
<trkpt lat="41.728424" lon="23.482972"><ele>2765.1</ele><time>2026-03-15T10:58:31.000Z</time></trkpt>
<trkpt lat="41.728424" lon="23.482972"><ele>2765.1</ele><time>2026-03-15T10:58:32.000Z</time></trkpt>
<trkpt lat="41.728424" lon="23.482972"><ele>2765.1</ele><time>2026-03-15T10:58:33.000Z</time></trkpt>
<trkpt lat="41.728423" lon="23.482971"><ele>2765.1</ele><time>2026-03-15T10:58:34.000Z</time></trkpt>
<trkpt lat="41.728423" lon="23.482971"><ele>2765.1</ele><time>2026-03-15T10:58:35.000Z</time></trkpt>
<trkpt lat="41.728422" lon="23.48297"><ele>2765.3</ele><time>2026-03-15T10:58:36.000Z</time></trkpt>
<trkpt lat="41.728421" lon="23.48297"><ele>2765.3</ele><time>2026-03-15T10:58:37.000Z</time></trkpt>
<trkpt lat="41.72842" lon="23.482971"><ele>2765.3</ele><time>2026-03-15T10:58:38.000Z</time></trkpt>
<trkpt lat="41.72842" lon="23.482972"><ele>2765.3</ele><time>2026-03-15T10:58:39.000Z</time></trkpt>
<trkpt lat="41.728419" lon="23.482972"><ele>2765.3</ele><time>2026-03-15T10:58:40.000Z</time></trkpt>
<trkpt lat="41.728419" lon="23.482973"><ele>2765.3</ele><time>2026-03-15T10:58:41.000Z</time></trkpt>
<trkpt lat="41.728418" lon="23.482973"><ele>2765.3</ele><time>2026-03-15T10:58:42.000Z</time></trkpt>
<trkpt lat="41.728417" lon="23.482973"><ele>2765.3</ele><time>2026-03-15T10:58:43.000Z</time></trkpt>
<trkpt lat="41.728415" lon="23.482975"><ele>2765.3</ele><time>2026-03-15T10:58:44.000Z</time></trkpt>
<trkpt lat="41.728414" lon="23.482976"><ele>2765.3</ele><time>2026-03-15T10:58:45.000Z</time></trkpt>
<trkpt lat="41.728412" lon="23.482978"><ele>2765.3</ele><time>2026-03-15T10:58:46.000Z</time></trkpt>
<trkpt lat="41.728411" lon="23.48298"><ele>2765.3</ele><time>2026-03-15T10:58:47.000Z</time></trkpt>
<trkpt lat="41.72841" lon="23.482981"><ele>2765.3</ele><time>2026-03-15T10:58:48.000Z</time></trkpt>
<trkpt lat="41.72841" lon="23.482982"><ele>2765.3</ele><time>2026-03-15T10:58:49.000Z</time></trkpt>
<trkpt lat="41.72841" lon="23.482982"><ele>2765.3</ele><time>2026-03-15T10:58:50.000Z</time></trkpt>
<trkpt lat="41.728409" lon="23.482982"><ele>2765.3</ele><time>2026-03-15T10:58:51.000Z</time></trkpt>
<trkpt lat="41.728409" lon="23.482982"><ele>2765.3</ele><time>2026-03-15T10:58:52.000Z</time></trkpt>
<trkpt lat="41.728409" lon="23.482982"><ele>2765.3</ele><time>2026-03-15T10:58:53.000Z</time></trkpt>
<trkpt lat="41.728409" lon="23.482982"><ele>2765.3</ele><time>2026-03-15T10:58:54.000Z</time></trkpt>
<trkpt lat="41.728409" lon="23.482981"><ele>2765.3</ele><time>2026-03-15T10:58:55.000Z</time></trkpt>
<trkpt lat="41.728409" lon="23.482981"><ele>2765.4</ele><time>2026-03-15T10:58:56.000Z</time></trkpt>
<trkpt lat="41.72841" lon="23.48298"><ele>2765.4</ele><time>2026-03-15T10:58:57.000Z</time></trkpt>
<trkpt lat="41.72841" lon="23.482979"><ele>2765.4</ele><time>2026-03-15T10:58:58.000Z</time></trkpt>
<trkpt lat="41.72841" lon="23.482979"><ele>2765.4</ele><time>2026-03-15T10:58:59.000Z</time></trkpt>
<trkpt lat="41.72841" lon="23.482979"><ele>2765.4</ele><time>2026-03-15T10:59:00.000Z</time></trkpt>
<trkpt lat="41.728409" lon="23.482979"><ele>2765.6</ele><time>2026-03-15T10:59:01.000Z</time></trkpt>
<trkpt lat="41.728408" lon="23.482979"><ele>2765.6</ele><time>2026-03-15T10:59:02.000Z</time></trkpt>
<trkpt lat="41.728407" lon="23.482978"><ele>2765.6</ele><time>2026-03-15T10:59:03.000Z</time></trkpt>
<trkpt lat="41.728406" lon="23.482978"><ele>2765.6</ele><time>2026-03-15T10:59:04.000Z</time></trkpt>
<trkpt lat="41.728405" lon="23.482978"><ele>2765.6</ele><time>2026-03-15T10:59:05.000Z</time></trkpt>
<trkpt lat="41.728404" lon="23.482979"><ele>2765.5</ele><time>2026-03-15T10:59:06.000Z</time></trkpt>
<trkpt lat="41.728404" lon="23.48298"><ele>2765.5</ele><time>2026-03-15T10:59:07.000Z</time></trkpt>
<trkpt lat="41.728405" lon="23.482981"><ele>2765.5</ele><time>2026-03-15T10:59:08.000Z</time></trkpt>
<trkpt lat="41.728405" lon="23.482981"><ele>2765.5</ele><time>2026-03-15T10:59:09.000Z</time></trkpt>
<trkpt lat="41.728406" lon="23.482981"><ele>2765.5</ele><time>2026-03-15T10:59:10.000Z</time></trkpt>
<trkpt lat="41.728407" lon="23.48298"><ele>2765.5</ele><time>2026-03-15T10:59:11.000Z</time></trkpt>
<trkpt lat="41.728407" lon="23.482979"><ele>2765.5</ele><time>2026-03-15T10:59:12.000Z</time></trkpt>
<trkpt lat="41.728408" lon="23.482979"><ele>2765.5</ele><time>2026-03-15T10:59:13.000Z</time></trkpt>
<trkpt lat="41.728409" lon="23.482978"><ele>2765.5</ele><time>2026-03-15T10:59:14.000Z</time></trkpt>
<trkpt lat="41.728409" lon="23.482977"><ele>2765.5</ele><time>2026-03-15T10:59:15.000Z</time></trkpt>
<trkpt lat="41.72841" lon="23.482978"><ele>2765.5</ele><time>2026-03-15T10:59:16.000Z</time></trkpt>
<trkpt lat="41.728411" lon="23.482979"><ele>2765.5</ele><time>2026-03-15T10:59:17.000Z</time></trkpt>
<trkpt lat="41.728411" lon="23.482978"><ele>2765.5</ele><time>2026-03-15T10:59:18.000Z</time></trkpt>
<trkpt lat="41.728412" lon="23.482976"><ele>2765.5</ele><time>2026-03-15T10:59:19.000Z</time></trkpt>
<trkpt lat="41.728413" lon="23.482975"><ele>2765.5</ele><time>2026-03-15T10:59:20.000Z</time></trkpt>
<trkpt lat="41.728414" lon="23.482973"><ele>2765.8</ele><time>2026-03-15T10:59:21.000Z</time></trkpt>
<trkpt lat="41.728414" lon="23.482971"><ele>2765.8</ele><time>2026-03-15T10:59:22.000Z</time></trkpt>
<trkpt lat="41.728415" lon="23.482969"><ele>2765.8</ele><time>2026-03-15T10:59:23.000Z</time></trkpt>
<trkpt lat="41.728415" lon="23.482969"><ele>2765.8</ele><time>2026-03-15T10:59:24.000Z</time></trkpt>
<trkpt lat="41.728415" lon="23.482969"><ele>2765.8</ele><time>2026-03-15T10:59:25.000Z</time></trkpt>
<trkpt lat="41.728415" lon="23.482969"><ele>2765.8</ele><time>2026-03-15T10:59:26.000Z</time></trkpt>
<trkpt lat="41.728414" lon="23.482968"><ele>2765.8</ele><time>2026-03-15T10:59:27.000Z</time></trkpt>
<trkpt lat="41.728415" lon="23.482968"><ele>2765.8</ele><time>2026-03-15T10:59:28.000Z</time></trkpt>
<trkpt lat="41.728415" lon="23.482969"><ele>2765.8</ele><time>2026-03-15T10:59:29.000Z</time></trkpt>
<trkpt lat="41.728415" lon="23.482968"><ele>2765.8</ele><time>2026-03-15T10:59:30.000Z</time></trkpt>
<trkpt lat="41.728415" lon="23.482968"><ele>2765.8</ele><time>2026-03-15T10:59:31.000Z</time></trkpt>
<trkpt lat="41.728415" lon="23.482968"><ele>2765.8</ele><time>2026-03-15T10:59:32.000Z</time></trkpt>
<trkpt lat="41.728415" lon="23.482967"><ele>2765.8</ele><time>2026-03-15T10:59:33.000Z</time></trkpt>
<trkpt lat="41.728416" lon="23.482966"><ele>2765.8</ele><time>2026-03-15T10:59:34.000Z</time></trkpt>
<trkpt lat="41.728416" lon="23.482967"><ele>2765.8</ele><time>2026-03-15T10:59:35.000Z</time></trkpt>
<trkpt lat="41.728417" lon="23.482968"><ele>2765.7</ele><time>2026-03-15T10:59:36.000Z</time></trkpt>
<trkpt lat="41.728417" lon="23.482969"><ele>2765.7</ele><time>2026-03-15T10:59:37.000Z</time></trkpt>
<trkpt lat="41.728418" lon="23.48297"><ele>2765.7</ele><time>2026-03-15T10:59:38.000Z</time></trkpt>
<trkpt lat="41.728419" lon="23.482972"><ele>2765.7</ele><time>2026-03-15T10:59:39.000Z</time></trkpt>
<trkpt lat="41.728419" lon="23.482971"><ele>2765.7</ele><time>2026-03-15T10:59:40.000Z</time></trkpt>
<trkpt lat="41.728419" lon="23.482971"><ele>2765.8</ele><time>2026-03-15T10:59:41.000Z</time></trkpt>
<trkpt lat="41.728419" lon="23.482971"><ele>2765.8</ele><time>2026-03-15T10:59:42.000Z</time></trkpt>
<trkpt lat="41.728419" lon="23.482971"><ele>2765.8</ele><time>2026-03-15T10:59:43.000Z</time></trkpt>
<trkpt lat="41.728419" lon="23.482971"><ele>2765.8</ele><time>2026-03-15T10:59:44.000Z</time></trkpt>
<trkpt lat="41.728418" lon="23.482971"><ele>2765.8</ele><time>2026-03-15T10:59:45.000Z</time></trkpt>
<trkpt lat="41.728418" lon="23.482972"><ele>2765.9</ele><time>2026-03-15T10:59:46.000Z</time></trkpt>
<trkpt lat="41.728418" lon="23.482973"><ele>2765.9</ele><time>2026-03-15T10:59:47.000Z</time></trkpt>
<trkpt lat="41.728418" lon="23.482973"><ele>2765.9</ele><time>2026-03-15T10:59:48.000Z</time></trkpt>
<trkpt lat="41.72842" lon="23.482975"><ele>2765.9</ele><time>2026-03-15T10:59:49.000Z</time></trkpt>
<trkpt lat="41.72842" lon="23.482975"><ele>2765.9</ele><time>2026-03-15T10:59:50.000Z</time></trkpt>
<trkpt lat="41.728419" lon="23.482973"><ele>2765.9</ele><time>2026-03-15T10:59:52.000Z</time></trkpt>
<trkpt lat="41.72842" lon="23.482974"><ele>2765.9</ele><time>2026-03-15T10:59:53.000Z</time></trkpt>
<trkpt lat="41.72842" lon="23.482973"><ele>2765.9</ele><time>2026-03-15T10:59:54.000Z</time></trkpt>
<trkpt lat="41.728421" lon="23.482972"><ele>2765.9</ele><time>2026-03-15T10:59:55.000Z</time></trkpt>
<trkpt lat="41.728421" lon="23.482971"><ele>2765.9</ele><time>2026-03-15T10:59:56.000Z</time></trkpt>
<trkpt lat="41.72842" lon="23.48297"><ele>2765.9</ele><time>2026-03-15T10:59:57.000Z</time></trkpt>
<trkpt lat="41.728419" lon="23.482969"><ele>2765.9</ele><time>2026-03-15T10:59:58.000Z</time></trkpt>
<trkpt lat="41.728419" lon="23.482969"><ele>2765.9</ele><time>2026-03-15T10:59:59.000Z</time></trkpt>
<trkpt lat="41.72842" lon="23.482967"><ele>2765.9</ele><time>2026-03-15T11:00:00.000Z</time></trkpt>
<trkpt lat="41.728422" lon="23.482968"><ele>2766</ele><time>2026-03-15T11:00:01.000Z</time></trkpt>
<trkpt lat="41.728423" lon="23.482969"><ele>2766</ele><time>2026-03-15T11:00:02.000Z</time></trkpt>
<trkpt lat="41.728425" lon="23.482969"><ele>2766</ele><time>2026-03-15T11:00:03.000Z</time></trkpt>
<trkpt lat="41.728425" lon="23.482969"><ele>2766</ele><time>2026-03-15T11:00:04.000Z</time></trkpt>
<trkpt lat="41.728424" lon="23.48297"><ele>2766</ele><time>2026-03-15T11:00:05.000Z</time></trkpt>
<trkpt lat="41.728424" lon="23.48297"><ele>2766</ele><time>2026-03-15T11:00:06.000Z</time></trkpt>
<trkpt lat="41.728423" lon="23.48297"><ele>2766</ele><time>2026-03-15T11:00:07.000Z</time></trkpt>
<trkpt lat="41.728423" lon="23.48297"><ele>2766</ele><time>2026-03-15T11:00:08.000Z</time></trkpt>
<trkpt lat="41.728423" lon="23.48297"><ele>2766</ele><time>2026-03-15T11:00:09.000Z</time></trkpt>
<trkpt lat="41.728423" lon="23.48297"><ele>2766</ele><time>2026-03-15T11:00:10.000Z</time></trkpt>
<trkpt lat="41.728423" lon="23.48297"><ele>2765.8</ele><time>2026-03-15T11:00:11.000Z</time></trkpt>
<trkpt lat="41.728424" lon="23.48297"><ele>2765.8</ele><time>2026-03-15T11:00:12.000Z</time></trkpt>
<trkpt lat="41.728424" lon="23.48297"><ele>2765.8</ele><time>2026-03-15T11:00:13.000Z</time></trkpt>
<trkpt lat="41.728424" lon="23.482969"><ele>2765.8</ele><time>2026-03-15T11:00:14.000Z</time></trkpt>
<trkpt lat="41.728424" lon="23.482969"><ele>2765.8</ele><time>2026-03-15T11:00:15.000Z</time></trkpt>
<trkpt lat="41.728424" lon="23.482969"><ele>2765.6</ele><time>2026-03-15T11:00:16.000Z</time></trkpt>
<trkpt lat="41.728424" lon="23.48297"><ele>2765.6</ele><time>2026-03-15T11:00:17.000Z</time></trkpt>
<trkpt lat="41.728424" lon="23.482971"><ele>2765.6</ele><time>2026-03-15T11:00:18.000Z</time></trkpt>
<trkpt lat="41.728425" lon="23.482972"><ele>2765.6</ele><time>2026-03-15T11:00:19.000Z</time></trkpt>
<trkpt lat="41.728426" lon="23.482973"><ele>2765.6</ele><time>2026-03-15T11:00:20.000Z</time></trkpt>
<trkpt lat="41.728426" lon="23.482974"><ele>2765.5</ele><time>2026-03-15T11:00:21.000Z</time></trkpt>
<trkpt lat="41.728427" lon="23.482974"><ele>2765.5</ele><time>2026-03-15T11:00:22.000Z</time></trkpt>
<trkpt lat="41.728427" lon="23.482973"><ele>2765.5</ele><time>2026-03-15T11:00:23.000Z</time></trkpt>
<trkpt lat="41.728427" lon="23.482972"><ele>2765.5</ele><time>2026-03-15T11:00:24.000Z</time></trkpt>
<trkpt lat="41.728427" lon="23.482971"><ele>2765.5</ele><time>2026-03-15T11:00:25.000Z</time></trkpt>
<trkpt lat="41.728427" lon="23.48297"><ele>2765.5</ele><time>2026-03-15T11:00:26.000Z</time></trkpt>
<trkpt lat="41.728428" lon="23.482969"><ele>2765.5</ele><time>2026-03-15T11:00:27.000Z</time></trkpt>
<trkpt lat="41.728429" lon="23.482969"><ele>2765.5</ele><time>2026-03-15T11:00:28.000Z</time></trkpt>
<trkpt lat="41.728429" lon="23.482968"><ele>2765.5</ele><time>2026-03-15T11:00:29.000Z</time></trkpt>
<trkpt lat="41.728428" lon="23.482968"><ele>2765.5</ele><time>2026-03-15T11:00:30.000Z</time></trkpt>
<trkpt lat="41.728428" lon="23.482967"><ele>2765.5</ele><time>2026-03-15T11:00:31.000Z</time></trkpt>
<trkpt lat="41.728427" lon="23.482967"><ele>2765.7</ele><time>2026-03-15T11:00:32.000Z</time></trkpt>
<trkpt lat="41.728426" lon="23.482966"><ele>2765.7</ele><time>2026-03-15T11:00:33.000Z</time></trkpt>
<trkpt lat="41.728425" lon="23.482966"><ele>2765.7</ele><time>2026-03-15T11:00:34.000Z</time></trkpt>
<trkpt lat="41.728424" lon="23.482966"><ele>2765.7</ele><time>2026-03-15T11:00:35.000Z</time></trkpt>
<trkpt lat="41.728422" lon="23.482967"><ele>2765.7</ele><time>2026-03-15T11:00:36.000Z</time></trkpt>
<trkpt lat="41.728421" lon="23.482969"><ele>2765.9</ele><time>2026-03-15T11:00:37.000Z</time></trkpt>
<trkpt lat="41.728419" lon="23.482971"><ele>2765.9</ele><time>2026-03-15T11:00:38.000Z</time></trkpt>
<trkpt lat="41.728418" lon="23.482973"><ele>2765.9</ele><time>2026-03-15T11:00:39.000Z</time></trkpt>
<trkpt lat="41.728417" lon="23.482975"><ele>2765.9</ele><time>2026-03-15T11:00:40.000Z</time></trkpt>
<trkpt lat="41.728417" lon="23.482976"><ele>2765.9</ele><time>2026-03-15T11:00:41.000Z</time></trkpt>
<trkpt lat="41.728417" lon="23.482977"><ele>2765.9</ele><time>2026-03-15T11:00:42.000Z</time></trkpt>
<trkpt lat="41.728417" lon="23.482977"><ele>2765.9</ele><time>2026-03-15T11:00:43.000Z</time></trkpt>
<trkpt lat="41.728418" lon="23.482978"><ele>2765.9</ele><time>2026-03-15T11:00:44.000Z</time></trkpt>
<trkpt lat="41.728418" lon="23.482978"><ele>2765.9</ele><time>2026-03-15T11:00:45.000Z</time></trkpt>
<trkpt lat="41.728418" lon="23.482978"><ele>2765.9</ele><time>2026-03-15T11:00:46.000Z</time></trkpt>
<trkpt lat="41.728418" lon="23.482978"><ele>2765.7</ele><time>2026-03-15T11:00:47.000Z</time></trkpt>
<trkpt lat="41.728418" lon="23.482977"><ele>2765.7</ele><time>2026-03-15T11:00:48.000Z</time></trkpt>
<trkpt lat="41.728418" lon="23.482977"><ele>2765.7</ele><time>2026-03-15T11:00:49.000Z</time></trkpt>
<trkpt lat="41.728418" lon="23.482976"><ele>2765.7</ele><time>2026-03-15T11:00:50.000Z</time></trkpt>
<trkpt lat="41.728418" lon="23.482976"><ele>2765.7</ele><time>2026-03-15T11:00:51.000Z</time></trkpt>
<trkpt lat="41.728418" lon="23.482976"><ele>2765.4</ele><time>2026-03-15T11:00:52.000Z</time></trkpt>
<trkpt lat="41.728418" lon="23.482977"><ele>2765.4</ele><time>2026-03-15T11:00:53.000Z</time></trkpt>
<trkpt lat="41.728418" lon="23.482977"><ele>2765.4</ele><time>2026-03-15T11:00:54.000Z</time></trkpt>
<trkpt lat="41.728418" lon="23.482978"><ele>2765.4</ele><time>2026-03-15T11:00:55.000Z</time></trkpt>
<trkpt lat="41.728418" lon="23.482978"><ele>2765.4</ele><time>2026-03-15T11:00:56.000Z</time></trkpt>
<trkpt lat="41.728418" lon="23.482978"><ele>2765.2</ele><time>2026-03-15T11:00:57.000Z</time></trkpt>
<trkpt lat="41.728418" lon="23.482978"><ele>2765.2</ele><time>2026-03-15T11:00:58.000Z</time></trkpt>
<trkpt lat="41.728418" lon="23.482978"><ele>2765.2</ele><time>2026-03-15T11:00:59.000Z</time></trkpt>
<trkpt lat="41.728418" lon="23.482978"><ele>2765.2</ele><time>2026-03-15T11:01:00.000Z</time></trkpt>
<trkpt lat="41.728418" lon="23.482978"><ele>2765.2</ele><time>2026-03-15T11:01:01.000Z</time></trkpt>
<trkpt lat="41.728418" lon="23.482978"><ele>2765.2</ele><time>2026-03-15T11:01:02.000Z</time></trkpt>
<trkpt lat="41.728418" lon="23.482978"><ele>2765.2</ele><time>2026-03-15T11:01:03.000Z</time></trkpt>
<trkpt lat="41.728417" lon="23.482978"><ele>2765.2</ele><time>2026-03-15T11:01:04.000Z</time></trkpt>
<trkpt lat="41.728417" lon="23.482978"><ele>2765.2</ele><time>2026-03-15T11:01:05.000Z</time></trkpt>
<trkpt lat="41.728417" lon="23.482978"><ele>2765.2</ele><time>2026-03-15T11:01:06.000Z</time></trkpt>
<trkpt lat="41.728417" lon="23.482978"><ele>2765.3</ele><time>2026-03-15T11:01:07.000Z</time></trkpt>
<trkpt lat="41.728417" lon="23.482979"><ele>2765.3</ele><time>2026-03-15T11:01:08.000Z</time></trkpt>
<trkpt lat="41.728417" lon="23.482979"><ele>2765.3</ele><time>2026-03-15T11:01:09.000Z</time></trkpt>
<trkpt lat="41.728416" lon="23.48298"><ele>2765.3</ele><time>2026-03-15T11:01:10.000Z</time></trkpt>
<trkpt lat="41.728416" lon="23.482981"><ele>2765.3</ele><time>2026-03-15T11:01:11.000Z</time></trkpt>
<trkpt lat="41.728416" lon="23.482982"><ele>2765.4</ele><time>2026-03-15T11:01:12.000Z</time></trkpt>
<trkpt lat="41.728416" lon="23.482982"><ele>2765.4</ele><time>2026-03-15T11:01:13.000Z</time></trkpt>
<trkpt lat="41.728416" lon="23.482982"><ele>2765.4</ele><time>2026-03-15T11:01:14.000Z</time></trkpt>
<trkpt lat="41.728416" lon="23.482982"><ele>2765.4</ele><time>2026-03-15T11:01:15.000Z</time></trkpt>
<trkpt lat="41.728416" lon="23.482982"><ele>2765.4</ele><time>2026-03-15T11:01:16.000Z</time></trkpt>
<trkpt lat="41.728416" lon="23.482982"><ele>2765.4</ele><time>2026-03-15T11:01:17.000Z</time></trkpt>
<trkpt lat="41.728415" lon="23.482982"><ele>2765.4</ele><time>2026-03-15T11:01:18.000Z</time></trkpt>
<trkpt lat="41.728415" lon="23.482982"><ele>2765.4</ele><time>2026-03-15T11:01:19.000Z</time></trkpt>
<trkpt lat="41.728415" lon="23.482982"><ele>2765.4</ele><time>2026-03-15T11:01:20.000Z</time></trkpt>
<trkpt lat="41.728415" lon="23.482983"><ele>2765.4</ele><time>2026-03-15T11:01:21.000Z</time></trkpt>
<trkpt lat="41.728415" lon="23.482983"><ele>2765.4</ele><time>2026-03-15T11:01:22.000Z</time></trkpt>
<trkpt lat="41.728415" lon="23.482983"><ele>2765.4</ele><time>2026-03-15T11:01:23.000Z</time></trkpt>
<trkpt lat="41.728415" lon="23.482983"><ele>2765.4</ele><time>2026-03-15T11:01:24.000Z</time></trkpt>
<trkpt lat="41.728415" lon="23.482983"><ele>2765.4</ele><time>2026-03-15T11:01:25.000Z</time></trkpt>
<trkpt lat="41.728415" lon="23.482983"><ele>2765.4</ele><time>2026-03-15T11:01:26.000Z</time></trkpt>
<trkpt lat="41.728415" lon="23.482983"><ele>2765.2</ele><time>2026-03-15T11:01:27.000Z</time></trkpt>
<trkpt lat="41.728415" lon="23.482983"><ele>2765.2</ele><time>2026-03-15T11:01:28.000Z</time></trkpt>
<trkpt lat="41.728415" lon="23.482983"><ele>2765.2</ele><time>2026-03-15T11:01:29.000Z</time></trkpt>
<trkpt lat="41.728415" lon="23.482983"><ele>2765.2</ele><time>2026-03-15T11:01:30.000Z</time></trkpt>
<trkpt lat="41.728415" lon="23.482983"><ele>2765.2</ele><time>2026-03-15T11:01:31.000Z</time></trkpt>
<trkpt lat="41.728415" lon="23.482983"><ele>2765.1</ele><time>2026-03-15T11:01:32.000Z</time></trkpt>
<trkpt lat="41.728415" lon="23.482983"><ele>2765.1</ele><time>2026-03-15T11:01:33.000Z</time></trkpt>
<trkpt lat="41.728415" lon="23.482983"><ele>2765.1</ele><time>2026-03-15T11:01:34.000Z</time></trkpt>
<trkpt lat="41.728414" lon="23.482983"><ele>2765.1</ele><time>2026-03-15T11:01:35.000Z</time></trkpt>
<trkpt lat="41.728414" lon="23.482983"><ele>2765.1</ele><time>2026-03-15T11:01:36.000Z</time></trkpt>
<trkpt lat="41.728414" lon="23.482983"><ele>2764.9</ele><time>2026-03-15T11:01:37.000Z</time></trkpt>
<trkpt lat="41.728414" lon="23.482983"><ele>2764.9</ele><time>2026-03-15T11:01:38.000Z</time></trkpt>
<trkpt lat="41.728414" lon="23.482983"><ele>2764.9</ele><time>2026-03-15T11:01:39.000Z</time></trkpt>
<trkpt lat="41.728414" lon="23.482984"><ele>2764.9</ele><time>2026-03-15T11:01:40.000Z</time></trkpt>
<trkpt lat="41.728414" lon="23.482984"><ele>2764.9</ele><time>2026-03-15T11:01:41.000Z</time></trkpt>
<trkpt lat="41.728414" lon="23.482984"><ele>2764.9</ele><time>2026-03-15T11:01:42.000Z</time></trkpt>
<trkpt lat="41.728414" lon="23.482984"><ele>2764.9</ele><time>2026-03-15T11:01:43.000Z</time></trkpt>
<trkpt lat="41.728414" lon="23.482984"><ele>2764.9</ele><time>2026-03-15T11:01:44.000Z</time></trkpt>
<trkpt lat="41.728414" lon="23.482984"><ele>2764.9</ele><time>2026-03-15T11:01:45.000Z</time></trkpt>
<trkpt lat="41.728414" lon="23.482985"><ele>2764.9</ele><time>2026-03-15T11:01:46.000Z</time></trkpt>
<trkpt lat="41.728414" lon="23.482984"><ele>2765</ele><time>2026-03-15T11:01:47.000Z</time></trkpt>
<trkpt lat="41.728414" lon="23.482984"><ele>2765</ele><time>2026-03-15T11:01:48.000Z</time></trkpt>
<trkpt lat="41.728414" lon="23.482984"><ele>2765</ele><time>2026-03-15T11:01:49.000Z</time></trkpt>
<trkpt lat="41.728414" lon="23.482984"><ele>2765</ele><time>2026-03-15T11:01:50.000Z</time></trkpt>
<trkpt lat="41.728415" lon="23.482984"><ele>2765</ele><time>2026-03-15T11:01:51.000Z</time></trkpt>
<trkpt lat="41.728416" lon="23.482985"><ele>2765.3</ele><time>2026-03-15T11:01:52.000Z</time></trkpt>
<trkpt lat="41.728417" lon="23.482986"><ele>2765.3</ele><time>2026-03-15T11:01:53.000Z</time></trkpt>
<trkpt lat="41.728418" lon="23.482987"><ele>2765.3</ele><time>2026-03-15T11:01:54.000Z</time></trkpt>
<trkpt lat="41.728419" lon="23.482988"><ele>2765.3</ele><time>2026-03-15T11:01:55.000Z</time></trkpt>
<trkpt lat="41.728418" lon="23.482988"><ele>2765.3</ele><time>2026-03-15T11:01:56.000Z</time></trkpt>
<trkpt lat="41.728418" lon="23.482987"><ele>2765.7</ele><time>2026-03-15T11:01:57.000Z</time></trkpt>
<trkpt lat="41.728416" lon="23.482987"><ele>2765.7</ele><time>2026-03-15T11:01:58.000Z</time></trkpt>
<trkpt lat="41.728415" lon="23.482987"><ele>2765.7</ele><time>2026-03-15T11:01:59.000Z</time></trkpt>
<trkpt lat="41.728414" lon="23.482987"><ele>2765.7</ele><time>2026-03-15T11:02:00.000Z</time></trkpt>
<trkpt lat="41.728414" lon="23.482987"><ele>2765.7</ele><time>2026-03-15T11:02:01.000Z</time></trkpt>
<trkpt lat="41.728412" lon="23.482987"><ele>2765.8</ele><time>2026-03-15T11:02:02.000Z</time></trkpt>
<trkpt lat="41.728412" lon="23.482986"><ele>2765.8</ele><time>2026-03-15T11:02:03.000Z</time></trkpt>
<trkpt lat="41.728412" lon="23.482986"><ele>2765.8</ele><time>2026-03-15T11:02:04.000Z</time></trkpt>
<trkpt lat="41.728412" lon="23.482985"><ele>2765.8</ele><time>2026-03-15T11:02:05.000Z</time></trkpt>
<trkpt lat="41.728411" lon="23.482985"><ele>2765.8</ele><time>2026-03-15T11:02:06.000Z</time></trkpt>
<trkpt lat="41.728411" lon="23.482985"><ele>2765.9</ele><time>2026-03-15T11:02:07.000Z</time></trkpt>
<trkpt lat="41.728411" lon="23.482985"><ele>2765.9</ele><time>2026-03-15T11:02:08.000Z</time></trkpt>
<trkpt lat="41.728412" lon="23.482985"><ele>2765.9</ele><time>2026-03-15T11:02:09.000Z</time></trkpt>
<trkpt lat="41.728412" lon="23.482985"><ele>2765.9</ele><time>2026-03-15T11:02:10.000Z</time></trkpt>
<trkpt lat="41.728412" lon="23.482985"><ele>2765.9</ele><time>2026-03-15T11:02:11.000Z</time></trkpt>
<trkpt lat="41.728413" lon="23.482985"><ele>2765.6</ele><time>2026-03-15T11:02:12.000Z</time></trkpt>
<trkpt lat="41.728413" lon="23.482986"><ele>2765.6</ele><time>2026-03-15T11:02:13.000Z</time></trkpt>
<trkpt lat="41.728413" lon="23.482986"><ele>2765.6</ele><time>2026-03-15T11:02:14.000Z</time></trkpt>
<trkpt lat="41.728414" lon="23.482987"><ele>2765.6</ele><time>2026-03-15T11:02:15.000Z</time></trkpt>
<trkpt lat="41.728414" lon="23.482987"><ele>2765.6</ele><time>2026-03-15T11:02:16.000Z</time></trkpt>
<trkpt lat="41.728414" lon="23.482988"><ele>2765.5</ele><time>2026-03-15T11:02:17.000Z</time></trkpt>
<trkpt lat="41.728415" lon="23.482989"><ele>2765.5</ele><time>2026-03-15T11:02:18.000Z</time></trkpt>
<trkpt lat="41.728415" lon="23.48299"><ele>2765.5</ele><time>2026-03-15T11:02:19.000Z</time></trkpt>
<trkpt lat="41.728415" lon="23.482991"><ele>2765.5</ele><time>2026-03-15T11:02:20.000Z</time></trkpt>
<trkpt lat="41.728415" lon="23.482992"><ele>2765.5</ele><time>2026-03-15T11:02:21.000Z</time></trkpt>
<trkpt lat="41.728416" lon="23.482991"><ele>2765.3</ele><time>2026-03-15T11:02:22.000Z</time></trkpt>
<trkpt lat="41.728418" lon="23.482991"><ele>2765.3</ele><time>2026-03-15T11:02:23.000Z</time></trkpt>
<trkpt lat="41.72842" lon="23.48299"><ele>2765.3</ele><time>2026-03-15T11:02:24.000Z</time></trkpt>
<trkpt lat="41.728423" lon="23.48299"><ele>2765.3</ele><time>2026-03-15T11:02:25.000Z</time></trkpt>
<trkpt lat="41.728425" lon="23.482991"><ele>2765.3</ele><time>2026-03-15T11:02:26.000Z</time></trkpt>
<trkpt lat="41.728426" lon="23.482995"><ele>2765.2</ele><time>2026-03-15T11:02:27.000Z</time></trkpt>
<trkpt lat="41.728425" lon="23.482999"><ele>2765.2</ele><time>2026-03-15T11:02:28.000Z</time></trkpt>
<trkpt lat="41.728423" lon="23.483003"><ele>2765.2</ele><time>2026-03-15T11:02:29.000Z</time></trkpt>
<trkpt lat="41.728421" lon="23.483007"><ele>2765.2</ele><time>2026-03-15T11:02:30.000Z</time></trkpt>
<trkpt lat="41.728419" lon="23.483009"><ele>2765.2</ele><time>2026-03-15T11:02:31.000Z</time></trkpt>
<trkpt lat="41.728419" lon="23.483009"><ele>2765.2</ele><time>2026-03-15T11:02:32.000Z</time></trkpt>
<trkpt lat="41.728419" lon="23.483009"><ele>2765.2</ele><time>2026-03-15T11:02:33.000Z</time></trkpt>
<trkpt lat="41.728418" lon="23.483008"><ele>2765.2</ele><time>2026-03-15T11:02:34.000Z</time></trkpt>
<trkpt lat="41.728418" lon="23.483008"><ele>2765.2</ele><time>2026-03-15T11:02:35.000Z</time></trkpt>
<trkpt lat="41.728418" lon="23.483008"><ele>2765.2</ele><time>2026-03-15T11:02:36.000Z</time></trkpt>
<trkpt lat="41.728418" lon="23.483008"><ele>2765.4</ele><time>2026-03-15T11:02:37.000Z</time></trkpt>
<trkpt lat="41.728418" lon="23.483008"><ele>2765.4</ele><time>2026-03-15T11:02:38.000Z</time></trkpt>
<trkpt lat="41.728418" lon="23.483007"><ele>2765.4</ele><time>2026-03-15T11:02:39.000Z</time></trkpt>
<trkpt lat="41.728418" lon="23.483007"><ele>2765.4</ele><time>2026-03-15T11:02:40.000Z</time></trkpt>
<trkpt lat="41.728419" lon="23.483006"><ele>2765.4</ele><time>2026-03-15T11:02:41.000Z</time></trkpt>
<trkpt lat="41.728419" lon="23.483006"><ele>2765.5</ele><time>2026-03-15T11:02:42.000Z</time></trkpt>
<trkpt lat="41.728419" lon="23.483005"><ele>2765.5</ele><time>2026-03-15T11:02:43.000Z</time></trkpt>
<trkpt lat="41.728419" lon="23.483005"><ele>2765.5</ele><time>2026-03-15T11:02:44.000Z</time></trkpt>
<trkpt lat="41.728419" lon="23.483005"><ele>2765.5</ele><time>2026-03-15T11:02:45.000Z</time></trkpt>
<trkpt lat="41.728419" lon="23.483005"><ele>2765.5</ele><time>2026-03-15T11:02:46.000Z</time></trkpt>
<trkpt lat="41.728419" lon="23.483005"><ele>2765.4</ele><time>2026-03-15T11:02:47.000Z</time></trkpt>
<trkpt lat="41.728419" lon="23.483005"><ele>2765.4</ele><time>2026-03-15T11:02:48.000Z</time></trkpt>
<trkpt lat="41.728419" lon="23.483005"><ele>2765.4</ele><time>2026-03-15T11:02:49.000Z</time></trkpt>
<trkpt lat="41.728419" lon="23.483004"><ele>2765.4</ele><time>2026-03-15T11:02:50.000Z</time></trkpt>
<trkpt lat="41.728419" lon="23.483004"><ele>2765.4</ele><time>2026-03-15T11:02:51.000Z</time></trkpt>
<trkpt lat="41.728419" lon="23.483003"><ele>2765.1</ele><time>2026-03-15T11:02:52.000Z</time></trkpt>
<trkpt lat="41.728419" lon="23.483003"><ele>2765.1</ele><time>2026-03-15T11:02:53.000Z</time></trkpt>
<trkpt lat="41.728419" lon="23.483003"><ele>2765.1</ele><time>2026-03-15T11:02:54.000Z</time></trkpt>
<trkpt lat="41.728419" lon="23.483003"><ele>2765.1</ele><time>2026-03-15T11:02:55.000Z</time></trkpt>
<trkpt lat="41.728419" lon="23.483003"><ele>2765.1</ele><time>2026-03-15T11:02:56.000Z</time></trkpt>
<trkpt lat="41.728419" lon="23.483003"><ele>2765</ele><time>2026-03-15T11:02:57.000Z</time></trkpt>
<trkpt lat="41.728419" lon="23.483003"><ele>2765</ele><time>2026-03-15T11:02:58.000Z</time></trkpt>
<trkpt lat="41.728419" lon="23.483003"><ele>2765</ele><time>2026-03-15T11:02:59.000Z</time></trkpt>
<trkpt lat="41.728419" lon="23.483003"><ele>2765</ele><time>2026-03-15T11:03:00.000Z</time></trkpt>
<trkpt lat="41.728419" lon="23.483003"><ele>2765</ele><time>2026-03-15T11:03:01.000Z</time></trkpt>
<trkpt lat="41.728419" lon="23.483003"><ele>2765</ele><time>2026-03-15T11:03:02.000Z</time></trkpt>
<trkpt lat="41.728419" lon="23.483003"><ele>2765</ele><time>2026-03-15T11:03:03.000Z</time></trkpt>
<trkpt lat="41.728419" lon="23.483003"><ele>2765</ele><time>2026-03-15T11:03:04.000Z</time></trkpt>
<trkpt lat="41.728418" lon="23.483004"><ele>2765</ele><time>2026-03-15T11:03:05.000Z</time></trkpt>
<trkpt lat="41.728418" lon="23.483004"><ele>2765</ele><time>2026-03-15T11:03:06.000Z</time></trkpt>
<trkpt lat="41.728417" lon="23.483003"><ele>2765</ele><time>2026-03-15T11:03:07.000Z</time></trkpt>
<trkpt lat="41.728416" lon="23.483003"><ele>2765</ele><time>2026-03-15T11:03:08.000Z</time></trkpt>
<trkpt lat="41.728415" lon="23.483003"><ele>2765</ele><time>2026-03-15T11:03:09.000Z</time></trkpt>
<trkpt lat="41.728415" lon="23.483002"><ele>2765</ele><time>2026-03-15T11:03:10.000Z</time></trkpt>
<trkpt lat="41.728416" lon="23.483003"><ele>2765</ele><time>2026-03-15T11:03:11.000Z</time></trkpt>
<trkpt lat="41.728416" lon="23.483003"><ele>2765</ele><time>2026-03-15T11:03:12.000Z</time></trkpt>
<trkpt lat="41.728417" lon="23.483004"><ele>2765</ele><time>2026-03-15T11:03:13.000Z</time></trkpt>
<trkpt lat="41.728417" lon="23.483005"><ele>2765</ele><time>2026-03-15T11:03:14.000Z</time></trkpt>
<trkpt lat="41.728417" lon="23.483005"><ele>2765</ele><time>2026-03-15T11:03:15.000Z</time></trkpt>
<trkpt lat="41.728417" lon="23.483006"><ele>2765</ele><time>2026-03-15T11:03:16.000Z</time></trkpt>
<trkpt lat="41.728417" lon="23.483006"><ele>2765</ele><time>2026-03-15T11:03:17.000Z</time></trkpt>
<trkpt lat="41.728416" lon="23.483006"><ele>2765</ele><time>2026-03-15T11:03:18.000Z</time></trkpt>
<trkpt lat="41.728416" lon="23.483006"><ele>2765</ele><time>2026-03-15T11:03:19.000Z</time></trkpt>
<trkpt lat="41.728416" lon="23.483006"><ele>2765</ele><time>2026-03-15T11:03:20.000Z</time></trkpt>
<trkpt lat="41.728416" lon="23.483006"><ele>2765</ele><time>2026-03-15T11:03:21.000Z</time></trkpt>
<trkpt lat="41.728416" lon="23.483006"><ele>2765</ele><time>2026-03-15T11:03:22.000Z</time></trkpt>
<trkpt lat="41.728416" lon="23.483006"><ele>2765</ele><time>2026-03-15T11:03:23.000Z</time></trkpt>
<trkpt lat="41.728416" lon="23.483006"><ele>2765</ele><time>2026-03-15T11:03:24.000Z</time></trkpt>
<trkpt lat="41.728416" lon="23.483006"><ele>2765</ele><time>2026-03-15T11:03:25.000Z</time></trkpt>
<trkpt lat="41.728416" lon="23.483006"><ele>2765</ele><time>2026-03-15T11:03:26.000Z</time></trkpt>
<trkpt lat="41.728416" lon="23.483006"><ele>2764.9</ele><time>2026-03-15T11:03:27.000Z</time></trkpt>
<trkpt lat="41.728416" lon="23.483006"><ele>2764.9</ele><time>2026-03-15T11:03:28.000Z</time></trkpt>
<trkpt lat="41.728416" lon="23.483006"><ele>2764.9</ele><time>2026-03-15T11:03:29.000Z</time></trkpt>
<trkpt lat="41.728415" lon="23.483008"><ele>2764.9</ele><time>2026-03-15T11:03:30.000Z</time></trkpt>
<trkpt lat="41.728414" lon="23.48301"><ele>2764.9</ele><time>2026-03-15T11:03:31.000Z</time></trkpt>
<trkpt lat="41.728412" lon="23.483013"><ele>2764.8</ele><time>2026-03-15T11:03:32.000Z</time></trkpt>
<trkpt lat="41.728409" lon="23.483018"><ele>2764.8</ele><time>2026-03-15T11:03:33.000Z</time></trkpt>
<trkpt lat="41.728406" lon="23.483025"><ele>2764.8</ele><time>2026-03-15T11:03:34.000Z</time></trkpt>
<trkpt lat="41.728403" lon="23.483031"><ele>2764.8</ele><time>2026-03-15T11:03:35.000Z</time></trkpt>
<trkpt lat="41.728399" lon="23.483039"><ele>2764.8</ele><time>2026-03-15T11:03:36.000Z</time></trkpt>
<trkpt lat="41.728396" lon="23.483047"><ele>2764.5</ele><time>2026-03-15T11:03:37.000Z</time></trkpt>
<trkpt lat="41.728393" lon="23.483055"><ele>2764.5</ele><time>2026-03-15T11:03:38.000Z</time></trkpt>
<trkpt lat="41.72839" lon="23.483061"><ele>2764.5</ele><time>2026-03-15T11:03:39.000Z</time></trkpt>
<trkpt lat="41.728389" lon="23.483067"><ele>2764.5</ele><time>2026-03-15T11:03:40.000Z</time></trkpt>
<trkpt lat="41.728388" lon="23.48307"><ele>2764.5</ele><time>2026-03-15T11:03:41.000Z</time></trkpt>
<trkpt lat="41.728387" lon="23.483073"><ele>2764.1</ele><time>2026-03-15T11:03:42.000Z</time></trkpt>
<trkpt lat="41.728387" lon="23.483074"><ele>2764.1</ele><time>2026-03-15T11:03:43.000Z</time></trkpt>
<trkpt lat="41.728388" lon="23.483075"><ele>2764.1</ele><time>2026-03-15T11:03:44.000Z</time></trkpt>
<trkpt lat="41.728387" lon="23.483075"><ele>2764.1</ele><time>2026-03-15T11:03:45.000Z</time></trkpt>
<trkpt lat="41.728386" lon="23.483077"><ele>2764.1</ele><time>2026-03-15T11:03:46.000Z</time></trkpt>
<trkpt lat="41.728386" lon="23.48308"><ele>2763.9</ele><time>2026-03-15T11:03:47.000Z</time></trkpt>
<trkpt lat="41.728385" lon="23.483083"><ele>2763.9</ele><time>2026-03-15T11:03:48.000Z</time></trkpt>
<trkpt lat="41.728384" lon="23.483086"><ele>2763.9</ele><time>2026-03-15T11:03:49.000Z</time></trkpt>
<trkpt lat="41.728383" lon="23.48309"><ele>2763.9</ele><time>2026-03-15T11:03:50.000Z</time></trkpt>
<trkpt lat="41.728381" lon="23.483094"><ele>2763.9</ele><time>2026-03-15T11:03:51.000Z</time></trkpt>
<trkpt lat="41.728379" lon="23.483099"><ele>2763.4</ele><time>2026-03-15T11:03:52.000Z</time></trkpt>
<trkpt lat="41.728375" lon="23.483103"><ele>2763.4</ele><time>2026-03-15T11:03:53.000Z</time></trkpt>
<trkpt lat="41.728371" lon="23.483109"><ele>2763.4</ele><time>2026-03-15T11:03:54.000Z</time></trkpt>
<trkpt lat="41.728365" lon="23.483116"><ele>2763.4</ele><time>2026-03-15T11:03:55.000Z</time></trkpt>
<trkpt lat="41.72836" lon="23.483122"><ele>2763.4</ele><time>2026-03-15T11:03:56.000Z</time></trkpt>
<trkpt lat="41.728354" lon="23.483128"><ele>2762.9</ele><time>2026-03-15T11:03:57.000Z</time></trkpt>
<trkpt lat="41.728347" lon="23.483133"><ele>2762.9</ele><time>2026-03-15T11:03:58.000Z</time></trkpt>
<trkpt lat="41.728341" lon="23.483138"><ele>2762.9</ele><time>2026-03-15T11:03:59.000Z</time></trkpt>
<trkpt lat="41.728335" lon="23.483143"><ele>2762.9</ele><time>2026-03-15T11:04:00.000Z</time></trkpt>
<trkpt lat="41.728329" lon="23.483148"><ele>2762.9</ele><time>2026-03-15T11:04:01.000Z</time></trkpt>
<trkpt lat="41.728324" lon="23.483152"><ele>2762.6</ele><time>2026-03-15T11:04:02.000Z</time></trkpt>
<trkpt lat="41.72832" lon="23.483158"><ele>2762.6</ele><time>2026-03-15T11:04:03.000Z</time></trkpt>
<trkpt lat="41.728315" lon="23.483162"><ele>2762.6</ele><time>2026-03-15T11:04:04.000Z</time></trkpt>
<trkpt lat="41.72831" lon="23.483167"><ele>2762.6</ele><time>2026-03-15T11:04:05.000Z</time></trkpt>
<trkpt lat="41.728304" lon="23.483171"><ele>2762.6</ele><time>2026-03-15T11:04:06.000Z</time></trkpt>
<trkpt lat="41.728299" lon="23.483175"><ele>2761.4</ele><time>2026-03-15T11:04:07.000Z</time></trkpt>
<trkpt lat="41.728293" lon="23.483179"><ele>2761.4</ele><time>2026-03-15T11:04:08.000Z</time></trkpt>
<trkpt lat="41.728287" lon="23.483182"><ele>2761.4</ele><time>2026-03-15T11:04:09.000Z</time></trkpt>
<trkpt lat="41.728282" lon="23.483184"><ele>2761.4</ele><time>2026-03-15T11:04:10.000Z</time></trkpt>
<trkpt lat="41.728279" lon="23.483185"><ele>2761.4</ele><time>2026-03-15T11:04:11.000Z</time></trkpt>
<trkpt lat="41.728274" lon="23.483184"><ele>2759.8</ele><time>2026-03-15T11:04:12.000Z</time></trkpt>
<trkpt lat="41.72827" lon="23.483182"><ele>2759.8</ele><time>2026-03-15T11:04:13.000Z</time></trkpt>
<trkpt lat="41.728266" lon="23.48318"><ele>2759.8</ele><time>2026-03-15T11:04:14.000Z</time></trkpt>
<trkpt lat="41.72826" lon="23.483178"><ele>2759.8</ele><time>2026-03-15T11:04:15.000Z</time></trkpt>
<trkpt lat="41.728254" lon="23.483177"><ele>2759.8</ele><time>2026-03-15T11:04:16.000Z</time></trkpt>
<trkpt lat="41.728248" lon="23.483178"><ele>2759</ele><time>2026-03-15T11:04:17.000Z</time></trkpt>
<trkpt lat="41.728244" lon="23.483179"><ele>2759</ele><time>2026-03-15T11:04:18.000Z</time></trkpt>
<trkpt lat="41.728241" lon="23.483179"><ele>2759</ele><time>2026-03-15T11:04:19.000Z</time></trkpt>
<trkpt lat="41.728239" lon="23.483178"><ele>2759</ele><time>2026-03-15T11:04:20.000Z</time></trkpt>
<trkpt lat="41.728238" lon="23.483178"><ele>2759</ele><time>2026-03-15T11:04:21.000Z</time></trkpt>
<trkpt lat="41.728239" lon="23.483177"><ele>2757.5</ele><time>2026-03-15T11:04:22.000Z</time></trkpt>
<trkpt lat="41.72824" lon="23.483176"><ele>2757.5</ele><time>2026-03-15T11:04:23.000Z</time></trkpt>
<trkpt lat="41.72824" lon="23.483176"><ele>2757.5</ele><time>2026-03-15T11:04:24.000Z</time></trkpt>
<trkpt lat="41.728241" lon="23.483176"><ele>2757.5</ele><time>2026-03-15T11:04:25.000Z</time></trkpt>
<trkpt lat="41.728241" lon="23.483175"><ele>2757.5</ele><time>2026-03-15T11:04:26.000Z</time></trkpt>
<trkpt lat="41.728241" lon="23.483175"><ele>2756.2</ele><time>2026-03-15T11:04:27.000Z</time></trkpt>
<trkpt lat="41.728241" lon="23.483175"><ele>2756.2</ele><time>2026-03-15T11:04:28.000Z</time></trkpt>
<trkpt lat="41.728241" lon="23.483176"><ele>2756.2</ele><time>2026-03-15T11:04:29.000Z</time></trkpt>
<trkpt lat="41.72824" lon="23.483178"><ele>2756.2</ele><time>2026-03-15T11:04:30.000Z</time></trkpt>
<trkpt lat="41.728238" lon="23.483181"><ele>2756.2</ele><time>2026-03-15T11:04:31.000Z</time></trkpt>
<trkpt lat="41.728235" lon="23.483185"><ele>2755.7</ele><time>2026-03-15T11:04:32.000Z</time></trkpt>
<trkpt lat="41.728231" lon="23.48319"><ele>2755.7</ele><time>2026-03-15T11:04:33.000Z</time></trkpt>
<trkpt lat="41.728226" lon="23.483193"><ele>2755.7</ele><time>2026-03-15T11:04:34.000Z</time></trkpt>
<trkpt lat="41.728219" lon="23.483197"><ele>2755.7</ele><time>2026-03-15T11:04:35.000Z</time></trkpt>
<trkpt lat="41.728213" lon="23.4832"><ele>2755.7</ele><time>2026-03-15T11:04:36.000Z</time></trkpt>
<trkpt lat="41.728206" lon="23.483203"><ele>2755.1</ele><time>2026-03-15T11:04:37.000Z</time></trkpt>
<trkpt lat="41.7282" lon="23.483205"><ele>2755.1</ele><time>2026-03-15T11:04:38.000Z</time></trkpt>
<trkpt lat="41.728194" lon="23.483208"><ele>2755.1</ele><time>2026-03-15T11:04:39.000Z</time></trkpt>
<trkpt lat="41.728189" lon="23.48321"><ele>2755.1</ele><time>2026-03-15T11:04:40.000Z</time></trkpt>
<trkpt lat="41.728184" lon="23.483213"><ele>2755.1</ele><time>2026-03-15T11:04:41.000Z</time></trkpt>
<trkpt lat="41.72818" lon="23.483217"><ele>2754.6</ele><time>2026-03-15T11:04:42.000Z</time></trkpt>
<trkpt lat="41.728176" lon="23.483219"><ele>2754.6</ele><time>2026-03-15T11:04:43.000Z</time></trkpt>
<trkpt lat="41.728174" lon="23.483221"><ele>2754.6</ele><time>2026-03-15T11:04:44.000Z</time></trkpt>
<trkpt lat="41.728173" lon="23.483222"><ele>2754.6</ele><time>2026-03-15T11:04:45.000Z</time></trkpt>
<trkpt lat="41.728172" lon="23.483222"><ele>2754.6</ele><time>2026-03-15T11:04:46.000Z</time></trkpt>
<trkpt lat="41.728172" lon="23.483221"><ele>2754.3</ele><time>2026-03-15T11:04:47.000Z</time></trkpt>
<trkpt lat="41.728172" lon="23.483221"><ele>2754.3</ele><time>2026-03-15T11:04:48.000Z</time></trkpt>
<trkpt lat="41.728173" lon="23.483221"><ele>2754.3</ele><time>2026-03-15T11:04:49.000Z</time></trkpt>
<trkpt lat="41.728173" lon="23.483221"><ele>2754.3</ele><time>2026-03-15T11:04:50.000Z</time></trkpt>
<trkpt lat="41.728172" lon="23.483222"><ele>2754.3</ele><time>2026-03-15T11:04:51.000Z</time></trkpt>
<trkpt lat="41.728171" lon="23.483223"><ele>2753</ele><time>2026-03-15T11:04:52.000Z</time></trkpt>
<trkpt lat="41.728169" lon="23.483224"><ele>2753</ele><time>2026-03-15T11:04:53.000Z</time></trkpt>
<trkpt lat="41.728165" lon="23.483225"><ele>2753</ele><time>2026-03-15T11:04:54.000Z</time></trkpt>
<trkpt lat="41.728161" lon="23.483228"><ele>2753</ele><time>2026-03-15T11:04:55.000Z</time></trkpt>
<trkpt lat="41.728158" lon="23.483231"><ele>2753</ele><time>2026-03-15T11:04:56.000Z</time></trkpt>
<trkpt lat="41.728155" lon="23.483235"><ele>2751.8</ele><time>2026-03-15T11:04:57.000Z</time></trkpt>
<trkpt lat="41.728153" lon="23.483239"><ele>2751.8</ele><time>2026-03-15T11:04:58.000Z</time></trkpt>
<trkpt lat="41.728151" lon="23.483244"><ele>2751.8</ele><time>2026-03-15T11:04:59.000Z</time></trkpt>
<trkpt lat="41.728149" lon="23.483249"><ele>2751.8</ele><time>2026-03-15T11:05:00.000Z</time></trkpt>
<trkpt lat="41.728146" lon="23.483254"><ele>2751.8</ele><time>2026-03-15T11:05:01.000Z</time></trkpt>
<trkpt lat="41.728143" lon="23.483259"><ele>2751.4</ele><time>2026-03-15T11:05:02.000Z</time></trkpt>
<trkpt lat="41.728139" lon="23.483265"><ele>2751.4</ele><time>2026-03-15T11:05:03.000Z</time></trkpt>
<trkpt lat="41.728135" lon="23.483271"><ele>2751.4</ele><time>2026-03-15T11:05:04.000Z</time></trkpt>
<trkpt lat="41.728132" lon="23.483277"><ele>2751.4</ele><time>2026-03-15T11:05:05.000Z</time></trkpt>
<trkpt lat="41.728129" lon="23.483282"><ele>2751.4</ele><time>2026-03-15T11:05:06.000Z</time></trkpt>
<trkpt lat="41.728128" lon="23.483287"><ele>2750.5</ele><time>2026-03-15T11:05:07.000Z</time></trkpt>
<trkpt lat="41.728127" lon="23.483292"><ele>2750.5</ele><time>2026-03-15T11:05:08.000Z</time></trkpt>
<trkpt lat="41.728126" lon="23.483296"><ele>2750.5</ele><time>2026-03-15T11:05:09.000Z</time></trkpt>
<trkpt lat="41.728126" lon="23.483302"><ele>2750.5</ele><time>2026-03-15T11:05:10.000Z</time></trkpt>
<trkpt lat="41.728125" lon="23.483308"><ele>2750.5</ele><time>2026-03-15T11:05:11.000Z</time></trkpt>
<trkpt lat="41.728124" lon="23.483313"><ele>2749.7</ele><time>2026-03-15T11:05:12.000Z</time></trkpt>
<trkpt lat="41.728122" lon="23.483318"><ele>2749.7</ele><time>2026-03-15T11:05:13.000Z</time></trkpt>
<trkpt lat="41.72812" lon="23.483323"><ele>2749.7</ele><time>2026-03-15T11:05:14.000Z</time></trkpt>
<trkpt lat="41.728118" lon="23.483328"><ele>2749.7</ele><time>2026-03-15T11:05:15.000Z</time></trkpt>
<trkpt lat="41.728115" lon="23.483333"><ele>2749.7</ele><time>2026-03-15T11:05:16.000Z</time></trkpt>
<trkpt lat="41.728113" lon="23.483337"><ele>2749.2</ele><time>2026-03-15T11:05:17.000Z</time></trkpt>
<trkpt lat="41.728109" lon="23.483343"><ele>2749.2</ele><time>2026-03-15T11:05:18.000Z</time></trkpt>
<trkpt lat="41.728106" lon="23.483349"><ele>2749.2</ele><time>2026-03-15T11:05:19.000Z</time></trkpt>
<trkpt lat="41.728104" lon="23.483355"><ele>2749.2</ele><time>2026-03-15T11:05:20.000Z</time></trkpt>
<trkpt lat="41.728102" lon="23.483359"><ele>2749.2</ele><time>2026-03-15T11:05:21.000Z</time></trkpt>
<trkpt lat="41.728099" lon="23.483363"><ele>2748.2</ele><time>2026-03-15T11:05:22.000Z</time></trkpt>
<trkpt lat="41.728096" lon="23.483367"><ele>2748.2</ele><time>2026-03-15T11:05:23.000Z</time></trkpt>
<trkpt lat="41.728094" lon="23.483372"><ele>2748.2</ele><time>2026-03-15T11:05:24.000Z</time></trkpt>
<trkpt lat="41.728091" lon="23.483376"><ele>2748.2</ele><time>2026-03-15T11:05:25.000Z</time></trkpt>
<trkpt lat="41.728088" lon="23.483382"><ele>2748.2</ele><time>2026-03-15T11:05:26.000Z</time></trkpt>
<trkpt lat="41.728085" lon="23.483389"><ele>2747.1</ele><time>2026-03-15T11:05:27.000Z</time></trkpt>
<trkpt lat="41.728083" lon="23.483397"><ele>2747.1</ele><time>2026-03-15T11:05:28.000Z</time></trkpt>
<trkpt lat="41.72808" lon="23.483404"><ele>2747.1</ele><time>2026-03-15T11:05:29.000Z</time></trkpt>
<trkpt lat="41.728076" lon="23.483411"><ele>2747.1</ele><time>2026-03-15T11:05:30.000Z</time></trkpt>
<trkpt lat="41.728072" lon="23.483417"><ele>2747.1</ele><time>2026-03-15T11:05:31.000Z</time></trkpt>
<trkpt lat="41.728068" lon="23.483424"><ele>2746.5</ele><time>2026-03-15T11:05:32.000Z</time></trkpt>
<trkpt lat="41.728063" lon="23.483432"><ele>2746.5</ele><time>2026-03-15T11:05:33.000Z</time></trkpt>
<trkpt lat="41.728059" lon="23.48344"><ele>2746.5</ele><time>2026-03-15T11:05:34.000Z</time></trkpt>
<trkpt lat="41.728055" lon="23.483447"><ele>2746.5</ele><time>2026-03-15T11:05:35.000Z</time></trkpt>
<trkpt lat="41.72805" lon="23.483455"><ele>2746.5</ele><time>2026-03-15T11:05:36.000Z</time></trkpt>
<trkpt lat="41.728047" lon="23.483462"><ele>2745.1</ele><time>2026-03-15T11:05:37.000Z</time></trkpt>
<trkpt lat="41.728044" lon="23.483468"><ele>2745.1</ele><time>2026-03-15T11:05:38.000Z</time></trkpt>
<trkpt lat="41.72804" lon="23.483474"><ele>2745.1</ele><time>2026-03-15T11:05:39.000Z</time></trkpt>
<trkpt lat="41.728037" lon="23.483479"><ele>2745.1</ele><time>2026-03-15T11:05:40.000Z</time></trkpt>
<trkpt lat="41.728033" lon="23.483485"><ele>2745.1</ele><time>2026-03-15T11:05:41.000Z</time></trkpt>
<trkpt lat="41.728029" lon="23.483492"><ele>2743.7</ele><time>2026-03-15T11:05:42.000Z</time></trkpt>
<trkpt lat="41.728024" lon="23.4835"><ele>2743.7</ele><time>2026-03-15T11:05:43.000Z</time></trkpt>
<trkpt lat="41.728018" lon="23.483508"><ele>2743.7</ele><time>2026-03-15T11:05:44.000Z</time></trkpt>
<trkpt lat="41.728012" lon="23.483517"><ele>2743.7</ele><time>2026-03-15T11:05:45.000Z</time></trkpt>
<trkpt lat="41.728006" lon="23.483526"><ele>2743.7</ele><time>2026-03-15T11:05:46.000Z</time></trkpt>
<trkpt lat="41.728" lon="23.483534"><ele>2743</ele><time>2026-03-15T11:05:47.000Z</time></trkpt>
<trkpt lat="41.727995" lon="23.483542"><ele>2743</ele><time>2026-03-15T11:05:48.000Z</time></trkpt>
<trkpt lat="41.72799" lon="23.48355"><ele>2743</ele><time>2026-03-15T11:05:49.000Z</time></trkpt>
<trkpt lat="41.727986" lon="23.483557"><ele>2743</ele><time>2026-03-15T11:05:50.000Z</time></trkpt>
<trkpt lat="41.727982" lon="23.483564"><ele>2743</ele><time>2026-03-15T11:05:51.000Z</time></trkpt>
<trkpt lat="41.727978" lon="23.483571"><ele>2741.4</ele><time>2026-03-15T11:05:52.000Z</time></trkpt>
<trkpt lat="41.727973" lon="23.483578"><ele>2741.4</ele><time>2026-03-15T11:05:53.000Z</time></trkpt>
<trkpt lat="41.727969" lon="23.483584"><ele>2741.4</ele><time>2026-03-15T11:05:54.000Z</time></trkpt>
<trkpt lat="41.727963" lon="23.483589"><ele>2741.4</ele><time>2026-03-15T11:05:55.000Z</time></trkpt>
<trkpt lat="41.727956" lon="23.483592"><ele>2741.4</ele><time>2026-03-15T11:05:56.000Z</time></trkpt>
<trkpt lat="41.72795" lon="23.483595"><ele>2739.2</ele><time>2026-03-15T11:05:57.000Z</time></trkpt>
<trkpt lat="41.727944" lon="23.483597"><ele>2739.2</ele><time>2026-03-15T11:05:58.000Z</time></trkpt>
<trkpt lat="41.727939" lon="23.483599"><ele>2739.2</ele><time>2026-03-15T11:05:59.000Z</time></trkpt>
<trkpt lat="41.727935" lon="23.483601"><ele>2739.2</ele><time>2026-03-15T11:06:00.000Z</time></trkpt>
<trkpt lat="41.727931" lon="23.483605"><ele>2739.2</ele><time>2026-03-15T11:06:01.000Z</time></trkpt>
<trkpt lat="41.727928" lon="23.483609"><ele>2737.9</ele><time>2026-03-15T11:06:02.000Z</time></trkpt>
<trkpt lat="41.727926" lon="23.483614"><ele>2737.9</ele><time>2026-03-15T11:06:03.000Z</time></trkpt>
<trkpt lat="41.727924" lon="23.48362"><ele>2737.9</ele><time>2026-03-15T11:06:04.000Z</time></trkpt>
<trkpt lat="41.727921" lon="23.483626"><ele>2737.9</ele><time>2026-03-15T11:06:05.000Z</time></trkpt>
<trkpt lat="41.727919" lon="23.483632"><ele>2737.9</ele><time>2026-03-15T11:06:06.000Z</time></trkpt>
<trkpt lat="41.727918" lon="23.483638"><ele>2735.2</ele><time>2026-03-15T11:06:07.000Z</time></trkpt>
<trkpt lat="41.727916" lon="23.483643"><ele>2735.2</ele><time>2026-03-15T11:06:08.000Z</time></trkpt>
<trkpt lat="41.727913" lon="23.483648"><ele>2735.2</ele><time>2026-03-15T11:06:09.000Z</time></trkpt>
<trkpt lat="41.72791" lon="23.483653"><ele>2735.2</ele><time>2026-03-15T11:06:10.000Z</time></trkpt>
<trkpt lat="41.727907" lon="23.483657"><ele>2735.2</ele><time>2026-03-15T11:06:11.000Z</time></trkpt>
<trkpt lat="41.727903" lon="23.483661"><ele>2733.1</ele><time>2026-03-15T11:06:12.000Z</time></trkpt>
<trkpt lat="41.727901" lon="23.483665"><ele>2733.1</ele><time>2026-03-15T11:06:13.000Z</time></trkpt>
<trkpt lat="41.727898" lon="23.483669"><ele>2733.1</ele><time>2026-03-15T11:06:14.000Z</time></trkpt>
<trkpt lat="41.727895" lon="23.483672"><ele>2733.1</ele><time>2026-03-15T11:06:15.000Z</time></trkpt>
<trkpt lat="41.727893" lon="23.483676"><ele>2733.1</ele><time>2026-03-15T11:06:16.000Z</time></trkpt>
<trkpt lat="41.727892" lon="23.483677"><ele>2732.2</ele><time>2026-03-15T11:06:17.000Z</time></trkpt>
<trkpt lat="41.727891" lon="23.483679"><ele>2732.2</ele><time>2026-03-15T11:06:18.000Z</time></trkpt>
<trkpt lat="41.727891" lon="23.48368"><ele>2732.2</ele><time>2026-03-15T11:06:19.000Z</time></trkpt>
<trkpt lat="41.727892" lon="23.48368"><ele>2732.2</ele><time>2026-03-15T11:06:20.000Z</time></trkpt>
<trkpt lat="41.727892" lon="23.48368"><ele>2732.2</ele><time>2026-03-15T11:06:21.000Z</time></trkpt>
<trkpt lat="41.727893" lon="23.48368"><ele>2730.6</ele><time>2026-03-15T11:06:22.000Z</time></trkpt>
<trkpt lat="41.727893" lon="23.48368"><ele>2730.6</ele><time>2026-03-15T11:06:23.000Z</time></trkpt>
<trkpt lat="41.727893" lon="23.48368"><ele>2730.6</ele><time>2026-03-15T11:06:24.000Z</time></trkpt>
<trkpt lat="41.727894" lon="23.48368"><ele>2730.6</ele><time>2026-03-15T11:06:25.000Z</time></trkpt>
<trkpt lat="41.727894" lon="23.483681"><ele>2730.6</ele><time>2026-03-15T11:06:26.000Z</time></trkpt>
<trkpt lat="41.727895" lon="23.483681"><ele>2729.3</ele><time>2026-03-15T11:06:27.000Z</time></trkpt>
<trkpt lat="41.727894" lon="23.483682"><ele>2729.3</ele><time>2026-03-15T11:06:28.000Z</time></trkpt>
<trkpt lat="41.727893" lon="23.483684"><ele>2729.3</ele><time>2026-03-15T11:06:29.000Z</time></trkpt>
<trkpt lat="41.72789" lon="23.483687"><ele>2729.3</ele><time>2026-03-15T11:06:30.000Z</time></trkpt>
<trkpt lat="41.727888" lon="23.483691"><ele>2729.3</ele><time>2026-03-15T11:06:31.000Z</time></trkpt>
<trkpt lat="41.727884" lon="23.483696"><ele>2728.8</ele><time>2026-03-15T11:06:32.000Z</time></trkpt>
<trkpt lat="41.727879" lon="23.483699"><ele>2728.8</ele><time>2026-03-15T11:06:33.000Z</time></trkpt>
<trkpt lat="41.727873" lon="23.483701"><ele>2728.8</ele><time>2026-03-15T11:06:34.000Z</time></trkpt>
<trkpt lat="41.727868" lon="23.483703"><ele>2728.8</ele><time>2026-03-15T11:06:35.000Z</time></trkpt>
<trkpt lat="41.727862" lon="23.483704"><ele>2728.8</ele><time>2026-03-15T11:06:36.000Z</time></trkpt>
<trkpt lat="41.727858" lon="23.483706"><ele>2728.2</ele><time>2026-03-15T11:06:37.000Z</time></trkpt>
<trkpt lat="41.727854" lon="23.483709"><ele>2728.2</ele><time>2026-03-15T11:06:38.000Z</time></trkpt>
<trkpt lat="41.727851" lon="23.483712"><ele>2728.2</ele><time>2026-03-15T11:06:39.000Z</time></trkpt>
<trkpt lat="41.727847" lon="23.483714"><ele>2728.2</ele><time>2026-03-15T11:06:40.000Z</time></trkpt>
<trkpt lat="41.727843" lon="23.483716"><ele>2728.2</ele><time>2026-03-15T11:06:41.000Z</time></trkpt>
<trkpt lat="41.727839" lon="23.483717"><ele>2727.6</ele><time>2026-03-15T11:06:42.000Z</time></trkpt>
<trkpt lat="41.727835" lon="23.483718"><ele>2727.6</ele><time>2026-03-15T11:06:43.000Z</time></trkpt>
<trkpt lat="41.727832" lon="23.48372"><ele>2727.6</ele><time>2026-03-15T11:06:44.000Z</time></trkpt>
<trkpt lat="41.727829" lon="23.483721"><ele>2727.6</ele><time>2026-03-15T11:06:45.000Z</time></trkpt>
<trkpt lat="41.727827" lon="23.483724"><ele>2727.6</ele><time>2026-03-15T11:06:46.000Z</time></trkpt>
<trkpt lat="41.727824" lon="23.483727"><ele>2727.2</ele><time>2026-03-15T11:06:47.000Z</time></trkpt>
<trkpt lat="41.727822" lon="23.48373"><ele>2727.2</ele><time>2026-03-15T11:06:48.000Z</time></trkpt>
<trkpt lat="41.72782" lon="23.483734"><ele>2727.2</ele><time>2026-03-15T11:06:49.000Z</time></trkpt>
<trkpt lat="41.727817" lon="23.483739"><ele>2727.2</ele><time>2026-03-15T11:06:50.000Z</time></trkpt>
<trkpt lat="41.727815" lon="23.483744"><ele>2727.2</ele><time>2026-03-15T11:06:51.000Z</time></trkpt>
<trkpt lat="41.727812" lon="23.48375"><ele>2725.9</ele><time>2026-03-15T11:06:52.000Z</time></trkpt>
<trkpt lat="41.727809" lon="23.483758"><ele>2725.9</ele><time>2026-03-15T11:06:53.000Z</time></trkpt>
<trkpt lat="41.727805" lon="23.483764"><ele>2725.9</ele><time>2026-03-15T11:06:54.000Z</time></trkpt>
<trkpt lat="41.727802" lon="23.483771"><ele>2725.9</ele><time>2026-03-15T11:06:55.000Z</time></trkpt>
<trkpt lat="41.727797" lon="23.483778"><ele>2725.9</ele><time>2026-03-15T11:06:56.000Z</time></trkpt>
<trkpt lat="41.727792" lon="23.483782"><ele>2724.7</ele><time>2026-03-15T11:06:57.000Z</time></trkpt>
<trkpt lat="41.727788" lon="23.483786"><ele>2724.7</ele><time>2026-03-15T11:06:58.000Z</time></trkpt>
<trkpt lat="41.727783" lon="23.483789"><ele>2724.7</ele><time>2026-03-15T11:06:59.000Z</time></trkpt>
<trkpt lat="41.727778" lon="23.483792"><ele>2724.7</ele><time>2026-03-15T11:07:00.000Z</time></trkpt>
<trkpt lat="41.727774" lon="23.483795"><ele>2724.7</ele><time>2026-03-15T11:07:01.000Z</time></trkpt>
<trkpt lat="41.72777" lon="23.483799"><ele>2724</ele><time>2026-03-15T11:07:02.000Z</time></trkpt>
<trkpt lat="41.727768" lon="23.483805"><ele>2724</ele><time>2026-03-15T11:07:03.000Z</time></trkpt>
<trkpt lat="41.727765" lon="23.483808"><ele>2724</ele><time>2026-03-15T11:07:04.000Z</time></trkpt>
<trkpt lat="41.727765" lon="23.483811"><ele>2724</ele><time>2026-03-15T11:07:05.000Z</time></trkpt>
<trkpt lat="41.727764" lon="23.483814"><ele>2724</ele><time>2026-03-15T11:07:06.000Z</time></trkpt>
<trkpt lat="41.727763" lon="23.483816"><ele>2722.5</ele><time>2026-03-15T11:07:07.000Z</time></trkpt>
<trkpt lat="41.727762" lon="23.483819"><ele>2722.5</ele><time>2026-03-15T11:07:08.000Z</time></trkpt>
<trkpt lat="41.727762" lon="23.483824"><ele>2722.5</ele><time>2026-03-15T11:07:09.000Z</time></trkpt>
<trkpt lat="41.727761" lon="23.483833"><ele>2722.5</ele><time>2026-03-15T11:07:10.000Z</time></trkpt>
<trkpt lat="41.72776" lon="23.483842"><ele>2722.5</ele><time>2026-03-15T11:07:11.000Z</time></trkpt>
<trkpt lat="41.727759" lon="23.483852"><ele>2721</ele><time>2026-03-15T11:07:12.000Z</time></trkpt>
<trkpt lat="41.727759" lon="23.483863"><ele>2721</ele><time>2026-03-15T11:07:13.000Z</time></trkpt>
<trkpt lat="41.727757" lon="23.483873"><ele>2721</ele><time>2026-03-15T11:07:14.000Z</time></trkpt>
<trkpt lat="41.727756" lon="23.483884"><ele>2721</ele><time>2026-03-15T11:07:15.000Z</time></trkpt>
<trkpt lat="41.727754" lon="23.483894"><ele>2721</ele><time>2026-03-15T11:07:16.000Z</time></trkpt>
<trkpt lat="41.727751" lon="23.483904"><ele>2720.4</ele><time>2026-03-15T11:07:17.000Z</time></trkpt>
<trkpt lat="41.727749" lon="23.483914"><ele>2720.4</ele><time>2026-03-15T11:07:18.000Z</time></trkpt>
<trkpt lat="41.727747" lon="23.483923"><ele>2720.4</ele><time>2026-03-15T11:07:19.000Z</time></trkpt>
<trkpt lat="41.727745" lon="23.483933"><ele>2720.4</ele><time>2026-03-15T11:07:20.000Z</time></trkpt>
<trkpt lat="41.727743" lon="23.483943"><ele>2720.4</ele><time>2026-03-15T11:07:21.000Z</time></trkpt>
<trkpt lat="41.727741" lon="23.483953"><ele>2719.4</ele><time>2026-03-15T11:07:22.000Z</time></trkpt>
<trkpt lat="41.727739" lon="23.483963"><ele>2719.4</ele><time>2026-03-15T11:07:23.000Z</time></trkpt>
<trkpt lat="41.727736" lon="23.483972"><ele>2719.4</ele><time>2026-03-15T11:07:24.000Z</time></trkpt>
<trkpt lat="41.727734" lon="23.483981"><ele>2719.4</ele><time>2026-03-15T11:07:25.000Z</time></trkpt>
<trkpt lat="41.727732" lon="23.483989"><ele>2719.4</ele><time>2026-03-15T11:07:26.000Z</time></trkpt>
<trkpt lat="41.72773" lon="23.483998"><ele>2718.3</ele><time>2026-03-15T11:07:27.000Z</time></trkpt>
<trkpt lat="41.727729" lon="23.484007"><ele>2718.3</ele><time>2026-03-15T11:07:28.000Z</time></trkpt>
<trkpt lat="41.727727" lon="23.484016"><ele>2718.3</ele><time>2026-03-15T11:07:29.000Z</time></trkpt>
<trkpt lat="41.727726" lon="23.484024"><ele>2718.3</ele><time>2026-03-15T11:07:30.000Z</time></trkpt>
<trkpt lat="41.727725" lon="23.484033"><ele>2718.3</ele><time>2026-03-15T11:07:31.000Z</time></trkpt>
<trkpt lat="41.727724" lon="23.484041"><ele>2717.6</ele><time>2026-03-15T11:07:32.000Z</time></trkpt>
<trkpt lat="41.727723" lon="23.484047"><ele>2717.6</ele><time>2026-03-15T11:07:33.000Z</time></trkpt>
<trkpt lat="41.727721" lon="23.484054"><ele>2717.6</ele><time>2026-03-15T11:07:34.000Z</time></trkpt>
<trkpt lat="41.727719" lon="23.484061"><ele>2717.6</ele><time>2026-03-15T11:07:35.000Z</time></trkpt>
<trkpt lat="41.727717" lon="23.484068"><ele>2717.6</ele><time>2026-03-15T11:07:36.000Z</time></trkpt>
<trkpt lat="41.727714" lon="23.484074"><ele>2716.2</ele><time>2026-03-15T11:07:37.000Z</time></trkpt>
<trkpt lat="41.727711" lon="23.48408"><ele>2716.2</ele><time>2026-03-15T11:07:38.000Z</time></trkpt>
<trkpt lat="41.727707" lon="23.484085"><ele>2716.2</ele><time>2026-03-15T11:07:39.000Z</time></trkpt>
<trkpt lat="41.727704" lon="23.484091"><ele>2716.2</ele><time>2026-03-15T11:07:40.000Z</time></trkpt>
<trkpt lat="41.727701" lon="23.484096"><ele>2716.2</ele><time>2026-03-15T11:07:41.000Z</time></trkpt>
<trkpt lat="41.727698" lon="23.484102"><ele>2715</ele><time>2026-03-15T11:07:42.000Z</time></trkpt>
<trkpt lat="41.727694" lon="23.484108"><ele>2715</ele><time>2026-03-15T11:07:43.000Z</time></trkpt>
<trkpt lat="41.727689" lon="23.484113"><ele>2715</ele><time>2026-03-15T11:07:44.000Z</time></trkpt>
<trkpt lat="41.727683" lon="23.484118"><ele>2715</ele><time>2026-03-15T11:07:45.000Z</time></trkpt>
<trkpt lat="41.727676" lon="23.484122"><ele>2715</ele><time>2026-03-15T11:07:46.000Z</time></trkpt>
<trkpt lat="41.727671" lon="23.484125"><ele>2714.4</ele><time>2026-03-15T11:07:47.000Z</time></trkpt>
<trkpt lat="41.727666" lon="23.484128"><ele>2714.4</ele><time>2026-03-15T11:07:48.000Z</time></trkpt>
<trkpt lat="41.727663" lon="23.484132"><ele>2714.4</ele><time>2026-03-15T11:07:49.000Z</time></trkpt>
<trkpt lat="41.72766" lon="23.484136"><ele>2714.4</ele><time>2026-03-15T11:07:50.000Z</time></trkpt>
<trkpt lat="41.727656" lon="23.48414"><ele>2714.4</ele><time>2026-03-15T11:07:51.000Z</time></trkpt>
<trkpt lat="41.727652" lon="23.484145"><ele>2713.2</ele><time>2026-03-15T11:07:52.000Z</time></trkpt>
<trkpt lat="41.727647" lon="23.484148"><ele>2713.2</ele><time>2026-03-15T11:07:53.000Z</time></trkpt>
<trkpt lat="41.727642" lon="23.484152"><ele>2713.2</ele><time>2026-03-15T11:07:54.000Z</time></trkpt>
<trkpt lat="41.727637" lon="23.484155"><ele>2713.2</ele><time>2026-03-15T11:07:55.000Z</time></trkpt>
<trkpt lat="41.727632" lon="23.484158"><ele>2713.2</ele><time>2026-03-15T11:07:56.000Z</time></trkpt>
<trkpt lat="41.727627" lon="23.484163"><ele>2711.8</ele><time>2026-03-15T11:07:57.000Z</time></trkpt>
<trkpt lat="41.727622" lon="23.48417"><ele>2711.8</ele><time>2026-03-15T11:07:58.000Z</time></trkpt>
<trkpt lat="41.727618" lon="23.484178"><ele>2711.8</ele><time>2026-03-15T11:07:59.000Z</time></trkpt>
<trkpt lat="41.727614" lon="23.484186"><ele>2711.8</ele><time>2026-03-15T11:08:00.000Z</time></trkpt>
<trkpt lat="41.727611" lon="23.484195"><ele>2711.8</ele><time>2026-03-15T11:08:01.000Z</time></trkpt>
<trkpt lat="41.727607" lon="23.484204"><ele>2711</ele><time>2026-03-15T11:08:02.000Z</time></trkpt>
<trkpt lat="41.727604" lon="23.484213"><ele>2711</ele><time>2026-03-15T11:08:03.000Z</time></trkpt>
<trkpt lat="41.727601" lon="23.484223"><ele>2711</ele><time>2026-03-15T11:08:04.000Z</time></trkpt>
<trkpt lat="41.727599" lon="23.484234"><ele>2711</ele><time>2026-03-15T11:08:05.000Z</time></trkpt>
<trkpt lat="41.727596" lon="23.484247"><ele>2711</ele><time>2026-03-15T11:08:06.000Z</time></trkpt>
<trkpt lat="41.727594" lon="23.484259"><ele>2709.6</ele><time>2026-03-15T11:08:07.000Z</time></trkpt>
<trkpt lat="41.727591" lon="23.48427"><ele>2709.6</ele><time>2026-03-15T11:08:08.000Z</time></trkpt>
<trkpt lat="41.727589" lon="23.48428"><ele>2709.6</ele><time>2026-03-15T11:08:09.000Z</time></trkpt>
<trkpt lat="41.727586" lon="23.484289"><ele>2709.6</ele><time>2026-03-15T11:08:10.000Z</time></trkpt>
<trkpt lat="41.727585" lon="23.484296"><ele>2709.6</ele><time>2026-03-15T11:08:11.000Z</time></trkpt>
<trkpt lat="41.727584" lon="23.484302"><ele>2708.2</ele><time>2026-03-15T11:08:12.000Z</time></trkpt>
<trkpt lat="41.727583" lon="23.484309"><ele>2708.2</ele><time>2026-03-15T11:08:13.000Z</time></trkpt>
<trkpt lat="41.727581" lon="23.484315"><ele>2708.2</ele><time>2026-03-15T11:08:14.000Z</time></trkpt>
<trkpt lat="41.727579" lon="23.48432"><ele>2708.2</ele><time>2026-03-15T11:08:15.000Z</time></trkpt>
<trkpt lat="41.727577" lon="23.484326"><ele>2708.2</ele><time>2026-03-15T11:08:16.000Z</time></trkpt>
<trkpt lat="41.727574" lon="23.484334"><ele>2707.5</ele><time>2026-03-15T11:08:17.000Z</time></trkpt>
<trkpt lat="41.727573" lon="23.484343"><ele>2707.5</ele><time>2026-03-15T11:08:18.000Z</time></trkpt>
<trkpt lat="41.727572" lon="23.484353"><ele>2707.5</ele><time>2026-03-15T11:08:19.000Z</time></trkpt>
<trkpt lat="41.72757" lon="23.484362"><ele>2707.5</ele><time>2026-03-15T11:08:20.000Z</time></trkpt>
<trkpt lat="41.727569" lon="23.484372"><ele>2707.5</ele><time>2026-03-15T11:08:21.000Z</time></trkpt>
<trkpt lat="41.727567" lon="23.484382"><ele>2705.9</ele><time>2026-03-15T11:08:22.000Z</time></trkpt>
<trkpt lat="41.727565" lon="23.484392"><ele>2705.9</ele><time>2026-03-15T11:08:23.000Z</time></trkpt>
<trkpt lat="41.727562" lon="23.484399"><ele>2705.9</ele><time>2026-03-15T11:08:24.000Z</time></trkpt>
<trkpt lat="41.72756" lon="23.484407"><ele>2705.9</ele><time>2026-03-15T11:08:25.000Z</time></trkpt>
<trkpt lat="41.727557" lon="23.484414"><ele>2705.9</ele><time>2026-03-15T11:08:26.000Z</time></trkpt>
<trkpt lat="41.727554" lon="23.484421"><ele>2704.1</ele><time>2026-03-15T11:08:27.000Z</time></trkpt>
<trkpt lat="41.727552" lon="23.484428"><ele>2704.1</ele><time>2026-03-15T11:08:28.000Z</time></trkpt>
<trkpt lat="41.72755" lon="23.484437"><ele>2704.1</ele><time>2026-03-15T11:08:29.000Z</time></trkpt>
<trkpt lat="41.727548" lon="23.484446"><ele>2704.1</ele><time>2026-03-15T11:08:30.000Z</time></trkpt>
<trkpt lat="41.727546" lon="23.484454"><ele>2704.1</ele><time>2026-03-15T11:08:31.000Z</time></trkpt>
<trkpt lat="41.727542" lon="23.484463"><ele>2703.2</ele><time>2026-03-15T11:08:32.000Z</time></trkpt>
<trkpt lat="41.727538" lon="23.484472"><ele>2703.2</ele><time>2026-03-15T11:08:33.000Z</time></trkpt>
<trkpt lat="41.727533" lon="23.484481"><ele>2703.2</ele><time>2026-03-15T11:08:34.000Z</time></trkpt>
<trkpt lat="41.727528" lon="23.484489"><ele>2703.2</ele><time>2026-03-15T11:08:35.000Z</time></trkpt>
<trkpt lat="41.727522" lon="23.484499"><ele>2703.2</ele><time>2026-03-15T11:08:36.000Z</time></trkpt>
<trkpt lat="41.727516" lon="23.484507"><ele>2701.4</ele><time>2026-03-15T11:08:37.000Z</time></trkpt>
<trkpt lat="41.72751" lon="23.484514"><ele>2701.4</ele><time>2026-03-15T11:08:38.000Z</time></trkpt>
<trkpt lat="41.727504" lon="23.48452"><ele>2701.4</ele><time>2026-03-15T11:08:39.000Z</time></trkpt>
<trkpt lat="41.727497" lon="23.484525"><ele>2701.4</ele><time>2026-03-15T11:08:40.000Z</time></trkpt>
<trkpt lat="41.72749" lon="23.484529"><ele>2701.4</ele><time>2026-03-15T11:08:41.000Z</time></trkpt>
<trkpt lat="41.727484" lon="23.484534"><ele>2699.5</ele><time>2026-03-15T11:08:42.000Z</time></trkpt>
<trkpt lat="41.727478" lon="23.484539"><ele>2699.5</ele><time>2026-03-15T11:08:43.000Z</time></trkpt>
<trkpt lat="41.727472" lon="23.484545"><ele>2699.5</ele><time>2026-03-15T11:08:44.000Z</time></trkpt>
<trkpt lat="41.727466" lon="23.484552"><ele>2699.5</ele><time>2026-03-15T11:08:45.000Z</time></trkpt>
<trkpt lat="41.72746" lon="23.48456"><ele>2699.5</ele><time>2026-03-15T11:08:46.000Z</time></trkpt>
<trkpt lat="41.727454" lon="23.484568"><ele>2698.6</ele><time>2026-03-15T11:08:47.000Z</time></trkpt>
<trkpt lat="41.727448" lon="23.484576"><ele>2698.6</ele><time>2026-03-15T11:08:48.000Z</time></trkpt>
<trkpt lat="41.727441" lon="23.484584"><ele>2698.6</ele><time>2026-03-15T11:08:49.000Z</time></trkpt>
<trkpt lat="41.727435" lon="23.48459"><ele>2698.6</ele><time>2026-03-15T11:08:50.000Z</time></trkpt>
<trkpt lat="41.727429" lon="23.484596"><ele>2698.6</ele><time>2026-03-15T11:08:51.000Z</time></trkpt>
<trkpt lat="41.727423" lon="23.484602"><ele>2696.9</ele><time>2026-03-15T11:08:52.000Z</time></trkpt>
<trkpt lat="41.727416" lon="23.484609"><ele>2696.9</ele><time>2026-03-15T11:08:53.000Z</time></trkpt>
<trkpt lat="41.727409" lon="23.484617"><ele>2696.9</ele><time>2026-03-15T11:08:54.000Z</time></trkpt>
<trkpt lat="41.727402" lon="23.484626"><ele>2696.9</ele><time>2026-03-15T11:08:55.000Z</time></trkpt>
<trkpt lat="41.727395" lon="23.484637"><ele>2696.9</ele><time>2026-03-15T11:08:56.000Z</time></trkpt>
<trkpt lat="41.727388" lon="23.484647"><ele>2695.3</ele><time>2026-03-15T11:08:57.000Z</time></trkpt>
<trkpt lat="41.72738" lon="23.484657"><ele>2695.3</ele><time>2026-03-15T11:08:58.000Z</time></trkpt>
<trkpt lat="41.727372" lon="23.484666"><ele>2695.3</ele><time>2026-03-15T11:08:59.000Z</time></trkpt>
<trkpt lat="41.727364" lon="23.484676"><ele>2695.3</ele><time>2026-03-15T11:09:00.000Z</time></trkpt>
<trkpt lat="41.727354" lon="23.484684"><ele>2695.3</ele><time>2026-03-15T11:09:01.000Z</time></trkpt>
<trkpt lat="41.727343" lon="23.484693"><ele>2694.5</ele><time>2026-03-15T11:09:02.000Z</time></trkpt>
<trkpt lat="41.727332" lon="23.484702"><ele>2694.5</ele><time>2026-03-15T11:09:03.000Z</time></trkpt>
<trkpt lat="41.727321" lon="23.48471"><ele>2694.5</ele><time>2026-03-15T11:09:04.000Z</time></trkpt>
<trkpt lat="41.72731" lon="23.484718"><ele>2694.5</ele><time>2026-03-15T11:09:05.000Z</time></trkpt>
<trkpt lat="41.7273" lon="23.484725"><ele>2694.5</ele><time>2026-03-15T11:09:06.000Z</time></trkpt>
<trkpt lat="41.72729" lon="23.48473"><ele>2692.7</ele><time>2026-03-15T11:09:07.000Z</time></trkpt>
<trkpt lat="41.72728" lon="23.484735"><ele>2692.7</ele><time>2026-03-15T11:09:08.000Z</time></trkpt>
<trkpt lat="41.727271" lon="23.48474"><ele>2692.7</ele><time>2026-03-15T11:09:09.000Z</time></trkpt>
<trkpt lat="41.727261" lon="23.484745"><ele>2692.7</ele><time>2026-03-15T11:09:10.000Z</time></trkpt>
<trkpt lat="41.727252" lon="23.484751"><ele>2692.7</ele><time>2026-03-15T11:09:11.000Z</time></trkpt>
<trkpt lat="41.727243" lon="23.484757"><ele>2690.8</ele><time>2026-03-15T11:09:12.000Z</time></trkpt>
<trkpt lat="41.727234" lon="23.484765"><ele>2690.8</ele><time>2026-03-15T11:09:13.000Z</time></trkpt>
<trkpt lat="41.727226" lon="23.484773"><ele>2690.8</ele><time>2026-03-15T11:09:14.000Z</time></trkpt>
<trkpt lat="41.727219" lon="23.484781"><ele>2690.8</ele><time>2026-03-15T11:09:15.000Z</time></trkpt>
<trkpt lat="41.727212" lon="23.484791"><ele>2690.8</ele><time>2026-03-15T11:09:16.000Z</time></trkpt>
<trkpt lat="41.727206" lon="23.4848"><ele>2689.9</ele><time>2026-03-15T11:09:17.000Z</time></trkpt>
<trkpt lat="41.7272" lon="23.48481"><ele>2689.9</ele><time>2026-03-15T11:09:18.000Z</time></trkpt>
<trkpt lat="41.727194" lon="23.484819"><ele>2689.9</ele><time>2026-03-15T11:09:19.000Z</time></trkpt>
<trkpt lat="41.727188" lon="23.484828"><ele>2689.9</ele><time>2026-03-15T11:09:20.000Z</time></trkpt>
<trkpt lat="41.727182" lon="23.484838"><ele>2689.9</ele><time>2026-03-15T11:09:21.000Z</time></trkpt>
<trkpt lat="41.727176" lon="23.484847"><ele>2688.6</ele><time>2026-03-15T11:09:22.000Z</time></trkpt>
<trkpt lat="41.727169" lon="23.484857"><ele>2688.6</ele><time>2026-03-15T11:09:23.000Z</time></trkpt>
<trkpt lat="41.727161" lon="23.484866"><ele>2688.6</ele><time>2026-03-15T11:09:24.000Z</time></trkpt>
<trkpt lat="41.727152" lon="23.484876"><ele>2688.6</ele><time>2026-03-15T11:09:25.000Z</time></trkpt>
<trkpt lat="41.727144" lon="23.484884"><ele>2688.6</ele><time>2026-03-15T11:09:26.000Z</time></trkpt>
<trkpt lat="41.727135" lon="23.484894"><ele>2687.8</ele><time>2026-03-15T11:09:27.000Z</time></trkpt>
<trkpt lat="41.727128" lon="23.484903"><ele>2687.8</ele><time>2026-03-15T11:09:28.000Z</time></trkpt>
<trkpt lat="41.72712" lon="23.484914"><ele>2687.8</ele><time>2026-03-15T11:09:29.000Z</time></trkpt>
<trkpt lat="41.727113" lon="23.484924"><ele>2687.8</ele><time>2026-03-15T11:09:30.000Z</time></trkpt>
<trkpt lat="41.727106" lon="23.484935"><ele>2687.8</ele><time>2026-03-15T11:09:31.000Z</time></trkpt>
<trkpt lat="41.727099" lon="23.484945"><ele>2687.5</ele><time>2026-03-15T11:09:32.000Z</time></trkpt>
<trkpt lat="41.727093" lon="23.484955"><ele>2687.5</ele><time>2026-03-15T11:09:33.000Z</time></trkpt>
<trkpt lat="41.727086" lon="23.484963"><ele>2687.5</ele><time>2026-03-15T11:09:34.000Z</time></trkpt>
<trkpt lat="41.727079" lon="23.484972"><ele>2687.5</ele><time>2026-03-15T11:09:35.000Z</time></trkpt>
<trkpt lat="41.727071" lon="23.484982"><ele>2687.5</ele><time>2026-03-15T11:09:36.000Z</time></trkpt>
<trkpt lat="41.727062" lon="23.484991"><ele>2686.9</ele><time>2026-03-15T11:09:37.000Z</time></trkpt>
<trkpt lat="41.727053" lon="23.485001"><ele>2686.9</ele><time>2026-03-15T11:09:38.000Z</time></trkpt>
<trkpt lat="41.727043" lon="23.485011"><ele>2686.9</ele><time>2026-03-15T11:09:39.000Z</time></trkpt>
<trkpt lat="41.727033" lon="23.485022"><ele>2686.9</ele><time>2026-03-15T11:09:40.000Z</time></trkpt>
<trkpt lat="41.727023" lon="23.485032"><ele>2686.9</ele><time>2026-03-15T11:09:41.000Z</time></trkpt>
<trkpt lat="41.727014" lon="23.485043"><ele>2686</ele><time>2026-03-15T11:09:42.000Z</time></trkpt>
<trkpt lat="41.727004" lon="23.485053"><ele>2686</ele><time>2026-03-15T11:09:43.000Z</time></trkpt>
<trkpt lat="41.726996" lon="23.485064"><ele>2686</ele><time>2026-03-15T11:09:44.000Z</time></trkpt>
<trkpt lat="41.726987" lon="23.485074"><ele>2686</ele><time>2026-03-15T11:09:45.000Z</time></trkpt>
<trkpt lat="41.726979" lon="23.485085"><ele>2686</ele><time>2026-03-15T11:09:46.000Z</time></trkpt>
<trkpt lat="41.726973" lon="23.485097"><ele>2685.4</ele><time>2026-03-15T11:09:47.000Z</time></trkpt>
<trkpt lat="41.726967" lon="23.48511"><ele>2685.4</ele><time>2026-03-15T11:09:48.000Z</time></trkpt>
<trkpt lat="41.726961" lon="23.485123"><ele>2685.4</ele><time>2026-03-15T11:09:49.000Z</time></trkpt>
<trkpt lat="41.726957" lon="23.485137"><ele>2685.4</ele><time>2026-03-15T11:09:50.000Z</time></trkpt>
<trkpt lat="41.726952" lon="23.485151"><ele>2685.4</ele><time>2026-03-15T11:09:51.000Z</time></trkpt>
<trkpt lat="41.726948" lon="23.485166"><ele>2684.3</ele><time>2026-03-15T11:09:52.000Z</time></trkpt>
<trkpt lat="41.726944" lon="23.485182"><ele>2684.3</ele><time>2026-03-15T11:09:53.000Z</time></trkpt>
<trkpt lat="41.726939" lon="23.485197"><ele>2684.3</ele><time>2026-03-15T11:09:54.000Z</time></trkpt>
<trkpt lat="41.726934" lon="23.485211"><ele>2684.3</ele><time>2026-03-15T11:09:55.000Z</time></trkpt>
<trkpt lat="41.726928" lon="23.485224"><ele>2684.3</ele><time>2026-03-15T11:09:56.000Z</time></trkpt>
<trkpt lat="41.726923" lon="23.485237"><ele>2683.4</ele><time>2026-03-15T11:09:57.000Z</time></trkpt>
<trkpt lat="41.726917" lon="23.48525"><ele>2683.4</ele><time>2026-03-15T11:09:58.000Z</time></trkpt>
<trkpt lat="41.726912" lon="23.485264"><ele>2683.4</ele><time>2026-03-15T11:09:59.000Z</time></trkpt>
<trkpt lat="41.726907" lon="23.485278"><ele>2683.4</ele><time>2026-03-15T11:10:00.000Z</time></trkpt>
<trkpt lat="41.726902" lon="23.485292"><ele>2683.4</ele><time>2026-03-15T11:10:01.000Z</time></trkpt>
<trkpt lat="41.726897" lon="23.485306"><ele>2683</ele><time>2026-03-15T11:10:02.000Z</time></trkpt>
<trkpt lat="41.726892" lon="23.48532"><ele>2683</ele><time>2026-03-15T11:10:03.000Z</time></trkpt>
<trkpt lat="41.726885" lon="23.485333"><ele>2683</ele><time>2026-03-15T11:10:04.000Z</time></trkpt>
<trkpt lat="41.726878" lon="23.485346"><ele>2683</ele><time>2026-03-15T11:10:05.000Z</time></trkpt>
<trkpt lat="41.726871" lon="23.485359"><ele>2683</ele><time>2026-03-15T11:10:06.000Z</time></trkpt>
<trkpt lat="41.726865" lon="23.485372"><ele>2682.1</ele><time>2026-03-15T11:10:07.000Z</time></trkpt>
<trkpt lat="41.726859" lon="23.485386"><ele>2682.1</ele><time>2026-03-15T11:10:08.000Z</time></trkpt>
<trkpt lat="41.726853" lon="23.485399"><ele>2682.1</ele><time>2026-03-15T11:10:09.000Z</time></trkpt>
<trkpt lat="41.726849" lon="23.485413"><ele>2682.1</ele><time>2026-03-15T11:10:10.000Z</time></trkpt>
<trkpt lat="41.726844" lon="23.485426"><ele>2682.1</ele><time>2026-03-15T11:10:11.000Z</time></trkpt>
<trkpt lat="41.726838" lon="23.48544"><ele>2681.1</ele><time>2026-03-15T11:10:12.000Z</time></trkpt>
<trkpt lat="41.726833" lon="23.485454"><ele>2681.1</ele><time>2026-03-15T11:10:13.000Z</time></trkpt>
<trkpt lat="41.726827" lon="23.485468"><ele>2681.1</ele><time>2026-03-15T11:10:14.000Z</time></trkpt>
<trkpt lat="41.726821" lon="23.485483"><ele>2681.1</ele><time>2026-03-15T11:10:15.000Z</time></trkpt>
<trkpt lat="41.726816" lon="23.485498"><ele>2681.1</ele><time>2026-03-15T11:10:16.000Z</time></trkpt>
<trkpt lat="41.726812" lon="23.485514"><ele>2680.6</ele><time>2026-03-15T11:10:17.000Z</time></trkpt>
<trkpt lat="41.726808" lon="23.48553"><ele>2680.6</ele><time>2026-03-15T11:10:18.000Z</time></trkpt>
<trkpt lat="41.726804" lon="23.485546"><ele>2680.6</ele><time>2026-03-15T11:10:19.000Z</time></trkpt>
<trkpt lat="41.726801" lon="23.485562"><ele>2680.6</ele><time>2026-03-15T11:10:20.000Z</time></trkpt>
<trkpt lat="41.726798" lon="23.485578"><ele>2680.6</ele><time>2026-03-15T11:10:21.000Z</time></trkpt>
<trkpt lat="41.726795" lon="23.485593"><ele>2679.6</ele><time>2026-03-15T11:10:22.000Z</time></trkpt>
<trkpt lat="41.726792" lon="23.485608"><ele>2679.6</ele><time>2026-03-15T11:10:23.000Z</time></trkpt>
<trkpt lat="41.726789" lon="23.485623"><ele>2679.6</ele><time>2026-03-15T11:10:24.000Z</time></trkpt>
<trkpt lat="41.726786" lon="23.485637"><ele>2679.6</ele><time>2026-03-15T11:10:25.000Z</time></trkpt>
<trkpt lat="41.726783" lon="23.485651"><ele>2679.6</ele><time>2026-03-15T11:10:26.000Z</time></trkpt>
<trkpt lat="41.726781" lon="23.485664"><ele>2678.5</ele><time>2026-03-15T11:10:27.000Z</time></trkpt>
<trkpt lat="41.72678" lon="23.485676"><ele>2678.5</ele><time>2026-03-15T11:10:28.000Z</time></trkpt>
<trkpt lat="41.726779" lon="23.485688"><ele>2678.5</ele><time>2026-03-15T11:10:29.000Z</time></trkpt>
<trkpt lat="41.726779" lon="23.485701"><ele>2678.5</ele><time>2026-03-15T11:10:30.000Z</time></trkpt>
<trkpt lat="41.726779" lon="23.485714"><ele>2678.5</ele><time>2026-03-15T11:10:31.000Z</time></trkpt>
<trkpt lat="41.726778" lon="23.485728"><ele>2677.9</ele><time>2026-03-15T11:10:32.000Z</time></trkpt>
<trkpt lat="41.726777" lon="23.485742"><ele>2677.9</ele><time>2026-03-15T11:10:33.000Z</time></trkpt>
<trkpt lat="41.726776" lon="23.485756"><ele>2677.9</ele><time>2026-03-15T11:10:34.000Z</time></trkpt>
<trkpt lat="41.726775" lon="23.485769"><ele>2677.9</ele><time>2026-03-15T11:10:35.000Z</time></trkpt>
<trkpt lat="41.726774" lon="23.485783"><ele>2677.9</ele><time>2026-03-15T11:10:36.000Z</time></trkpt>
<trkpt lat="41.726773" lon="23.485796"><ele>2676.6</ele><time>2026-03-15T11:10:37.000Z</time></trkpt>
<trkpt lat="41.726773" lon="23.485808"><ele>2676.6</ele><time>2026-03-15T11:10:38.000Z</time></trkpt>
<trkpt lat="41.726771" lon="23.485822"><ele>2676.6</ele><time>2026-03-15T11:10:39.000Z</time></trkpt>
<trkpt lat="41.72677" lon="23.485835"><ele>2676.6</ele><time>2026-03-15T11:10:40.000Z</time></trkpt>
<trkpt lat="41.726768" lon="23.485849"><ele>2676.6</ele><time>2026-03-15T11:10:41.000Z</time></trkpt>
<trkpt lat="41.726765" lon="23.485864"><ele>2675.2</ele><time>2026-03-15T11:10:42.000Z</time></trkpt>
<trkpt lat="41.726763" lon="23.485879"><ele>2675.2</ele><time>2026-03-15T11:10:43.000Z</time></trkpt>
<trkpt lat="41.726761" lon="23.485894"><ele>2675.2</ele><time>2026-03-15T11:10:44.000Z</time></trkpt>
<trkpt lat="41.72676" lon="23.485908"><ele>2675.2</ele><time>2026-03-15T11:10:45.000Z</time></trkpt>
<trkpt lat="41.726759" lon="23.485923"><ele>2675.2</ele><time>2026-03-15T11:10:46.000Z</time></trkpt>
<trkpt lat="41.726759" lon="23.485938"><ele>2674.4</ele><time>2026-03-15T11:10:47.000Z</time></trkpt>
<trkpt lat="41.72676" lon="23.485953"><ele>2674.4</ele><time>2026-03-15T11:10:48.000Z</time></trkpt>
<trkpt lat="41.726761" lon="23.485969"><ele>2674.4</ele><time>2026-03-15T11:10:49.000Z</time></trkpt>
<trkpt lat="41.726762" lon="23.485985"><ele>2674.4</ele><time>2026-03-15T11:10:50.000Z</time></trkpt>
<trkpt lat="41.726763" lon="23.486"><ele>2674.4</ele><time>2026-03-15T11:10:51.000Z</time></trkpt>
<trkpt lat="41.726765" lon="23.486015"><ele>2672.7</ele><time>2026-03-15T11:10:52.000Z</time></trkpt>
<trkpt lat="41.726766" lon="23.48603"><ele>2672.7</ele><time>2026-03-15T11:10:53.000Z</time></trkpt>
<trkpt lat="41.726768" lon="23.486044"><ele>2672.7</ele><time>2026-03-15T11:10:54.000Z</time></trkpt>
<trkpt lat="41.726772" lon="23.486056"><ele>2672.7</ele><time>2026-03-15T11:10:55.000Z</time></trkpt>
<trkpt lat="41.726777" lon="23.486067"><ele>2672.7</ele><time>2026-03-15T11:10:56.000Z</time></trkpt>
<trkpt lat="41.726783" lon="23.486075"><ele>2670.9</ele><time>2026-03-15T11:10:57.000Z</time></trkpt>
<trkpt lat="41.726791" lon="23.486081"><ele>2670.9</ele><time>2026-03-15T11:10:58.000Z</time></trkpt>
<trkpt lat="41.726799" lon="23.486085"><ele>2670.9</ele><time>2026-03-15T11:10:59.000Z</time></trkpt>
<trkpt lat="41.726807" lon="23.486089"><ele>2670.9</ele><time>2026-03-15T11:11:00.000Z</time></trkpt>
<trkpt lat="41.726816" lon="23.486093"><ele>2670.9</ele><time>2026-03-15T11:11:01.000Z</time></trkpt>
<trkpt lat="41.726824" lon="23.486096"><ele>2669.9</ele><time>2026-03-15T11:11:02.000Z</time></trkpt>
<trkpt lat="41.726833" lon="23.486099"><ele>2669.9</ele><time>2026-03-15T11:11:03.000Z</time></trkpt>
<trkpt lat="41.726842" lon="23.486101"><ele>2669.9</ele><time>2026-03-15T11:11:04.000Z</time></trkpt>
<trkpt lat="41.726851" lon="23.486102"><ele>2669.9</ele><time>2026-03-15T11:11:05.000Z</time></trkpt>
<trkpt lat="41.726859" lon="23.486101"><ele>2669.9</ele><time>2026-03-15T11:11:06.000Z</time></trkpt>
<trkpt lat="41.726867" lon="23.4861"><ele>2668.1</ele><time>2026-03-15T11:11:07.000Z</time></trkpt>
<trkpt lat="41.726875" lon="23.486098"><ele>2668.1</ele><time>2026-03-15T11:11:08.000Z</time></trkpt>
<trkpt lat="41.726883" lon="23.486096"><ele>2668.1</ele><time>2026-03-15T11:11:09.000Z</time></trkpt>
<trkpt lat="41.726889" lon="23.486095"><ele>2668.1</ele><time>2026-03-15T11:11:10.000Z</time></trkpt>
<trkpt lat="41.726897" lon="23.486094"><ele>2668.1</ele><time>2026-03-15T11:11:11.000Z</time></trkpt>
<trkpt lat="41.726904" lon="23.486092"><ele>2666.2</ele><time>2026-03-15T11:11:12.000Z</time></trkpt>
<trkpt lat="41.72691" lon="23.486092"><ele>2666.2</ele><time>2026-03-15T11:11:13.000Z</time></trkpt>
<trkpt lat="41.726917" lon="23.486093"><ele>2666.2</ele><time>2026-03-15T11:11:14.000Z</time></trkpt>
<trkpt lat="41.726924" lon="23.486093"><ele>2666.2</ele><time>2026-03-15T11:11:15.000Z</time></trkpt>
<trkpt lat="41.726931" lon="23.486093"><ele>2666.2</ele><time>2026-03-15T11:11:16.000Z</time></trkpt>
<trkpt lat="41.726938" lon="23.486094"><ele>2665.4</ele><time>2026-03-15T11:11:17.000Z</time></trkpt>
<trkpt lat="41.726945" lon="23.486094"><ele>2665.4</ele><time>2026-03-15T11:11:18.000Z</time></trkpt>
<trkpt lat="41.726953" lon="23.486093"><ele>2665.4</ele><time>2026-03-15T11:11:19.000Z</time></trkpt>
<trkpt lat="41.726961" lon="23.486092"><ele>2665.4</ele><time>2026-03-15T11:11:20.000Z</time></trkpt>
<trkpt lat="41.726969" lon="23.486089"><ele>2665.4</ele><time>2026-03-15T11:11:21.000Z</time></trkpt>
<trkpt lat="41.726978" lon="23.486085"><ele>2663.8</ele><time>2026-03-15T11:11:22.000Z</time></trkpt>
<trkpt lat="41.726988" lon="23.486081"><ele>2663.8</ele><time>2026-03-15T11:11:23.000Z</time></trkpt>
<trkpt lat="41.726996" lon="23.486076"><ele>2663.8</ele><time>2026-03-15T11:11:24.000Z</time></trkpt>
<trkpt lat="41.727005" lon="23.486071"><ele>2663.8</ele><time>2026-03-15T11:11:25.000Z</time></trkpt>
<trkpt lat="41.727014" lon="23.486066"><ele>2663.8</ele><time>2026-03-15T11:11:26.000Z</time></trkpt>
<trkpt lat="41.727023" lon="23.486062"><ele>2662.3</ele><time>2026-03-15T11:11:27.000Z</time></trkpt>
<trkpt lat="41.727031" lon="23.486057"><ele>2662.3</ele><time>2026-03-15T11:11:28.000Z</time></trkpt>
<trkpt lat="41.727038" lon="23.486052"><ele>2662.3</ele><time>2026-03-15T11:11:29.000Z</time></trkpt>
<trkpt lat="41.727046" lon="23.486048"><ele>2662.3</ele><time>2026-03-15T11:11:30.000Z</time></trkpt>
<trkpt lat="41.727052" lon="23.486043"><ele>2662.3</ele><time>2026-03-15T11:11:31.000Z</time></trkpt>
<trkpt lat="41.727058" lon="23.486039"><ele>2661.6</ele><time>2026-03-15T11:11:32.000Z</time></trkpt>
<trkpt lat="41.727064" lon="23.486035"><ele>2661.6</ele><time>2026-03-15T11:11:33.000Z</time></trkpt>
<trkpt lat="41.727071" lon="23.486031"><ele>2661.6</ele><time>2026-03-15T11:11:34.000Z</time></trkpt>
<trkpt lat="41.727078" lon="23.486028"><ele>2661.6</ele><time>2026-03-15T11:11:35.000Z</time></trkpt>
<trkpt lat="41.727085" lon="23.486025"><ele>2661.6</ele><time>2026-03-15T11:11:36.000Z</time></trkpt>
<trkpt lat="41.727092" lon="23.486022"><ele>2660.3</ele><time>2026-03-15T11:11:37.000Z</time></trkpt>
<trkpt lat="41.727099" lon="23.486019"><ele>2660.3</ele><time>2026-03-15T11:11:38.000Z</time></trkpt>
<trkpt lat="41.727106" lon="23.486016"><ele>2660.3</ele><time>2026-03-15T11:11:39.000Z</time></trkpt>
<trkpt lat="41.727113" lon="23.486013"><ele>2660.3</ele><time>2026-03-15T11:11:40.000Z</time></trkpt>
<trkpt lat="41.727121" lon="23.486008"><ele>2660.3</ele><time>2026-03-15T11:11:41.000Z</time></trkpt>
<trkpt lat="41.727128" lon="23.486005"><ele>2659.2</ele><time>2026-03-15T11:11:42.000Z</time></trkpt>
<trkpt lat="41.727136" lon="23.486002"><ele>2659.2</ele><time>2026-03-15T11:11:43.000Z</time></trkpt>
<trkpt lat="41.727144" lon="23.485998"><ele>2659.2</ele><time>2026-03-15T11:11:44.000Z</time></trkpt>
<trkpt lat="41.727152" lon="23.485994"><ele>2659.2</ele><time>2026-03-15T11:11:45.000Z</time></trkpt>
<trkpt lat="41.727161" lon="23.485991"><ele>2659.2</ele><time>2026-03-15T11:11:46.000Z</time></trkpt>
<trkpt lat="41.72717" lon="23.485987"><ele>2658.7</ele><time>2026-03-15T11:11:47.000Z</time></trkpt>
<trkpt lat="41.727179" lon="23.485984"><ele>2658.7</ele><time>2026-03-15T11:11:48.000Z</time></trkpt>
<trkpt lat="41.727188" lon="23.485981"><ele>2658.7</ele><time>2026-03-15T11:11:49.000Z</time></trkpt>
<trkpt lat="41.727197" lon="23.485979"><ele>2658.7</ele><time>2026-03-15T11:11:50.000Z</time></trkpt>
<trkpt lat="41.727206" lon="23.485976"><ele>2658.7</ele><time>2026-03-15T11:11:51.000Z</time></trkpt>
<trkpt lat="41.727214" lon="23.485973"><ele>2657.9</ele><time>2026-03-15T11:11:52.000Z</time></trkpt>
<trkpt lat="41.727223" lon="23.48597"><ele>2657.9</ele><time>2026-03-15T11:11:53.000Z</time></trkpt>
<trkpt lat="41.72723" lon="23.485967"><ele>2657.9</ele><time>2026-03-15T11:11:54.000Z</time></trkpt>
<trkpt lat="41.727238" lon="23.485964"><ele>2657.9</ele><time>2026-03-15T11:11:55.000Z</time></trkpt>
<trkpt lat="41.727245" lon="23.48596"><ele>2657.9</ele><time>2026-03-15T11:11:56.000Z</time></trkpt>
<trkpt lat="41.727252" lon="23.485956"><ele>2657.3</ele><time>2026-03-15T11:11:57.000Z</time></trkpt>
<trkpt lat="41.727257" lon="23.485953"><ele>2657.3</ele><time>2026-03-15T11:11:58.000Z</time></trkpt>
<trkpt lat="41.727264" lon="23.485951"><ele>2657.3</ele><time>2026-03-15T11:11:59.000Z</time></trkpt>
<trkpt lat="41.72727" lon="23.485948"><ele>2657.3</ele><time>2026-03-15T11:12:00.000Z</time></trkpt>
<trkpt lat="41.727276" lon="23.485946"><ele>2657.3</ele><time>2026-03-15T11:12:01.000Z</time></trkpt>
<trkpt lat="41.727283" lon="23.485945"><ele>2657</ele><time>2026-03-15T11:12:02.000Z</time></trkpt>
<trkpt lat="41.727291" lon="23.485944"><ele>2657</ele><time>2026-03-15T11:12:03.000Z</time></trkpt>
<trkpt lat="41.727299" lon="23.485942"><ele>2657</ele><time>2026-03-15T11:12:04.000Z</time></trkpt>
<trkpt lat="41.727307" lon="23.485941"><ele>2657</ele><time>2026-03-15T11:12:05.000Z</time></trkpt>
<trkpt lat="41.727316" lon="23.485941"><ele>2657</ele><time>2026-03-15T11:12:06.000Z</time></trkpt>
<trkpt lat="41.727324" lon="23.485942"><ele>2656.6</ele><time>2026-03-15T11:12:07.000Z</time></trkpt>
<trkpt lat="41.727332" lon="23.485944"><ele>2656.6</ele><time>2026-03-15T11:12:08.000Z</time></trkpt>
<trkpt lat="41.727339" lon="23.485947"><ele>2656.6</ele><time>2026-03-15T11:12:09.000Z</time></trkpt>
<trkpt lat="41.727347" lon="23.485948"><ele>2656.6</ele><time>2026-03-15T11:12:10.000Z</time></trkpt>
<trkpt lat="41.727353" lon="23.485948"><ele>2656.6</ele><time>2026-03-15T11:12:11.000Z</time></trkpt>
<trkpt lat="41.727361" lon="23.485947"><ele>2656.4</ele><time>2026-03-15T11:12:12.000Z</time></trkpt>
<trkpt lat="41.727369" lon="23.485947"><ele>2656.4</ele><time>2026-03-15T11:12:13.000Z</time></trkpt>
<trkpt lat="41.727378" lon="23.485946"><ele>2656.4</ele><time>2026-03-15T11:12:14.000Z</time></trkpt>
<trkpt lat="41.727387" lon="23.485947"><ele>2656.4</ele><time>2026-03-15T11:12:15.000Z</time></trkpt>
<trkpt lat="41.727397" lon="23.48595"><ele>2656.4</ele><time>2026-03-15T11:12:16.000Z</time></trkpt>
<trkpt lat="41.727407" lon="23.485956"><ele>2656.4</ele><time>2026-03-15T11:12:17.000Z</time></trkpt>
<trkpt lat="41.727416" lon="23.485963"><ele>2656.4</ele><time>2026-03-15T11:12:18.000Z</time></trkpt>
<trkpt lat="41.727424" lon="23.485972"><ele>2656.4</ele><time>2026-03-15T11:12:19.000Z</time></trkpt>
<trkpt lat="41.727431" lon="23.485983"><ele>2656.4</ele><time>2026-03-15T11:12:20.000Z</time></trkpt>
<trkpt lat="41.727436" lon="23.485993"><ele>2656.4</ele><time>2026-03-15T11:12:21.000Z</time></trkpt>
<trkpt lat="41.727439" lon="23.486004"><ele>2656.3</ele><time>2026-03-15T11:12:22.000Z</time></trkpt>
<trkpt lat="41.727442" lon="23.486015"><ele>2656.3</ele><time>2026-03-15T11:12:23.000Z</time></trkpt>
<trkpt lat="41.727444" lon="23.486027"><ele>2656.3</ele><time>2026-03-15T11:12:24.000Z</time></trkpt>
<trkpt lat="41.727446" lon="23.486039"><ele>2656.3</ele><time>2026-03-15T11:12:25.000Z</time></trkpt>
<trkpt lat="41.727448" lon="23.486051"><ele>2656.3</ele><time>2026-03-15T11:12:26.000Z</time></trkpt>
<trkpt lat="41.727451" lon="23.486063"><ele>2656.5</ele><time>2026-03-15T11:12:27.000Z</time></trkpt>
<trkpt lat="41.727453" lon="23.486074"><ele>2656.5</ele><time>2026-03-15T11:12:28.000Z</time></trkpt>
<trkpt lat="41.727455" lon="23.486086"><ele>2656.5</ele><time>2026-03-15T11:12:29.000Z</time></trkpt>
<trkpt lat="41.727458" lon="23.486096"><ele>2656.5</ele><time>2026-03-15T11:12:30.000Z</time></trkpt>
<trkpt lat="41.727462" lon="23.486105"><ele>2656.5</ele><time>2026-03-15T11:12:31.000Z</time></trkpt>
<trkpt lat="41.727465" lon="23.486115"><ele>2656.7</ele><time>2026-03-15T11:12:32.000Z</time></trkpt>
<trkpt lat="41.727468" lon="23.486123"><ele>2656.7</ele><time>2026-03-15T11:12:33.000Z</time></trkpt>
<trkpt lat="41.72747" lon="23.486132"><ele>2656.7</ele><time>2026-03-15T11:12:34.000Z</time></trkpt>
<trkpt lat="41.727472" lon="23.486142"><ele>2656.7</ele><time>2026-03-15T11:12:35.000Z</time></trkpt>
<trkpt lat="41.727472" lon="23.486151"><ele>2656.7</ele><time>2026-03-15T11:12:36.000Z</time></trkpt>
<trkpt lat="41.727472" lon="23.48616"><ele>2657</ele><time>2026-03-15T11:12:37.000Z</time></trkpt>
<trkpt lat="41.727471" lon="23.486167"><ele>2657</ele><time>2026-03-15T11:12:38.000Z</time></trkpt>
<trkpt lat="41.727471" lon="23.486174"><ele>2657</ele><time>2026-03-15T11:12:39.000Z</time></trkpt>
<trkpt lat="41.72747" lon="23.486179"><ele>2657</ele><time>2026-03-15T11:12:40.000Z</time></trkpt>
<trkpt lat="41.72747" lon="23.486184"><ele>2657</ele><time>2026-03-15T11:12:41.000Z</time></trkpt>
<trkpt lat="41.727469" lon="23.486188"><ele>2657.5</ele><time>2026-03-15T11:12:42.000Z</time></trkpt>
<trkpt lat="41.727469" lon="23.486193"><ele>2657.5</ele><time>2026-03-15T11:12:43.000Z</time></trkpt>
<trkpt lat="41.72747" lon="23.486197"><ele>2657.5</ele><time>2026-03-15T11:12:44.000Z</time></trkpt>
<trkpt lat="41.727471" lon="23.486202"><ele>2657.5</ele><time>2026-03-15T11:12:45.000Z</time></trkpt>
<trkpt lat="41.727472" lon="23.486206"><ele>2657.5</ele><time>2026-03-15T11:12:46.000Z</time></trkpt>
<trkpt lat="41.727474" lon="23.48621"><ele>2657.7</ele><time>2026-03-15T11:12:47.000Z</time></trkpt>
<trkpt lat="41.727475" lon="23.486215"><ele>2657.7</ele><time>2026-03-15T11:12:48.000Z</time></trkpt>
<trkpt lat="41.727476" lon="23.48622"><ele>2657.7</ele><time>2026-03-15T11:12:49.000Z</time></trkpt>
<trkpt lat="41.727477" lon="23.486225"><ele>2657.7</ele><time>2026-03-15T11:12:50.000Z</time></trkpt>
<trkpt lat="41.727477" lon="23.48623"><ele>2657.7</ele><time>2026-03-15T11:12:51.000Z</time></trkpt>
<trkpt lat="41.727477" lon="23.486237"><ele>2658.4</ele><time>2026-03-15T11:12:52.000Z</time></trkpt>
<trkpt lat="41.727477" lon="23.486243"><ele>2658.4</ele><time>2026-03-15T11:12:53.000Z</time></trkpt>
<trkpt lat="41.727476" lon="23.486249"><ele>2658.4</ele><time>2026-03-15T11:12:54.000Z</time></trkpt>
<trkpt lat="41.727475" lon="23.486255"><ele>2658.4</ele><time>2026-03-15T11:12:55.000Z</time></trkpt>
<trkpt lat="41.727474" lon="23.486261"><ele>2658.4</ele><time>2026-03-15T11:12:56.000Z</time></trkpt>
<trkpt lat="41.727474" lon="23.486267"><ele>2659.3</ele><time>2026-03-15T11:12:57.000Z</time></trkpt>
<trkpt lat="41.727473" lon="23.486271"><ele>2659.3</ele><time>2026-03-15T11:12:58.000Z</time></trkpt>
<trkpt lat="41.727471" lon="23.486276"><ele>2659.3</ele><time>2026-03-15T11:12:59.000Z</time></trkpt>
<trkpt lat="41.727471" lon="23.48628"><ele>2659.3</ele><time>2026-03-15T11:13:00.000Z</time></trkpt>
<trkpt lat="41.727469" lon="23.486284"><ele>2659.3</ele><time>2026-03-15T11:13:01.000Z</time></trkpt>
<trkpt lat="41.727469" lon="23.486287"><ele>2659.8</ele><time>2026-03-15T11:13:02.000Z</time></trkpt>
<trkpt lat="41.72747" lon="23.486289"><ele>2659.8</ele><time>2026-03-15T11:13:03.000Z</time></trkpt>
<trkpt lat="41.72747" lon="23.486291"><ele>2659.8</ele><time>2026-03-15T11:13:04.000Z</time></trkpt>
<trkpt lat="41.72747" lon="23.486292"><ele>2659.8</ele><time>2026-03-15T11:13:05.000Z</time></trkpt>
<trkpt lat="41.727472" lon="23.486292"><ele>2659.8</ele><time>2026-03-15T11:13:06.000Z</time></trkpt>
<trkpt lat="41.727472" lon="23.486292"><ele>2660.8</ele><time>2026-03-15T11:13:07.000Z</time></trkpt>
<trkpt lat="41.727472" lon="23.486293"><ele>2660.8</ele><time>2026-03-15T11:13:08.000Z</time></trkpt>
<trkpt lat="41.727472" lon="23.486293"><ele>2660.8</ele><time>2026-03-15T11:13:09.000Z</time></trkpt>
<trkpt lat="41.727473" lon="23.486293"><ele>2660.8</ele><time>2026-03-15T11:13:10.000Z</time></trkpt>
<trkpt lat="41.727473" lon="23.486293"><ele>2660.8</ele><time>2026-03-15T11:13:11.000Z</time></trkpt>
<trkpt lat="41.727473" lon="23.486293"><ele>2661.6</ele><time>2026-03-15T11:13:12.000Z</time></trkpt>
<trkpt lat="41.727473" lon="23.486293"><ele>2661.6</ele><time>2026-03-15T11:13:13.000Z</time></trkpt>
<trkpt lat="41.727473" lon="23.486293"><ele>2661.6</ele><time>2026-03-15T11:13:14.000Z</time></trkpt>
<trkpt lat="41.727473" lon="23.486294"><ele>2661.6</ele><time>2026-03-15T11:13:15.000Z</time></trkpt>
<trkpt lat="41.727474" lon="23.486294"><ele>2661.6</ele><time>2026-03-15T11:13:16.000Z</time></trkpt>
<trkpt lat="41.727474" lon="23.486294"><ele>2662</ele><time>2026-03-15T11:13:17.000Z</time></trkpt>
<trkpt lat="41.727474" lon="23.486295"><ele>2662</ele><time>2026-03-15T11:13:18.000Z</time></trkpt>
<trkpt lat="41.727475" lon="23.486295"><ele>2662</ele><time>2026-03-15T11:13:19.000Z</time></trkpt>
<trkpt lat="41.727475" lon="23.486295"><ele>2662</ele><time>2026-03-15T11:13:20.000Z</time></trkpt>
<trkpt lat="41.727475" lon="23.486295"><ele>2662</ele><time>2026-03-15T11:13:21.000Z</time></trkpt>
<trkpt lat="41.727474" lon="23.486295"><ele>2662.4</ele><time>2026-03-15T11:13:22.000Z</time></trkpt>
<trkpt lat="41.727474" lon="23.486295"><ele>2662.4</ele><time>2026-03-15T11:13:23.000Z</time></trkpt>
<trkpt lat="41.727474" lon="23.486295"><ele>2662.4</ele><time>2026-03-15T11:13:24.000Z</time></trkpt>
<trkpt lat="41.727474" lon="23.486295"><ele>2662.4</ele><time>2026-03-15T11:13:25.000Z</time></trkpt>
<trkpt lat="41.727474" lon="23.486297"><ele>2662.4</ele><time>2026-03-15T11:13:26.000Z</time></trkpt>
<trkpt lat="41.727474" lon="23.486299"><ele>2662.8</ele><time>2026-03-15T11:13:27.000Z</time></trkpt>
<trkpt lat="41.727476" lon="23.486302"><ele>2662.8</ele><time>2026-03-15T11:13:28.000Z</time></trkpt>
<trkpt lat="41.727478" lon="23.486305"><ele>2662.8</ele><time>2026-03-15T11:13:29.000Z</time></trkpt>
<trkpt lat="41.727481" lon="23.486308"><ele>2662.8</ele><time>2026-03-15T11:13:30.000Z</time></trkpt>
<trkpt lat="41.727484" lon="23.486313"><ele>2662.8</ele><time>2026-03-15T11:13:31.000Z</time></trkpt>
<trkpt lat="41.727487" lon="23.486318"><ele>2662.8</ele><time>2026-03-15T11:13:32.000Z</time></trkpt>
<trkpt lat="41.72749" lon="23.486323"><ele>2662.8</ele><time>2026-03-15T11:13:33.000Z</time></trkpt>
<trkpt lat="41.727491" lon="23.486328"><ele>2662.8</ele><time>2026-03-15T11:13:34.000Z</time></trkpt>
<trkpt lat="41.727492" lon="23.486335"><ele>2662.8</ele><time>2026-03-15T11:13:35.000Z</time></trkpt>
<trkpt lat="41.727492" lon="23.48634"><ele>2662.8</ele><time>2026-03-15T11:13:36.000Z</time></trkpt>
<trkpt lat="41.727491" lon="23.486346"><ele>2662.9</ele><time>2026-03-15T11:13:37.000Z</time></trkpt>
<trkpt lat="41.727492" lon="23.48635"><ele>2662.9</ele><time>2026-03-15T11:13:38.000Z</time></trkpt>
<trkpt lat="41.727492" lon="23.486355"><ele>2662.9</ele><time>2026-03-15T11:13:39.000Z</time></trkpt>
<trkpt lat="41.727492" lon="23.486359"><ele>2662.9</ele><time>2026-03-15T11:13:40.000Z</time></trkpt>
<trkpt lat="41.727491" lon="23.486362"><ele>2662.9</ele><time>2026-03-15T11:13:41.000Z</time></trkpt>
<trkpt lat="41.727491" lon="23.486365"><ele>2663.1</ele><time>2026-03-15T11:13:42.000Z</time></trkpt>
<trkpt lat="41.727489" lon="23.486368"><ele>2663.1</ele><time>2026-03-15T11:13:43.000Z</time></trkpt>
<trkpt lat="41.727488" lon="23.486371"><ele>2663.1</ele><time>2026-03-15T11:13:44.000Z</time></trkpt>
<trkpt lat="41.727486" lon="23.486374"><ele>2663.1</ele><time>2026-03-15T11:13:45.000Z</time></trkpt>
<trkpt lat="41.727485" lon="23.486379"><ele>2663.1</ele><time>2026-03-15T11:13:46.000Z</time></trkpt>
<trkpt lat="41.727484" lon="23.486384"><ele>2663.3</ele><time>2026-03-15T11:13:47.000Z</time></trkpt>
<trkpt lat="41.727483" lon="23.48639"><ele>2663.3</ele><time>2026-03-15T11:13:48.000Z</time></trkpt>
<trkpt lat="41.727483" lon="23.486396"><ele>2663.3</ele><time>2026-03-15T11:13:49.000Z</time></trkpt>
<trkpt lat="41.727483" lon="23.486403"><ele>2663.3</ele><time>2026-03-15T11:13:50.000Z</time></trkpt>
<trkpt lat="41.727482" lon="23.486411"><ele>2663.3</ele><time>2026-03-15T11:13:51.000Z</time></trkpt>
<trkpt lat="41.727481" lon="23.486418"><ele>2664</ele><time>2026-03-15T11:13:52.000Z</time></trkpt>
<trkpt lat="41.727479" lon="23.486427"><ele>2664</ele><time>2026-03-15T11:13:53.000Z</time></trkpt>
<trkpt lat="41.727476" lon="23.486435"><ele>2664</ele><time>2026-03-15T11:13:54.000Z</time></trkpt>
<trkpt lat="41.727473" lon="23.486442"><ele>2664</ele><time>2026-03-15T11:13:55.000Z</time></trkpt>
<trkpt lat="41.727471" lon="23.48645"><ele>2664</ele><time>2026-03-15T11:13:56.000Z</time></trkpt>
<trkpt lat="41.727469" lon="23.486457"><ele>2664.8</ele><time>2026-03-15T11:13:57.000Z</time></trkpt>
<trkpt lat="41.727468" lon="23.486465"><ele>2664.8</ele><time>2026-03-15T11:13:58.000Z</time></trkpt>
<trkpt lat="41.727468" lon="23.486472"><ele>2664.8</ele><time>2026-03-15T11:13:59.000Z</time></trkpt>
<trkpt lat="41.727468" lon="23.486479"><ele>2664.8</ele><time>2026-03-15T11:14:00.000Z</time></trkpt>
<trkpt lat="41.727468" lon="23.486486"><ele>2664.8</ele><time>2026-03-15T11:14:01.000Z</time></trkpt>
<trkpt lat="41.727469" lon="23.486493"><ele>2665.1</ele><time>2026-03-15T11:14:02.000Z</time></trkpt>
<trkpt lat="41.72747" lon="23.4865"><ele>2665.1</ele><time>2026-03-15T11:14:03.000Z</time></trkpt>
<trkpt lat="41.727471" lon="23.486508"><ele>2665.1</ele><time>2026-03-15T11:14:04.000Z</time></trkpt>
<trkpt lat="41.727472" lon="23.486516"><ele>2665.1</ele><time>2026-03-15T11:14:05.000Z</time></trkpt>
<trkpt lat="41.727473" lon="23.486524"><ele>2665.1</ele><time>2026-03-15T11:14:06.000Z</time></trkpt>
<trkpt lat="41.727473" lon="23.486532"><ele>2665.5</ele><time>2026-03-15T11:14:07.000Z</time></trkpt>
<trkpt lat="41.727474" lon="23.48654"><ele>2665.5</ele><time>2026-03-15T11:14:08.000Z</time></trkpt>
<trkpt lat="41.727474" lon="23.486547"><ele>2665.5</ele><time>2026-03-15T11:14:09.000Z</time></trkpt>
<trkpt lat="41.727475" lon="23.486555"><ele>2665.5</ele><time>2026-03-15T11:14:10.000Z</time></trkpt>
<trkpt lat="41.727476" lon="23.486563"><ele>2665.5</ele><time>2026-03-15T11:14:11.000Z</time></trkpt>
<trkpt lat="41.727477" lon="23.486571"><ele>2665.9</ele><time>2026-03-15T11:14:12.000Z</time></trkpt>
<trkpt lat="41.727477" lon="23.486578"><ele>2665.9</ele><time>2026-03-15T11:14:13.000Z</time></trkpt>
<trkpt lat="41.727478" lon="23.486585"><ele>2665.9</ele><time>2026-03-15T11:14:14.000Z</time></trkpt>
<trkpt lat="41.727479" lon="23.486592"><ele>2665.9</ele><time>2026-03-15T11:14:15.000Z</time></trkpt>
<trkpt lat="41.72748" lon="23.4866"><ele>2665.9</ele><time>2026-03-15T11:14:16.000Z</time></trkpt>
<trkpt lat="41.72748" lon="23.486608"><ele>2666.2</ele><time>2026-03-15T11:14:17.000Z</time></trkpt>
<trkpt lat="41.727481" lon="23.486616"><ele>2666.2</ele><time>2026-03-15T11:14:18.000Z</time></trkpt>
<trkpt lat="41.727482" lon="23.486624"><ele>2666.2</ele><time>2026-03-15T11:14:19.000Z</time></trkpt>
<trkpt lat="41.727483" lon="23.486631"><ele>2666.2</ele><time>2026-03-15T11:14:20.000Z</time></trkpt>
<trkpt lat="41.727484" lon="23.486639"><ele>2666.2</ele><time>2026-03-15T11:14:21.000Z</time></trkpt>
<trkpt lat="41.727485" lon="23.486646"><ele>2667.1</ele><time>2026-03-15T11:14:22.000Z</time></trkpt>
<trkpt lat="41.727485" lon="23.486654"><ele>2667.1</ele><time>2026-03-15T11:14:23.000Z</time></trkpt>
<trkpt lat="41.727485" lon="23.486662"><ele>2667.1</ele><time>2026-03-15T11:14:24.000Z</time></trkpt>
<trkpt lat="41.727485" lon="23.48667"><ele>2667.1</ele><time>2026-03-15T11:14:25.000Z</time></trkpt>
<trkpt lat="41.727485" lon="23.486676"><ele>2667.1</ele><time>2026-03-15T11:14:26.000Z</time></trkpt>
<trkpt lat="41.727486" lon="23.486682"><ele>2667.9</ele><time>2026-03-15T11:14:27.000Z</time></trkpt>
<trkpt lat="41.727487" lon="23.486687"><ele>2667.9</ele><time>2026-03-15T11:14:28.000Z</time></trkpt>
<trkpt lat="41.727488" lon="23.486691"><ele>2667.9</ele><time>2026-03-15T11:14:29.000Z</time></trkpt>
<trkpt lat="41.72749" lon="23.486696"><ele>2667.9</ele><time>2026-03-15T11:14:30.000Z</time></trkpt>
<trkpt lat="41.727492" lon="23.486698"><ele>2667.9</ele><time>2026-03-15T11:14:31.000Z</time></trkpt>
<trkpt lat="41.727495" lon="23.486699"><ele>2668.2</ele><time>2026-03-15T11:14:32.000Z</time></trkpt>
<trkpt lat="41.727498" lon="23.486699"><ele>2668.2</ele><time>2026-03-15T11:14:33.000Z</time></trkpt>
<trkpt lat="41.727503" lon="23.486698"><ele>2668.2</ele><time>2026-03-15T11:14:34.000Z</time></trkpt>
<trkpt lat="41.727507" lon="23.486696"><ele>2668.2</ele><time>2026-03-15T11:14:35.000Z</time></trkpt>
<trkpt lat="41.727511" lon="23.486695"><ele>2668.2</ele><time>2026-03-15T11:14:36.000Z</time></trkpt>
<trkpt lat="41.727516" lon="23.486695"><ele>2668.9</ele><time>2026-03-15T11:14:37.000Z</time></trkpt>
<trkpt lat="41.72752" lon="23.486695"><ele>2668.9</ele><time>2026-03-15T11:14:38.000Z</time></trkpt>
<trkpt lat="41.727524" lon="23.486695"><ele>2668.9</ele><time>2026-03-15T11:14:39.000Z</time></trkpt>
<trkpt lat="41.727528" lon="23.486695"><ele>2668.9</ele><time>2026-03-15T11:14:40.000Z</time></trkpt>
<trkpt lat="41.727531" lon="23.486694"><ele>2668.9</ele><time>2026-03-15T11:14:41.000Z</time></trkpt>
<trkpt lat="41.727534" lon="23.486692"><ele>2669.7</ele><time>2026-03-15T11:14:42.000Z</time></trkpt>
<trkpt lat="41.727536" lon="23.48669"><ele>2669.7</ele><time>2026-03-15T11:14:43.000Z</time></trkpt>
<trkpt lat="41.727538" lon="23.486688"><ele>2669.7</ele><time>2026-03-15T11:14:44.000Z</time></trkpt>
<trkpt lat="41.727539" lon="23.486686"><ele>2669.7</ele><time>2026-03-15T11:14:45.000Z</time></trkpt>
<trkpt lat="41.727542" lon="23.486686"><ele>2669.7</ele><time>2026-03-15T11:14:46.000Z</time></trkpt>
<trkpt lat="41.727546" lon="23.486686"><ele>2670.1</ele><time>2026-03-15T11:14:47.000Z</time></trkpt>
<trkpt lat="41.727549" lon="23.486688"><ele>2670.1</ele><time>2026-03-15T11:14:48.000Z</time></trkpt>
<trkpt lat="41.727553" lon="23.486691"><ele>2670.1</ele><time>2026-03-15T11:14:49.000Z</time></trkpt>
<trkpt lat="41.727556" lon="23.486695"><ele>2670.1</ele><time>2026-03-15T11:14:50.000Z</time></trkpt>
<trkpt lat="41.727558" lon="23.486699"><ele>2670.1</ele><time>2026-03-15T11:14:51.000Z</time></trkpt>
<trkpt lat="41.727559" lon="23.486704"><ele>2671</ele><time>2026-03-15T11:14:52.000Z</time></trkpt>
<trkpt lat="41.72756" lon="23.486709"><ele>2671</ele><time>2026-03-15T11:14:53.000Z</time></trkpt>
<trkpt lat="41.72756" lon="23.486714"><ele>2671</ele><time>2026-03-15T11:14:54.000Z</time></trkpt>
<trkpt lat="41.727562" lon="23.486719"><ele>2671</ele><time>2026-03-15T11:14:55.000Z</time></trkpt>
<trkpt lat="41.727563" lon="23.486724"><ele>2671</ele><time>2026-03-15T11:14:56.000Z</time></trkpt>
<trkpt lat="41.727564" lon="23.48673"><ele>2672</ele><time>2026-03-15T11:14:57.000Z</time></trkpt>
<trkpt lat="41.727565" lon="23.486736"><ele>2672</ele><time>2026-03-15T11:14:58.000Z</time></trkpt>
<trkpt lat="41.727566" lon="23.486742"><ele>2672</ele><time>2026-03-15T11:14:59.000Z</time></trkpt>
<trkpt lat="41.727566" lon="23.486748"><ele>2672</ele><time>2026-03-15T11:15:00.000Z</time></trkpt>
<trkpt lat="41.727566" lon="23.486755"><ele>2672</ele><time>2026-03-15T11:15:01.000Z</time></trkpt>
<trkpt lat="41.727566" lon="23.486761"><ele>2672.5</ele><time>2026-03-15T11:15:02.000Z</time></trkpt>
<trkpt lat="41.727567" lon="23.486767"><ele>2672.5</ele><time>2026-03-15T11:15:03.000Z</time></trkpt>
<trkpt lat="41.727567" lon="23.486773"><ele>2672.5</ele><time>2026-03-15T11:15:04.000Z</time></trkpt>
<trkpt lat="41.727568" lon="23.486778"><ele>2672.5</ele><time>2026-03-15T11:15:05.000Z</time></trkpt>
<trkpt lat="41.727569" lon="23.486783"><ele>2672.5</ele><time>2026-03-15T11:15:06.000Z</time></trkpt>
<trkpt lat="41.727569" lon="23.486789"><ele>2673.5</ele><time>2026-03-15T11:15:07.000Z</time></trkpt>
<trkpt lat="41.72757" lon="23.486795"><ele>2673.5</ele><time>2026-03-15T11:15:08.000Z</time></trkpt>
<trkpt lat="41.727571" lon="23.486801"><ele>2673.5</ele><time>2026-03-15T11:15:09.000Z</time></trkpt>
<trkpt lat="41.727571" lon="23.486807"><ele>2673.5</ele><time>2026-03-15T11:15:10.000Z</time></trkpt>
<trkpt lat="41.727571" lon="23.486813"><ele>2673.5</ele><time>2026-03-15T11:15:11.000Z</time></trkpt>
<trkpt lat="41.727571" lon="23.486818"><ele>2674.4</ele><time>2026-03-15T11:15:12.000Z</time></trkpt>
<trkpt lat="41.727569" lon="23.486822"><ele>2674.4</ele><time>2026-03-15T11:15:13.000Z</time></trkpt>
<trkpt lat="41.727567" lon="23.486825"><ele>2674.4</ele><time>2026-03-15T11:15:14.000Z</time></trkpt>
<trkpt lat="41.727566" lon="23.486827"><ele>2674.4</ele><time>2026-03-15T11:15:15.000Z</time></trkpt>
<trkpt lat="41.727566" lon="23.486827"><ele>2674.4</ele><time>2026-03-15T11:15:16.000Z</time></trkpt>
<trkpt lat="41.727566" lon="23.486827"><ele>2674.8</ele><time>2026-03-15T11:15:17.000Z</time></trkpt>
<trkpt lat="41.727567" lon="23.486828"><ele>2674.8</ele><time>2026-03-15T11:15:18.000Z</time></trkpt>
<trkpt lat="41.727568" lon="23.486827"><ele>2674.8</ele><time>2026-03-15T11:15:19.000Z</time></trkpt>
<trkpt lat="41.727568" lon="23.486828"><ele>2674.8</ele><time>2026-03-15T11:15:20.000Z</time></trkpt>
<trkpt lat="41.727569" lon="23.486829"><ele>2674.8</ele><time>2026-03-15T11:15:21.000Z</time></trkpt>
<trkpt lat="41.727569" lon="23.486829"><ele>2675.4</ele><time>2026-03-15T11:15:22.000Z</time></trkpt>
<trkpt lat="41.727569" lon="23.486829"><ele>2675.4</ele><time>2026-03-15T11:15:23.000Z</time></trkpt>
<trkpt lat="41.727569" lon="23.486829"><ele>2675.4</ele><time>2026-03-15T11:15:24.000Z</time></trkpt>
<trkpt lat="41.72757" lon="23.486829"><ele>2675.4</ele><time>2026-03-15T11:15:25.000Z</time></trkpt>
<trkpt lat="41.72757" lon="23.486829"><ele>2675.4</ele><time>2026-03-15T11:15:26.000Z</time></trkpt>
<trkpt lat="41.72757" lon="23.486829"><ele>2675.9</ele><time>2026-03-15T11:15:27.000Z</time></trkpt>
<trkpt lat="41.72757" lon="23.486829"><ele>2675.9</ele><time>2026-03-15T11:15:28.000Z</time></trkpt>
<trkpt lat="41.727571" lon="23.486829"><ele>2675.9</ele><time>2026-03-15T11:15:29.000Z</time></trkpt>
<trkpt lat="41.727572" lon="23.486829"><ele>2675.9</ele><time>2026-03-15T11:15:30.000Z</time></trkpt>
<trkpt lat="41.727573" lon="23.486828"><ele>2675.9</ele><time>2026-03-15T11:15:31.000Z</time></trkpt>
<trkpt lat="41.727574" lon="23.486828"><ele>2676</ele><time>2026-03-15T11:15:32.000Z</time></trkpt>
<trkpt lat="41.727575" lon="23.486827"><ele>2676</ele><time>2026-03-15T11:15:33.000Z</time></trkpt>
<trkpt lat="41.727575" lon="23.486827"><ele>2676</ele><time>2026-03-15T11:15:34.000Z</time></trkpt>
<trkpt lat="41.727575" lon="23.486827"><ele>2676</ele><time>2026-03-15T11:15:35.000Z</time></trkpt>
<trkpt lat="41.727575" lon="23.486827"><ele>2676</ele><time>2026-03-15T11:15:36.000Z</time></trkpt>
<trkpt lat="41.727575" lon="23.486827"><ele>2676.1</ele><time>2026-03-15T11:15:37.000Z</time></trkpt>
<trkpt lat="41.727575" lon="23.486827"><ele>2676.1</ele><time>2026-03-15T11:15:38.000Z</time></trkpt>
<trkpt lat="41.727575" lon="23.486827"><ele>2676.1</ele><time>2026-03-15T11:15:39.000Z</time></trkpt>
<trkpt lat="41.727575" lon="23.486827"><ele>2676.1</ele><time>2026-03-15T11:15:40.000Z</time></trkpt>
<trkpt lat="41.727576" lon="23.486827"><ele>2676.1</ele><time>2026-03-15T11:15:41.000Z</time></trkpt>
<trkpt lat="41.727576" lon="23.486826"><ele>2676.1</ele><time>2026-03-15T11:15:42.000Z</time></trkpt>
<trkpt lat="41.727577" lon="23.486825"><ele>2676.1</ele><time>2026-03-15T11:15:43.000Z</time></trkpt>
<trkpt lat="41.727578" lon="23.486824"><ele>2676.1</ele><time>2026-03-15T11:15:44.000Z</time></trkpt>
<trkpt lat="41.727578" lon="23.486822"><ele>2676.1</ele><time>2026-03-15T11:15:45.000Z</time></trkpt>
<trkpt lat="41.727578" lon="23.486822"><ele>2676.1</ele><time>2026-03-15T11:15:46.000Z</time></trkpt>
<trkpt lat="41.727578" lon="23.486822"><ele>2676</ele><time>2026-03-15T11:15:47.000Z</time></trkpt>
<trkpt lat="41.727578" lon="23.486822"><ele>2676</ele><time>2026-03-15T11:15:48.000Z</time></trkpt>
<trkpt lat="41.727578" lon="23.486822"><ele>2676</ele><time>2026-03-15T11:15:49.000Z</time></trkpt>
<trkpt lat="41.727578" lon="23.486822"><ele>2676</ele><time>2026-03-15T11:15:50.000Z</time></trkpt>
<trkpt lat="41.727578" lon="23.486822"><ele>2676</ele><time>2026-03-15T11:15:51.000Z</time></trkpt>
<trkpt lat="41.727578" lon="23.486822"><ele>2675.9</ele><time>2026-03-15T11:15:52.000Z</time></trkpt>
<trkpt lat="41.727577" lon="23.486821"><ele>2675.9</ele><time>2026-03-15T11:15:53.000Z</time></trkpt>
<trkpt lat="41.727576" lon="23.486821"><ele>2675.9</ele><time>2026-03-15T11:15:54.000Z</time></trkpt>
<trkpt lat="41.727575" lon="23.486821"><ele>2675.9</ele><time>2026-03-15T11:15:55.000Z</time></trkpt>
<trkpt lat="41.727573" lon="23.486822"><ele>2675.9</ele><time>2026-03-15T11:15:56.000Z</time></trkpt>
<trkpt lat="41.727573" lon="23.486823"><ele>2675.9</ele><time>2026-03-15T11:15:57.000Z</time></trkpt>
<trkpt lat="41.727573" lon="23.486823"><ele>2675.9</ele><time>2026-03-15T11:15:58.000Z</time></trkpt>
<trkpt lat="41.727572" lon="23.486824"><ele>2675.9</ele><time>2026-03-15T11:15:59.000Z</time></trkpt>
<trkpt lat="41.727572" lon="23.486825"><ele>2675.9</ele><time>2026-03-15T11:16:00.000Z</time></trkpt>
<trkpt lat="41.727572" lon="23.486825"><ele>2675.9</ele><time>2026-03-15T11:16:01.000Z</time></trkpt>
<trkpt lat="41.727572" lon="23.486826"><ele>2675.9</ele><time>2026-03-15T11:16:02.000Z</time></trkpt>
<trkpt lat="41.727572" lon="23.486826"><ele>2675.9</ele><time>2026-03-15T11:16:03.000Z</time></trkpt>
<trkpt lat="41.727571" lon="23.486827"><ele>2675.9</ele><time>2026-03-15T11:16:04.000Z</time></trkpt>
<trkpt lat="41.727572" lon="23.486826"><ele>2675.9</ele><time>2026-03-15T11:16:05.000Z</time></trkpt>
<trkpt lat="41.727572" lon="23.486826"><ele>2675.9</ele><time>2026-03-15T11:16:06.000Z</time></trkpt>
<trkpt lat="41.727572" lon="23.486826"><ele>2676</ele><time>2026-03-15T11:16:07.000Z</time></trkpt>
<trkpt lat="41.727573" lon="23.486826"><ele>2676</ele><time>2026-03-15T11:16:08.000Z</time></trkpt>
<trkpt lat="41.727573" lon="23.486826"><ele>2676</ele><time>2026-03-15T11:16:09.000Z</time></trkpt>
<trkpt lat="41.727573" lon="23.486826"><ele>2676</ele><time>2026-03-15T11:16:10.000Z</time></trkpt>
<trkpt lat="41.727572" lon="23.486826"><ele>2676</ele><time>2026-03-15T11:16:11.000Z</time></trkpt>
<trkpt lat="41.727572" lon="23.486826"><ele>2676.1</ele><time>2026-03-15T11:16:12.000Z</time></trkpt>
<trkpt lat="41.727571" lon="23.486826"><ele>2676.1</ele><time>2026-03-15T11:16:13.000Z</time></trkpt>
<trkpt lat="41.727571" lon="23.486827"><ele>2676.1</ele><time>2026-03-15T11:16:14.000Z</time></trkpt>
<trkpt lat="41.727571" lon="23.486827"><ele>2676.1</ele><time>2026-03-15T11:16:15.000Z</time></trkpt>
<trkpt lat="41.727571" lon="23.486827"><ele>2676.1</ele><time>2026-03-15T11:16:16.000Z</time></trkpt>
<trkpt lat="41.727571" lon="23.486827"><ele>2676.2</ele><time>2026-03-15T11:16:17.000Z</time></trkpt>
<trkpt lat="41.727571" lon="23.486827"><ele>2676.2</ele><time>2026-03-15T11:16:18.000Z</time></trkpt>
<trkpt lat="41.727571" lon="23.486827"><ele>2676.2</ele><time>2026-03-15T11:16:19.000Z</time></trkpt>
<trkpt lat="41.727571" lon="23.486827"><ele>2676.2</ele><time>2026-03-15T11:16:20.000Z</time></trkpt>
<trkpt lat="41.727571" lon="23.486826"><ele>2676.2</ele><time>2026-03-15T11:16:21.000Z</time></trkpt>
<trkpt lat="41.72757" lon="23.486826"><ele>2676.5</ele><time>2026-03-15T11:16:22.000Z</time></trkpt>
<trkpt lat="41.72757" lon="23.486826"><ele>2676.5</ele><time>2026-03-15T11:16:23.000Z</time></trkpt>
<trkpt lat="41.72757" lon="23.486826"><ele>2676.5</ele><time>2026-03-15T11:16:24.000Z</time></trkpt>
<trkpt lat="41.72757" lon="23.486826"><ele>2676.5</ele><time>2026-03-15T11:16:25.000Z</time></trkpt>
<trkpt lat="41.72757" lon="23.486826"><ele>2676.5</ele><time>2026-03-15T11:16:26.000Z</time></trkpt>
<trkpt lat="41.727571" lon="23.486826"><ele>2676.8</ele><time>2026-03-15T11:16:27.000Z</time></trkpt>
<trkpt lat="41.727571" lon="23.486826"><ele>2676.8</ele><time>2026-03-15T11:16:28.000Z</time></trkpt>
<trkpt lat="41.727571" lon="23.486826"><ele>2676.8</ele><time>2026-03-15T11:16:29.000Z</time></trkpt>
<trkpt lat="41.727572" lon="23.486826"><ele>2676.8</ele><time>2026-03-15T11:16:30.000Z</time></trkpt>
<trkpt lat="41.727572" lon="23.486826"><ele>2676.8</ele><time>2026-03-15T11:16:31.000Z</time></trkpt>
<trkpt lat="41.727572" lon="23.486826"><ele>2676.9</ele><time>2026-03-15T11:16:32.000Z</time></trkpt>
<trkpt lat="41.727572" lon="23.486826"><ele>2676.9</ele><time>2026-03-15T11:16:33.000Z</time></trkpt>
<trkpt lat="41.727573" lon="23.486827"><ele>2676.9</ele><time>2026-03-15T11:16:34.000Z</time></trkpt>
<trkpt lat="41.727573" lon="23.486827"><ele>2676.9</ele><time>2026-03-15T11:16:35.000Z</time></trkpt>
<trkpt lat="41.727574" lon="23.486827"><ele>2676.9</ele><time>2026-03-15T11:16:36.000Z</time></trkpt>
<trkpt lat="41.727574" lon="23.486828"><ele>2676.9</ele><time>2026-03-15T11:16:37.000Z</time></trkpt>
<trkpt lat="41.727574" lon="23.486828"><ele>2676.9</ele><time>2026-03-15T11:16:38.000Z</time></trkpt>
<trkpt lat="41.727574" lon="23.486828"><ele>2676.9</ele><time>2026-03-15T11:16:39.000Z</time></trkpt>
<trkpt lat="41.727574" lon="23.486828"><ele>2676.9</ele><time>2026-03-15T11:16:40.000Z</time></trkpt>
<trkpt lat="41.727574" lon="23.486828"><ele>2676.9</ele><time>2026-03-15T11:16:41.000Z</time></trkpt>
<trkpt lat="41.727574" lon="23.486828"><ele>2676.5</ele><time>2026-03-15T11:16:42.000Z</time></trkpt>
<trkpt lat="41.727574" lon="23.486828"><ele>2676.5</ele><time>2026-03-15T11:16:43.000Z</time></trkpt>
<trkpt lat="41.727574" lon="23.486828"><ele>2676.5</ele><time>2026-03-15T11:16:44.000Z</time></trkpt>
<trkpt lat="41.727574" lon="23.486828"><ele>2676.5</ele><time>2026-03-15T11:16:45.000Z</time></trkpt>
<trkpt lat="41.727575" lon="23.486828"><ele>2676.5</ele><time>2026-03-15T11:16:46.000Z</time></trkpt>
<trkpt lat="41.727575" lon="23.486827"><ele>2676.3</ele><time>2026-03-15T11:16:47.000Z</time></trkpt>
<trkpt lat="41.727576" lon="23.486827"><ele>2676.3</ele><time>2026-03-15T11:16:48.000Z</time></trkpt>
<trkpt lat="41.727576" lon="23.486827"><ele>2676.3</ele><time>2026-03-15T11:16:49.000Z</time></trkpt>
<trkpt lat="41.727576" lon="23.486827"><ele>2676.3</ele><time>2026-03-15T11:16:50.000Z</time></trkpt>
<trkpt lat="41.727576" lon="23.486826"><ele>2676.3</ele><time>2026-03-15T11:16:51.000Z</time></trkpt>
<trkpt lat="41.727576" lon="23.486826"><ele>2676.1</ele><time>2026-03-15T11:16:52.000Z</time></trkpt>
<trkpt lat="41.727577" lon="23.486826"><ele>2676.1</ele><time>2026-03-15T11:16:53.000Z</time></trkpt>
<trkpt lat="41.727577" lon="23.486826"><ele>2676.1</ele><time>2026-03-15T11:16:54.000Z</time></trkpt>
<trkpt lat="41.727577" lon="23.486826"><ele>2676.1</ele><time>2026-03-15T11:16:55.000Z</time></trkpt>
<trkpt lat="41.727577" lon="23.486825"><ele>2676.1</ele><time>2026-03-15T11:16:56.000Z</time></trkpt>
<trkpt lat="41.727577" lon="23.486825"><ele>2676.1</ele><time>2026-03-15T11:16:57.000Z</time></trkpt>
<trkpt lat="41.727577" lon="23.486825"><ele>2676.1</ele><time>2026-03-15T11:16:58.000Z</time></trkpt>
<trkpt lat="41.727577" lon="23.486824"><ele>2676.1</ele><time>2026-03-15T11:16:59.000Z</time></trkpt>
<trkpt lat="41.727576" lon="23.486824"><ele>2676.1</ele><time>2026-03-15T11:17:00.000Z</time></trkpt>
<trkpt lat="41.727576" lon="23.486824"><ele>2676.1</ele><time>2026-03-15T11:17:01.000Z</time></trkpt>
<trkpt lat="41.727576" lon="23.486824"><ele>2676.2</ele><time>2026-03-15T11:17:02.000Z</time></trkpt>
<trkpt lat="41.727576" lon="23.486824"><ele>2676.2</ele><time>2026-03-15T11:17:03.000Z</time></trkpt>
<trkpt lat="41.727576" lon="23.486824"><ele>2676.2</ele><time>2026-03-15T11:17:04.000Z</time></trkpt>
<trkpt lat="41.727576" lon="23.486824"><ele>2676.2</ele><time>2026-03-15T11:17:05.000Z</time></trkpt>
<trkpt lat="41.727577" lon="23.486825"><ele>2676.2</ele><time>2026-03-15T11:17:06.000Z</time></trkpt>
<trkpt lat="41.727577" lon="23.486826"><ele>2676</ele><time>2026-03-15T11:17:07.000Z</time></trkpt>
<trkpt lat="41.727578" lon="23.486826"><ele>2676</ele><time>2026-03-15T11:17:08.000Z</time></trkpt>
<trkpt lat="41.727578" lon="23.486827"><ele>2676</ele><time>2026-03-15T11:17:09.000Z</time></trkpt>
<trkpt lat="41.727578" lon="23.486827"><ele>2676</ele><time>2026-03-15T11:17:10.000Z</time></trkpt>
<trkpt lat="41.727578" lon="23.486827"><ele>2676</ele><time>2026-03-15T11:17:11.000Z</time></trkpt>
<trkpt lat="41.727577" lon="23.486828"><ele>2675.9</ele><time>2026-03-15T11:17:12.000Z</time></trkpt>
<trkpt lat="41.727577" lon="23.486828"><ele>2675.9</ele><time>2026-03-15T11:17:13.000Z</time></trkpt>
<trkpt lat="41.727577" lon="23.486828"><ele>2675.9</ele><time>2026-03-15T11:17:14.000Z</time></trkpt>
<trkpt lat="41.727576" lon="23.486828"><ele>2675.9</ele><time>2026-03-15T11:17:15.000Z</time></trkpt>
<trkpt lat="41.727576" lon="23.486828"><ele>2675.9</ele><time>2026-03-15T11:17:16.000Z</time></trkpt>
<trkpt lat="41.727576" lon="23.486828"><ele>2675.9</ele><time>2026-03-15T11:17:17.000Z</time></trkpt>
<trkpt lat="41.727576" lon="23.486828"><ele>2675.9</ele><time>2026-03-15T11:17:18.000Z</time></trkpt>
<trkpt lat="41.727576" lon="23.486828"><ele>2675.9</ele><time>2026-03-15T11:17:19.000Z</time></trkpt>
<trkpt lat="41.727576" lon="23.486828"><ele>2675.9</ele><time>2026-03-15T11:17:20.000Z</time></trkpt>
<trkpt lat="41.727576" lon="23.486828"><ele>2675.9</ele><time>2026-03-15T11:17:21.000Z</time></trkpt>
<trkpt lat="41.727576" lon="23.486828"><ele>2676</ele><time>2026-03-15T11:17:22.000Z</time></trkpt>
<trkpt lat="41.727576" lon="23.486828"><ele>2676</ele><time>2026-03-15T11:17:23.000Z</time></trkpt>
<trkpt lat="41.727577" lon="23.486828"><ele>2676</ele><time>2026-03-15T11:17:24.000Z</time></trkpt>
<trkpt lat="41.727577" lon="23.48683"><ele>2676</ele><time>2026-03-15T11:17:25.000Z</time></trkpt>
<trkpt lat="41.727578" lon="23.486833"><ele>2676</ele><time>2026-03-15T11:17:26.000Z</time></trkpt>
<trkpt lat="41.727578" lon="23.486834"><ele>2676</ele><time>2026-03-15T11:17:27.000Z</time></trkpt>
<trkpt lat="41.727579" lon="23.486836"><ele>2676</ele><time>2026-03-15T11:17:28.000Z</time></trkpt>
<trkpt lat="41.727579" lon="23.486837"><ele>2676</ele><time>2026-03-15T11:17:29.000Z</time></trkpt>
<trkpt lat="41.72758" lon="23.486838"><ele>2676</ele><time>2026-03-15T11:17:30.000Z</time></trkpt>
<trkpt lat="41.727581" lon="23.486837"><ele>2676</ele><time>2026-03-15T11:17:31.000Z</time></trkpt>
<trkpt lat="41.727583" lon="23.486838"><ele>2676</ele><time>2026-03-15T11:17:32.000Z</time></trkpt>
<trkpt lat="41.727585" lon="23.48684"><ele>2676</ele><time>2026-03-15T11:17:33.000Z</time></trkpt>
<trkpt lat="41.727587" lon="23.486842"><ele>2676</ele><time>2026-03-15T11:17:34.000Z</time></trkpt>
<trkpt lat="41.727589" lon="23.486845"><ele>2676</ele><time>2026-03-15T11:17:35.000Z</time></trkpt>
<trkpt lat="41.727591" lon="23.486849"><ele>2676</ele><time>2026-03-15T11:17:36.000Z</time></trkpt>
<trkpt lat="41.727592" lon="23.486852"><ele>2676.1</ele><time>2026-03-15T11:17:37.000Z</time></trkpt>
<trkpt lat="41.727593" lon="23.486855"><ele>2676.1</ele><time>2026-03-15T11:17:38.000Z</time></trkpt>
<trkpt lat="41.727593" lon="23.486856"><ele>2676.1</ele><time>2026-03-15T11:17:39.000Z</time></trkpt>
<trkpt lat="41.727593" lon="23.486856"><ele>2676.1</ele><time>2026-03-15T11:17:40.000Z</time></trkpt>
<trkpt lat="41.727593" lon="23.486855"><ele>2676.1</ele><time>2026-03-15T11:17:41.000Z</time></trkpt>
<trkpt lat="41.727593" lon="23.486855"><ele>2676.4</ele><time>2026-03-15T11:17:42.000Z</time></trkpt>
<trkpt lat="41.727594" lon="23.486855"><ele>2676.4</ele><time>2026-03-15T11:17:43.000Z</time></trkpt>
<trkpt lat="41.727595" lon="23.486856"><ele>2676.4</ele><time>2026-03-15T11:17:44.000Z</time></trkpt>
<trkpt lat="41.727597" lon="23.486859"><ele>2676.4</ele><time>2026-03-15T11:17:45.000Z</time></trkpt>
<trkpt lat="41.727599" lon="23.486862"><ele>2676.4</ele><time>2026-03-15T11:17:46.000Z</time></trkpt>
<trkpt lat="41.727602" lon="23.486866"><ele>2676.7</ele><time>2026-03-15T11:17:47.000Z</time></trkpt>
<trkpt lat="41.727606" lon="23.486871"><ele>2676.7</ele><time>2026-03-15T11:17:48.000Z</time></trkpt>
<trkpt lat="41.72761" lon="23.486876"><ele>2676.7</ele><time>2026-03-15T11:17:49.000Z</time></trkpt>
<trkpt lat="41.727614" lon="23.486882"><ele>2676.7</ele><time>2026-03-15T11:17:50.000Z</time></trkpt>
<trkpt lat="41.727619" lon="23.486889"><ele>2676.7</ele><time>2026-03-15T11:17:51.000Z</time></trkpt>
<trkpt lat="41.727624" lon="23.486899"><ele>2677.1</ele><time>2026-03-15T11:17:52.000Z</time></trkpt>
<trkpt lat="41.727627" lon="23.486909"><ele>2677.1</ele><time>2026-03-15T11:17:53.000Z</time></trkpt>
<trkpt lat="41.727629" lon="23.486919"><ele>2677.1</ele><time>2026-03-15T11:17:54.000Z</time></trkpt>
<trkpt lat="41.727631" lon="23.48693"><ele>2677.1</ele><time>2026-03-15T11:17:55.000Z</time></trkpt>
<trkpt lat="41.727631" lon="23.48694"><ele>2677.1</ele><time>2026-03-15T11:17:56.000Z</time></trkpt>
<trkpt lat="41.727631" lon="23.486949"><ele>2677.5</ele><time>2026-03-15T11:17:57.000Z</time></trkpt>
<trkpt lat="41.72763" lon="23.486959"><ele>2677.5</ele><time>2026-03-15T11:17:58.000Z</time></trkpt>
<trkpt lat="41.72763" lon="23.486968"><ele>2677.5</ele><time>2026-03-15T11:17:59.000Z</time></trkpt>
<trkpt lat="41.72763" lon="23.486976"><ele>2677.5</ele><time>2026-03-15T11:18:00.000Z</time></trkpt>
<trkpt lat="41.72763" lon="23.486984"><ele>2677.5</ele><time>2026-03-15T11:18:01.000Z</time></trkpt>
<trkpt lat="41.727631" lon="23.486992"><ele>2677.8</ele><time>2026-03-15T11:18:02.000Z</time></trkpt>
<trkpt lat="41.727631" lon="23.487"><ele>2677.8</ele><time>2026-03-15T11:18:03.000Z</time></trkpt>
<trkpt lat="41.727632" lon="23.487007"><ele>2677.8</ele><time>2026-03-15T11:18:04.000Z</time></trkpt>
<trkpt lat="41.727632" lon="23.487016"><ele>2677.8</ele><time>2026-03-15T11:18:05.000Z</time></trkpt>
<trkpt lat="41.727631" lon="23.487025"><ele>2677.8</ele><time>2026-03-15T11:18:06.000Z</time></trkpt>
<trkpt lat="41.72763" lon="23.487034"><ele>2678.5</ele><time>2026-03-15T11:18:07.000Z</time></trkpt>
<trkpt lat="41.727629" lon="23.487045"><ele>2678.5</ele><time>2026-03-15T11:18:08.000Z</time></trkpt>
<trkpt lat="41.727628" lon="23.487055"><ele>2678.5</ele><time>2026-03-15T11:18:09.000Z</time></trkpt>
<trkpt lat="41.727627" lon="23.487065"><ele>2678.5</ele><time>2026-03-15T11:18:10.000Z</time></trkpt>
<trkpt lat="41.727626" lon="23.487073"><ele>2678.5</ele><time>2026-03-15T11:18:11.000Z</time></trkpt>
<trkpt lat="41.727627" lon="23.487082"><ele>2679.4</ele><time>2026-03-15T11:18:12.000Z</time></trkpt>
<trkpt lat="41.727627" lon="23.487089"><ele>2679.4</ele><time>2026-03-15T11:18:13.000Z</time></trkpt>
<trkpt lat="41.727629" lon="23.487097"><ele>2679.4</ele><time>2026-03-15T11:18:14.000Z</time></trkpt>
<trkpt lat="41.727631" lon="23.487105"><ele>2679.4</ele><time>2026-03-15T11:18:15.000Z</time></trkpt>
<trkpt lat="41.727633" lon="23.487115"><ele>2679.4</ele><time>2026-03-15T11:18:16.000Z</time></trkpt>
<trkpt lat="41.727635" lon="23.487124"><ele>2679.9</ele><time>2026-03-15T11:18:17.000Z</time></trkpt>
<trkpt lat="41.727637" lon="23.487133"><ele>2679.9</ele><time>2026-03-15T11:18:18.000Z</time></trkpt>
<trkpt lat="41.727638" lon="23.487143"><ele>2679.9</ele><time>2026-03-15T11:18:19.000Z</time></trkpt>
<trkpt lat="41.72764" lon="23.487154"><ele>2679.9</ele><time>2026-03-15T11:18:20.000Z</time></trkpt>
<trkpt lat="41.727641" lon="23.487163"><ele>2679.9</ele><time>2026-03-15T11:18:21.000Z</time></trkpt>
<trkpt lat="41.727642" lon="23.487172"><ele>2680.6</ele><time>2026-03-15T11:18:22.000Z</time></trkpt>
<trkpt lat="41.727642" lon="23.487182"><ele>2680.6</ele><time>2026-03-15T11:18:23.000Z</time></trkpt>
<trkpt lat="41.727644" lon="23.487191"><ele>2680.6</ele><time>2026-03-15T11:18:24.000Z</time></trkpt>
<trkpt lat="41.727645" lon="23.487198"><ele>2680.6</ele><time>2026-03-15T11:18:25.000Z</time></trkpt>
<trkpt lat="41.727646" lon="23.487205"><ele>2680.6</ele><time>2026-03-15T11:18:26.000Z</time></trkpt>
<trkpt lat="41.727648" lon="23.487211"><ele>2681.1</ele><time>2026-03-15T11:18:27.000Z</time></trkpt>
<trkpt lat="41.72765" lon="23.487217"><ele>2681.1</ele><time>2026-03-15T11:18:28.000Z</time></trkpt>
<trkpt lat="41.727652" lon="23.487223"><ele>2681.1</ele><time>2026-03-15T11:18:29.000Z</time></trkpt>
<trkpt lat="41.727653" lon="23.487231"><ele>2681.1</ele><time>2026-03-15T11:18:30.000Z</time></trkpt>
<trkpt lat="41.727654" lon="23.487238"><ele>2681.1</ele><time>2026-03-15T11:18:31.000Z</time></trkpt>
<trkpt lat="41.727656" lon="23.487245"><ele>2681.3</ele><time>2026-03-15T11:18:32.000Z</time></trkpt>
<trkpt lat="41.727658" lon="23.487251"><ele>2681.3</ele><time>2026-03-15T11:18:33.000Z</time></trkpt>
<trkpt lat="41.727659" lon="23.487258"><ele>2681.3</ele><time>2026-03-15T11:18:34.000Z</time></trkpt>
<trkpt lat="41.727662" lon="23.487265"><ele>2681.3</ele><time>2026-03-15T11:18:35.000Z</time></trkpt>
<trkpt lat="41.727664" lon="23.487272"><ele>2681.3</ele><time>2026-03-15T11:18:36.000Z</time></trkpt>
<trkpt lat="41.727666" lon="23.48728"><ele>2681.9</ele><time>2026-03-15T11:18:37.000Z</time></trkpt>
<trkpt lat="41.727667" lon="23.487289"><ele>2681.9</ele><time>2026-03-15T11:18:38.000Z</time></trkpt>
<trkpt lat="41.727668" lon="23.487297"><ele>2681.9</ele><time>2026-03-15T11:18:39.000Z</time></trkpt>
<trkpt lat="41.727668" lon="23.487304"><ele>2681.9</ele><time>2026-03-15T11:18:40.000Z</time></trkpt>
<trkpt lat="41.727669" lon="23.487311"><ele>2681.9</ele><time>2026-03-15T11:18:41.000Z</time></trkpt>
<trkpt lat="41.727669" lon="23.487315"><ele>2682.7</ele><time>2026-03-15T11:18:42.000Z</time></trkpt>
<trkpt lat="41.727669" lon="23.487318"><ele>2682.7</ele><time>2026-03-15T11:18:43.000Z</time></trkpt>
<trkpt lat="41.72767" lon="23.487319"><ele>2682.7</ele><time>2026-03-15T11:18:44.000Z</time></trkpt>
<trkpt lat="41.727671" lon="23.487319"><ele>2682.7</ele><time>2026-03-15T11:18:45.000Z</time></trkpt>
<trkpt lat="41.727671" lon="23.487319"><ele>2682.7</ele><time>2026-03-15T11:18:46.000Z</time></trkpt>
<trkpt lat="41.727671" lon="23.48732"><ele>2683.2</ele><time>2026-03-15T11:18:47.000Z</time></trkpt>
<trkpt lat="41.727672" lon="23.487321"><ele>2683.2</ele><time>2026-03-15T11:18:48.000Z</time></trkpt>
<trkpt lat="41.727673" lon="23.487323"><ele>2683.2</ele><time>2026-03-15T11:18:49.000Z</time></trkpt>
<trkpt lat="41.727674" lon="23.487327"><ele>2683.2</ele><time>2026-03-15T11:18:50.000Z</time></trkpt>
<trkpt lat="41.727675" lon="23.487332"><ele>2683.2</ele><time>2026-03-15T11:18:51.000Z</time></trkpt>
<trkpt lat="41.727677" lon="23.487338"><ele>2684</ele><time>2026-03-15T11:18:52.000Z</time></trkpt>
<trkpt lat="41.727679" lon="23.487345"><ele>2684</ele><time>2026-03-15T11:18:53.000Z</time></trkpt>
<trkpt lat="41.727682" lon="23.487352"><ele>2684</ele><time>2026-03-15T11:18:54.000Z</time></trkpt>
<trkpt lat="41.727685" lon="23.487359"><ele>2684</ele><time>2026-03-15T11:18:55.000Z</time></trkpt>
<trkpt lat="41.727688" lon="23.487366"><ele>2684</ele><time>2026-03-15T11:18:56.000Z</time></trkpt>
<trkpt lat="41.72769" lon="23.487375"><ele>2684.5</ele><time>2026-03-15T11:18:57.000Z</time></trkpt>
<trkpt lat="41.727693" lon="23.487384"><ele>2684.5</ele><time>2026-03-15T11:18:58.000Z</time></trkpt>
<trkpt lat="41.727694" lon="23.487394"><ele>2684.5</ele><time>2026-03-15T11:18:59.000Z</time></trkpt>
<trkpt lat="41.727695" lon="23.487404"><ele>2684.5</ele><time>2026-03-15T11:19:00.000Z</time></trkpt>
<trkpt lat="41.727696" lon="23.487415"><ele>2684.5</ele><time>2026-03-15T11:19:01.000Z</time></trkpt>
<trkpt lat="41.727698" lon="23.487425"><ele>2684.7</ele><time>2026-03-15T11:19:02.000Z</time></trkpt>
<trkpt lat="41.7277" lon="23.487434"><ele>2684.7</ele><time>2026-03-15T11:19:03.000Z</time></trkpt>
<trkpt lat="41.727704" lon="23.487444"><ele>2684.7</ele><time>2026-03-15T11:19:04.000Z</time></trkpt>
<trkpt lat="41.727707" lon="23.487452"><ele>2684.7</ele><time>2026-03-15T11:19:05.000Z</time></trkpt>
<trkpt lat="41.727709" lon="23.48746"><ele>2684.7</ele><time>2026-03-15T11:19:06.000Z</time></trkpt>
<trkpt lat="41.727711" lon="23.487467"><ele>2685.3</ele><time>2026-03-15T11:19:07.000Z</time></trkpt>
<trkpt lat="41.727713" lon="23.487474"><ele>2685.3</ele><time>2026-03-15T11:19:08.000Z</time></trkpt>
<trkpt lat="41.727714" lon="23.487481"><ele>2685.3</ele><time>2026-03-15T11:19:09.000Z</time></trkpt>
<trkpt lat="41.727714" lon="23.487488"><ele>2685.3</ele><time>2026-03-15T11:19:10.000Z</time></trkpt>
<trkpt lat="41.727715" lon="23.487495"><ele>2685.3</ele><time>2026-03-15T11:19:11.000Z</time></trkpt>
<trkpt lat="41.727714" lon="23.487502"><ele>2686</ele><time>2026-03-15T11:19:12.000Z</time></trkpt>
<trkpt lat="41.727714" lon="23.487507"><ele>2686</ele><time>2026-03-15T11:19:13.000Z</time></trkpt>
<trkpt lat="41.727714" lon="23.487513"><ele>2686</ele><time>2026-03-15T11:19:14.000Z</time></trkpt>
<trkpt lat="41.727713" lon="23.487518"><ele>2686</ele><time>2026-03-15T11:19:15.000Z</time></trkpt>
<trkpt lat="41.727711" lon="23.487523"><ele>2686</ele><time>2026-03-15T11:19:16.000Z</time></trkpt>
<trkpt lat="41.72771" lon="23.48753"><ele>2686.4</ele><time>2026-03-15T11:19:17.000Z</time></trkpt>
<trkpt lat="41.727708" lon="23.487538"><ele>2686.4</ele><time>2026-03-15T11:19:18.000Z</time></trkpt>
<trkpt lat="41.727707" lon="23.487546"><ele>2686.4</ele><time>2026-03-15T11:19:19.000Z</time></trkpt>
<trkpt lat="41.727706" lon="23.487553"><ele>2686.4</ele><time>2026-03-15T11:19:20.000Z</time></trkpt>
<trkpt lat="41.727707" lon="23.48756"><ele>2686.4</ele><time>2026-03-15T11:19:21.000Z</time></trkpt>
<trkpt lat="41.727707" lon="23.487566"><ele>2687.1</ele><time>2026-03-15T11:19:22.000Z</time></trkpt>
<trkpt lat="41.727707" lon="23.487572"><ele>2687.1</ele><time>2026-03-15T11:19:23.000Z</time></trkpt>
<trkpt lat="41.727708" lon="23.487577"><ele>2687.1</ele><time>2026-03-15T11:19:24.000Z</time></trkpt>
<trkpt lat="41.727708" lon="23.487582"><ele>2687.1</ele><time>2026-03-15T11:19:25.000Z</time></trkpt>
<trkpt lat="41.72771" lon="23.487588"><ele>2687.1</ele><time>2026-03-15T11:19:26.000Z</time></trkpt>
<trkpt lat="41.727711" lon="23.487594"><ele>2687.9</ele><time>2026-03-15T11:19:27.000Z</time></trkpt>
<trkpt lat="41.727712" lon="23.4876"><ele>2687.9</ele><time>2026-03-15T11:19:28.000Z</time></trkpt>
<trkpt lat="41.727714" lon="23.487606"><ele>2687.9</ele><time>2026-03-15T11:19:29.000Z</time></trkpt>
<trkpt lat="41.727715" lon="23.487612"><ele>2687.9</ele><time>2026-03-15T11:19:30.000Z</time></trkpt>
<trkpt lat="41.727716" lon="23.487617"><ele>2687.9</ele><time>2026-03-15T11:19:31.000Z</time></trkpt>
<trkpt lat="41.727716" lon="23.487622"><ele>2688.2</ele><time>2026-03-15T11:19:32.000Z</time></trkpt>
<trkpt lat="41.727718" lon="23.487627"><ele>2688.2</ele><time>2026-03-15T11:19:33.000Z</time></trkpt>
<trkpt lat="41.727718" lon="23.487632"><ele>2688.2</ele><time>2026-03-15T11:19:34.000Z</time></trkpt>
<trkpt lat="41.727719" lon="23.487637"><ele>2688.2</ele><time>2026-03-15T11:19:35.000Z</time></trkpt>
<trkpt lat="41.72772" lon="23.487643"><ele>2688.2</ele><time>2026-03-15T11:19:36.000Z</time></trkpt>
<trkpt lat="41.727721" lon="23.487648"><ele>2688.9</ele><time>2026-03-15T11:19:37.000Z</time></trkpt>
<trkpt lat="41.727722" lon="23.487653"><ele>2688.9</ele><time>2026-03-15T11:19:38.000Z</time></trkpt>
<trkpt lat="41.727724" lon="23.487658"><ele>2688.9</ele><time>2026-03-15T11:19:39.000Z</time></trkpt>
<trkpt lat="41.727726" lon="23.487661"><ele>2688.9</ele><time>2026-03-15T11:19:40.000Z</time></trkpt>
<trkpt lat="41.727728" lon="23.487664"><ele>2688.9</ele><time>2026-03-15T11:19:41.000Z</time></trkpt>
<trkpt lat="41.727731" lon="23.487667"><ele>2689.6</ele><time>2026-03-15T11:19:42.000Z</time></trkpt>
<trkpt lat="41.727734" lon="23.48767"><ele>2689.6</ele><time>2026-03-15T11:19:43.000Z</time></trkpt>
<trkpt lat="41.727738" lon="23.487673"><ele>2689.6</ele><time>2026-03-15T11:19:44.000Z</time></trkpt>
<trkpt lat="41.727741" lon="23.487677"><ele>2689.6</ele><time>2026-03-15T11:19:45.000Z</time></trkpt>
<trkpt lat="41.727744" lon="23.487682"><ele>2689.6</ele><time>2026-03-15T11:19:46.000Z</time></trkpt>
<trkpt lat="41.727747" lon="23.487685"><ele>2690</ele><time>2026-03-15T11:19:47.000Z</time></trkpt>
<trkpt lat="41.72775" lon="23.487689"><ele>2690</ele><time>2026-03-15T11:19:48.000Z</time></trkpt>
<trkpt lat="41.727753" lon="23.487693"><ele>2690</ele><time>2026-03-15T11:19:49.000Z</time></trkpt>
<trkpt lat="41.727755" lon="23.487697"><ele>2690</ele><time>2026-03-15T11:19:50.000Z</time></trkpt>
<trkpt lat="41.727757" lon="23.4877"><ele>2690</ele><time>2026-03-15T11:19:51.000Z</time></trkpt>
<trkpt lat="41.727759" lon="23.487705"><ele>2690.9</ele><time>2026-03-15T11:19:52.000Z</time></trkpt>
<trkpt lat="41.727761" lon="23.487709"><ele>2690.9</ele><time>2026-03-15T11:19:53.000Z</time></trkpt>
<trkpt lat="41.727761" lon="23.487713"><ele>2690.9</ele><time>2026-03-15T11:19:54.000Z</time></trkpt>
<trkpt lat="41.727762" lon="23.487717"><ele>2690.9</ele><time>2026-03-15T11:19:55.000Z</time></trkpt>
<trkpt lat="41.727763" lon="23.487721"><ele>2690.9</ele><time>2026-03-15T11:19:56.000Z</time></trkpt>
<trkpt lat="41.727765" lon="23.487724"><ele>2691.7</ele><time>2026-03-15T11:19:57.000Z</time></trkpt>
<trkpt lat="41.727766" lon="23.487728"><ele>2691.7</ele><time>2026-03-15T11:19:58.000Z</time></trkpt>
<trkpt lat="41.727769" lon="23.487732"><ele>2691.7</ele><time>2026-03-15T11:19:59.000Z</time></trkpt>
<trkpt lat="41.72777" lon="23.487736"><ele>2691.7</ele><time>2026-03-15T11:20:00.000Z</time></trkpt>
<trkpt lat="41.727772" lon="23.487741"><ele>2691.7</ele><time>2026-03-15T11:20:01.000Z</time></trkpt>
<trkpt lat="41.727774" lon="23.487745"><ele>2692.1</ele><time>2026-03-15T11:20:02.000Z</time></trkpt>
<trkpt lat="41.727776" lon="23.48775"><ele>2692.1</ele><time>2026-03-15T11:20:03.000Z</time></trkpt>
<trkpt lat="41.727778" lon="23.487755"><ele>2692.1</ele><time>2026-03-15T11:20:04.000Z</time></trkpt>
<trkpt lat="41.72778" lon="23.48776"><ele>2692.1</ele><time>2026-03-15T11:20:05.000Z</time></trkpt>
<trkpt lat="41.727783" lon="23.487766"><ele>2692.1</ele><time>2026-03-15T11:20:06.000Z</time></trkpt>
<trkpt lat="41.727785" lon="23.48777"><ele>2693</ele><time>2026-03-15T11:20:07.000Z</time></trkpt>
<trkpt lat="41.727788" lon="23.487775"><ele>2693</ele><time>2026-03-15T11:20:08.000Z</time></trkpt>
<trkpt lat="41.72779" lon="23.48778"><ele>2693</ele><time>2026-03-15T11:20:09.000Z</time></trkpt>
<trkpt lat="41.727792" lon="23.487784"><ele>2693</ele><time>2026-03-15T11:20:10.000Z</time></trkpt>
<trkpt lat="41.727793" lon="23.487788"><ele>2693</ele><time>2026-03-15T11:20:11.000Z</time></trkpt>
<trkpt lat="41.727795" lon="23.487794"><ele>2693.9</ele><time>2026-03-15T11:20:12.000Z</time></trkpt>
<trkpt lat="41.727795" lon="23.4878"><ele>2693.9</ele><time>2026-03-15T11:20:13.000Z</time></trkpt>
<trkpt lat="41.727795" lon="23.487806"><ele>2693.9</ele><time>2026-03-15T11:20:14.000Z</time></trkpt>
<trkpt lat="41.727796" lon="23.487812"><ele>2693.9</ele><time>2026-03-15T11:20:15.000Z</time></trkpt>
<trkpt lat="41.727796" lon="23.487818"><ele>2693.9</ele><time>2026-03-15T11:20:16.000Z</time></trkpt>
<trkpt lat="41.727797" lon="23.487823"><ele>2694.4</ele><time>2026-03-15T11:20:17.000Z</time></trkpt>
<trkpt lat="41.727798" lon="23.487828"><ele>2694.4</ele><time>2026-03-15T11:20:18.000Z</time></trkpt>
<trkpt lat="41.727801" lon="23.487832"><ele>2694.4</ele><time>2026-03-15T11:20:19.000Z</time></trkpt>
<trkpt lat="41.727802" lon="23.487837"><ele>2694.4</ele><time>2026-03-15T11:20:20.000Z</time></trkpt>
<trkpt lat="41.727804" lon="23.487842"><ele>2694.4</ele><time>2026-03-15T11:20:21.000Z</time></trkpt>
<trkpt lat="41.727806" lon="23.487848"><ele>2695.3</ele><time>2026-03-15T11:20:22.000Z</time></trkpt>
<trkpt lat="41.727807" lon="23.487854"><ele>2695.3</ele><time>2026-03-15T11:20:23.000Z</time></trkpt>
<trkpt lat="41.727807" lon="23.487859"><ele>2695.3</ele><time>2026-03-15T11:20:24.000Z</time></trkpt>
<trkpt lat="41.727808" lon="23.487865"><ele>2695.3</ele><time>2026-03-15T11:20:25.000Z</time></trkpt>
<trkpt lat="41.727808" lon="23.487871"><ele>2695.3</ele><time>2026-03-15T11:20:26.000Z</time></trkpt>
<trkpt lat="41.727807" lon="23.487877"><ele>2696.1</ele><time>2026-03-15T11:20:27.000Z</time></trkpt>
<trkpt lat="41.727808" lon="23.487883"><ele>2696.1</ele><time>2026-03-15T11:20:28.000Z</time></trkpt>
<trkpt lat="41.727809" lon="23.487889"><ele>2696.1</ele><time>2026-03-15T11:20:29.000Z</time></trkpt>
<trkpt lat="41.727811" lon="23.487895"><ele>2696.1</ele><time>2026-03-15T11:20:30.000Z</time></trkpt>
<trkpt lat="41.727813" lon="23.487901"><ele>2696.1</ele><time>2026-03-15T11:20:31.000Z</time></trkpt>
<trkpt lat="41.727816" lon="23.487906"><ele>2696.5</ele><time>2026-03-15T11:20:32.000Z</time></trkpt>
<trkpt lat="41.727818" lon="23.487911"><ele>2696.5</ele><time>2026-03-15T11:20:33.000Z</time></trkpt>
<trkpt lat="41.727819" lon="23.487916"><ele>2696.5</ele><time>2026-03-15T11:20:34.000Z</time></trkpt>
<trkpt lat="41.72782" lon="23.48792"><ele>2696.5</ele><time>2026-03-15T11:20:35.000Z</time></trkpt>
<trkpt lat="41.727821" lon="23.487924"><ele>2696.5</ele><time>2026-03-15T11:20:36.000Z</time></trkpt>
<trkpt lat="41.727822" lon="23.487927"><ele>2697.1</ele><time>2026-03-15T11:20:37.000Z</time></trkpt>
<trkpt lat="41.727823" lon="23.487931"><ele>2697.1</ele><time>2026-03-15T11:20:38.000Z</time></trkpt>
<trkpt lat="41.727824" lon="23.487934"><ele>2697.1</ele><time>2026-03-15T11:20:39.000Z</time></trkpt>
<trkpt lat="41.727825" lon="23.487937"><ele>2697.1</ele><time>2026-03-15T11:20:40.000Z</time></trkpt>
<trkpt lat="41.727825" lon="23.487941"><ele>2697.1</ele><time>2026-03-15T11:20:41.000Z</time></trkpt>
<trkpt lat="41.727827" lon="23.487945"><ele>2697.8</ele><time>2026-03-15T11:20:42.000Z</time></trkpt>
<trkpt lat="41.727828" lon="23.487949"><ele>2697.8</ele><time>2026-03-15T11:20:43.000Z</time></trkpt>
<trkpt lat="41.72783" lon="23.487953"><ele>2697.8</ele><time>2026-03-15T11:20:44.000Z</time></trkpt>
<trkpt lat="41.727831" lon="23.487956"><ele>2697.8</ele><time>2026-03-15T11:20:45.000Z</time></trkpt>
<trkpt lat="41.727833" lon="23.487959"><ele>2697.8</ele><time>2026-03-15T11:20:46.000Z</time></trkpt>
<trkpt lat="41.727835" lon="23.487961"><ele>2698.1</ele><time>2026-03-15T11:20:47.000Z</time></trkpt>
<trkpt lat="41.727837" lon="23.487963"><ele>2698.1</ele><time>2026-03-15T11:20:48.000Z</time></trkpt>
<trkpt lat="41.727839" lon="23.487965"><ele>2698.1</ele><time>2026-03-15T11:20:49.000Z</time></trkpt>
<trkpt lat="41.727841" lon="23.487968"><ele>2698.1</ele><time>2026-03-15T11:20:50.000Z</time></trkpt>
<trkpt lat="41.727844" lon="23.487971"><ele>2698.1</ele><time>2026-03-15T11:20:51.000Z</time></trkpt>
<trkpt lat="41.727846" lon="23.487975"><ele>2698.9</ele><time>2026-03-15T11:20:52.000Z</time></trkpt>
<trkpt lat="41.727847" lon="23.487978"><ele>2698.9</ele><time>2026-03-15T11:20:53.000Z</time></trkpt>
<trkpt lat="41.727849" lon="23.487982"><ele>2698.9</ele><time>2026-03-15T11:20:54.000Z</time></trkpt>
<trkpt lat="41.727851" lon="23.487986"><ele>2698.9</ele><time>2026-03-15T11:20:55.000Z</time></trkpt>
<trkpt lat="41.727852" lon="23.48799"><ele>2698.9</ele><time>2026-03-15T11:20:56.000Z</time></trkpt>
<trkpt lat="41.727853" lon="23.487994"><ele>2699.9</ele><time>2026-03-15T11:20:57.000Z</time></trkpt>
<trkpt lat="41.727854" lon="23.487998"><ele>2699.9</ele><time>2026-03-15T11:20:58.000Z</time></trkpt>
<trkpt lat="41.727855" lon="23.488002"><ele>2699.9</ele><time>2026-03-15T11:20:59.000Z</time></trkpt>
<trkpt lat="41.727856" lon="23.488006"><ele>2699.9</ele><time>2026-03-15T11:21:00.000Z</time></trkpt>
<trkpt lat="41.727857" lon="23.488011"><ele>2699.9</ele><time>2026-03-15T11:21:01.000Z</time></trkpt>
<trkpt lat="41.727858" lon="23.488015"><ele>2700.4</ele><time>2026-03-15T11:21:02.000Z</time></trkpt>
<trkpt lat="41.72786" lon="23.488019"><ele>2700.4</ele><time>2026-03-15T11:21:03.000Z</time></trkpt>
<trkpt lat="41.727861" lon="23.488023"><ele>2700.4</ele><time>2026-03-15T11:21:04.000Z</time></trkpt>
<trkpt lat="41.727863" lon="23.488026"><ele>2700.4</ele><time>2026-03-15T11:21:05.000Z</time></trkpt>
<trkpt lat="41.727864" lon="23.48803"><ele>2700.4</ele><time>2026-03-15T11:21:06.000Z</time></trkpt>
<trkpt lat="41.727866" lon="23.488034"><ele>2701.3</ele><time>2026-03-15T11:21:07.000Z</time></trkpt>
<trkpt lat="41.727868" lon="23.488039"><ele>2701.3</ele><time>2026-03-15T11:21:08.000Z</time></trkpt>
<trkpt lat="41.727869" lon="23.488042"><ele>2701.3</ele><time>2026-03-15T11:21:09.000Z</time></trkpt>
<trkpt lat="41.72787" lon="23.488044"><ele>2701.3</ele><time>2026-03-15T11:21:10.000Z</time></trkpt>
<trkpt lat="41.727871" lon="23.488046"><ele>2701.3</ele><time>2026-03-15T11:21:11.000Z</time></trkpt>
<trkpt lat="41.727873" lon="23.488048"><ele>2702.1</ele><time>2026-03-15T11:21:12.000Z</time></trkpt>
<trkpt lat="41.727874" lon="23.488049"><ele>2702.1</ele><time>2026-03-15T11:21:13.000Z</time></trkpt>
<trkpt lat="41.727876" lon="23.488052"><ele>2702.1</ele><time>2026-03-15T11:21:14.000Z</time></trkpt>
<trkpt lat="41.727877" lon="23.488054"><ele>2702.1</ele><time>2026-03-15T11:21:15.000Z</time></trkpt>
<trkpt lat="41.727878" lon="23.488056"><ele>2702.1</ele><time>2026-03-15T11:21:16.000Z</time></trkpt>
<trkpt lat="41.727878" lon="23.488059"><ele>2702.5</ele><time>2026-03-15T11:21:17.000Z</time></trkpt>
<trkpt lat="41.727879" lon="23.488063"><ele>2702.5</ele><time>2026-03-15T11:21:18.000Z</time></trkpt>
<trkpt lat="41.72788" lon="23.488066"><ele>2702.5</ele><time>2026-03-15T11:21:19.000Z</time></trkpt>
<trkpt lat="41.727882" lon="23.48807"><ele>2702.5</ele><time>2026-03-15T11:21:20.000Z</time></trkpt>
<trkpt lat="41.727885" lon="23.488075"><ele>2702.5</ele><time>2026-03-15T11:21:21.000Z</time></trkpt>
<trkpt lat="41.727887" lon="23.488079"><ele>2703.4</ele><time>2026-03-15T11:21:22.000Z</time></trkpt>
<trkpt lat="41.727889" lon="23.488084"><ele>2703.4</ele><time>2026-03-15T11:21:23.000Z</time></trkpt>
<trkpt lat="41.727891" lon="23.488088"><ele>2703.4</ele><time>2026-03-15T11:21:24.000Z</time></trkpt>
<trkpt lat="41.727893" lon="23.488093"><ele>2703.4</ele><time>2026-03-15T11:21:25.000Z</time></trkpt>
<trkpt lat="41.727894" lon="23.488097"><ele>2703.4</ele><time>2026-03-15T11:21:26.000Z</time></trkpt>
<trkpt lat="41.727896" lon="23.488101"><ele>2704.1</ele><time>2026-03-15T11:21:27.000Z</time></trkpt>
<trkpt lat="41.727898" lon="23.488103"><ele>2704.1</ele><time>2026-03-15T11:21:28.000Z</time></trkpt>
<trkpt lat="41.7279" lon="23.488107"><ele>2704.1</ele><time>2026-03-15T11:21:29.000Z</time></trkpt>
<trkpt lat="41.727901" lon="23.48811"><ele>2704.1</ele><time>2026-03-15T11:21:30.000Z</time></trkpt>
<trkpt lat="41.727902" lon="23.488112"><ele>2704.1</ele><time>2026-03-15T11:21:31.000Z</time></trkpt>
<trkpt lat="41.727903" lon="23.488114"><ele>2704.4</ele><time>2026-03-15T11:21:32.000Z</time></trkpt>
<trkpt lat="41.727903" lon="23.488116"><ele>2704.4</ele><time>2026-03-15T11:21:33.000Z</time></trkpt>
<trkpt lat="41.727904" lon="23.488119"><ele>2704.4</ele><time>2026-03-15T11:21:34.000Z</time></trkpt>
<trkpt lat="41.727904" lon="23.488121"><ele>2704.4</ele><time>2026-03-15T11:21:35.000Z</time></trkpt>
<trkpt lat="41.727905" lon="23.488123"><ele>2704.4</ele><time>2026-03-15T11:21:36.000Z</time></trkpt>
<trkpt lat="41.727906" lon="23.488127"><ele>2705.1</ele><time>2026-03-15T11:21:37.000Z</time></trkpt>
<trkpt lat="41.727907" lon="23.48813"><ele>2705.1</ele><time>2026-03-15T11:21:38.000Z</time></trkpt>
<trkpt lat="41.727909" lon="23.488133"><ele>2705.1</ele><time>2026-03-15T11:21:39.000Z</time></trkpt>
<trkpt lat="41.72791" lon="23.488137"><ele>2705.1</ele><time>2026-03-15T11:21:40.000Z</time></trkpt>
<trkpt lat="41.727912" lon="23.48814"><ele>2705.1</ele><time>2026-03-15T11:21:41.000Z</time></trkpt>
<trkpt lat="41.727914" lon="23.488143"><ele>2705.9</ele><time>2026-03-15T11:21:42.000Z</time></trkpt>
<trkpt lat="41.727915" lon="23.488145"><ele>2705.9</ele><time>2026-03-15T11:21:43.000Z</time></trkpt>
<trkpt lat="41.727917" lon="23.488148"><ele>2705.9</ele><time>2026-03-15T11:21:44.000Z</time></trkpt>
<trkpt lat="41.727919" lon="23.488151"><ele>2705.9</ele><time>2026-03-15T11:21:45.000Z</time></trkpt>
<trkpt lat="41.72792" lon="23.488155"><ele>2705.9</ele><time>2026-03-15T11:21:46.000Z</time></trkpt>
<trkpt lat="41.727922" lon="23.488158"><ele>2706.3</ele><time>2026-03-15T11:21:47.000Z</time></trkpt>
<trkpt lat="41.727923" lon="23.488161"><ele>2706.3</ele><time>2026-03-15T11:21:48.000Z</time></trkpt>
<trkpt lat="41.727925" lon="23.488165"><ele>2706.3</ele><time>2026-03-15T11:21:49.000Z</time></trkpt>
<trkpt lat="41.727926" lon="23.488168"><ele>2706.3</ele><time>2026-03-15T11:21:50.000Z</time></trkpt>
<trkpt lat="41.727927" lon="23.488172"><ele>2706.3</ele><time>2026-03-15T11:21:51.000Z</time></trkpt>
<trkpt lat="41.727929" lon="23.488175"><ele>2707.2</ele><time>2026-03-15T11:21:52.000Z</time></trkpt>
<trkpt lat="41.72793" lon="23.488178"><ele>2707.2</ele><time>2026-03-15T11:21:53.000Z</time></trkpt>
<trkpt lat="41.727932" lon="23.488182"><ele>2707.2</ele><time>2026-03-15T11:21:54.000Z</time></trkpt>
<trkpt lat="41.727934" lon="23.488185"><ele>2707.2</ele><time>2026-03-15T11:21:55.000Z</time></trkpt>
<trkpt lat="41.727935" lon="23.488188"><ele>2707.2</ele><time>2026-03-15T11:21:56.000Z</time></trkpt>
<trkpt lat="41.727936" lon="23.488192"><ele>2708</ele><time>2026-03-15T11:21:57.000Z</time></trkpt>
<trkpt lat="41.727936" lon="23.488196"><ele>2708</ele><time>2026-03-15T11:21:58.000Z</time></trkpt>
<trkpt lat="41.727936" lon="23.4882"><ele>2708</ele><time>2026-03-15T11:21:59.000Z</time></trkpt>
<trkpt lat="41.727935" lon="23.488203"><ele>2708</ele><time>2026-03-15T11:22:00.000Z</time></trkpt>
<trkpt lat="41.727935" lon="23.488206"><ele>2708</ele><time>2026-03-15T11:22:01.000Z</time></trkpt>
<trkpt lat="41.727935" lon="23.488208"><ele>2708.4</ele><time>2026-03-15T11:22:02.000Z</time></trkpt>
<trkpt lat="41.727935" lon="23.48821"><ele>2708.4</ele><time>2026-03-15T11:22:03.000Z</time></trkpt>
<trkpt lat="41.727935" lon="23.488211"><ele>2708.4</ele><time>2026-03-15T11:22:04.000Z</time></trkpt>
<trkpt lat="41.727937" lon="23.488213"><ele>2708.4</ele><time>2026-03-15T11:22:05.000Z</time></trkpt>
<trkpt lat="41.727938" lon="23.488214"><ele>2708.4</ele><time>2026-03-15T11:22:06.000Z</time></trkpt>
<trkpt lat="41.72794" lon="23.488216"><ele>2709.1</ele><time>2026-03-15T11:22:07.000Z</time></trkpt>
<trkpt lat="41.727942" lon="23.488218"><ele>2709.1</ele><time>2026-03-15T11:22:08.000Z</time></trkpt>
<trkpt lat="41.727944" lon="23.48822"><ele>2709.1</ele><time>2026-03-15T11:22:09.000Z</time></trkpt>
<trkpt lat="41.727944" lon="23.488222"><ele>2709.1</ele><time>2026-03-15T11:22:10.000Z</time></trkpt>
<trkpt lat="41.727946" lon="23.488225"><ele>2709.1</ele><time>2026-03-15T11:22:11.000Z</time></trkpt>
<trkpt lat="41.727948" lon="23.488228"><ele>2709.7</ele><time>2026-03-15T11:22:12.000Z</time></trkpt>
<trkpt lat="41.72795" lon="23.488231"><ele>2709.7</ele><time>2026-03-15T11:22:13.000Z</time></trkpt>
<trkpt lat="41.727951" lon="23.488234"><ele>2709.7</ele><time>2026-03-15T11:22:14.000Z</time></trkpt>
<trkpt lat="41.727952" lon="23.488237"><ele>2709.7</ele><time>2026-03-15T11:22:15.000Z</time></trkpt>
<trkpt lat="41.727953" lon="23.48824"><ele>2709.7</ele><time>2026-03-15T11:22:16.000Z</time></trkpt>
<trkpt lat="41.727953" lon="23.488242"><ele>2710</ele><time>2026-03-15T11:22:17.000Z</time></trkpt>
<trkpt lat="41.727954" lon="23.488245"><ele>2710</ele><time>2026-03-15T11:22:18.000Z</time></trkpt>
<trkpt lat="41.727954" lon="23.488248"><ele>2710</ele><time>2026-03-15T11:22:19.000Z</time></trkpt>
<trkpt lat="41.727955" lon="23.488251"><ele>2710</ele><time>2026-03-15T11:22:20.000Z</time></trkpt>
<trkpt lat="41.727956" lon="23.488253"><ele>2710</ele><time>2026-03-15T11:22:21.000Z</time></trkpt>
<trkpt lat="41.727957" lon="23.488255"><ele>2710.6</ele><time>2026-03-15T11:22:22.000Z</time></trkpt>
<trkpt lat="41.727959" lon="23.488257"><ele>2710.6</ele><time>2026-03-15T11:22:23.000Z</time></trkpt>
<trkpt lat="41.727961" lon="23.488259"><ele>2710.6</ele><time>2026-03-15T11:22:24.000Z</time></trkpt>
<trkpt lat="41.727963" lon="23.48826"><ele>2710.6</ele><time>2026-03-15T11:22:25.000Z</time></trkpt>
<trkpt lat="41.727965" lon="23.488261"><ele>2710.6</ele><time>2026-03-15T11:22:26.000Z</time></trkpt>
<trkpt lat="41.727966" lon="23.488261"><ele>2711.5</ele><time>2026-03-15T11:22:27.000Z</time></trkpt>
<trkpt lat="41.727967" lon="23.488261"><ele>2711.5</ele><time>2026-03-15T11:22:28.000Z</time></trkpt>
<trkpt lat="41.727967" lon="23.488261"><ele>2711.5</ele><time>2026-03-15T11:22:29.000Z</time></trkpt>
<trkpt lat="41.727966" lon="23.488261"><ele>2711.5</ele><time>2026-03-15T11:22:30.000Z</time></trkpt>
<trkpt lat="41.727966" lon="23.488261"><ele>2711.5</ele><time>2026-03-15T11:22:31.000Z</time></trkpt>
<trkpt lat="41.727966" lon="23.488261"><ele>2711.9</ele><time>2026-03-15T11:22:32.000Z</time></trkpt>
<trkpt lat="41.727966" lon="23.48826"><ele>2711.9</ele><time>2026-03-15T11:22:33.000Z</time></trkpt>
<trkpt lat="41.727966" lon="23.48826"><ele>2711.9</ele><time>2026-03-15T11:22:34.000Z</time></trkpt>
<trkpt lat="41.727966" lon="23.48826"><ele>2711.9</ele><time>2026-03-15T11:22:35.000Z</time></trkpt>
<trkpt lat="41.727966" lon="23.48826"><ele>2711.9</ele><time>2026-03-15T11:22:36.000Z</time></trkpt>
<trkpt lat="41.727966" lon="23.48826"><ele>2712.7</ele><time>2026-03-15T11:22:37.000Z</time></trkpt>
<trkpt lat="41.727966" lon="23.488261"><ele>2712.7</ele><time>2026-03-15T11:22:38.000Z</time></trkpt>
<trkpt lat="41.727966" lon="23.488263"><ele>2712.7</ele><time>2026-03-15T11:22:39.000Z</time></trkpt>
<trkpt lat="41.727966" lon="23.488266"><ele>2712.7</ele><time>2026-03-15T11:22:40.000Z</time></trkpt>
<trkpt lat="41.727966" lon="23.488269"><ele>2712.7</ele><time>2026-03-15T11:22:41.000Z</time></trkpt>
<trkpt lat="41.727967" lon="23.488273"><ele>2713</ele><time>2026-03-15T11:22:42.000Z</time></trkpt>
<trkpt lat="41.727968" lon="23.488277"><ele>2713</ele><time>2026-03-15T11:22:43.000Z</time></trkpt>
<trkpt lat="41.727969" lon="23.488281"><ele>2713</ele><time>2026-03-15T11:22:44.000Z</time></trkpt>
<trkpt lat="41.727971" lon="23.488285"><ele>2713</ele><time>2026-03-15T11:22:45.000Z</time></trkpt>
<trkpt lat="41.727972" lon="23.48829"><ele>2713</ele><time>2026-03-15T11:22:46.000Z</time></trkpt>
<trkpt lat="41.727973" lon="23.488294"><ele>2713.1</ele><time>2026-03-15T11:22:47.000Z</time></trkpt>
<trkpt lat="41.727975" lon="23.488299"><ele>2713.1</ele><time>2026-03-15T11:22:48.000Z</time></trkpt>
<trkpt lat="41.727976" lon="23.488304"><ele>2713.1</ele><time>2026-03-15T11:22:49.000Z</time></trkpt>
<trkpt lat="41.727976" lon="23.488308"><ele>2713.1</ele><time>2026-03-15T11:22:50.000Z</time></trkpt>
<trkpt lat="41.727977" lon="23.488311"><ele>2713.1</ele><time>2026-03-15T11:22:51.000Z</time></trkpt>
<trkpt lat="41.727979" lon="23.488315"><ele>2713.6</ele><time>2026-03-15T11:22:52.000Z</time></trkpt>
<trkpt lat="41.72798" lon="23.488317"><ele>2713.6</ele><time>2026-03-15T11:22:53.000Z</time></trkpt>
<trkpt lat="41.727982" lon="23.488319"><ele>2713.6</ele><time>2026-03-15T11:22:54.000Z</time></trkpt>
<trkpt lat="41.727983" lon="23.48832"><ele>2713.6</ele><time>2026-03-15T11:22:55.000Z</time></trkpt>
<trkpt lat="41.727984" lon="23.48832"><ele>2713.6</ele><time>2026-03-15T11:22:56.000Z</time></trkpt>
<trkpt lat="41.727985" lon="23.48832"><ele>2714.4</ele><time>2026-03-15T11:22:57.000Z</time></trkpt>
<trkpt lat="41.727985" lon="23.488319"><ele>2714.4</ele><time>2026-03-15T11:22:58.000Z</time></trkpt>
<trkpt lat="41.727986" lon="23.488318"><ele>2714.4</ele><time>2026-03-15T11:22:59.000Z</time></trkpt>
<trkpt lat="41.727986" lon="23.488317"><ele>2714.4</ele><time>2026-03-15T11:23:00.000Z</time></trkpt>
<trkpt lat="41.727987" lon="23.488316"><ele>2714.4</ele><time>2026-03-15T11:23:01.000Z</time></trkpt>
<trkpt lat="41.727988" lon="23.488317"><ele>2715</ele><time>2026-03-15T11:23:02.000Z</time></trkpt>
<trkpt lat="41.727989" lon="23.48832"><ele>2715</ele><time>2026-03-15T11:23:03.000Z</time></trkpt>
<trkpt lat="41.72799" lon="23.488323"><ele>2715</ele><time>2026-03-15T11:23:04.000Z</time></trkpt>
<trkpt lat="41.727993" lon="23.488326"><ele>2715</ele><time>2026-03-15T11:23:05.000Z</time></trkpt>
<trkpt lat="41.727995" lon="23.48833"><ele>2715</ele><time>2026-03-15T11:23:06.000Z</time></trkpt>
<trkpt lat="41.727997" lon="23.488334"><ele>2715.8</ele><time>2026-03-15T11:23:07.000Z</time></trkpt>
<trkpt lat="41.727998" lon="23.488338"><ele>2715.8</ele><time>2026-03-15T11:23:08.000Z</time></trkpt>
<trkpt lat="41.728" lon="23.488343"><ele>2715.8</ele><time>2026-03-15T11:23:09.000Z</time></trkpt>
<trkpt lat="41.728" lon="23.48835"><ele>2715.8</ele><time>2026-03-15T11:23:10.000Z</time></trkpt>
<trkpt lat="41.728" lon="23.488356"><ele>2715.8</ele><time>2026-03-15T11:23:11.000Z</time></trkpt>
<trkpt lat="41.728" lon="23.488363"><ele>2716.6</ele><time>2026-03-15T11:23:12.000Z</time></trkpt>
<trkpt lat="41.728001" lon="23.48837"><ele>2716.6</ele><time>2026-03-15T11:23:13.000Z</time></trkpt>
<trkpt lat="41.728001" lon="23.488376"><ele>2716.6</ele><time>2026-03-15T11:23:14.000Z</time></trkpt>
<trkpt lat="41.728003" lon="23.488381"><ele>2716.6</ele><time>2026-03-15T11:23:15.000Z</time></trkpt>
<trkpt lat="41.728005" lon="23.488385"><ele>2716.6</ele><time>2026-03-15T11:23:16.000Z</time></trkpt>
<trkpt lat="41.728006" lon="23.488389"><ele>2716.9</ele><time>2026-03-15T11:23:17.000Z</time></trkpt>
<trkpt lat="41.728008" lon="23.488392"><ele>2716.9</ele><time>2026-03-15T11:23:18.000Z</time></trkpt>
<trkpt lat="41.72801" lon="23.488395"><ele>2716.9</ele><time>2026-03-15T11:23:19.000Z</time></trkpt>
<trkpt lat="41.728012" lon="23.488398"><ele>2716.9</ele><time>2026-03-15T11:23:20.000Z</time></trkpt>
<trkpt lat="41.728013" lon="23.488401"><ele>2716.9</ele><time>2026-03-15T11:23:21.000Z</time></trkpt>
<trkpt lat="41.728015" lon="23.488405"><ele>2717.8</ele><time>2026-03-15T11:23:22.000Z</time></trkpt>
<trkpt lat="41.728016" lon="23.488409"><ele>2717.8</ele><time>2026-03-15T11:23:23.000Z</time></trkpt>
<trkpt lat="41.728017" lon="23.488413"><ele>2717.8</ele><time>2026-03-15T11:23:24.000Z</time></trkpt>
<trkpt lat="41.728018" lon="23.488417"><ele>2717.8</ele><time>2026-03-15T11:23:25.000Z</time></trkpt>
<trkpt lat="41.728019" lon="23.488421"><ele>2717.8</ele><time>2026-03-15T11:23:26.000Z</time></trkpt>
<trkpt lat="41.728019" lon="23.488425"><ele>2718.7</ele><time>2026-03-15T11:23:27.000Z</time></trkpt>
<trkpt lat="41.72802" lon="23.488429"><ele>2718.7</ele><time>2026-03-15T11:23:28.000Z</time></trkpt>
<trkpt lat="41.728022" lon="23.488432"><ele>2718.7</ele><time>2026-03-15T11:23:29.000Z</time></trkpt>
<trkpt lat="41.728024" lon="23.488435"><ele>2718.7</ele><time>2026-03-15T11:23:30.000Z</time></trkpt>
<trkpt lat="41.728026" lon="23.488438"><ele>2718.7</ele><time>2026-03-15T11:23:31.000Z</time></trkpt>
<trkpt lat="41.728028" lon="23.488441"><ele>2719.1</ele><time>2026-03-15T11:23:32.000Z</time></trkpt>
<trkpt lat="41.72803" lon="23.488442"><ele>2719.1</ele><time>2026-03-15T11:23:33.000Z</time></trkpt>
<trkpt lat="41.728032" lon="23.488443"><ele>2719.1</ele><time>2026-03-15T11:23:34.000Z</time></trkpt>
<trkpt lat="41.728033" lon="23.488446"><ele>2719.1</ele><time>2026-03-15T11:23:35.000Z</time></trkpt>
<trkpt lat="41.728034" lon="23.488448"><ele>2719.1</ele><time>2026-03-15T11:23:36.000Z</time></trkpt>
<trkpt lat="41.728036" lon="23.48845"><ele>2719.9</ele><time>2026-03-15T11:23:37.000Z</time></trkpt>
<trkpt lat="41.728037" lon="23.488452"><ele>2719.9</ele><time>2026-03-15T11:23:38.000Z</time></trkpt>
<trkpt lat="41.728038" lon="23.488454"><ele>2719.9</ele><time>2026-03-15T11:23:39.000Z</time></trkpt>
<trkpt lat="41.72804" lon="23.488455"><ele>2719.9</ele><time>2026-03-15T11:23:40.000Z</time></trkpt>
<trkpt lat="41.728042" lon="23.488456"><ele>2719.9</ele><time>2026-03-15T11:23:41.000Z</time></trkpt>
<trkpt lat="41.728043" lon="23.488459"><ele>2720.5</ele><time>2026-03-15T11:23:42.000Z</time></trkpt>
<trkpt lat="41.728043" lon="23.488463"><ele>2720.5</ele><time>2026-03-15T11:23:43.000Z</time></trkpt>
<trkpt lat="41.728044" lon="23.488467"><ele>2720.5</ele><time>2026-03-15T11:23:44.000Z</time></trkpt>
<trkpt lat="41.728044" lon="23.48847"><ele>2720.5</ele><time>2026-03-15T11:23:45.000Z</time></trkpt>
<trkpt lat="41.728044" lon="23.488474"><ele>2720.5</ele><time>2026-03-15T11:23:46.000Z</time></trkpt>
<trkpt lat="41.728044" lon="23.488477"><ele>2720.8</ele><time>2026-03-15T11:23:47.000Z</time></trkpt>
<trkpt lat="41.728045" lon="23.48848"><ele>2720.8</ele><time>2026-03-15T11:23:48.000Z</time></trkpt>
<trkpt lat="41.728046" lon="23.488482"><ele>2720.8</ele><time>2026-03-15T11:23:49.000Z</time></trkpt>
<trkpt lat="41.728047" lon="23.488485"><ele>2720.8</ele><time>2026-03-15T11:23:50.000Z</time></trkpt>
<trkpt lat="41.728047" lon="23.488488"><ele>2720.8</ele><time>2026-03-15T11:23:51.000Z</time></trkpt>
<trkpt lat="41.728048" lon="23.48849"><ele>2721.5</ele><time>2026-03-15T11:23:52.000Z</time></trkpt>
<trkpt lat="41.728048" lon="23.488493"><ele>2721.5</ele><time>2026-03-15T11:23:53.000Z</time></trkpt>
<trkpt lat="41.728047" lon="23.488495"><ele>2721.5</ele><time>2026-03-15T11:23:54.000Z</time></trkpt>
<trkpt lat="41.728047" lon="23.488497"><ele>2721.5</ele><time>2026-03-15T11:23:55.000Z</time></trkpt>
<trkpt lat="41.728047" lon="23.488499"><ele>2721.5</ele><time>2026-03-15T11:23:56.000Z</time></trkpt>
<trkpt lat="41.728046" lon="23.488499"><ele>2722.6</ele><time>2026-03-15T11:23:57.000Z</time></trkpt>
<trkpt lat="41.728046" lon="23.4885"><ele>2722.6</ele><time>2026-03-15T11:23:58.000Z</time></trkpt>
<trkpt lat="41.728046" lon="23.488499"><ele>2722.6</ele><time>2026-03-15T11:23:59.000Z</time></trkpt>
<trkpt lat="41.728045" lon="23.488499"><ele>2722.6</ele><time>2026-03-15T11:24:00.000Z</time></trkpt>
<trkpt lat="41.728044" lon="23.4885"><ele>2722.6</ele><time>2026-03-15T11:24:01.000Z</time></trkpt>
<trkpt lat="41.728044" lon="23.4885"><ele>2723.1</ele><time>2026-03-15T11:24:02.000Z</time></trkpt>
<trkpt lat="41.728043" lon="23.488501"><ele>2723.1</ele><time>2026-03-15T11:24:03.000Z</time></trkpt>
<trkpt lat="41.728043" lon="23.488502"><ele>2723.1</ele><time>2026-03-15T11:24:04.000Z</time></trkpt>
<trkpt lat="41.728043" lon="23.488503"><ele>2723.1</ele><time>2026-03-15T11:24:05.000Z</time></trkpt>
<trkpt lat="41.728043" lon="23.488503"><ele>2723.1</ele><time>2026-03-15T11:24:06.000Z</time></trkpt>
<trkpt lat="41.728043" lon="23.488502"><ele>2724</ele><time>2026-03-15T11:24:07.000Z</time></trkpt>
<trkpt lat="41.728043" lon="23.488502"><ele>2724</ele><time>2026-03-15T11:24:08.000Z</time></trkpt>
<trkpt lat="41.728044" lon="23.488501"><ele>2724</ele><time>2026-03-15T11:24:09.000Z</time></trkpt>
<trkpt lat="41.728044" lon="23.488501"><ele>2724</ele><time>2026-03-15T11:24:10.000Z</time></trkpt>
<trkpt lat="41.728044" lon="23.4885"><ele>2724</ele><time>2026-03-15T11:24:11.000Z</time></trkpt>
<trkpt lat="41.728044" lon="23.4885"><ele>2724.2</ele><time>2026-03-15T11:24:12.000Z</time></trkpt>
<trkpt lat="41.728044" lon="23.4885"><ele>2724.2</ele><time>2026-03-15T11:24:13.000Z</time></trkpt>
<trkpt lat="41.728044" lon="23.488502"><ele>2724.2</ele><time>2026-03-15T11:24:14.000Z</time></trkpt>
<trkpt lat="41.728044" lon="23.488505"><ele>2724.2</ele><time>2026-03-15T11:24:15.000Z</time></trkpt>
<trkpt lat="41.728045" lon="23.488508"><ele>2724.2</ele><time>2026-03-15T11:24:16.000Z</time></trkpt>
<trkpt lat="41.728046" lon="23.488513"><ele>2724.2</ele><time>2026-03-15T11:24:17.000Z</time></trkpt>
<trkpt lat="41.728047" lon="23.488518"><ele>2724.2</ele><time>2026-03-15T11:24:18.000Z</time></trkpt>
<trkpt lat="41.728049" lon="23.488523"><ele>2724.2</ele><time>2026-03-15T11:24:19.000Z</time></trkpt>
<trkpt lat="41.728051" lon="23.488528"><ele>2724.2</ele><time>2026-03-15T11:24:20.000Z</time></trkpt>
<trkpt lat="41.728052" lon="23.488532"><ele>2724.2</ele><time>2026-03-15T11:24:21.000Z</time></trkpt>
<trkpt lat="41.728053" lon="23.488537"><ele>2724.1</ele><time>2026-03-15T11:24:22.000Z</time></trkpt>
<trkpt lat="41.728054" lon="23.488541"><ele>2724.1</ele><time>2026-03-15T11:24:23.000Z</time></trkpt>
<trkpt lat="41.728054" lon="23.488546"><ele>2724.1</ele><time>2026-03-15T11:24:24.000Z</time></trkpt>
<trkpt lat="41.728054" lon="23.488551"><ele>2724.1</ele><time>2026-03-15T11:24:25.000Z</time></trkpt>
<trkpt lat="41.728053" lon="23.488556"><ele>2724.1</ele><time>2026-03-15T11:24:26.000Z</time></trkpt>
<trkpt lat="41.728052" lon="23.488561"><ele>2724.5</ele><time>2026-03-15T11:24:27.000Z</time></trkpt>
<trkpt lat="41.728051" lon="23.488567"><ele>2724.5</ele><time>2026-03-15T11:24:28.000Z</time></trkpt>
<trkpt lat="41.728051" lon="23.488572"><ele>2724.5</ele><time>2026-03-15T11:24:29.000Z</time></trkpt>
<trkpt lat="41.72805" lon="23.488578"><ele>2724.5</ele><time>2026-03-15T11:24:30.000Z</time></trkpt>
<trkpt lat="41.72805" lon="23.488584"><ele>2724.5</ele><time>2026-03-15T11:24:31.000Z</time></trkpt>
<trkpt lat="41.72805" lon="23.488591"><ele>2724.9</ele><time>2026-03-15T11:24:32.000Z</time></trkpt>
<trkpt lat="41.728051" lon="23.488597"><ele>2724.9</ele><time>2026-03-15T11:24:33.000Z</time></trkpt>
<trkpt lat="41.72805" lon="23.488604"><ele>2724.9</ele><time>2026-03-15T11:24:34.000Z</time></trkpt>
<trkpt lat="41.728051" lon="23.48861"><ele>2724.9</ele><time>2026-03-15T11:24:35.000Z</time></trkpt>
<trkpt lat="41.72805" lon="23.488616"><ele>2724.9</ele><time>2026-03-15T11:24:36.000Z</time></trkpt>
<trkpt lat="41.728049" lon="23.488621"><ele>2725.8</ele><time>2026-03-15T11:24:37.000Z</time></trkpt>
<trkpt lat="41.728049" lon="23.488625"><ele>2725.8</ele><time>2026-03-15T11:24:38.000Z</time></trkpt>
<trkpt lat="41.728049" lon="23.488629"><ele>2725.8</ele><time>2026-03-15T11:24:39.000Z</time></trkpt>
<trkpt lat="41.728048" lon="23.488631"><ele>2725.8</ele><time>2026-03-15T11:24:40.000Z</time></trkpt>
<trkpt lat="41.728047" lon="23.488634"><ele>2725.8</ele><time>2026-03-15T11:24:41.000Z</time></trkpt>
<trkpt lat="41.728046" lon="23.488637"><ele>2726.6</ele><time>2026-03-15T11:24:42.000Z</time></trkpt>
<trkpt lat="41.728044" lon="23.48864"><ele>2726.6</ele><time>2026-03-15T11:24:43.000Z</time></trkpt>
<trkpt lat="41.728042" lon="23.488643"><ele>2726.6</ele><time>2026-03-15T11:24:44.000Z</time></trkpt>
<trkpt lat="41.72804" lon="23.488647"><ele>2726.6</ele><time>2026-03-15T11:24:45.000Z</time></trkpt>
<trkpt lat="41.728038" lon="23.48865"><ele>2726.6</ele><time>2026-03-15T11:24:46.000Z</time></trkpt>
<trkpt lat="41.728037" lon="23.488655"><ele>2727</ele><time>2026-03-15T11:24:47.000Z</time></trkpt>
<trkpt lat="41.728036" lon="23.488659"><ele>2727</ele><time>2026-03-15T11:24:48.000Z</time></trkpt>
<trkpt lat="41.728034" lon="23.488663"><ele>2727</ele><time>2026-03-15T11:24:49.000Z</time></trkpt>
<trkpt lat="41.728033" lon="23.488667"><ele>2727</ele><time>2026-03-15T11:24:50.000Z</time></trkpt>
<trkpt lat="41.728032" lon="23.488671"><ele>2727</ele><time>2026-03-15T11:24:51.000Z</time></trkpt>
<trkpt lat="41.728031" lon="23.488674"><ele>2727.7</ele><time>2026-03-15T11:24:52.000Z</time></trkpt>
<trkpt lat="41.728031" lon="23.488676"><ele>2727.7</ele><time>2026-03-15T11:24:53.000Z</time></trkpt>
<trkpt lat="41.72803" lon="23.488677"><ele>2727.7</ele><time>2026-03-15T11:24:54.000Z</time></trkpt>
<trkpt lat="41.72803" lon="23.488678"><ele>2727.7</ele><time>2026-03-15T11:24:55.000Z</time></trkpt>
<trkpt lat="41.72803" lon="23.488678"><ele>2727.7</ele><time>2026-03-15T11:24:56.000Z</time></trkpt>
<trkpt lat="41.72803" lon="23.488678"><ele>2728.4</ele><time>2026-03-15T11:24:57.000Z</time></trkpt>
<trkpt lat="41.72803" lon="23.488677"><ele>2728.4</ele><time>2026-03-15T11:24:58.000Z</time></trkpt>
<trkpt lat="41.728031" lon="23.488677"><ele>2728.4</ele><time>2026-03-15T11:24:59.000Z</time></trkpt>
<trkpt lat="41.728032" lon="23.488677"><ele>2728.4</ele><time>2026-03-15T11:25:00.000Z</time></trkpt>
<trkpt lat="41.728032" lon="23.488677"><ele>2728.4</ele><time>2026-03-15T11:25:01.000Z</time></trkpt>
<trkpt lat="41.728033" lon="23.488676"><ele>2728.6</ele><time>2026-03-15T11:25:02.000Z</time></trkpt>
<trkpt lat="41.728033" lon="23.488676"><ele>2728.6</ele><time>2026-03-15T11:25:03.000Z</time></trkpt>
<trkpt lat="41.728034" lon="23.488676"><ele>2728.6</ele><time>2026-03-15T11:25:04.000Z</time></trkpt>
<trkpt lat="41.728035" lon="23.488676"><ele>2728.6</ele><time>2026-03-15T11:25:05.000Z</time></trkpt>
<trkpt lat="41.728036" lon="23.488677"><ele>2728.6</ele><time>2026-03-15T11:25:06.000Z</time></trkpt>
<trkpt lat="41.728038" lon="23.488679"><ele>2729</ele><time>2026-03-15T11:25:07.000Z</time></trkpt>
<trkpt lat="41.728039" lon="23.488682"><ele>2729</ele><time>2026-03-15T11:25:08.000Z</time></trkpt>
<trkpt lat="41.72804" lon="23.488686"><ele>2729</ele><time>2026-03-15T11:25:09.000Z</time></trkpt>
<trkpt lat="41.728041" lon="23.488691"><ele>2729</ele><time>2026-03-15T11:25:10.000Z</time></trkpt>
<trkpt lat="41.728042" lon="23.488695"><ele>2729</ele><time>2026-03-15T11:25:11.000Z</time></trkpt>
<trkpt lat="41.728042" lon="23.488699"><ele>2729.2</ele><time>2026-03-15T11:25:12.000Z</time></trkpt>
<trkpt lat="41.728043" lon="23.488702"><ele>2729.2</ele><time>2026-03-15T11:25:13.000Z</time></trkpt>
<trkpt lat="41.728044" lon="23.488705"><ele>2729.2</ele><time>2026-03-15T11:25:14.000Z</time></trkpt>
<trkpt lat="41.728045" lon="23.488708"><ele>2729.2</ele><time>2026-03-15T11:25:15.000Z</time></trkpt>
<trkpt lat="41.728046" lon="23.488711"><ele>2729.2</ele><time>2026-03-15T11:25:16.000Z</time></trkpt>
<trkpt lat="41.728047" lon="23.488714"><ele>2729.3</ele><time>2026-03-15T11:25:17.000Z</time></trkpt>
<trkpt lat="41.728046" lon="23.488718"><ele>2729.3</ele><time>2026-03-15T11:25:18.000Z</time></trkpt>
<trkpt lat="41.728046" lon="23.488722"><ele>2729.3</ele><time>2026-03-15T11:25:19.000Z</time></trkpt>
<trkpt lat="41.728046" lon="23.488727"><ele>2729.3</ele><time>2026-03-15T11:25:20.000Z</time></trkpt>
<trkpt lat="41.728045" lon="23.488732"><ele>2729.3</ele><time>2026-03-15T11:25:21.000Z</time></trkpt>
<trkpt lat="41.728044" lon="23.488738"><ele>2729.6</ele><time>2026-03-15T11:25:22.000Z</time></trkpt>
<trkpt lat="41.728045" lon="23.488743"><ele>2729.6</ele><time>2026-03-15T11:25:23.000Z</time></trkpt>
<trkpt lat="41.728045" lon="23.488747"><ele>2729.6</ele><time>2026-03-15T11:25:24.000Z</time></trkpt>
<trkpt lat="41.728045" lon="23.488751"><ele>2729.6</ele><time>2026-03-15T11:25:25.000Z</time></trkpt>
<trkpt lat="41.728044" lon="23.488754"><ele>2729.6</ele><time>2026-03-15T11:25:26.000Z</time></trkpt>
<trkpt lat="41.728042" lon="23.488758"><ele>2730.1</ele><time>2026-03-15T11:25:27.000Z</time></trkpt>
<trkpt lat="41.728041" lon="23.488761"><ele>2730.1</ele><time>2026-03-15T11:25:28.000Z</time></trkpt>
<trkpt lat="41.72804" lon="23.488765"><ele>2730.1</ele><time>2026-03-15T11:25:29.000Z</time></trkpt>
<trkpt lat="41.728039" lon="23.488769"><ele>2730.1</ele><time>2026-03-15T11:25:30.000Z</time></trkpt>
<trkpt lat="41.728038" lon="23.488772"><ele>2730.1</ele><time>2026-03-15T11:25:31.000Z</time></trkpt>
<trkpt lat="41.728037" lon="23.488775"><ele>2730.4</ele><time>2026-03-15T11:25:32.000Z</time></trkpt>
<trkpt lat="41.728036" lon="23.488779"><ele>2730.4</ele><time>2026-03-15T11:25:33.000Z</time></trkpt>
<trkpt lat="41.728035" lon="23.488784"><ele>2730.4</ele><time>2026-03-15T11:25:34.000Z</time></trkpt>
<trkpt lat="41.728034" lon="23.488788"><ele>2730.4</ele><time>2026-03-15T11:25:35.000Z</time></trkpt>
<trkpt lat="41.728034" lon="23.488794"><ele>2730.4</ele><time>2026-03-15T11:25:36.000Z</time></trkpt>
<trkpt lat="41.728034" lon="23.4888"><ele>2730.9</ele><time>2026-03-15T11:25:37.000Z</time></trkpt>
<trkpt lat="41.728034" lon="23.488806"><ele>2730.9</ele><time>2026-03-15T11:25:38.000Z</time></trkpt>
<trkpt lat="41.728034" lon="23.48881"><ele>2730.9</ele><time>2026-03-15T11:25:39.000Z</time></trkpt>
<trkpt lat="41.728034" lon="23.488814"><ele>2730.9</ele><time>2026-03-15T11:25:40.000Z</time></trkpt>
<trkpt lat="41.728033" lon="23.488816"><ele>2730.9</ele><time>2026-03-15T11:25:41.000Z</time></trkpt>
<trkpt lat="41.728033" lon="23.488816"><ele>2731.4</ele><time>2026-03-15T11:25:42.000Z</time></trkpt>
<trkpt lat="41.728033" lon="23.488816"><ele>2731.4</ele><time>2026-03-15T11:25:43.000Z</time></trkpt>
<trkpt lat="41.728034" lon="23.488817"><ele>2731.4</ele><time>2026-03-15T11:25:44.000Z</time></trkpt>
<trkpt lat="41.728034" lon="23.488817"><ele>2731.4</ele><time>2026-03-15T11:25:45.000Z</time></trkpt>
<trkpt lat="41.728033" lon="23.488818"><ele>2731.4</ele><time>2026-03-15T11:25:46.000Z</time></trkpt>
<trkpt lat="41.728033" lon="23.48882"><ele>2731.6</ele><time>2026-03-15T11:25:47.000Z</time></trkpt>
<trkpt lat="41.728032" lon="23.488823"><ele>2731.6</ele><time>2026-03-15T11:25:48.000Z</time></trkpt>
<trkpt lat="41.728031" lon="23.488827"><ele>2731.6</ele><time>2026-03-15T11:25:49.000Z</time></trkpt>
<trkpt lat="41.728029" lon="23.488832"><ele>2731.6</ele><time>2026-03-15T11:25:50.000Z</time></trkpt>
<trkpt lat="41.728027" lon="23.488836"><ele>2731.6</ele><time>2026-03-15T11:25:51.000Z</time></trkpt>
<trkpt lat="41.728025" lon="23.48884"><ele>2731.8</ele><time>2026-03-15T11:25:52.000Z</time></trkpt>
<trkpt lat="41.728025" lon="23.488844"><ele>2731.8</ele><time>2026-03-15T11:25:53.000Z</time></trkpt>
<trkpt lat="41.728025" lon="23.488848"><ele>2731.8</ele><time>2026-03-15T11:25:54.000Z</time></trkpt>
<trkpt lat="41.728025" lon="23.488852"><ele>2731.8</ele><time>2026-03-15T11:25:55.000Z</time></trkpt>
<trkpt lat="41.728024" lon="23.488857"><ele>2731.8</ele><time>2026-03-15T11:25:56.000Z</time></trkpt>
<trkpt lat="41.728024" lon="23.488862"><ele>2732</ele><time>2026-03-15T11:25:57.000Z</time></trkpt>
<trkpt lat="41.728023" lon="23.488866"><ele>2732</ele><time>2026-03-15T11:25:58.000Z</time></trkpt>
<trkpt lat="41.728021" lon="23.488868"><ele>2732</ele><time>2026-03-15T11:25:59.000Z</time></trkpt>
<trkpt lat="41.72802" lon="23.48887"><ele>2732</ele><time>2026-03-15T11:26:00.000Z</time></trkpt>
<trkpt lat="41.728018" lon="23.488873"><ele>2732</ele><time>2026-03-15T11:26:01.000Z</time></trkpt>
<trkpt lat="41.728016" lon="23.488875"><ele>2732</ele><time>2026-03-15T11:26:02.000Z</time></trkpt>
<trkpt lat="41.728014" lon="23.488877"><ele>2732</ele><time>2026-03-15T11:26:03.000Z</time></trkpt>
<trkpt lat="41.728012" lon="23.48888"><ele>2732</ele><time>2026-03-15T11:26:04.000Z</time></trkpt>
<trkpt lat="41.72801" lon="23.488883"><ele>2732</ele><time>2026-03-15T11:26:05.000Z</time></trkpt>
<trkpt lat="41.728009" lon="23.488886"><ele>2732</ele><time>2026-03-15T11:26:06.000Z</time></trkpt>
<trkpt lat="41.728008" lon="23.488889"><ele>2732</ele><time>2026-03-15T11:26:07.000Z</time></trkpt>
<trkpt lat="41.728008" lon="23.488891"><ele>2732</ele><time>2026-03-15T11:26:08.000Z</time></trkpt>
<trkpt lat="41.728007" lon="23.488893"><ele>2732</ele><time>2026-03-15T11:26:09.000Z</time></trkpt>
<trkpt lat="41.728008" lon="23.488894"><ele>2732</ele><time>2026-03-15T11:26:10.000Z</time></trkpt>
<trkpt lat="41.728008" lon="23.488896"><ele>2732</ele><time>2026-03-15T11:26:11.000Z</time></trkpt>
<trkpt lat="41.728008" lon="23.488898"><ele>2732</ele><time>2026-03-15T11:26:12.000Z</time></trkpt>
<trkpt lat="41.728008" lon="23.488901"><ele>2732</ele><time>2026-03-15T11:26:13.000Z</time></trkpt>
<trkpt lat="41.728008" lon="23.488904"><ele>2732</ele><time>2026-03-15T11:26:14.000Z</time></trkpt>
<trkpt lat="41.728007" lon="23.488908"><ele>2732</ele><time>2026-03-15T11:26:15.000Z</time></trkpt>
<trkpt lat="41.728007" lon="23.488908"><ele>2732</ele><time>2026-03-15T11:26:16.000Z</time></trkpt>
<trkpt lat="41.728008" lon="23.488909"><ele>2732.1</ele><time>2026-03-15T11:26:17.000Z</time></trkpt>
<trkpt lat="41.728009" lon="23.488908"><ele>2732.1</ele><time>2026-03-15T11:26:18.000Z</time></trkpt>
<trkpt lat="41.72801" lon="23.488907"><ele>2732.1</ele><time>2026-03-15T11:26:19.000Z</time></trkpt>
<trkpt lat="41.728011" lon="23.488906"><ele>2732.1</ele><time>2026-03-15T11:26:20.000Z</time></trkpt>
<trkpt lat="41.728011" lon="23.488906"><ele>2732.1</ele><time>2026-03-15T11:26:21.000Z</time></trkpt>
<trkpt lat="41.72801" lon="23.488906"><ele>2731.9</ele><time>2026-03-15T11:26:22.000Z</time></trkpt>
<trkpt lat="41.72801" lon="23.488907"><ele>2731.9</ele><time>2026-03-15T11:26:23.000Z</time></trkpt>
<trkpt lat="41.728009" lon="23.488907"><ele>2731.9</ele><time>2026-03-15T11:26:24.000Z</time></trkpt>
<trkpt lat="41.728009" lon="23.488907"><ele>2731.9</ele><time>2026-03-15T11:26:25.000Z</time></trkpt>
<trkpt lat="41.728009" lon="23.488907"><ele>2731.9</ele><time>2026-03-15T11:26:26.000Z</time></trkpt>
<trkpt lat="41.728008" lon="23.488908"><ele>2731.5</ele><time>2026-03-15T11:26:27.000Z</time></trkpt>
<trkpt lat="41.728007" lon="23.48891"><ele>2731.5</ele><time>2026-03-15T11:26:28.000Z</time></trkpt>
<trkpt lat="41.728006" lon="23.488914"><ele>2731.5</ele><time>2026-03-15T11:26:29.000Z</time></trkpt>
<trkpt lat="41.728005" lon="23.488918"><ele>2731.5</ele><time>2026-03-15T11:26:30.000Z</time></trkpt>
<trkpt lat="41.728003" lon="23.488923"><ele>2731.5</ele><time>2026-03-15T11:26:31.000Z</time></trkpt>
<trkpt lat="41.728001" lon="23.488927"><ele>2731.4</ele><time>2026-03-15T11:26:32.000Z</time></trkpt>
<trkpt lat="41.727999" lon="23.488931"><ele>2731.4</ele><time>2026-03-15T11:26:33.000Z</time></trkpt>
<trkpt lat="41.727996" lon="23.488933"><ele>2731.4</ele><time>2026-03-15T11:26:34.000Z</time></trkpt>
<trkpt lat="41.727993" lon="23.488935"><ele>2731.4</ele><time>2026-03-15T11:26:35.000Z</time></trkpt>
<trkpt lat="41.727992" lon="23.488937"><ele>2731.4</ele><time>2026-03-15T11:26:36.000Z</time></trkpt>
<trkpt lat="41.72799" lon="23.48894"><ele>2731.6</ele><time>2026-03-15T11:26:37.000Z</time></trkpt>
<trkpt lat="41.727988" lon="23.488943"><ele>2731.6</ele><time>2026-03-15T11:26:38.000Z</time></trkpt>
<trkpt lat="41.727987" lon="23.488946"><ele>2731.6</ele><time>2026-03-15T11:26:39.000Z</time></trkpt>
<trkpt lat="41.727987" lon="23.488951"><ele>2731.6</ele><time>2026-03-15T11:26:40.000Z</time></trkpt>
<trkpt lat="41.727985" lon="23.488956"><ele>2731.6</ele><time>2026-03-15T11:26:41.000Z</time></trkpt>
<trkpt lat="41.727984" lon="23.48896"><ele>2732</ele><time>2026-03-15T11:26:42.000Z</time></trkpt>
<trkpt lat="41.727982" lon="23.488964"><ele>2732</ele><time>2026-03-15T11:26:43.000Z</time></trkpt>
<trkpt lat="41.72798" lon="23.488969"><ele>2732</ele><time>2026-03-15T11:26:44.000Z</time></trkpt>
<trkpt lat="41.727977" lon="23.488975"><ele>2732</ele><time>2026-03-15T11:26:45.000Z</time></trkpt>
<trkpt lat="41.727975" lon="23.488981"><ele>2732</ele><time>2026-03-15T11:26:46.000Z</time></trkpt>
<trkpt lat="41.727973" lon="23.488987"><ele>2732.2</ele><time>2026-03-15T11:26:47.000Z</time></trkpt>
<trkpt lat="41.72797" lon="23.488992"><ele>2732.2</ele><time>2026-03-15T11:26:48.000Z</time></trkpt>
<trkpt lat="41.72797" lon="23.488996"><ele>2732.2</ele><time>2026-03-15T11:26:49.000Z</time></trkpt>
<trkpt lat="41.727969" lon="23.488998"><ele>2732.2</ele><time>2026-03-15T11:26:50.000Z</time></trkpt>
<trkpt lat="41.727969" lon="23.489"><ele>2732.2</ele><time>2026-03-15T11:26:51.000Z</time></trkpt>
<trkpt lat="41.727969" lon="23.489001"><ele>2732.5</ele><time>2026-03-15T11:26:52.000Z</time></trkpt>
<trkpt lat="41.727969" lon="23.489002"><ele>2732.5</ele><time>2026-03-15T11:26:53.000Z</time></trkpt>
<trkpt lat="41.727969" lon="23.489003"><ele>2732.5</ele><time>2026-03-15T11:26:54.000Z</time></trkpt>
<trkpt lat="41.727969" lon="23.489003"><ele>2732.5</ele><time>2026-03-15T11:26:55.000Z</time></trkpt>
<trkpt lat="41.727969" lon="23.489003"><ele>2732.5</ele><time>2026-03-15T11:26:56.000Z</time></trkpt>
<trkpt lat="41.727969" lon="23.489003"><ele>2732.6</ele><time>2026-03-15T11:26:57.000Z</time></trkpt>
<trkpt lat="41.727969" lon="23.489003"><ele>2732.6</ele><time>2026-03-15T11:26:58.000Z</time></trkpt>
<trkpt lat="41.727968" lon="23.489002"><ele>2732.6</ele><time>2026-03-15T11:26:59.000Z</time></trkpt>
<trkpt lat="41.727968" lon="23.489002"><ele>2732.6</ele><time>2026-03-15T11:27:00.000Z</time></trkpt>
<trkpt lat="41.727968" lon="23.489001"><ele>2732.6</ele><time>2026-03-15T11:27:01.000Z</time></trkpt>
<trkpt lat="41.727967" lon="23.489"><ele>2732.7</ele><time>2026-03-15T11:27:02.000Z</time></trkpt>
<trkpt lat="41.727967" lon="23.489"><ele>2732.7</ele><time>2026-03-15T11:27:03.000Z</time></trkpt>
<trkpt lat="41.727968" lon="23.488999"><ele>2732.7</ele><time>2026-03-15T11:27:04.000Z</time></trkpt>
<trkpt lat="41.727968" lon="23.488999"><ele>2732.7</ele><time>2026-03-15T11:27:05.000Z</time></trkpt>
<trkpt lat="41.727969" lon="23.488998"><ele>2732.7</ele><time>2026-03-15T11:27:06.000Z</time></trkpt>
<trkpt lat="41.727969" lon="23.488998"><ele>2732.6</ele><time>2026-03-15T11:27:07.000Z</time></trkpt>
<trkpt lat="41.72797" lon="23.488999"><ele>2732.6</ele><time>2026-03-15T11:27:08.000Z</time></trkpt>
<trkpt lat="41.727971" lon="23.489"><ele>2732.6</ele><time>2026-03-15T11:27:09.000Z</time></trkpt>
<trkpt lat="41.727971" lon="23.489"><ele>2732.6</ele><time>2026-03-15T11:27:10.000Z</time></trkpt>
<trkpt lat="41.727972" lon="23.489001"><ele>2732.6</ele><time>2026-03-15T11:27:11.000Z</time></trkpt>
<trkpt lat="41.727971" lon="23.489002"><ele>2732.4</ele><time>2026-03-15T11:27:12.000Z</time></trkpt>
<trkpt lat="41.727971" lon="23.489003"><ele>2732.4</ele><time>2026-03-15T11:27:13.000Z</time></trkpt>
<trkpt lat="41.72797" lon="23.489004"><ele>2732.4</ele><time>2026-03-15T11:27:14.000Z</time></trkpt>
<trkpt lat="41.727969" lon="23.489005"><ele>2732.4</ele><time>2026-03-15T11:27:15.000Z</time></trkpt>
<trkpt lat="41.727969" lon="23.489006"><ele>2732.4</ele><time>2026-03-15T11:27:16.000Z</time></trkpt>
<trkpt lat="41.727969" lon="23.489006"><ele>2732.3</ele><time>2026-03-15T11:27:17.000Z</time></trkpt>
<trkpt lat="41.727968" lon="23.489007"><ele>2732.3</ele><time>2026-03-15T11:27:18.000Z</time></trkpt>
<trkpt lat="41.727968" lon="23.489007"><ele>2732.3</ele><time>2026-03-15T11:27:19.000Z</time></trkpt>
<trkpt lat="41.727968" lon="23.489007"><ele>2732.3</ele><time>2026-03-15T11:27:20.000Z</time></trkpt>
<trkpt lat="41.727968" lon="23.489007"><ele>2732.3</ele><time>2026-03-15T11:27:21.000Z</time></trkpt>
<trkpt lat="41.727968" lon="23.489007"><ele>2732.4</ele><time>2026-03-15T11:27:22.000Z</time></trkpt>
<trkpt lat="41.727968" lon="23.489007"><ele>2732.4</ele><time>2026-03-15T11:27:23.000Z</time></trkpt>
<trkpt lat="41.727968" lon="23.489007"><ele>2732.4</ele><time>2026-03-15T11:27:24.000Z</time></trkpt>
<trkpt lat="41.727968" lon="23.489007"><ele>2732.4</ele><time>2026-03-15T11:27:25.000Z</time></trkpt>
<trkpt lat="41.727968" lon="23.489008"><ele>2732.4</ele><time>2026-03-15T11:27:26.000Z</time></trkpt>
<trkpt lat="41.727967" lon="23.489009"><ele>2732.6</ele><time>2026-03-15T11:27:27.000Z</time></trkpt>
<trkpt lat="41.727966" lon="23.48901"><ele>2732.6</ele><time>2026-03-15T11:27:28.000Z</time></trkpt>
<trkpt lat="41.727965" lon="23.489011"><ele>2732.6</ele><time>2026-03-15T11:27:29.000Z</time></trkpt>
<trkpt lat="41.727963" lon="23.489012"><ele>2732.6</ele><time>2026-03-15T11:27:30.000Z</time></trkpt>
<trkpt lat="41.727963" lon="23.489011"><ele>2732.6</ele><time>2026-03-15T11:27:31.000Z</time></trkpt>
<trkpt lat="41.727962" lon="23.48901"><ele>2732.7</ele><time>2026-03-15T11:27:32.000Z</time></trkpt>
<trkpt lat="41.727962" lon="23.489009"><ele>2732.7</ele><time>2026-03-15T11:27:33.000Z</time></trkpt>
<trkpt lat="41.727961" lon="23.489008"><ele>2732.7</ele><time>2026-03-15T11:27:34.000Z</time></trkpt>
<trkpt lat="41.727961" lon="23.489007"><ele>2732.7</ele><time>2026-03-15T11:27:35.000Z</time></trkpt>
<trkpt lat="41.72796" lon="23.489007"><ele>2732.7</ele><time>2026-03-15T11:27:36.000Z</time></trkpt>
<trkpt lat="41.72796" lon="23.489007"><ele>2732.7</ele><time>2026-03-15T11:27:37.000Z</time></trkpt>
<trkpt lat="41.727959" lon="23.489008"><ele>2732.7</ele><time>2026-03-15T11:27:38.000Z</time></trkpt>
<trkpt lat="41.727959" lon="23.489008"><ele>2732.7</ele><time>2026-03-15T11:27:39.000Z</time></trkpt>
<trkpt lat="41.727959" lon="23.48901"><ele>2732.7</ele><time>2026-03-15T11:27:40.000Z</time></trkpt>
<trkpt lat="41.72796" lon="23.489011"><ele>2732.7</ele><time>2026-03-15T11:27:41.000Z</time></trkpt>
<trkpt lat="41.72796" lon="23.489012"><ele>2732.8</ele><time>2026-03-15T11:27:42.000Z</time></trkpt>
<trkpt lat="41.72796" lon="23.489013"><ele>2732.8</ele><time>2026-03-15T11:27:43.000Z</time></trkpt>
<trkpt lat="41.72796" lon="23.489013"><ele>2732.8</ele><time>2026-03-15T11:27:44.000Z</time></trkpt>
<trkpt lat="41.72796" lon="23.489013"><ele>2732.8</ele><time>2026-03-15T11:27:45.000Z</time></trkpt>
<trkpt lat="41.72796" lon="23.489013"><ele>2732.8</ele><time>2026-03-15T11:27:46.000Z</time></trkpt>
<trkpt lat="41.72796" lon="23.489013"><ele>2732.8</ele><time>2026-03-15T11:27:47.000Z</time></trkpt>
<trkpt lat="41.727961" lon="23.489014"><ele>2732.8</ele><time>2026-03-15T11:27:48.000Z</time></trkpt>
<trkpt lat="41.727961" lon="23.489017"><ele>2732.8</ele><time>2026-03-15T11:27:49.000Z</time></trkpt>
<trkpt lat="41.727961" lon="23.48902"><ele>2732.8</ele><time>2026-03-15T11:27:50.000Z</time></trkpt>
<trkpt lat="41.727961" lon="23.489025"><ele>2732.8</ele><time>2026-03-15T11:27:51.000Z</time></trkpt>
<trkpt lat="41.72796" lon="23.489031"><ele>2732.8</ele><time>2026-03-15T11:27:52.000Z</time></trkpt>
<trkpt lat="41.727958" lon="23.489038"><ele>2732.8</ele><time>2026-03-15T11:27:53.000Z</time></trkpt>
<trkpt lat="41.727957" lon="23.489044"><ele>2732.8</ele><time>2026-03-15T11:27:54.000Z</time></trkpt>
<trkpt lat="41.727956" lon="23.48905"><ele>2732.8</ele><time>2026-03-15T11:27:55.000Z</time></trkpt>
<trkpt lat="41.727955" lon="23.489055"><ele>2732.8</ele><time>2026-03-15T11:27:56.000Z</time></trkpt>
<trkpt lat="41.727954" lon="23.489059"><ele>2733</ele><time>2026-03-15T11:27:57.000Z</time></trkpt>
<trkpt lat="41.727953" lon="23.489061"><ele>2733</ele><time>2026-03-15T11:27:58.000Z</time></trkpt>
<trkpt lat="41.727952" lon="23.489065"><ele>2733</ele><time>2026-03-15T11:27:59.000Z</time></trkpt>
<trkpt lat="41.727951" lon="23.489068"><ele>2733</ele><time>2026-03-15T11:28:00.000Z</time></trkpt>
<trkpt lat="41.72795" lon="23.489072"><ele>2733</ele><time>2026-03-15T11:28:01.000Z</time></trkpt>
<trkpt lat="41.727949" lon="23.489077"><ele>2733.2</ele><time>2026-03-15T11:28:02.000Z</time></trkpt>
<trkpt lat="41.727949" lon="23.489083"><ele>2733.2</ele><time>2026-03-15T11:28:03.000Z</time></trkpt>
<trkpt lat="41.727948" lon="23.489089"><ele>2733.2</ele><time>2026-03-15T11:28:04.000Z</time></trkpt>
<trkpt lat="41.727947" lon="23.489095"><ele>2733.2</ele><time>2026-03-15T11:28:05.000Z</time></trkpt>
<trkpt lat="41.727946" lon="23.489101"><ele>2733.2</ele><time>2026-03-15T11:28:06.000Z</time></trkpt>
<trkpt lat="41.727944" lon="23.489108"><ele>2733.6</ele><time>2026-03-15T11:28:07.000Z</time></trkpt>
<trkpt lat="41.727943" lon="23.489115"><ele>2733.6</ele><time>2026-03-15T11:28:08.000Z</time></trkpt>
<trkpt lat="41.727942" lon="23.48912"><ele>2733.6</ele><time>2026-03-15T11:28:09.000Z</time></trkpt>
<trkpt lat="41.727941" lon="23.489126"><ele>2733.6</ele><time>2026-03-15T11:28:10.000Z</time></trkpt>
<trkpt lat="41.727939" lon="23.489132"><ele>2733.6</ele><time>2026-03-15T11:28:11.000Z</time></trkpt>
<trkpt lat="41.727938" lon="23.489137"><ele>2734</ele><time>2026-03-15T11:28:12.000Z</time></trkpt>
<trkpt lat="41.727936" lon="23.489143"><ele>2734</ele><time>2026-03-15T11:28:13.000Z</time></trkpt>
<trkpt lat="41.727934" lon="23.489149"><ele>2734</ele><time>2026-03-15T11:28:14.000Z</time></trkpt>
<trkpt lat="41.727933" lon="23.489155"><ele>2734</ele><time>2026-03-15T11:28:15.000Z</time></trkpt>
<trkpt lat="41.727931" lon="23.489162"><ele>2734</ele><time>2026-03-15T11:28:16.000Z</time></trkpt>
<trkpt lat="41.72793" lon="23.489168"><ele>2734.3</ele><time>2026-03-15T11:28:17.000Z</time></trkpt>
<trkpt lat="41.727929" lon="23.489174"><ele>2734.3</ele><time>2026-03-15T11:28:18.000Z</time></trkpt>
<trkpt lat="41.727927" lon="23.489181"><ele>2734.3</ele><time>2026-03-15T11:28:19.000Z</time></trkpt>
<trkpt lat="41.727926" lon="23.489187"><ele>2734.3</ele><time>2026-03-15T11:28:20.000Z</time></trkpt>
<trkpt lat="41.727925" lon="23.489195"><ele>2734.3</ele><time>2026-03-15T11:28:21.000Z</time></trkpt>
<trkpt lat="41.727923" lon="23.489202"><ele>2735.1</ele><time>2026-03-15T11:28:22.000Z</time></trkpt>
<trkpt lat="41.727922" lon="23.489209"><ele>2735.1</ele><time>2026-03-15T11:28:23.000Z</time></trkpt>
<trkpt lat="41.727921" lon="23.489215"><ele>2735.1</ele><time>2026-03-15T11:28:24.000Z</time></trkpt>
<trkpt lat="41.72792" lon="23.489221"><ele>2735.1</ele><time>2026-03-15T11:28:25.000Z</time></trkpt>
<trkpt lat="41.727919" lon="23.489226"><ele>2735.1</ele><time>2026-03-15T11:28:26.000Z</time></trkpt>
<trkpt lat="41.727917" lon="23.489232"><ele>2736</ele><time>2026-03-15T11:28:27.000Z</time></trkpt>
<trkpt lat="41.727916" lon="23.489239"><ele>2736</ele><time>2026-03-15T11:28:28.000Z</time></trkpt>
<trkpt lat="41.727914" lon="23.489247"><ele>2736</ele><time>2026-03-15T11:28:29.000Z</time></trkpt>
<trkpt lat="41.727912" lon="23.489254"><ele>2736</ele><time>2026-03-15T11:28:30.000Z</time></trkpt>
<trkpt lat="41.72791" lon="23.489262"><ele>2736</ele><time>2026-03-15T11:28:31.000Z</time></trkpt>
<trkpt lat="41.727908" lon="23.48927"><ele>2736.5</ele><time>2026-03-15T11:28:32.000Z</time></trkpt>
<trkpt lat="41.727907" lon="23.489277"><ele>2736.5</ele><time>2026-03-15T11:28:33.000Z</time></trkpt>
<trkpt lat="41.727906" lon="23.489283"><ele>2736.5</ele><time>2026-03-15T11:28:34.000Z</time></trkpt>
<trkpt lat="41.727905" lon="23.489289"><ele>2736.5</ele><time>2026-03-15T11:28:35.000Z</time></trkpt>
<trkpt lat="41.727904" lon="23.489295"><ele>2736.5</ele><time>2026-03-15T11:28:36.000Z</time></trkpt>
<trkpt lat="41.727904" lon="23.489301"><ele>2737.5</ele><time>2026-03-15T11:28:37.000Z</time></trkpt>
<trkpt lat="41.727903" lon="23.489306"><ele>2737.5</ele><time>2026-03-15T11:28:38.000Z</time></trkpt>
<trkpt lat="41.727903" lon="23.489312"><ele>2737.5</ele><time>2026-03-15T11:28:39.000Z</time></trkpt>
<trkpt lat="41.727902" lon="23.489318"><ele>2737.5</ele><time>2026-03-15T11:28:40.000Z</time></trkpt>
<trkpt lat="41.727901" lon="23.489324"><ele>2737.5</ele><time>2026-03-15T11:28:41.000Z</time></trkpt>
<trkpt lat="41.7279" lon="23.48933"><ele>2738.5</ele><time>2026-03-15T11:28:42.000Z</time></trkpt>
<trkpt lat="41.727899" lon="23.489337"><ele>2738.5</ele><time>2026-03-15T11:28:43.000Z</time></trkpt>
<trkpt lat="41.727897" lon="23.489343"><ele>2738.5</ele><time>2026-03-15T11:28:44.000Z</time></trkpt>
<trkpt lat="41.727896" lon="23.48935"><ele>2738.5</ele><time>2026-03-15T11:28:45.000Z</time></trkpt>
<trkpt lat="41.727895" lon="23.489355"><ele>2738.5</ele><time>2026-03-15T11:28:46.000Z</time></trkpt>
<trkpt lat="41.727894" lon="23.489361"><ele>2739</ele><time>2026-03-15T11:28:47.000Z</time></trkpt>
<trkpt lat="41.727894" lon="23.489366"><ele>2739</ele><time>2026-03-15T11:28:48.000Z</time></trkpt>
<trkpt lat="41.727894" lon="23.489371"><ele>2739</ele><time>2026-03-15T11:28:49.000Z</time></trkpt>
<trkpt lat="41.727894" lon="23.489375"><ele>2739</ele><time>2026-03-15T11:28:50.000Z</time></trkpt>
<trkpt lat="41.727894" lon="23.489379"><ele>2739</ele><time>2026-03-15T11:28:51.000Z</time></trkpt>
<trkpt lat="41.727895" lon="23.489383"><ele>2739.9</ele><time>2026-03-15T11:28:52.000Z</time></trkpt>
<trkpt lat="41.727895" lon="23.489387"><ele>2739.9</ele><time>2026-03-15T11:28:53.000Z</time></trkpt>
<trkpt lat="41.727896" lon="23.48939"><ele>2739.9</ele><time>2026-03-15T11:28:54.000Z</time></trkpt>
<trkpt lat="41.727896" lon="23.489394"><ele>2739.9</ele><time>2026-03-15T11:28:55.000Z</time></trkpt>
<trkpt lat="41.727897" lon="23.4894"><ele>2739.9</ele><time>2026-03-15T11:28:56.000Z</time></trkpt>
<trkpt lat="41.727897" lon="23.489405"><ele>2740.7</ele><time>2026-03-15T11:28:57.000Z</time></trkpt>
<trkpt lat="41.727897" lon="23.489411"><ele>2740.7</ele><time>2026-03-15T11:28:58.000Z</time></trkpt>
<trkpt lat="41.727896" lon="23.489417"><ele>2740.7</ele><time>2026-03-15T11:28:59.000Z</time></trkpt>
<trkpt lat="41.727896" lon="23.489423"><ele>2740.7</ele><time>2026-03-15T11:29:00.000Z</time></trkpt>
<trkpt lat="41.727896" lon="23.489428"><ele>2740.7</ele><time>2026-03-15T11:29:01.000Z</time></trkpt>
<trkpt lat="41.727896" lon="23.489434"><ele>2741.1</ele><time>2026-03-15T11:29:02.000Z</time></trkpt>
<trkpt lat="41.727896" lon="23.489439"><ele>2741.1</ele><time>2026-03-15T11:29:03.000Z</time></trkpt>
<trkpt lat="41.727895" lon="23.489444"><ele>2741.1</ele><time>2026-03-15T11:29:04.000Z</time></trkpt>
<trkpt lat="41.727893" lon="23.489448"><ele>2741.1</ele><time>2026-03-15T11:29:05.000Z</time></trkpt>
<trkpt lat="41.727891" lon="23.489453"><ele>2741.1</ele><time>2026-03-15T11:29:06.000Z</time></trkpt>
<trkpt lat="41.72789" lon="23.489458"><ele>2741.9</ele><time>2026-03-15T11:29:07.000Z</time></trkpt>
<trkpt lat="41.727888" lon="23.489463"><ele>2741.9</ele><time>2026-03-15T11:29:08.000Z</time></trkpt>
<trkpt lat="41.727887" lon="23.48947"><ele>2741.9</ele><time>2026-03-15T11:29:09.000Z</time></trkpt>
<trkpt lat="41.727885" lon="23.489476"><ele>2741.9</ele><time>2026-03-15T11:29:10.000Z</time></trkpt>
<trkpt lat="41.727885" lon="23.489483"><ele>2741.9</ele><time>2026-03-15T11:29:11.000Z</time></trkpt>
<trkpt lat="41.727884" lon="23.48949"><ele>2742.8</ele><time>2026-03-15T11:29:12.000Z</time></trkpt>
<trkpt lat="41.727883" lon="23.489498"><ele>2742.8</ele><time>2026-03-15T11:29:13.000Z</time></trkpt>
<trkpt lat="41.727883" lon="23.489506"><ele>2742.8</ele><time>2026-03-15T11:29:14.000Z</time></trkpt>
<trkpt lat="41.727884" lon="23.489513"><ele>2742.8</ele><time>2026-03-15T11:29:15.000Z</time></trkpt>
<trkpt lat="41.727883" lon="23.48952"><ele>2742.8</ele><time>2026-03-15T11:29:16.000Z</time></trkpt>
<trkpt lat="41.727883" lon="23.489526"><ele>2743.3</ele><time>2026-03-15T11:29:17.000Z</time></trkpt>
<trkpt lat="41.727883" lon="23.489532"><ele>2743.3</ele><time>2026-03-15T11:29:18.000Z</time></trkpt>
<trkpt lat="41.727882" lon="23.489538"><ele>2743.3</ele><time>2026-03-15T11:29:19.000Z</time></trkpt>
<trkpt lat="41.72788" lon="23.489543"><ele>2743.3</ele><time>2026-03-15T11:29:20.000Z</time></trkpt>
<trkpt lat="41.727879" lon="23.489548"><ele>2743.3</ele><time>2026-03-15T11:29:21.000Z</time></trkpt>
<trkpt lat="41.727877" lon="23.489554"><ele>2744.2</ele><time>2026-03-15T11:29:22.000Z</time></trkpt>
<trkpt lat="41.727875" lon="23.48956"><ele>2744.2</ele><time>2026-03-15T11:29:23.000Z</time></trkpt>
<trkpt lat="41.727874" lon="23.489566"><ele>2744.2</ele><time>2026-03-15T11:29:24.000Z</time></trkpt>
<trkpt lat="41.727873" lon="23.489573"><ele>2744.2</ele><time>2026-03-15T11:29:25.000Z</time></trkpt>
<trkpt lat="41.72787" lon="23.489579"><ele>2744.2</ele><time>2026-03-15T11:29:26.000Z</time></trkpt>
<trkpt lat="41.727867" lon="23.489586"><ele>2745.1</ele><time>2026-03-15T11:29:27.000Z</time></trkpt>
<trkpt lat="41.727864" lon="23.489592"><ele>2745.1</ele><time>2026-03-15T11:29:28.000Z</time></trkpt>
<trkpt lat="41.72786" lon="23.489599"><ele>2745.1</ele><time>2026-03-15T11:29:29.000Z</time></trkpt>
<trkpt lat="41.727857" lon="23.489605"><ele>2745.1</ele><time>2026-03-15T11:29:30.000Z</time></trkpt>
<trkpt lat="41.727855" lon="23.489611"><ele>2745.1</ele><time>2026-03-15T11:29:31.000Z</time></trkpt>
<trkpt lat="41.727853" lon="23.489617"><ele>2745.5</ele><time>2026-03-15T11:29:32.000Z</time></trkpt>
<trkpt lat="41.727853" lon="23.489623"><ele>2745.5</ele><time>2026-03-15T11:29:33.000Z</time></trkpt>
<trkpt lat="41.727852" lon="23.489628"><ele>2745.5</ele><time>2026-03-15T11:29:34.000Z</time></trkpt>
<trkpt lat="41.727851" lon="23.489634"><ele>2745.5</ele><time>2026-03-15T11:29:35.000Z</time></trkpt>
<trkpt lat="41.72785" lon="23.489639"><ele>2745.5</ele><time>2026-03-15T11:29:36.000Z</time></trkpt>
<trkpt lat="41.727849" lon="23.489645"><ele>2746.1</ele><time>2026-03-15T11:29:37.000Z</time></trkpt>
<trkpt lat="41.727847" lon="23.489651"><ele>2746.1</ele><time>2026-03-15T11:29:38.000Z</time></trkpt>
<trkpt lat="41.727845" lon="23.489658"><ele>2746.1</ele><time>2026-03-15T11:29:39.000Z</time></trkpt>
<trkpt lat="41.727843" lon="23.489665"><ele>2746.1</ele><time>2026-03-15T11:29:40.000Z</time></trkpt>
<trkpt lat="41.727841" lon="23.489672"><ele>2746.1</ele><time>2026-03-15T11:29:41.000Z</time></trkpt>
<trkpt lat="41.72784" lon="23.489679"><ele>2746.6</ele><time>2026-03-15T11:29:42.000Z</time></trkpt>
<trkpt lat="41.727839" lon="23.489686"><ele>2746.6</ele><time>2026-03-15T11:29:43.000Z</time></trkpt>
<trkpt lat="41.727838" lon="23.489694"><ele>2746.6</ele><time>2026-03-15T11:29:44.000Z</time></trkpt>
<trkpt lat="41.727838" lon="23.4897"><ele>2746.6</ele><time>2026-03-15T11:29:45.000Z</time></trkpt>
<trkpt lat="41.727838" lon="23.489707"><ele>2746.6</ele><time>2026-03-15T11:29:46.000Z</time></trkpt>
<trkpt lat="41.727838" lon="23.489712"><ele>2746.9</ele><time>2026-03-15T11:29:47.000Z</time></trkpt>
<trkpt lat="41.727837" lon="23.489718"><ele>2746.9</ele><time>2026-03-15T11:29:48.000Z</time></trkpt>
<trkpt lat="41.727837" lon="23.489723"><ele>2746.9</ele><time>2026-03-15T11:29:49.000Z</time></trkpt>
<trkpt lat="41.727836" lon="23.489729"><ele>2746.9</ele><time>2026-03-15T11:29:50.000Z</time></trkpt>
<trkpt lat="41.727835" lon="23.489735"><ele>2746.9</ele><time>2026-03-15T11:29:51.000Z</time></trkpt>
<trkpt lat="41.727833" lon="23.489741"><ele>2747.5</ele><time>2026-03-15T11:29:52.000Z</time></trkpt>
<trkpt lat="41.727831" lon="23.489748"><ele>2747.5</ele><time>2026-03-15T11:29:53.000Z</time></trkpt>
<trkpt lat="41.727828" lon="23.489755"><ele>2747.5</ele><time>2026-03-15T11:29:54.000Z</time></trkpt>
<trkpt lat="41.727825" lon="23.489761"><ele>2747.5</ele><time>2026-03-15T11:29:55.000Z</time></trkpt>
<trkpt lat="41.727822" lon="23.489767"><ele>2747.5</ele><time>2026-03-15T11:29:56.000Z</time></trkpt>
<trkpt lat="41.72782" lon="23.489773"><ele>2748.2</ele><time>2026-03-15T11:29:57.000Z</time></trkpt>
<trkpt lat="41.727818" lon="23.489779"><ele>2748.2</ele><time>2026-03-15T11:29:58.000Z</time></trkpt>
<trkpt lat="41.727817" lon="23.489785"><ele>2748.2</ele><time>2026-03-15T11:29:59.000Z</time></trkpt>
<trkpt lat="41.727816" lon="23.489791"><ele>2748.2</ele><time>2026-03-15T11:30:00.000Z</time></trkpt>
<trkpt lat="41.727815" lon="23.489797"><ele>2748.2</ele><time>2026-03-15T11:30:01.000Z</time></trkpt>
<trkpt lat="41.727814" lon="23.489802"><ele>2748.5</ele><time>2026-03-15T11:30:02.000Z</time></trkpt>
<trkpt lat="41.727813" lon="23.489806"><ele>2748.5</ele><time>2026-03-15T11:30:03.000Z</time></trkpt>
<trkpt lat="41.727812" lon="23.489809"><ele>2748.5</ele><time>2026-03-15T11:30:04.000Z</time></trkpt>
<trkpt lat="41.727811" lon="23.489812"><ele>2748.5</ele><time>2026-03-15T11:30:05.000Z</time></trkpt>
<trkpt lat="41.727811" lon="23.489816"><ele>2748.5</ele><time>2026-03-15T11:30:06.000Z</time></trkpt>
<trkpt lat="41.72781" lon="23.489821"><ele>2749.2</ele><time>2026-03-15T11:30:07.000Z</time></trkpt>
<trkpt lat="41.727809" lon="23.489826"><ele>2749.2</ele><time>2026-03-15T11:30:08.000Z</time></trkpt>
<trkpt lat="41.727808" lon="23.489832"><ele>2749.2</ele><time>2026-03-15T11:30:09.000Z</time></trkpt>
<trkpt lat="41.727808" lon="23.489838"><ele>2749.2</ele><time>2026-03-15T11:30:10.000Z</time></trkpt>
<trkpt lat="41.727807" lon="23.489844"><ele>2749.2</ele><time>2026-03-15T11:30:11.000Z</time></trkpt>
<trkpt lat="41.727806" lon="23.48985"><ele>2749.9</ele><time>2026-03-15T11:30:12.000Z</time></trkpt>
<trkpt lat="41.727805" lon="23.489857"><ele>2749.9</ele><time>2026-03-15T11:30:13.000Z</time></trkpt>
<trkpt lat="41.727803" lon="23.489864"><ele>2749.9</ele><time>2026-03-15T11:30:14.000Z</time></trkpt>
<trkpt lat="41.727802" lon="23.48987"><ele>2749.9</ele><time>2026-03-15T11:30:15.000Z</time></trkpt>
<trkpt lat="41.7278" lon="23.489876"><ele>2749.9</ele><time>2026-03-15T11:30:16.000Z</time></trkpt>
<trkpt lat="41.727799" lon="23.489881"><ele>2750.3</ele><time>2026-03-15T11:30:17.000Z</time></trkpt>
<trkpt lat="41.727799" lon="23.489885"><ele>2750.3</ele><time>2026-03-15T11:30:18.000Z</time></trkpt>
<trkpt lat="41.727798" lon="23.489891"><ele>2750.3</ele><time>2026-03-15T11:30:19.000Z</time></trkpt>
<trkpt lat="41.727797" lon="23.489895"><ele>2750.3</ele><time>2026-03-15T11:30:20.000Z</time></trkpt>
<trkpt lat="41.727797" lon="23.4899"><ele>2750.3</ele><time>2026-03-15T11:30:21.000Z</time></trkpt>
<trkpt lat="41.727796" lon="23.489906"><ele>2751</ele><time>2026-03-15T11:30:22.000Z</time></trkpt>
<trkpt lat="41.727794" lon="23.489911"><ele>2751</ele><time>2026-03-15T11:30:23.000Z</time></trkpt>
<trkpt lat="41.727793" lon="23.489917"><ele>2751</ele><time>2026-03-15T11:30:24.000Z</time></trkpt>
<trkpt lat="41.727792" lon="23.489923"><ele>2751</ele><time>2026-03-15T11:30:25.000Z</time></trkpt>
<trkpt lat="41.727791" lon="23.489929"><ele>2751</ele><time>2026-03-15T11:30:26.000Z</time></trkpt>
<trkpt lat="41.72779" lon="23.489934"><ele>2751.7</ele><time>2026-03-15T11:30:27.000Z</time></trkpt>
<trkpt lat="41.727789" lon="23.48994"><ele>2751.7</ele><time>2026-03-15T11:30:28.000Z</time></trkpt>
<trkpt lat="41.727788" lon="23.489945"><ele>2751.7</ele><time>2026-03-15T11:30:29.000Z</time></trkpt>
<trkpt lat="41.727787" lon="23.48995"><ele>2751.7</ele><time>2026-03-15T11:30:30.000Z</time></trkpt>
<trkpt lat="41.727787" lon="23.489954"><ele>2751.7</ele><time>2026-03-15T11:30:31.000Z</time></trkpt>
<trkpt lat="41.727787" lon="23.489959"><ele>2752</ele><time>2026-03-15T11:30:32.000Z</time></trkpt>
<trkpt lat="41.727787" lon="23.489964"><ele>2752</ele><time>2026-03-15T11:30:33.000Z</time></trkpt>
<trkpt lat="41.727787" lon="23.489969"><ele>2752</ele><time>2026-03-15T11:30:34.000Z</time></trkpt>
<trkpt lat="41.727788" lon="23.489974"><ele>2752</ele><time>2026-03-15T11:30:35.000Z</time></trkpt>
<trkpt lat="41.727787" lon="23.489981"><ele>2752</ele><time>2026-03-15T11:30:36.000Z</time></trkpt>
<trkpt lat="41.727787" lon="23.489985"><ele>2752.8</ele><time>2026-03-15T11:30:37.000Z</time></trkpt>
<trkpt lat="41.727786" lon="23.489991"><ele>2752.8</ele><time>2026-03-15T11:30:38.000Z</time></trkpt>
<trkpt lat="41.727786" lon="23.489995"><ele>2752.8</ele><time>2026-03-15T11:30:39.000Z</time></trkpt>
<trkpt lat="41.727785" lon="23.490001"><ele>2752.8</ele><time>2026-03-15T11:30:40.000Z</time></trkpt>
<trkpt lat="41.727784" lon="23.490006"><ele>2752.8</ele><time>2026-03-15T11:30:41.000Z</time></trkpt>
<trkpt lat="41.727783" lon="23.490011"><ele>2753.6</ele><time>2026-03-15T11:30:42.000Z</time></trkpt>
<trkpt lat="41.727783" lon="23.490018"><ele>2753.6</ele><time>2026-03-15T11:30:43.000Z</time></trkpt>
<trkpt lat="41.727782" lon="23.490024"><ele>2753.6</ele><time>2026-03-15T11:30:44.000Z</time></trkpt>
<trkpt lat="41.727781" lon="23.490029"><ele>2753.6</ele><time>2026-03-15T11:30:45.000Z</time></trkpt>
<trkpt lat="41.727781" lon="23.490036"><ele>2753.6</ele><time>2026-03-15T11:30:46.000Z</time></trkpt>
<trkpt lat="41.727781" lon="23.490042"><ele>2754</ele><time>2026-03-15T11:30:47.000Z</time></trkpt>
<trkpt lat="41.72778" lon="23.490047"><ele>2754</ele><time>2026-03-15T11:30:48.000Z</time></trkpt>
<trkpt lat="41.72778" lon="23.490053"><ele>2754</ele><time>2026-03-15T11:30:49.000Z</time></trkpt>
<trkpt lat="41.72778" lon="23.490059"><ele>2754</ele><time>2026-03-15T11:30:50.000Z</time></trkpt>
<trkpt lat="41.72778" lon="23.490065"><ele>2754</ele><time>2026-03-15T11:30:51.000Z</time></trkpt>
<trkpt lat="41.727779" lon="23.490071"><ele>2754.9</ele><time>2026-03-15T11:30:52.000Z</time></trkpt>
<trkpt lat="41.727779" lon="23.490077"><ele>2754.9</ele><time>2026-03-15T11:30:53.000Z</time></trkpt>
<trkpt lat="41.727779" lon="23.490083"><ele>2754.9</ele><time>2026-03-15T11:30:54.000Z</time></trkpt>
<trkpt lat="41.727778" lon="23.490088"><ele>2754.9</ele><time>2026-03-15T11:30:55.000Z</time></trkpt>
<trkpt lat="41.727777" lon="23.490093"><ele>2754.9</ele><time>2026-03-15T11:30:56.000Z</time></trkpt>
<trkpt lat="41.727776" lon="23.490098"><ele>2755.9</ele><time>2026-03-15T11:30:57.000Z</time></trkpt>
<trkpt lat="41.727775" lon="23.490103"><ele>2755.9</ele><time>2026-03-15T11:30:58.000Z</time></trkpt>
<trkpt lat="41.727775" lon="23.490107"><ele>2755.9</ele><time>2026-03-15T11:30:59.000Z</time></trkpt>
<trkpt lat="41.727774" lon="23.490111"><ele>2755.9</ele><time>2026-03-15T11:31:00.000Z</time></trkpt>
<trkpt lat="41.727773" lon="23.490115"><ele>2755.9</ele><time>2026-03-15T11:31:01.000Z</time></trkpt>
<trkpt lat="41.727773" lon="23.490119"><ele>2756.3</ele><time>2026-03-15T11:31:02.000Z</time></trkpt>
<trkpt lat="41.727773" lon="23.490122"><ele>2756.3</ele><time>2026-03-15T11:31:03.000Z</time></trkpt>
<trkpt lat="41.727773" lon="23.490124"><ele>2756.3</ele><time>2026-03-15T11:31:04.000Z</time></trkpt>
<trkpt lat="41.727773" lon="23.490125"><ele>2756.3</ele><time>2026-03-15T11:31:05.000Z</time></trkpt>
<trkpt lat="41.727771" lon="23.490126"><ele>2756.3</ele><time>2026-03-15T11:31:06.000Z</time></trkpt>
<trkpt lat="41.72777" lon="23.490125"><ele>2757.1</ele><time>2026-03-15T11:31:07.000Z</time></trkpt>
<trkpt lat="41.727768" lon="23.490125"><ele>2757.1</ele><time>2026-03-15T11:31:08.000Z</time></trkpt>
<trkpt lat="41.727767" lon="23.490125"><ele>2757.1</ele><time>2026-03-15T11:31:09.000Z</time></trkpt>
<trkpt lat="41.727766" lon="23.490124"><ele>2757.1</ele><time>2026-03-15T11:31:10.000Z</time></trkpt>
<trkpt lat="41.727766" lon="23.490124"><ele>2757.1</ele><time>2026-03-15T11:31:11.000Z</time></trkpt>
<trkpt lat="41.727765" lon="23.490124"><ele>2757.7</ele><time>2026-03-15T11:31:12.000Z</time></trkpt>
<trkpt lat="41.727765" lon="23.490124"><ele>2757.7</ele><time>2026-03-15T11:31:13.000Z</time></trkpt>
<trkpt lat="41.727765" lon="23.490124"><ele>2757.7</ele><time>2026-03-15T11:31:14.000Z</time></trkpt>
<trkpt lat="41.727765" lon="23.490126"><ele>2757.7</ele><time>2026-03-15T11:31:15.000Z</time></trkpt>
<trkpt lat="41.727765" lon="23.490129"><ele>2757.7</ele><time>2026-03-15T11:31:16.000Z</time></trkpt>
<trkpt lat="41.727766" lon="23.490132"><ele>2758</ele><time>2026-03-15T11:31:17.000Z</time></trkpt>
<trkpt lat="41.727767" lon="23.490138"><ele>2758</ele><time>2026-03-15T11:31:18.000Z</time></trkpt>
<trkpt lat="41.727767" lon="23.490143"><ele>2758</ele><time>2026-03-15T11:31:19.000Z</time></trkpt>
<trkpt lat="41.727768" lon="23.490149"><ele>2758</ele><time>2026-03-15T11:31:20.000Z</time></trkpt>
<trkpt lat="41.727769" lon="23.490156"><ele>2758</ele><time>2026-03-15T11:31:21.000Z</time></trkpt>
<trkpt lat="41.727769" lon="23.490163"><ele>2758.2</ele><time>2026-03-15T11:31:22.000Z</time></trkpt>
<trkpt lat="41.72777" lon="23.490169"><ele>2758.2</ele><time>2026-03-15T11:31:23.000Z</time></trkpt>
<trkpt lat="41.72777" lon="23.490176"><ele>2758.2</ele><time>2026-03-15T11:31:24.000Z</time></trkpt>
<trkpt lat="41.72777" lon="23.490182"><ele>2758.2</ele><time>2026-03-15T11:31:25.000Z</time></trkpt>
<trkpt lat="41.727769" lon="23.490188"><ele>2758.2</ele><time>2026-03-15T11:31:26.000Z</time></trkpt>
<trkpt lat="41.727768" lon="23.490194"><ele>2758.6</ele><time>2026-03-15T11:31:27.000Z</time></trkpt>
<trkpt lat="41.727766" lon="23.490201"><ele>2758.6</ele><time>2026-03-15T11:31:28.000Z</time></trkpt>
<trkpt lat="41.727765" lon="23.490208"><ele>2758.6</ele><time>2026-03-15T11:31:29.000Z</time></trkpt>
<trkpt lat="41.727764" lon="23.490215"><ele>2758.6</ele><time>2026-03-15T11:31:30.000Z</time></trkpt>
<trkpt lat="41.727764" lon="23.490221"><ele>2758.6</ele><time>2026-03-15T11:31:31.000Z</time></trkpt>
<trkpt lat="41.727764" lon="23.490227"><ele>2758.9</ele><time>2026-03-15T11:31:32.000Z</time></trkpt>
<trkpt lat="41.727764" lon="23.490233"><ele>2758.9</ele><time>2026-03-15T11:31:33.000Z</time></trkpt>
<trkpt lat="41.727764" lon="23.490238"><ele>2758.9</ele><time>2026-03-15T11:31:34.000Z</time></trkpt>
<trkpt lat="41.727763" lon="23.490244"><ele>2758.9</ele><time>2026-03-15T11:31:35.000Z</time></trkpt>
<trkpt lat="41.727761" lon="23.490249"><ele>2758.9</ele><time>2026-03-15T11:31:36.000Z</time></trkpt>
<trkpt lat="41.72776" lon="23.490254"><ele>2759.8</ele><time>2026-03-15T11:31:37.000Z</time></trkpt>
<trkpt lat="41.727759" lon="23.490259"><ele>2759.8</ele><time>2026-03-15T11:31:38.000Z</time></trkpt>
<trkpt lat="41.727759" lon="23.490265"><ele>2759.8</ele><time>2026-03-15T11:31:39.000Z</time></trkpt>
<trkpt lat="41.727759" lon="23.49027"><ele>2759.8</ele><time>2026-03-15T11:31:40.000Z</time></trkpt>
<trkpt lat="41.72776" lon="23.490277"><ele>2759.8</ele><time>2026-03-15T11:31:41.000Z</time></trkpt>
<trkpt lat="41.72776" lon="23.490284"><ele>2760.8</ele><time>2026-03-15T11:31:42.000Z</time></trkpt>
<trkpt lat="41.72776" lon="23.490291"><ele>2760.8</ele><time>2026-03-15T11:31:43.000Z</time></trkpt>
<trkpt lat="41.72776" lon="23.490297"><ele>2760.8</ele><time>2026-03-15T11:31:44.000Z</time></trkpt>
<trkpt lat="41.72776" lon="23.490304"><ele>2760.8</ele><time>2026-03-15T11:31:45.000Z</time></trkpt>
<trkpt lat="41.727761" lon="23.49031"><ele>2760.8</ele><time>2026-03-15T11:31:46.000Z</time></trkpt>
<trkpt lat="41.727762" lon="23.490316"><ele>2761.2</ele><time>2026-03-15T11:31:47.000Z</time></trkpt>
<trkpt lat="41.727762" lon="23.490321"><ele>2761.2</ele><time>2026-03-15T11:31:48.000Z</time></trkpt>
<trkpt lat="41.727762" lon="23.490325"><ele>2761.2</ele><time>2026-03-15T11:31:49.000Z</time></trkpt>
<trkpt lat="41.727763" lon="23.49033"><ele>2761.2</ele><time>2026-03-15T11:31:50.000Z</time></trkpt>
<trkpt lat="41.727764" lon="23.490334"><ele>2761.2</ele><time>2026-03-15T11:31:51.000Z</time></trkpt>
<trkpt lat="41.727765" lon="23.490339"><ele>2762</ele><time>2026-03-15T11:31:52.000Z</time></trkpt>
<trkpt lat="41.727768" lon="23.490343"><ele>2762</ele><time>2026-03-15T11:31:53.000Z</time></trkpt>
<trkpt lat="41.727769" lon="23.490348"><ele>2762</ele><time>2026-03-15T11:31:54.000Z</time></trkpt>
<trkpt lat="41.72777" lon="23.490352"><ele>2762</ele><time>2026-03-15T11:31:55.000Z</time></trkpt>
<trkpt lat="41.72777" lon="23.490355"><ele>2762</ele><time>2026-03-15T11:31:56.000Z</time></trkpt>
<trkpt lat="41.727769" lon="23.490358"><ele>2763.1</ele><time>2026-03-15T11:31:57.000Z</time></trkpt>
<trkpt lat="41.727768" lon="23.490362"><ele>2763.1</ele><time>2026-03-15T11:31:58.000Z</time></trkpt>
<trkpt lat="41.727768" lon="23.490364"><ele>2763.1</ele><time>2026-03-15T11:31:59.000Z</time></trkpt>
<trkpt lat="41.727768" lon="23.490366"><ele>2763.1</ele><time>2026-03-15T11:32:00.000Z</time></trkpt>
<trkpt lat="41.727768" lon="23.490368"><ele>2763.1</ele><time>2026-03-15T11:32:01.000Z</time></trkpt>
<trkpt lat="41.727769" lon="23.490368"><ele>2763.6</ele><time>2026-03-15T11:32:02.000Z</time></trkpt>
<trkpt lat="41.727769" lon="23.490368"><ele>2763.6</ele><time>2026-03-15T11:32:03.000Z</time></trkpt>
<trkpt lat="41.727769" lon="23.490368"><ele>2763.6</ele><time>2026-03-15T11:32:04.000Z</time></trkpt>
<trkpt lat="41.727769" lon="23.490367"><ele>2763.6</ele><time>2026-03-15T11:32:05.000Z</time></trkpt>
<trkpt lat="41.727769" lon="23.490368"><ele>2763.6</ele><time>2026-03-15T11:32:06.000Z</time></trkpt>
<trkpt lat="41.727769" lon="23.490369"><ele>2764.4</ele><time>2026-03-15T11:32:07.000Z</time></trkpt>
<trkpt lat="41.727769" lon="23.49037"><ele>2764.4</ele><time>2026-03-15T11:32:08.000Z</time></trkpt>
<trkpt lat="41.727769" lon="23.49037"><ele>2764.4</ele><time>2026-03-15T11:32:09.000Z</time></trkpt>
<trkpt lat="41.727769" lon="23.49037"><ele>2764.4</ele><time>2026-03-15T11:32:10.000Z</time></trkpt>
<trkpt lat="41.727769" lon="23.490369"><ele>2764.4</ele><time>2026-03-15T11:32:11.000Z</time></trkpt>
<trkpt lat="41.727768" lon="23.490367"><ele>2764.8</ele><time>2026-03-15T11:32:12.000Z</time></trkpt>
<trkpt lat="41.727768" lon="23.490366"><ele>2764.8</ele><time>2026-03-15T11:32:13.000Z</time></trkpt>
<trkpt lat="41.727768" lon="23.490366"><ele>2764.8</ele><time>2026-03-15T11:32:14.000Z</time></trkpt>
<trkpt lat="41.727768" lon="23.490366"><ele>2764.8</ele><time>2026-03-15T11:32:15.000Z</time></trkpt>
<trkpt lat="41.727768" lon="23.490366"><ele>2764.8</ele><time>2026-03-15T11:32:16.000Z</time></trkpt>
<trkpt lat="41.727768" lon="23.490369"><ele>2764.9</ele><time>2026-03-15T11:32:17.000Z</time></trkpt>
<trkpt lat="41.727768" lon="23.490373"><ele>2764.9</ele><time>2026-03-15T11:32:18.000Z</time></trkpt>
<trkpt lat="41.727769" lon="23.490378"><ele>2764.9</ele><time>2026-03-15T11:32:19.000Z</time></trkpt>
<trkpt lat="41.727769" lon="23.490385"><ele>2764.9</ele><time>2026-03-15T11:32:20.000Z</time></trkpt>
<trkpt lat="41.72777" lon="23.490392"><ele>2764.9</ele><time>2026-03-15T11:32:21.000Z</time></trkpt>
<trkpt lat="41.72777" lon="23.490399"><ele>2765</ele><time>2026-03-15T11:32:22.000Z</time></trkpt>
<trkpt lat="41.72777" lon="23.490407"><ele>2765</ele><time>2026-03-15T11:32:23.000Z</time></trkpt>
<trkpt lat="41.727769" lon="23.490415"><ele>2765</ele><time>2026-03-15T11:32:24.000Z</time></trkpt>
<trkpt lat="41.727769" lon="23.490423"><ele>2765</ele><time>2026-03-15T11:32:25.000Z</time></trkpt>
<trkpt lat="41.727769" lon="23.490431"><ele>2765</ele><time>2026-03-15T11:32:26.000Z</time></trkpt>
<trkpt lat="41.727769" lon="23.490439"><ele>2765.4</ele><time>2026-03-15T11:32:27.000Z</time></trkpt>
<trkpt lat="41.72777" lon="23.490447"><ele>2765.4</ele><time>2026-03-15T11:32:28.000Z</time></trkpt>
<trkpt lat="41.72777" lon="23.490454"><ele>2765.4</ele><time>2026-03-15T11:32:29.000Z</time></trkpt>
<trkpt lat="41.72777" lon="23.490462"><ele>2765.4</ele><time>2026-03-15T11:32:30.000Z</time></trkpt>
<trkpt lat="41.72777" lon="23.490469"><ele>2765.4</ele><time>2026-03-15T11:32:31.000Z</time></trkpt>
<trkpt lat="41.727769" lon="23.490476"><ele>2765.9</ele><time>2026-03-15T11:32:32.000Z</time></trkpt>
<trkpt lat="41.727768" lon="23.490482"><ele>2765.9</ele><time>2026-03-15T11:32:33.000Z</time></trkpt>
<trkpt lat="41.727768" lon="23.490489"><ele>2765.9</ele><time>2026-03-15T11:32:34.000Z</time></trkpt>
<trkpt lat="41.727767" lon="23.490495"><ele>2765.9</ele><time>2026-03-15T11:32:35.000Z</time></trkpt>
<trkpt lat="41.727767" lon="23.490503"><ele>2765.9</ele><time>2026-03-15T11:32:36.000Z</time></trkpt>
<trkpt lat="41.727767" lon="23.49051"><ele>2767</ele><time>2026-03-15T11:32:37.000Z</time></trkpt>
<trkpt lat="41.727766" lon="23.490518"><ele>2767</ele><time>2026-03-15T11:32:38.000Z</time></trkpt>
<trkpt lat="41.727765" lon="23.490526"><ele>2767</ele><time>2026-03-15T11:32:39.000Z</time></trkpt>
<trkpt lat="41.727764" lon="23.490534"><ele>2767</ele><time>2026-03-15T11:32:40.000Z</time></trkpt>
<trkpt lat="41.727763" lon="23.490541"><ele>2767</ele><time>2026-03-15T11:32:41.000Z</time></trkpt>
<trkpt lat="41.727762" lon="23.490548"><ele>2768</ele><time>2026-03-15T11:32:42.000Z</time></trkpt>
<trkpt lat="41.727761" lon="23.490554"><ele>2768</ele><time>2026-03-15T11:32:43.000Z</time></trkpt>
<trkpt lat="41.72776" lon="23.490559"><ele>2768</ele><time>2026-03-15T11:32:44.000Z</time></trkpt>
<trkpt lat="41.727759" lon="23.490563"><ele>2768</ele><time>2026-03-15T11:32:45.000Z</time></trkpt>
<trkpt lat="41.727759" lon="23.490567"><ele>2768</ele><time>2026-03-15T11:32:46.000Z</time></trkpt>
<trkpt lat="41.727758" lon="23.490569"><ele>2768.5</ele><time>2026-03-15T11:32:47.000Z</time></trkpt>
<trkpt lat="41.727758" lon="23.490571"><ele>2768.5</ele><time>2026-03-15T11:32:48.000Z</time></trkpt>
<trkpt lat="41.727759" lon="23.490572"><ele>2768.5</ele><time>2026-03-15T11:32:49.000Z</time></trkpt>
<trkpt lat="41.727761" lon="23.490573"><ele>2768.5</ele><time>2026-03-15T11:32:50.000Z</time></trkpt>
<trkpt lat="41.727762" lon="23.490574"><ele>2768.5</ele><time>2026-03-15T11:32:51.000Z</time></trkpt>
<trkpt lat="41.727764" lon="23.490575"><ele>2769.4</ele><time>2026-03-15T11:32:52.000Z</time></trkpt>
<trkpt lat="41.727764" lon="23.490575"><ele>2769.4</ele><time>2026-03-15T11:32:53.000Z</time></trkpt>
<trkpt lat="41.727764" lon="23.490575"><ele>2769.4</ele><time>2026-03-15T11:32:54.000Z</time></trkpt>
<trkpt lat="41.727764" lon="23.490575"><ele>2769.4</ele><time>2026-03-15T11:32:55.000Z</time></trkpt>
<trkpt lat="41.727764" lon="23.490575"><ele>2769.4</ele><time>2026-03-15T11:32:56.000Z</time></trkpt>
<trkpt lat="41.727764" lon="23.490575"><ele>2770.1</ele><time>2026-03-15T11:32:57.000Z</time></trkpt>
<trkpt lat="41.727764" lon="23.490575"><ele>2770.1</ele><time>2026-03-15T11:32:58.000Z</time></trkpt>
<trkpt lat="41.727764" lon="23.490575"><ele>2770.1</ele><time>2026-03-15T11:32:59.000Z</time></trkpt>
<trkpt lat="41.727764" lon="23.490576"><ele>2770.1</ele><time>2026-03-15T11:33:00.000Z</time></trkpt>
<trkpt lat="41.727764" lon="23.490578"><ele>2770.1</ele><time>2026-03-15T11:33:01.000Z</time></trkpt>
<trkpt lat="41.727765" lon="23.490581"><ele>2770.3</ele><time>2026-03-15T11:33:02.000Z</time></trkpt>
<trkpt lat="41.727765" lon="23.490586"><ele>2770.3</ele><time>2026-03-15T11:33:03.000Z</time></trkpt>
<trkpt lat="41.727765" lon="23.490592"><ele>2770.3</ele><time>2026-03-15T11:33:04.000Z</time></trkpt>
<trkpt lat="41.727765" lon="23.490598"><ele>2770.3</ele><time>2026-03-15T11:33:05.000Z</time></trkpt>
<trkpt lat="41.727765" lon="23.490605"><ele>2770.3</ele><time>2026-03-15T11:33:06.000Z</time></trkpt>
<trkpt lat="41.727765" lon="23.490611"><ele>2770.6</ele><time>2026-03-15T11:33:07.000Z</time></trkpt>
<trkpt lat="41.727763" lon="23.490618"><ele>2770.6</ele><time>2026-03-15T11:33:08.000Z</time></trkpt>
<trkpt lat="41.727762" lon="23.490624"><ele>2770.6</ele><time>2026-03-15T11:33:09.000Z</time></trkpt>
<trkpt lat="41.727762" lon="23.49063"><ele>2770.6</ele><time>2026-03-15T11:33:10.000Z</time></trkpt>
<trkpt lat="41.727761" lon="23.490636"><ele>2770.6</ele><time>2026-03-15T11:33:11.000Z</time></trkpt>
<trkpt lat="41.72776" lon="23.490641"><ele>2771.2</ele><time>2026-03-15T11:33:12.000Z</time></trkpt>
<trkpt lat="41.72776" lon="23.490648"><ele>2771.2</ele><time>2026-03-15T11:33:13.000Z</time></trkpt>
<trkpt lat="41.727759" lon="23.490654"><ele>2771.2</ele><time>2026-03-15T11:33:14.000Z</time></trkpt>
<trkpt lat="41.727759" lon="23.49066"><ele>2771.2</ele><time>2026-03-15T11:33:15.000Z</time></trkpt>
<trkpt lat="41.727757" lon="23.490667"><ele>2771.2</ele><time>2026-03-15T11:33:16.000Z</time></trkpt>
<trkpt lat="41.727755" lon="23.490674"><ele>2771.6</ele><time>2026-03-15T11:33:17.000Z</time></trkpt>
<trkpt lat="41.727753" lon="23.490681"><ele>2771.6</ele><time>2026-03-15T11:33:18.000Z</time></trkpt>
<trkpt lat="41.72775" lon="23.490687"><ele>2771.6</ele><time>2026-03-15T11:33:19.000Z</time></trkpt>
<trkpt lat="41.727748" lon="23.490692"><ele>2771.6</ele><time>2026-03-15T11:33:20.000Z</time></trkpt>
<trkpt lat="41.727747" lon="23.490697"><ele>2771.6</ele><time>2026-03-15T11:33:21.000Z</time></trkpt>
<trkpt lat="41.727747" lon="23.490701"><ele>2772.6</ele><time>2026-03-15T11:33:22.000Z</time></trkpt>
<trkpt lat="41.727747" lon="23.490706"><ele>2772.6</ele><time>2026-03-15T11:33:23.000Z</time></trkpt>
<trkpt lat="41.727747" lon="23.490711"><ele>2772.6</ele><time>2026-03-15T11:33:24.000Z</time></trkpt>
<trkpt lat="41.727746" lon="23.490716"><ele>2772.6</ele><time>2026-03-15T11:33:25.000Z</time></trkpt>
<trkpt lat="41.727745" lon="23.490722"><ele>2772.6</ele><time>2026-03-15T11:33:26.000Z</time></trkpt>
<trkpt lat="41.727743" lon="23.490728"><ele>2773.4</ele><time>2026-03-15T11:33:27.000Z</time></trkpt>
<trkpt lat="41.727741" lon="23.490735"><ele>2773.4</ele><time>2026-03-15T11:33:28.000Z</time></trkpt>
<trkpt lat="41.727739" lon="23.490742"><ele>2773.4</ele><time>2026-03-15T11:33:29.000Z</time></trkpt>
<trkpt lat="41.727738" lon="23.490749"><ele>2773.4</ele><time>2026-03-15T11:33:30.000Z</time></trkpt>
<trkpt lat="41.727735" lon="23.490756"><ele>2773.4</ele><time>2026-03-15T11:33:31.000Z</time></trkpt>
<trkpt lat="41.727733" lon="23.490762"><ele>2773.7</ele><time>2026-03-15T11:33:32.000Z</time></trkpt>
<trkpt lat="41.727731" lon="23.490766"><ele>2773.7</ele><time>2026-03-15T11:33:33.000Z</time></trkpt>
<trkpt lat="41.727729" lon="23.490768"><ele>2773.7</ele><time>2026-03-15T11:33:34.000Z</time></trkpt>
<trkpt lat="41.727727" lon="23.490769"><ele>2773.7</ele><time>2026-03-15T11:33:35.000Z</time></trkpt>
<trkpt lat="41.727727" lon="23.490768"><ele>2773.7</ele><time>2026-03-15T11:33:36.000Z</time></trkpt>
<trkpt lat="41.727727" lon="23.490767"><ele>2774.4</ele><time>2026-03-15T11:33:37.000Z</time></trkpt>
<trkpt lat="41.727727" lon="23.490767"><ele>2774.4</ele><time>2026-03-15T11:33:38.000Z</time></trkpt>
<trkpt lat="41.727727" lon="23.490767"><ele>2774.4</ele><time>2026-03-15T11:33:39.000Z</time></trkpt>
<trkpt lat="41.727727" lon="23.490766"><ele>2774.4</ele><time>2026-03-15T11:33:40.000Z</time></trkpt>
<trkpt lat="41.727727" lon="23.490767"><ele>2774.4</ele><time>2026-03-15T11:33:41.000Z</time></trkpt>
<trkpt lat="41.727728" lon="23.490767"><ele>2774.9</ele><time>2026-03-15T11:33:42.000Z</time></trkpt>
<trkpt lat="41.727728" lon="23.490767"><ele>2774.9</ele><time>2026-03-15T11:33:43.000Z</time></trkpt>
<trkpt lat="41.727729" lon="23.490768"><ele>2774.9</ele><time>2026-03-15T11:33:44.000Z</time></trkpt>
<trkpt lat="41.72773" lon="23.490768"><ele>2774.9</ele><time>2026-03-15T11:33:45.000Z</time></trkpt>
<trkpt lat="41.72773" lon="23.490768"><ele>2774.9</ele><time>2026-03-15T11:33:46.000Z</time></trkpt>
<trkpt lat="41.727731" lon="23.490768"><ele>2775</ele><time>2026-03-15T11:33:47.000Z</time></trkpt>
<trkpt lat="41.727731" lon="23.490768"><ele>2775</ele><time>2026-03-15T11:33:48.000Z</time></trkpt>
<trkpt lat="41.727731" lon="23.490768"><ele>2775</ele><time>2026-03-15T11:33:49.000Z</time></trkpt>
<trkpt lat="41.727731" lon="23.490768"><ele>2775</ele><time>2026-03-15T11:33:50.000Z</time></trkpt>
<trkpt lat="41.727731" lon="23.490768"><ele>2775</ele><time>2026-03-15T11:33:51.000Z</time></trkpt>
<trkpt lat="41.727731" lon="23.490768"><ele>2775.1</ele><time>2026-03-15T11:33:52.000Z</time></trkpt>
<trkpt lat="41.727732" lon="23.490768"><ele>2775.1</ele><time>2026-03-15T11:33:53.000Z</time></trkpt>
<trkpt lat="41.727733" lon="23.490768"><ele>2775.1</ele><time>2026-03-15T11:33:54.000Z</time></trkpt>
<trkpt lat="41.727734" lon="23.490769"><ele>2775.1</ele><time>2026-03-15T11:33:55.000Z</time></trkpt>
<trkpt lat="41.727735" lon="23.490768"><ele>2775.1</ele><time>2026-03-15T11:33:56.000Z</time></trkpt>
<trkpt lat="41.727737" lon="23.490768"><ele>2775.1</ele><time>2026-03-15T11:33:57.000Z</time></trkpt>
<trkpt lat="41.727737" lon="23.490767"><ele>2775.1</ele><time>2026-03-15T11:33:58.000Z</time></trkpt>
<trkpt lat="41.727737" lon="23.490767"><ele>2775.1</ele><time>2026-03-15T11:33:59.000Z</time></trkpt>
<trkpt lat="41.727737" lon="23.490767"><ele>2775.1</ele><time>2026-03-15T11:34:00.000Z</time></trkpt>
<trkpt lat="41.727737" lon="23.490768"><ele>2775.1</ele><time>2026-03-15T11:34:01.000Z</time></trkpt>
<trkpt lat="41.727736" lon="23.490769"><ele>2775.1</ele><time>2026-03-15T11:34:02.000Z</time></trkpt>
<trkpt lat="41.727736" lon="23.49077"><ele>2775.1</ele><time>2026-03-15T11:34:03.000Z</time></trkpt>
<trkpt lat="41.727736" lon="23.49077"><ele>2775.1</ele><time>2026-03-15T11:34:04.000Z</time></trkpt>
<trkpt lat="41.727735" lon="23.49077"><ele>2775.1</ele><time>2026-03-15T11:34:05.000Z</time></trkpt>
<trkpt lat="41.727734" lon="23.49077"><ele>2775.1</ele><time>2026-03-15T11:34:06.000Z</time></trkpt>
<trkpt lat="41.727733" lon="23.490769"><ele>2775.1</ele><time>2026-03-15T11:34:07.000Z</time></trkpt>
<trkpt lat="41.727732" lon="23.490769"><ele>2775.1</ele><time>2026-03-15T11:34:08.000Z</time></trkpt>
<trkpt lat="41.72773" lon="23.49077"><ele>2775.1</ele><time>2026-03-15T11:34:09.000Z</time></trkpt>
<trkpt lat="41.727729" lon="23.49077"><ele>2775.1</ele><time>2026-03-15T11:34:10.000Z</time></trkpt>
<trkpt lat="41.727727" lon="23.490771"><ele>2775.1</ele><time>2026-03-15T11:34:11.000Z</time></trkpt>
<trkpt lat="41.727726" lon="23.490772"><ele>2775.1</ele><time>2026-03-15T11:34:12.000Z</time></trkpt>
<trkpt lat="41.727725" lon="23.490773"><ele>2775.1</ele><time>2026-03-15T11:34:13.000Z</time></trkpt>
<trkpt lat="41.727723" lon="23.490775"><ele>2775.1</ele><time>2026-03-15T11:34:14.000Z</time></trkpt>
<trkpt lat="41.727722" lon="23.490779"><ele>2775.1</ele><time>2026-03-15T11:34:15.000Z</time></trkpt>
<trkpt lat="41.727721" lon="23.490782"><ele>2775.1</ele><time>2026-03-15T11:34:16.000Z</time></trkpt>
<trkpt lat="41.727719" lon="23.490787"><ele>2775.1</ele><time>2026-03-15T11:34:17.000Z</time></trkpt>
<trkpt lat="41.727718" lon="23.490791"><ele>2775.1</ele><time>2026-03-15T11:34:18.000Z</time></trkpt>
<trkpt lat="41.727717" lon="23.490795"><ele>2775.1</ele><time>2026-03-15T11:34:19.000Z</time></trkpt>
<trkpt lat="41.727716" lon="23.490799"><ele>2775.1</ele><time>2026-03-15T11:34:20.000Z</time></trkpt>
<trkpt lat="41.727715" lon="23.490802"><ele>2775.1</ele><time>2026-03-15T11:34:21.000Z</time></trkpt>
<trkpt lat="41.727715" lon="23.490805"><ele>2775.2</ele><time>2026-03-15T11:34:22.000Z</time></trkpt>
<trkpt lat="41.727713" lon="23.490809"><ele>2775.2</ele><time>2026-03-15T11:34:23.000Z</time></trkpt>
<trkpt lat="41.727711" lon="23.490812"><ele>2775.2</ele><time>2026-03-15T11:34:24.000Z</time></trkpt>
<trkpt lat="41.72771" lon="23.490817"><ele>2775.2</ele><time>2026-03-15T11:34:25.000Z</time></trkpt>
<trkpt lat="41.727708" lon="23.490823"><ele>2775.2</ele><time>2026-03-15T11:34:26.000Z</time></trkpt>
<trkpt lat="41.727706" lon="23.490829"><ele>2775.5</ele><time>2026-03-15T11:34:27.000Z</time></trkpt>
<trkpt lat="41.727703" lon="23.490835"><ele>2775.5</ele><time>2026-03-15T11:34:28.000Z</time></trkpt>
<trkpt lat="41.727701" lon="23.490842"><ele>2775.5</ele><time>2026-03-15T11:34:29.000Z</time></trkpt>
<trkpt lat="41.727697" lon="23.490847"><ele>2775.5</ele><time>2026-03-15T11:34:30.000Z</time></trkpt>
<trkpt lat="41.727694" lon="23.490854"><ele>2775.5</ele><time>2026-03-15T11:34:31.000Z</time></trkpt>
<trkpt lat="41.727691" lon="23.49086"><ele>2775.7</ele><time>2026-03-15T11:34:32.000Z</time></trkpt>
<trkpt lat="41.727688" lon="23.490867"><ele>2775.7</ele><time>2026-03-15T11:34:33.000Z</time></trkpt>
<trkpt lat="41.727686" lon="23.490872"><ele>2775.7</ele><time>2026-03-15T11:34:34.000Z</time></trkpt>
<trkpt lat="41.727684" lon="23.490879"><ele>2775.7</ele><time>2026-03-15T11:34:35.000Z</time></trkpt>
<trkpt lat="41.727682" lon="23.490885"><ele>2775.7</ele><time>2026-03-15T11:34:36.000Z</time></trkpt>
<trkpt lat="41.727679" lon="23.490892"><ele>2776.1</ele><time>2026-03-15T11:34:37.000Z</time></trkpt>
<trkpt lat="41.727677" lon="23.490898"><ele>2776.1</ele><time>2026-03-15T11:34:38.000Z</time></trkpt>
<trkpt lat="41.727674" lon="23.490905"><ele>2776.1</ele><time>2026-03-15T11:34:39.000Z</time></trkpt>
<trkpt lat="41.727671" lon="23.490911"><ele>2776.1</ele><time>2026-03-15T11:34:40.000Z</time></trkpt>
<trkpt lat="41.727669" lon="23.490917"><ele>2776.1</ele><time>2026-03-15T11:34:41.000Z</time></trkpt>
<trkpt lat="41.727666" lon="23.490923"><ele>2776.6</ele><time>2026-03-15T11:34:42.000Z</time></trkpt>
<trkpt lat="41.727664" lon="23.490929"><ele>2776.6</ele><time>2026-03-15T11:34:43.000Z</time></trkpt>
<trkpt lat="41.727661" lon="23.490935"><ele>2776.6</ele><time>2026-03-15T11:34:44.000Z</time></trkpt>
<trkpt lat="41.72766" lon="23.490941"><ele>2776.6</ele><time>2026-03-15T11:34:45.000Z</time></trkpt>
<trkpt lat="41.727657" lon="23.490948"><ele>2776.6</ele><time>2026-03-15T11:34:46.000Z</time></trkpt>
<trkpt lat="41.727655" lon="23.490954"><ele>2776.8</ele><time>2026-03-15T11:34:47.000Z</time></trkpt>
<trkpt lat="41.727652" lon="23.49096"><ele>2776.8</ele><time>2026-03-15T11:34:48.000Z</time></trkpt>
<trkpt lat="41.727649" lon="23.490967"><ele>2776.8</ele><time>2026-03-15T11:34:49.000Z</time></trkpt>
<trkpt lat="41.727646" lon="23.490974"><ele>2776.8</ele><time>2026-03-15T11:34:50.000Z</time></trkpt>
<trkpt lat="41.727643" lon="23.490982"><ele>2776.8</ele><time>2026-03-15T11:34:51.000Z</time></trkpt>
<trkpt lat="41.72764" lon="23.49099"><ele>2777.3</ele><time>2026-03-15T11:34:52.000Z</time></trkpt>
<trkpt lat="41.727637" lon="23.490998"><ele>2777.3</ele><time>2026-03-15T11:34:53.000Z</time></trkpt>
<trkpt lat="41.727635" lon="23.491005"><ele>2777.3</ele><time>2026-03-15T11:34:54.000Z</time></trkpt>
<trkpt lat="41.727632" lon="23.491013"><ele>2777.3</ele><time>2026-03-15T11:34:55.000Z</time></trkpt>
<trkpt lat="41.72763" lon="23.491021"><ele>2777.3</ele><time>2026-03-15T11:34:56.000Z</time></trkpt>
<trkpt lat="41.727627" lon="23.491029"><ele>2777.9</ele><time>2026-03-15T11:34:57.000Z</time></trkpt>
<trkpt lat="41.727625" lon="23.491037"><ele>2777.9</ele><time>2026-03-15T11:34:58.000Z</time></trkpt>
<trkpt lat="41.727622" lon="23.491046"><ele>2777.9</ele><time>2026-03-15T11:34:59.000Z</time></trkpt>
<trkpt lat="41.727618" lon="23.491054"><ele>2777.9</ele><time>2026-03-15T11:35:00.000Z</time></trkpt>
<trkpt lat="41.727615" lon="23.491064"><ele>2777.9</ele><time>2026-03-15T11:35:01.000Z</time></trkpt>
<trkpt lat="41.727611" lon="23.491072"><ele>2778.3</ele><time>2026-03-15T11:35:02.000Z</time></trkpt>
<trkpt lat="41.727606" lon="23.491081"><ele>2778.3</ele><time>2026-03-15T11:35:03.000Z</time></trkpt>
<trkpt lat="41.727602" lon="23.491088"><ele>2778.3</ele><time>2026-03-15T11:35:04.000Z</time></trkpt>
<trkpt lat="41.727598" lon="23.491096"><ele>2778.3</ele><time>2026-03-15T11:35:05.000Z</time></trkpt>
<trkpt lat="41.727595" lon="23.491103"><ele>2778.3</ele><time>2026-03-15T11:35:06.000Z</time></trkpt>
<trkpt lat="41.727592" lon="23.49111"><ele>2779</ele><time>2026-03-15T11:35:07.000Z</time></trkpt>
<trkpt lat="41.72759" lon="23.491117"><ele>2779</ele><time>2026-03-15T11:35:08.000Z</time></trkpt>
<trkpt lat="41.727588" lon="23.491122"><ele>2779</ele><time>2026-03-15T11:35:09.000Z</time></trkpt>
<trkpt lat="41.727587" lon="23.491126"><ele>2779</ele><time>2026-03-15T11:35:10.000Z</time></trkpt>
<trkpt lat="41.727586" lon="23.491129"><ele>2779</ele><time>2026-03-15T11:35:11.000Z</time></trkpt>
<trkpt lat="41.727585" lon="23.491131"><ele>2779.7</ele><time>2026-03-15T11:35:12.000Z</time></trkpt>
<trkpt lat="41.727584" lon="23.491134"><ele>2779.7</ele><time>2026-03-15T11:35:13.000Z</time></trkpt>
<trkpt lat="41.727583" lon="23.491138"><ele>2779.7</ele><time>2026-03-15T11:35:14.000Z</time></trkpt>
<trkpt lat="41.72758" lon="23.491143"><ele>2779.7</ele><time>2026-03-15T11:35:15.000Z</time></trkpt>
<trkpt lat="41.727578" lon="23.49115"><ele>2779.7</ele><time>2026-03-15T11:35:16.000Z</time></trkpt>
<trkpt lat="41.727574" lon="23.491156"><ele>2780</ele><time>2026-03-15T11:35:17.000Z</time></trkpt>
<trkpt lat="41.727572" lon="23.491162"><ele>2780</ele><time>2026-03-15T11:35:18.000Z</time></trkpt>
<trkpt lat="41.72757" lon="23.491167"><ele>2780</ele><time>2026-03-15T11:35:19.000Z</time></trkpt>
<trkpt lat="41.727568" lon="23.491172"><ele>2780</ele><time>2026-03-15T11:35:20.000Z</time></trkpt>
<trkpt lat="41.727567" lon="23.491176"><ele>2780</ele><time>2026-03-15T11:35:21.000Z</time></trkpt>
<trkpt lat="41.727566" lon="23.491181"><ele>2780.3</ele><time>2026-03-15T11:35:22.000Z</time></trkpt>
<trkpt lat="41.727565" lon="23.491186"><ele>2780.3</ele><time>2026-03-15T11:35:23.000Z</time></trkpt>
<trkpt lat="41.727563" lon="23.491191"><ele>2780.3</ele><time>2026-03-15T11:35:24.000Z</time></trkpt>
<trkpt lat="41.727561" lon="23.491197"><ele>2780.3</ele><time>2026-03-15T11:35:25.000Z</time></trkpt>
<trkpt lat="41.727558" lon="23.491203"><ele>2780.3</ele><time>2026-03-15T11:35:26.000Z</time></trkpt>
<trkpt lat="41.727555" lon="23.491211"><ele>2780.6</ele><time>2026-03-15T11:35:27.000Z</time></trkpt>
<trkpt lat="41.727553" lon="23.491217"><ele>2780.6</ele><time>2026-03-15T11:35:28.000Z</time></trkpt>
<trkpt lat="41.727551" lon="23.491224"><ele>2780.6</ele><time>2026-03-15T11:35:29.000Z</time></trkpt>
<trkpt lat="41.727549" lon="23.491231"><ele>2780.6</ele><time>2026-03-15T11:35:30.000Z</time></trkpt>
<trkpt lat="41.727548" lon="23.491238"><ele>2780.6</ele><time>2026-03-15T11:35:31.000Z</time></trkpt>
<trkpt lat="41.727546" lon="23.491244"><ele>2780.8</ele><time>2026-03-15T11:35:32.000Z</time></trkpt>
<trkpt lat="41.727544" lon="23.49125"><ele>2780.8</ele><time>2026-03-15T11:35:33.000Z</time></trkpt>
<trkpt lat="41.727541" lon="23.491256"><ele>2780.8</ele><time>2026-03-15T11:35:34.000Z</time></trkpt>
<trkpt lat="41.727538" lon="23.491261"><ele>2780.8</ele><time>2026-03-15T11:35:35.000Z</time></trkpt>
<trkpt lat="41.727536" lon="23.491266"><ele>2780.8</ele><time>2026-03-15T11:35:36.000Z</time></trkpt>
<trkpt lat="41.727533" lon="23.491271"><ele>2781.3</ele><time>2026-03-15T11:35:37.000Z</time></trkpt>
<trkpt lat="41.72753" lon="23.491278"><ele>2781.3</ele><time>2026-03-15T11:35:38.000Z</time></trkpt>
<trkpt lat="41.727527" lon="23.491284"><ele>2781.3</ele><time>2026-03-15T11:35:39.000Z</time></trkpt>
<trkpt lat="41.727523" lon="23.491292"><ele>2781.3</ele><time>2026-03-15T11:35:40.000Z</time></trkpt>
<trkpt lat="41.727518" lon="23.4913"><ele>2781.3</ele><time>2026-03-15T11:35:41.000Z</time></trkpt>
<trkpt lat="41.727515" lon="23.491307"><ele>2781.9</ele><time>2026-03-15T11:35:42.000Z</time></trkpt>
<trkpt lat="41.727511" lon="23.491315"><ele>2781.9</ele><time>2026-03-15T11:35:43.000Z</time></trkpt>
<trkpt lat="41.727507" lon="23.491323"><ele>2781.9</ele><time>2026-03-15T11:35:44.000Z</time></trkpt>
<trkpt lat="41.727502" lon="23.491329"><ele>2781.9</ele><time>2026-03-15T11:35:45.000Z</time></trkpt>
<trkpt lat="41.727499" lon="23.491335"><ele>2781.9</ele><time>2026-03-15T11:35:46.000Z</time></trkpt>
<trkpt lat="41.727494" lon="23.491341"><ele>2782.1</ele><time>2026-03-15T11:35:47.000Z</time></trkpt>
<trkpt lat="41.727491" lon="23.491347"><ele>2782.1</ele><time>2026-03-15T11:35:48.000Z</time></trkpt>
<trkpt lat="41.727488" lon="23.491353"><ele>2782.1</ele><time>2026-03-15T11:35:49.000Z</time></trkpt>
<trkpt lat="41.727486" lon="23.491358"><ele>2782.1</ele><time>2026-03-15T11:35:50.000Z</time></trkpt>
<trkpt lat="41.727484" lon="23.491363"><ele>2782.1</ele><time>2026-03-15T11:35:51.000Z</time></trkpt>
<trkpt lat="41.727483" lon="23.491369"><ele>2782.6</ele><time>2026-03-15T11:35:52.000Z</time></trkpt>
<trkpt lat="41.727483" lon="23.491374"><ele>2782.6</ele><time>2026-03-15T11:35:53.000Z</time></trkpt>
<trkpt lat="41.727482" lon="23.491378"><ele>2782.6</ele><time>2026-03-15T11:35:54.000Z</time></trkpt>
<trkpt lat="41.727482" lon="23.491382"><ele>2782.6</ele><time>2026-03-15T11:35:55.000Z</time></trkpt>
<trkpt lat="41.727481" lon="23.491387"><ele>2782.6</ele><time>2026-03-15T11:35:56.000Z</time></trkpt>
<trkpt lat="41.727479" lon="23.491391"><ele>2783</ele><time>2026-03-15T11:35:57.000Z</time></trkpt>
<trkpt lat="41.727475" lon="23.491395"><ele>2783</ele><time>2026-03-15T11:35:58.000Z</time></trkpt>
<trkpt lat="41.727472" lon="23.4914"><ele>2783</ele><time>2026-03-15T11:35:59.000Z</time></trkpt>
<trkpt lat="41.727468" lon="23.491406"><ele>2783</ele><time>2026-03-15T11:36:00.000Z</time></trkpt>
<trkpt lat="41.727465" lon="23.491411"><ele>2783</ele><time>2026-03-15T11:36:01.000Z</time></trkpt>
<trkpt lat="41.727463" lon="23.491416"><ele>2783.2</ele><time>2026-03-15T11:36:02.000Z</time></trkpt>
<trkpt lat="41.727461" lon="23.491422"><ele>2783.2</ele><time>2026-03-15T11:36:03.000Z</time></trkpt>
<trkpt lat="41.72746" lon="23.491427"><ele>2783.2</ele><time>2026-03-15T11:36:04.000Z</time></trkpt>
<trkpt lat="41.727458" lon="23.491432"><ele>2783.2</ele><time>2026-03-15T11:36:05.000Z</time></trkpt>
<trkpt lat="41.727456" lon="23.491437"><ele>2783.2</ele><time>2026-03-15T11:36:06.000Z</time></trkpt>
<trkpt lat="41.727453" lon="23.491442"><ele>2783.7</ele><time>2026-03-15T11:36:07.000Z</time></trkpt>
<trkpt lat="41.727452" lon="23.491446"><ele>2783.7</ele><time>2026-03-15T11:36:08.000Z</time></trkpt>
<trkpt lat="41.72745" lon="23.49145"><ele>2783.7</ele><time>2026-03-15T11:36:09.000Z</time></trkpt>
<trkpt lat="41.727448" lon="23.491454"><ele>2783.7</ele><time>2026-03-15T11:36:10.000Z</time></trkpt>
<trkpt lat="41.727445" lon="23.491458"><ele>2783.7</ele><time>2026-03-15T11:36:11.000Z</time></trkpt>
<trkpt lat="41.727443" lon="23.491463"><ele>2784.5</ele><time>2026-03-15T11:36:12.000Z</time></trkpt>
<trkpt lat="41.72744" lon="23.491468"><ele>2784.5</ele><time>2026-03-15T11:36:13.000Z</time></trkpt>
<trkpt lat="41.727437" lon="23.491474"><ele>2784.5</ele><time>2026-03-15T11:36:14.000Z</time></trkpt>
<trkpt lat="41.727433" lon="23.49148"><ele>2784.5</ele><time>2026-03-15T11:36:15.000Z</time></trkpt>
<trkpt lat="41.72743" lon="23.491486"><ele>2784.5</ele><time>2026-03-15T11:36:16.000Z</time></trkpt>
<trkpt lat="41.727427" lon="23.491492"><ele>2784.9</ele><time>2026-03-15T11:36:17.000Z</time></trkpt>
<trkpt lat="41.727424" lon="23.491498"><ele>2784.9</ele><time>2026-03-15T11:36:18.000Z</time></trkpt>
<trkpt lat="41.727422" lon="23.491503"><ele>2784.9</ele><time>2026-03-15T11:36:19.000Z</time></trkpt>
<trkpt lat="41.72742" lon="23.491508"><ele>2784.9</ele><time>2026-03-15T11:36:20.000Z</time></trkpt>
<trkpt lat="41.727417" lon="23.491513"><ele>2784.9</ele><time>2026-03-15T11:36:21.000Z</time></trkpt>
<trkpt lat="41.727413" lon="23.491519"><ele>2785.6</ele><time>2026-03-15T11:36:22.000Z</time></trkpt>
<trkpt lat="41.72741" lon="23.491525"><ele>2785.6</ele><time>2026-03-15T11:36:23.000Z</time></trkpt>
<trkpt lat="41.727407" lon="23.491531"><ele>2785.6</ele><time>2026-03-15T11:36:24.000Z</time></trkpt>
<trkpt lat="41.727405" lon="23.491536"><ele>2785.6</ele><time>2026-03-15T11:36:25.000Z</time></trkpt>
<trkpt lat="41.727404" lon="23.49154"><ele>2785.6</ele><time>2026-03-15T11:36:26.000Z</time></trkpt>
<trkpt lat="41.727405" lon="23.491542"><ele>2786.4</ele><time>2026-03-15T11:36:27.000Z</time></trkpt>
<trkpt lat="41.727405" lon="23.491543"><ele>2786.4</ele><time>2026-03-15T11:36:28.000Z</time></trkpt>
<trkpt lat="41.727405" lon="23.491543"><ele>2786.4</ele><time>2026-03-15T11:36:29.000Z</time></trkpt>
<trkpt lat="41.727405" lon="23.491544"><ele>2786.4</ele><time>2026-03-15T11:36:30.000Z</time></trkpt>
<trkpt lat="41.727405" lon="23.491546"><ele>2786.4</ele><time>2026-03-15T11:36:31.000Z</time></trkpt>
<trkpt lat="41.727404" lon="23.491549"><ele>2786.7</ele><time>2026-03-15T11:36:32.000Z</time></trkpt>
<trkpt lat="41.727403" lon="23.491553"><ele>2786.7</ele><time>2026-03-15T11:36:33.000Z</time></trkpt>
<trkpt lat="41.7274" lon="23.491558"><ele>2786.7</ele><time>2026-03-15T11:36:34.000Z</time></trkpt>
<trkpt lat="41.727397" lon="23.491564"><ele>2786.7</ele><time>2026-03-15T11:36:35.000Z</time></trkpt>
<trkpt lat="41.727394" lon="23.49157"><ele>2786.7</ele><time>2026-03-15T11:36:36.000Z</time></trkpt>
<trkpt lat="41.72739" lon="23.491577"><ele>2787.2</ele><time>2026-03-15T11:36:37.000Z</time></trkpt>
<trkpt lat="41.727386" lon="23.491583"><ele>2787.2</ele><time>2026-03-15T11:36:38.000Z</time></trkpt>
<trkpt lat="41.727383" lon="23.491589"><ele>2787.2</ele><time>2026-03-15T11:36:39.000Z</time></trkpt>
<trkpt lat="41.727379" lon="23.491593"><ele>2787.2</ele><time>2026-03-15T11:36:40.000Z</time></trkpt>
<trkpt lat="41.727376" lon="23.491597"><ele>2787.2</ele><time>2026-03-15T11:36:41.000Z</time></trkpt>
<trkpt lat="41.727373" lon="23.4916"><ele>2787.5</ele><time>2026-03-15T11:36:42.000Z</time></trkpt>
<trkpt lat="41.727371" lon="23.491604"><ele>2787.5</ele><time>2026-03-15T11:36:43.000Z</time></trkpt>
<trkpt lat="41.727368" lon="23.491607"><ele>2787.5</ele><time>2026-03-15T11:36:44.000Z</time></trkpt>
<trkpt lat="41.727366" lon="23.49161"><ele>2787.5</ele><time>2026-03-15T11:36:45.000Z</time></trkpt>
<trkpt lat="41.727364" lon="23.491614"><ele>2787.5</ele><time>2026-03-15T11:36:46.000Z</time></trkpt>
<trkpt lat="41.727363" lon="23.491618"><ele>2787.7</ele><time>2026-03-15T11:36:47.000Z</time></trkpt>
<trkpt lat="41.727361" lon="23.491621"><ele>2787.7</ele><time>2026-03-15T11:36:48.000Z</time></trkpt>
<trkpt lat="41.72736" lon="23.491625"><ele>2787.7</ele><time>2026-03-15T11:36:49.000Z</time></trkpt>
<trkpt lat="41.727358" lon="23.491628"><ele>2787.7</ele><time>2026-03-15T11:36:50.000Z</time></trkpt>
<trkpt lat="41.727357" lon="23.491632"><ele>2787.7</ele><time>2026-03-15T11:36:51.000Z</time></trkpt>
<trkpt lat="41.727354" lon="23.491635"><ele>2788.3</ele><time>2026-03-15T11:36:52.000Z</time></trkpt>
<trkpt lat="41.727352" lon="23.491637"><ele>2788.3</ele><time>2026-03-15T11:36:53.000Z</time></trkpt>
<trkpt lat="41.727351" lon="23.491639"><ele>2788.3</ele><time>2026-03-15T11:36:54.000Z</time></trkpt>
<trkpt lat="41.72735" lon="23.491639"><ele>2788.3</ele><time>2026-03-15T11:36:55.000Z</time></trkpt>
<trkpt lat="41.72735" lon="23.49164"><ele>2788.3</ele><time>2026-03-15T11:36:56.000Z</time></trkpt>
<trkpt lat="41.72735" lon="23.491641"><ele>2789</ele><time>2026-03-15T11:36:57.000Z</time></trkpt>
<trkpt lat="41.72735" lon="23.491643"><ele>2789</ele><time>2026-03-15T11:36:58.000Z</time></trkpt>
<trkpt lat="41.72735" lon="23.491646"><ele>2789</ele><time>2026-03-15T11:36:59.000Z</time></trkpt>
<trkpt lat="41.727348" lon="23.49165"><ele>2789</ele><time>2026-03-15T11:37:00.000Z</time></trkpt>
<trkpt lat="41.727347" lon="23.491655"><ele>2789</ele><time>2026-03-15T11:37:01.000Z</time></trkpt>
<trkpt lat="41.727344" lon="23.491661"><ele>2789.4</ele><time>2026-03-15T11:37:02.000Z</time></trkpt>
<trkpt lat="41.72734" lon="23.491667"><ele>2789.4</ele><time>2026-03-15T11:37:03.000Z</time></trkpt>
<trkpt lat="41.727337" lon="23.491672"><ele>2789.4</ele><time>2026-03-15T11:37:04.000Z</time></trkpt>
<trkpt lat="41.727333" lon="23.491676"><ele>2789.4</ele><time>2026-03-15T11:37:05.000Z</time></trkpt>
<trkpt lat="41.727329" lon="23.49168"><ele>2789.4</ele><time>2026-03-15T11:37:06.000Z</time></trkpt>
<trkpt lat="41.727326" lon="23.491685"><ele>2790.3</ele><time>2026-03-15T11:37:07.000Z</time></trkpt>
<trkpt lat="41.727322" lon="23.491689"><ele>2790.3</ele><time>2026-03-15T11:37:08.000Z</time></trkpt>
<trkpt lat="41.727319" lon="23.491694"><ele>2790.3</ele><time>2026-03-15T11:37:09.000Z</time></trkpt>
<trkpt lat="41.727316" lon="23.491701"><ele>2790.3</ele><time>2026-03-15T11:37:10.000Z</time></trkpt>
<trkpt lat="41.727313" lon="23.491707"><ele>2790.3</ele><time>2026-03-15T11:37:11.000Z</time></trkpt>
<trkpt lat="41.727311" lon="23.491713"><ele>2791</ele><time>2026-03-15T11:37:12.000Z</time></trkpt>
<trkpt lat="41.727309" lon="23.491719"><ele>2791</ele><time>2026-03-15T11:37:13.000Z</time></trkpt>
<trkpt lat="41.727307" lon="23.491725"><ele>2791</ele><time>2026-03-15T11:37:14.000Z</time></trkpt>
<trkpt lat="41.727305" lon="23.491731"><ele>2791</ele><time>2026-03-15T11:37:15.000Z</time></trkpt>
<trkpt lat="41.727303" lon="23.491737"><ele>2791</ele><time>2026-03-15T11:37:16.000Z</time></trkpt>
<trkpt lat="41.727299" lon="23.491743"><ele>2791.3</ele><time>2026-03-15T11:37:17.000Z</time></trkpt>
<trkpt lat="41.727295" lon="23.491749"><ele>2791.3</ele><time>2026-03-15T11:37:18.000Z</time></trkpt>
<trkpt lat="41.72729" lon="23.491754"><ele>2791.3</ele><time>2026-03-15T11:37:19.000Z</time></trkpt>
<trkpt lat="41.727285" lon="23.491759"><ele>2791.3</ele><time>2026-03-15T11:37:20.000Z</time></trkpt>
<trkpt lat="41.727281" lon="23.491762"><ele>2791.3</ele><time>2026-03-15T11:37:21.000Z</time></trkpt>
<trkpt lat="41.727276" lon="23.491766"><ele>2791.9</ele><time>2026-03-15T11:37:22.000Z</time></trkpt>
<trkpt lat="41.727272" lon="23.49177"><ele>2791.9</ele><time>2026-03-15T11:37:23.000Z</time></trkpt>
<trkpt lat="41.727268" lon="23.491776"><ele>2791.9</ele><time>2026-03-15T11:37:24.000Z</time></trkpt>
<trkpt lat="41.727263" lon="23.491782"><ele>2791.9</ele><time>2026-03-15T11:37:25.000Z</time></trkpt>
<trkpt lat="41.727258" lon="23.491788"><ele>2791.9</ele><time>2026-03-15T11:37:26.000Z</time></trkpt>
<trkpt lat="41.727253" lon="23.491794"><ele>2792.3</ele><time>2026-03-15T11:37:27.000Z</time></trkpt>
<trkpt lat="41.727248" lon="23.4918"><ele>2792.3</ele><time>2026-03-15T11:37:28.000Z</time></trkpt>
<trkpt lat="41.727243" lon="23.491804"><ele>2792.3</ele><time>2026-03-15T11:37:29.000Z</time></trkpt>
<trkpt lat="41.727237" lon="23.491809"><ele>2792.3</ele><time>2026-03-15T11:37:30.000Z</time></trkpt>
<trkpt lat="41.727232" lon="23.491812"><ele>2792.3</ele><time>2026-03-15T11:37:31.000Z</time></trkpt>
<trkpt lat="41.727228" lon="23.491815"><ele>2792.6</ele><time>2026-03-15T11:37:32.000Z</time></trkpt>
<trkpt lat="41.727225" lon="23.491817"><ele>2792.6</ele><time>2026-03-15T11:37:33.000Z</time></trkpt>
<trkpt lat="41.727221" lon="23.491818"><ele>2792.6</ele><time>2026-03-15T11:37:34.000Z</time></trkpt>
<trkpt lat="41.727217" lon="23.49182"><ele>2792.6</ele><time>2026-03-15T11:37:35.000Z</time></trkpt>
<trkpt lat="41.727213" lon="23.491822"><ele>2792.6</ele><time>2026-03-15T11:37:36.000Z</time></trkpt>
<trkpt lat="41.727208" lon="23.491826"><ele>2792.8</ele><time>2026-03-15T11:37:37.000Z</time></trkpt>
<trkpt lat="41.727202" lon="23.491829"><ele>2792.8</ele><time>2026-03-15T11:37:38.000Z</time></trkpt>
<trkpt lat="41.727196" lon="23.491833"><ele>2792.8</ele><time>2026-03-15T11:37:39.000Z</time></trkpt>
<trkpt lat="41.727191" lon="23.491837"><ele>2792.8</ele><time>2026-03-15T11:37:40.000Z</time></trkpt>
<trkpt lat="41.727185" lon="23.491841"><ele>2792.8</ele><time>2026-03-15T11:37:41.000Z</time></trkpt>
<trkpt lat="41.72718" lon="23.491845"><ele>2792.7</ele><time>2026-03-15T11:37:42.000Z</time></trkpt>
<trkpt lat="41.727175" lon="23.491848"><ele>2792.7</ele><time>2026-03-15T11:37:43.000Z</time></trkpt>
<trkpt lat="41.727171" lon="23.491851"><ele>2792.7</ele><time>2026-03-15T11:37:44.000Z</time></trkpt>
<trkpt lat="41.727168" lon="23.491852"><ele>2792.7</ele><time>2026-03-15T11:37:45.000Z</time></trkpt>
<trkpt lat="41.727166" lon="23.491853"><ele>2792.7</ele><time>2026-03-15T11:37:46.000Z</time></trkpt>
<trkpt lat="41.727164" lon="23.491854"><ele>2792.6</ele><time>2026-03-15T11:37:47.000Z</time></trkpt>
<trkpt lat="41.727164" lon="23.491855"><ele>2792.6</ele><time>2026-03-15T11:37:48.000Z</time></trkpt>
<trkpt lat="41.727161" lon="23.491855"><ele>2792.6</ele><time>2026-03-15T11:37:49.000Z</time></trkpt>
<trkpt lat="41.727159" lon="23.491855"><ele>2792.6</ele><time>2026-03-15T11:37:50.000Z</time></trkpt>
<trkpt lat="41.727157" lon="23.491855"><ele>2792.6</ele><time>2026-03-15T11:37:51.000Z</time></trkpt>
<trkpt lat="41.727155" lon="23.491855"><ele>2792.4</ele><time>2026-03-15T11:37:52.000Z</time></trkpt>
<trkpt lat="41.727154" lon="23.491855"><ele>2792.4</ele><time>2026-03-15T11:37:53.000Z</time></trkpt>
<trkpt lat="41.727154" lon="23.491854"><ele>2792.4</ele><time>2026-03-15T11:37:54.000Z</time></trkpt>
<trkpt lat="41.727154" lon="23.491854"><ele>2792.4</ele><time>2026-03-15T11:37:55.000Z</time></trkpt>
<trkpt lat="41.727154" lon="23.491854"><ele>2792.4</ele><time>2026-03-15T11:37:56.000Z</time></trkpt>
<trkpt lat="41.727154" lon="23.491854"><ele>2792.3</ele><time>2026-03-15T11:37:57.000Z</time></trkpt>
<trkpt lat="41.727154" lon="23.491854"><ele>2792.3</ele><time>2026-03-15T11:37:58.000Z</time></trkpt>
<trkpt lat="41.727154" lon="23.491855"><ele>2792.3</ele><time>2026-03-15T11:37:59.000Z</time></trkpt>
<trkpt lat="41.727154" lon="23.491856"><ele>2792.3</ele><time>2026-03-15T11:38:00.000Z</time></trkpt>
<trkpt lat="41.727155" lon="23.491857"><ele>2792.3</ele><time>2026-03-15T11:38:01.000Z</time></trkpt>
<trkpt lat="41.727155" lon="23.491858"><ele>2792.2</ele><time>2026-03-15T11:38:02.000Z</time></trkpt>
<trkpt lat="41.727155" lon="23.491859"><ele>2792.2</ele><time>2026-03-15T11:38:03.000Z</time></trkpt>
<trkpt lat="41.727155" lon="23.491861"><ele>2792.2</ele><time>2026-03-15T11:38:04.000Z</time></trkpt>
<trkpt lat="41.727155" lon="23.491862"><ele>2792.2</ele><time>2026-03-15T11:38:05.000Z</time></trkpt>
<trkpt lat="41.727155" lon="23.491864"><ele>2792.2</ele><time>2026-03-15T11:38:06.000Z</time></trkpt>
<trkpt lat="41.727155" lon="23.491865"><ele>2792.1</ele><time>2026-03-15T11:38:07.000Z</time></trkpt>
<trkpt lat="41.727155" lon="23.491865"><ele>2792.1</ele><time>2026-03-15T11:38:08.000Z</time></trkpt>
<trkpt lat="41.727155" lon="23.491866"><ele>2792.1</ele><time>2026-03-15T11:38:09.000Z</time></trkpt>
<trkpt lat="41.727155" lon="23.491866"><ele>2792.1</ele><time>2026-03-15T11:38:10.000Z</time></trkpt>
<trkpt lat="41.727155" lon="23.491867"><ele>2792.1</ele><time>2026-03-15T11:38:11.000Z</time></trkpt>
<trkpt lat="41.727154" lon="23.491867"><ele>2791.9</ele><time>2026-03-15T11:38:12.000Z</time></trkpt>
<trkpt lat="41.727155" lon="23.491867"><ele>2791.9</ele><time>2026-03-15T11:38:13.000Z</time></trkpt>
<trkpt lat="41.727155" lon="23.491867"><ele>2791.9</ele><time>2026-03-15T11:38:14.000Z</time></trkpt>
<trkpt lat="41.727155" lon="23.491867"><ele>2791.9</ele><time>2026-03-15T11:38:15.000Z</time></trkpt>
<trkpt lat="41.727155" lon="23.491867"><ele>2791.9</ele><time>2026-03-15T11:38:16.000Z</time></trkpt>
<trkpt lat="41.727156" lon="23.491867"><ele>2791.9</ele><time>2026-03-15T11:38:17.000Z</time></trkpt>
<trkpt lat="41.727156" lon="23.491867"><ele>2791.9</ele><time>2026-03-15T11:38:18.000Z</time></trkpt>
<trkpt lat="41.727154" lon="23.491868"><ele>2791.9</ele><time>2026-03-15T11:38:19.000Z</time></trkpt>
<trkpt lat="41.727151" lon="23.491869"><ele>2791.9</ele><time>2026-03-15T11:38:20.000Z</time></trkpt>
<trkpt lat="41.727146" lon="23.491871"><ele>2791.9</ele><time>2026-03-15T11:38:21.000Z</time></trkpt>
<trkpt lat="41.727139" lon="23.491872"><ele>2792</ele><time>2026-03-15T11:38:22.000Z</time></trkpt>
<trkpt lat="41.727131" lon="23.491875"><ele>2792</ele><time>2026-03-15T11:38:23.000Z</time></trkpt>
<trkpt lat="41.727125" lon="23.491876"><ele>2792</ele><time>2026-03-15T11:38:24.000Z</time></trkpt>
<trkpt lat="41.727121" lon="23.491877"><ele>2792</ele><time>2026-03-15T11:38:25.000Z</time></trkpt>
<trkpt lat="41.727119" lon="23.491878"><ele>2792</ele><time>2026-03-15T11:38:26.000Z</time></trkpt>
<trkpt lat="41.727119" lon="23.491879"><ele>2792</ele><time>2026-03-15T11:38:27.000Z</time></trkpt>
<trkpt lat="41.727118" lon="23.491879"><ele>2792</ele><time>2026-03-15T11:38:28.000Z</time></trkpt>
<trkpt lat="41.727118" lon="23.491879"><ele>2792</ele><time>2026-03-15T11:38:29.000Z</time></trkpt>
<trkpt lat="41.727116" lon="23.491879"><ele>2792</ele><time>2026-03-15T11:38:30.000Z</time></trkpt>
<trkpt lat="41.727114" lon="23.491878"><ele>2792</ele><time>2026-03-15T11:38:31.000Z</time></trkpt>
<trkpt lat="41.727112" lon="23.491876"><ele>2791.9</ele><time>2026-03-15T11:38:32.000Z</time></trkpt>
<trkpt lat="41.727111" lon="23.491874"><ele>2791.9</ele><time>2026-03-15T11:38:33.000Z</time></trkpt>
<trkpt lat="41.727109" lon="23.491871"><ele>2791.9</ele><time>2026-03-15T11:38:34.000Z</time></trkpt>
<trkpt lat="41.727108" lon="23.491869"><ele>2791.9</ele><time>2026-03-15T11:38:35.000Z</time></trkpt>
<trkpt lat="41.727108" lon="23.491867"><ele>2791.9</ele><time>2026-03-15T11:38:36.000Z</time></trkpt>
<trkpt lat="41.727107" lon="23.491867"><ele>2791.6</ele><time>2026-03-15T11:38:37.000Z</time></trkpt>
<trkpt lat="41.727106" lon="23.491866"><ele>2791.6</ele><time>2026-03-15T11:38:38.000Z</time></trkpt>
<trkpt lat="41.727105" lon="23.491866"><ele>2791.6</ele><time>2026-03-15T11:38:39.000Z</time></trkpt>
<trkpt lat="41.727105" lon="23.491865"><ele>2791.6</ele><time>2026-03-15T11:38:40.000Z</time></trkpt>
<trkpt lat="41.727105" lon="23.491864"><ele>2791.6</ele><time>2026-03-15T11:38:41.000Z</time></trkpt>
<trkpt lat="41.727105" lon="23.491863"><ele>2791.4</ele><time>2026-03-15T11:38:42.000Z</time></trkpt>
<trkpt lat="41.727106" lon="23.491863"><ele>2791.4</ele><time>2026-03-15T11:38:43.000Z</time></trkpt>
<trkpt lat="41.727107" lon="23.491865"><ele>2791.4</ele><time>2026-03-15T11:38:44.000Z</time></trkpt>
<trkpt lat="41.727109" lon="23.491867"><ele>2791.4</ele><time>2026-03-15T11:38:45.000Z</time></trkpt>
<trkpt lat="41.727112" lon="23.49187"><ele>2791.4</ele><time>2026-03-15T11:38:46.000Z</time></trkpt>
<trkpt lat="41.727116" lon="23.491876"><ele>2791.4</ele><time>2026-03-15T11:38:47.000Z</time></trkpt>
<trkpt lat="41.727119" lon="23.49188"><ele>2791.4</ele><time>2026-03-15T11:38:48.000Z</time></trkpt>
<trkpt lat="41.727122" lon="23.491883"><ele>2791.4</ele><time>2026-03-15T11:38:49.000Z</time></trkpt>
<trkpt lat="41.727125" lon="23.491883"><ele>2791.4</ele><time>2026-03-15T11:38:50.000Z</time></trkpt>
<trkpt lat="41.727127" lon="23.491882"><ele>2791.4</ele><time>2026-03-15T11:38:51.000Z</time></trkpt>
<trkpt lat="41.727129" lon="23.491879"><ele>2791.6</ele><time>2026-03-15T11:38:52.000Z</time></trkpt>
<trkpt lat="41.727133" lon="23.491877"><ele>2791.6</ele><time>2026-03-15T11:38:53.000Z</time></trkpt>
<trkpt lat="41.727136" lon="23.491874"><ele>2791.6</ele><time>2026-03-15T11:38:54.000Z</time></trkpt>
<trkpt lat="41.727138" lon="23.491873"><ele>2791.6</ele><time>2026-03-15T11:38:55.000Z</time></trkpt>
<trkpt lat="41.727139" lon="23.491873"><ele>2791.6</ele><time>2026-03-15T11:38:56.000Z</time></trkpt>
<trkpt lat="41.72714" lon="23.491873"><ele>2791.8</ele><time>2026-03-15T11:38:57.000Z</time></trkpt>
<trkpt lat="41.727141" lon="23.491874"><ele>2791.8</ele><time>2026-03-15T11:38:58.000Z</time></trkpt>
<trkpt lat="41.727142" lon="23.491875"><ele>2791.8</ele><time>2026-03-15T11:38:59.000Z</time></trkpt>
<trkpt lat="41.727143" lon="23.491875"><ele>2791.8</ele><time>2026-03-15T11:39:00.000Z</time></trkpt>
<trkpt lat="41.727143" lon="23.491875"><ele>2791.8</ele><time>2026-03-15T11:39:01.000Z</time></trkpt>
<trkpt lat="41.727143" lon="23.491874"><ele>2791.9</ele><time>2026-03-15T11:39:02.000Z</time></trkpt>
<trkpt lat="41.727143" lon="23.491874"><ele>2791.9</ele><time>2026-03-15T11:39:03.000Z</time></trkpt>
<trkpt lat="41.727143" lon="23.491874"><ele>2791.9</ele><time>2026-03-15T11:39:04.000Z</time></trkpt>
<trkpt lat="41.727143" lon="23.491874"><ele>2791.9</ele><time>2026-03-15T11:39:05.000Z</time></trkpt>
<trkpt lat="41.727143" lon="23.491874"><ele>2791.9</ele><time>2026-03-15T11:39:06.000Z</time></trkpt>
<trkpt lat="41.727143" lon="23.491874"><ele>2791.9</ele><time>2026-03-15T11:39:07.000Z</time></trkpt>
<trkpt lat="41.727143" lon="23.491875"><ele>2791.9</ele><time>2026-03-15T11:39:08.000Z</time></trkpt>
<trkpt lat="41.727143" lon="23.491875"><ele>2791.9</ele><time>2026-03-15T11:39:09.000Z</time></trkpt>
<trkpt lat="41.727142" lon="23.491875"><ele>2791.9</ele><time>2026-03-15T11:39:10.000Z</time></trkpt>
<trkpt lat="41.727141" lon="23.491875"><ele>2791.9</ele><time>2026-03-15T11:39:11.000Z</time></trkpt>
<trkpt lat="41.72714" lon="23.491875"><ele>2791.8</ele><time>2026-03-15T11:39:12.000Z</time></trkpt>
<trkpt lat="41.727139" lon="23.491876"><ele>2791.8</ele><time>2026-03-15T11:39:13.000Z</time></trkpt>
<trkpt lat="41.727138" lon="23.491876"><ele>2791.8</ele><time>2026-03-15T11:39:14.000Z</time></trkpt>
<trkpt lat="41.727138" lon="23.491875"><ele>2791.8</ele><time>2026-03-15T11:39:15.000Z</time></trkpt>
<trkpt lat="41.727138" lon="23.491875"><ele>2791.8</ele><time>2026-03-15T11:39:16.000Z</time></trkpt>
<trkpt lat="41.727138" lon="23.491875"><ele>2791.8</ele><time>2026-03-15T11:39:17.000Z</time></trkpt>
<trkpt lat="41.727138" lon="23.491875"><ele>2791.8</ele><time>2026-03-15T11:39:18.000Z</time></trkpt>
<trkpt lat="41.727138" lon="23.491875"><ele>2791.8</ele><time>2026-03-15T11:39:19.000Z</time></trkpt>
<trkpt lat="41.727139" lon="23.491874"><ele>2791.8</ele><time>2026-03-15T11:39:20.000Z</time></trkpt>
<trkpt lat="41.727139" lon="23.491872"><ele>2791.8</ele><time>2026-03-15T11:39:21.000Z</time></trkpt>
<trkpt lat="41.72714" lon="23.491871"><ele>2791.7</ele><time>2026-03-15T11:39:22.000Z</time></trkpt>
<trkpt lat="41.72714" lon="23.49187"><ele>2791.7</ele><time>2026-03-15T11:39:23.000Z</time></trkpt>
<trkpt lat="41.727141" lon="23.491869"><ele>2791.7</ele><time>2026-03-15T11:39:24.000Z</time></trkpt>
<trkpt lat="41.72714" lon="23.491869"><ele>2791.7</ele><time>2026-03-15T11:39:25.000Z</time></trkpt>
<trkpt lat="41.72714" lon="23.491868"><ele>2791.7</ele><time>2026-03-15T11:39:26.000Z</time></trkpt>
<trkpt lat="41.72714" lon="23.491867"><ele>2791.6</ele><time>2026-03-15T11:39:27.000Z</time></trkpt>
<trkpt lat="41.72714" lon="23.491866"><ele>2791.6</ele><time>2026-03-15T11:39:28.000Z</time></trkpt>
<trkpt lat="41.72714" lon="23.491865"><ele>2791.6</ele><time>2026-03-15T11:39:29.000Z</time></trkpt>
<trkpt lat="41.727141" lon="23.491865"><ele>2791.6</ele><time>2026-03-15T11:39:30.000Z</time></trkpt>
<trkpt lat="41.727141" lon="23.491865"><ele>2791.6</ele><time>2026-03-15T11:39:31.000Z</time></trkpt>
<trkpt lat="41.727141" lon="23.491865"><ele>2791.6</ele><time>2026-03-15T11:39:32.000Z</time></trkpt>
<trkpt lat="41.727141" lon="23.491865"><ele>2791.6</ele><time>2026-03-15T11:39:33.000Z</time></trkpt>
<trkpt lat="41.727141" lon="23.491864"><ele>2791.6</ele><time>2026-03-15T11:39:34.000Z</time></trkpt>
<trkpt lat="41.727141" lon="23.491864"><ele>2791.6</ele><time>2026-03-15T11:39:35.000Z</time></trkpt>
<trkpt lat="41.727141" lon="23.491865"><ele>2791.6</ele><time>2026-03-15T11:39:36.000Z</time></trkpt>
<trkpt lat="41.72714" lon="23.491865"><ele>2791.7</ele><time>2026-03-15T11:39:37.000Z</time></trkpt>
<trkpt lat="41.72714" lon="23.491865"><ele>2791.7</ele><time>2026-03-15T11:39:38.000Z</time></trkpt>
<trkpt lat="41.727139" lon="23.491865"><ele>2791.7</ele><time>2026-03-15T11:39:39.000Z</time></trkpt>
<trkpt lat="41.727139" lon="23.491865"><ele>2791.7</ele><time>2026-03-15T11:39:40.000Z</time></trkpt>
<trkpt lat="41.727139" lon="23.491865"><ele>2791.7</ele><time>2026-03-15T11:39:41.000Z</time></trkpt>
<trkpt lat="41.727139" lon="23.491865"><ele>2791.7</ele><time>2026-03-15T11:39:42.000Z</time></trkpt>
<trkpt lat="41.727139" lon="23.491865"><ele>2791.7</ele><time>2026-03-15T11:39:43.000Z</time></trkpt>
<trkpt lat="41.727139" lon="23.491866"><ele>2791.7</ele><time>2026-03-15T11:39:44.000Z</time></trkpt>
<trkpt lat="41.727139" lon="23.491866"><ele>2791.7</ele><time>2026-03-15T11:39:45.000Z</time></trkpt>
<trkpt lat="41.727138" lon="23.491866"><ele>2791.7</ele><time>2026-03-15T11:39:46.000Z</time></trkpt>
<trkpt lat="41.727139" lon="23.491866"><ele>2791.7</ele><time>2026-03-15T11:39:47.000Z</time></trkpt>
<trkpt lat="41.727141" lon="23.491866"><ele>2791.7</ele><time>2026-03-15T11:39:48.000Z</time></trkpt>
<trkpt lat="41.727144" lon="23.491866"><ele>2791.7</ele><time>2026-03-15T11:39:49.000Z</time></trkpt>
<trkpt lat="41.727146" lon="23.491865"><ele>2791.7</ele><time>2026-03-15T11:39:50.000Z</time></trkpt>
<trkpt lat="41.727149" lon="23.491865"><ele>2791.7</ele><time>2026-03-15T11:39:51.000Z</time></trkpt>
<trkpt lat="41.72715" lon="23.491865"><ele>2791.8</ele><time>2026-03-15T11:39:52.000Z</time></trkpt>
<trkpt lat="41.727151" lon="23.491865"><ele>2791.8</ele><time>2026-03-15T11:39:53.000Z</time></trkpt>
<trkpt lat="41.727152" lon="23.491865"><ele>2791.8</ele><time>2026-03-15T11:39:54.000Z</time></trkpt>
<trkpt lat="41.727153" lon="23.491865"><ele>2791.8</ele><time>2026-03-15T11:39:55.000Z</time></trkpt>
<trkpt lat="41.727153" lon="23.491865"><ele>2791.8</ele><time>2026-03-15T11:39:56.000Z</time></trkpt>
<trkpt lat="41.727153" lon="23.491865"><ele>2791.8</ele><time>2026-03-15T11:39:57.000Z</time></trkpt>
<trkpt lat="41.727152" lon="23.491864"><ele>2791.8</ele><time>2026-03-15T11:39:58.000Z</time></trkpt>
<trkpt lat="41.727152" lon="23.491864"><ele>2791.8</ele><time>2026-03-15T11:39:59.000Z</time></trkpt>
<trkpt lat="41.727152" lon="23.491864"><ele>2791.8</ele><time>2026-03-15T11:40:00.000Z</time></trkpt>
<trkpt lat="41.727151" lon="23.491863"><ele>2791.8</ele><time>2026-03-15T11:40:01.000Z</time></trkpt>
<trkpt lat="41.727151" lon="23.491863"><ele>2791.8</ele><time>2026-03-15T11:40:02.000Z</time></trkpt>
<trkpt lat="41.727151" lon="23.491863"><ele>2791.8</ele><time>2026-03-15T11:40:03.000Z</time></trkpt>
<trkpt lat="41.727151" lon="23.491864"><ele>2791.8</ele><time>2026-03-15T11:40:04.000Z</time></trkpt>
<trkpt lat="41.727151" lon="23.491864"><ele>2791.8</ele><time>2026-03-15T11:40:05.000Z</time></trkpt>
<trkpt lat="41.727151" lon="23.491864"><ele>2791.8</ele><time>2026-03-15T11:40:06.000Z</time></trkpt>
<trkpt lat="41.727151" lon="23.491865"><ele>2791.8</ele><time>2026-03-15T11:40:07.000Z</time></trkpt>
<trkpt lat="41.727151" lon="23.491866"><ele>2791.8</ele><time>2026-03-15T11:40:08.000Z</time></trkpt>
<trkpt lat="41.727151" lon="23.491867"><ele>2791.8</ele><time>2026-03-15T11:40:09.000Z</time></trkpt>
<trkpt lat="41.727151" lon="23.491868"><ele>2791.8</ele><time>2026-03-15T11:40:10.000Z</time></trkpt>
<trkpt lat="41.727151" lon="23.491869"><ele>2791.8</ele><time>2026-03-15T11:40:11.000Z</time></trkpt>
<trkpt lat="41.727151" lon="23.491869"><ele>2791.9</ele><time>2026-03-15T11:40:12.000Z</time></trkpt>
<trkpt lat="41.727151" lon="23.491869"><ele>2791.9</ele><time>2026-03-15T11:40:13.000Z</time></trkpt>
<trkpt lat="41.727151" lon="23.491869"><ele>2791.9</ele><time>2026-03-15T11:40:14.000Z</time></trkpt>
<trkpt lat="41.727151" lon="23.491869"><ele>2791.9</ele><time>2026-03-15T11:40:15.000Z</time></trkpt>
<trkpt lat="41.727151" lon="23.491869"><ele>2791.9</ele><time>2026-03-15T11:40:16.000Z</time></trkpt>
<trkpt lat="41.727151" lon="23.491869"><ele>2791.9</ele><time>2026-03-15T11:40:17.000Z</time></trkpt>
<trkpt lat="41.727151" lon="23.491869"><ele>2791.9</ele><time>2026-03-15T11:40:18.000Z</time></trkpt>
<trkpt lat="41.727151" lon="23.491869"><ele>2791.9</ele><time>2026-03-15T11:40:19.000Z</time></trkpt>
<trkpt lat="41.72715" lon="23.491869"><ele>2791.9</ele><time>2026-03-15T11:40:20.000Z</time></trkpt>
<trkpt lat="41.727149" lon="23.491869"><ele>2791.9</ele><time>2026-03-15T11:40:21.000Z</time></trkpt>
<trkpt lat="41.727148" lon="23.491869"><ele>2791.9</ele><time>2026-03-15T11:40:22.000Z</time></trkpt>
<trkpt lat="41.727147" lon="23.491869"><ele>2791.9</ele><time>2026-03-15T11:40:23.000Z</time></trkpt>
<trkpt lat="41.727146" lon="23.491869"><ele>2791.9</ele><time>2026-03-15T11:40:24.000Z</time></trkpt>
<trkpt lat="41.727146" lon="23.49187"><ele>2791.9</ele><time>2026-03-15T11:40:25.000Z</time></trkpt>
<trkpt lat="41.727146" lon="23.491871"><ele>2791.9</ele><time>2026-03-15T11:40:26.000Z</time></trkpt>
<trkpt lat="41.727147" lon="23.491871"><ele>2791.9</ele><time>2026-03-15T11:40:27.000Z</time></trkpt>
<trkpt lat="41.727147" lon="23.491871"><ele>2791.9</ele><time>2026-03-15T11:40:28.000Z</time></trkpt>
<trkpt lat="41.727148" lon="23.491871"><ele>2791.9</ele><time>2026-03-15T11:40:29.000Z</time></trkpt>
<trkpt lat="41.727148" lon="23.491869"><ele>2791.9</ele><time>2026-03-15T11:40:30.000Z</time></trkpt>
<trkpt lat="41.727149" lon="23.491868"><ele>2791.9</ele><time>2026-03-15T11:40:31.000Z</time></trkpt>
<trkpt lat="41.727149" lon="23.491867"><ele>2791.8</ele><time>2026-03-15T11:40:32.000Z</time></trkpt>
<trkpt lat="41.727149" lon="23.491866"><ele>2791.8</ele><time>2026-03-15T11:40:33.000Z</time></trkpt>
<trkpt lat="41.727149" lon="23.491866"><ele>2791.8</ele><time>2026-03-15T11:40:34.000Z</time></trkpt>
<trkpt lat="41.727149" lon="23.491866"><ele>2791.8</ele><time>2026-03-15T11:40:35.000Z</time></trkpt>
<trkpt lat="41.727149" lon="23.491866"><ele>2791.8</ele><time>2026-03-15T11:40:36.000Z</time></trkpt>
<trkpt lat="41.727149" lon="23.491866"><ele>2791.8</ele><time>2026-03-15T11:40:37.000Z</time></trkpt>
<trkpt lat="41.727149" lon="23.491866"><ele>2791.8</ele><time>2026-03-15T11:40:38.000Z</time></trkpt>
<trkpt lat="41.727149" lon="23.491866"><ele>2791.8</ele><time>2026-03-15T11:40:39.000Z</time></trkpt>
<trkpt lat="41.727149" lon="23.491866"><ele>2791.8</ele><time>2026-03-15T11:40:40.000Z</time></trkpt>
<trkpt lat="41.727149" lon="23.491866"><ele>2791.8</ele><time>2026-03-15T11:40:41.000Z</time></trkpt>
<trkpt lat="41.727149" lon="23.491866"><ele>2791.7</ele><time>2026-03-15T11:40:42.000Z</time></trkpt>
<trkpt lat="41.727149" lon="23.491866"><ele>2791.7</ele><time>2026-03-15T11:40:43.000Z</time></trkpt>
<trkpt lat="41.727149" lon="23.491866"><ele>2791.7</ele><time>2026-03-15T11:40:44.000Z</time></trkpt>
<trkpt lat="41.727149" lon="23.491866"><ele>2791.7</ele><time>2026-03-15T11:40:45.000Z</time></trkpt>
<trkpt lat="41.727149" lon="23.491866"><ele>2791.7</ele><time>2026-03-15T11:40:46.000Z</time></trkpt>
<trkpt lat="41.727149" lon="23.491866"><ele>2791.7</ele><time>2026-03-15T11:40:47.000Z</time></trkpt>
<trkpt lat="41.727149" lon="23.491866"><ele>2791.7</ele><time>2026-03-15T11:40:48.000Z</time></trkpt>
<trkpt lat="41.727149" lon="23.491866"><ele>2791.7</ele><time>2026-03-15T11:40:49.000Z</time></trkpt>
<trkpt lat="41.727149" lon="23.491866"><ele>2791.7</ele><time>2026-03-15T11:40:50.000Z</time></trkpt>
<trkpt lat="41.727149" lon="23.491866"><ele>2791.7</ele><time>2026-03-15T11:40:51.000Z</time></trkpt>
<trkpt lat="41.727149" lon="23.491866"><ele>2791.6</ele><time>2026-03-15T11:40:52.000Z</time></trkpt>
<trkpt lat="41.727149" lon="23.491866"><ele>2791.6</ele><time>2026-03-15T11:40:53.000Z</time></trkpt>
<trkpt lat="41.727149" lon="23.491866"><ele>2791.6</ele><time>2026-03-15T11:40:54.000Z</time></trkpt>
<trkpt lat="41.727149" lon="23.491865"><ele>2791.6</ele><time>2026-03-15T11:40:55.000Z</time></trkpt>
<trkpt lat="41.727149" lon="23.491864"><ele>2791.6</ele><time>2026-03-15T11:40:56.000Z</time></trkpt>
<trkpt lat="41.727149" lon="23.491863"><ele>2791.5</ele><time>2026-03-15T11:40:57.000Z</time></trkpt>
<trkpt lat="41.727149" lon="23.491861"><ele>2791.5</ele><time>2026-03-15T11:40:58.000Z</time></trkpt>
<trkpt lat="41.727148" lon="23.491859"><ele>2791.5</ele><time>2026-03-15T11:40:59.000Z</time></trkpt>
<trkpt lat="41.727148" lon="23.491857"><ele>2791.5</ele><time>2026-03-15T11:41:00.000Z</time></trkpt>
<trkpt lat="41.727148" lon="23.491856"><ele>2791.5</ele><time>2026-03-15T11:41:01.000Z</time></trkpt>
<trkpt lat="41.727147" lon="23.491855"><ele>2791.5</ele><time>2026-03-15T11:41:02.000Z</time></trkpt>
<trkpt lat="41.727146" lon="23.491856"><ele>2791.5</ele><time>2026-03-15T11:41:03.000Z</time></trkpt>
<trkpt lat="41.727145" lon="23.491856"><ele>2791.5</ele><time>2026-03-15T11:41:04.000Z</time></trkpt>
<trkpt lat="41.727144" lon="23.491857"><ele>2791.5</ele><time>2026-03-15T11:41:05.000Z</time></trkpt>
<trkpt lat="41.727143" lon="23.491857"><ele>2791.5</ele><time>2026-03-15T11:41:06.000Z</time></trkpt>
<trkpt lat="41.727143" lon="23.491857"><ele>2791.4</ele><time>2026-03-15T11:41:07.000Z</time></trkpt>
<trkpt lat="41.727143" lon="23.491858"><ele>2791.4</ele><time>2026-03-15T11:41:08.000Z</time></trkpt>
<trkpt lat="41.727143" lon="23.491858"><ele>2791.4</ele><time>2026-03-15T11:41:09.000Z</time></trkpt>
<trkpt lat="41.727143" lon="23.491858"><ele>2791.4</ele><time>2026-03-15T11:41:10.000Z</time></trkpt>
<trkpt lat="41.727143" lon="23.491858"><ele>2791.4</ele><time>2026-03-15T11:41:11.000Z</time></trkpt>
<trkpt lat="41.727143" lon="23.491858"><ele>2791.4</ele><time>2026-03-15T11:41:12.000Z</time></trkpt>
<trkpt lat="41.727143" lon="23.491858"><ele>2791.4</ele><time>2026-03-15T11:41:13.000Z</time></trkpt>
<trkpt lat="41.727143" lon="23.491858"><ele>2791.4</ele><time>2026-03-15T11:41:14.000Z</time></trkpt>
<trkpt lat="41.727143" lon="23.491858"><ele>2791.4</ele><time>2026-03-15T11:41:15.000Z</time></trkpt>
<trkpt lat="41.727143" lon="23.491858"><ele>2791.4</ele><time>2026-03-15T11:41:16.000Z</time></trkpt>
<trkpt lat="41.727143" lon="23.491858"><ele>2791.3</ele><time>2026-03-15T11:41:17.000Z</time></trkpt>
<trkpt lat="41.727143" lon="23.491858"><ele>2791.3</ele><time>2026-03-15T11:41:18.000Z</time></trkpt>
<trkpt lat="41.727143" lon="23.491858"><ele>2791.3</ele><time>2026-03-15T11:41:19.000Z</time></trkpt>
<trkpt lat="41.727143" lon="23.491858"><ele>2791.3</ele><time>2026-03-15T11:41:20.000Z</time></trkpt>
<trkpt lat="41.727143" lon="23.491858"><ele>2791.3</ele><time>2026-03-15T11:41:21.000Z</time></trkpt>
<trkpt lat="41.727143" lon="23.491858"><ele>2791.2</ele><time>2026-03-15T11:41:22.000Z</time></trkpt>
<trkpt lat="41.727143" lon="23.491858"><ele>2791.2</ele><time>2026-03-15T11:41:23.000Z</time></trkpt>
<trkpt lat="41.727143" lon="23.491858"><ele>2791.2</ele><time>2026-03-15T11:41:24.000Z</time></trkpt>
<trkpt lat="41.727143" lon="23.491858"><ele>2791.2</ele><time>2026-03-15T11:41:25.000Z</time></trkpt>
<trkpt lat="41.727143" lon="23.491858"><ele>2791.2</ele><time>2026-03-15T11:41:26.000Z</time></trkpt>
<trkpt lat="41.727143" lon="23.491858"><ele>2791.1</ele><time>2026-03-15T11:41:27.000Z</time></trkpt>
<trkpt lat="41.727143" lon="23.491858"><ele>2791.1</ele><time>2026-03-15T11:41:28.000Z</time></trkpt>
<trkpt lat="41.727143" lon="23.491858"><ele>2791.1</ele><time>2026-03-15T11:41:29.000Z</time></trkpt>
<trkpt lat="41.727143" lon="23.491858"><ele>2791.1</ele><time>2026-03-15T11:41:30.000Z</time></trkpt>
<trkpt lat="41.727143" lon="23.491858"><ele>2791.1</ele><time>2026-03-15T11:41:31.000Z</time></trkpt>
<trkpt lat="41.727143" lon="23.491858"><ele>2791.1</ele><time>2026-03-15T11:41:32.000Z</time></trkpt>
<trkpt lat="41.727143" lon="23.491858"><ele>2791.1</ele><time>2026-03-15T11:41:33.000Z</time></trkpt>
<trkpt lat="41.727143" lon="23.491857"><ele>2791.1</ele><time>2026-03-15T11:41:34.000Z</time></trkpt>
<trkpt lat="41.727142" lon="23.491857"><ele>2791.1</ele><time>2026-03-15T11:41:35.000Z</time></trkpt>
<trkpt lat="41.727142" lon="23.491856"><ele>2791.1</ele><time>2026-03-15T11:41:36.000Z</time></trkpt>
<trkpt lat="41.727142" lon="23.491856"><ele>2790.9</ele><time>2026-03-15T11:41:37.000Z</time></trkpt>
<trkpt lat="41.727142" lon="23.491855"><ele>2790.9</ele><time>2026-03-15T11:41:38.000Z</time></trkpt>
<trkpt lat="41.727141" lon="23.491855"><ele>2790.9</ele><time>2026-03-15T11:41:39.000Z</time></trkpt>
<trkpt lat="41.727141" lon="23.491856"><ele>2790.9</ele><time>2026-03-15T11:41:40.000Z</time></trkpt>
<trkpt lat="41.72714" lon="23.491857"><ele>2790.9</ele><time>2026-03-15T11:41:41.000Z</time></trkpt>
<trkpt lat="41.72714" lon="23.491858"><ele>2790.9</ele><time>2026-03-15T11:41:42.000Z</time></trkpt>
<trkpt lat="41.727139" lon="23.491859"><ele>2790.9</ele><time>2026-03-15T11:41:43.000Z</time></trkpt>
<trkpt lat="41.72714" lon="23.491859"><ele>2790.9</ele><time>2026-03-15T11:41:44.000Z</time></trkpt>
<trkpt lat="41.72714" lon="23.491859"><ele>2790.9</ele><time>2026-03-15T11:41:45.000Z</time></trkpt>
<trkpt lat="41.72714" lon="23.491859"><ele>2790.9</ele><time>2026-03-15T11:41:46.000Z</time></trkpt>
<trkpt lat="41.72714" lon="23.491859"><ele>2791</ele><time>2026-03-15T11:41:47.000Z</time></trkpt>
<trkpt lat="41.72714" lon="23.491859"><ele>2791</ele><time>2026-03-15T11:41:48.000Z</time></trkpt>
<trkpt lat="41.727139" lon="23.491859"><ele>2791</ele><time>2026-03-15T11:41:49.000Z</time></trkpt>
<trkpt lat="41.727139" lon="23.491859"><ele>2791</ele><time>2026-03-15T11:41:50.000Z</time></trkpt>
<trkpt lat="41.727138" lon="23.491859"><ele>2791</ele><time>2026-03-15T11:41:51.000Z</time></trkpt>
<trkpt lat="41.727138" lon="23.49186"><ele>2791.4</ele><time>2026-03-15T11:41:52.000Z</time></trkpt>
<trkpt lat="41.727138" lon="23.49186"><ele>2791.4</ele><time>2026-03-15T11:41:53.000Z</time></trkpt>
<trkpt lat="41.727138" lon="23.49186"><ele>2791.4</ele><time>2026-03-15T11:41:54.000Z</time></trkpt>
<trkpt lat="41.727138" lon="23.49186"><ele>2791.4</ele><time>2026-03-15T11:41:55.000Z</time></trkpt>
<trkpt lat="41.727138" lon="23.49186"><ele>2791.4</ele><time>2026-03-15T11:41:56.000Z</time></trkpt>
<trkpt lat="41.727139" lon="23.491861"><ele>2791.9</ele><time>2026-03-15T11:41:57.000Z</time></trkpt>
<trkpt lat="41.727139" lon="23.491862"><ele>2791.9</ele><time>2026-03-15T11:41:58.000Z</time></trkpt>
<trkpt lat="41.72714" lon="23.491862"><ele>2791.9</ele><time>2026-03-15T11:41:59.000Z</time></trkpt>
<trkpt lat="41.72714" lon="23.491863"><ele>2791.9</ele><time>2026-03-15T11:42:00.000Z</time></trkpt>
<trkpt lat="41.72714" lon="23.491864"><ele>2791.9</ele><time>2026-03-15T11:42:01.000Z</time></trkpt>
<trkpt lat="41.72714" lon="23.491864"><ele>2792</ele><time>2026-03-15T11:42:02.000Z</time></trkpt>
<trkpt lat="41.72714" lon="23.491865"><ele>2792</ele><time>2026-03-15T11:42:03.000Z</time></trkpt>
<trkpt lat="41.727139" lon="23.491865"><ele>2792</ele><time>2026-03-15T11:42:04.000Z</time></trkpt>
<trkpt lat="41.727139" lon="23.491865"><ele>2792</ele><time>2026-03-15T11:42:05.000Z</time></trkpt>
<trkpt lat="41.727139" lon="23.491864"><ele>2792</ele><time>2026-03-15T11:42:06.000Z</time></trkpt>
<trkpt lat="41.727139" lon="23.491864"><ele>2792.2</ele><time>2026-03-15T11:42:07.000Z</time></trkpt>
<trkpt lat="41.727138" lon="23.491864"><ele>2792.2</ele><time>2026-03-15T11:42:08.000Z</time></trkpt>
<trkpt lat="41.727138" lon="23.491864"><ele>2792.2</ele><time>2026-03-15T11:42:09.000Z</time></trkpt>
<trkpt lat="41.727138" lon="23.491864"><ele>2792.2</ele><time>2026-03-15T11:42:10.000Z</time></trkpt>
<trkpt lat="41.727139" lon="23.491865"><ele>2792.2</ele><time>2026-03-15T11:42:11.000Z</time></trkpt>
<trkpt lat="41.727139" lon="23.491865"><ele>2792.3</ele><time>2026-03-15T11:42:12.000Z</time></trkpt>
<trkpt lat="41.727139" lon="23.491866"><ele>2792.3</ele><time>2026-03-15T11:42:13.000Z</time></trkpt>
<trkpt lat="41.727139" lon="23.491866"><ele>2792.3</ele><time>2026-03-15T11:42:14.000Z</time></trkpt>
<trkpt lat="41.727139" lon="23.491866"><ele>2792.3</ele><time>2026-03-15T11:42:15.000Z</time></trkpt>
<trkpt lat="41.727139" lon="23.491866"><ele>2792.3</ele><time>2026-03-15T11:42:16.000Z</time></trkpt>
<trkpt lat="41.727139" lon="23.491865"><ele>2792.3</ele><time>2026-03-15T11:42:17.000Z</time></trkpt>
<trkpt lat="41.727139" lon="23.491865"><ele>2792.3</ele><time>2026-03-15T11:42:18.000Z</time></trkpt>
<trkpt lat="41.727138" lon="23.491864"><ele>2792.3</ele><time>2026-03-15T11:42:19.000Z</time></trkpt>
<trkpt lat="41.727138" lon="23.491863"><ele>2792.3</ele><time>2026-03-15T11:42:20.000Z</time></trkpt>
<trkpt lat="41.727138" lon="23.491863"><ele>2792.3</ele><time>2026-03-15T11:42:21.000Z</time></trkpt>
<trkpt lat="41.727138" lon="23.491863"><ele>2792.3</ele><time>2026-03-15T11:42:22.000Z</time></trkpt>
<trkpt lat="41.727138" lon="23.491862"><ele>2792.3</ele><time>2026-03-15T11:42:23.000Z</time></trkpt>
<trkpt lat="41.727138" lon="23.491862"><ele>2792.3</ele><time>2026-03-15T11:42:24.000Z</time></trkpt>
<trkpt lat="41.727138" lon="23.491862"><ele>2792.3</ele><time>2026-03-15T11:42:25.000Z</time></trkpt>
<trkpt lat="41.727138" lon="23.491862"><ele>2792.3</ele><time>2026-03-15T11:42:26.000Z</time></trkpt>
<trkpt lat="41.727138" lon="23.491862"><ele>2792.1</ele><time>2026-03-15T11:42:27.000Z</time></trkpt>
<trkpt lat="41.727138" lon="23.491862"><ele>2792.1</ele><time>2026-03-15T11:42:28.000Z</time></trkpt>
<trkpt lat="41.727139" lon="23.491862"><ele>2792.1</ele><time>2026-03-15T11:42:29.000Z</time></trkpt>
<trkpt lat="41.727139" lon="23.491863"><ele>2792.1</ele><time>2026-03-15T11:42:30.000Z</time></trkpt>
<trkpt lat="41.727139" lon="23.491863"><ele>2792.1</ele><time>2026-03-15T11:42:31.000Z</time></trkpt>
<trkpt lat="41.727139" lon="23.491863"><ele>2791.9</ele><time>2026-03-15T11:42:32.000Z</time></trkpt>
<trkpt lat="41.727139" lon="23.491864"><ele>2791.9</ele><time>2026-03-15T11:42:33.000Z</time></trkpt>
<trkpt lat="41.727139" lon="23.491864"><ele>2791.9</ele><time>2026-03-15T11:42:34.000Z</time></trkpt>
<trkpt lat="41.72714" lon="23.491863"><ele>2791.9</ele><time>2026-03-15T11:42:35.000Z</time></trkpt>
<trkpt lat="41.72714" lon="23.491863"><ele>2791.9</ele><time>2026-03-15T11:42:36.000Z</time></trkpt>
<trkpt lat="41.72714" lon="23.491863"><ele>2791.7</ele><time>2026-03-15T11:42:37.000Z</time></trkpt>
<trkpt lat="41.72714" lon="23.491863"><ele>2791.7</ele><time>2026-03-15T11:42:38.000Z</time></trkpt>
<trkpt lat="41.72714" lon="23.491863"><ele>2791.7</ele><time>2026-03-15T11:42:39.000Z</time></trkpt>
<trkpt lat="41.72714" lon="23.491863"><ele>2791.7</ele><time>2026-03-15T11:42:40.000Z</time></trkpt>
<trkpt lat="41.72714" lon="23.491863"><ele>2791.7</ele><time>2026-03-15T11:42:41.000Z</time></trkpt>
<trkpt lat="41.727139" lon="23.491865"><ele>2791.8</ele><time>2026-03-15T11:42:42.000Z</time></trkpt>
<trkpt lat="41.727139" lon="23.491867"><ele>2791.8</ele><time>2026-03-15T11:42:43.000Z</time></trkpt>
<trkpt lat="41.727139" lon="23.491869"><ele>2791.8</ele><time>2026-03-15T11:42:44.000Z</time></trkpt>
<trkpt lat="41.727139" lon="23.491872"><ele>2791.8</ele><time>2026-03-15T11:42:45.000Z</time></trkpt>
<trkpt lat="41.727139" lon="23.491874"><ele>2791.8</ele><time>2026-03-15T11:42:46.000Z</time></trkpt>
<trkpt lat="41.727139" lon="23.491874"><ele>2791.9</ele><time>2026-03-15T11:42:47.000Z</time></trkpt>
<trkpt lat="41.727139" lon="23.491874"><ele>2791.9</ele><time>2026-03-15T11:42:48.000Z</time></trkpt>
<trkpt lat="41.727139" lon="23.491873"><ele>2791.9</ele><time>2026-03-15T11:42:49.000Z</time></trkpt>
<trkpt lat="41.72714" lon="23.491872"><ele>2791.9</ele><time>2026-03-15T11:42:50.000Z</time></trkpt>
<trkpt lat="41.72714" lon="23.491871"><ele>2791.9</ele><time>2026-03-15T11:42:51.000Z</time></trkpt>
<trkpt lat="41.727141" lon="23.49187"><ele>2792.1</ele><time>2026-03-15T11:42:52.000Z</time></trkpt>
<trkpt lat="41.727141" lon="23.491871"><ele>2792.1</ele><time>2026-03-15T11:42:53.000Z</time></trkpt>
<trkpt lat="41.727141" lon="23.491872"><ele>2792.1</ele><time>2026-03-15T11:42:54.000Z</time></trkpt>
<trkpt lat="41.72714" lon="23.491874"><ele>2792.1</ele><time>2026-03-15T11:42:55.000Z</time></trkpt>
<trkpt lat="41.72714" lon="23.491876"><ele>2792.1</ele><time>2026-03-15T11:42:56.000Z</time></trkpt>
<trkpt lat="41.727139" lon="23.491877"><ele>2792.2</ele><time>2026-03-15T11:42:57.000Z</time></trkpt>
<trkpt lat="41.727139" lon="23.491878"><ele>2792.2</ele><time>2026-03-15T11:42:58.000Z</time></trkpt>
<trkpt lat="41.727139" lon="23.491879"><ele>2792.2</ele><time>2026-03-15T11:42:59.000Z</time></trkpt>
<trkpt lat="41.727138" lon="23.49188"><ele>2792.2</ele><time>2026-03-15T11:43:00.000Z</time></trkpt>
<trkpt lat="41.727138" lon="23.49188"><ele>2792.2</ele><time>2026-03-15T11:43:01.000Z</time></trkpt>
<trkpt lat="41.727138" lon="23.49188"><ele>2792.2</ele><time>2026-03-15T11:43:02.000Z</time></trkpt>
<trkpt lat="41.727138" lon="23.49188"><ele>2792.2</ele><time>2026-03-15T11:43:03.000Z</time></trkpt>
<trkpt lat="41.727137" lon="23.491879"><ele>2792.2</ele><time>2026-03-15T11:43:04.000Z</time></trkpt>
<trkpt lat="41.727137" lon="23.491879"><ele>2792.2</ele><time>2026-03-15T11:43:05.000Z</time></trkpt>
<trkpt lat="41.727137" lon="23.491879"><ele>2792.2</ele><time>2026-03-15T11:43:06.000Z</time></trkpt>
<trkpt lat="41.727137" lon="23.491879"><ele>2792.2</ele><time>2026-03-15T11:43:07.000Z</time></trkpt>
<trkpt lat="41.727137" lon="23.491879"><ele>2792.2</ele><time>2026-03-15T11:43:08.000Z</time></trkpt>
<trkpt lat="41.727136" lon="23.491878"><ele>2792.2</ele><time>2026-03-15T11:43:09.000Z</time></trkpt>
<trkpt lat="41.727135" lon="23.491877"><ele>2792.2</ele><time>2026-03-15T11:43:10.000Z</time></trkpt>
<trkpt lat="41.727133" lon="23.491876"><ele>2792.2</ele><time>2026-03-15T11:43:11.000Z</time></trkpt>
<trkpt lat="41.727131" lon="23.491875"><ele>2792.2</ele><time>2026-03-15T11:43:12.000Z</time></trkpt>
<trkpt lat="41.72713" lon="23.491875"><ele>2792.2</ele><time>2026-03-15T11:43:13.000Z</time></trkpt>
<trkpt lat="41.727129" lon="23.491874"><ele>2792.2</ele><time>2026-03-15T11:43:14.000Z</time></trkpt>
<trkpt lat="41.727129" lon="23.491873"><ele>2792.2</ele><time>2026-03-15T11:43:15.000Z</time></trkpt>
<trkpt lat="41.727129" lon="23.491872"><ele>2792.2</ele><time>2026-03-15T11:43:16.000Z</time></trkpt>
<trkpt lat="41.72713" lon="23.491872"><ele>2792.2</ele><time>2026-03-15T11:43:17.000Z</time></trkpt>
<trkpt lat="41.72713" lon="23.491871"><ele>2792.2</ele><time>2026-03-15T11:43:18.000Z</time></trkpt>
<trkpt lat="41.727131" lon="23.491871"><ele>2792.2</ele><time>2026-03-15T11:43:19.000Z</time></trkpt>
<trkpt lat="41.727131" lon="23.491872"><ele>2792.2</ele><time>2026-03-15T11:43:20.000Z</time></trkpt>
<trkpt lat="41.727131" lon="23.491873"><ele>2792.2</ele><time>2026-03-15T11:43:21.000Z</time></trkpt>
<trkpt lat="41.727131" lon="23.491874"><ele>2792.2</ele><time>2026-03-15T11:43:22.000Z</time></trkpt>
<trkpt lat="41.727132" lon="23.491875"><ele>2792.2</ele><time>2026-03-15T11:43:23.000Z</time></trkpt>
<trkpt lat="41.727132" lon="23.491876"><ele>2792.2</ele><time>2026-03-15T11:43:24.000Z</time></trkpt>
<trkpt lat="41.727133" lon="23.491877"><ele>2792.2</ele><time>2026-03-15T11:43:25.000Z</time></trkpt>
<trkpt lat="41.727134" lon="23.491877"><ele>2792.2</ele><time>2026-03-15T11:43:26.000Z</time></trkpt>
<trkpt lat="41.727135" lon="23.491877"><ele>2792.2</ele><time>2026-03-15T11:43:27.000Z</time></trkpt>
<trkpt lat="41.727135" lon="23.491876"><ele>2792.2</ele><time>2026-03-15T11:43:28.000Z</time></trkpt>
<trkpt lat="41.727135" lon="23.491876"><ele>2792.2</ele><time>2026-03-15T11:43:29.000Z</time></trkpt>
<trkpt lat="41.727135" lon="23.491875"><ele>2792.2</ele><time>2026-03-15T11:43:30.000Z</time></trkpt>
<trkpt lat="41.727136" lon="23.491873"><ele>2792.2</ele><time>2026-03-15T11:43:31.000Z</time></trkpt>
<trkpt lat="41.727136" lon="23.491873"><ele>2792.3</ele><time>2026-03-15T11:43:32.000Z</time></trkpt>
<trkpt lat="41.727137" lon="23.491872"><ele>2792.3</ele><time>2026-03-15T11:43:33.000Z</time></trkpt>
<trkpt lat="41.727137" lon="23.491872"><ele>2792.3</ele><time>2026-03-15T11:43:34.000Z</time></trkpt>
<trkpt lat="41.727138" lon="23.491872"><ele>2792.3</ele><time>2026-03-15T11:43:35.000Z</time></trkpt>
<trkpt lat="41.727137" lon="23.491874"><ele>2792.3</ele><time>2026-03-15T11:43:36.000Z</time></trkpt>
<trkpt lat="41.727136" lon="23.491875"><ele>2792.5</ele><time>2026-03-15T11:43:37.000Z</time></trkpt>
<trkpt lat="41.727136" lon="23.491875"><ele>2792.5</ele><time>2026-03-15T11:43:38.000Z</time></trkpt>
<trkpt lat="41.727136" lon="23.491877"><ele>2792.5</ele><time>2026-03-15T11:43:39.000Z</time></trkpt>
<trkpt lat="41.727134" lon="23.491878"><ele>2792.5</ele><time>2026-03-15T11:43:40.000Z</time></trkpt>
<trkpt lat="41.727134" lon="23.491878"><ele>2792.5</ele><time>2026-03-15T11:43:41.000Z</time></trkpt>
<trkpt lat="41.727134" lon="23.491879"><ele>2792.5</ele><time>2026-03-15T11:43:42.000Z</time></trkpt>
<trkpt lat="41.727134" lon="23.491879"><ele>2792.5</ele><time>2026-03-15T11:43:43.000Z</time></trkpt>
<trkpt lat="41.727134" lon="23.491879"><ele>2792.5</ele><time>2026-03-15T11:43:44.000Z</time></trkpt>
<trkpt lat="41.727135" lon="23.491879"><ele>2792.5</ele><time>2026-03-15T11:43:45.000Z</time></trkpt>
<trkpt lat="41.727135" lon="23.491879"><ele>2792.5</ele><time>2026-03-15T11:43:46.000Z</time></trkpt>
<trkpt lat="41.727135" lon="23.491879"><ele>2792.4</ele><time>2026-03-15T11:43:47.000Z</time></trkpt>
<trkpt lat="41.727135" lon="23.491879"><ele>2792.4</ele><time>2026-03-15T11:43:48.000Z</time></trkpt>
<trkpt lat="41.727135" lon="23.491879"><ele>2792.4</ele><time>2026-03-15T11:43:49.000Z</time></trkpt>
<trkpt lat="41.727135" lon="23.491879"><ele>2792.4</ele><time>2026-03-15T11:43:50.000Z</time></trkpt>
<trkpt lat="41.727135" lon="23.491879"><ele>2792.4</ele><time>2026-03-15T11:43:51.000Z</time></trkpt>
<trkpt lat="41.727135" lon="23.491879"><ele>2792.2</ele><time>2026-03-15T11:43:52.000Z</time></trkpt>
<trkpt lat="41.727135" lon="23.491879"><ele>2792.2</ele><time>2026-03-15T11:43:53.000Z</time></trkpt>
<trkpt lat="41.727135" lon="23.49188"><ele>2792.2</ele><time>2026-03-15T11:43:54.000Z</time></trkpt>
<trkpt lat="41.727134" lon="23.49188"><ele>2792.2</ele><time>2026-03-15T11:43:55.000Z</time></trkpt>
<trkpt lat="41.727133" lon="23.491879"><ele>2792.2</ele><time>2026-03-15T11:43:56.000Z</time></trkpt>
<trkpt lat="41.727132" lon="23.491879"><ele>2792.1</ele><time>2026-03-15T11:43:57.000Z</time></trkpt>
<trkpt lat="41.727131" lon="23.491879"><ele>2792.1</ele><time>2026-03-15T11:43:58.000Z</time></trkpt>
<trkpt lat="41.727131" lon="23.491878"><ele>2792.1</ele><time>2026-03-15T11:43:59.000Z</time></trkpt>
<trkpt lat="41.72713" lon="23.491878"><ele>2792.1</ele><time>2026-03-15T11:44:00.000Z</time></trkpt>
<trkpt lat="41.72713" lon="23.491878"><ele>2792.1</ele><time>2026-03-15T11:44:01.000Z</time></trkpt>
<trkpt lat="41.72713" lon="23.491878"><ele>2792.2</ele><time>2026-03-15T11:44:02.000Z</time></trkpt>
<trkpt lat="41.72713" lon="23.491878"><ele>2792.2</ele><time>2026-03-15T11:44:03.000Z</time></trkpt>
<trkpt lat="41.727129" lon="23.491878"><ele>2792.2</ele><time>2026-03-15T11:44:04.000Z</time></trkpt>
<trkpt lat="41.727126" lon="23.491879"><ele>2792.2</ele><time>2026-03-15T11:44:05.000Z</time></trkpt>
<trkpt lat="41.727122" lon="23.49188"><ele>2792.2</ele><time>2026-03-15T11:44:06.000Z</time></trkpt>
<trkpt lat="41.727118" lon="23.49188"><ele>2792.2</ele><time>2026-03-15T11:44:07.000Z</time></trkpt>
<trkpt lat="41.727114" lon="23.491879"><ele>2792.2</ele><time>2026-03-15T11:44:08.000Z</time></trkpt>
<trkpt lat="41.727111" lon="23.491879"><ele>2792.2</ele><time>2026-03-15T11:44:09.000Z</time></trkpt>
<trkpt lat="41.727109" lon="23.491876"><ele>2792.2</ele><time>2026-03-15T11:44:10.000Z</time></trkpt>
<trkpt lat="41.727106" lon="23.491873"><ele>2792.2</ele><time>2026-03-15T11:44:11.000Z</time></trkpt>
<trkpt lat="41.727104" lon="23.491869"><ele>2792.1</ele><time>2026-03-15T11:44:12.000Z</time></trkpt>
<trkpt lat="41.727102" lon="23.491866"><ele>2792.1</ele><time>2026-03-15T11:44:13.000Z</time></trkpt>
<trkpt lat="41.727101" lon="23.491864"><ele>2792.1</ele><time>2026-03-15T11:44:14.000Z</time></trkpt>
<trkpt lat="41.727099" lon="23.491862"><ele>2792.1</ele><time>2026-03-15T11:44:15.000Z</time></trkpt>
<trkpt lat="41.727098" lon="23.491861"><ele>2792.1</ele><time>2026-03-15T11:44:16.000Z</time></trkpt>
<trkpt lat="41.727098" lon="23.491861"><ele>2792.1</ele><time>2026-03-15T11:44:17.000Z</time></trkpt>
<trkpt lat="41.727097" lon="23.491861"><ele>2792.1</ele><time>2026-03-15T11:44:18.000Z</time></trkpt>
<trkpt lat="41.727095" lon="23.49186"><ele>2792.1</ele><time>2026-03-15T11:44:19.000Z</time></trkpt>
<trkpt lat="41.727094" lon="23.49186"><ele>2792.1</ele><time>2026-03-15T11:44:20.000Z</time></trkpt>
<trkpt lat="41.727093" lon="23.49186"><ele>2792.1</ele><time>2026-03-15T11:44:21.000Z</time></trkpt>
<trkpt lat="41.727091" lon="23.49186"><ele>2792</ele><time>2026-03-15T11:44:22.000Z</time></trkpt>
<trkpt lat="41.727089" lon="23.49186"><ele>2792</ele><time>2026-03-15T11:44:23.000Z</time></trkpt>
<trkpt lat="41.727088" lon="23.49186"><ele>2792</ele><time>2026-03-15T11:44:24.000Z</time></trkpt>
<trkpt lat="41.727085" lon="23.491861"><ele>2792</ele><time>2026-03-15T11:44:25.000Z</time></trkpt>
<trkpt lat="41.727083" lon="23.491862"><ele>2792</ele><time>2026-03-15T11:44:26.000Z</time></trkpt>
<trkpt lat="41.727081" lon="23.491864"><ele>2792</ele><time>2026-03-15T11:44:27.000Z</time></trkpt>
<trkpt lat="41.72708" lon="23.491866"><ele>2792</ele><time>2026-03-15T11:44:28.000Z</time></trkpt>
<trkpt lat="41.727079" lon="23.491867"><ele>2792</ele><time>2026-03-15T11:44:29.000Z</time></trkpt>
<trkpt lat="41.727079" lon="23.491869"><ele>2792</ele><time>2026-03-15T11:44:30.000Z</time></trkpt>
<trkpt lat="41.727079" lon="23.491869"><ele>2792</ele><time>2026-03-15T11:44:31.000Z</time></trkpt>
<trkpt lat="41.727079" lon="23.49187"><ele>2792.1</ele><time>2026-03-15T11:44:32.000Z</time></trkpt>
<trkpt lat="41.727079" lon="23.49187"><ele>2792.1</ele><time>2026-03-15T11:44:33.000Z</time></trkpt>
<trkpt lat="41.727079" lon="23.49187"><ele>2792.1</ele><time>2026-03-15T11:44:34.000Z</time></trkpt>
<trkpt lat="41.727079" lon="23.491869"><ele>2792.1</ele><time>2026-03-15T11:44:35.000Z</time></trkpt>
<trkpt lat="41.727079" lon="23.491869"><ele>2792.1</ele><time>2026-03-15T11:44:36.000Z</time></trkpt>
<trkpt lat="41.727079" lon="23.491868"><ele>2792.2</ele><time>2026-03-15T11:44:37.000Z</time></trkpt>
<trkpt lat="41.727079" lon="23.491867"><ele>2792.2</ele><time>2026-03-15T11:44:38.000Z</time></trkpt>
<trkpt lat="41.727079" lon="23.491867"><ele>2792.2</ele><time>2026-03-15T11:44:39.000Z</time></trkpt>
<trkpt lat="41.727079" lon="23.491867"><ele>2792.2</ele><time>2026-03-15T11:44:40.000Z</time></trkpt>
<trkpt lat="41.727079" lon="23.491868"><ele>2792.2</ele><time>2026-03-15T11:44:41.000Z</time></trkpt>
<trkpt lat="41.727079" lon="23.491868"><ele>2792.4</ele><time>2026-03-15T11:44:42.000Z</time></trkpt>
<trkpt lat="41.727078" lon="23.491869"><ele>2792.4</ele><time>2026-03-15T11:44:43.000Z</time></trkpt>
<trkpt lat="41.727078" lon="23.49187"><ele>2792.4</ele><time>2026-03-15T11:44:44.000Z</time></trkpt>
<trkpt lat="41.727077" lon="23.49187"><ele>2792.4</ele><time>2026-03-15T11:44:45.000Z</time></trkpt>
<trkpt lat="41.727077" lon="23.49187"><ele>2792.4</ele><time>2026-03-15T11:44:46.000Z</time></trkpt>
<trkpt lat="41.727077" lon="23.49187"><ele>2792.5</ele><time>2026-03-15T11:44:47.000Z</time></trkpt>
<trkpt lat="41.727077" lon="23.49187"><ele>2792.5</ele><time>2026-03-15T11:44:48.000Z</time></trkpt>
<trkpt lat="41.727077" lon="23.49187"><ele>2792.5</ele><time>2026-03-15T11:44:49.000Z</time></trkpt>
<trkpt lat="41.727077" lon="23.49187"><ele>2792.5</ele><time>2026-03-15T11:44:50.000Z</time></trkpt>
<trkpt lat="41.727077" lon="23.49187"><ele>2792.5</ele><time>2026-03-15T11:44:51.000Z</time></trkpt>
<trkpt lat="41.727077" lon="23.49187"><ele>2792.7</ele><time>2026-03-15T11:44:52.000Z</time></trkpt>
<trkpt lat="41.727077" lon="23.49187"><ele>2792.7</ele><time>2026-03-15T11:44:53.000Z</time></trkpt>
<trkpt lat="41.727076" lon="23.491869"><ele>2792.7</ele><time>2026-03-15T11:44:54.000Z</time></trkpt>
<trkpt lat="41.727075" lon="23.491869"><ele>2792.7</ele><time>2026-03-15T11:44:55.000Z</time></trkpt>
<trkpt lat="41.727074" lon="23.491868"><ele>2792.7</ele><time>2026-03-15T11:44:56.000Z</time></trkpt>
<trkpt lat="41.727072" lon="23.491868"><ele>2792.7</ele><time>2026-03-15T11:44:57.000Z</time></trkpt>
<trkpt lat="41.72707" lon="23.491867"><ele>2792.7</ele><time>2026-03-15T11:44:58.000Z</time></trkpt>
<trkpt lat="41.727068" lon="23.491868"><ele>2792.7</ele><time>2026-03-15T11:44:59.000Z</time></trkpt>
<trkpt lat="41.727066" lon="23.491868"><ele>2792.7</ele><time>2026-03-15T11:45:00.000Z</time></trkpt>
<trkpt lat="41.727063" lon="23.491869"><ele>2792.7</ele><time>2026-03-15T11:45:01.000Z</time></trkpt>
<trkpt lat="41.72706" lon="23.49187"><ele>2792.7</ele><time>2026-03-15T11:45:02.000Z</time></trkpt>
<trkpt lat="41.727057" lon="23.491872"><ele>2792.7</ele><time>2026-03-15T11:45:03.000Z</time></trkpt>
<trkpt lat="41.727054" lon="23.491874"><ele>2792.7</ele><time>2026-03-15T11:45:04.000Z</time></trkpt>
<trkpt lat="41.727052" lon="23.491876"><ele>2792.7</ele><time>2026-03-15T11:45:05.000Z</time></trkpt>
<trkpt lat="41.727049" lon="23.491878"><ele>2792.7</ele><time>2026-03-15T11:45:06.000Z</time></trkpt>
<trkpt lat="41.727047" lon="23.49188"><ele>2792.5</ele><time>2026-03-15T11:45:07.000Z</time></trkpt>
<trkpt lat="41.727044" lon="23.491881"><ele>2792.5</ele><time>2026-03-15T11:45:08.000Z</time></trkpt>
<trkpt lat="41.727042" lon="23.491882"><ele>2792.5</ele><time>2026-03-15T11:45:09.000Z</time></trkpt>
<trkpt lat="41.72704" lon="23.491882"><ele>2792.5</ele><time>2026-03-15T11:45:10.000Z</time></trkpt>
<trkpt lat="41.727039" lon="23.491882"><ele>2792.5</ele><time>2026-03-15T11:45:11.000Z</time></trkpt>
<trkpt lat="41.727038" lon="23.491883"><ele>2792.3</ele><time>2026-03-15T11:45:12.000Z</time></trkpt>
<trkpt lat="41.727037" lon="23.491883"><ele>2792.3</ele><time>2026-03-15T11:45:13.000Z</time></trkpt>
<trkpt lat="41.727037" lon="23.491882"><ele>2792.3</ele><time>2026-03-15T11:45:14.000Z</time></trkpt>
<trkpt lat="41.727036" lon="23.491882"><ele>2792.3</ele><time>2026-03-15T11:45:15.000Z</time></trkpt>
<trkpt lat="41.727035" lon="23.491882"><ele>2792.3</ele><time>2026-03-15T11:45:16.000Z</time></trkpt>
<trkpt lat="41.727034" lon="23.491882"><ele>2792.2</ele><time>2026-03-15T11:45:17.000Z</time></trkpt>
<trkpt lat="41.727032" lon="23.491883"><ele>2792.2</ele><time>2026-03-15T11:45:18.000Z</time></trkpt>
<trkpt lat="41.72703" lon="23.491885"><ele>2792.2</ele><time>2026-03-15T11:45:19.000Z</time></trkpt>
<trkpt lat="41.727028" lon="23.491886"><ele>2792.2</ele><time>2026-03-15T11:45:20.000Z</time></trkpt>
<trkpt lat="41.727026" lon="23.491887"><ele>2792.2</ele><time>2026-03-15T11:45:21.000Z</time></trkpt>
<trkpt lat="41.727025" lon="23.491888"><ele>2792</ele><time>2026-03-15T11:45:22.000Z</time></trkpt>
<trkpt lat="41.727024" lon="23.491888"><ele>2792</ele><time>2026-03-15T11:45:23.000Z</time></trkpt>
<trkpt lat="41.727023" lon="23.491888"><ele>2792</ele><time>2026-03-15T11:45:24.000Z</time></trkpt>
<trkpt lat="41.727023" lon="23.491888"><ele>2792</ele><time>2026-03-15T11:45:25.000Z</time></trkpt>
<trkpt lat="41.727022" lon="23.491888"><ele>2792</ele><time>2026-03-15T11:45:26.000Z</time></trkpt>
<trkpt lat="41.727021" lon="23.491888"><ele>2791.8</ele><time>2026-03-15T11:45:27.000Z</time></trkpt>
<trkpt lat="41.72702" lon="23.491887"><ele>2791.8</ele><time>2026-03-15T11:45:28.000Z</time></trkpt>
<trkpt lat="41.727019" lon="23.491887"><ele>2791.8</ele><time>2026-03-15T11:45:29.000Z</time></trkpt>
<trkpt lat="41.727018" lon="23.491886"><ele>2791.8</ele><time>2026-03-15T11:45:30.000Z</time></trkpt>
<trkpt lat="41.727017" lon="23.491885"><ele>2791.8</ele><time>2026-03-15T11:45:31.000Z</time></trkpt>
<trkpt lat="41.727017" lon="23.491884"><ele>2791.8</ele><time>2026-03-15T11:45:32.000Z</time></trkpt>
<trkpt lat="41.727016" lon="23.491884"><ele>2791.8</ele><time>2026-03-15T11:45:33.000Z</time></trkpt>
<trkpt lat="41.727016" lon="23.491884"><ele>2791.8</ele><time>2026-03-15T11:45:34.000Z</time></trkpt>
<trkpt lat="41.727015" lon="23.491884"><ele>2791.8</ele><time>2026-03-15T11:45:35.000Z</time></trkpt>
<trkpt lat="41.727014" lon="23.491884"><ele>2791.8</ele><time>2026-03-15T11:45:36.000Z</time></trkpt>
<trkpt lat="41.727014" lon="23.491884"><ele>2791.8</ele><time>2026-03-15T11:45:37.000Z</time></trkpt>
<trkpt lat="41.727013" lon="23.491885"><ele>2791.8</ele><time>2026-03-15T11:45:38.000Z</time></trkpt>
<trkpt lat="41.727012" lon="23.491885"><ele>2791.8</ele><time>2026-03-15T11:45:39.000Z</time></trkpt>
<trkpt lat="41.727012" lon="23.491885"><ele>2791.8</ele><time>2026-03-15T11:45:40.000Z</time></trkpt>
<trkpt lat="41.727012" lon="23.491885"><ele>2791.8</ele><time>2026-03-15T11:45:41.000Z</time></trkpt>
<trkpt lat="41.727011" lon="23.491885"><ele>2791.9</ele><time>2026-03-15T11:45:42.000Z</time></trkpt>
<trkpt lat="41.727011" lon="23.491885"><ele>2791.9</ele><time>2026-03-15T11:45:43.000Z</time></trkpt>
<trkpt lat="41.727011" lon="23.491886"><ele>2791.9</ele><time>2026-03-15T11:45:44.000Z</time></trkpt>
<trkpt lat="41.727011" lon="23.491887"><ele>2791.9</ele><time>2026-03-15T11:45:45.000Z</time></trkpt>
<trkpt lat="41.72701" lon="23.491888"><ele>2791.9</ele><time>2026-03-15T11:45:46.000Z</time></trkpt>
<trkpt lat="41.72701" lon="23.491889"><ele>2791.9</ele><time>2026-03-15T11:45:47.000Z</time></trkpt>
<trkpt lat="41.727008" lon="23.491889"><ele>2791.9</ele><time>2026-03-15T11:45:48.000Z</time></trkpt>
<trkpt lat="41.727006" lon="23.49189"><ele>2791.9</ele><time>2026-03-15T11:45:49.000Z</time></trkpt>
<trkpt lat="41.727004" lon="23.49189"><ele>2791.9</ele><time>2026-03-15T11:45:50.000Z</time></trkpt>
<trkpt lat="41.727002" lon="23.49189"><ele>2791.9</ele><time>2026-03-15T11:45:51.000Z</time></trkpt>
<trkpt lat="41.726999" lon="23.491891"><ele>2791.9</ele><time>2026-03-15T11:45:52.000Z</time></trkpt>
<trkpt lat="41.726997" lon="23.49189"><ele>2791.9</ele><time>2026-03-15T11:45:53.000Z</time></trkpt>
<trkpt lat="41.726995" lon="23.49189"><ele>2791.9</ele><time>2026-03-15T11:45:54.000Z</time></trkpt>
<trkpt lat="41.726994" lon="23.49189"><ele>2791.9</ele><time>2026-03-15T11:45:55.000Z</time></trkpt>
<trkpt lat="41.726992" lon="23.491889"><ele>2791.9</ele><time>2026-03-15T11:45:56.000Z</time></trkpt>
<trkpt lat="41.72699" lon="23.491889"><ele>2791.8</ele><time>2026-03-15T11:45:57.000Z</time></trkpt>
<trkpt lat="41.726988" lon="23.491889"><ele>2791.8</ele><time>2026-03-15T11:45:58.000Z</time></trkpt>
<trkpt lat="41.726985" lon="23.49189"><ele>2791.8</ele><time>2026-03-15T11:45:59.000Z</time></trkpt>
<trkpt lat="41.726983" lon="23.491892"><ele>2791.8</ele><time>2026-03-15T11:46:00.000Z</time></trkpt>
<trkpt lat="41.72698" lon="23.491894"><ele>2791.8</ele><time>2026-03-15T11:46:01.000Z</time></trkpt>
<trkpt lat="41.726978" lon="23.491897"><ele>2791.8</ele><time>2026-03-15T11:46:02.000Z</time></trkpt>
<trkpt lat="41.726976" lon="23.4919"><ele>2791.8</ele><time>2026-03-15T11:46:03.000Z</time></trkpt>
<trkpt lat="41.726974" lon="23.491902"><ele>2791.8</ele><time>2026-03-15T11:46:04.000Z</time></trkpt>
<trkpt lat="41.726972" lon="23.491905"><ele>2791.8</ele><time>2026-03-15T11:46:05.000Z</time></trkpt>
<trkpt lat="41.72697" lon="23.491908"><ele>2791.8</ele><time>2026-03-15T11:46:06.000Z</time></trkpt>
<trkpt lat="41.726968" lon="23.491911"><ele>2791.4</ele><time>2026-03-15T11:46:07.000Z</time></trkpt>
<trkpt lat="41.726966" lon="23.491914"><ele>2791.4</ele><time>2026-03-15T11:46:08.000Z</time></trkpt>
<trkpt lat="41.726964" lon="23.491916"><ele>2791.4</ele><time>2026-03-15T11:46:09.000Z</time></trkpt>
<trkpt lat="41.726963" lon="23.491918"><ele>2791.4</ele><time>2026-03-15T11:46:10.000Z</time></trkpt>
<trkpt lat="41.726963" lon="23.491919"><ele>2791.4</ele><time>2026-03-15T11:46:11.000Z</time></trkpt>
<trkpt lat="41.726962" lon="23.49192"><ele>2790.9</ele><time>2026-03-15T11:46:12.000Z</time></trkpt>
<trkpt lat="41.726961" lon="23.491921"><ele>2790.9</ele><time>2026-03-15T11:46:13.000Z</time></trkpt>
<trkpt lat="41.72696" lon="23.491921"><ele>2790.9</ele><time>2026-03-15T11:46:14.000Z</time></trkpt>
<trkpt lat="41.726958" lon="23.491922"><ele>2790.9</ele><time>2026-03-15T11:46:15.000Z</time></trkpt>
<trkpt lat="41.726956" lon="23.491923"><ele>2790.9</ele><time>2026-03-15T11:46:16.000Z</time></trkpt>
<trkpt lat="41.726954" lon="23.491924"><ele>2790.6</ele><time>2026-03-15T11:46:17.000Z</time></trkpt>
<trkpt lat="41.726952" lon="23.491924"><ele>2790.6</ele><time>2026-03-15T11:46:18.000Z</time></trkpt>
<trkpt lat="41.72695" lon="23.491924"><ele>2790.6</ele><time>2026-03-15T11:46:19.000Z</time></trkpt>
<trkpt lat="41.726948" lon="23.491925"><ele>2790.6</ele><time>2026-03-15T11:46:20.000Z</time></trkpt>
<trkpt lat="41.726945" lon="23.491926"><ele>2790.6</ele><time>2026-03-15T11:46:21.000Z</time></trkpt>
<trkpt lat="41.726943" lon="23.491927"><ele>2790.3</ele><time>2026-03-15T11:46:22.000Z</time></trkpt>
<trkpt lat="41.72694" lon="23.491928"><ele>2790.3</ele><time>2026-03-15T11:46:23.000Z</time></trkpt>
<trkpt lat="41.726938" lon="23.49193"><ele>2790.3</ele><time>2026-03-15T11:46:24.000Z</time></trkpt>
<trkpt lat="41.726936" lon="23.491933"><ele>2790.3</ele><time>2026-03-15T11:46:25.000Z</time></trkpt>
<trkpt lat="41.726934" lon="23.491934"><ele>2790.3</ele><time>2026-03-15T11:46:26.000Z</time></trkpt>
<trkpt lat="41.726932" lon="23.491937"><ele>2790.2</ele><time>2026-03-15T11:46:27.000Z</time></trkpt>
<trkpt lat="41.726929" lon="23.491938"><ele>2790.2</ele><time>2026-03-15T11:46:28.000Z</time></trkpt>
<trkpt lat="41.726928" lon="23.491939"><ele>2790.2</ele><time>2026-03-15T11:46:29.000Z</time></trkpt>
<trkpt lat="41.726927" lon="23.491939"><ele>2790.2</ele><time>2026-03-15T11:46:30.000Z</time></trkpt>
<trkpt lat="41.726925" lon="23.491939"><ele>2790.2</ele><time>2026-03-15T11:46:31.000Z</time></trkpt>
<trkpt lat="41.726925" lon="23.491938"><ele>2790.1</ele><time>2026-03-15T11:46:32.000Z</time></trkpt>
<trkpt lat="41.726925" lon="23.491938"><ele>2790.1</ele><time>2026-03-15T11:46:33.000Z</time></trkpt>
<trkpt lat="41.726925" lon="23.491938"><ele>2790.1</ele><time>2026-03-15T11:46:34.000Z</time></trkpt>
<trkpt lat="41.726925" lon="23.491938"><ele>2790.1</ele><time>2026-03-15T11:46:35.000Z</time></trkpt>
<trkpt lat="41.726926" lon="23.491939"><ele>2790.1</ele><time>2026-03-15T11:46:36.000Z</time></trkpt>
<trkpt lat="41.726926" lon="23.491939"><ele>2789.8</ele><time>2026-03-15T11:46:37.000Z</time></trkpt>
<trkpt lat="41.726926" lon="23.491939"><ele>2789.8</ele><time>2026-03-15T11:46:38.000Z</time></trkpt>
<trkpt lat="41.726926" lon="23.491938"><ele>2789.8</ele><time>2026-03-15T11:46:39.000Z</time></trkpt>
<trkpt lat="41.726925" lon="23.491939"><ele>2789.8</ele><time>2026-03-15T11:46:40.000Z</time></trkpt>
<trkpt lat="41.726923" lon="23.49194"><ele>2789.8</ele><time>2026-03-15T11:46:41.000Z</time></trkpt>
<trkpt lat="41.726921" lon="23.491941"><ele>2789.3</ele><time>2026-03-15T11:46:42.000Z</time></trkpt>
<trkpt lat="41.726918" lon="23.491943"><ele>2789.3</ele><time>2026-03-15T11:46:43.000Z</time></trkpt>
<trkpt lat="41.726915" lon="23.491946"><ele>2789.3</ele><time>2026-03-15T11:46:44.000Z</time></trkpt>
<trkpt lat="41.726912" lon="23.491947"><ele>2789.3</ele><time>2026-03-15T11:46:45.000Z</time></trkpt>
<trkpt lat="41.72691" lon="23.491947"><ele>2789.3</ele><time>2026-03-15T11:46:46.000Z</time></trkpt>
<trkpt lat="41.726909" lon="23.491948"><ele>2789.1</ele><time>2026-03-15T11:46:47.000Z</time></trkpt>
<trkpt lat="41.726906" lon="23.491949"><ele>2789.1</ele><time>2026-03-15T11:46:48.000Z</time></trkpt>
<trkpt lat="41.726904" lon="23.491951"><ele>2789.1</ele><time>2026-03-15T11:46:49.000Z</time></trkpt>
<trkpt lat="41.726902" lon="23.491955"><ele>2789.1</ele><time>2026-03-15T11:46:50.000Z</time></trkpt>
<trkpt lat="41.726899" lon="23.491959"><ele>2789.1</ele><time>2026-03-15T11:46:51.000Z</time></trkpt>
<trkpt lat="41.726896" lon="23.491964"><ele>2789</ele><time>2026-03-15T11:46:52.000Z</time></trkpt>
<trkpt lat="41.726893" lon="23.491968"><ele>2789</ele><time>2026-03-15T11:46:53.000Z</time></trkpt>
<trkpt lat="41.72689" lon="23.491972"><ele>2789</ele><time>2026-03-15T11:46:54.000Z</time></trkpt>
<trkpt lat="41.726887" lon="23.491975"><ele>2789</ele><time>2026-03-15T11:46:55.000Z</time></trkpt>
<trkpt lat="41.726884" lon="23.491977"><ele>2789</ele><time>2026-03-15T11:46:56.000Z</time></trkpt>
<trkpt lat="41.726882" lon="23.491978"><ele>2788.9</ele><time>2026-03-15T11:46:57.000Z</time></trkpt>
<trkpt lat="41.726881" lon="23.491977"><ele>2788.9</ele><time>2026-03-15T11:46:58.000Z</time></trkpt>
<trkpt lat="41.726881" lon="23.491976"><ele>2788.9</ele><time>2026-03-15T11:46:59.000Z</time></trkpt>
<trkpt lat="41.726881" lon="23.491974"><ele>2788.9</ele><time>2026-03-15T11:47:00.000Z</time></trkpt>
<trkpt lat="41.726882" lon="23.491974"><ele>2788.9</ele><time>2026-03-15T11:47:01.000Z</time></trkpt>
<trkpt lat="41.726883" lon="23.491974"><ele>2788.8</ele><time>2026-03-15T11:47:02.000Z</time></trkpt>
<trkpt lat="41.726884" lon="23.491976"><ele>2788.8</ele><time>2026-03-15T11:47:03.000Z</time></trkpt>
<trkpt lat="41.726885" lon="23.491977"><ele>2788.8</ele><time>2026-03-15T11:47:04.000Z</time></trkpt>
<trkpt lat="41.726885" lon="23.491979"><ele>2788.8</ele><time>2026-03-15T11:47:05.000Z</time></trkpt>
<trkpt lat="41.726884" lon="23.49198"><ele>2788.8</ele><time>2026-03-15T11:47:06.000Z</time></trkpt>
<trkpt lat="41.726881" lon="23.491981"><ele>2788.6</ele><time>2026-03-15T11:47:07.000Z</time></trkpt>
<trkpt lat="41.726878" lon="23.491983"><ele>2788.6</ele><time>2026-03-15T11:47:08.000Z</time></trkpt>
<trkpt lat="41.726873" lon="23.491986"><ele>2788.6</ele><time>2026-03-15T11:47:09.000Z</time></trkpt>
<trkpt lat="41.726867" lon="23.491989"><ele>2788.6</ele><time>2026-03-15T11:47:10.000Z</time></trkpt>
<trkpt lat="41.726862" lon="23.491993"><ele>2788.6</ele><time>2026-03-15T11:47:11.000Z</time></trkpt>
<trkpt lat="41.726856" lon="23.491998"><ele>2788.6</ele><time>2026-03-15T11:47:12.000Z</time></trkpt>
<trkpt lat="41.726852" lon="23.492003"><ele>2788.6</ele><time>2026-03-15T11:47:13.000Z</time></trkpt>
<trkpt lat="41.726848" lon="23.492008"><ele>2788.6</ele><time>2026-03-15T11:47:14.000Z</time></trkpt>
<trkpt lat="41.726843" lon="23.492013"><ele>2788.6</ele><time>2026-03-15T11:47:15.000Z</time></trkpt>
<trkpt lat="41.726839" lon="23.492017"><ele>2788.6</ele><time>2026-03-15T11:47:16.000Z</time></trkpt>
<trkpt lat="41.726836" lon="23.49202"><ele>2788.6</ele><time>2026-03-15T11:47:17.000Z</time></trkpt>
<trkpt lat="41.726831" lon="23.492023"><ele>2788.6</ele><time>2026-03-15T11:47:18.000Z</time></trkpt>
<trkpt lat="41.726827" lon="23.492025"><ele>2788.6</ele><time>2026-03-15T11:47:19.000Z</time></trkpt>
<trkpt lat="41.726824" lon="23.492027"><ele>2788.6</ele><time>2026-03-15T11:47:20.000Z</time></trkpt>
<trkpt lat="41.72682" lon="23.492029"><ele>2788.6</ele><time>2026-03-15T11:47:21.000Z</time></trkpt>
<trkpt lat="41.726817" lon="23.492032"><ele>2788.5</ele><time>2026-03-15T11:47:22.000Z</time></trkpt>
<trkpt lat="41.726813" lon="23.492036"><ele>2788.5</ele><time>2026-03-15T11:47:23.000Z</time></trkpt>
<trkpt lat="41.72681" lon="23.49204"><ele>2788.5</ele><time>2026-03-15T11:47:24.000Z</time></trkpt>
<trkpt lat="41.726806" lon="23.492043"><ele>2788.5</ele><time>2026-03-15T11:47:25.000Z</time></trkpt>
<trkpt lat="41.726803" lon="23.492045"><ele>2788.5</ele><time>2026-03-15T11:47:26.000Z</time></trkpt>
<trkpt lat="41.726799" lon="23.492047"><ele>2788.2</ele><time>2026-03-15T11:47:27.000Z</time></trkpt>
<trkpt lat="41.726797" lon="23.492048"><ele>2788.2</ele><time>2026-03-15T11:47:28.000Z</time></trkpt>
<trkpt lat="41.726794" lon="23.492049"><ele>2788.2</ele><time>2026-03-15T11:47:29.000Z</time></trkpt>
<trkpt lat="41.726792" lon="23.492049"><ele>2788.2</ele><time>2026-03-15T11:47:30.000Z</time></trkpt>
<trkpt lat="41.726789" lon="23.492049"><ele>2788.2</ele><time>2026-03-15T11:47:31.000Z</time></trkpt>
<trkpt lat="41.726788" lon="23.49205"><ele>2788.1</ele><time>2026-03-15T11:47:32.000Z</time></trkpt>
<trkpt lat="41.726787" lon="23.49205"><ele>2788.1</ele><time>2026-03-15T11:47:33.000Z</time></trkpt>
<trkpt lat="41.726786" lon="23.492051"><ele>2788.1</ele><time>2026-03-15T11:47:34.000Z</time></trkpt>
<trkpt lat="41.726786" lon="23.492052"><ele>2788.1</ele><time>2026-03-15T11:47:35.000Z</time></trkpt>
<trkpt lat="41.726785" lon="23.492052"><ele>2788.1</ele><time>2026-03-15T11:47:36.000Z</time></trkpt>
<trkpt lat="41.726785" lon="23.492053"><ele>2787.9</ele><time>2026-03-15T11:47:37.000Z</time></trkpt>
<trkpt lat="41.726785" lon="23.492053"><ele>2787.9</ele><time>2026-03-15T11:47:38.000Z</time></trkpt>
<trkpt lat="41.726785" lon="23.492053"><ele>2787.9</ele><time>2026-03-15T11:47:39.000Z</time></trkpt>
<trkpt lat="41.726784" lon="23.492053"><ele>2787.9</ele><time>2026-03-15T11:47:40.000Z</time></trkpt>
<trkpt lat="41.726783" lon="23.492054"><ele>2787.9</ele><time>2026-03-15T11:47:41.000Z</time></trkpt>
<trkpt lat="41.726781" lon="23.492055"><ele>2787.5</ele><time>2026-03-15T11:47:42.000Z</time></trkpt>
<trkpt lat="41.726778" lon="23.492056"><ele>2787.5</ele><time>2026-03-15T11:47:43.000Z</time></trkpt>
<trkpt lat="41.726776" lon="23.492056"><ele>2787.5</ele><time>2026-03-15T11:47:44.000Z</time></trkpt>
<trkpt lat="41.726774" lon="23.492058"><ele>2787.5</ele><time>2026-03-15T11:47:45.000Z</time></trkpt>
<trkpt lat="41.726772" lon="23.492058"><ele>2787.5</ele><time>2026-03-15T11:47:46.000Z</time></trkpt>
<trkpt lat="41.726771" lon="23.49206"><ele>2787.4</ele><time>2026-03-15T11:47:47.000Z</time></trkpt>
<trkpt lat="41.72677" lon="23.492061"><ele>2787.4</ele><time>2026-03-15T11:47:48.000Z</time></trkpt>
<trkpt lat="41.726769" lon="23.492061"><ele>2787.4</ele><time>2026-03-15T11:47:49.000Z</time></trkpt>
<trkpt lat="41.726769" lon="23.49206"><ele>2787.4</ele><time>2026-03-15T11:47:50.000Z</time></trkpt>
<trkpt lat="41.72677" lon="23.492058"><ele>2787.4</ele><time>2026-03-15T11:47:51.000Z</time></trkpt>
<trkpt lat="41.726771" lon="23.492056"><ele>2787.3</ele><time>2026-03-15T11:47:52.000Z</time></trkpt>
<trkpt lat="41.726771" lon="23.492054"><ele>2787.3</ele><time>2026-03-15T11:47:53.000Z</time></trkpt>
<trkpt lat="41.726772" lon="23.492054"><ele>2787.3</ele><time>2026-03-15T11:47:54.000Z</time></trkpt>
<trkpt lat="41.726771" lon="23.492054"><ele>2787.3</ele><time>2026-03-15T11:47:55.000Z</time></trkpt>
<trkpt lat="41.726771" lon="23.492056"><ele>2787.3</ele><time>2026-03-15T11:47:56.000Z</time></trkpt>
<trkpt lat="41.72677" lon="23.492057"><ele>2787.3</ele><time>2026-03-15T11:47:57.000Z</time></trkpt>
<trkpt lat="41.726769" lon="23.492058"><ele>2787.3</ele><time>2026-03-15T11:47:58.000Z</time></trkpt>
<trkpt lat="41.726767" lon="23.492058"><ele>2787.3</ele><time>2026-03-15T11:47:59.000Z</time></trkpt>
<trkpt lat="41.726765" lon="23.492059"><ele>2787.3</ele><time>2026-03-15T11:48:00.000Z</time></trkpt>
<trkpt lat="41.726763" lon="23.492059"><ele>2787.3</ele><time>2026-03-15T11:48:01.000Z</time></trkpt>
<trkpt lat="41.72676" lon="23.49206"><ele>2787.2</ele><time>2026-03-15T11:48:02.000Z</time></trkpt>
<trkpt lat="41.726757" lon="23.492061"><ele>2787.2</ele><time>2026-03-15T11:48:03.000Z</time></trkpt>
<trkpt lat="41.726754" lon="23.492063"><ele>2787.2</ele><time>2026-03-15T11:48:04.000Z</time></trkpt>
<trkpt lat="41.726751" lon="23.492064"><ele>2787.2</ele><time>2026-03-15T11:48:05.000Z</time></trkpt>
<trkpt lat="41.726748" lon="23.492065"><ele>2787.2</ele><time>2026-03-15T11:48:06.000Z</time></trkpt>
<trkpt lat="41.726745" lon="23.492067"><ele>2787.1</ele><time>2026-03-15T11:48:07.000Z</time></trkpt>
<trkpt lat="41.726743" lon="23.492069"><ele>2787.1</ele><time>2026-03-15T11:48:08.000Z</time></trkpt>
<trkpt lat="41.726741" lon="23.492071"><ele>2787.1</ele><time>2026-03-15T11:48:09.000Z</time></trkpt>
<trkpt lat="41.726738" lon="23.492074"><ele>2787.1</ele><time>2026-03-15T11:48:10.000Z</time></trkpt>
<trkpt lat="41.726735" lon="23.492076"><ele>2787.1</ele><time>2026-03-15T11:48:11.000Z</time></trkpt>
<trkpt lat="41.726732" lon="23.492078"><ele>2787.3</ele><time>2026-03-15T11:48:12.000Z</time></trkpt>
<trkpt lat="41.726729" lon="23.492081"><ele>2787.3</ele><time>2026-03-15T11:48:13.000Z</time></trkpt>
<trkpt lat="41.726725" lon="23.492083"><ele>2787.3</ele><time>2026-03-15T11:48:14.000Z</time></trkpt>
<trkpt lat="41.726722" lon="23.492085"><ele>2787.3</ele><time>2026-03-15T11:48:15.000Z</time></trkpt>
<trkpt lat="41.72672" lon="23.492086"><ele>2787.3</ele><time>2026-03-15T11:48:16.000Z</time></trkpt>
<trkpt lat="41.726718" lon="23.492086"><ele>2787.3</ele><time>2026-03-15T11:48:17.000Z</time></trkpt>
<trkpt lat="41.726718" lon="23.492084"><ele>2787.3</ele><time>2026-03-15T11:48:18.000Z</time></trkpt>
<trkpt lat="41.726718" lon="23.492082"><ele>2787.3</ele><time>2026-03-15T11:48:19.000Z</time></trkpt>
<trkpt lat="41.726719" lon="23.492081"><ele>2787.3</ele><time>2026-03-15T11:48:20.000Z</time></trkpt>
<trkpt lat="41.726719" lon="23.492081"><ele>2787.3</ele><time>2026-03-15T11:48:21.000Z</time></trkpt>
<trkpt lat="41.726719" lon="23.492081"><ele>2787.3</ele><time>2026-03-15T11:48:22.000Z</time></trkpt>
<trkpt lat="41.726719" lon="23.492081"><ele>2787.3</ele><time>2026-03-15T11:48:23.000Z</time></trkpt>
<trkpt lat="41.726719" lon="23.492081"><ele>2787.3</ele><time>2026-03-15T11:48:24.000Z</time></trkpt>
<trkpt lat="41.726719" lon="23.492081"><ele>2787.3</ele><time>2026-03-15T11:48:25.000Z</time></trkpt>
<trkpt lat="41.726719" lon="23.492081"><ele>2787.3</ele><time>2026-03-15T11:48:26.000Z</time></trkpt>
<trkpt lat="41.726719" lon="23.492081"><ele>2787.2</ele><time>2026-03-15T11:48:27.000Z</time></trkpt>
<trkpt lat="41.726719" lon="23.492081"><ele>2787.2</ele><time>2026-03-15T11:48:28.000Z</time></trkpt>
<trkpt lat="41.726719" lon="23.492081"><ele>2787.2</ele><time>2026-03-15T11:48:29.000Z</time></trkpt>
<trkpt lat="41.726719" lon="23.492081"><ele>2787.2</ele><time>2026-03-15T11:48:30.000Z</time></trkpt>
<trkpt lat="41.726719" lon="23.492081"><ele>2787.2</ele><time>2026-03-15T11:48:31.000Z</time></trkpt>
<trkpt lat="41.726719" lon="23.492081"><ele>2787.2</ele><time>2026-03-15T11:48:32.000Z</time></trkpt>
<trkpt lat="41.726719" lon="23.492081"><ele>2787.2</ele><time>2026-03-15T11:48:33.000Z</time></trkpt>
<trkpt lat="41.726718" lon="23.492082"><ele>2787.2</ele><time>2026-03-15T11:48:34.000Z</time></trkpt>
<trkpt lat="41.726717" lon="23.492083"><ele>2787.2</ele><time>2026-03-15T11:48:35.000Z</time></trkpt>
<trkpt lat="41.726717" lon="23.492083"><ele>2787.2</ele><time>2026-03-15T11:48:36.000Z</time></trkpt>
<trkpt lat="41.726715" lon="23.492086"><ele>2787.2</ele><time>2026-03-15T11:48:37.000Z</time></trkpt>
<trkpt lat="41.726713" lon="23.492088"><ele>2787.2</ele><time>2026-03-15T11:48:38.000Z</time></trkpt>
<trkpt lat="41.726711" lon="23.492092"><ele>2787.2</ele><time>2026-03-15T11:48:39.000Z</time></trkpt>
<trkpt lat="41.726708" lon="23.492095"><ele>2787.2</ele><time>2026-03-15T11:48:40.000Z</time></trkpt>
<trkpt lat="41.726704" lon="23.492099"><ele>2787.2</ele><time>2026-03-15T11:48:41.000Z</time></trkpt>
<trkpt lat="41.726701" lon="23.492101"><ele>2787.1</ele><time>2026-03-15T11:48:42.000Z</time></trkpt>
<trkpt lat="41.726698" lon="23.492103"><ele>2787.1</ele><time>2026-03-15T11:48:43.000Z</time></trkpt>
<trkpt lat="41.726695" lon="23.492104"><ele>2787.1</ele><time>2026-03-15T11:48:44.000Z</time></trkpt>
<trkpt lat="41.726693" lon="23.492105"><ele>2787.1</ele><time>2026-03-15T11:48:45.000Z</time></trkpt>
<trkpt lat="41.726689" lon="23.492107"><ele>2787.1</ele><time>2026-03-15T11:48:46.000Z</time></trkpt>
<trkpt lat="41.726686" lon="23.492109"><ele>2787</ele><time>2026-03-15T11:48:47.000Z</time></trkpt>
<trkpt lat="41.726683" lon="23.49211"><ele>2787</ele><time>2026-03-15T11:48:48.000Z</time></trkpt>
<trkpt lat="41.726681" lon="23.492111"><ele>2787</ele><time>2026-03-15T11:48:49.000Z</time></trkpt>
<trkpt lat="41.72668" lon="23.492111"><ele>2787</ele><time>2026-03-15T11:48:50.000Z</time></trkpt>
<trkpt lat="41.726679" lon="23.49211"><ele>2787</ele><time>2026-03-15T11:48:51.000Z</time></trkpt>
<trkpt lat="41.726679" lon="23.492109"><ele>2787</ele><time>2026-03-15T11:48:52.000Z</time></trkpt>
<trkpt lat="41.726679" lon="23.492108"><ele>2787</ele><time>2026-03-15T11:48:53.000Z</time></trkpt>
<trkpt lat="41.726678" lon="23.492108"><ele>2787</ele><time>2026-03-15T11:48:54.000Z</time></trkpt>
<trkpt lat="41.726676" lon="23.492109"><ele>2787</ele><time>2026-03-15T11:48:55.000Z</time></trkpt>
<trkpt lat="41.726674" lon="23.492111"><ele>2787</ele><time>2026-03-15T11:48:56.000Z</time></trkpt>
<trkpt lat="41.726672" lon="23.492113"><ele>2787.1</ele><time>2026-03-15T11:48:57.000Z</time></trkpt>
<trkpt lat="41.726668" lon="23.492115"><ele>2787.1</ele><time>2026-03-15T11:48:58.000Z</time></trkpt>
<trkpt lat="41.726666" lon="23.492117"><ele>2787.1</ele><time>2026-03-15T11:48:59.000Z</time></trkpt>
<trkpt lat="41.726663" lon="23.49212"><ele>2787.1</ele><time>2026-03-15T11:49:00.000Z</time></trkpt>
<trkpt lat="41.726662" lon="23.492122"><ele>2787.1</ele><time>2026-03-15T11:49:01.000Z</time></trkpt>
<trkpt lat="41.72666" lon="23.492124"><ele>2787.3</ele><time>2026-03-15T11:49:02.000Z</time></trkpt>
<trkpt lat="41.726659" lon="23.492126"><ele>2787.3</ele><time>2026-03-15T11:49:03.000Z</time></trkpt>
<trkpt lat="41.726657" lon="23.492127"><ele>2787.3</ele><time>2026-03-15T11:49:04.000Z</time></trkpt>
<trkpt lat="41.726656" lon="23.492127"><ele>2787.3</ele><time>2026-03-15T11:49:05.000Z</time></trkpt>
<trkpt lat="41.726655" lon="23.492128"><ele>2787.3</ele><time>2026-03-15T11:49:06.000Z</time></trkpt>
<trkpt lat="41.726655" lon="23.492128"><ele>2787.6</ele><time>2026-03-15T11:49:07.000Z</time></trkpt>
<trkpt lat="41.726654" lon="23.492128"><ele>2787.6</ele><time>2026-03-15T11:49:08.000Z</time></trkpt>
<trkpt lat="41.726653" lon="23.492129"><ele>2787.6</ele><time>2026-03-15T11:49:09.000Z</time></trkpt>
<trkpt lat="41.726652" lon="23.492131"><ele>2787.6</ele><time>2026-03-15T11:49:10.000Z</time></trkpt>
<trkpt lat="41.726651" lon="23.492132"><ele>2787.6</ele><time>2026-03-15T11:49:11.000Z</time></trkpt>
<trkpt lat="41.72665" lon="23.492133"><ele>2787.8</ele><time>2026-03-15T11:49:12.000Z</time></trkpt>
<trkpt lat="41.726648" lon="23.492135"><ele>2787.8</ele><time>2026-03-15T11:49:13.000Z</time></trkpt>
<trkpt lat="41.726646" lon="23.492138"><ele>2787.8</ele><time>2026-03-15T11:49:14.000Z</time></trkpt>
<trkpt lat="41.726645" lon="23.49214"><ele>2787.8</ele><time>2026-03-15T11:49:15.000Z</time></trkpt>
<trkpt lat="41.726644" lon="23.492143"><ele>2787.8</ele><time>2026-03-15T11:49:16.000Z</time></trkpt>
<trkpt lat="41.726643" lon="23.492146"><ele>2787.9</ele><time>2026-03-15T11:49:17.000Z</time></trkpt>
<trkpt lat="41.726642" lon="23.49215"><ele>2787.9</ele><time>2026-03-15T11:49:18.000Z</time></trkpt>
<trkpt lat="41.726641" lon="23.492153"><ele>2787.9</ele><time>2026-03-15T11:49:19.000Z</time></trkpt>
<trkpt lat="41.726638" lon="23.492157"><ele>2787.9</ele><time>2026-03-15T11:49:20.000Z</time></trkpt>
<trkpt lat="41.726635" lon="23.49216"><ele>2787.9</ele><time>2026-03-15T11:49:21.000Z</time></trkpt>
<trkpt lat="41.726632" lon="23.492164"><ele>2788.2</ele><time>2026-03-15T11:49:22.000Z</time></trkpt>
<trkpt lat="41.726628" lon="23.492168"><ele>2788.2</ele><time>2026-03-15T11:49:23.000Z</time></trkpt>
<trkpt lat="41.726624" lon="23.492172"><ele>2788.2</ele><time>2026-03-15T11:49:24.000Z</time></trkpt>
<trkpt lat="41.72662" lon="23.492175"><ele>2788.2</ele><time>2026-03-15T11:49:25.000Z</time></trkpt>
<trkpt lat="41.726617" lon="23.492178"><ele>2788.2</ele><time>2026-03-15T11:49:26.000Z</time></trkpt>
<trkpt lat="41.726614" lon="23.49218"><ele>2788.4</ele><time>2026-03-15T11:49:27.000Z</time></trkpt>
<trkpt lat="41.726613" lon="23.492181"><ele>2788.4</ele><time>2026-03-15T11:49:28.000Z</time></trkpt>
<trkpt lat="41.726611" lon="23.492183"><ele>2788.4</ele><time>2026-03-15T11:49:29.000Z</time></trkpt>
<trkpt lat="41.72661" lon="23.492184"><ele>2788.4</ele><time>2026-03-15T11:49:30.000Z</time></trkpt>
<trkpt lat="41.726609" lon="23.492185"><ele>2788.4</ele><time>2026-03-15T11:49:31.000Z</time></trkpt>
<trkpt lat="41.726607" lon="23.492186"><ele>2788.6</ele><time>2026-03-15T11:49:32.000Z</time></trkpt>
<trkpt lat="41.726605" lon="23.492187"><ele>2788.6</ele><time>2026-03-15T11:49:33.000Z</time></trkpt>
<trkpt lat="41.726603" lon="23.492188"><ele>2788.6</ele><time>2026-03-15T11:49:34.000Z</time></trkpt>
<trkpt lat="41.7266" lon="23.49219"><ele>2788.6</ele><time>2026-03-15T11:49:35.000Z</time></trkpt>
<trkpt lat="41.726597" lon="23.492192"><ele>2788.6</ele><time>2026-03-15T11:49:36.000Z</time></trkpt>
<trkpt lat="41.726593" lon="23.492196"><ele>2788.8</ele><time>2026-03-15T11:49:37.000Z</time></trkpt>
<trkpt lat="41.726589" lon="23.492199"><ele>2788.8</ele><time>2026-03-15T11:49:38.000Z</time></trkpt>
<trkpt lat="41.726584" lon="23.492203"><ele>2788.8</ele><time>2026-03-15T11:49:39.000Z</time></trkpt>
<trkpt lat="41.726581" lon="23.492208"><ele>2788.8</ele><time>2026-03-15T11:49:40.000Z</time></trkpt>
<trkpt lat="41.726576" lon="23.492212"><ele>2788.8</ele><time>2026-03-15T11:49:41.000Z</time></trkpt>
<trkpt lat="41.726573" lon="23.492216"><ele>2789</ele><time>2026-03-15T11:49:42.000Z</time></trkpt>
<trkpt lat="41.72657" lon="23.49222"><ele>2789</ele><time>2026-03-15T11:49:43.000Z</time></trkpt>
<trkpt lat="41.726567" lon="23.492223"><ele>2789</ele><time>2026-03-15T11:49:44.000Z</time></trkpt>
<trkpt lat="41.726564" lon="23.492226"><ele>2789</ele><time>2026-03-15T11:49:45.000Z</time></trkpt>
<trkpt lat="41.726561" lon="23.492229"><ele>2789</ele><time>2026-03-15T11:49:46.000Z</time></trkpt>
<trkpt lat="41.72656" lon="23.492231"><ele>2789.1</ele><time>2026-03-15T11:49:47.000Z</time></trkpt>
<trkpt lat="41.726559" lon="23.492232"><ele>2789.1</ele><time>2026-03-15T11:49:48.000Z</time></trkpt>
<trkpt lat="41.726559" lon="23.492232"><ele>2789.1</ele><time>2026-03-15T11:49:49.000Z</time></trkpt>
<trkpt lat="41.726559" lon="23.492232"><ele>2789.1</ele><time>2026-03-15T11:49:50.000Z</time></trkpt>
<trkpt lat="41.72656" lon="23.492232"><ele>2789.1</ele><time>2026-03-15T11:49:51.000Z</time></trkpt>
<trkpt lat="41.72656" lon="23.492231"><ele>2789.3</ele><time>2026-03-15T11:49:52.000Z</time></trkpt>
<trkpt lat="41.72656" lon="23.492231"><ele>2789.3</ele><time>2026-03-15T11:49:53.000Z</time></trkpt>
<trkpt lat="41.726559" lon="23.492232"><ele>2789.3</ele><time>2026-03-15T11:49:54.000Z</time></trkpt>
<trkpt lat="41.726557" lon="23.492232"><ele>2789.3</ele><time>2026-03-15T11:49:55.000Z</time></trkpt>
<trkpt lat="41.726555" lon="23.492233"><ele>2789.3</ele><time>2026-03-15T11:49:56.000Z</time></trkpt>
<trkpt lat="41.726553" lon="23.492233"><ele>2789.4</ele><time>2026-03-15T11:49:57.000Z</time></trkpt>
<trkpt lat="41.726552" lon="23.492232"><ele>2789.4</ele><time>2026-03-15T11:49:58.000Z</time></trkpt>
<trkpt lat="41.72655" lon="23.492232"><ele>2789.4</ele><time>2026-03-15T11:49:59.000Z</time></trkpt>
<trkpt lat="41.72655" lon="23.492231"><ele>2789.4</ele><time>2026-03-15T11:50:00.000Z</time></trkpt>
<trkpt lat="41.72655" lon="23.49223"><ele>2789.4</ele><time>2026-03-15T11:50:01.000Z</time></trkpt>
<trkpt lat="41.726549" lon="23.492229"><ele>2789.5</ele><time>2026-03-15T11:50:02.000Z</time></trkpt>
<trkpt lat="41.726549" lon="23.492229"><ele>2789.5</ele><time>2026-03-15T11:50:03.000Z</time></trkpt>
<trkpt lat="41.726549" lon="23.492229"><ele>2789.5</ele><time>2026-03-15T11:50:04.000Z</time></trkpt>
<trkpt lat="41.726549" lon="23.492231"><ele>2789.5</ele><time>2026-03-15T11:50:05.000Z</time></trkpt>
<trkpt lat="41.726549" lon="23.492232"><ele>2789.5</ele><time>2026-03-15T11:50:06.000Z</time></trkpt>
<trkpt lat="41.726549" lon="23.492233"><ele>2789.6</ele><time>2026-03-15T11:50:07.000Z</time></trkpt>
<trkpt lat="41.726549" lon="23.492234"><ele>2789.6</ele><time>2026-03-15T11:50:08.000Z</time></trkpt>
<trkpt lat="41.726549" lon="23.492235"><ele>2789.6</ele><time>2026-03-15T11:50:09.000Z</time></trkpt>
<trkpt lat="41.726549" lon="23.492235"><ele>2789.6</ele><time>2026-03-15T11:50:10.000Z</time></trkpt>
<trkpt lat="41.726549" lon="23.492235"><ele>2789.6</ele><time>2026-03-15T11:50:11.000Z</time></trkpt>
<trkpt lat="41.726549" lon="23.492235"><ele>2789.6</ele><time>2026-03-15T11:50:12.000Z</time></trkpt>
<trkpt lat="41.726548" lon="23.492235"><ele>2789.6</ele><time>2026-03-15T11:50:13.000Z</time></trkpt>
<trkpt lat="41.726548" lon="23.492235"><ele>2789.6</ele><time>2026-03-15T11:50:14.000Z</time></trkpt>
<trkpt lat="41.726548" lon="23.492235"><ele>2789.6</ele><time>2026-03-15T11:50:15.000Z</time></trkpt>
<trkpt lat="41.726548" lon="23.492236"><ele>2789.6</ele><time>2026-03-15T11:50:16.000Z</time></trkpt>
<trkpt lat="41.726548" lon="23.492236"><ele>2789.6</ele><time>2026-03-15T11:50:17.000Z</time></trkpt>
<trkpt lat="41.726548" lon="23.492236"><ele>2789.6</ele><time>2026-03-15T11:50:18.000Z</time></trkpt>
<trkpt lat="41.726548" lon="23.492236"><ele>2789.6</ele><time>2026-03-15T11:50:19.000Z</time></trkpt>
<trkpt lat="41.726549" lon="23.492236"><ele>2789.6</ele><time>2026-03-15T11:50:20.000Z</time></trkpt>
<trkpt lat="41.726549" lon="23.492236"><ele>2789.6</ele><time>2026-03-15T11:50:21.000Z</time></trkpt>
<trkpt lat="41.72655" lon="23.492236"><ele>2789.6</ele><time>2026-03-15T11:50:22.000Z</time></trkpt>
<trkpt lat="41.72655" lon="23.492236"><ele>2789.6</ele><time>2026-03-15T11:50:23.000Z</time></trkpt>
<trkpt lat="41.726551" lon="23.492236"><ele>2789.6</ele><time>2026-03-15T11:50:24.000Z</time></trkpt>
<trkpt lat="41.726551" lon="23.492236"><ele>2789.6</ele><time>2026-03-15T11:50:25.000Z</time></trkpt>
<trkpt lat="41.726552" lon="23.492236"><ele>2789.6</ele><time>2026-03-15T11:50:26.000Z</time></trkpt>
<trkpt lat="41.726552" lon="23.492236"><ele>2789.6</ele><time>2026-03-15T11:50:27.000Z</time></trkpt>
<trkpt lat="41.726552" lon="23.492236"><ele>2789.6</ele><time>2026-03-15T11:50:28.000Z</time></trkpt>
<trkpt lat="41.726552" lon="23.492236"><ele>2789.6</ele><time>2026-03-15T11:50:29.000Z</time></trkpt>
<trkpt lat="41.726552" lon="23.492236"><ele>2789.6</ele><time>2026-03-15T11:50:30.000Z</time></trkpt>
<trkpt lat="41.726552" lon="23.492236"><ele>2789.6</ele><time>2026-03-15T11:50:31.000Z</time></trkpt>
<trkpt lat="41.726552" lon="23.492238"><ele>2789.7</ele><time>2026-03-15T11:50:32.000Z</time></trkpt>
<trkpt lat="41.72655" lon="23.49224"><ele>2789.7</ele><time>2026-03-15T11:50:33.000Z</time></trkpt>
<trkpt lat="41.726548" lon="23.492244"><ele>2789.7</ele><time>2026-03-15T11:50:34.000Z</time></trkpt>
<trkpt lat="41.726545" lon="23.492249"><ele>2789.7</ele><time>2026-03-15T11:50:35.000Z</time></trkpt>
<trkpt lat="41.726541" lon="23.492255"><ele>2789.7</ele><time>2026-03-15T11:50:36.000Z</time></trkpt>
<trkpt lat="41.726538" lon="23.492259"><ele>2789.7</ele><time>2026-03-15T11:50:37.000Z</time></trkpt>
<trkpt lat="41.726536" lon="23.492264"><ele>2789.7</ele><time>2026-03-15T11:50:38.000Z</time></trkpt>
<trkpt lat="41.726534" lon="23.492268"><ele>2789.7</ele><time>2026-03-15T11:50:39.000Z</time></trkpt>
<trkpt lat="41.726531" lon="23.492271"><ele>2789.7</ele><time>2026-03-15T11:50:40.000Z</time></trkpt>
<trkpt lat="41.726528" lon="23.492275"><ele>2789.7</ele><time>2026-03-15T11:50:41.000Z</time></trkpt>
<trkpt lat="41.726524" lon="23.492278"><ele>2789.6</ele><time>2026-03-15T11:50:42.000Z</time></trkpt>
<trkpt lat="41.72652" lon="23.492282"><ele>2789.6</ele><time>2026-03-15T11:50:43.000Z</time></trkpt>
<trkpt lat="41.726516" lon="23.492286"><ele>2789.6</ele><time>2026-03-15T11:50:44.000Z</time></trkpt>
<trkpt lat="41.726511" lon="23.492291"><ele>2789.6</ele><time>2026-03-15T11:50:45.000Z</time></trkpt>
<trkpt lat="41.726507" lon="23.492296"><ele>2789.6</ele><time>2026-03-15T11:50:46.000Z</time></trkpt>
<trkpt lat="41.726503" lon="23.492301"><ele>2789.6</ele><time>2026-03-15T11:50:47.000Z</time></trkpt>
<trkpt lat="41.726499" lon="23.492307"><ele>2789.6</ele><time>2026-03-15T11:50:48.000Z</time></trkpt>
<trkpt lat="41.726495" lon="23.492311"><ele>2789.6</ele><time>2026-03-15T11:50:49.000Z</time></trkpt>
<trkpt lat="41.726492" lon="23.492315"><ele>2789.6</ele><time>2026-03-15T11:50:50.000Z</time></trkpt>
<trkpt lat="41.726489" lon="23.492317"><ele>2789.6</ele><time>2026-03-15T11:50:51.000Z</time></trkpt>
<trkpt lat="41.726487" lon="23.49232"><ele>2789.7</ele><time>2026-03-15T11:50:52.000Z</time></trkpt>
<trkpt lat="41.726485" lon="23.492322"><ele>2789.7</ele><time>2026-03-15T11:50:53.000Z</time></trkpt>
<trkpt lat="41.726482" lon="23.492326"><ele>2789.7</ele><time>2026-03-15T11:50:54.000Z</time></trkpt>
<trkpt lat="41.72648" lon="23.492329"><ele>2789.7</ele><time>2026-03-15T11:50:55.000Z</time></trkpt>
<trkpt lat="41.726477" lon="23.492333"><ele>2789.7</ele><time>2026-03-15T11:50:56.000Z</time></trkpt>
<trkpt lat="41.726475" lon="23.492336"><ele>2789.9</ele><time>2026-03-15T11:50:57.000Z</time></trkpt>
<trkpt lat="41.726473" lon="23.492339"><ele>2789.9</ele><time>2026-03-15T11:50:58.000Z</time></trkpt>
<trkpt lat="41.726471" lon="23.492342"><ele>2789.9</ele><time>2026-03-15T11:50:59.000Z</time></trkpt>
<trkpt lat="41.72647" lon="23.492345"><ele>2789.9</ele><time>2026-03-15T11:51:00.000Z</time></trkpt>
<trkpt lat="41.726468" lon="23.492348"><ele>2789.9</ele><time>2026-03-15T11:51:01.000Z</time></trkpt>
<trkpt lat="41.726465" lon="23.492351"><ele>2790.1</ele><time>2026-03-15T11:51:02.000Z</time></trkpt>
<trkpt lat="41.726463" lon="23.492354"><ele>2790.1</ele><time>2026-03-15T11:51:03.000Z</time></trkpt>
<trkpt lat="41.72646" lon="23.492357"><ele>2790.1</ele><time>2026-03-15T11:51:04.000Z</time></trkpt>
<trkpt lat="41.726458" lon="23.49236"><ele>2790.1</ele><time>2026-03-15T11:51:05.000Z</time></trkpt>
<trkpt lat="41.726456" lon="23.492362"><ele>2790.1</ele><time>2026-03-15T11:51:06.000Z</time></trkpt>
<trkpt lat="41.726454" lon="23.492364"><ele>2790.3</ele><time>2026-03-15T11:51:07.000Z</time></trkpt>
<trkpt lat="41.726452" lon="23.492366"><ele>2790.3</ele><time>2026-03-15T11:51:08.000Z</time></trkpt>
<trkpt lat="41.726449" lon="23.492369"><ele>2790.3</ele><time>2026-03-15T11:51:09.000Z</time></trkpt>
<trkpt lat="41.726446" lon="23.492372"><ele>2790.3</ele><time>2026-03-15T11:51:10.000Z</time></trkpt>
<trkpt lat="41.726443" lon="23.492375"><ele>2790.3</ele><time>2026-03-15T11:51:11.000Z</time></trkpt>
<trkpt lat="41.72644" lon="23.492378"><ele>2790.4</ele><time>2026-03-15T11:51:12.000Z</time></trkpt>
<trkpt lat="41.726437" lon="23.492382"><ele>2790.4</ele><time>2026-03-15T11:51:13.000Z</time></trkpt>
<trkpt lat="41.726434" lon="23.492385"><ele>2790.4</ele><time>2026-03-15T11:51:14.000Z</time></trkpt>
<trkpt lat="41.72643" lon="23.492389"><ele>2790.4</ele><time>2026-03-15T11:51:15.000Z</time></trkpt>
<trkpt lat="41.726426" lon="23.492393"><ele>2790.4</ele><time>2026-03-15T11:51:16.000Z</time></trkpt>
<trkpt lat="41.726421" lon="23.492398"><ele>2790.5</ele><time>2026-03-15T11:51:17.000Z</time></trkpt>
<trkpt lat="41.726417" lon="23.492402"><ele>2790.5</ele><time>2026-03-15T11:51:18.000Z</time></trkpt>
<trkpt lat="41.726412" lon="23.492407"><ele>2790.5</ele><time>2026-03-15T11:51:19.000Z</time></trkpt>
<trkpt lat="41.726408" lon="23.492411"><ele>2790.5</ele><time>2026-03-15T11:51:20.000Z</time></trkpt>
<trkpt lat="41.726403" lon="23.492414"><ele>2790.5</ele><time>2026-03-15T11:51:21.000Z</time></trkpt>
<trkpt lat="41.726399" lon="23.492418"><ele>2790.9</ele><time>2026-03-15T11:51:22.000Z</time></trkpt>
<trkpt lat="41.726395" lon="23.492421"><ele>2790.9</ele><time>2026-03-15T11:51:23.000Z</time></trkpt>
<trkpt lat="41.726392" lon="23.492424"><ele>2790.9</ele><time>2026-03-15T11:51:24.000Z</time></trkpt>
<trkpt lat="41.726388" lon="23.492426"><ele>2790.9</ele><time>2026-03-15T11:51:25.000Z</time></trkpt>
<trkpt lat="41.726387" lon="23.492427"><ele>2790.9</ele><time>2026-03-15T11:51:26.000Z</time></trkpt>
<trkpt lat="41.726386" lon="23.492428"><ele>2791.6</ele><time>2026-03-15T11:51:27.000Z</time></trkpt>
<trkpt lat="41.726385" lon="23.492428"><ele>2791.6</ele><time>2026-03-15T11:51:28.000Z</time></trkpt>
<trkpt lat="41.726384" lon="23.492428"><ele>2791.6</ele><time>2026-03-15T11:51:29.000Z</time></trkpt>
<trkpt lat="41.726383" lon="23.492429"><ele>2791.6</ele><time>2026-03-15T11:51:30.000Z</time></trkpt>
<trkpt lat="41.726383" lon="23.492429"><ele>2791.6</ele><time>2026-03-15T11:51:31.000Z</time></trkpt>
<trkpt lat="41.726382" lon="23.492429"><ele>2792</ele><time>2026-03-15T11:51:32.000Z</time></trkpt>
<trkpt lat="41.726382" lon="23.492428"><ele>2792</ele><time>2026-03-15T11:51:33.000Z</time></trkpt>
<trkpt lat="41.726382" lon="23.492428"><ele>2792</ele><time>2026-03-15T11:51:34.000Z</time></trkpt>
<trkpt lat="41.726382" lon="23.492427"><ele>2792</ele><time>2026-03-15T11:51:35.000Z</time></trkpt>
<trkpt lat="41.726382" lon="23.492426"><ele>2792</ele><time>2026-03-15T11:51:36.000Z</time></trkpt>
<trkpt lat="41.726382" lon="23.492426"><ele>2792.7</ele><time>2026-03-15T11:51:37.000Z</time></trkpt>
<trkpt lat="41.726382" lon="23.492426"><ele>2792.7</ele><time>2026-03-15T11:51:38.000Z</time></trkpt>
<trkpt lat="41.726382" lon="23.492426"><ele>2792.7</ele><time>2026-03-15T11:51:39.000Z</time></trkpt>
<trkpt lat="41.726382" lon="23.492426"><ele>2792.7</ele><time>2026-03-15T11:51:40.000Z</time></trkpt>
<trkpt lat="41.726382" lon="23.492426"><ele>2792.7</ele><time>2026-03-15T11:51:41.000Z</time></trkpt>
<trkpt lat="41.726382" lon="23.492426"><ele>2793.4</ele><time>2026-03-15T11:51:42.000Z</time></trkpt>
<trkpt lat="41.726382" lon="23.492426"><ele>2793.4</ele><time>2026-03-15T11:51:43.000Z</time></trkpt>
<trkpt lat="41.726382" lon="23.492426"><ele>2793.4</ele><time>2026-03-15T11:51:44.000Z</time></trkpt>
<trkpt lat="41.726382" lon="23.492426"><ele>2793.4</ele><time>2026-03-15T11:51:45.000Z</time></trkpt>
<trkpt lat="41.726382" lon="23.492426"><ele>2793.4</ele><time>2026-03-15T11:51:46.000Z</time></trkpt>
<trkpt lat="41.726382" lon="23.492426"><ele>2793.5</ele><time>2026-03-15T11:51:47.000Z</time></trkpt>
<trkpt lat="41.726382" lon="23.492426"><ele>2793.5</ele><time>2026-03-15T11:51:48.000Z</time></trkpt>
<trkpt lat="41.726382" lon="23.492426"><ele>2793.5</ele><time>2026-03-15T11:51:49.000Z</time></trkpt>
<trkpt lat="41.726382" lon="23.492426"><ele>2793.5</ele><time>2026-03-15T11:51:50.000Z</time></trkpt>
<trkpt lat="41.726382" lon="23.492426"><ele>2793.5</ele><time>2026-03-15T11:51:51.000Z</time></trkpt>
<trkpt lat="41.726382" lon="23.492426"><ele>2793.6</ele><time>2026-03-15T11:51:52.000Z</time></trkpt>
<trkpt lat="41.726382" lon="23.492426"><ele>2793.6</ele><time>2026-03-15T11:51:53.000Z</time></trkpt>
<trkpt lat="41.726382" lon="23.492426"><ele>2793.6</ele><time>2026-03-15T11:51:54.000Z</time></trkpt>
<trkpt lat="41.726382" lon="23.492426"><ele>2793.6</ele><time>2026-03-15T11:51:55.000Z</time></trkpt>
<trkpt lat="41.726382" lon="23.492426"><ele>2793.6</ele><time>2026-03-15T11:51:56.000Z</time></trkpt>
<trkpt lat="41.726382" lon="23.492426"><ele>2793.3</ele><time>2026-03-15T11:51:57.000Z</time></trkpt>
<trkpt lat="41.726382" lon="23.492426"><ele>2793.3</ele><time>2026-03-15T11:51:58.000Z</time></trkpt>
<trkpt lat="41.726381" lon="23.492427"><ele>2793.3</ele><time>2026-03-15T11:51:59.000Z</time></trkpt>
<trkpt lat="41.726381" lon="23.492428"><ele>2793.3</ele><time>2026-03-15T11:52:00.000Z</time></trkpt>
<trkpt lat="41.726379" lon="23.49243"><ele>2793.3</ele><time>2026-03-15T11:52:01.000Z</time></trkpt>
<trkpt lat="41.726377" lon="23.492431"><ele>2793.2</ele><time>2026-03-15T11:52:02.000Z</time></trkpt>
<trkpt lat="41.726374" lon="23.492433"><ele>2793.2</ele><time>2026-03-15T11:52:03.000Z</time></trkpt>
<trkpt lat="41.726372" lon="23.492435"><ele>2793.2</ele><time>2026-03-15T11:52:04.000Z</time></trkpt>
<trkpt lat="41.72637" lon="23.492436"><ele>2793.2</ele><time>2026-03-15T11:52:05.000Z</time></trkpt>
<trkpt lat="41.726368" lon="23.492437"><ele>2793.2</ele><time>2026-03-15T11:52:06.000Z</time></trkpt>
<trkpt lat="41.726365" lon="23.49244"><ele>2793.1</ele><time>2026-03-15T11:52:07.000Z</time></trkpt>
<trkpt lat="41.726364" lon="23.492442"><ele>2793.1</ele><time>2026-03-15T11:52:08.000Z</time></trkpt>
<trkpt lat="41.726362" lon="23.492446"><ele>2793.1</ele><time>2026-03-15T11:52:09.000Z</time></trkpt>
<trkpt lat="41.72636" lon="23.492449"><ele>2793.1</ele><time>2026-03-15T11:52:10.000Z</time></trkpt>
<trkpt lat="41.726358" lon="23.492451"><ele>2793.1</ele><time>2026-03-15T11:52:11.000Z</time></trkpt>
<trkpt lat="41.726356" lon="23.492453"><ele>2793.5</ele><time>2026-03-15T11:52:12.000Z</time></trkpt>
<trkpt lat="41.726354" lon="23.492456"><ele>2793.5</ele><time>2026-03-15T11:52:13.000Z</time></trkpt>
<trkpt lat="41.726351" lon="23.492458"><ele>2793.5</ele><time>2026-03-15T11:52:14.000Z</time></trkpt>
<trkpt lat="41.726349" lon="23.49246"><ele>2793.5</ele><time>2026-03-15T11:52:15.000Z</time></trkpt>
<trkpt lat="41.726346" lon="23.492463"><ele>2793.5</ele><time>2026-03-15T11:52:16.000Z</time></trkpt>
<trkpt lat="41.726344" lon="23.492467"><ele>2793.8</ele><time>2026-03-15T11:52:17.000Z</time></trkpt>
<trkpt lat="41.726342" lon="23.49247"><ele>2793.8</ele><time>2026-03-15T11:52:18.000Z</time></trkpt>
<trkpt lat="41.72634" lon="23.492474"><ele>2793.8</ele><time>2026-03-15T11:52:19.000Z</time></trkpt>
<trkpt lat="41.726337" lon="23.492479"><ele>2793.8</ele><time>2026-03-15T11:52:20.000Z</time></trkpt>
<trkpt lat="41.726335" lon="23.492482"><ele>2793.8</ele><time>2026-03-15T11:52:21.000Z</time></trkpt>
<trkpt lat="41.726333" lon="23.492485"><ele>2794.4</ele><time>2026-03-15T11:52:22.000Z</time></trkpt>
<trkpt lat="41.72633" lon="23.492487"><ele>2794.4</ele><time>2026-03-15T11:52:23.000Z</time></trkpt>
<trkpt lat="41.726328" lon="23.49249"><ele>2794.4</ele><time>2026-03-15T11:52:24.000Z</time></trkpt>
<trkpt lat="41.726327" lon="23.492491"><ele>2794.4</ele><time>2026-03-15T11:52:25.000Z</time></trkpt>
<trkpt lat="41.726325" lon="23.492493"><ele>2794.4</ele><time>2026-03-15T11:52:26.000Z</time></trkpt>
<trkpt lat="41.726323" lon="23.492495"><ele>2794.8</ele><time>2026-03-15T11:52:27.000Z</time></trkpt>
<trkpt lat="41.726321" lon="23.492498"><ele>2794.8</ele><time>2026-03-15T11:52:28.000Z</time></trkpt>
<trkpt lat="41.726319" lon="23.492501"><ele>2794.8</ele><time>2026-03-15T11:52:29.000Z</time></trkpt>
<trkpt lat="41.726317" lon="23.492505"><ele>2794.8</ele><time>2026-03-15T11:52:30.000Z</time></trkpt>
<trkpt lat="41.726315" lon="23.492508"><ele>2794.8</ele><time>2026-03-15T11:52:31.000Z</time></trkpt>
<trkpt lat="41.726313" lon="23.492512"><ele>2795</ele><time>2026-03-15T11:52:32.000Z</time></trkpt>
<trkpt lat="41.726311" lon="23.492516"><ele>2795</ele><time>2026-03-15T11:52:33.000Z</time></trkpt>
<trkpt lat="41.726308" lon="23.492518"><ele>2795</ele><time>2026-03-15T11:52:34.000Z</time></trkpt>
<trkpt lat="41.726306" lon="23.49252"><ele>2795</ele><time>2026-03-15T11:52:35.000Z</time></trkpt>
<trkpt lat="41.726304" lon="23.492522"><ele>2795</ele><time>2026-03-15T11:52:36.000Z</time></trkpt>
<trkpt lat="41.726302" lon="23.492525"><ele>2795.3</ele><time>2026-03-15T11:52:37.000Z</time></trkpt>
<trkpt lat="41.7263" lon="23.492528"><ele>2795.3</ele><time>2026-03-15T11:52:38.000Z</time></trkpt>
<trkpt lat="41.726298" lon="23.492531"><ele>2795.3</ele><time>2026-03-15T11:52:39.000Z</time></trkpt>
<trkpt lat="41.726295" lon="23.492535"><ele>2795.3</ele><time>2026-03-15T11:52:40.000Z</time></trkpt>
<trkpt lat="41.726292" lon="23.49254"><ele>2795.3</ele><time>2026-03-15T11:52:41.000Z</time></trkpt>
<trkpt lat="41.726288" lon="23.492546"><ele>2795.7</ele><time>2026-03-15T11:52:42.000Z</time></trkpt>
<trkpt lat="41.726284" lon="23.492553"><ele>2795.7</ele><time>2026-03-15T11:52:43.000Z</time></trkpt>
<trkpt lat="41.72628" lon="23.49256"><ele>2795.7</ele><time>2026-03-15T11:52:44.000Z</time></trkpt>
<trkpt lat="41.726275" lon="23.492567"><ele>2795.7</ele><time>2026-03-15T11:52:45.000Z</time></trkpt>
<trkpt lat="41.72627" lon="23.492575"><ele>2795.7</ele><time>2026-03-15T11:52:46.000Z</time></trkpt>
<trkpt lat="41.726265" lon="23.492582"><ele>2795.9</ele><time>2026-03-15T11:52:47.000Z</time></trkpt>
<trkpt lat="41.72626" lon="23.492589"><ele>2795.9</ele><time>2026-03-15T11:52:48.000Z</time></trkpt>
<trkpt lat="41.726254" lon="23.492596"><ele>2795.9</ele><time>2026-03-15T11:52:49.000Z</time></trkpt>
<trkpt lat="41.726249" lon="23.492603"><ele>2795.9</ele><time>2026-03-15T11:52:50.000Z</time></trkpt>
<trkpt lat="41.726244" lon="23.492609"><ele>2795.9</ele><time>2026-03-15T11:52:51.000Z</time></trkpt>
<trkpt lat="41.726239" lon="23.492616"><ele>2796.5</ele><time>2026-03-15T11:52:52.000Z</time></trkpt>
<trkpt lat="41.726233" lon="23.492622"><ele>2796.5</ele><time>2026-03-15T11:52:53.000Z</time></trkpt>
<trkpt lat="41.726228" lon="23.492628"><ele>2796.5</ele><time>2026-03-15T11:52:54.000Z</time></trkpt>
<trkpt lat="41.726223" lon="23.492634"><ele>2796.5</ele><time>2026-03-15T11:52:55.000Z</time></trkpt>
<trkpt lat="41.726219" lon="23.492638"><ele>2796.5</ele><time>2026-03-15T11:52:56.000Z</time></trkpt>
<trkpt lat="41.726216" lon="23.492641"><ele>2797.2</ele><time>2026-03-15T11:52:57.000Z</time></trkpt>
<trkpt lat="41.726213" lon="23.492644"><ele>2797.2</ele><time>2026-03-15T11:52:58.000Z</time></trkpt>
<trkpt lat="41.72621" lon="23.492646"><ele>2797.2</ele><time>2026-03-15T11:52:59.000Z</time></trkpt>
<trkpt lat="41.726208" lon="23.492647"><ele>2797.2</ele><time>2026-03-15T11:53:00.000Z</time></trkpt>
<trkpt lat="41.726205" lon="23.492648"><ele>2797.2</ele><time>2026-03-15T11:53:01.000Z</time></trkpt>
<trkpt lat="41.726203" lon="23.492649"><ele>2797.6</ele><time>2026-03-15T11:53:02.000Z</time></trkpt>
<trkpt lat="41.726201" lon="23.49265"><ele>2797.6</ele><time>2026-03-15T11:53:03.000Z</time></trkpt>
<trkpt lat="41.726201" lon="23.492649"><ele>2797.6</ele><time>2026-03-15T11:53:04.000Z</time></trkpt>
<trkpt lat="41.726201" lon="23.492648"><ele>2797.6</ele><time>2026-03-15T11:53:05.000Z</time></trkpt>
<trkpt lat="41.726201" lon="23.492647"><ele>2797.6</ele><time>2026-03-15T11:53:06.000Z</time></trkpt>
<trkpt lat="41.726201" lon="23.492647"><ele>2798.6</ele><time>2026-03-15T11:53:07.000Z</time></trkpt>
<trkpt lat="41.726201" lon="23.492646"><ele>2798.6</ele><time>2026-03-15T11:53:08.000Z</time></trkpt>
<trkpt lat="41.726201" lon="23.492646"><ele>2798.6</ele><time>2026-03-15T11:53:09.000Z</time></trkpt>
<trkpt lat="41.726201" lon="23.492646"><ele>2798.6</ele><time>2026-03-15T11:53:10.000Z</time></trkpt>
<trkpt lat="41.726201" lon="23.492646"><ele>2798.6</ele><time>2026-03-15T11:53:11.000Z</time></trkpt>
<trkpt lat="41.726201" lon="23.492646"><ele>2799.3</ele><time>2026-03-15T11:53:12.000Z</time></trkpt>
<trkpt lat="41.726201" lon="23.492647"><ele>2799.3</ele><time>2026-03-15T11:53:13.000Z</time></trkpt>
<trkpt lat="41.726201" lon="23.492647"><ele>2799.3</ele><time>2026-03-15T11:53:14.000Z</time></trkpt>
<trkpt lat="41.726202" lon="23.492647"><ele>2799.3</ele><time>2026-03-15T11:53:15.000Z</time></trkpt>
<trkpt lat="41.726202" lon="23.492647"><ele>2799.3</ele><time>2026-03-15T11:53:16.000Z</time></trkpt>
<trkpt lat="41.726202" lon="23.492648"><ele>2799.6</ele><time>2026-03-15T11:53:17.000Z</time></trkpt>
<trkpt lat="41.726202" lon="23.492648"><ele>2799.6</ele><time>2026-03-15T11:53:18.000Z</time></trkpt>
<trkpt lat="41.726202" lon="23.492648"><ele>2799.6</ele><time>2026-03-15T11:53:19.000Z</time></trkpt>
<trkpt lat="41.726202" lon="23.492648"><ele>2799.6</ele><time>2026-03-15T11:53:20.000Z</time></trkpt>
<trkpt lat="41.726202" lon="23.492648"><ele>2799.6</ele><time>2026-03-15T11:53:21.000Z</time></trkpt>
<trkpt lat="41.726202" lon="23.492649"><ele>2799.8</ele><time>2026-03-15T11:53:22.000Z</time></trkpt>
<trkpt lat="41.726202" lon="23.492649"><ele>2799.8</ele><time>2026-03-15T11:53:23.000Z</time></trkpt>
<trkpt lat="41.726202" lon="23.492649"><ele>2799.8</ele><time>2026-03-15T11:53:24.000Z</time></trkpt>
<trkpt lat="41.726202" lon="23.492649"><ele>2799.8</ele><time>2026-03-15T11:53:25.000Z</time></trkpt>
<trkpt lat="41.726202" lon="23.492649"><ele>2799.8</ele><time>2026-03-15T11:53:26.000Z</time></trkpt>
<trkpt lat="41.726202" lon="23.492649"><ele>2799.9</ele><time>2026-03-15T11:53:27.000Z</time></trkpt>
<trkpt lat="41.726202" lon="23.492649"><ele>2799.9</ele><time>2026-03-15T11:53:28.000Z</time></trkpt>
<trkpt lat="41.726202" lon="23.492649"><ele>2799.9</ele><time>2026-03-15T11:53:29.000Z</time></trkpt>
<trkpt lat="41.726202" lon="23.492649"><ele>2799.9</ele><time>2026-03-15T11:53:30.000Z</time></trkpt>
<trkpt lat="41.726202" lon="23.492649"><ele>2799.9</ele><time>2026-03-15T11:53:31.000Z</time></trkpt>
<trkpt lat="41.726202" lon="23.492649"><ele>2800</ele><time>2026-03-15T11:53:32.000Z</time></trkpt>
<trkpt lat="41.726203" lon="23.492649"><ele>2800</ele><time>2026-03-15T11:53:33.000Z</time></trkpt>
<trkpt lat="41.726203" lon="23.492649"><ele>2800</ele><time>2026-03-15T11:53:34.000Z</time></trkpt>
<trkpt lat="41.726203" lon="23.49265"><ele>2800</ele><time>2026-03-15T11:53:35.000Z</time></trkpt>
<trkpt lat="41.726203" lon="23.49265"><ele>2800</ele><time>2026-03-15T11:53:36.000Z</time></trkpt>
<trkpt lat="41.726203" lon="23.49265"><ele>2800.1</ele><time>2026-03-15T11:53:37.000Z</time></trkpt>
<trkpt lat="41.726203" lon="23.49265"><ele>2800.1</ele><time>2026-03-15T11:53:38.000Z</time></trkpt>
<trkpt lat="41.726203" lon="23.49265"><ele>2800.1</ele><time>2026-03-15T11:53:39.000Z</time></trkpt>
<trkpt lat="41.726203" lon="23.49265"><ele>2800.1</ele><time>2026-03-15T11:53:40.000Z</time></trkpt>
<trkpt lat="41.726203" lon="23.49265"><ele>2800.1</ele><time>2026-03-15T11:53:41.000Z</time></trkpt>
<trkpt lat="41.726203" lon="23.49265"><ele>2800.2</ele><time>2026-03-15T11:53:42.000Z</time></trkpt>
<trkpt lat="41.726203" lon="23.49265"><ele>2800.2</ele><time>2026-03-15T11:53:43.000Z</time></trkpt>
<trkpt lat="41.726202" lon="23.492651"><ele>2800.2</ele><time>2026-03-15T11:53:44.000Z</time></trkpt>
<trkpt lat="41.726201" lon="23.492653"><ele>2800.2</ele><time>2026-03-15T11:53:45.000Z</time></trkpt>
<trkpt lat="41.726199" lon="23.492655"><ele>2800.2</ele><time>2026-03-15T11:53:46.000Z</time></trkpt>
<trkpt lat="41.726197" lon="23.492657"><ele>2800.2</ele><time>2026-03-15T11:53:47.000Z</time></trkpt>
<trkpt lat="41.726195" lon="23.492659"><ele>2800.2</ele><time>2026-03-15T11:53:48.000Z</time></trkpt>
<trkpt lat="41.726193" lon="23.49266"><ele>2800.2</ele><time>2026-03-15T11:53:49.000Z</time></trkpt>
<trkpt lat="41.726191" lon="23.492661"><ele>2800.2</ele><time>2026-03-15T11:53:50.000Z</time></trkpt>
<trkpt lat="41.72619" lon="23.492661"><ele>2800.2</ele><time>2026-03-15T11:53:51.000Z</time></trkpt>
<trkpt lat="41.726188" lon="23.492661"><ele>2800.3</ele><time>2026-03-15T11:53:52.000Z</time></trkpt>
<trkpt lat="41.726185" lon="23.492662"><ele>2800.3</ele><time>2026-03-15T11:53:53.000Z</time></trkpt>
<trkpt lat="41.726182" lon="23.492663"><ele>2800.3</ele><time>2026-03-15T11:53:54.000Z</time></trkpt>
<trkpt lat="41.72618" lon="23.492664"><ele>2800.3</ele><time>2026-03-15T11:53:55.000Z</time></trkpt>
<trkpt lat="41.726177" lon="23.492665"><ele>2800.3</ele><time>2026-03-15T11:53:56.000Z</time></trkpt>
<trkpt lat="41.726174" lon="23.492667"><ele>2800.5</ele><time>2026-03-15T11:53:57.000Z</time></trkpt>
<trkpt lat="41.726172" lon="23.492668"><ele>2800.5</ele><time>2026-03-15T11:53:58.000Z</time></trkpt>
<trkpt lat="41.72617" lon="23.49267"><ele>2800.5</ele><time>2026-03-15T11:53:59.000Z</time></trkpt>
<trkpt lat="41.726168" lon="23.492673"><ele>2800.5</ele><time>2026-03-15T11:54:00.000Z</time></trkpt>
<trkpt lat="41.726166" lon="23.492675"><ele>2800.5</ele><time>2026-03-15T11:54:01.000Z</time></trkpt>
<trkpt lat="41.726164" lon="23.492677"><ele>2800.8</ele><time>2026-03-15T11:54:02.000Z</time></trkpt>
<trkpt lat="41.726161" lon="23.492679"><ele>2800.8</ele><time>2026-03-15T11:54:03.000Z</time></trkpt>
<trkpt lat="41.726158" lon="23.492682"><ele>2800.8</ele><time>2026-03-15T11:54:04.000Z</time></trkpt>
<trkpt lat="41.726155" lon="23.492685"><ele>2800.8</ele><time>2026-03-15T11:54:05.000Z</time></trkpt>
<trkpt lat="41.726152" lon="23.492688"><ele>2800.8</ele><time>2026-03-15T11:54:06.000Z</time></trkpt>
<trkpt lat="41.726149" lon="23.492691"><ele>2801.6</ele><time>2026-03-15T11:54:07.000Z</time></trkpt>
<trkpt lat="41.726146" lon="23.492695"><ele>2801.6</ele><time>2026-03-15T11:54:08.000Z</time></trkpt>
<trkpt lat="41.726144" lon="23.492699"><ele>2801.6</ele><time>2026-03-15T11:54:09.000Z</time></trkpt>
<trkpt lat="41.726141" lon="23.492702"><ele>2801.6</ele><time>2026-03-15T11:54:10.000Z</time></trkpt>
<trkpt lat="41.726139" lon="23.492706"><ele>2801.6</ele><time>2026-03-15T11:54:11.000Z</time></trkpt>
<trkpt lat="41.726136" lon="23.49271"><ele>2802.7</ele><time>2026-03-15T11:54:12.000Z</time></trkpt>
<trkpt lat="41.726133" lon="23.492714"><ele>2802.7</ele><time>2026-03-15T11:54:13.000Z</time></trkpt>
<trkpt lat="41.726129" lon="23.492719"><ele>2802.7</ele><time>2026-03-15T11:54:14.000Z</time></trkpt>
<trkpt lat="41.726126" lon="23.492722"><ele>2802.7</ele><time>2026-03-15T11:54:15.000Z</time></trkpt>
<trkpt lat="41.726122" lon="23.492725"><ele>2802.7</ele><time>2026-03-15T11:54:16.000Z</time></trkpt>
<trkpt lat="41.72612" lon="23.492727"><ele>2803.2</ele><time>2026-03-15T11:54:17.000Z</time></trkpt>
<trkpt lat="41.726117" lon="23.49273"><ele>2803.2</ele><time>2026-03-15T11:54:18.000Z</time></trkpt>
<trkpt lat="41.726113" lon="23.492733"><ele>2803.2</ele><time>2026-03-15T11:54:19.000Z</time></trkpt>
<trkpt lat="41.72611" lon="23.492737"><ele>2803.2</ele><time>2026-03-15T11:54:20.000Z</time></trkpt>
<trkpt lat="41.726106" lon="23.49274"><ele>2803.2</ele><time>2026-03-15T11:54:21.000Z</time></trkpt>
<trkpt lat="41.726102" lon="23.492744"><ele>2804.1</ele><time>2026-03-15T11:54:22.000Z</time></trkpt>
<trkpt lat="41.726098" lon="23.492748"><ele>2804.1</ele><time>2026-03-15T11:54:23.000Z</time></trkpt>
<trkpt lat="41.726094" lon="23.49275"><ele>2804.1</ele><time>2026-03-15T11:54:24.000Z</time></trkpt>
<trkpt lat="41.726091" lon="23.492752"><ele>2804.1</ele><time>2026-03-15T11:54:25.000Z</time></trkpt>
<trkpt lat="41.726087" lon="23.492755"><ele>2804.1</ele><time>2026-03-15T11:54:26.000Z</time></trkpt>
<trkpt lat="41.726084" lon="23.492757"><ele>2805</ele><time>2026-03-15T11:54:27.000Z</time></trkpt>
<trkpt lat="41.726082" lon="23.492759"><ele>2805</ele><time>2026-03-15T11:54:28.000Z</time></trkpt>
<trkpt lat="41.726079" lon="23.492762"><ele>2805</ele><time>2026-03-15T11:54:29.000Z</time></trkpt>
<trkpt lat="41.726075" lon="23.492764"><ele>2805</ele><time>2026-03-15T11:54:30.000Z</time></trkpt>
<trkpt lat="41.726072" lon="23.492768"><ele>2805</ele><time>2026-03-15T11:54:31.000Z</time></trkpt>
<trkpt lat="41.726069" lon="23.492771"><ele>2805.4</ele><time>2026-03-15T11:54:32.000Z</time></trkpt>
<trkpt lat="41.726064" lon="23.492775"><ele>2805.4</ele><time>2026-03-15T11:54:33.000Z</time></trkpt>
<trkpt lat="41.72606" lon="23.492779"><ele>2805.4</ele><time>2026-03-15T11:54:34.000Z</time></trkpt>
<trkpt lat="41.726057" lon="23.492783"><ele>2805.4</ele><time>2026-03-15T11:54:35.000Z</time></trkpt>
<trkpt lat="41.726053" lon="23.492786"><ele>2805.4</ele><time>2026-03-15T11:54:36.000Z</time></trkpt>
<trkpt lat="41.72605" lon="23.492789"><ele>2806.5</ele><time>2026-03-15T11:54:37.000Z</time></trkpt>
<trkpt lat="41.726047" lon="23.492791"><ele>2806.5</ele><time>2026-03-15T11:54:38.000Z</time></trkpt>
<trkpt lat="41.726045" lon="23.492792"><ele>2806.5</ele><time>2026-03-15T11:54:39.000Z</time></trkpt>
<trkpt lat="41.726043" lon="23.492793"><ele>2806.5</ele><time>2026-03-15T11:54:40.000Z</time></trkpt>
<trkpt lat="41.726043" lon="23.492794"><ele>2806.5</ele><time>2026-03-15T11:54:41.000Z</time></trkpt>
<trkpt lat="41.726043" lon="23.492793"><ele>2807.6</ele><time>2026-03-15T11:54:42.000Z</time></trkpt>
<trkpt lat="41.726043" lon="23.492792"><ele>2807.6</ele><time>2026-03-15T11:54:43.000Z</time></trkpt>
<trkpt lat="41.726043" lon="23.492792"><ele>2807.6</ele><time>2026-03-15T11:54:44.000Z</time></trkpt>
<trkpt lat="41.726043" lon="23.492792"><ele>2807.6</ele><time>2026-03-15T11:54:45.000Z</time></trkpt>
<trkpt lat="41.726043" lon="23.492791"><ele>2807.6</ele><time>2026-03-15T11:54:46.000Z</time></trkpt>
<trkpt lat="41.726043" lon="23.492791"><ele>2808.2</ele><time>2026-03-15T11:54:47.000Z</time></trkpt>
<trkpt lat="41.726043" lon="23.492791"><ele>2808.2</ele><time>2026-03-15T11:54:48.000Z</time></trkpt>
<trkpt lat="41.726043" lon="23.492791"><ele>2808.2</ele><time>2026-03-15T11:54:49.000Z</time></trkpt>
<trkpt lat="41.726043" lon="23.492791"><ele>2808.2</ele><time>2026-03-15T11:54:50.000Z</time></trkpt>
<trkpt lat="41.726043" lon="23.492791"><ele>2808.2</ele><time>2026-03-15T11:54:51.000Z</time></trkpt>
<trkpt lat="41.726042" lon="23.492792"><ele>2809</ele><time>2026-03-15T11:54:52.000Z</time></trkpt>
<trkpt lat="41.726042" lon="23.492792"><ele>2809</ele><time>2026-03-15T11:54:53.000Z</time></trkpt>
<trkpt lat="41.726041" lon="23.492792"><ele>2809</ele><time>2026-03-15T11:54:54.000Z</time></trkpt>
<trkpt lat="41.72604" lon="23.492793"><ele>2809</ele><time>2026-03-15T11:54:55.000Z</time></trkpt>
<trkpt lat="41.72604" lon="23.492793"><ele>2809</ele><time>2026-03-15T11:54:56.000Z</time></trkpt>
<trkpt lat="41.72604" lon="23.492794"><ele>2809.4</ele><time>2026-03-15T11:54:57.000Z</time></trkpt>
<trkpt lat="41.72604" lon="23.492795"><ele>2809.4</ele><time>2026-03-15T11:54:58.000Z</time></trkpt>
<trkpt lat="41.726039" lon="23.492796"><ele>2809.4</ele><time>2026-03-15T11:54:59.000Z</time></trkpt>
<trkpt lat="41.726039" lon="23.492797"><ele>2809.4</ele><time>2026-03-15T11:55:00.000Z</time></trkpt>
<trkpt lat="41.726039" lon="23.492797"><ele>2809.4</ele><time>2026-03-15T11:55:01.000Z</time></trkpt>
<trkpt lat="41.726039" lon="23.492798"><ele>2809.4</ele><time>2026-03-15T11:55:02.000Z</time></trkpt>
<trkpt lat="41.72604" lon="23.492798"><ele>2809.4</ele><time>2026-03-15T11:55:03.000Z</time></trkpt>
<trkpt lat="41.726041" lon="23.492799"><ele>2809.4</ele><time>2026-03-15T11:55:04.000Z</time></trkpt>
<trkpt lat="41.726042" lon="23.492799"><ele>2809.4</ele><time>2026-03-15T11:55:05.000Z</time></trkpt>
<trkpt lat="41.726043" lon="23.4928"><ele>2809.4</ele><time>2026-03-15T11:55:06.000Z</time></trkpt>
<trkpt lat="41.726043" lon="23.492801"><ele>2809.4</ele><time>2026-03-15T11:55:07.000Z</time></trkpt>
<trkpt lat="41.726044" lon="23.492801"><ele>2809.4</ele><time>2026-03-15T11:55:08.000Z</time></trkpt>
<trkpt lat="41.726044" lon="23.492801"><ele>2809.4</ele><time>2026-03-15T11:55:09.000Z</time></trkpt>
<trkpt lat="41.726045" lon="23.492801"><ele>2809.4</ele><time>2026-03-15T11:55:10.000Z</time></trkpt>
<trkpt lat="41.726044" lon="23.492801"><ele>2809.4</ele><time>2026-03-15T11:55:11.000Z</time></trkpt>
<trkpt lat="41.726044" lon="23.492801"><ele>2809.6</ele><time>2026-03-15T11:55:12.000Z</time></trkpt>
<trkpt lat="41.726044" lon="23.4928"><ele>2809.6</ele><time>2026-03-15T11:55:13.000Z</time></trkpt>
<trkpt lat="41.726043" lon="23.4928"><ele>2809.6</ele><time>2026-03-15T11:55:14.000Z</time></trkpt>
<trkpt lat="41.726043" lon="23.4928"><ele>2809.6</ele><time>2026-03-15T11:55:15.000Z</time></trkpt>
<trkpt lat="41.726043" lon="23.4928"><ele>2809.6</ele><time>2026-03-15T11:55:16.000Z</time></trkpt>
<trkpt lat="41.726043" lon="23.4928"><ele>2809.6</ele><time>2026-03-15T11:55:17.000Z</time></trkpt>
<trkpt lat="41.726044" lon="23.4928"><ele>2809.6</ele><time>2026-03-15T11:55:18.000Z</time></trkpt>
<trkpt lat="41.726044" lon="23.4928"><ele>2809.6</ele><time>2026-03-15T11:55:19.000Z</time></trkpt>
<trkpt lat="41.726045" lon="23.4928"><ele>2809.6</ele><time>2026-03-15T11:55:20.000Z</time></trkpt>
<trkpt lat="41.726045" lon="23.492799"><ele>2809.6</ele><time>2026-03-15T11:55:21.000Z</time></trkpt>
<trkpt lat="41.726045" lon="23.4928"><ele>2809.5</ele><time>2026-03-15T11:55:22.000Z</time></trkpt>
<trkpt lat="41.726045" lon="23.492802"><ele>2809.5</ele><time>2026-03-15T11:55:23.000Z</time></trkpt>
<trkpt lat="41.726044" lon="23.492803"><ele>2809.5</ele><time>2026-03-15T11:55:24.000Z</time></trkpt>
<trkpt lat="41.726044" lon="23.492805"><ele>2809.5</ele><time>2026-03-15T11:55:25.000Z</time></trkpt>
<trkpt lat="41.726043" lon="23.492807"><ele>2809.5</ele><time>2026-03-15T11:55:26.000Z</time></trkpt>
<trkpt lat="41.726043" lon="23.492808"><ele>2809.3</ele><time>2026-03-15T11:55:27.000Z</time></trkpt>
<trkpt lat="41.726043" lon="23.492808"><ele>2809.3</ele><time>2026-03-15T11:55:28.000Z</time></trkpt>
<trkpt lat="41.726043" lon="23.492808"><ele>2809.3</ele><time>2026-03-15T11:55:29.000Z</time></trkpt>
<trkpt lat="41.726043" lon="23.492807"><ele>2809.3</ele><time>2026-03-15T11:55:30.000Z</time></trkpt>
<trkpt lat="41.726044" lon="23.492807"><ele>2809.3</ele><time>2026-03-15T11:55:31.000Z</time></trkpt>
<trkpt lat="41.726044" lon="23.492807"><ele>2809.3</ele><time>2026-03-15T11:55:32.000Z</time></trkpt>
<trkpt lat="41.726044" lon="23.492807"><ele>2809.3</ele><time>2026-03-15T11:55:33.000Z</time></trkpt>
<trkpt lat="41.726044" lon="23.492807"><ele>2809.3</ele><time>2026-03-15T11:55:34.000Z</time></trkpt>
<trkpt lat="41.726044" lon="23.492808"><ele>2809.3</ele><time>2026-03-15T11:55:35.000Z</time></trkpt>
<trkpt lat="41.726044" lon="23.492808"><ele>2809.3</ele><time>2026-03-15T11:55:36.000Z</time></trkpt>
<trkpt lat="41.726044" lon="23.492808"><ele>2809.2</ele><time>2026-03-15T11:55:37.000Z</time></trkpt>
<trkpt lat="41.726044" lon="23.492808"><ele>2809.2</ele><time>2026-03-15T11:55:38.000Z</time></trkpt>
<trkpt lat="41.726044" lon="23.492808"><ele>2809.2</ele><time>2026-03-15T11:55:39.000Z</time></trkpt>
<trkpt lat="41.726044" lon="23.492808"><ele>2809.2</ele><time>2026-03-15T11:55:40.000Z</time></trkpt>
<trkpt lat="41.726044" lon="23.492808"><ele>2809.2</ele><time>2026-03-15T11:55:41.000Z</time></trkpt>
<trkpt lat="41.726044" lon="23.492808"><ele>2809</ele><time>2026-03-15T11:55:42.000Z</time></trkpt>
<trkpt lat="41.726044" lon="23.492808"><ele>2809</ele><time>2026-03-15T11:55:43.000Z</time></trkpt>
<trkpt lat="41.726044" lon="23.492808"><ele>2809</ele><time>2026-03-15T11:55:44.000Z</time></trkpt>
<trkpt lat="41.726044" lon="23.492808"><ele>2809</ele><time>2026-03-15T11:55:45.000Z</time></trkpt>
<trkpt lat="41.726044" lon="23.492808"><ele>2809</ele><time>2026-03-15T11:55:46.000Z</time></trkpt>
<trkpt lat="41.726044" lon="23.492808"><ele>2809</ele><time>2026-03-15T11:55:47.000Z</time></trkpt>
<trkpt lat="41.726044" lon="23.492808"><ele>2809</ele><time>2026-03-15T11:55:48.000Z</time></trkpt>
<trkpt lat="41.726044" lon="23.492808"><ele>2809</ele><time>2026-03-15T11:55:49.000Z</time></trkpt>
<trkpt lat="41.726044" lon="23.492808"><ele>2809</ele><time>2026-03-15T11:55:50.000Z</time></trkpt>
<trkpt lat="41.726044" lon="23.492808"><ele>2809</ele><time>2026-03-15T11:55:51.000Z</time></trkpt>
<trkpt lat="41.726044" lon="23.492808"><ele>2808.8</ele><time>2026-03-15T11:55:52.000Z</time></trkpt>
<trkpt lat="41.726044" lon="23.492808"><ele>2808.8</ele><time>2026-03-15T11:55:53.000Z</time></trkpt>
<trkpt lat="41.726044" lon="23.492808"><ele>2808.8</ele><time>2026-03-15T11:55:54.000Z</time></trkpt>
<trkpt lat="41.726044" lon="23.492808"><ele>2808.8</ele><time>2026-03-15T11:55:55.000Z</time></trkpt>
<trkpt lat="41.726044" lon="23.492808"><ele>2808.8</ele><time>2026-03-15T11:55:56.000Z</time></trkpt>
<trkpt lat="41.726045" lon="23.492808"><ele>2808.8</ele><time>2026-03-15T11:55:57.000Z</time></trkpt>
<trkpt lat="41.726045" lon="23.492807"><ele>2808.8</ele><time>2026-03-15T11:55:58.000Z</time></trkpt>
<trkpt lat="41.726046" lon="23.492807"><ele>2808.8</ele><time>2026-03-15T11:55:59.000Z</time></trkpt>
<trkpt lat="41.726047" lon="23.492807"><ele>2808.8</ele><time>2026-03-15T11:56:00.000Z</time></trkpt>
<trkpt lat="41.726047" lon="23.492807"><ele>2808.8</ele><time>2026-03-15T11:56:01.000Z</time></trkpt>
<trkpt lat="41.726045" lon="23.492809"><ele>2808.8</ele><time>2026-03-15T11:56:02.000Z</time></trkpt>
<trkpt lat="41.726043" lon="23.492812"><ele>2808.8</ele><time>2026-03-15T11:56:03.000Z</time></trkpt>
<trkpt lat="41.726041" lon="23.492815"><ele>2808.8</ele><time>2026-03-15T11:56:04.000Z</time></trkpt>
<trkpt lat="41.726038" lon="23.492818"><ele>2808.8</ele><time>2026-03-15T11:56:05.000Z</time></trkpt>
<trkpt lat="41.726035" lon="23.492821"><ele>2808.8</ele><time>2026-03-15T11:56:06.000Z</time></trkpt>
<trkpt lat="41.726032" lon="23.492824"><ele>2808.8</ele><time>2026-03-15T11:56:07.000Z</time></trkpt>
<trkpt lat="41.726029" lon="23.492827"><ele>2808.8</ele><time>2026-03-15T11:56:08.000Z</time></trkpt>
<trkpt lat="41.726026" lon="23.49283"><ele>2808.8</ele><time>2026-03-15T11:56:09.000Z</time></trkpt>
<trkpt lat="41.726023" lon="23.492832"><ele>2808.8</ele><time>2026-03-15T11:56:10.000Z</time></trkpt>
<trkpt lat="41.72602" lon="23.492834"><ele>2808.8</ele><time>2026-03-15T11:56:11.000Z</time></trkpt>
<trkpt lat="41.726019" lon="23.492835"><ele>2808.8</ele><time>2026-03-15T11:56:12.000Z</time></trkpt>
<trkpt lat="41.726018" lon="23.492836"><ele>2808.8</ele><time>2026-03-15T11:56:13.000Z</time></trkpt>
<trkpt lat="41.726017" lon="23.492838"><ele>2808.8</ele><time>2026-03-15T11:56:14.000Z</time></trkpt>
<trkpt lat="41.726017" lon="23.492841"><ele>2808.8</ele><time>2026-03-15T11:56:15.000Z</time></trkpt>
<trkpt lat="41.726017" lon="23.492842"><ele>2808.8</ele><time>2026-03-15T11:56:16.000Z</time></trkpt>
<trkpt lat="41.726016" lon="23.492845"><ele>2809</ele><time>2026-03-15T11:56:17.000Z</time></trkpt>
<trkpt lat="41.726014" lon="23.492847"><ele>2809</ele><time>2026-03-15T11:56:18.000Z</time></trkpt>
<trkpt lat="41.726012" lon="23.492848"><ele>2809</ele><time>2026-03-15T11:56:19.000Z</time></trkpt>
<trkpt lat="41.72601" lon="23.492849"><ele>2809</ele><time>2026-03-15T11:56:20.000Z</time></trkpt>
<trkpt lat="41.726007" lon="23.492851"><ele>2809</ele><time>2026-03-15T11:56:21.000Z</time></trkpt>
<trkpt lat="41.726004" lon="23.492852"><ele>2809.7</ele><time>2026-03-15T11:56:22.000Z</time></trkpt>
<trkpt lat="41.726002" lon="23.492855"><ele>2809.7</ele><time>2026-03-15T11:56:23.000Z</time></trkpt>
<trkpt lat="41.725999" lon="23.492857"><ele>2809.7</ele><time>2026-03-15T11:56:24.000Z</time></trkpt>
<trkpt lat="41.725996" lon="23.49286"><ele>2809.7</ele><time>2026-03-15T11:56:25.000Z</time></trkpt>
<trkpt lat="41.725993" lon="23.492863"><ele>2809.7</ele><time>2026-03-15T11:56:26.000Z</time></trkpt>
<trkpt lat="41.72599" lon="23.492866"><ele>2810.7</ele><time>2026-03-15T11:56:27.000Z</time></trkpt>
<trkpt lat="41.725987" lon="23.492869"><ele>2810.7</ele><time>2026-03-15T11:56:28.000Z</time></trkpt>
<trkpt lat="41.725984" lon="23.492872"><ele>2810.7</ele><time>2026-03-15T11:56:29.000Z</time></trkpt>
<trkpt lat="41.725981" lon="23.492876"><ele>2810.7</ele><time>2026-03-15T11:56:30.000Z</time></trkpt>
<trkpt lat="41.725979" lon="23.492878"><ele>2810.7</ele><time>2026-03-15T11:56:31.000Z</time></trkpt>
<trkpt lat="41.725977" lon="23.49288"><ele>2811.2</ele><time>2026-03-15T11:56:32.000Z</time></trkpt>
<trkpt lat="41.725976" lon="23.492881"><ele>2811.2</ele><time>2026-03-15T11:56:33.000Z</time></trkpt>
<trkpt lat="41.725976" lon="23.492881"><ele>2811.2</ele><time>2026-03-15T11:56:34.000Z</time></trkpt>
<trkpt lat="41.725976" lon="23.492882"><ele>2811.2</ele><time>2026-03-15T11:56:35.000Z</time></trkpt>
<trkpt lat="41.725974" lon="23.492883"><ele>2811.2</ele><time>2026-03-15T11:56:36.000Z</time></trkpt>
<trkpt lat="41.725974" lon="23.492884"><ele>2812.2</ele><time>2026-03-15T11:56:37.000Z</time></trkpt>
<trkpt lat="41.725973" lon="23.492885"><ele>2812.2</ele><time>2026-03-15T11:56:38.000Z</time></trkpt>
<trkpt lat="41.725971" lon="23.492887"><ele>2812.2</ele><time>2026-03-15T11:56:39.000Z</time></trkpt>
<trkpt lat="41.725969" lon="23.492889"><ele>2812.2</ele><time>2026-03-15T11:56:40.000Z</time></trkpt>
<trkpt lat="41.725967" lon="23.49289"><ele>2812.2</ele><time>2026-03-15T11:56:41.000Z</time></trkpt>
<trkpt lat="41.725965" lon="23.492893"><ele>2813.1</ele><time>2026-03-15T11:56:42.000Z</time></trkpt>
<trkpt lat="41.725962" lon="23.492897"><ele>2813.1</ele><time>2026-03-15T11:56:43.000Z</time></trkpt>
<trkpt lat="41.725959" lon="23.4929"><ele>2813.1</ele><time>2026-03-15T11:56:44.000Z</time></trkpt>
<trkpt lat="41.725956" lon="23.492904"><ele>2813.1</ele><time>2026-03-15T11:56:45.000Z</time></trkpt>
<trkpt lat="41.725952" lon="23.492908"><ele>2813.1</ele><time>2026-03-15T11:56:46.000Z</time></trkpt>
<trkpt lat="41.725949" lon="23.492911"><ele>2813.4</ele><time>2026-03-15T11:56:47.000Z</time></trkpt>
<trkpt lat="41.725946" lon="23.492915"><ele>2813.4</ele><time>2026-03-15T11:56:48.000Z</time></trkpt>
<trkpt lat="41.725943" lon="23.492918"><ele>2813.4</ele><time>2026-03-15T11:56:49.000Z</time></trkpt>
<trkpt lat="41.72594" lon="23.492921"><ele>2813.4</ele><time>2026-03-15T11:56:50.000Z</time></trkpt>
<trkpt lat="41.725937" lon="23.492923"><ele>2813.4</ele><time>2026-03-15T11:56:51.000Z</time></trkpt>
<trkpt lat="41.725936" lon="23.492925"><ele>2813.8</ele><time>2026-03-15T11:56:52.000Z</time></trkpt>
<trkpt lat="41.725935" lon="23.492925"><ele>2813.8</ele><time>2026-03-15T11:56:53.000Z</time></trkpt>
<trkpt lat="41.725933" lon="23.492925"><ele>2813.8</ele><time>2026-03-15T11:56:54.000Z</time></trkpt>
<trkpt lat="41.725933" lon="23.492925"><ele>2813.8</ele><time>2026-03-15T11:56:55.000Z</time></trkpt>
<trkpt lat="41.725932" lon="23.492925"><ele>2813.8</ele><time>2026-03-15T11:56:56.000Z</time></trkpt>
<trkpt lat="41.725931" lon="23.492924"><ele>2814.1</ele><time>2026-03-15T11:56:57.000Z</time></trkpt>
<trkpt lat="41.72593" lon="23.492925"><ele>2814.1</ele><time>2026-03-15T11:56:58.000Z</time></trkpt>
<trkpt lat="41.725929" lon="23.492925"><ele>2814.1</ele><time>2026-03-15T11:56:59.000Z</time></trkpt>
<trkpt lat="41.725929" lon="23.492926"><ele>2814.1</ele><time>2026-03-15T11:57:00.000Z</time></trkpt>
<trkpt lat="41.725928" lon="23.492926"><ele>2814.1</ele><time>2026-03-15T11:57:01.000Z</time></trkpt>
<trkpt lat="41.725927" lon="23.492927"><ele>2814.4</ele><time>2026-03-15T11:57:02.000Z</time></trkpt>
<trkpt lat="41.725925" lon="23.492928"><ele>2814.4</ele><time>2026-03-15T11:57:03.000Z</time></trkpt>
<trkpt lat="41.725923" lon="23.492929"><ele>2814.4</ele><time>2026-03-15T11:57:04.000Z</time></trkpt>
<trkpt lat="41.72592" lon="23.49293"><ele>2814.4</ele><time>2026-03-15T11:57:05.000Z</time></trkpt>
<trkpt lat="41.725917" lon="23.492931"><ele>2814.4</ele><time>2026-03-15T11:57:06.000Z</time></trkpt>
<trkpt lat="41.725913" lon="23.492932"><ele>2815</ele><time>2026-03-15T11:57:07.000Z</time></trkpt>
<trkpt lat="41.725909" lon="23.492933"><ele>2815</ele><time>2026-03-15T11:57:08.000Z</time></trkpt>
<trkpt lat="41.725905" lon="23.492934"><ele>2815</ele><time>2026-03-15T11:57:09.000Z</time></trkpt>
<trkpt lat="41.725901" lon="23.492935"><ele>2815</ele><time>2026-03-15T11:57:10.000Z</time></trkpt>
<trkpt lat="41.725897" lon="23.492936"><ele>2815</ele><time>2026-03-15T11:57:11.000Z</time></trkpt>
<trkpt lat="41.725894" lon="23.492938"><ele>2815.8</ele><time>2026-03-15T11:57:12.000Z</time></trkpt>
<trkpt lat="41.725891" lon="23.49294"><ele>2815.8</ele><time>2026-03-15T11:57:13.000Z</time></trkpt>
<trkpt lat="41.725888" lon="23.492943"><ele>2815.8</ele><time>2026-03-15T11:57:14.000Z</time></trkpt>
<trkpt lat="41.725885" lon="23.492945"><ele>2815.8</ele><time>2026-03-15T11:57:15.000Z</time></trkpt>
<trkpt lat="41.725882" lon="23.492946"><ele>2815.8</ele><time>2026-03-15T11:57:16.000Z</time></trkpt>
<trkpt lat="41.725878" lon="23.492949"><ele>2816.3</ele><time>2026-03-15T11:57:17.000Z</time></trkpt>
<trkpt lat="41.725874" lon="23.49295"><ele>2816.3</ele><time>2026-03-15T11:57:18.000Z</time></trkpt>
<trkpt lat="41.72587" lon="23.492953"><ele>2816.3</ele><time>2026-03-15T11:57:19.000Z</time></trkpt>
<trkpt lat="41.725866" lon="23.492955"><ele>2816.3</ele><time>2026-03-15T11:57:20.000Z</time></trkpt>
<trkpt lat="41.725862" lon="23.492957"><ele>2816.3</ele><time>2026-03-15T11:57:21.000Z</time></trkpt>
<trkpt lat="41.725858" lon="23.492959"><ele>2817.3</ele><time>2026-03-15T11:57:22.000Z</time></trkpt>
<trkpt lat="41.725855" lon="23.492961"><ele>2817.3</ele><time>2026-03-15T11:57:23.000Z</time></trkpt>
<trkpt lat="41.725851" lon="23.492963"><ele>2817.3</ele><time>2026-03-15T11:57:24.000Z</time></trkpt>
<trkpt lat="41.725846" lon="23.492966"><ele>2817.3</ele><time>2026-03-15T11:57:25.000Z</time></trkpt>
<trkpt lat="41.725842" lon="23.492969"><ele>2817.3</ele><time>2026-03-15T11:57:26.000Z</time></trkpt>
<trkpt lat="41.725838" lon="23.492971"><ele>2818.4</ele><time>2026-03-15T11:57:27.000Z</time></trkpt>
<trkpt lat="41.725834" lon="23.492974"><ele>2818.4</ele><time>2026-03-15T11:57:28.000Z</time></trkpt>
<trkpt lat="41.725831" lon="23.492974"><ele>2818.4</ele><time>2026-03-15T11:57:29.000Z</time></trkpt>
<trkpt lat="41.725827" lon="23.492975"><ele>2818.4</ele><time>2026-03-15T11:57:30.000Z</time></trkpt>
<trkpt lat="41.725824" lon="23.492975"><ele>2818.4</ele><time>2026-03-15T11:57:31.000Z</time></trkpt>
<trkpt lat="41.725822" lon="23.492977"><ele>2819.1</ele><time>2026-03-15T11:57:32.000Z</time></trkpt>
<trkpt lat="41.725819" lon="23.49298"><ele>2819.1</ele><time>2026-03-15T11:57:33.000Z</time></trkpt>
<trkpt lat="41.725816" lon="23.492985"><ele>2819.1</ele><time>2026-03-15T11:57:34.000Z</time></trkpt>
<trkpt lat="41.725813" lon="23.492989"><ele>2819.1</ele><time>2026-03-15T11:57:35.000Z</time></trkpt>
<trkpt lat="41.72581" lon="23.492996"><ele>2819.1</ele><time>2026-03-15T11:57:36.000Z</time></trkpt>
<trkpt lat="41.725806" lon="23.493002"><ele>2820.3</ele><time>2026-03-15T11:57:37.000Z</time></trkpt>
<trkpt lat="41.725803" lon="23.493006"><ele>2820.3</ele><time>2026-03-15T11:57:38.000Z</time></trkpt>
<trkpt lat="41.725799" lon="23.493011"><ele>2820.3</ele><time>2026-03-15T11:57:39.000Z</time></trkpt>
<trkpt lat="41.725795" lon="23.493015"><ele>2820.3</ele><time>2026-03-15T11:57:40.000Z</time></trkpt>
<trkpt lat="41.725791" lon="23.493018"><ele>2820.3</ele><time>2026-03-15T11:57:41.000Z</time></trkpt>
<trkpt lat="41.725786" lon="23.493022"><ele>2821.3</ele><time>2026-03-15T11:57:42.000Z</time></trkpt>
<trkpt lat="41.725782" lon="23.493027"><ele>2821.3</ele><time>2026-03-15T11:57:43.000Z</time></trkpt>
<trkpt lat="41.725778" lon="23.493032"><ele>2821.3</ele><time>2026-03-15T11:57:44.000Z</time></trkpt>
<trkpt lat="41.725773" lon="23.493038"><ele>2821.3</ele><time>2026-03-15T11:57:45.000Z</time></trkpt>
<trkpt lat="41.725769" lon="23.493044"><ele>2821.3</ele><time>2026-03-15T11:57:46.000Z</time></trkpt>
<trkpt lat="41.725765" lon="23.49305"><ele>2821.7</ele><time>2026-03-15T11:57:47.000Z</time></trkpt>
<trkpt lat="41.725762" lon="23.493057"><ele>2821.7</ele><time>2026-03-15T11:57:48.000Z</time></trkpt>
<trkpt lat="41.72576" lon="23.493063"><ele>2821.7</ele><time>2026-03-15T11:57:49.000Z</time></trkpt>
<trkpt lat="41.725758" lon="23.493068"><ele>2821.7</ele><time>2026-03-15T11:57:50.000Z</time></trkpt>
<trkpt lat="41.725757" lon="23.493072"><ele>2821.7</ele><time>2026-03-15T11:57:51.000Z</time></trkpt>
<trkpt lat="41.725756" lon="23.493075"><ele>2822.4</ele><time>2026-03-15T11:57:52.000Z</time></trkpt>
<trkpt lat="41.725756" lon="23.493076"><ele>2822.4</ele><time>2026-03-15T11:57:53.000Z</time></trkpt>
<trkpt lat="41.725755" lon="23.493078"><ele>2822.4</ele><time>2026-03-15T11:57:54.000Z</time></trkpt>
<trkpt lat="41.725755" lon="23.493079"><ele>2822.4</ele><time>2026-03-15T11:57:55.000Z</time></trkpt>
<trkpt lat="41.725753" lon="23.493081"><ele>2822.4</ele><time>2026-03-15T11:57:56.000Z</time></trkpt>
<trkpt lat="41.725751" lon="23.493082"><ele>2823.1</ele><time>2026-03-15T11:57:57.000Z</time></trkpt>
<trkpt lat="41.725748" lon="23.493083"><ele>2823.1</ele><time>2026-03-15T11:57:58.000Z</time></trkpt>
<trkpt lat="41.725745" lon="23.493084"><ele>2823.1</ele><time>2026-03-15T11:57:59.000Z</time></trkpt>
<trkpt lat="41.725742" lon="23.493085"><ele>2823.1</ele><time>2026-03-15T11:58:00.000Z</time></trkpt>
<trkpt lat="41.72574" lon="23.493087"><ele>2823.1</ele><time>2026-03-15T11:58:01.000Z</time></trkpt>
<trkpt lat="41.72574" lon="23.493089"><ele>2823.4</ele><time>2026-03-15T11:58:02.000Z</time></trkpt>
<trkpt lat="41.725741" lon="23.493091"><ele>2823.4</ele><time>2026-03-15T11:58:03.000Z</time></trkpt>
<trkpt lat="41.725741" lon="23.493094"><ele>2823.4</ele><time>2026-03-15T11:58:04.000Z</time></trkpt>
<trkpt lat="41.725742" lon="23.493096"><ele>2823.4</ele><time>2026-03-15T11:58:05.000Z</time></trkpt>
<trkpt lat="41.725742" lon="23.493097"><ele>2823.4</ele><time>2026-03-15T11:58:06.000Z</time></trkpt>
<trkpt lat="41.725742" lon="23.493097"><ele>2823.8</ele><time>2026-03-15T11:58:07.000Z</time></trkpt>
<trkpt lat="41.725742" lon="23.493097"><ele>2823.8</ele><time>2026-03-15T11:58:08.000Z</time></trkpt>
<trkpt lat="41.725742" lon="23.493097"><ele>2823.8</ele><time>2026-03-15T11:58:09.000Z</time></trkpt>
<trkpt lat="41.725741" lon="23.493098"><ele>2823.8</ele><time>2026-03-15T11:58:10.000Z</time></trkpt>
<trkpt lat="41.725741" lon="23.493099"><ele>2823.8</ele><time>2026-03-15T11:58:11.000Z</time></trkpt>
<trkpt lat="41.725741" lon="23.4931"><ele>2823.9</ele><time>2026-03-15T11:58:12.000Z</time></trkpt>
<trkpt lat="41.725741" lon="23.493101"><ele>2823.9</ele><time>2026-03-15T11:58:13.000Z</time></trkpt>
<trkpt lat="41.725741" lon="23.493102"><ele>2823.9</ele><time>2026-03-15T11:58:14.000Z</time></trkpt>
<trkpt lat="41.725742" lon="23.493103"><ele>2823.9</ele><time>2026-03-15T11:58:15.000Z</time></trkpt>
<trkpt lat="41.725742" lon="23.493104"><ele>2823.9</ele><time>2026-03-15T11:58:16.000Z</time></trkpt>
<trkpt lat="41.725742" lon="23.493106"><ele>2824</ele><time>2026-03-15T11:58:17.000Z</time></trkpt>
<trkpt lat="41.725741" lon="23.493108"><ele>2824</ele><time>2026-03-15T11:58:18.000Z</time></trkpt>
<trkpt lat="41.725741" lon="23.49311"><ele>2824</ele><time>2026-03-15T11:58:19.000Z</time></trkpt>
<trkpt lat="41.725741" lon="23.493111"><ele>2824</ele><time>2026-03-15T11:58:20.000Z</time></trkpt>
<trkpt lat="41.72574" lon="23.493112"><ele>2824</ele><time>2026-03-15T11:58:21.000Z</time></trkpt>
<trkpt lat="41.725739" lon="23.493113"><ele>2824</ele><time>2026-03-15T11:58:22.000Z</time></trkpt>
<trkpt lat="41.725738" lon="23.493114"><ele>2824</ele><time>2026-03-15T11:58:23.000Z</time></trkpt>
<trkpt lat="41.725737" lon="23.493114"><ele>2824</ele><time>2026-03-15T11:58:24.000Z</time></trkpt>
<trkpt lat="41.725736" lon="23.493114"><ele>2824</ele><time>2026-03-15T11:58:25.000Z</time></trkpt>
<trkpt lat="41.725736" lon="23.493114"><ele>2824</ele><time>2026-03-15T11:58:26.000Z</time></trkpt>
<trkpt lat="41.725736" lon="23.493114"><ele>2824</ele><time>2026-03-15T11:58:27.000Z</time></trkpt>
<trkpt lat="41.725736" lon="23.493114"><ele>2824</ele><time>2026-03-15T11:58:28.000Z</time></trkpt>
<trkpt lat="41.725736" lon="23.493114"><ele>2824</ele><time>2026-03-15T11:58:29.000Z</time></trkpt>
<trkpt lat="41.725736" lon="23.493114"><ele>2824</ele><time>2026-03-15T11:58:30.000Z</time></trkpt>
<trkpt lat="41.725736" lon="23.493115"><ele>2824</ele><time>2026-03-15T11:58:31.000Z</time></trkpt>
<trkpt lat="41.725736" lon="23.493116"><ele>2824</ele><time>2026-03-15T11:58:32.000Z</time></trkpt>
<trkpt lat="41.725736" lon="23.493116"><ele>2824</ele><time>2026-03-15T11:58:33.000Z</time></trkpt>
<trkpt lat="41.725737" lon="23.493115"><ele>2824</ele><time>2026-03-15T11:58:34.000Z</time></trkpt>
<trkpt lat="41.725738" lon="23.493114"><ele>2824</ele><time>2026-03-15T11:58:35.000Z</time></trkpt>
<trkpt lat="41.725738" lon="23.493113"><ele>2824</ele><time>2026-03-15T11:58:36.000Z</time></trkpt>
<trkpt lat="41.725739" lon="23.493112"><ele>2824</ele><time>2026-03-15T11:58:37.000Z</time></trkpt>
<trkpt lat="41.725738" lon="23.493113"><ele>2824</ele><time>2026-03-15T11:58:38.000Z</time></trkpt>
<trkpt lat="41.725738" lon="23.493113"><ele>2824</ele><time>2026-03-15T11:58:39.000Z</time></trkpt>
<trkpt lat="41.725738" lon="23.493114"><ele>2824</ele><time>2026-03-15T11:58:40.000Z</time></trkpt>
<trkpt lat="41.725738" lon="23.493114"><ele>2824</ele><time>2026-03-15T11:58:41.000Z</time></trkpt>
<trkpt lat="41.725737" lon="23.493114"><ele>2824</ele><time>2026-03-15T11:58:42.000Z</time></trkpt>
<trkpt lat="41.725737" lon="23.493114"><ele>2824</ele><time>2026-03-15T11:58:43.000Z</time></trkpt>
<trkpt lat="41.725737" lon="23.493114"><ele>2824</ele><time>2026-03-15T11:58:44.000Z</time></trkpt>
<trkpt lat="41.725737" lon="23.493114"><ele>2824</ele><time>2026-03-15T11:58:45.000Z</time></trkpt>
<trkpt lat="41.725737" lon="23.493114"><ele>2824</ele><time>2026-03-15T11:58:46.000Z</time></trkpt>
<trkpt lat="41.725737" lon="23.493114"><ele>2824</ele><time>2026-03-15T11:58:47.000Z</time></trkpt>
<trkpt lat="41.725737" lon="23.493114"><ele>2824</ele><time>2026-03-15T11:58:48.000Z</time></trkpt>
<trkpt lat="41.725737" lon="23.493114"><ele>2824</ele><time>2026-03-15T11:58:49.000Z</time></trkpt>
<trkpt lat="41.725737" lon="23.493114"><ele>2824</ele><time>2026-03-15T11:58:50.000Z</time></trkpt>
<trkpt lat="41.725736" lon="23.493114"><ele>2824</ele><time>2026-03-15T11:58:51.000Z</time></trkpt>
<trkpt lat="41.725735" lon="23.493113"><ele>2824</ele><time>2026-03-15T11:58:52.000Z</time></trkpt>
<trkpt lat="41.725734" lon="23.493113"><ele>2824</ele><time>2026-03-15T11:58:53.000Z</time></trkpt>
<trkpt lat="41.725732" lon="23.493111"><ele>2824</ele><time>2026-03-15T11:58:54.000Z</time></trkpt>
<trkpt lat="41.725731" lon="23.49311"><ele>2824</ele><time>2026-03-15T11:58:55.000Z</time></trkpt>
<trkpt lat="41.72573" lon="23.49311"><ele>2824</ele><time>2026-03-15T11:58:56.000Z</time></trkpt>
<trkpt lat="41.725729" lon="23.49311"><ele>2824.1</ele><time>2026-03-15T11:58:57.000Z</time></trkpt>
<trkpt lat="41.725728" lon="23.493111"><ele>2824.1</ele><time>2026-03-15T11:58:58.000Z</time></trkpt>
<trkpt lat="41.725728" lon="23.493113"><ele>2824.1</ele><time>2026-03-15T11:58:59.000Z</time></trkpt>
<trkpt lat="41.725726" lon="23.493114"><ele>2824.1</ele><time>2026-03-15T11:59:00.000Z</time></trkpt>
<trkpt lat="41.725725" lon="23.493115"><ele>2824.1</ele><time>2026-03-15T11:59:01.000Z</time></trkpt>
<trkpt lat="41.725724" lon="23.493116"><ele>2824.1</ele><time>2026-03-15T11:59:02.000Z</time></trkpt>
<trkpt lat="41.725723" lon="23.493115"><ele>2824.1</ele><time>2026-03-15T11:59:03.000Z</time></trkpt>
<trkpt lat="41.725722" lon="23.493114"><ele>2824.1</ele><time>2026-03-15T11:59:04.000Z</time></trkpt>
<trkpt lat="41.725723" lon="23.493113"><ele>2824.1</ele><time>2026-03-15T11:59:05.000Z</time></trkpt>
<trkpt lat="41.725724" lon="23.493113"><ele>2824.1</ele><time>2026-03-15T11:59:06.000Z</time></trkpt>
<trkpt lat="41.725724" lon="23.493112"><ele>2824</ele><time>2026-03-15T11:59:07.000Z</time></trkpt>
<trkpt lat="41.725725" lon="23.493111"><ele>2824</ele><time>2026-03-15T11:59:08.000Z</time></trkpt>
<trkpt lat="41.725726" lon="23.493111"><ele>2824</ele><time>2026-03-15T11:59:09.000Z</time></trkpt>
<trkpt lat="41.725726" lon="23.493111"><ele>2824</ele><time>2026-03-15T11:59:10.000Z</time></trkpt>
<trkpt lat="41.725727" lon="23.493111"><ele>2824</ele><time>2026-03-15T11:59:11.000Z</time></trkpt>
<trkpt lat="41.725727" lon="23.493111"><ele>2823.9</ele><time>2026-03-15T11:59:12.000Z</time></trkpt>
<trkpt lat="41.725727" lon="23.493112"><ele>2823.9</ele><time>2026-03-15T11:59:13.000Z</time></trkpt>
<trkpt lat="41.725728" lon="23.493113"><ele>2823.9</ele><time>2026-03-15T11:59:14.000Z</time></trkpt>
<trkpt lat="41.725729" lon="23.493115"><ele>2823.9</ele><time>2026-03-15T11:59:15.000Z</time></trkpt>
<trkpt lat="41.72573" lon="23.493117"><ele>2823.9</ele><time>2026-03-15T11:59:16.000Z</time></trkpt>
<trkpt lat="41.725731" lon="23.493118"><ele>2823.9</ele><time>2026-03-15T11:59:17.000Z</time></trkpt>
<trkpt lat="41.725732" lon="23.493119"><ele>2823.9</ele><time>2026-03-15T11:59:18.000Z</time></trkpt>
<trkpt lat="41.725732" lon="23.493119"><ele>2823.9</ele><time>2026-03-15T11:59:19.000Z</time></trkpt>
<trkpt lat="41.725732" lon="23.493119"><ele>2823.9</ele><time>2026-03-15T11:59:20.000Z</time></trkpt>
<trkpt lat="41.725731" lon="23.493119"><ele>2823.9</ele><time>2026-03-15T11:59:21.000Z</time></trkpt>
<trkpt lat="41.725731" lon="23.493119"><ele>2823.9</ele><time>2026-03-15T11:59:22.000Z</time></trkpt>
<trkpt lat="41.725731" lon="23.493119"><ele>2823.9</ele><time>2026-03-15T11:59:23.000Z</time></trkpt>
<trkpt lat="41.725731" lon="23.49312"><ele>2823.9</ele><time>2026-03-15T11:59:24.000Z</time></trkpt>
<trkpt lat="41.725731" lon="23.49312"><ele>2823.9</ele><time>2026-03-15T11:59:25.000Z</time></trkpt>
<trkpt lat="41.725731" lon="23.49312"><ele>2823.9</ele><time>2026-03-15T11:59:26.000Z</time></trkpt>
<trkpt lat="41.725731" lon="23.49312"><ele>2823.8</ele><time>2026-03-15T11:59:27.000Z</time></trkpt>
<trkpt lat="41.725731" lon="23.49312"><ele>2823.8</ele><time>2026-03-15T11:59:28.000Z</time></trkpt>
<trkpt lat="41.725731" lon="23.49312"><ele>2823.8</ele><time>2026-03-15T11:59:29.000Z</time></trkpt>
<trkpt lat="41.725732" lon="23.493121"><ele>2823.8</ele><time>2026-03-15T11:59:30.000Z</time></trkpt>
<trkpt lat="41.725732" lon="23.493122"><ele>2823.8</ele><time>2026-03-15T11:59:31.000Z</time></trkpt>
<trkpt lat="41.725731" lon="23.493126"><ele>2823.8</ele><time>2026-03-15T11:59:32.000Z</time></trkpt>
<trkpt lat="41.725731" lon="23.493128"><ele>2823.8</ele><time>2026-03-15T11:59:33.000Z</time></trkpt>
<trkpt lat="41.72573" lon="23.493131"><ele>2823.8</ele><time>2026-03-15T11:59:34.000Z</time></trkpt>
<trkpt lat="41.725731" lon="23.493133"><ele>2823.8</ele><time>2026-03-15T11:59:35.000Z</time></trkpt>
<trkpt lat="41.725731" lon="23.493134"><ele>2823.8</ele><time>2026-03-15T11:59:36.000Z</time></trkpt>
<trkpt lat="41.725732" lon="23.493133"><ele>2823.9</ele><time>2026-03-15T11:59:37.000Z</time></trkpt>
<trkpt lat="41.725733" lon="23.493132"><ele>2823.9</ele><time>2026-03-15T11:59:38.000Z</time></trkpt>
<trkpt lat="41.725734" lon="23.493132"><ele>2823.9</ele><time>2026-03-15T11:59:39.000Z</time></trkpt>
<trkpt lat="41.725734" lon="23.493132"><ele>2823.9</ele><time>2026-03-15T11:59:40.000Z</time></trkpt>
<trkpt lat="41.725734" lon="23.493132"><ele>2823.9</ele><time>2026-03-15T11:59:41.000Z</time></trkpt>
<trkpt lat="41.725733" lon="23.493132"><ele>2823.9</ele><time>2026-03-15T11:59:42.000Z</time></trkpt>
<trkpt lat="41.725734" lon="23.493131"><ele>2823.9</ele><time>2026-03-15T11:59:43.000Z</time></trkpt>
<trkpt lat="41.725734" lon="23.493131"><ele>2823.9</ele><time>2026-03-15T11:59:44.000Z</time></trkpt>
<trkpt lat="41.725734" lon="23.493131"><ele>2823.9</ele><time>2026-03-15T11:59:45.000Z</time></trkpt>
<trkpt lat="41.725734" lon="23.493131"><ele>2823.9</ele><time>2026-03-15T11:59:46.000Z</time></trkpt>
<trkpt lat="41.725735" lon="23.493131"><ele>2823.9</ele><time>2026-03-15T11:59:47.000Z</time></trkpt>
<trkpt lat="41.725735" lon="23.493131"><ele>2823.9</ele><time>2026-03-15T11:59:48.000Z</time></trkpt>
<trkpt lat="41.725735" lon="23.493131"><ele>2823.9</ele><time>2026-03-15T11:59:49.000Z</time></trkpt>
<trkpt lat="41.725735" lon="23.493131"><ele>2823.9</ele><time>2026-03-15T11:59:50.000Z</time></trkpt>
<trkpt lat="41.725735" lon="23.493131"><ele>2823.9</ele><time>2026-03-15T11:59:51.000Z</time></trkpt>
<trkpt lat="41.725735" lon="23.493131"><ele>2823.8</ele><time>2026-03-15T11:59:52.000Z</time></trkpt>
<trkpt lat="41.725735" lon="23.493131"><ele>2823.8</ele><time>2026-03-15T11:59:53.000Z</time></trkpt>
<trkpt lat="41.725735" lon="23.493131"><ele>2823.8</ele><time>2026-03-15T11:59:54.000Z</time></trkpt>
<trkpt lat="41.725735" lon="23.493131"><ele>2823.8</ele><time>2026-03-15T11:59:55.000Z</time></trkpt>
<trkpt lat="41.725735" lon="23.493131"><ele>2823.8</ele><time>2026-03-15T11:59:56.000Z</time></trkpt>
<trkpt lat="41.725735" lon="23.493131"><ele>2823.8</ele><time>2026-03-15T11:59:57.000Z</time></trkpt>
<trkpt lat="41.725735" lon="23.493131"><ele>2823.8</ele><time>2026-03-15T11:59:58.000Z</time></trkpt>
<trkpt lat="41.725735" lon="23.493131"><ele>2823.8</ele><time>2026-03-15T11:59:59.000Z</time></trkpt>
<trkpt lat="41.725735" lon="23.493131"><ele>2823.8</ele><time>2026-03-15T12:00:00.000Z</time></trkpt>
<trkpt lat="41.725735" lon="23.493131"><ele>2823.8</ele><time>2026-03-15T12:00:01.000Z</time></trkpt>
<trkpt lat="41.725735" lon="23.493131"><ele>2823.8</ele><time>2026-03-15T12:00:02.000Z</time></trkpt>
<trkpt lat="41.725735" lon="23.493131"><ele>2823.8</ele><time>2026-03-15T12:00:03.000Z</time></trkpt>
<trkpt lat="41.725735" lon="23.493131"><ele>2823.8</ele><time>2026-03-15T12:00:04.000Z</time></trkpt>
<trkpt lat="41.725735" lon="23.493131"><ele>2823.8</ele><time>2026-03-15T12:00:05.000Z</time></trkpt>
<trkpt lat="41.725735" lon="23.493131"><ele>2823.8</ele><time>2026-03-15T12:00:06.000Z</time></trkpt>
<trkpt lat="41.725735" lon="23.493131"><ele>2823.6</ele><time>2026-03-15T12:00:07.000Z</time></trkpt>
<trkpt lat="41.725735" lon="23.493131"><ele>2823.6</ele><time>2026-03-15T12:00:08.000Z</time></trkpt>
<trkpt lat="41.725735" lon="23.493131"><ele>2823.6</ele><time>2026-03-15T12:00:09.000Z</time></trkpt>
<trkpt lat="41.725735" lon="23.49313"><ele>2823.6</ele><time>2026-03-15T12:00:10.000Z</time></trkpt>
<trkpt lat="41.725735" lon="23.49313"><ele>2823.6</ele><time>2026-03-15T12:00:11.000Z</time></trkpt>
<trkpt lat="41.725735" lon="23.493129"><ele>2823.6</ele><time>2026-03-15T12:00:12.000Z</time></trkpt>
<trkpt lat="41.725735" lon="23.493129"><ele>2823.6</ele><time>2026-03-15T12:00:13.000Z</time></trkpt>
<trkpt lat="41.725736" lon="23.493128"><ele>2823.6</ele><time>2026-03-15T12:00:14.000Z</time></trkpt>
<trkpt lat="41.725736" lon="23.493127"><ele>2823.6</ele><time>2026-03-15T12:00:15.000Z</time></trkpt>
<trkpt lat="41.725736" lon="23.493126"><ele>2823.6</ele><time>2026-03-15T12:00:16.000Z</time></trkpt>
<trkpt lat="41.725736" lon="23.493125"><ele>2823.7</ele><time>2026-03-15T12:00:17.000Z</time></trkpt>
<trkpt lat="41.725736" lon="23.493124"><ele>2823.7</ele><time>2026-03-15T12:00:18.000Z</time></trkpt>
<trkpt lat="41.725735" lon="23.493123"><ele>2823.7</ele><time>2026-03-15T12:00:19.000Z</time></trkpt>
<trkpt lat="41.725735" lon="23.493122"><ele>2823.7</ele><time>2026-03-15T12:00:20.000Z</time></trkpt>
<trkpt lat="41.725735" lon="23.493122"><ele>2823.7</ele><time>2026-03-15T12:00:21.000Z</time></trkpt>
<trkpt lat="41.725734" lon="23.493122"><ele>2823.8</ele><time>2026-03-15T12:00:22.000Z</time></trkpt>
<trkpt lat="41.725733" lon="23.493125"><ele>2823.8</ele><time>2026-03-15T12:00:23.000Z</time></trkpt>
<trkpt lat="41.725731" lon="23.493128"><ele>2823.8</ele><time>2026-03-15T12:00:24.000Z</time></trkpt>
<trkpt lat="41.725728" lon="23.493132"><ele>2823.8</ele><time>2026-03-15T12:00:25.000Z</time></trkpt>
<trkpt lat="41.725725" lon="23.493137"><ele>2823.8</ele><time>2026-03-15T12:00:26.000Z</time></trkpt>
<trkpt lat="41.725723" lon="23.493142"><ele>2824.2</ele><time>2026-03-15T12:00:27.000Z</time></trkpt>
<trkpt lat="41.725722" lon="23.493148"><ele>2824.2</ele><time>2026-03-15T12:00:28.000Z</time></trkpt>
<trkpt lat="41.725722" lon="23.493155"><ele>2824.2</ele><time>2026-03-15T12:00:29.000Z</time></trkpt>
<trkpt lat="41.725722" lon="23.493163"><ele>2824.2</ele><time>2026-03-15T12:00:30.000Z</time></trkpt>
<trkpt lat="41.725723" lon="23.493173"><ele>2824.2</ele><time>2026-03-15T12:00:31.000Z</time></trkpt>
<trkpt lat="41.725724" lon="23.493185"><ele>2824.4</ele><time>2026-03-15T12:00:32.000Z</time></trkpt>
<trkpt lat="41.725724" lon="23.493196"><ele>2824.4</ele><time>2026-03-15T12:00:33.000Z</time></trkpt>
<trkpt lat="41.725725" lon="23.493208"><ele>2824.4</ele><time>2026-03-15T12:00:34.000Z</time></trkpt>
<trkpt lat="41.725725" lon="23.49322"><ele>2824.4</ele><time>2026-03-15T12:00:35.000Z</time></trkpt>
<trkpt lat="41.725726" lon="23.49323"><ele>2824.4</ele><time>2026-03-15T12:00:36.000Z</time></trkpt>
<trkpt lat="41.725726" lon="23.49324"><ele>2824.7</ele><time>2026-03-15T12:00:37.000Z</time></trkpt>
<trkpt lat="41.725727" lon="23.49325"><ele>2824.7</ele><time>2026-03-15T12:00:38.000Z</time></trkpt>
<trkpt lat="41.725726" lon="23.493262"><ele>2824.7</ele><time>2026-03-15T12:00:39.000Z</time></trkpt>
<trkpt lat="41.725725" lon="23.493276"><ele>2824.7</ele><time>2026-03-15T12:00:40.000Z</time></trkpt>
<trkpt lat="41.725724" lon="23.493291"><ele>2824.7</ele><time>2026-03-15T12:00:41.000Z</time></trkpt>
<trkpt lat="41.725722" lon="23.493306"><ele>2824.6</ele><time>2026-03-15T12:00:42.000Z</time></trkpt>
<trkpt lat="41.72572" lon="23.493322"><ele>2824.6</ele><time>2026-03-15T12:00:43.000Z</time></trkpt>
<trkpt lat="41.725718" lon="23.493337"><ele>2824.6</ele><time>2026-03-15T12:00:44.000Z</time></trkpt>
<trkpt lat="41.725716" lon="23.493351"><ele>2824.6</ele><time>2026-03-15T12:00:45.000Z</time></trkpt>
<trkpt lat="41.725713" lon="23.493365"><ele>2824.6</ele><time>2026-03-15T12:00:46.000Z</time></trkpt>
<trkpt lat="41.725711" lon="23.493379"><ele>2824.4</ele><time>2026-03-15T12:00:47.000Z</time></trkpt>
<trkpt lat="41.725708" lon="23.493392"><ele>2824.4</ele><time>2026-03-15T12:00:48.000Z</time></trkpt>
<trkpt lat="41.725704" lon="23.493406"><ele>2824.4</ele><time>2026-03-15T12:00:49.000Z</time></trkpt>
<trkpt lat="41.7257" lon="23.493419"><ele>2824.4</ele><time>2026-03-15T12:00:50.000Z</time></trkpt>
<trkpt lat="41.725695" lon="23.493433"><ele>2824.4</ele><time>2026-03-15T12:00:51.000Z</time></trkpt>
<trkpt lat="41.72569" lon="23.493447"><ele>2823.6</ele><time>2026-03-15T12:00:52.000Z</time></trkpt>
<trkpt lat="41.725686" lon="23.49346"><ele>2823.6</ele><time>2026-03-15T12:00:53.000Z</time></trkpt>
<trkpt lat="41.725682" lon="23.493474"><ele>2823.6</ele><time>2026-03-15T12:00:54.000Z</time></trkpt>
<trkpt lat="41.725679" lon="23.493487"><ele>2823.6</ele><time>2026-03-15T12:00:55.000Z</time></trkpt>
<trkpt lat="41.725676" lon="23.4935"><ele>2823.6</ele><time>2026-03-15T12:00:56.000Z</time></trkpt>
<trkpt lat="41.725674" lon="23.493512"><ele>2822.9</ele><time>2026-03-15T12:00:57.000Z</time></trkpt>
<trkpt lat="41.725672" lon="23.493525"><ele>2822.9</ele><time>2026-03-15T12:00:58.000Z</time></trkpt>
<trkpt lat="41.725671" lon="23.493535"><ele>2822.9</ele><time>2026-03-15T12:00:59.000Z</time></trkpt>
<trkpt lat="41.72567" lon="23.493545"><ele>2822.9</ele><time>2026-03-15T12:01:00.000Z</time></trkpt>
<trkpt lat="41.725669" lon="23.493554"><ele>2822.9</ele><time>2026-03-15T12:01:01.000Z</time></trkpt>
<trkpt lat="41.725669" lon="23.493563"><ele>2822.5</ele><time>2026-03-15T12:01:02.000Z</time></trkpt>
<trkpt lat="41.725669" lon="23.493571"><ele>2822.5</ele><time>2026-03-15T12:01:03.000Z</time></trkpt>
<trkpt lat="41.725669" lon="23.49358"><ele>2822.5</ele><time>2026-03-15T12:01:04.000Z</time></trkpt>
<trkpt lat="41.725668" lon="23.493591"><ele>2822.5</ele><time>2026-03-15T12:01:05.000Z</time></trkpt>
<trkpt lat="41.725669" lon="23.493602"><ele>2822.5</ele><time>2026-03-15T12:01:06.000Z</time></trkpt>
<trkpt lat="41.725668" lon="23.493613"><ele>2822.3</ele><time>2026-03-15T12:01:07.000Z</time></trkpt>
<trkpt lat="41.725667" lon="23.493624"><ele>2822.3</ele><time>2026-03-15T12:01:08.000Z</time></trkpt>
<trkpt lat="41.725665" lon="23.493636"><ele>2822.3</ele><time>2026-03-15T12:01:09.000Z</time></trkpt>
<trkpt lat="41.725661" lon="23.493648"><ele>2822.3</ele><time>2026-03-15T12:01:10.000Z</time></trkpt>
<trkpt lat="41.725658" lon="23.493662"><ele>2822.3</ele><time>2026-03-15T12:01:11.000Z</time></trkpt>
<trkpt lat="41.725654" lon="23.493676"><ele>2822.8</ele><time>2026-03-15T12:01:12.000Z</time></trkpt>
<trkpt lat="41.725652" lon="23.493691"><ele>2822.8</ele><time>2026-03-15T12:01:13.000Z</time></trkpt>
<trkpt lat="41.72565" lon="23.493706"><ele>2822.8</ele><time>2026-03-15T12:01:14.000Z</time></trkpt>
<trkpt lat="41.725648" lon="23.493722"><ele>2822.8</ele><time>2026-03-15T12:01:15.000Z</time></trkpt>
<trkpt lat="41.725647" lon="23.493736"><ele>2822.8</ele><time>2026-03-15T12:01:16.000Z</time></trkpt>
<trkpt lat="41.725645" lon="23.49375"><ele>2823.3</ele><time>2026-03-15T12:01:17.000Z</time></trkpt>
<trkpt lat="41.725642" lon="23.493765"><ele>2823.3</ele><time>2026-03-15T12:01:18.000Z</time></trkpt>
<trkpt lat="41.72564" lon="23.49378"><ele>2823.3</ele><time>2026-03-15T12:01:19.000Z</time></trkpt>
<trkpt lat="41.725637" lon="23.493794"><ele>2823.3</ele><time>2026-03-15T12:01:20.000Z</time></trkpt>
<trkpt lat="41.725634" lon="23.493809"><ele>2823.3</ele><time>2026-03-15T12:01:21.000Z</time></trkpt>
<trkpt lat="41.725631" lon="23.493823"><ele>2824</ele><time>2026-03-15T12:01:22.000Z</time></trkpt>
<trkpt lat="41.725628" lon="23.493837"><ele>2824</ele><time>2026-03-15T12:01:23.000Z</time></trkpt>
<trkpt lat="41.725624" lon="23.493851"><ele>2824</ele><time>2026-03-15T12:01:24.000Z</time></trkpt>
<trkpt lat="41.725622" lon="23.493863"><ele>2824</ele><time>2026-03-15T12:01:25.000Z</time></trkpt>
<trkpt lat="41.725619" lon="23.493876"><ele>2824</ele><time>2026-03-15T12:01:26.000Z</time></trkpt>
<trkpt lat="41.725617" lon="23.493887"><ele>2824</ele><time>2026-03-15T12:01:27.000Z</time></trkpt>
<trkpt lat="41.725616" lon="23.493899"><ele>2824</ele><time>2026-03-15T12:01:28.000Z</time></trkpt>
<trkpt lat="41.725615" lon="23.49391"><ele>2824</ele><time>2026-03-15T12:01:29.000Z</time></trkpt>
<trkpt lat="41.725614" lon="23.493922"><ele>2824</ele><time>2026-03-15T12:01:30.000Z</time></trkpt>
<trkpt lat="41.725613" lon="23.493935"><ele>2824</ele><time>2026-03-15T12:01:31.000Z</time></trkpt>
<trkpt lat="41.72561" lon="23.493948"><ele>2823.9</ele><time>2026-03-15T12:01:32.000Z</time></trkpt>
<trkpt lat="41.725606" lon="23.493961"><ele>2823.9</ele><time>2026-03-15T12:01:33.000Z</time></trkpt>
<trkpt lat="41.725602" lon="23.493974"><ele>2823.9</ele><time>2026-03-15T12:01:34.000Z</time></trkpt>
<trkpt lat="41.725598" lon="23.493986"><ele>2823.9</ele><time>2026-03-15T12:01:35.000Z</time></trkpt>
<trkpt lat="41.725594" lon="23.493998"><ele>2823.9</ele><time>2026-03-15T12:01:36.000Z</time></trkpt>
<trkpt lat="41.725591" lon="23.494009"><ele>2823.8</ele><time>2026-03-15T12:01:37.000Z</time></trkpt>
<trkpt lat="41.725587" lon="23.49402"><ele>2823.8</ele><time>2026-03-15T12:01:38.000Z</time></trkpt>
<trkpt lat="41.725584" lon="23.494032"><ele>2823.8</ele><time>2026-03-15T12:01:39.000Z</time></trkpt>
<trkpt lat="41.725582" lon="23.494042"><ele>2823.8</ele><time>2026-03-15T12:01:40.000Z</time></trkpt>
<trkpt lat="41.72558" lon="23.494053"><ele>2823.8</ele><time>2026-03-15T12:01:41.000Z</time></trkpt>
<trkpt lat="41.725579" lon="23.494063"><ele>2824</ele><time>2026-03-15T12:01:42.000Z</time></trkpt>
<trkpt lat="41.725579" lon="23.494074"><ele>2824</ele><time>2026-03-15T12:01:43.000Z</time></trkpt>
<trkpt lat="41.725579" lon="23.494085"><ele>2824</ele><time>2026-03-15T12:01:44.000Z</time></trkpt>
<trkpt lat="41.725578" lon="23.494097"><ele>2824</ele><time>2026-03-15T12:01:45.000Z</time></trkpt>
<trkpt lat="41.725579" lon="23.494109"><ele>2824</ele><time>2026-03-15T12:01:46.000Z</time></trkpt>
<trkpt lat="41.72558" lon="23.494122"><ele>2824.1</ele><time>2026-03-15T12:01:47.000Z</time></trkpt>
<trkpt lat="41.72558" lon="23.494135"><ele>2824.1</ele><time>2026-03-15T12:01:48.000Z</time></trkpt>
<trkpt lat="41.72558" lon="23.494148"><ele>2824.1</ele><time>2026-03-15T12:01:49.000Z</time></trkpt>
<trkpt lat="41.725579" lon="23.494162"><ele>2824.1</ele><time>2026-03-15T12:01:50.000Z</time></trkpt>
<trkpt lat="41.725577" lon="23.494176"><ele>2824.1</ele><time>2026-03-15T12:01:51.000Z</time></trkpt>
<trkpt lat="41.725574" lon="23.49419"><ele>2824.6</ele><time>2026-03-15T12:01:52.000Z</time></trkpt>
<trkpt lat="41.725571" lon="23.494202"><ele>2824.6</ele><time>2026-03-15T12:01:53.000Z</time></trkpt>
<trkpt lat="41.725568" lon="23.494215"><ele>2824.6</ele><time>2026-03-15T12:01:54.000Z</time></trkpt>
<trkpt lat="41.725566" lon="23.494226"><ele>2824.6</ele><time>2026-03-15T12:01:55.000Z</time></trkpt>
<trkpt lat="41.725564" lon="23.494237"><ele>2824.6</ele><time>2026-03-15T12:01:56.000Z</time></trkpt>
<trkpt lat="41.725563" lon="23.494248"><ele>2825.3</ele><time>2026-03-15T12:01:57.000Z</time></trkpt>
<trkpt lat="41.725561" lon="23.494259"><ele>2825.3</ele><time>2026-03-15T12:01:58.000Z</time></trkpt>
<trkpt lat="41.725561" lon="23.494269"><ele>2825.3</ele><time>2026-03-15T12:01:59.000Z</time></trkpt>
<trkpt lat="41.725561" lon="23.494279"><ele>2825.3</ele><time>2026-03-15T12:02:00.000Z</time></trkpt>
<trkpt lat="41.725562" lon="23.494286"><ele>2825.3</ele><time>2026-03-15T12:02:01.000Z</time></trkpt>
<trkpt lat="41.725563" lon="23.494294"><ele>2825.7</ele><time>2026-03-15T12:02:02.000Z</time></trkpt>
<trkpt lat="41.725562" lon="23.494303"><ele>2825.7</ele><time>2026-03-15T12:02:03.000Z</time></trkpt>
<trkpt lat="41.725563" lon="23.494311"><ele>2825.7</ele><time>2026-03-15T12:02:04.000Z</time></trkpt>
<trkpt lat="41.725562" lon="23.494317"><ele>2825.7</ele><time>2026-03-15T12:02:05.000Z</time></trkpt>
<trkpt lat="41.72556" lon="23.494324"><ele>2825.7</ele><time>2026-03-15T12:02:06.000Z</time></trkpt>
<trkpt lat="41.72556" lon="23.494331"><ele>2826.5</ele><time>2026-03-15T12:02:07.000Z</time></trkpt>
<trkpt lat="41.725559" lon="23.494337"><ele>2826.5</ele><time>2026-03-15T12:02:08.000Z</time></trkpt>
<trkpt lat="41.725557" lon="23.494344"><ele>2826.5</ele><time>2026-03-15T12:02:09.000Z</time></trkpt>
<trkpt lat="41.725555" lon="23.494351"><ele>2826.5</ele><time>2026-03-15T12:02:10.000Z</time></trkpt>
<trkpt lat="41.725553" lon="23.494358"><ele>2826.5</ele><time>2026-03-15T12:02:11.000Z</time></trkpt>
<trkpt lat="41.725551" lon="23.494366"><ele>2827.2</ele><time>2026-03-15T12:02:12.000Z</time></trkpt>
<trkpt lat="41.725548" lon="23.494374"><ele>2827.2</ele><time>2026-03-15T12:02:13.000Z</time></trkpt>
<trkpt lat="41.725546" lon="23.494381"><ele>2827.2</ele><time>2026-03-15T12:02:14.000Z</time></trkpt>
<trkpt lat="41.725544" lon="23.494389"><ele>2827.2</ele><time>2026-03-15T12:02:15.000Z</time></trkpt>
<trkpt lat="41.725542" lon="23.494396"><ele>2827.2</ele><time>2026-03-15T12:02:16.000Z</time></trkpt>
<trkpt lat="41.72554" lon="23.494404"><ele>2827.6</ele><time>2026-03-15T12:02:17.000Z</time></trkpt>
<trkpt lat="41.725539" lon="23.494413"><ele>2827.6</ele><time>2026-03-15T12:02:18.000Z</time></trkpt>
<trkpt lat="41.725538" lon="23.494421"><ele>2827.6</ele><time>2026-03-15T12:02:19.000Z</time></trkpt>
<trkpt lat="41.725535" lon="23.494432"><ele>2827.6</ele><time>2026-03-15T12:02:20.000Z</time></trkpt>
<trkpt lat="41.725533" lon="23.494444"><ele>2827.6</ele><time>2026-03-15T12:02:21.000Z</time></trkpt>
<trkpt lat="41.725532" lon="23.494454"><ele>2828.7</ele><time>2026-03-15T12:02:22.000Z</time></trkpt>
<trkpt lat="41.72553" lon="23.494465"><ele>2828.7</ele><time>2026-03-15T12:02:23.000Z</time></trkpt>
<trkpt lat="41.725528" lon="23.494477"><ele>2828.7</ele><time>2026-03-15T12:02:24.000Z</time></trkpt>
<trkpt lat="41.725527" lon="23.494486"><ele>2828.7</ele><time>2026-03-15T12:02:25.000Z</time></trkpt>
<trkpt lat="41.725527" lon="23.494496"><ele>2828.7</ele><time>2026-03-15T12:02:26.000Z</time></trkpt>
<trkpt lat="41.725526" lon="23.494505"><ele>2829.6</ele><time>2026-03-15T12:02:27.000Z</time></trkpt>
<trkpt lat="41.725527" lon="23.494514"><ele>2829.6</ele><time>2026-03-15T12:02:28.000Z</time></trkpt>
<trkpt lat="41.725527" lon="23.494522"><ele>2829.6</ele><time>2026-03-15T12:02:29.000Z</time></trkpt>
<trkpt lat="41.725527" lon="23.494528"><ele>2829.6</ele><time>2026-03-15T12:02:30.000Z</time></trkpt>
<trkpt lat="41.725526" lon="23.494532"><ele>2829.6</ele><time>2026-03-15T12:02:31.000Z</time></trkpt>
<trkpt lat="41.725525" lon="23.494537"><ele>2830</ele><time>2026-03-15T12:02:32.000Z</time></trkpt>
<trkpt lat="41.725524" lon="23.494539"><ele>2830</ele><time>2026-03-15T12:02:33.000Z</time></trkpt>
<trkpt lat="41.725522" lon="23.494541"><ele>2830</ele><time>2026-03-15T12:02:34.000Z</time></trkpt>
<trkpt lat="41.725521" lon="23.494541"><ele>2830</ele><time>2026-03-15T12:02:35.000Z</time></trkpt>
<trkpt lat="41.72552" lon="23.494541"><ele>2830</ele><time>2026-03-15T12:02:36.000Z</time></trkpt>
<trkpt lat="41.72552" lon="23.49454"><ele>2830.7</ele><time>2026-03-15T12:02:37.000Z</time></trkpt>
<trkpt lat="41.72552" lon="23.494539"><ele>2830.7</ele><time>2026-03-15T12:02:38.000Z</time></trkpt>
<trkpt lat="41.725521" lon="23.494539"><ele>2830.7</ele><time>2026-03-15T12:02:39.000Z</time></trkpt>
<trkpt lat="41.725522" lon="23.494539"><ele>2830.7</ele><time>2026-03-15T12:02:40.000Z</time></trkpt>
<trkpt lat="41.725522" lon="23.49454"><ele>2830.7</ele><time>2026-03-15T12:02:41.000Z</time></trkpt>
<trkpt lat="41.725522" lon="23.494542"><ele>2831.5</ele><time>2026-03-15T12:02:42.000Z</time></trkpt>
<trkpt lat="41.725522" lon="23.494543"><ele>2831.5</ele><time>2026-03-15T12:02:43.000Z</time></trkpt>
<trkpt lat="41.725522" lon="23.494544"><ele>2831.5</ele><time>2026-03-15T12:02:44.000Z</time></trkpt>
<trkpt lat="41.725522" lon="23.494544"><ele>2831.5</ele><time>2026-03-15T12:02:45.000Z</time></trkpt>
<trkpt lat="41.725522" lon="23.494544"><ele>2831.5</ele><time>2026-03-15T12:02:46.000Z</time></trkpt>
<trkpt lat="41.725521" lon="23.494545"><ele>2831.8</ele><time>2026-03-15T12:02:47.000Z</time></trkpt>
<trkpt lat="41.725522" lon="23.494545"><ele>2831.8</ele><time>2026-03-15T12:02:48.000Z</time></trkpt>
<trkpt lat="41.725522" lon="23.494545"><ele>2831.8</ele><time>2026-03-15T12:02:49.000Z</time></trkpt>
<trkpt lat="41.725523" lon="23.494546"><ele>2831.8</ele><time>2026-03-15T12:02:50.000Z</time></trkpt>
<trkpt lat="41.725523" lon="23.494546"><ele>2831.8</ele><time>2026-03-15T12:02:51.000Z</time></trkpt>
<trkpt lat="41.725523" lon="23.494546"><ele>2832.1</ele><time>2026-03-15T12:02:52.000Z</time></trkpt>
<trkpt lat="41.725523" lon="23.494546"><ele>2832.1</ele><time>2026-03-15T12:02:53.000Z</time></trkpt>
<trkpt lat="41.725524" lon="23.494547"><ele>2832.1</ele><time>2026-03-15T12:02:54.000Z</time></trkpt>
<trkpt lat="41.725523" lon="23.494549"><ele>2832.1</ele><time>2026-03-15T12:02:55.000Z</time></trkpt>
<trkpt lat="41.725523" lon="23.494553"><ele>2832.1</ele><time>2026-03-15T12:02:56.000Z</time></trkpt>
<trkpt lat="41.725522" lon="23.494557"><ele>2832.1</ele><time>2026-03-15T12:02:57.000Z</time></trkpt>
<trkpt lat="41.725519" lon="23.494565"><ele>2832.1</ele><time>2026-03-15T12:02:58.000Z</time></trkpt>
<trkpt lat="41.725516" lon="23.494572"><ele>2832.1</ele><time>2026-03-15T12:02:59.000Z</time></trkpt>
<trkpt lat="41.725513" lon="23.49458"><ele>2832.1</ele><time>2026-03-15T12:03:00.000Z</time></trkpt>
<trkpt lat="41.725511" lon="23.494587"><ele>2832.1</ele><time>2026-03-15T12:03:01.000Z</time></trkpt>
<trkpt lat="41.725507" lon="23.494595"><ele>2832.1</ele><time>2026-03-15T12:03:02.000Z</time></trkpt>
<trkpt lat="41.725504" lon="23.494604"><ele>2832.1</ele><time>2026-03-15T12:03:03.000Z</time></trkpt>
<trkpt lat="41.725501" lon="23.494612"><ele>2832.1</ele><time>2026-03-15T12:03:04.000Z</time></trkpt>
<trkpt lat="41.725498" lon="23.49462"><ele>2832.1</ele><time>2026-03-15T12:03:05.000Z</time></trkpt>
<trkpt lat="41.725495" lon="23.49463"><ele>2832.1</ele><time>2026-03-15T12:03:06.000Z</time></trkpt>
<trkpt lat="41.725492" lon="23.494639"><ele>2832.4</ele><time>2026-03-15T12:03:07.000Z</time></trkpt>
<trkpt lat="41.72549" lon="23.494647"><ele>2832.4</ele><time>2026-03-15T12:03:08.000Z</time></trkpt>
<trkpt lat="41.725487" lon="23.494655"><ele>2832.4</ele><time>2026-03-15T12:03:09.000Z</time></trkpt>
<trkpt lat="41.725484" lon="23.494663"><ele>2832.4</ele><time>2026-03-15T12:03:10.000Z</time></trkpt>
<trkpt lat="41.725481" lon="23.49467"><ele>2832.4</ele><time>2026-03-15T12:03:11.000Z</time></trkpt>
<trkpt lat="41.725478" lon="23.494676"><ele>2833</ele><time>2026-03-15T12:03:12.000Z</time></trkpt>
<trkpt lat="41.725476" lon="23.494682"><ele>2833</ele><time>2026-03-15T12:03:13.000Z</time></trkpt>
<trkpt lat="41.725473" lon="23.494688"><ele>2833</ele><time>2026-03-15T12:03:14.000Z</time></trkpt>
<trkpt lat="41.725472" lon="23.494692"><ele>2833</ele><time>2026-03-15T12:03:15.000Z</time></trkpt>
<trkpt lat="41.725471" lon="23.494695"><ele>2833</ele><time>2026-03-15T12:03:16.000Z</time></trkpt>
<trkpt lat="41.72547" lon="23.494698"><ele>2833.4</ele><time>2026-03-15T12:03:17.000Z</time></trkpt>
<trkpt lat="41.725471" lon="23.4947"><ele>2833.4</ele><time>2026-03-15T12:03:18.000Z</time></trkpt>
<trkpt lat="41.725472" lon="23.494702"><ele>2833.4</ele><time>2026-03-15T12:03:19.000Z</time></trkpt>
<trkpt lat="41.725473" lon="23.494703"><ele>2833.4</ele><time>2026-03-15T12:03:20.000Z</time></trkpt>
<trkpt lat="41.725474" lon="23.494704"><ele>2833.4</ele><time>2026-03-15T12:03:21.000Z</time></trkpt>
<trkpt lat="41.725476" lon="23.494704"><ele>2834.1</ele><time>2026-03-15T12:03:22.000Z</time></trkpt>
<trkpt lat="41.725478" lon="23.494704"><ele>2834.1</ele><time>2026-03-15T12:03:23.000Z</time></trkpt>
<trkpt lat="41.72548" lon="23.494702"><ele>2834.1</ele><time>2026-03-15T12:03:24.000Z</time></trkpt>
<trkpt lat="41.725481" lon="23.4947"><ele>2834.1</ele><time>2026-03-15T12:03:25.000Z</time></trkpt>
<trkpt lat="41.725483" lon="23.494699"><ele>2834.1</ele><time>2026-03-15T12:03:26.000Z</time></trkpt>
<trkpt lat="41.725484" lon="23.494698"><ele>2834.9</ele><time>2026-03-15T12:03:27.000Z</time></trkpt>
<trkpt lat="41.725485" lon="23.494699"><ele>2834.9</ele><time>2026-03-15T12:03:28.000Z</time></trkpt>
<trkpt lat="41.725486" lon="23.4947"><ele>2834.9</ele><time>2026-03-15T12:03:29.000Z</time></trkpt>
<trkpt lat="41.725487" lon="23.494701"><ele>2834.9</ele><time>2026-03-15T12:03:30.000Z</time></trkpt>
<trkpt lat="41.725487" lon="23.494702"><ele>2834.9</ele><time>2026-03-15T12:03:31.000Z</time></trkpt>
<trkpt lat="41.725487" lon="23.494702"><ele>2835.1</ele><time>2026-03-15T12:03:32.000Z</time></trkpt>
<trkpt lat="41.725487" lon="23.494703"><ele>2835.1</ele><time>2026-03-15T12:03:33.000Z</time></trkpt>
<trkpt lat="41.725487" lon="23.494703"><ele>2835.1</ele><time>2026-03-15T12:03:34.000Z</time></trkpt>
<trkpt lat="41.725487" lon="23.494703"><ele>2835.1</ele><time>2026-03-15T12:03:35.000Z</time></trkpt>
<trkpt lat="41.725487" lon="23.494703"><ele>2835.1</ele><time>2026-03-15T12:03:36.000Z</time></trkpt>
<trkpt lat="41.725487" lon="23.494703"><ele>2835.4</ele><time>2026-03-15T12:03:37.000Z</time></trkpt>
<trkpt lat="41.725487" lon="23.494703"><ele>2835.4</ele><time>2026-03-15T12:03:38.000Z</time></trkpt>
<trkpt lat="41.725487" lon="23.494703"><ele>2835.4</ele><time>2026-03-15T12:03:39.000Z</time></trkpt>
<trkpt lat="41.725488" lon="23.494702"><ele>2835.4</ele><time>2026-03-15T12:03:40.000Z</time></trkpt>
<trkpt lat="41.725488" lon="23.494702"><ele>2835.4</ele><time>2026-03-15T12:03:41.000Z</time></trkpt>
<trkpt lat="41.725488" lon="23.494702"><ele>2835.4</ele><time>2026-03-15T12:03:42.000Z</time></trkpt>
<trkpt lat="41.725488" lon="23.494702"><ele>2835.4</ele><time>2026-03-15T12:03:43.000Z</time></trkpt>
<trkpt lat="41.725488" lon="23.494702"><ele>2835.4</ele><time>2026-03-15T12:03:44.000Z</time></trkpt>
<trkpt lat="41.725488" lon="23.494702"><ele>2835.4</ele><time>2026-03-15T12:03:45.000Z</time></trkpt>
<trkpt lat="41.725488" lon="23.494702"><ele>2835.4</ele><time>2026-03-15T12:03:46.000Z</time></trkpt>
<trkpt lat="41.725488" lon="23.494701"><ele>2835.4</ele><time>2026-03-15T12:03:47.000Z</time></trkpt>
<trkpt lat="41.725488" lon="23.494701"><ele>2835.4</ele><time>2026-03-15T12:03:48.000Z</time></trkpt>
<trkpt lat="41.725488" lon="23.494701"><ele>2835.4</ele><time>2026-03-15T12:03:49.000Z</time></trkpt>
<trkpt lat="41.725488" lon="23.494701"><ele>2835.4</ele><time>2026-03-15T12:03:50.000Z</time></trkpt>
<trkpt lat="41.725488" lon="23.494701"><ele>2835.4</ele><time>2026-03-15T12:03:51.000Z</time></trkpt>
<trkpt lat="41.725488" lon="23.494702"><ele>2835.2</ele><time>2026-03-15T12:03:52.000Z</time></trkpt>
<trkpt lat="41.725488" lon="23.494702"><ele>2835.2</ele><time>2026-03-15T12:03:53.000Z</time></trkpt>
<trkpt lat="41.725488" lon="23.494702"><ele>2835.2</ele><time>2026-03-15T12:03:54.000Z</time></trkpt>
<trkpt lat="41.725488" lon="23.494702"><ele>2835.2</ele><time>2026-03-15T12:03:55.000Z</time></trkpt>
<trkpt lat="41.725488" lon="23.494702"><ele>2835.2</ele><time>2026-03-15T12:03:56.000Z</time></trkpt>
<trkpt lat="41.725488" lon="23.494702"><ele>2835</ele><time>2026-03-15T12:03:57.000Z</time></trkpt>
<trkpt lat="41.725488" lon="23.494702"><ele>2835</ele><time>2026-03-15T12:03:58.000Z</time></trkpt>
<trkpt lat="41.725488" lon="23.494702"><ele>2835</ele><time>2026-03-15T12:03:59.000Z</time></trkpt>
<trkpt lat="41.725488" lon="23.494702"><ele>2835</ele><time>2026-03-15T12:04:00.000Z</time></trkpt>
<trkpt lat="41.725488" lon="23.494702"><ele>2835</ele><time>2026-03-15T12:04:01.000Z</time></trkpt>
<trkpt lat="41.725488" lon="23.494702"><ele>2834.9</ele><time>2026-03-15T12:04:02.000Z</time></trkpt>
<trkpt lat="41.725488" lon="23.494703"><ele>2834.9</ele><time>2026-03-15T12:04:03.000Z</time></trkpt>
<trkpt lat="41.725488" lon="23.494705"><ele>2834.9</ele><time>2026-03-15T12:04:04.000Z</time></trkpt>
<trkpt lat="41.725487" lon="23.494709"><ele>2834.9</ele><time>2026-03-15T12:04:05.000Z</time></trkpt>
<trkpt lat="41.725487" lon="23.494713"><ele>2834.9</ele><time>2026-03-15T12:04:06.000Z</time></trkpt>
<trkpt lat="41.725485" lon="23.49472"><ele>2834.9</ele><time>2026-03-15T12:04:07.000Z</time></trkpt>
<trkpt lat="41.725484" lon="23.494727"><ele>2834.9</ele><time>2026-03-15T12:04:08.000Z</time></trkpt>
<trkpt lat="41.725483" lon="23.494735"><ele>2834.9</ele><time>2026-03-15T12:04:09.000Z</time></trkpt>
<trkpt lat="41.725481" lon="23.494743"><ele>2834.9</ele><time>2026-03-15T12:04:10.000Z</time></trkpt>
<trkpt lat="41.725478" lon="23.494752"><ele>2834.9</ele><time>2026-03-15T12:04:11.000Z</time></trkpt>
<trkpt lat="41.725477" lon="23.494761"><ele>2835.2</ele><time>2026-03-15T12:04:12.000Z</time></trkpt>
<trkpt lat="41.725475" lon="23.49477"><ele>2835.2</ele><time>2026-03-15T12:04:13.000Z</time></trkpt>
<trkpt lat="41.725474" lon="23.494779"><ele>2835.2</ele><time>2026-03-15T12:04:14.000Z</time></trkpt>
<trkpt lat="41.725474" lon="23.494789"><ele>2835.2</ele><time>2026-03-15T12:04:15.000Z</time></trkpt>
<trkpt lat="41.725474" lon="23.494795"><ele>2835.2</ele><time>2026-03-15T12:04:16.000Z</time></trkpt>
<trkpt lat="41.725473" lon="23.494802"><ele>2835.4</ele><time>2026-03-15T12:04:17.000Z</time></trkpt>
<trkpt lat="41.725472" lon="23.494809"><ele>2835.4</ele><time>2026-03-15T12:04:18.000Z</time></trkpt>
<trkpt lat="41.725471" lon="23.494815"><ele>2835.4</ele><time>2026-03-15T12:04:19.000Z</time></trkpt>
<trkpt lat="41.72547" lon="23.494821"><ele>2835.4</ele><time>2026-03-15T12:04:20.000Z</time></trkpt>
<trkpt lat="41.725468" lon="23.494829"><ele>2835.4</ele><time>2026-03-15T12:04:21.000Z</time></trkpt>
<trkpt lat="41.725466" lon="23.494836"><ele>2835.9</ele><time>2026-03-15T12:04:22.000Z</time></trkpt>
<trkpt lat="41.725466" lon="23.494843"><ele>2835.9</ele><time>2026-03-15T12:04:23.000Z</time></trkpt>
<trkpt lat="41.725464" lon="23.494852"><ele>2835.9</ele><time>2026-03-15T12:04:24.000Z</time></trkpt>
<trkpt lat="41.725463" lon="23.49486"><ele>2835.9</ele><time>2026-03-15T12:04:25.000Z</time></trkpt>
<trkpt lat="41.725463" lon="23.494867"><ele>2835.9</ele><time>2026-03-15T12:04:26.000Z</time></trkpt>
<trkpt lat="41.725462" lon="23.494873"><ele>2836.8</ele><time>2026-03-15T12:04:27.000Z</time></trkpt>
<trkpt lat="41.725461" lon="23.49488"><ele>2836.8</ele><time>2026-03-15T12:04:28.000Z</time></trkpt>
<trkpt lat="41.725459" lon="23.494887"><ele>2836.8</ele><time>2026-03-15T12:04:29.000Z</time></trkpt>
<trkpt lat="41.725457" lon="23.494894"><ele>2836.8</ele><time>2026-03-15T12:04:30.000Z</time></trkpt>
<trkpt lat="41.725456" lon="23.494902"><ele>2836.8</ele><time>2026-03-15T12:04:31.000Z</time></trkpt>
<trkpt lat="41.725454" lon="23.494911"><ele>2837.4</ele><time>2026-03-15T12:04:32.000Z</time></trkpt>
<trkpt lat="41.725452" lon="23.49492"><ele>2837.4</ele><time>2026-03-15T12:04:33.000Z</time></trkpt>
<trkpt lat="41.725451" lon="23.494927"><ele>2837.4</ele><time>2026-03-15T12:04:34.000Z</time></trkpt>
<trkpt lat="41.725449" lon="23.494934"><ele>2837.4</ele><time>2026-03-15T12:04:35.000Z</time></trkpt>
<trkpt lat="41.725446" lon="23.494942"><ele>2837.4</ele><time>2026-03-15T12:04:36.000Z</time></trkpt>
<trkpt lat="41.725445" lon="23.494949"><ele>2838.4</ele><time>2026-03-15T12:04:37.000Z</time></trkpt>
<trkpt lat="41.725443" lon="23.494955"><ele>2838.4</ele><time>2026-03-15T12:04:38.000Z</time></trkpt>
<trkpt lat="41.72544" lon="23.494963"><ele>2838.4</ele><time>2026-03-15T12:04:39.000Z</time></trkpt>
<trkpt lat="41.725439" lon="23.494969"><ele>2838.4</ele><time>2026-03-15T12:04:40.000Z</time></trkpt>
<trkpt lat="41.725438" lon="23.494975"><ele>2838.4</ele><time>2026-03-15T12:04:41.000Z</time></trkpt>
<trkpt lat="41.725436" lon="23.49498"><ele>2839.5</ele><time>2026-03-15T12:04:42.000Z</time></trkpt>
<trkpt lat="41.725435" lon="23.494985"><ele>2839.5</ele><time>2026-03-15T12:04:43.000Z</time></trkpt>
<trkpt lat="41.725434" lon="23.49499"><ele>2839.5</ele><time>2026-03-15T12:04:44.000Z</time></trkpt>
<trkpt lat="41.725432" lon="23.494994"><ele>2839.5</ele><time>2026-03-15T12:04:45.000Z</time></trkpt>
<trkpt lat="41.725431" lon="23.494999"><ele>2839.5</ele><time>2026-03-15T12:04:46.000Z</time></trkpt>
<trkpt lat="41.72543" lon="23.495004"><ele>2840</ele><time>2026-03-15T12:04:47.000Z</time></trkpt>
<trkpt lat="41.725429" lon="23.495009"><ele>2840</ele><time>2026-03-15T12:04:48.000Z</time></trkpt>
<trkpt lat="41.725428" lon="23.495014"><ele>2840</ele><time>2026-03-15T12:04:49.000Z</time></trkpt>
<trkpt lat="41.725427" lon="23.495018"><ele>2840</ele><time>2026-03-15T12:04:50.000Z</time></trkpt>
<trkpt lat="41.725426" lon="23.495022"><ele>2840</ele><time>2026-03-15T12:04:51.000Z</time></trkpt>
<trkpt lat="41.725426" lon="23.495028"><ele>2841.2</ele><time>2026-03-15T12:04:52.000Z</time></trkpt>
<trkpt lat="41.725425" lon="23.495033"><ele>2841.2</ele><time>2026-03-15T12:04:53.000Z</time></trkpt>
<trkpt lat="41.725425" lon="23.49504"><ele>2841.2</ele><time>2026-03-15T12:04:54.000Z</time></trkpt>
<trkpt lat="41.725425" lon="23.495048"><ele>2841.2</ele><time>2026-03-15T12:04:55.000Z</time></trkpt>
<trkpt lat="41.725425" lon="23.495055"><ele>2841.2</ele><time>2026-03-15T12:04:56.000Z</time></trkpt>
<trkpt lat="41.725424" lon="23.495063"><ele>2842.2</ele><time>2026-03-15T12:04:57.000Z</time></trkpt>
<trkpt lat="41.725424" lon="23.495071"><ele>2842.2</ele><time>2026-03-15T12:04:58.000Z</time></trkpt>
<trkpt lat="41.725424" lon="23.495077"><ele>2842.2</ele><time>2026-03-15T12:04:59.000Z</time></trkpt>
<trkpt lat="41.725423" lon="23.495083"><ele>2842.2</ele><time>2026-03-15T12:05:00.000Z</time></trkpt>
<trkpt lat="41.725423" lon="23.495089"><ele>2842.2</ele><time>2026-03-15T12:05:01.000Z</time></trkpt>
<trkpt lat="41.725422" lon="23.495094"><ele>2842.6</ele><time>2026-03-15T12:05:02.000Z</time></trkpt>
<trkpt lat="41.725421" lon="23.495098"><ele>2842.6</ele><time>2026-03-15T12:05:03.000Z</time></trkpt>
<trkpt lat="41.72542" lon="23.495102"><ele>2842.6</ele><time>2026-03-15T12:05:04.000Z</time></trkpt>
<trkpt lat="41.72542" lon="23.495104"><ele>2842.6</ele><time>2026-03-15T12:05:05.000Z</time></trkpt>
<trkpt lat="41.725419" lon="23.495106"><ele>2842.6</ele><time>2026-03-15T12:05:06.000Z</time></trkpt>
<trkpt lat="41.725419" lon="23.495108"><ele>2843.3</ele><time>2026-03-15T12:05:07.000Z</time></trkpt>
<trkpt lat="41.725418" lon="23.495113"><ele>2843.3</ele><time>2026-03-15T12:05:08.000Z</time></trkpt>
<trkpt lat="41.725417" lon="23.49512"><ele>2843.3</ele><time>2026-03-15T12:05:09.000Z</time></trkpt>
<trkpt lat="41.725416" lon="23.495128"><ele>2843.3</ele><time>2026-03-15T12:05:10.000Z</time></trkpt>
<trkpt lat="41.725414" lon="23.495138"><ele>2843.3</ele><time>2026-03-15T12:05:11.000Z</time></trkpt>
<trkpt lat="41.725412" lon="23.49515"><ele>2843.9</ele><time>2026-03-15T12:05:12.000Z</time></trkpt>
<trkpt lat="41.72541" lon="23.49516"><ele>2843.9</ele><time>2026-03-15T12:05:13.000Z</time></trkpt>
<trkpt lat="41.725407" lon="23.49517"><ele>2843.9</ele><time>2026-03-15T12:05:14.000Z</time></trkpt>
<trkpt lat="41.725405" lon="23.495182"><ele>2843.9</ele><time>2026-03-15T12:05:15.000Z</time></trkpt>
<trkpt lat="41.725404" lon="23.49519"><ele>2843.9</ele><time>2026-03-15T12:05:16.000Z</time></trkpt>
<trkpt lat="41.725401" lon="23.495198"><ele>2844.2</ele><time>2026-03-15T12:05:17.000Z</time></trkpt>
<trkpt lat="41.725399" lon="23.495206"><ele>2844.2</ele><time>2026-03-15T12:05:18.000Z</time></trkpt>
<trkpt lat="41.725397" lon="23.495213"><ele>2844.2</ele><time>2026-03-15T12:05:19.000Z</time></trkpt>
<trkpt lat="41.725396" lon="23.495219"><ele>2844.2</ele><time>2026-03-15T12:05:20.000Z</time></trkpt>
<trkpt lat="41.725393" lon="23.495228"><ele>2844.2</ele><time>2026-03-15T12:05:21.000Z</time></trkpt>
<trkpt lat="41.725391" lon="23.495236"><ele>2844.7</ele><time>2026-03-15T12:05:22.000Z</time></trkpt>
<trkpt lat="41.72539" lon="23.495244"><ele>2844.7</ele><time>2026-03-15T12:05:23.000Z</time></trkpt>
<trkpt lat="41.725388" lon="23.495254"><ele>2844.7</ele><time>2026-03-15T12:05:24.000Z</time></trkpt>
<trkpt lat="41.725386" lon="23.495262"><ele>2844.7</ele><time>2026-03-15T12:05:25.000Z</time></trkpt>
<trkpt lat="41.725385" lon="23.49527"><ele>2844.7</ele><time>2026-03-15T12:05:26.000Z</time></trkpt>
<trkpt lat="41.725383" lon="23.495277"><ele>2845.2</ele><time>2026-03-15T12:05:27.000Z</time></trkpt>
<trkpt lat="41.725382" lon="23.495284"><ele>2845.2</ele><time>2026-03-15T12:05:28.000Z</time></trkpt>
<trkpt lat="41.725381" lon="23.49529"><ele>2845.2</ele><time>2026-03-15T12:05:29.000Z</time></trkpt>
<trkpt lat="41.725379" lon="23.495296"><ele>2845.2</ele><time>2026-03-15T12:05:30.000Z</time></trkpt>
<trkpt lat="41.725378" lon="23.495303"><ele>2845.2</ele><time>2026-03-15T12:05:31.000Z</time></trkpt>
<trkpt lat="41.725377" lon="23.495309"><ele>2845.5</ele><time>2026-03-15T12:05:32.000Z</time></trkpt>
<trkpt lat="41.725374" lon="23.495316"><ele>2845.5</ele><time>2026-03-15T12:05:33.000Z</time></trkpt>
<trkpt lat="41.725373" lon="23.495325"><ele>2845.5</ele><time>2026-03-15T12:05:34.000Z</time></trkpt>
<trkpt lat="41.72537" lon="23.495332"><ele>2845.5</ele><time>2026-03-15T12:05:35.000Z</time></trkpt>
<trkpt lat="41.725368" lon="23.495341"><ele>2845.5</ele><time>2026-03-15T12:05:36.000Z</time></trkpt>
<trkpt lat="41.725366" lon="23.49535"><ele>2846.4</ele><time>2026-03-15T12:05:37.000Z</time></trkpt>
<trkpt lat="41.725365" lon="23.495358"><ele>2846.4</ele><time>2026-03-15T12:05:38.000Z</time></trkpt>
<trkpt lat="41.725364" lon="23.495367"><ele>2846.4</ele><time>2026-03-15T12:05:39.000Z</time></trkpt>
<trkpt lat="41.725363" lon="23.495375"><ele>2846.4</ele><time>2026-03-15T12:05:40.000Z</time></trkpt>
<trkpt lat="41.725362" lon="23.495383"><ele>2846.4</ele><time>2026-03-15T12:05:41.000Z</time></trkpt>
<trkpt lat="41.725362" lon="23.495391"><ele>2847.6</ele><time>2026-03-15T12:05:42.000Z</time></trkpt>
<trkpt lat="41.725361" lon="23.495398"><ele>2847.6</ele><time>2026-03-15T12:05:43.000Z</time></trkpt>
<trkpt lat="41.72536" lon="23.495405"><ele>2847.6</ele><time>2026-03-15T12:05:44.000Z</time></trkpt>
<trkpt lat="41.725358" lon="23.495413"><ele>2847.6</ele><time>2026-03-15T12:05:45.000Z</time></trkpt>
<trkpt lat="41.725357" lon="23.495419"><ele>2847.6</ele><time>2026-03-15T12:05:46.000Z</time></trkpt>
<trkpt lat="41.725356" lon="23.495426"><ele>2848.1</ele><time>2026-03-15T12:05:47.000Z</time></trkpt>
<trkpt lat="41.725355" lon="23.495434"><ele>2848.1</ele><time>2026-03-15T12:05:48.000Z</time></trkpt>
<trkpt lat="41.725355" lon="23.495441"><ele>2848.1</ele><time>2026-03-15T12:05:49.000Z</time></trkpt>
<trkpt lat="41.725355" lon="23.495449"><ele>2848.1</ele><time>2026-03-15T12:05:50.000Z</time></trkpt>
<trkpt lat="41.725355" lon="23.495459"><ele>2848.1</ele><time>2026-03-15T12:05:51.000Z</time></trkpt>
<trkpt lat="41.725355" lon="23.495466"><ele>2848.9</ele><time>2026-03-15T12:05:52.000Z</time></trkpt>
<trkpt lat="41.725354" lon="23.495475"><ele>2848.9</ele><time>2026-03-15T12:05:53.000Z</time></trkpt>
<trkpt lat="41.725353" lon="23.495482"><ele>2848.9</ele><time>2026-03-15T12:05:54.000Z</time></trkpt>
<trkpt lat="41.725353" lon="23.495489"><ele>2848.9</ele><time>2026-03-15T12:05:55.000Z</time></trkpt>
<trkpt lat="41.725352" lon="23.495496"><ele>2848.9</ele><time>2026-03-15T12:05:56.000Z</time></trkpt>
<trkpt lat="41.725352" lon="23.495503"><ele>2849.6</ele><time>2026-03-15T12:05:57.000Z</time></trkpt>
<trkpt lat="41.725351" lon="23.495511"><ele>2849.6</ele><time>2026-03-15T12:05:58.000Z</time></trkpt>
<trkpt lat="41.725351" lon="23.49552"><ele>2849.6</ele><time>2026-03-15T12:05:59.000Z</time></trkpt>
<trkpt lat="41.72535" lon="23.495528"><ele>2849.6</ele><time>2026-03-15T12:06:00.000Z</time></trkpt>
<trkpt lat="41.725348" lon="23.495537"><ele>2849.6</ele><time>2026-03-15T12:06:01.000Z</time></trkpt>
<trkpt lat="41.725346" lon="23.495547"><ele>2850</ele><time>2026-03-15T12:06:02.000Z</time></trkpt>
<trkpt lat="41.725345" lon="23.495555"><ele>2850</ele><time>2026-03-15T12:06:03.000Z</time></trkpt>
<trkpt lat="41.725342" lon="23.495564"><ele>2850</ele><time>2026-03-15T12:06:04.000Z</time></trkpt>
<trkpt lat="41.72534" lon="23.495571"><ele>2850</ele><time>2026-03-15T12:06:05.000Z</time></trkpt>
<trkpt lat="41.72534" lon="23.495578"><ele>2850</ele><time>2026-03-15T12:06:06.000Z</time></trkpt>
<trkpt lat="41.725339" lon="23.495585"><ele>2850.9</ele><time>2026-03-15T12:06:07.000Z</time></trkpt>
<trkpt lat="41.725338" lon="23.495592"><ele>2850.9</ele><time>2026-03-15T12:06:08.000Z</time></trkpt>
<trkpt lat="41.725337" lon="23.495598"><ele>2850.9</ele><time>2026-03-15T12:06:09.000Z</time></trkpt>
<trkpt lat="41.725337" lon="23.495607"><ele>2850.9</ele><time>2026-03-15T12:06:10.000Z</time></trkpt>
<trkpt lat="41.725335" lon="23.495616"><ele>2850.9</ele><time>2026-03-15T12:06:11.000Z</time></trkpt>
<trkpt lat="41.725333" lon="23.495625"><ele>2851.7</ele><time>2026-03-15T12:06:12.000Z</time></trkpt>
<trkpt lat="41.725331" lon="23.495635"><ele>2851.7</ele><time>2026-03-15T12:06:13.000Z</time></trkpt>
<trkpt lat="41.72533" lon="23.495645"><ele>2851.7</ele><time>2026-03-15T12:06:14.000Z</time></trkpt>
<trkpt lat="41.725329" lon="23.495655"><ele>2851.7</ele><time>2026-03-15T12:06:15.000Z</time></trkpt>
<trkpt lat="41.725329" lon="23.495666"><ele>2851.7</ele><time>2026-03-15T12:06:16.000Z</time></trkpt>
<trkpt lat="41.725329" lon="23.495677"><ele>2852.1</ele><time>2026-03-15T12:06:17.000Z</time></trkpt>
<trkpt lat="41.725328" lon="23.495687"><ele>2852.1</ele><time>2026-03-15T12:06:18.000Z</time></trkpt>
<trkpt lat="41.725328" lon="23.495697"><ele>2852.1</ele><time>2026-03-15T12:06:19.000Z</time></trkpt>
<trkpt lat="41.725327" lon="23.495704"><ele>2852.1</ele><time>2026-03-15T12:06:20.000Z</time></trkpt>
<trkpt lat="41.725326" lon="23.495709"><ele>2852.1</ele><time>2026-03-15T12:06:21.000Z</time></trkpt>
<trkpt lat="41.725325" lon="23.495711"><ele>2852.6</ele><time>2026-03-15T12:06:22.000Z</time></trkpt>
<trkpt lat="41.725325" lon="23.495712"><ele>2852.6</ele><time>2026-03-15T12:06:23.000Z</time></trkpt>
<trkpt lat="41.725324" lon="23.495712"><ele>2852.6</ele><time>2026-03-15T12:06:24.000Z</time></trkpt>
<trkpt lat="41.725324" lon="23.495712"><ele>2852.6</ele><time>2026-03-15T12:06:25.000Z</time></trkpt>
<trkpt lat="41.725324" lon="23.495712"><ele>2852.6</ele><time>2026-03-15T12:06:26.000Z</time></trkpt>
<trkpt lat="41.725324" lon="23.495712"><ele>2853.3</ele><time>2026-03-15T12:06:27.000Z</time></trkpt>
<trkpt lat="41.725324" lon="23.495712"><ele>2853.3</ele><time>2026-03-15T12:06:28.000Z</time></trkpt>
<trkpt lat="41.725324" lon="23.495711"><ele>2853.3</ele><time>2026-03-15T12:06:29.000Z</time></trkpt>
<trkpt lat="41.725324" lon="23.495711"><ele>2853.3</ele><time>2026-03-15T12:06:30.000Z</time></trkpt>
<trkpt lat="41.725323" lon="23.495712"><ele>2853.3</ele><time>2026-03-15T12:06:31.000Z</time></trkpt>
<trkpt lat="41.725323" lon="23.495713"><ele>2853.6</ele><time>2026-03-15T12:06:32.000Z</time></trkpt>
<trkpt lat="41.725323" lon="23.495714"><ele>2853.6</ele><time>2026-03-15T12:06:33.000Z</time></trkpt>
<trkpt lat="41.725323" lon="23.495715"><ele>2853.6</ele><time>2026-03-15T12:06:34.000Z</time></trkpt>
<trkpt lat="41.725323" lon="23.495716"><ele>2853.6</ele><time>2026-03-15T12:06:35.000Z</time></trkpt>
<trkpt lat="41.725323" lon="23.495716"><ele>2853.6</ele><time>2026-03-15T12:06:36.000Z</time></trkpt>
<trkpt lat="41.725323" lon="23.495716"><ele>2854</ele><time>2026-03-15T12:06:37.000Z</time></trkpt>
<trkpt lat="41.725323" lon="23.495716"><ele>2854</ele><time>2026-03-15T12:06:38.000Z</time></trkpt>
<trkpt lat="41.725323" lon="23.495716"><ele>2854</ele><time>2026-03-15T12:06:39.000Z</time></trkpt>
<trkpt lat="41.725323" lon="23.495716"><ele>2854</ele><time>2026-03-15T12:06:40.000Z</time></trkpt>
<trkpt lat="41.725323" lon="23.495716"><ele>2854</ele><time>2026-03-15T12:06:41.000Z</time></trkpt>
<trkpt lat="41.725323" lon="23.495716"><ele>2854.1</ele><time>2026-03-15T12:06:42.000Z</time></trkpt>
<trkpt lat="41.725323" lon="23.495716"><ele>2854.1</ele><time>2026-03-15T12:06:43.000Z</time></trkpt>
<trkpt lat="41.725323" lon="23.495716"><ele>2854.1</ele><time>2026-03-15T12:06:44.000Z</time></trkpt>
<trkpt lat="41.725323" lon="23.495716"><ele>2854.1</ele><time>2026-03-15T12:06:45.000Z</time></trkpt>
<trkpt lat="41.725323" lon="23.495716"><ele>2854.1</ele><time>2026-03-15T12:06:46.000Z</time></trkpt>
<trkpt lat="41.725323" lon="23.495716"><ele>2854.1</ele><time>2026-03-15T12:06:47.000Z</time></trkpt>
<trkpt lat="41.725323" lon="23.495716"><ele>2854.1</ele><time>2026-03-15T12:06:48.000Z</time></trkpt>
<trkpt lat="41.725324" lon="23.495718"><ele>2854.1</ele><time>2026-03-15T12:06:49.000Z</time></trkpt>
<trkpt lat="41.725324" lon="23.495721"><ele>2854.1</ele><time>2026-03-15T12:06:50.000Z</time></trkpt>
<trkpt lat="41.725326" lon="23.495726"><ele>2854.1</ele><time>2026-03-15T12:06:51.000Z</time></trkpt>
<trkpt lat="41.725327" lon="23.495733"><ele>2853.8</ele><time>2026-03-15T12:06:52.000Z</time></trkpt>
<trkpt lat="41.725327" lon="23.49574"><ele>2853.8</ele><time>2026-03-15T12:06:53.000Z</time></trkpt>
<trkpt lat="41.725325" lon="23.495746"><ele>2853.8</ele><time>2026-03-15T12:06:54.000Z</time></trkpt>
<trkpt lat="41.725323" lon="23.495749"><ele>2853.8</ele><time>2026-03-15T12:06:55.000Z</time></trkpt>
<trkpt lat="41.725321" lon="23.49575"><ele>2853.8</ele><time>2026-03-15T12:06:56.000Z</time></trkpt>
<trkpt lat="41.725319" lon="23.49575"><ele>2853.6</ele><time>2026-03-15T12:06:57.000Z</time></trkpt>
<trkpt lat="41.725318" lon="23.49575"><ele>2853.6</ele><time>2026-03-15T12:06:58.000Z</time></trkpt>
<trkpt lat="41.725319" lon="23.49575"><ele>2853.6</ele><time>2026-03-15T12:06:59.000Z</time></trkpt>
<trkpt lat="41.72532" lon="23.495751"><ele>2853.6</ele><time>2026-03-15T12:07:00.000Z</time></trkpt>
<trkpt lat="41.725321" lon="23.495753"><ele>2853.6</ele><time>2026-03-15T12:07:01.000Z</time></trkpt>
<trkpt lat="41.725321" lon="23.495755"><ele>2853.7</ele><time>2026-03-15T12:07:02.000Z</time></trkpt>
<trkpt lat="41.725322" lon="23.495756"><ele>2853.7</ele><time>2026-03-15T12:07:03.000Z</time></trkpt>
<trkpt lat="41.725322" lon="23.495756"><ele>2853.7</ele><time>2026-03-15T12:07:04.000Z</time></trkpt>
<trkpt lat="41.725321" lon="23.495756"><ele>2853.7</ele><time>2026-03-15T12:07:05.000Z</time></trkpt>
<trkpt lat="41.725321" lon="23.495756"><ele>2853.7</ele><time>2026-03-15T12:07:06.000Z</time></trkpt>
<trkpt lat="41.725321" lon="23.495755"><ele>2853.8</ele><time>2026-03-15T12:07:07.000Z</time></trkpt>
<trkpt lat="41.725322" lon="23.495753"><ele>2853.8</ele><time>2026-03-15T12:07:08.000Z</time></trkpt>
<trkpt lat="41.725323" lon="23.495752"><ele>2853.8</ele><time>2026-03-15T12:07:09.000Z</time></trkpt>
<trkpt lat="41.725324" lon="23.495751"><ele>2853.8</ele><time>2026-03-15T12:07:10.000Z</time></trkpt>
<trkpt lat="41.725324" lon="23.49575"><ele>2853.8</ele><time>2026-03-15T12:07:11.000Z</time></trkpt>
<trkpt lat="41.725324" lon="23.495751"><ele>2853.6</ele><time>2026-03-15T12:07:12.000Z</time></trkpt>
<trkpt lat="41.725324" lon="23.495751"><ele>2853.6</ele><time>2026-03-15T12:07:13.000Z</time></trkpt>
<trkpt lat="41.725323" lon="23.495751"><ele>2853.6</ele><time>2026-03-15T12:07:14.000Z</time></trkpt>
<trkpt lat="41.725323" lon="23.495751"><ele>2853.6</ele><time>2026-03-15T12:07:15.000Z</time></trkpt>
<trkpt lat="41.725322" lon="23.49575"><ele>2853.6</ele><time>2026-03-15T12:07:16.000Z</time></trkpt>
<trkpt lat="41.725322" lon="23.49575"><ele>2853.5</ele><time>2026-03-15T12:07:17.000Z</time></trkpt>
<trkpt lat="41.725321" lon="23.49575"><ele>2853.5</ele><time>2026-03-15T12:07:18.000Z</time></trkpt>
<trkpt lat="41.725321" lon="23.49575"><ele>2853.5</ele><time>2026-03-15T12:07:19.000Z</time></trkpt>
<trkpt lat="41.725321" lon="23.495752"><ele>2853.5</ele><time>2026-03-15T12:07:20.000Z</time></trkpt>
<trkpt lat="41.72532" lon="23.495753"><ele>2853.5</ele><time>2026-03-15T12:07:21.000Z</time></trkpt>
<trkpt lat="41.72532" lon="23.495753"><ele>2853.3</ele><time>2026-03-15T12:07:22.000Z</time></trkpt>
<trkpt lat="41.725319" lon="23.495754"><ele>2853.3</ele><time>2026-03-15T12:07:23.000Z</time></trkpt>
<trkpt lat="41.725319" lon="23.495753"><ele>2853.3</ele><time>2026-03-15T12:07:24.000Z</time></trkpt>
<trkpt lat="41.725318" lon="23.495752"><ele>2853.3</ele><time>2026-03-15T12:07:25.000Z</time></trkpt>
<trkpt lat="41.725317" lon="23.49575"><ele>2853.3</ele><time>2026-03-15T12:07:26.000Z</time></trkpt>
<trkpt lat="41.725317" lon="23.495749"><ele>2853.4</ele><time>2026-03-15T12:07:27.000Z</time></trkpt>
<trkpt lat="41.725317" lon="23.495748"><ele>2853.4</ele><time>2026-03-15T12:07:28.000Z</time></trkpt>
<trkpt lat="41.725317" lon="23.495747"><ele>2853.4</ele><time>2026-03-15T12:07:29.000Z</time></trkpt>
<trkpt lat="41.725317" lon="23.495747"><ele>2853.4</ele><time>2026-03-15T12:07:30.000Z</time></trkpt>
<trkpt lat="41.725317" lon="23.495748"><ele>2853.4</ele><time>2026-03-15T12:07:31.000Z</time></trkpt>
<trkpt lat="41.725317" lon="23.495748"><ele>2853.5</ele><time>2026-03-15T12:07:32.000Z</time></trkpt>
<trkpt lat="41.725317" lon="23.495748"><ele>2853.5</ele><time>2026-03-15T12:07:33.000Z</time></trkpt>
<trkpt lat="41.725316" lon="23.495748"><ele>2853.5</ele><time>2026-03-15T12:07:34.000Z</time></trkpt>
<trkpt lat="41.725316" lon="23.495748"><ele>2853.5</ele><time>2026-03-15T12:07:35.000Z</time></trkpt>
<trkpt lat="41.725316" lon="23.495748"><ele>2853.5</ele><time>2026-03-15T12:07:36.000Z</time></trkpt>
<trkpt lat="41.725316" lon="23.495748"><ele>2853.5</ele><time>2026-03-15T12:07:37.000Z</time></trkpt>
<trkpt lat="41.725316" lon="23.495748"><ele>2853.5</ele><time>2026-03-15T12:07:38.000Z</time></trkpt>
<trkpt lat="41.725316" lon="23.495748"><ele>2853.5</ele><time>2026-03-15T12:07:39.000Z</time></trkpt>
<trkpt lat="41.725316" lon="23.495748"><ele>2853.5</ele><time>2026-03-15T12:07:40.000Z</time></trkpt>
<trkpt lat="41.725316" lon="23.495748"><ele>2853.5</ele><time>2026-03-15T12:07:41.000Z</time></trkpt>
<trkpt lat="41.725316" lon="23.495748"><ele>2853.4</ele><time>2026-03-15T12:07:42.000Z</time></trkpt>
<trkpt lat="41.725316" lon="23.495748"><ele>2853.4</ele><time>2026-03-15T12:07:43.000Z</time></trkpt>
<trkpt lat="41.725316" lon="23.495748"><ele>2853.4</ele><time>2026-03-15T12:07:44.000Z</time></trkpt>
<trkpt lat="41.725316" lon="23.495748"><ele>2853.4</ele><time>2026-03-15T12:07:45.000Z</time></trkpt>
<trkpt lat="41.725316" lon="23.495748"><ele>2853.4</ele><time>2026-03-15T12:07:46.000Z</time></trkpt>
<trkpt lat="41.725316" lon="23.495748"><ele>2853.3</ele><time>2026-03-15T12:07:47.000Z</time></trkpt>
<trkpt lat="41.725316" lon="23.495748"><ele>2853.3</ele><time>2026-03-15T12:07:48.000Z</time></trkpt>
<trkpt lat="41.725316" lon="23.495748"><ele>2853.3</ele><time>2026-03-15T12:07:49.000Z</time></trkpt>
<trkpt lat="41.725316" lon="23.495748"><ele>2853.3</ele><time>2026-03-15T12:07:50.000Z</time></trkpt>
<trkpt lat="41.725316" lon="23.495748"><ele>2853.3</ele><time>2026-03-15T12:07:51.000Z</time></trkpt>
<trkpt lat="41.725316" lon="23.495748"><ele>2853.3</ele><time>2026-03-15T12:07:52.000Z</time></trkpt>
<trkpt lat="41.725316" lon="23.495748"><ele>2853.3</ele><time>2026-03-15T12:07:53.000Z</time></trkpt>
<trkpt lat="41.725316" lon="23.495748"><ele>2853.3</ele><time>2026-03-15T12:07:54.000Z</time></trkpt>
<trkpt lat="41.725316" lon="23.495748"><ele>2853.3</ele><time>2026-03-15T12:07:55.000Z</time></trkpt>
<trkpt lat="41.725316" lon="23.495748"><ele>2853.3</ele><time>2026-03-15T12:07:56.000Z</time></trkpt>
<trkpt lat="41.725316" lon="23.495748"><ele>2853.2</ele><time>2026-03-15T12:07:57.000Z</time></trkpt>
<trkpt lat="41.725316" lon="23.495748"><ele>2853.2</ele><time>2026-03-15T12:07:58.000Z</time></trkpt>
<trkpt lat="41.725316" lon="23.495748"><ele>2853.2</ele><time>2026-03-15T12:07:59.000Z</time></trkpt>
<trkpt lat="41.725316" lon="23.495748"><ele>2853.2</ele><time>2026-03-15T12:08:00.000Z</time></trkpt>
<trkpt lat="41.725316" lon="23.495748"><ele>2853.2</ele><time>2026-03-15T12:08:01.000Z</time></trkpt>
<trkpt lat="41.725316" lon="23.495748"><ele>2853.2</ele><time>2026-03-15T12:08:02.000Z</time></trkpt>
<trkpt lat="41.725316" lon="23.495748"><ele>2853.2</ele><time>2026-03-15T12:08:03.000Z</time></trkpt>
<trkpt lat="41.725316" lon="23.495748"><ele>2853.2</ele><time>2026-03-15T12:08:04.000Z</time></trkpt>
<trkpt lat="41.725316" lon="23.495748"><ele>2853.2</ele><time>2026-03-15T12:08:05.000Z</time></trkpt>
<trkpt lat="41.725316" lon="23.495748"><ele>2853.2</ele><time>2026-03-15T12:08:06.000Z</time></trkpt>
<trkpt lat="41.725316" lon="23.495748"><ele>2853.3</ele><time>2026-03-15T12:08:07.000Z</time></trkpt>
<trkpt lat="41.725316" lon="23.495748"><ele>2853.3</ele><time>2026-03-15T12:08:08.000Z</time></trkpt>
<trkpt lat="41.725316" lon="23.495748"><ele>2853.3</ele><time>2026-03-15T12:08:09.000Z</time></trkpt>
<trkpt lat="41.725317" lon="23.495748"><ele>2853.3</ele><time>2026-03-15T12:08:10.000Z</time></trkpt>
<trkpt lat="41.725317" lon="23.495748"><ele>2853.3</ele><time>2026-03-15T12:08:11.000Z</time></trkpt>
<trkpt lat="41.725317" lon="23.495748"><ele>2853.6</ele><time>2026-03-15T12:08:12.000Z</time></trkpt>
<trkpt lat="41.725317" lon="23.495748"><ele>2853.6</ele><time>2026-03-15T12:08:13.000Z</time></trkpt>
<trkpt lat="41.725317" lon="23.495748"><ele>2853.6</ele><time>2026-03-15T12:08:14.000Z</time></trkpt>
<trkpt lat="41.725317" lon="23.495748"><ele>2853.6</ele><time>2026-03-15T12:08:15.000Z</time></trkpt>
<trkpt lat="41.725317" lon="23.495748"><ele>2853.6</ele><time>2026-03-15T12:08:16.000Z</time></trkpt>
<trkpt lat="41.725317" lon="23.495748"><ele>2853.7</ele><time>2026-03-15T12:08:17.000Z</time></trkpt>
<trkpt lat="41.725317" lon="23.495748"><ele>2853.7</ele><time>2026-03-15T12:08:18.000Z</time></trkpt>
<trkpt lat="41.725317" lon="23.495748"><ele>2853.7</ele><time>2026-03-15T12:08:19.000Z</time></trkpt>
<trkpt lat="41.725317" lon="23.495748"><ele>2853.7</ele><time>2026-03-15T12:08:20.000Z</time></trkpt>
<trkpt lat="41.725317" lon="23.495748"><ele>2853.7</ele><time>2026-03-15T12:08:21.000Z</time></trkpt>
<trkpt lat="41.725318" lon="23.495748"><ele>2853.6</ele><time>2026-03-15T12:08:22.000Z</time></trkpt>
<trkpt lat="41.725318" lon="23.495748"><ele>2853.6</ele><time>2026-03-15T12:08:23.000Z</time></trkpt>
<trkpt lat="41.725318" lon="23.495748"><ele>2853.6</ele><time>2026-03-15T12:08:24.000Z</time></trkpt>
<trkpt lat="41.725318" lon="23.495748"><ele>2853.6</ele><time>2026-03-15T12:08:25.000Z</time></trkpt>
<trkpt lat="41.725318" lon="23.495748"><ele>2853.6</ele><time>2026-03-15T12:08:26.000Z</time></trkpt>
<trkpt lat="41.725318" lon="23.495748"><ele>2853.4</ele><time>2026-03-15T12:08:27.000Z</time></trkpt>
<trkpt lat="41.725318" lon="23.495748"><ele>2853.4</ele><time>2026-03-15T12:08:28.000Z</time></trkpt>
<trkpt lat="41.725318" lon="23.495748"><ele>2853.4</ele><time>2026-03-15T12:08:29.000Z</time></trkpt>
<trkpt lat="41.725318" lon="23.495748"><ele>2853.4</ele><time>2026-03-15T12:08:30.000Z</time></trkpt>
<trkpt lat="41.725319" lon="23.495749"><ele>2853.4</ele><time>2026-03-15T12:08:31.000Z</time></trkpt>
<trkpt lat="41.725318" lon="23.495751"><ele>2853.4</ele><time>2026-03-15T12:08:32.000Z</time></trkpt>
<trkpt lat="41.725318" lon="23.495752"><ele>2853.4</ele><time>2026-03-15T12:08:33.000Z</time></trkpt>
<trkpt lat="41.725319" lon="23.495755"><ele>2853.4</ele><time>2026-03-15T12:08:34.000Z</time></trkpt>
<trkpt lat="41.72532" lon="23.495758"><ele>2853.4</ele><time>2026-03-15T12:08:35.000Z</time></trkpt>
<trkpt lat="41.725321" lon="23.495761"><ele>2853.4</ele><time>2026-03-15T12:08:36.000Z</time></trkpt>
<trkpt lat="41.725323" lon="23.495767"><ele>2853.4</ele><time>2026-03-15T12:08:37.000Z</time></trkpt>
<trkpt lat="41.725325" lon="23.495777"><ele>2853.4</ele><time>2026-03-15T12:08:38.000Z</time></trkpt>
<trkpt lat="41.725325" lon="23.495787"><ele>2853.4</ele><time>2026-03-15T12:08:39.000Z</time></trkpt>
<trkpt lat="41.725324" lon="23.495798"><ele>2853.4</ele><time>2026-03-15T12:08:40.000Z</time></trkpt>
<trkpt lat="41.725322" lon="23.495808"><ele>2853.4</ele><time>2026-03-15T12:08:41.000Z</time></trkpt>
<trkpt lat="41.725321" lon="23.495814"><ele>2853.6</ele><time>2026-03-15T12:08:42.000Z</time></trkpt>
<trkpt lat="41.72532" lon="23.495817"><ele>2853.6</ele><time>2026-03-15T12:08:43.000Z</time></trkpt>
<trkpt lat="41.725321" lon="23.495818"><ele>2853.6</ele><time>2026-03-15T12:08:44.000Z</time></trkpt>
<trkpt lat="41.725322" lon="23.495818"><ele>2853.6</ele><time>2026-03-15T12:08:45.000Z</time></trkpt>
<trkpt lat="41.725323" lon="23.495819"><ele>2853.6</ele><time>2026-03-15T12:08:46.000Z</time></trkpt>
<trkpt lat="41.725324" lon="23.495819"><ele>2853.7</ele><time>2026-03-15T12:08:47.000Z</time></trkpt>
<trkpt lat="41.725324" lon="23.49582"><ele>2853.7</ele><time>2026-03-15T12:08:48.000Z</time></trkpt>
<trkpt lat="41.725323" lon="23.49582"><ele>2853.7</ele><time>2026-03-15T12:08:49.000Z</time></trkpt>
<trkpt lat="41.725322" lon="23.49582"><ele>2853.7</ele><time>2026-03-15T12:08:50.000Z</time></trkpt>
<trkpt lat="41.725322" lon="23.49582"><ele>2853.7</ele><time>2026-03-15T12:08:51.000Z</time></trkpt>
<trkpt lat="41.725321" lon="23.49582"><ele>2853.9</ele><time>2026-03-15T12:08:52.000Z</time></trkpt>
<trkpt lat="41.72532" lon="23.495821"><ele>2853.9</ele><time>2026-03-15T12:08:53.000Z</time></trkpt>
<trkpt lat="41.725318" lon="23.495826"><ele>2853.9</ele><time>2026-03-15T12:08:54.000Z</time></trkpt>
<trkpt lat="41.725316" lon="23.495833"><ele>2853.9</ele><time>2026-03-15T12:08:55.000Z</time></trkpt>
<trkpt lat="41.725313" lon="23.495841"><ele>2853.9</ele><time>2026-03-15T12:08:56.000Z</time></trkpt>
<trkpt lat="41.72531" lon="23.495852"><ele>2853.9</ele><time>2026-03-15T12:08:57.000Z</time></trkpt>
<trkpt lat="41.725307" lon="23.495863"><ele>2853.9</ele><time>2026-03-15T12:08:58.000Z</time></trkpt>
<trkpt lat="41.725304" lon="23.495873"><ele>2853.9</ele><time>2026-03-15T12:08:59.000Z</time></trkpt>
<trkpt lat="41.7253" lon="23.495884"><ele>2853.9</ele><time>2026-03-15T12:09:00.000Z</time></trkpt>
<trkpt lat="41.725296" lon="23.495896"><ele>2853.9</ele><time>2026-03-15T12:09:01.000Z</time></trkpt>
<trkpt lat="41.725292" lon="23.495907"><ele>2853.9</ele><time>2026-03-15T12:09:02.000Z</time></trkpt>
<trkpt lat="41.725289" lon="23.495916"><ele>2853.9</ele><time>2026-03-15T12:09:03.000Z</time></trkpt>
<trkpt lat="41.725286" lon="23.495928"><ele>2853.9</ele><time>2026-03-15T12:09:04.000Z</time></trkpt>
<trkpt lat="41.725284" lon="23.495939"><ele>2853.9</ele><time>2026-03-15T12:09:05.000Z</time></trkpt>
<trkpt lat="41.725282" lon="23.495949"><ele>2853.9</ele><time>2026-03-15T12:09:06.000Z</time></trkpt>
<trkpt lat="41.725279" lon="23.49596"><ele>2854</ele><time>2026-03-15T12:09:07.000Z</time></trkpt>
<trkpt lat="41.725274" lon="23.495972"><ele>2854</ele><time>2026-03-15T12:09:08.000Z</time></trkpt>
<trkpt lat="41.725269" lon="23.495982"><ele>2854</ele><time>2026-03-15T12:09:09.000Z</time></trkpt>
<trkpt lat="41.725263" lon="23.495991"><ele>2854</ele><time>2026-03-15T12:09:10.000Z</time></trkpt>
<trkpt lat="41.725255" lon="23.495998"><ele>2854</ele><time>2026-03-15T12:09:11.000Z</time></trkpt>
<trkpt lat="41.725248" lon="23.496006"><ele>2853.9</ele><time>2026-03-15T12:09:12.000Z</time></trkpt>
<trkpt lat="41.725242" lon="23.496013"><ele>2853.9</ele><time>2026-03-15T12:09:13.000Z</time></trkpt>
<trkpt lat="41.725236" lon="23.49602"><ele>2853.9</ele><time>2026-03-15T12:09:14.000Z</time></trkpt>
<trkpt lat="41.725229" lon="23.496028"><ele>2853.9</ele><time>2026-03-15T12:09:15.000Z</time></trkpt>
<trkpt lat="41.725224" lon="23.496035"><ele>2853.9</ele><time>2026-03-15T12:09:16.000Z</time></trkpt>
<trkpt lat="41.725219" lon="23.496043"><ele>2853.9</ele><time>2026-03-15T12:09:17.000Z</time></trkpt>
<trkpt lat="41.725215" lon="23.49605"><ele>2853.9</ele><time>2026-03-15T12:09:18.000Z</time></trkpt>
<trkpt lat="41.725212" lon="23.496057"><ele>2853.9</ele><time>2026-03-15T12:09:19.000Z</time></trkpt>
<trkpt lat="41.725209" lon="23.496065"><ele>2853.9</ele><time>2026-03-15T12:09:20.000Z</time></trkpt>
<trkpt lat="41.725206" lon="23.496073"><ele>2853.9</ele><time>2026-03-15T12:09:21.000Z</time></trkpt>
<trkpt lat="41.725203" lon="23.496082"><ele>2853.9</ele><time>2026-03-15T12:09:22.000Z</time></trkpt>
<trkpt lat="41.7252" lon="23.49609"><ele>2853.9</ele><time>2026-03-15T12:09:23.000Z</time></trkpt>
<trkpt lat="41.725195" lon="23.496098"><ele>2853.9</ele><time>2026-03-15T12:09:24.000Z</time></trkpt>
<trkpt lat="41.725192" lon="23.496103"><ele>2853.9</ele><time>2026-03-15T12:09:25.000Z</time></trkpt>
<trkpt lat="41.725191" lon="23.496107"><ele>2853.9</ele><time>2026-03-15T12:09:26.000Z</time></trkpt>
<trkpt lat="41.725189" lon="23.496109"><ele>2854.2</ele><time>2026-03-15T12:09:27.000Z</time></trkpt>
<trkpt lat="41.725189" lon="23.496109"><ele>2854.2</ele><time>2026-03-15T12:09:28.000Z</time></trkpt>
<trkpt lat="41.725189" lon="23.496109"><ele>2854.2</ele><time>2026-03-15T12:09:29.000Z</time></trkpt>
<trkpt lat="41.72519" lon="23.49611"><ele>2854.2</ele><time>2026-03-15T12:09:30.000Z</time></trkpt>
<trkpt lat="41.725189" lon="23.49611"><ele>2854.2</ele><time>2026-03-15T12:09:31.000Z</time></trkpt>
<trkpt lat="41.725189" lon="23.49611"><ele>2854.4</ele><time>2026-03-15T12:09:32.000Z</time></trkpt>
<trkpt lat="41.725189" lon="23.49611"><ele>2854.4</ele><time>2026-03-15T12:09:33.000Z</time></trkpt>
<trkpt lat="41.725189" lon="23.49611"><ele>2854.4</ele><time>2026-03-15T12:09:34.000Z</time></trkpt>
<trkpt lat="41.725189" lon="23.49611"><ele>2854.4</ele><time>2026-03-15T12:09:35.000Z</time></trkpt>
<trkpt lat="41.725188" lon="23.496109"><ele>2854.4</ele><time>2026-03-15T12:09:36.000Z</time></trkpt>
<trkpt lat="41.725188" lon="23.496108"><ele>2854.7</ele><time>2026-03-15T12:09:37.000Z</time></trkpt>
<trkpt lat="41.725187" lon="23.496105"><ele>2854.7</ele><time>2026-03-15T12:09:38.000Z</time></trkpt>
<trkpt lat="41.725185" lon="23.496101"><ele>2854.7</ele><time>2026-03-15T12:09:39.000Z</time></trkpt>
<trkpt lat="41.725184" lon="23.496096"><ele>2854.7</ele><time>2026-03-15T12:09:40.000Z</time></trkpt>
<trkpt lat="41.725182" lon="23.496091"><ele>2854.7</ele><time>2026-03-15T12:09:41.000Z</time></trkpt>
<trkpt lat="41.725181" lon="23.496087"><ele>2854.7</ele><time>2026-03-15T12:09:42.000Z</time></trkpt>
<trkpt lat="41.72518" lon="23.496085"><ele>2854.7</ele><time>2026-03-15T12:09:43.000Z</time></trkpt>
<trkpt lat="41.72518" lon="23.496083"><ele>2854.7</ele><time>2026-03-15T12:09:44.000Z</time></trkpt>
<trkpt lat="41.725181" lon="23.496083"><ele>2854.7</ele><time>2026-03-15T12:09:45.000Z</time></trkpt>
<trkpt lat="41.725181" lon="23.496083"><ele>2854.7</ele><time>2026-03-15T12:09:46.000Z</time></trkpt>
<trkpt lat="41.725181" lon="23.496083"><ele>2854.7</ele><time>2026-03-15T12:09:47.000Z</time></trkpt>
<trkpt lat="41.725181" lon="23.496083"><ele>2854.7</ele><time>2026-03-15T12:09:48.000Z</time></trkpt>
<trkpt lat="41.725181" lon="23.496083"><ele>2854.7</ele><time>2026-03-15T12:09:49.000Z</time></trkpt>
<trkpt lat="41.725181" lon="23.496083"><ele>2854.7</ele><time>2026-03-15T12:09:50.000Z</time></trkpt>
<trkpt lat="41.725181" lon="23.496083"><ele>2854.7</ele><time>2026-03-15T12:09:51.000Z</time></trkpt>
<trkpt lat="41.725181" lon="23.496083"><ele>2854.7</ele><time>2026-03-15T12:09:52.000Z</time></trkpt>
<trkpt lat="41.725181" lon="23.496083"><ele>2854.7</ele><time>2026-03-15T12:09:53.000Z</time></trkpt>
<trkpt lat="41.725181" lon="23.496083"><ele>2854.7</ele><time>2026-03-15T12:09:54.000Z</time></trkpt>
<trkpt lat="41.725181" lon="23.496083"><ele>2854.7</ele><time>2026-03-15T12:09:55.000Z</time></trkpt>
<trkpt lat="41.725181" lon="23.496084"><ele>2854.7</ele><time>2026-03-15T12:09:56.000Z</time></trkpt>
<trkpt lat="41.725181" lon="23.496085"><ele>2854.7</ele><time>2026-03-15T12:09:57.000Z</time></trkpt>
<trkpt lat="41.725183" lon="23.496087"><ele>2854.7</ele><time>2026-03-15T12:09:58.000Z</time></trkpt>
<trkpt lat="41.725185" lon="23.49609"><ele>2854.7</ele><time>2026-03-15T12:09:59.000Z</time></trkpt>
<trkpt lat="41.725187" lon="23.496094"><ele>2854.7</ele><time>2026-03-15T12:10:00.000Z</time></trkpt>
<trkpt lat="41.72519" lon="23.496099"><ele>2854.7</ele><time>2026-03-15T12:10:01.000Z</time></trkpt>
<trkpt lat="41.725191" lon="23.496102"><ele>2854.6</ele><time>2026-03-15T12:10:02.000Z</time></trkpt>
<trkpt lat="41.725192" lon="23.496106"><ele>2854.6</ele><time>2026-03-15T12:10:03.000Z</time></trkpt>
<trkpt lat="41.725193" lon="23.496108"><ele>2854.6</ele><time>2026-03-15T12:10:04.000Z</time></trkpt>
<trkpt lat="41.725192" lon="23.496108"><ele>2854.6</ele><time>2026-03-15T12:10:05.000Z</time></trkpt>
<trkpt lat="41.725191" lon="23.496108"><ele>2854.6</ele><time>2026-03-15T12:10:06.000Z</time></trkpt>
<trkpt lat="41.725191" lon="23.496108"><ele>2854.6</ele><time>2026-03-15T12:10:07.000Z</time></trkpt>
<trkpt lat="41.725189" lon="23.496107"><ele>2854.6</ele><time>2026-03-15T12:10:08.000Z</time></trkpt>
<trkpt lat="41.725187" lon="23.496106"><ele>2854.6</ele><time>2026-03-15T12:10:09.000Z</time></trkpt>
<trkpt lat="41.725185" lon="23.496106"><ele>2854.6</ele><time>2026-03-15T12:10:10.000Z</time></trkpt>
<trkpt lat="41.725185" lon="23.496105"><ele>2854.6</ele><time>2026-03-15T12:10:11.000Z</time></trkpt>
<trkpt lat="41.725184" lon="23.496105"><ele>2854.8</ele><time>2026-03-15T12:10:12.000Z</time></trkpt>
<trkpt lat="41.725184" lon="23.496106"><ele>2854.8</ele><time>2026-03-15T12:10:13.000Z</time></trkpt>
<trkpt lat="41.725186" lon="23.496108"><ele>2854.8</ele><time>2026-03-15T12:10:14.000Z</time></trkpt>
<trkpt lat="41.725188" lon="23.496111"><ele>2854.8</ele><time>2026-03-15T12:10:15.000Z</time></trkpt>
<trkpt lat="41.725188" lon="23.496117"><ele>2854.8</ele><time>2026-03-15T12:10:16.000Z</time></trkpt>
<trkpt lat="41.72519" lon="23.496124"><ele>2855</ele><time>2026-03-15T12:10:17.000Z</time></trkpt>
<trkpt lat="41.725189" lon="23.49613"><ele>2855</ele><time>2026-03-15T12:10:18.000Z</time></trkpt>
<trkpt lat="41.725188" lon="23.496137"><ele>2855</ele><time>2026-03-15T12:10:19.000Z</time></trkpt>
<trkpt lat="41.725185" lon="23.496145"><ele>2855</ele><time>2026-03-15T12:10:20.000Z</time></trkpt>
<trkpt lat="41.725183" lon="23.496152"><ele>2855</ele><time>2026-03-15T12:10:21.000Z</time></trkpt>
<trkpt lat="41.72518" lon="23.49616"><ele>2855.1</ele><time>2026-03-15T12:10:22.000Z</time></trkpt>
<trkpt lat="41.725177" lon="23.49617"><ele>2855.1</ele><time>2026-03-15T12:10:23.000Z</time></trkpt>
<trkpt lat="41.725175" lon="23.496181"><ele>2855.1</ele><time>2026-03-15T12:10:24.000Z</time></trkpt>
<trkpt lat="41.725173" lon="23.496193"><ele>2855.1</ele><time>2026-03-15T12:10:25.000Z</time></trkpt>
<trkpt lat="41.725171" lon="23.496206"><ele>2855.1</ele><time>2026-03-15T12:10:26.000Z</time></trkpt>
<trkpt lat="41.725169" lon="23.496222"><ele>2855.2</ele><time>2026-03-15T12:10:27.000Z</time></trkpt>
<trkpt lat="41.725167" lon="23.496238"><ele>2855.2</ele><time>2026-03-15T12:10:28.000Z</time></trkpt>
<trkpt lat="41.725165" lon="23.496253"><ele>2855.2</ele><time>2026-03-15T12:10:29.000Z</time></trkpt>
<trkpt lat="41.725162" lon="23.496268"><ele>2855.2</ele><time>2026-03-15T12:10:30.000Z</time></trkpt>
<trkpt lat="41.725161" lon="23.496282"><ele>2855.2</ele><time>2026-03-15T12:10:31.000Z</time></trkpt>
<trkpt lat="41.725159" lon="23.496295"><ele>2855.3</ele><time>2026-03-15T12:10:32.000Z</time></trkpt>
<trkpt lat="41.725157" lon="23.496307"><ele>2855.3</ele><time>2026-03-15T12:10:33.000Z</time></trkpt>
<trkpt lat="41.725156" lon="23.496318"><ele>2855.3</ele><time>2026-03-15T12:10:34.000Z</time></trkpt>
<trkpt lat="41.725155" lon="23.496329"><ele>2855.3</ele><time>2026-03-15T12:10:35.000Z</time></trkpt>
<trkpt lat="41.725155" lon="23.49634"><ele>2855.3</ele><time>2026-03-15T12:10:36.000Z</time></trkpt>
<trkpt lat="41.725154" lon="23.496352"><ele>2855.3</ele><time>2026-03-15T12:10:37.000Z</time></trkpt>
<trkpt lat="41.725154" lon="23.496364"><ele>2855.3</ele><time>2026-03-15T12:10:38.000Z</time></trkpt>
<trkpt lat="41.725154" lon="23.496377"><ele>2855.3</ele><time>2026-03-15T12:10:39.000Z</time></trkpt>
<trkpt lat="41.725154" lon="23.496391"><ele>2855.3</ele><time>2026-03-15T12:10:40.000Z</time></trkpt>
<trkpt lat="41.725153" lon="23.496406"><ele>2855.3</ele><time>2026-03-15T12:10:41.000Z</time></trkpt>
<trkpt lat="41.725152" lon="23.49642"><ele>2854.9</ele><time>2026-03-15T12:10:42.000Z</time></trkpt>
<trkpt lat="41.72515" lon="23.496435"><ele>2854.9</ele><time>2026-03-15T12:10:43.000Z</time></trkpt>
<trkpt lat="41.725149" lon="23.496449"><ele>2854.9</ele><time>2026-03-15T12:10:44.000Z</time></trkpt>
<trkpt lat="41.725147" lon="23.496462"><ele>2854.9</ele><time>2026-03-15T12:10:45.000Z</time></trkpt>
<trkpt lat="41.725146" lon="23.496474"><ele>2854.9</ele><time>2026-03-15T12:10:46.000Z</time></trkpt>
<trkpt lat="41.725143" lon="23.496485"><ele>2854.6</ele><time>2026-03-15T12:10:47.000Z</time></trkpt>
<trkpt lat="41.725141" lon="23.496495"><ele>2854.6</ele><time>2026-03-15T12:10:48.000Z</time></trkpt>
<trkpt lat="41.725138" lon="23.496505"><ele>2854.6</ele><time>2026-03-15T12:10:49.000Z</time></trkpt>
<trkpt lat="41.725135" lon="23.496515"><ele>2854.6</ele><time>2026-03-15T12:10:50.000Z</time></trkpt>
<trkpt lat="41.725133" lon="23.496526"><ele>2854.6</ele><time>2026-03-15T12:10:51.000Z</time></trkpt>
<trkpt lat="41.725132" lon="23.496537"><ele>2854</ele><time>2026-03-15T12:10:52.000Z</time></trkpt>
<trkpt lat="41.725132" lon="23.496548"><ele>2854</ele><time>2026-03-15T12:10:53.000Z</time></trkpt>
<trkpt lat="41.725131" lon="23.496559"><ele>2854</ele><time>2026-03-15T12:10:54.000Z</time></trkpt>
<trkpt lat="41.725132" lon="23.49657"><ele>2854</ele><time>2026-03-15T12:10:55.000Z</time></trkpt>
<trkpt lat="41.725132" lon="23.496581"><ele>2854</ele><time>2026-03-15T12:10:56.000Z</time></trkpt>
<trkpt lat="41.725133" lon="23.496591"><ele>2853.3</ele><time>2026-03-15T12:10:57.000Z</time></trkpt>
<trkpt lat="41.725133" lon="23.496602"><ele>2853.3</ele><time>2026-03-15T12:10:58.000Z</time></trkpt>
<trkpt lat="41.725133" lon="23.496612"><ele>2853.3</ele><time>2026-03-15T12:10:59.000Z</time></trkpt>
<trkpt lat="41.725133" lon="23.496622"><ele>2853.3</ele><time>2026-03-15T12:11:00.000Z</time></trkpt>
<trkpt lat="41.725133" lon="23.496632"><ele>2853.3</ele><time>2026-03-15T12:11:01.000Z</time></trkpt>
<trkpt lat="41.725132" lon="23.496642"><ele>2852.7</ele><time>2026-03-15T12:11:02.000Z</time></trkpt>
<trkpt lat="41.72513" lon="23.496653"><ele>2852.7</ele><time>2026-03-15T12:11:03.000Z</time></trkpt>
<trkpt lat="41.725129" lon="23.496664"><ele>2852.7</ele><time>2026-03-15T12:11:04.000Z</time></trkpt>
<trkpt lat="41.725127" lon="23.496674"><ele>2852.7</ele><time>2026-03-15T12:11:05.000Z</time></trkpt>
<trkpt lat="41.725125" lon="23.496685"><ele>2852.7</ele><time>2026-03-15T12:11:06.000Z</time></trkpt>
<trkpt lat="41.725123" lon="23.496695"><ele>2851.2</ele><time>2026-03-15T12:11:07.000Z</time></trkpt>
<trkpt lat="41.725122" lon="23.496705"><ele>2851.2</ele><time>2026-03-15T12:11:08.000Z</time></trkpt>
<trkpt lat="41.72512" lon="23.496715"><ele>2851.2</ele><time>2026-03-15T12:11:09.000Z</time></trkpt>
<trkpt lat="41.725119" lon="23.496724"><ele>2851.2</ele><time>2026-03-15T12:11:10.000Z</time></trkpt>
<trkpt lat="41.725118" lon="23.496734"><ele>2851.2</ele><time>2026-03-15T12:11:11.000Z</time></trkpt>
<trkpt lat="41.725116" lon="23.496743"><ele>2849.5</ele><time>2026-03-15T12:11:12.000Z</time></trkpt>
<trkpt lat="41.725114" lon="23.496752"><ele>2849.5</ele><time>2026-03-15T12:11:13.000Z</time></trkpt>
<trkpt lat="41.725112" lon="23.49676"><ele>2849.5</ele><time>2026-03-15T12:11:14.000Z</time></trkpt>
<trkpt lat="41.72511" lon="23.496769"><ele>2849.5</ele><time>2026-03-15T12:11:15.000Z</time></trkpt>
<trkpt lat="41.725108" lon="23.496777"><ele>2849.5</ele><time>2026-03-15T12:11:16.000Z</time></trkpt>
<trkpt lat="41.725107" lon="23.496783"><ele>2848.5</ele><time>2026-03-15T12:11:17.000Z</time></trkpt>
<trkpt lat="41.725106" lon="23.496789"><ele>2848.5</ele><time>2026-03-15T12:11:18.000Z</time></trkpt>
<trkpt lat="41.725105" lon="23.496796"><ele>2848.5</ele><time>2026-03-15T12:11:19.000Z</time></trkpt>
<trkpt lat="41.725104" lon="23.496802"><ele>2848.5</ele><time>2026-03-15T12:11:20.000Z</time></trkpt>
<trkpt lat="41.725103" lon="23.496806"><ele>2848.5</ele><time>2026-03-15T12:11:21.000Z</time></trkpt>
<trkpt lat="41.725102" lon="23.496812"><ele>2846.5</ele><time>2026-03-15T12:11:22.000Z</time></trkpt>
<trkpt lat="41.7251" lon="23.496818"><ele>2846.5</ele><time>2026-03-15T12:11:23.000Z</time></trkpt>
<trkpt lat="41.725099" lon="23.496825"><ele>2846.5</ele><time>2026-03-15T12:11:24.000Z</time></trkpt>
<trkpt lat="41.725096" lon="23.496831"><ele>2846.5</ele><time>2026-03-15T12:11:25.000Z</time></trkpt>
<trkpt lat="41.725093" lon="23.496839"><ele>2846.5</ele><time>2026-03-15T12:11:26.000Z</time></trkpt>
<trkpt lat="41.725089" lon="23.496846"><ele>2844.5</ele><time>2026-03-15T12:11:27.000Z</time></trkpt>
<trkpt lat="41.725086" lon="23.496851"><ele>2844.5</ele><time>2026-03-15T12:11:28.000Z</time></trkpt>
<trkpt lat="41.725084" lon="23.496857"><ele>2844.5</ele><time>2026-03-15T12:11:29.000Z</time></trkpt>
<trkpt lat="41.725081" lon="23.496865"><ele>2844.5</ele><time>2026-03-15T12:11:30.000Z</time></trkpt>
<trkpt lat="41.725079" lon="23.496872"><ele>2844.5</ele><time>2026-03-15T12:11:31.000Z</time></trkpt>
<trkpt lat="41.725076" lon="23.49688"><ele>2843.5</ele><time>2026-03-15T12:11:32.000Z</time></trkpt>
<trkpt lat="41.725073" lon="23.496888"><ele>2843.5</ele><time>2026-03-15T12:11:33.000Z</time></trkpt>
<trkpt lat="41.725068" lon="23.496895"><ele>2843.5</ele><time>2026-03-15T12:11:34.000Z</time></trkpt>
<trkpt lat="41.725064" lon="23.4969"><ele>2843.5</ele><time>2026-03-15T12:11:35.000Z</time></trkpt>
<trkpt lat="41.725061" lon="23.496902"><ele>2843.5</ele><time>2026-03-15T12:11:36.000Z</time></trkpt>
<trkpt lat="41.725058" lon="23.496906"><ele>2841.8</ele><time>2026-03-15T12:11:37.000Z</time></trkpt>
<trkpt lat="41.725057" lon="23.496909"><ele>2841.8</ele><time>2026-03-15T12:11:38.000Z</time></trkpt>
<trkpt lat="41.725058" lon="23.496913"><ele>2841.8</ele><time>2026-03-15T12:11:39.000Z</time></trkpt>
<trkpt lat="41.725058" lon="23.496918"><ele>2841.8</ele><time>2026-03-15T12:11:40.000Z</time></trkpt>
<trkpt lat="41.725057" lon="23.496926"><ele>2841.8</ele><time>2026-03-15T12:11:41.000Z</time></trkpt>
<trkpt lat="41.725056" lon="23.496933"><ele>2840.3</ele><time>2026-03-15T12:11:42.000Z</time></trkpt>
<trkpt lat="41.725054" lon="23.49694"><ele>2840.3</ele><time>2026-03-15T12:11:43.000Z</time></trkpt>
<trkpt lat="41.725051" lon="23.496947"><ele>2840.3</ele><time>2026-03-15T12:11:44.000Z</time></trkpt>
<trkpt lat="41.72505" lon="23.496952"><ele>2840.3</ele><time>2026-03-15T12:11:45.000Z</time></trkpt>
<trkpt lat="41.725049" lon="23.496956"><ele>2840.3</ele><time>2026-03-15T12:11:46.000Z</time></trkpt>
<trkpt lat="41.725048" lon="23.496959"><ele>2839.6</ele><time>2026-03-15T12:11:47.000Z</time></trkpt>
<trkpt lat="41.725048" lon="23.496963"><ele>2839.6</ele><time>2026-03-15T12:11:48.000Z</time></trkpt>
<trkpt lat="41.725048" lon="23.496968"><ele>2839.6</ele><time>2026-03-15T12:11:49.000Z</time></trkpt>
<trkpt lat="41.725048" lon="23.496974"><ele>2839.6</ele><time>2026-03-15T12:11:50.000Z</time></trkpt>
<trkpt lat="41.725047" lon="23.49698"><ele>2839.6</ele><time>2026-03-15T12:11:51.000Z</time></trkpt>
<trkpt lat="41.725046" lon="23.496986"><ele>2838.4</ele><time>2026-03-15T12:11:52.000Z</time></trkpt>
<trkpt lat="41.725044" lon="23.496991"><ele>2838.4</ele><time>2026-03-15T12:11:53.000Z</time></trkpt>
<trkpt lat="41.725041" lon="23.496997"><ele>2838.4</ele><time>2026-03-15T12:11:54.000Z</time></trkpt>
<trkpt lat="41.725037" lon="23.497003"><ele>2838.4</ele><time>2026-03-15T12:11:55.000Z</time></trkpt>
<trkpt lat="41.725033" lon="23.497009"><ele>2838.4</ele><time>2026-03-15T12:11:56.000Z</time></trkpt>
<trkpt lat="41.725029" lon="23.497017"><ele>2837.3</ele><time>2026-03-15T12:11:57.000Z</time></trkpt>
<trkpt lat="41.725024" lon="23.497026"><ele>2837.3</ele><time>2026-03-15T12:11:58.000Z</time></trkpt>
<trkpt lat="41.725019" lon="23.497035"><ele>2837.3</ele><time>2026-03-15T12:11:59.000Z</time></trkpt>
<trkpt lat="41.725015" lon="23.497044"><ele>2837.3</ele><time>2026-03-15T12:12:00.000Z</time></trkpt>
<trkpt lat="41.725012" lon="23.497052"><ele>2837.3</ele><time>2026-03-15T12:12:01.000Z</time></trkpt>
<trkpt lat="41.725009" lon="23.49706"><ele>2836.7</ele><time>2026-03-15T12:12:02.000Z</time></trkpt>
<trkpt lat="41.725006" lon="23.497067"><ele>2836.7</ele><time>2026-03-15T12:12:03.000Z</time></trkpt>
<trkpt lat="41.725002" lon="23.497076"><ele>2836.7</ele><time>2026-03-15T12:12:04.000Z</time></trkpt>
<trkpt lat="41.724997" lon="23.497085"><ele>2836.7</ele><time>2026-03-15T12:12:05.000Z</time></trkpt>
<trkpt lat="41.724992" lon="23.497092"><ele>2836.7</ele><time>2026-03-15T12:12:06.000Z</time></trkpt>
<trkpt lat="41.724987" lon="23.497099"><ele>2835.5</ele><time>2026-03-15T12:12:07.000Z</time></trkpt>
<trkpt lat="41.724984" lon="23.497103"><ele>2835.5</ele><time>2026-03-15T12:12:08.000Z</time></trkpt>
<trkpt lat="41.724981" lon="23.497103"><ele>2835.5</ele><time>2026-03-15T12:12:09.000Z</time></trkpt>
<trkpt lat="41.72498" lon="23.497103"><ele>2835.5</ele><time>2026-03-15T12:12:10.000Z</time></trkpt>
<trkpt lat="41.724979" lon="23.497103"><ele>2835.5</ele><time>2026-03-15T12:12:11.000Z</time></trkpt>
<trkpt lat="41.724978" lon="23.497104"><ele>2833.9</ele><time>2026-03-15T12:12:12.000Z</time></trkpt>
<trkpt lat="41.724977" lon="23.497107"><ele>2833.9</ele><time>2026-03-15T12:12:13.000Z</time></trkpt>
<trkpt lat="41.724975" lon="23.497113"><ele>2833.9</ele><time>2026-03-15T12:12:14.000Z</time></trkpt>
<trkpt lat="41.724972" lon="23.497121"><ele>2833.9</ele><time>2026-03-15T12:12:15.000Z</time></trkpt>
<trkpt lat="41.724971" lon="23.497127"><ele>2833.9</ele><time>2026-03-15T12:12:16.000Z</time></trkpt>
<trkpt lat="41.72497" lon="23.497135"><ele>2833.1</ele><time>2026-03-15T12:12:17.000Z</time></trkpt>
<trkpt lat="41.724969" lon="23.497143"><ele>2833.1</ele><time>2026-03-15T12:12:18.000Z</time></trkpt>
<trkpt lat="41.724967" lon="23.497151"><ele>2833.1</ele><time>2026-03-15T12:12:19.000Z</time></trkpt>
<trkpt lat="41.724965" lon="23.497159"><ele>2833.1</ele><time>2026-03-15T12:12:20.000Z</time></trkpt>
<trkpt lat="41.724961" lon="23.497167"><ele>2833.1</ele><time>2026-03-15T12:12:21.000Z</time></trkpt>
<trkpt lat="41.724957" lon="23.497175"><ele>2831.7</ele><time>2026-03-15T12:12:22.000Z</time></trkpt>
<trkpt lat="41.724952" lon="23.497181"><ele>2831.7</ele><time>2026-03-15T12:12:23.000Z</time></trkpt>
<trkpt lat="41.724948" lon="23.497187"><ele>2831.7</ele><time>2026-03-15T12:12:24.000Z</time></trkpt>
<trkpt lat="41.724945" lon="23.497192"><ele>2831.7</ele><time>2026-03-15T12:12:25.000Z</time></trkpt>
<trkpt lat="41.724942" lon="23.497196"><ele>2831.7</ele><time>2026-03-15T12:12:26.000Z</time></trkpt>
<trkpt lat="41.724939" lon="23.4972"><ele>2830.5</ele><time>2026-03-15T12:12:27.000Z</time></trkpt>
<trkpt lat="41.724936" lon="23.497204"><ele>2830.5</ele><time>2026-03-15T12:12:28.000Z</time></trkpt>
<trkpt lat="41.724933" lon="23.497207"><ele>2830.5</ele><time>2026-03-15T12:12:29.000Z</time></trkpt>
<trkpt lat="41.72493" lon="23.49721"><ele>2830.5</ele><time>2026-03-15T12:12:30.000Z</time></trkpt>
<trkpt lat="41.724926" lon="23.497213"><ele>2830.5</ele><time>2026-03-15T12:12:31.000Z</time></trkpt>
<trkpt lat="41.724923" lon="23.497216"><ele>2829.9</ele><time>2026-03-15T12:12:32.000Z</time></trkpt>
<trkpt lat="41.724919" lon="23.497219"><ele>2829.9</ele><time>2026-03-15T12:12:33.000Z</time></trkpt>
<trkpt lat="41.724915" lon="23.497222"><ele>2829.9</ele><time>2026-03-15T12:12:34.000Z</time></trkpt>
<trkpt lat="41.724912" lon="23.497226"><ele>2829.9</ele><time>2026-03-15T12:12:35.000Z</time></trkpt>
<trkpt lat="41.724908" lon="23.497228"><ele>2829.9</ele><time>2026-03-15T12:12:36.000Z</time></trkpt>
<trkpt lat="41.724904" lon="23.49723"><ele>2828.4</ele><time>2026-03-15T12:12:37.000Z</time></trkpt>
<trkpt lat="41.7249" lon="23.497232"><ele>2828.4</ele><time>2026-03-15T12:12:38.000Z</time></trkpt>
<trkpt lat="41.724896" lon="23.497234"><ele>2828.4</ele><time>2026-03-15T12:12:39.000Z</time></trkpt>
<trkpt lat="41.724892" lon="23.497237"><ele>2828.4</ele><time>2026-03-15T12:12:40.000Z</time></trkpt>
<trkpt lat="41.72489" lon="23.497239"><ele>2828.4</ele><time>2026-03-15T12:12:41.000Z</time></trkpt>
<trkpt lat="41.724889" lon="23.49724"><ele>2827</ele><time>2026-03-15T12:12:42.000Z</time></trkpt>
<trkpt lat="41.724889" lon="23.497242"><ele>2827</ele><time>2026-03-15T12:12:43.000Z</time></trkpt>
<trkpt lat="41.724889" lon="23.497245"><ele>2827</ele><time>2026-03-15T12:12:44.000Z</time></trkpt>
<trkpt lat="41.724889" lon="23.497247"><ele>2827</ele><time>2026-03-15T12:12:45.000Z</time></trkpt>
<trkpt lat="41.724888" lon="23.497251"><ele>2827</ele><time>2026-03-15T12:12:46.000Z</time></trkpt>
<trkpt lat="41.724886" lon="23.497256"><ele>2826.3</ele><time>2026-03-15T12:12:47.000Z</time></trkpt>
<trkpt lat="41.724884" lon="23.49726"><ele>2826.3</ele><time>2026-03-15T12:12:48.000Z</time></trkpt>
<trkpt lat="41.724881" lon="23.497265"><ele>2826.3</ele><time>2026-03-15T12:12:49.000Z</time></trkpt>
<trkpt lat="41.724878" lon="23.497269"><ele>2826.3</ele><time>2026-03-15T12:12:50.000Z</time></trkpt>
<trkpt lat="41.724875" lon="23.497272"><ele>2826.3</ele><time>2026-03-15T12:12:51.000Z</time></trkpt>
<trkpt lat="41.724871" lon="23.497274"><ele>2825.1</ele><time>2026-03-15T12:12:52.000Z</time></trkpt>
<trkpt lat="41.724867" lon="23.497277"><ele>2825.1</ele><time>2026-03-15T12:12:53.000Z</time></trkpt>
<trkpt lat="41.724865" lon="23.497279"><ele>2825.1</ele><time>2026-03-15T12:12:54.000Z</time></trkpt>
<trkpt lat="41.724863" lon="23.497281"><ele>2825.1</ele><time>2026-03-15T12:12:55.000Z</time></trkpt>
<trkpt lat="41.724863" lon="23.497284"><ele>2825.1</ele><time>2026-03-15T12:12:56.000Z</time></trkpt>
<trkpt lat="41.724863" lon="23.49729"><ele>2824.1</ele><time>2026-03-15T12:12:57.000Z</time></trkpt>
<trkpt lat="41.724863" lon="23.497294"><ele>2824.1</ele><time>2026-03-15T12:12:58.000Z</time></trkpt>
<trkpt lat="41.724863" lon="23.497299"><ele>2824.1</ele><time>2026-03-15T12:12:59.000Z</time></trkpt>
<trkpt lat="41.724862" lon="23.497304"><ele>2824.1</ele><time>2026-03-15T12:13:00.000Z</time></trkpt>
<trkpt lat="41.724859" lon="23.497309"><ele>2824.1</ele><time>2026-03-15T12:13:01.000Z</time></trkpt>
<trkpt lat="41.724855" lon="23.497312"><ele>2823.6</ele><time>2026-03-15T12:13:02.000Z</time></trkpt>
<trkpt lat="41.724851" lon="23.497315"><ele>2823.6</ele><time>2026-03-15T12:13:03.000Z</time></trkpt>
<trkpt lat="41.724848" lon="23.497317"><ele>2823.6</ele><time>2026-03-15T12:13:04.000Z</time></trkpt>
<trkpt lat="41.724846" lon="23.497319"><ele>2823.6</ele><time>2026-03-15T12:13:05.000Z</time></trkpt>
<trkpt lat="41.724845" lon="23.497321"><ele>2823.6</ele><time>2026-03-15T12:13:06.000Z</time></trkpt>
<trkpt lat="41.724844" lon="23.497324"><ele>2822.4</ele><time>2026-03-15T12:13:07.000Z</time></trkpt>
<trkpt lat="41.724845" lon="23.497326"><ele>2822.4</ele><time>2026-03-15T12:13:08.000Z</time></trkpt>
<trkpt lat="41.724846" lon="23.497328"><ele>2822.4</ele><time>2026-03-15T12:13:09.000Z</time></trkpt>
<trkpt lat="41.724847" lon="23.497331"><ele>2822.4</ele><time>2026-03-15T12:13:10.000Z</time></trkpt>
<trkpt lat="41.724847" lon="23.497332"><ele>2822.4</ele><time>2026-03-15T12:13:11.000Z</time></trkpt>
<trkpt lat="41.724849" lon="23.497333"><ele>2821.1</ele><time>2026-03-15T12:13:12.000Z</time></trkpt>
<trkpt lat="41.724849" lon="23.497333"><ele>2821.1</ele><time>2026-03-15T12:13:13.000Z</time></trkpt>
<trkpt lat="41.72485" lon="23.497334"><ele>2821.1</ele><time>2026-03-15T12:13:14.000Z</time></trkpt>
<trkpt lat="41.72485" lon="23.497334"><ele>2821.1</ele><time>2026-03-15T12:13:15.000Z</time></trkpt>
<trkpt lat="41.72485" lon="23.497336"><ele>2821.1</ele><time>2026-03-15T12:13:16.000Z</time></trkpt>
<trkpt lat="41.724849" lon="23.497338"><ele>2820.4</ele><time>2026-03-15T12:13:17.000Z</time></trkpt>
<trkpt lat="41.724847" lon="23.497342"><ele>2820.4</ele><time>2026-03-15T12:13:18.000Z</time></trkpt>
<trkpt lat="41.724845" lon="23.497347"><ele>2820.4</ele><time>2026-03-15T12:13:19.000Z</time></trkpt>
<trkpt lat="41.724843" lon="23.497352"><ele>2820.4</ele><time>2026-03-15T12:13:20.000Z</time></trkpt>
<trkpt lat="41.724841" lon="23.497357"><ele>2820.4</ele><time>2026-03-15T12:13:21.000Z</time></trkpt>
<trkpt lat="41.724839" lon="23.497363"><ele>2819.2</ele><time>2026-03-15T12:13:22.000Z</time></trkpt>
<trkpt lat="41.724837" lon="23.497368"><ele>2819.2</ele><time>2026-03-15T12:13:23.000Z</time></trkpt>
<trkpt lat="41.724835" lon="23.497373"><ele>2819.2</ele><time>2026-03-15T12:13:24.000Z</time></trkpt>
<trkpt lat="41.724833" lon="23.497378"><ele>2819.2</ele><time>2026-03-15T12:13:25.000Z</time></trkpt>
<trkpt lat="41.724831" lon="23.497384"><ele>2819.2</ele><time>2026-03-15T12:13:26.000Z</time></trkpt>
<trkpt lat="41.724828" lon="23.497388"><ele>2818.4</ele><time>2026-03-15T12:13:27.000Z</time></trkpt>
<trkpt lat="41.724826" lon="23.497392"><ele>2818.4</ele><time>2026-03-15T12:13:28.000Z</time></trkpt>
<trkpt lat="41.724822" lon="23.497395"><ele>2818.4</ele><time>2026-03-15T12:13:29.000Z</time></trkpt>
<trkpt lat="41.724818" lon="23.4974"><ele>2818.4</ele><time>2026-03-15T12:13:30.000Z</time></trkpt>
<trkpt lat="41.724814" lon="23.497404"><ele>2818.4</ele><time>2026-03-15T12:13:31.000Z</time></trkpt>
<trkpt lat="41.724811" lon="23.497408"><ele>2817.9</ele><time>2026-03-15T12:13:32.000Z</time></trkpt>
<trkpt lat="41.724808" lon="23.497413"><ele>2817.9</ele><time>2026-03-15T12:13:33.000Z</time></trkpt>
<trkpt lat="41.724807" lon="23.497416"><ele>2817.9</ele><time>2026-03-15T12:13:34.000Z</time></trkpt>
<trkpt lat="41.724807" lon="23.497417"><ele>2817.9</ele><time>2026-03-15T12:13:35.000Z</time></trkpt>
<trkpt lat="41.724807" lon="23.497418"><ele>2817.9</ele><time>2026-03-15T12:13:36.000Z</time></trkpt>
<trkpt lat="41.724806" lon="23.497417"><ele>2816.8</ele><time>2026-03-15T12:13:37.000Z</time></trkpt>
<trkpt lat="41.724804" lon="23.497417"><ele>2816.8</ele><time>2026-03-15T12:13:38.000Z</time></trkpt>
<trkpt lat="41.724801" lon="23.497417"><ele>2816.8</ele><time>2026-03-15T12:13:39.000Z</time></trkpt>
<trkpt lat="41.724797" lon="23.497417"><ele>2816.8</ele><time>2026-03-15T12:13:40.000Z</time></trkpt>
<trkpt lat="41.724794" lon="23.497419"><ele>2816.8</ele><time>2026-03-15T12:13:41.000Z</time></trkpt>
<trkpt lat="41.72479" lon="23.49742"><ele>2815.5</ele><time>2026-03-15T12:13:42.000Z</time></trkpt>
<trkpt lat="41.724787" lon="23.497421"><ele>2815.5</ele><time>2026-03-15T12:13:43.000Z</time></trkpt>
<trkpt lat="41.724785" lon="23.497424"><ele>2815.5</ele><time>2026-03-15T12:13:44.000Z</time></trkpt>
<trkpt lat="41.724783" lon="23.497428"><ele>2815.5</ele><time>2026-03-15T12:13:45.000Z</time></trkpt>
<trkpt lat="41.724782" lon="23.497432"><ele>2815.5</ele><time>2026-03-15T12:13:46.000Z</time></trkpt>
<trkpt lat="41.724782" lon="23.497436"><ele>2815</ele><time>2026-03-15T12:13:47.000Z</time></trkpt>
<trkpt lat="41.724782" lon="23.497441"><ele>2815</ele><time>2026-03-15T12:13:48.000Z</time></trkpt>
<trkpt lat="41.724782" lon="23.497446"><ele>2815</ele><time>2026-03-15T12:13:49.000Z</time></trkpt>
<trkpt lat="41.724783" lon="23.497451"><ele>2815</ele><time>2026-03-15T12:13:50.000Z</time></trkpt>
<trkpt lat="41.724783" lon="23.497458"><ele>2815</ele><time>2026-03-15T12:13:51.000Z</time></trkpt>
<trkpt lat="41.724783" lon="23.497465"><ele>2814</ele><time>2026-03-15T12:13:52.000Z</time></trkpt>
<trkpt lat="41.724781" lon="23.497472"><ele>2814</ele><time>2026-03-15T12:13:53.000Z</time></trkpt>
<trkpt lat="41.724777" lon="23.497479"><ele>2814</ele><time>2026-03-15T12:13:54.000Z</time></trkpt>
<trkpt lat="41.724773" lon="23.497486"><ele>2814</ele><time>2026-03-15T12:13:55.000Z</time></trkpt>
<trkpt lat="41.724769" lon="23.497491"><ele>2814</ele><time>2026-03-15T12:13:56.000Z</time></trkpt>
<trkpt lat="41.724766" lon="23.497496"><ele>2812.9</ele><time>2026-03-15T12:13:57.000Z</time></trkpt>
<trkpt lat="41.724764" lon="23.4975"><ele>2812.9</ele><time>2026-03-15T12:13:58.000Z</time></trkpt>
<trkpt lat="41.724762" lon="23.497505"><ele>2812.9</ele><time>2026-03-15T12:13:59.000Z</time></trkpt>
<trkpt lat="41.724759" lon="23.49751"><ele>2812.9</ele><time>2026-03-15T12:14:00.000Z</time></trkpt>
<trkpt lat="41.724755" lon="23.497514"><ele>2812.9</ele><time>2026-03-15T12:14:01.000Z</time></trkpt>
<trkpt lat="41.72475" lon="23.497516"><ele>2812.2</ele><time>2026-03-15T12:14:02.000Z</time></trkpt>
<trkpt lat="41.724744" lon="23.497517"><ele>2812.2</ele><time>2026-03-15T12:14:03.000Z</time></trkpt>
<trkpt lat="41.724738" lon="23.497517"><ele>2812.2</ele><time>2026-03-15T12:14:04.000Z</time></trkpt>
<trkpt lat="41.724733" lon="23.497517"><ele>2812.2</ele><time>2026-03-15T12:14:05.000Z</time></trkpt>
<trkpt lat="41.724728" lon="23.497518"><ele>2812.2</ele><time>2026-03-15T12:14:06.000Z</time></trkpt>
<trkpt lat="41.724723" lon="23.497518"><ele>2810.9</ele><time>2026-03-15T12:14:07.000Z</time></trkpt>
<trkpt lat="41.724717" lon="23.497519"><ele>2810.9</ele><time>2026-03-15T12:14:08.000Z</time></trkpt>
<trkpt lat="41.724711" lon="23.49752"><ele>2810.9</ele><time>2026-03-15T12:14:09.000Z</time></trkpt>
<trkpt lat="41.724705" lon="23.49752"><ele>2810.9</ele><time>2026-03-15T12:14:10.000Z</time></trkpt>
<trkpt lat="41.724699" lon="23.497521"><ele>2810.9</ele><time>2026-03-15T12:14:11.000Z</time></trkpt>
<trkpt lat="41.724693" lon="23.497523"><ele>2809.7</ele><time>2026-03-15T12:14:12.000Z</time></trkpt>
<trkpt lat="41.724688" lon="23.497524"><ele>2809.7</ele><time>2026-03-15T12:14:13.000Z</time></trkpt>
<trkpt lat="41.724683" lon="23.497527"><ele>2809.7</ele><time>2026-03-15T12:14:14.000Z</time></trkpt>
<trkpt lat="41.724678" lon="23.49753"><ele>2809.7</ele><time>2026-03-15T12:14:15.000Z</time></trkpt>
<trkpt lat="41.724672" lon="23.497533"><ele>2809.7</ele><time>2026-03-15T12:14:16.000Z</time></trkpt>
<trkpt lat="41.724666" lon="23.497536"><ele>2809.1</ele><time>2026-03-15T12:14:17.000Z</time></trkpt>
<trkpt lat="41.72466" lon="23.497539"><ele>2809.1</ele><time>2026-03-15T12:14:18.000Z</time></trkpt>
<trkpt lat="41.724654" lon="23.497541"><ele>2809.1</ele><time>2026-03-15T12:14:19.000Z</time></trkpt>
<trkpt lat="41.724649" lon="23.497542"><ele>2809.1</ele><time>2026-03-15T12:14:20.000Z</time></trkpt>
<trkpt lat="41.724644" lon="23.497544"><ele>2809.1</ele><time>2026-03-15T12:14:21.000Z</time></trkpt>
<trkpt lat="41.72464" lon="23.497546"><ele>2807.6</ele><time>2026-03-15T12:14:22.000Z</time></trkpt>
<trkpt lat="41.724638" lon="23.497549"><ele>2807.6</ele><time>2026-03-15T12:14:23.000Z</time></trkpt>
<trkpt lat="41.724636" lon="23.497553"><ele>2807.6</ele><time>2026-03-15T12:14:24.000Z</time></trkpt>
<trkpt lat="41.724634" lon="23.497558"><ele>2807.6</ele><time>2026-03-15T12:14:25.000Z</time></trkpt>
<trkpt lat="41.724632" lon="23.497563"><ele>2807.6</ele><time>2026-03-15T12:14:26.000Z</time></trkpt>
<trkpt lat="41.72463" lon="23.497568"><ele>2806</ele><time>2026-03-15T12:14:27.000Z</time></trkpt>
<trkpt lat="41.724626" lon="23.497573"><ele>2806</ele><time>2026-03-15T12:14:28.000Z</time></trkpt>
<trkpt lat="41.724622" lon="23.497578"><ele>2806</ele><time>2026-03-15T12:14:29.000Z</time></trkpt>
<trkpt lat="41.724619" lon="23.497581"><ele>2806</ele><time>2026-03-15T12:14:30.000Z</time></trkpt>
<trkpt lat="41.724616" lon="23.497584"><ele>2806</ele><time>2026-03-15T12:14:31.000Z</time></trkpt>
<trkpt lat="41.724614" lon="23.497588"><ele>2805.2</ele><time>2026-03-15T12:14:32.000Z</time></trkpt>
<trkpt lat="41.724612" lon="23.497592"><ele>2805.2</ele><time>2026-03-15T12:14:33.000Z</time></trkpt>
<trkpt lat="41.72461" lon="23.497597"><ele>2805.2</ele><time>2026-03-15T12:14:34.000Z</time></trkpt>
<trkpt lat="41.724607" lon="23.497603"><ele>2805.2</ele><time>2026-03-15T12:14:35.000Z</time></trkpt>
<trkpt lat="41.724604" lon="23.497611"><ele>2805.2</ele><time>2026-03-15T12:14:36.000Z</time></trkpt>
<trkpt lat="41.724601" lon="23.497619"><ele>2803.8</ele><time>2026-03-15T12:14:37.000Z</time></trkpt>
<trkpt lat="41.724598" lon="23.497627"><ele>2803.8</ele><time>2026-03-15T12:14:38.000Z</time></trkpt>
<trkpt lat="41.724596" lon="23.497634"><ele>2803.8</ele><time>2026-03-15T12:14:39.000Z</time></trkpt>
<trkpt lat="41.724595" lon="23.49764"><ele>2803.8</ele><time>2026-03-15T12:14:40.000Z</time></trkpt>
<trkpt lat="41.724593" lon="23.497647"><ele>2803.8</ele><time>2026-03-15T12:14:41.000Z</time></trkpt>
<trkpt lat="41.724591" lon="23.497655"><ele>2802.7</ele><time>2026-03-15T12:14:42.000Z</time></trkpt>
<trkpt lat="41.724588" lon="23.497662"><ele>2802.7</ele><time>2026-03-15T12:14:43.000Z</time></trkpt>
<trkpt lat="41.724584" lon="23.49767"><ele>2802.7</ele><time>2026-03-15T12:14:44.000Z</time></trkpt>
<trkpt lat="41.724579" lon="23.497679"><ele>2802.7</ele><time>2026-03-15T12:14:45.000Z</time></trkpt>
<trkpt lat="41.724575" lon="23.497688"><ele>2802.7</ele><time>2026-03-15T12:14:46.000Z</time></trkpt>
<trkpt lat="41.724571" lon="23.497696"><ele>2802.1</ele><time>2026-03-15T12:14:47.000Z</time></trkpt>
<trkpt lat="41.724568" lon="23.497705"><ele>2802.1</ele><time>2026-03-15T12:14:48.000Z</time></trkpt>
<trkpt lat="41.724564" lon="23.497712"><ele>2802.1</ele><time>2026-03-15T12:14:49.000Z</time></trkpt>
<trkpt lat="41.72456" lon="23.497718"><ele>2802.1</ele><time>2026-03-15T12:14:50.000Z</time></trkpt>
<trkpt lat="41.724554" lon="23.497722"><ele>2802.1</ele><time>2026-03-15T12:14:51.000Z</time></trkpt>
<trkpt lat="41.724547" lon="23.497726"><ele>2800.5</ele><time>2026-03-15T12:14:52.000Z</time></trkpt>
<trkpt lat="41.724541" lon="23.497729"><ele>2800.5</ele><time>2026-03-15T12:14:53.000Z</time></trkpt>
<trkpt lat="41.724536" lon="23.497732"><ele>2800.5</ele><time>2026-03-15T12:14:54.000Z</time></trkpt>
<trkpt lat="41.724532" lon="23.497736"><ele>2800.5</ele><time>2026-03-15T12:14:55.000Z</time></trkpt>
<trkpt lat="41.724531" lon="23.497741"><ele>2800.5</ele><time>2026-03-15T12:14:56.000Z</time></trkpt>
<trkpt lat="41.72453" lon="23.497748"><ele>2798.4</ele><time>2026-03-15T12:14:57.000Z</time></trkpt>
<trkpt lat="41.72453" lon="23.497755"><ele>2798.4</ele><time>2026-03-15T12:14:58.000Z</time></trkpt>
<trkpt lat="41.724528" lon="23.497761"><ele>2798.4</ele><time>2026-03-15T12:14:59.000Z</time></trkpt>
<trkpt lat="41.724526" lon="23.497765"><ele>2798.4</ele><time>2026-03-15T12:15:00.000Z</time></trkpt>
<trkpt lat="41.724523" lon="23.49777"><ele>2798.4</ele><time>2026-03-15T12:15:01.000Z</time></trkpt>
<trkpt lat="41.724519" lon="23.497773"><ele>2797.2</ele><time>2026-03-15T12:15:02.000Z</time></trkpt>
<trkpt lat="41.724513" lon="23.497775"><ele>2797.2</ele><time>2026-03-15T12:15:03.000Z</time></trkpt>
<trkpt lat="41.724508" lon="23.497777"><ele>2797.2</ele><time>2026-03-15T12:15:04.000Z</time></trkpt>
<trkpt lat="41.724502" lon="23.49778"><ele>2797.2</ele><time>2026-03-15T12:15:05.000Z</time></trkpt>
<trkpt lat="41.724497" lon="23.497784"><ele>2797.2</ele><time>2026-03-15T12:15:06.000Z</time></trkpt>
<trkpt lat="41.724494" lon="23.497787"><ele>2795.1</ele><time>2026-03-15T12:15:07.000Z</time></trkpt>
<trkpt lat="41.72449" lon="23.497793"><ele>2795.1</ele><time>2026-03-15T12:15:08.000Z</time></trkpt>
<trkpt lat="41.724488" lon="23.497799"><ele>2795.1</ele><time>2026-03-15T12:15:09.000Z</time></trkpt>
<trkpt lat="41.724487" lon="23.497805"><ele>2795.1</ele><time>2026-03-15T12:15:10.000Z</time></trkpt>
<trkpt lat="41.724486" lon="23.497813"><ele>2795.1</ele><time>2026-03-15T12:15:11.000Z</time></trkpt>
<trkpt lat="41.724486" lon="23.49782"><ele>2793.5</ele><time>2026-03-15T12:15:12.000Z</time></trkpt>
<trkpt lat="41.724486" lon="23.497827"><ele>2793.5</ele><time>2026-03-15T12:15:13.000Z</time></trkpt>
<trkpt lat="41.724486" lon="23.497834"><ele>2793.5</ele><time>2026-03-15T12:15:14.000Z</time></trkpt>
<trkpt lat="41.724486" lon="23.497841"><ele>2793.5</ele><time>2026-03-15T12:15:15.000Z</time></trkpt>
<trkpt lat="41.724486" lon="23.497849"><ele>2793.5</ele><time>2026-03-15T12:15:16.000Z</time></trkpt>
<trkpt lat="41.724485" lon="23.497858"><ele>2792.8</ele><time>2026-03-15T12:15:17.000Z</time></trkpt>
<trkpt lat="41.724484" lon="23.497866"><ele>2792.8</ele><time>2026-03-15T12:15:18.000Z</time></trkpt>
<trkpt lat="41.724484" lon="23.497873"><ele>2792.8</ele><time>2026-03-15T12:15:19.000Z</time></trkpt>
<trkpt lat="41.724482" lon="23.497881"><ele>2792.8</ele><time>2026-03-15T12:15:20.000Z</time></trkpt>
<trkpt lat="41.72448" lon="23.497888"><ele>2792.8</ele><time>2026-03-15T12:15:21.000Z</time></trkpt>
<trkpt lat="41.724477" lon="23.497894"><ele>2791.5</ele><time>2026-03-15T12:15:22.000Z</time></trkpt>
<trkpt lat="41.724477" lon="23.4979"><ele>2791.5</ele><time>2026-03-15T12:15:23.000Z</time></trkpt>
<trkpt lat="41.724477" lon="23.497908"><ele>2791.5</ele><time>2026-03-15T12:15:24.000Z</time></trkpt>
<trkpt lat="41.724478" lon="23.497913"><ele>2791.5</ele><time>2026-03-15T12:15:25.000Z</time></trkpt>
<trkpt lat="41.72448" lon="23.497921"><ele>2791.5</ele><time>2026-03-15T12:15:26.000Z</time></trkpt>
<trkpt lat="41.724481" lon="23.497929"><ele>2790.1</ele><time>2026-03-15T12:15:27.000Z</time></trkpt>
<trkpt lat="41.72448" lon="23.497937"><ele>2790.1</ele><time>2026-03-15T12:15:28.000Z</time></trkpt>
<trkpt lat="41.724477" lon="23.497944"><ele>2790.1</ele><time>2026-03-15T12:15:29.000Z</time></trkpt>
<trkpt lat="41.724474" lon="23.497952"><ele>2790.1</ele><time>2026-03-15T12:15:30.000Z</time></trkpt>
<trkpt lat="41.72447" lon="23.497958"><ele>2790.1</ele><time>2026-03-15T12:15:31.000Z</time></trkpt>
<trkpt lat="41.724466" lon="23.497965"><ele>2789.4</ele><time>2026-03-15T12:15:32.000Z</time></trkpt>
<trkpt lat="41.724461" lon="23.49797"><ele>2789.4</ele><time>2026-03-15T12:15:33.000Z</time></trkpt>
<trkpt lat="41.724456" lon="23.497976"><ele>2789.4</ele><time>2026-03-15T12:15:34.000Z</time></trkpt>
<trkpt lat="41.724451" lon="23.497982"><ele>2789.4</ele><time>2026-03-15T12:15:35.000Z</time></trkpt>
<trkpt lat="41.724446" lon="23.497988"><ele>2789.4</ele><time>2026-03-15T12:15:36.000Z</time></trkpt>
<trkpt lat="41.72444" lon="23.497993"><ele>2787.9</ele><time>2026-03-15T12:15:37.000Z</time></trkpt>
<trkpt lat="41.724435" lon="23.497999"><ele>2787.9</ele><time>2026-03-15T12:15:38.000Z</time></trkpt>
<trkpt lat="41.72443" lon="23.498004"><ele>2787.9</ele><time>2026-03-15T12:15:39.000Z</time></trkpt>
<trkpt lat="41.724425" lon="23.49801"><ele>2787.9</ele><time>2026-03-15T12:15:40.000Z</time></trkpt>
<trkpt lat="41.72442" lon="23.498016"><ele>2787.9</ele><time>2026-03-15T12:15:41.000Z</time></trkpt>
<trkpt lat="41.724414" lon="23.498021"><ele>2786</ele><time>2026-03-15T12:15:42.000Z</time></trkpt>
<trkpt lat="41.724408" lon="23.498027"><ele>2786</ele><time>2026-03-15T12:15:43.000Z</time></trkpt>
<trkpt lat="41.724402" lon="23.498032"><ele>2786</ele><time>2026-03-15T12:15:44.000Z</time></trkpt>
<trkpt lat="41.724395" lon="23.498037"><ele>2786</ele><time>2026-03-15T12:15:45.000Z</time></trkpt>
<trkpt lat="41.724389" lon="23.498042"><ele>2786</ele><time>2026-03-15T12:15:46.000Z</time></trkpt>
<trkpt lat="41.724382" lon="23.498049"><ele>2785</ele><time>2026-03-15T12:15:47.000Z</time></trkpt>
<trkpt lat="41.724378" lon="23.498055"><ele>2785</ele><time>2026-03-15T12:15:48.000Z</time></trkpt>
<trkpt lat="41.724373" lon="23.498061"><ele>2785</ele><time>2026-03-15T12:15:49.000Z</time></trkpt>
<trkpt lat="41.724371" lon="23.498069"><ele>2785</ele><time>2026-03-15T12:15:50.000Z</time></trkpt>
<trkpt lat="41.72437" lon="23.498077"><ele>2785</ele><time>2026-03-15T12:15:51.000Z</time></trkpt>
<trkpt lat="41.724371" lon="23.498083"><ele>2783.1</ele><time>2026-03-15T12:15:52.000Z</time></trkpt>
<trkpt lat="41.724372" lon="23.498091"><ele>2783.1</ele><time>2026-03-15T12:15:53.000Z</time></trkpt>
<trkpt lat="41.724373" lon="23.4981"><ele>2783.1</ele><time>2026-03-15T12:15:54.000Z</time></trkpt>
<trkpt lat="41.724372" lon="23.498108"><ele>2783.1</ele><time>2026-03-15T12:15:55.000Z</time></trkpt>
<trkpt lat="41.724368" lon="23.498116"><ele>2783.1</ele><time>2026-03-15T12:15:56.000Z</time></trkpt>
<trkpt lat="41.724363" lon="23.498124"><ele>2781.3</ele><time>2026-03-15T12:15:57.000Z</time></trkpt>
<trkpt lat="41.724356" lon="23.498131"><ele>2781.3</ele><time>2026-03-15T12:15:58.000Z</time></trkpt>
<trkpt lat="41.724349" lon="23.498137"><ele>2781.3</ele><time>2026-03-15T12:15:59.000Z</time></trkpt>
<trkpt lat="41.724342" lon="23.498142"><ele>2781.3</ele><time>2026-03-15T12:16:00.000Z</time></trkpt>
<trkpt lat="41.724335" lon="23.498146"><ele>2781.3</ele><time>2026-03-15T12:16:01.000Z</time></trkpt>
<trkpt lat="41.724328" lon="23.498151"><ele>2780.3</ele><time>2026-03-15T12:16:02.000Z</time></trkpt>
<trkpt lat="41.724321" lon="23.498155"><ele>2780.3</ele><time>2026-03-15T12:16:03.000Z</time></trkpt>
<trkpt lat="41.724314" lon="23.49816"><ele>2780.3</ele><time>2026-03-15T12:16:04.000Z</time></trkpt>
<trkpt lat="41.724308" lon="23.498165"><ele>2780.3</ele><time>2026-03-15T12:16:05.000Z</time></trkpt>
<trkpt lat="41.724302" lon="23.498171"><ele>2780.3</ele><time>2026-03-15T12:16:06.000Z</time></trkpt>
<trkpt lat="41.724296" lon="23.498177"><ele>2778.4</ele><time>2026-03-15T12:16:07.000Z</time></trkpt>
<trkpt lat="41.72429" lon="23.498184"><ele>2778.4</ele><time>2026-03-15T12:16:08.000Z</time></trkpt>
<trkpt lat="41.724283" lon="23.498192"><ele>2778.4</ele><time>2026-03-15T12:16:09.000Z</time></trkpt>
<trkpt lat="41.724277" lon="23.498199"><ele>2778.4</ele><time>2026-03-15T12:16:10.000Z</time></trkpt>
<trkpt lat="41.72427" lon="23.498206"><ele>2778.4</ele><time>2026-03-15T12:16:11.000Z</time></trkpt>
<trkpt lat="41.724264" lon="23.498213"><ele>2776.6</ele><time>2026-03-15T12:16:12.000Z</time></trkpt>
<trkpt lat="41.724258" lon="23.498218"><ele>2776.6</ele><time>2026-03-15T12:16:13.000Z</time></trkpt>
<trkpt lat="41.724252" lon="23.498222"><ele>2776.6</ele><time>2026-03-15T12:16:14.000Z</time></trkpt>
<trkpt lat="41.724247" lon="23.498225"><ele>2776.6</ele><time>2026-03-15T12:16:15.000Z</time></trkpt>
<trkpt lat="41.724241" lon="23.498227"><ele>2776.6</ele><time>2026-03-15T12:16:16.000Z</time></trkpt>
<trkpt lat="41.724234" lon="23.49823"><ele>2775.7</ele><time>2026-03-15T12:16:17.000Z</time></trkpt>
<trkpt lat="41.724228" lon="23.498234"><ele>2775.7</ele><time>2026-03-15T12:16:18.000Z</time></trkpt>
<trkpt lat="41.724222" lon="23.498239"><ele>2775.7</ele><time>2026-03-15T12:16:19.000Z</time></trkpt>
<trkpt lat="41.724216" lon="23.498245"><ele>2775.7</ele><time>2026-03-15T12:16:20.000Z</time></trkpt>
<trkpt lat="41.724213" lon="23.498252"><ele>2775.7</ele><time>2026-03-15T12:16:21.000Z</time></trkpt>
<trkpt lat="41.724211" lon="23.498258"><ele>2773.9</ele><time>2026-03-15T12:16:22.000Z</time></trkpt>
<trkpt lat="41.724211" lon="23.498266"><ele>2773.9</ele><time>2026-03-15T12:16:23.000Z</time></trkpt>
<trkpt lat="41.724211" lon="23.498275"><ele>2773.9</ele><time>2026-03-15T12:16:24.000Z</time></trkpt>
<trkpt lat="41.724212" lon="23.498285"><ele>2773.9</ele><time>2026-03-15T12:16:25.000Z</time></trkpt>
<trkpt lat="41.724212" lon="23.498296"><ele>2773.9</ele><time>2026-03-15T12:16:26.000Z</time></trkpt>
<trkpt lat="41.724211" lon="23.498308"><ele>2772.1</ele><time>2026-03-15T12:16:27.000Z</time></trkpt>
<trkpt lat="41.724209" lon="23.498319"><ele>2772.1</ele><time>2026-03-15T12:16:28.000Z</time></trkpt>
<trkpt lat="41.724204" lon="23.498331"><ele>2772.1</ele><time>2026-03-15T12:16:29.000Z</time></trkpt>
<trkpt lat="41.724198" lon="23.498342"><ele>2772.1</ele><time>2026-03-15T12:16:30.000Z</time></trkpt>
<trkpt lat="41.724192" lon="23.498352"><ele>2772.1</ele><time>2026-03-15T12:16:31.000Z</time></trkpt>
<trkpt lat="41.724183" lon="23.49836"><ele>2771.2</ele><time>2026-03-15T12:16:32.000Z</time></trkpt>
<trkpt lat="41.724174" lon="23.498368"><ele>2771.2</ele><time>2026-03-15T12:16:33.000Z</time></trkpt>
<trkpt lat="41.724167" lon="23.498373"><ele>2771.2</ele><time>2026-03-15T12:16:34.000Z</time></trkpt>
<trkpt lat="41.724161" lon="23.498381"><ele>2771.2</ele><time>2026-03-15T12:16:35.000Z</time></trkpt>
<trkpt lat="41.724158" lon="23.498389"><ele>2771.2</ele><time>2026-03-15T12:16:36.000Z</time></trkpt>
<trkpt lat="41.724158" lon="23.498397"><ele>2769.4</ele><time>2026-03-15T12:16:37.000Z</time></trkpt>
<trkpt lat="41.724157" lon="23.498408"><ele>2769.4</ele><time>2026-03-15T12:16:38.000Z</time></trkpt>
<trkpt lat="41.724158" lon="23.498419"><ele>2769.4</ele><time>2026-03-15T12:16:39.000Z</time></trkpt>
<trkpt lat="41.724158" lon="23.49843"><ele>2769.4</ele><time>2026-03-15T12:16:40.000Z</time></trkpt>
<trkpt lat="41.724156" lon="23.498441"><ele>2769.4</ele><time>2026-03-15T12:16:41.000Z</time></trkpt>
<trkpt lat="41.724153" lon="23.498452"><ele>2767.2</ele><time>2026-03-15T12:16:42.000Z</time></trkpt>
<trkpt lat="41.72415" lon="23.498463"><ele>2767.2</ele><time>2026-03-15T12:16:43.000Z</time></trkpt>
<trkpt lat="41.724147" lon="23.498473"><ele>2767.2</ele><time>2026-03-15T12:16:44.000Z</time></trkpt>
<trkpt lat="41.724144" lon="23.498483"><ele>2767.2</ele><time>2026-03-15T12:16:45.000Z</time></trkpt>
<trkpt lat="41.724143" lon="23.498493"><ele>2767.2</ele><time>2026-03-15T12:16:46.000Z</time></trkpt>
<trkpt lat="41.724142" lon="23.498504"><ele>2766.2</ele><time>2026-03-15T12:16:47.000Z</time></trkpt>
<trkpt lat="41.724139" lon="23.498515"><ele>2766.2</ele><time>2026-03-15T12:16:48.000Z</time></trkpt>
<trkpt lat="41.724136" lon="23.498525"><ele>2766.2</ele><time>2026-03-15T12:16:49.000Z</time></trkpt>
<trkpt lat="41.724132" lon="23.498534"><ele>2766.2</ele><time>2026-03-15T12:16:50.000Z</time></trkpt>
<trkpt lat="41.724129" lon="23.498541"><ele>2766.2</ele><time>2026-03-15T12:16:51.000Z</time></trkpt>
<trkpt lat="41.724126" lon="23.498549"><ele>2764.2</ele><time>2026-03-15T12:16:52.000Z</time></trkpt>
<trkpt lat="41.724125" lon="23.498559"><ele>2764.2</ele><time>2026-03-15T12:16:53.000Z</time></trkpt>
<trkpt lat="41.724123" lon="23.498568"><ele>2764.2</ele><time>2026-03-15T12:16:54.000Z</time></trkpt>
<trkpt lat="41.72412" lon="23.498577"><ele>2764.2</ele><time>2026-03-15T12:16:55.000Z</time></trkpt>
<trkpt lat="41.724116" lon="23.498587"><ele>2764.2</ele><time>2026-03-15T12:16:56.000Z</time></trkpt>
<trkpt lat="41.724112" lon="23.498595"><ele>2762.5</ele><time>2026-03-15T12:16:57.000Z</time></trkpt>
<trkpt lat="41.724108" lon="23.498603"><ele>2762.5</ele><time>2026-03-15T12:16:58.000Z</time></trkpt>
<trkpt lat="41.724104" lon="23.498611"><ele>2762.5</ele><time>2026-03-15T12:16:59.000Z</time></trkpt>
<trkpt lat="41.724101" lon="23.498621"><ele>2762.5</ele><time>2026-03-15T12:17:00.000Z</time></trkpt>
<trkpt lat="41.724097" lon="23.498632"><ele>2762.5</ele><time>2026-03-15T12:17:01.000Z</time></trkpt>
<trkpt lat="41.724092" lon="23.498644"><ele>2761.6</ele><time>2026-03-15T12:17:02.000Z</time></trkpt>
<trkpt lat="41.724087" lon="23.498656"><ele>2761.6</ele><time>2026-03-15T12:17:03.000Z</time></trkpt>
<trkpt lat="41.724083" lon="23.498671"><ele>2761.6</ele><time>2026-03-15T12:17:04.000Z</time></trkpt>
<trkpt lat="41.724079" lon="23.498685"><ele>2761.6</ele><time>2026-03-15T12:17:05.000Z</time></trkpt>
<trkpt lat="41.724076" lon="23.498698"><ele>2761.6</ele><time>2026-03-15T12:17:06.000Z</time></trkpt>
<trkpt lat="41.724073" lon="23.498711"><ele>2759.7</ele><time>2026-03-15T12:17:07.000Z</time></trkpt>
<trkpt lat="41.724069" lon="23.498722"><ele>2759.7</ele><time>2026-03-15T12:17:08.000Z</time></trkpt>
<trkpt lat="41.724063" lon="23.49873"><ele>2759.7</ele><time>2026-03-15T12:17:09.000Z</time></trkpt>
<trkpt lat="41.724055" lon="23.498735"><ele>2759.7</ele><time>2026-03-15T12:17:10.000Z</time></trkpt>
<trkpt lat="41.724046" lon="23.49874"><ele>2759.7</ele><time>2026-03-15T12:17:11.000Z</time></trkpt>
<trkpt lat="41.724038" lon="23.498744"><ele>2757.5</ele><time>2026-03-15T12:17:12.000Z</time></trkpt>
<trkpt lat="41.724032" lon="23.498747"><ele>2757.5</ele><time>2026-03-15T12:17:13.000Z</time></trkpt>
<trkpt lat="41.724029" lon="23.498751"><ele>2757.5</ele><time>2026-03-15T12:17:14.000Z</time></trkpt>
<trkpt lat="41.724026" lon="23.498757"><ele>2757.5</ele><time>2026-03-15T12:17:15.000Z</time></trkpt>
<trkpt lat="41.724027" lon="23.498765"><ele>2757.5</ele><time>2026-03-15T12:17:16.000Z</time></trkpt>
<trkpt lat="41.724029" lon="23.498772"><ele>2756.3</ele><time>2026-03-15T12:17:17.000Z</time></trkpt>
<trkpt lat="41.724031" lon="23.498783"><ele>2756.3</ele><time>2026-03-15T12:17:18.000Z</time></trkpt>
<trkpt lat="41.724031" lon="23.498794"><ele>2756.3</ele><time>2026-03-15T12:17:19.000Z</time></trkpt>
<trkpt lat="41.72403" lon="23.498806"><ele>2756.3</ele><time>2026-03-15T12:17:20.000Z</time></trkpt>
<trkpt lat="41.724027" lon="23.498816"><ele>2756.3</ele><time>2026-03-15T12:17:21.000Z</time></trkpt>
<trkpt lat="41.724022" lon="23.498827"><ele>2754</ele><time>2026-03-15T12:17:22.000Z</time></trkpt>
<trkpt lat="41.724014" lon="23.498837"><ele>2754</ele><time>2026-03-15T12:17:23.000Z</time></trkpt>
<trkpt lat="41.724006" lon="23.498847"><ele>2754</ele><time>2026-03-15T12:17:24.000Z</time></trkpt>
<trkpt lat="41.724" lon="23.498855"><ele>2754</ele><time>2026-03-15T12:17:25.000Z</time></trkpt>
<trkpt lat="41.723995" lon="23.498865"><ele>2754</ele><time>2026-03-15T12:17:26.000Z</time></trkpt>
<trkpt lat="41.723992" lon="23.498875"><ele>2752</ele><time>2026-03-15T12:17:27.000Z</time></trkpt>
<trkpt lat="41.723991" lon="23.498889"><ele>2752</ele><time>2026-03-15T12:17:28.000Z</time></trkpt>
<trkpt lat="41.72399" lon="23.498904"><ele>2752</ele><time>2026-03-15T12:17:29.000Z</time></trkpt>
<trkpt lat="41.72399" lon="23.498922"><ele>2752</ele><time>2026-03-15T12:17:30.000Z</time></trkpt>
<trkpt lat="41.723988" lon="23.498941"><ele>2752</ele><time>2026-03-15T12:17:31.000Z</time></trkpt>
<trkpt lat="41.723986" lon="23.498961"><ele>2751.1</ele><time>2026-03-15T12:17:32.000Z</time></trkpt>
<trkpt lat="41.723982" lon="23.49898"><ele>2751.1</ele><time>2026-03-15T12:17:33.000Z</time></trkpt>
<trkpt lat="41.723979" lon="23.498999"><ele>2751.1</ele><time>2026-03-15T12:17:34.000Z</time></trkpt>
<trkpt lat="41.723975" lon="23.499016"><ele>2751.1</ele><time>2026-03-15T12:17:35.000Z</time></trkpt>
<trkpt lat="41.723972" lon="23.499034"><ele>2751.1</ele><time>2026-03-15T12:17:36.000Z</time></trkpt>
<trkpt lat="41.72397" lon="23.499051"><ele>2749.3</ele><time>2026-03-15T12:17:37.000Z</time></trkpt>
<trkpt lat="41.723966" lon="23.49907"><ele>2749.3</ele><time>2026-03-15T12:17:38.000Z</time></trkpt>
<trkpt lat="41.723963" lon="23.499089"><ele>2749.3</ele><time>2026-03-15T12:17:39.000Z</time></trkpt>
<trkpt lat="41.723959" lon="23.499109"><ele>2749.3</ele><time>2026-03-15T12:17:40.000Z</time></trkpt>
<trkpt lat="41.723955" lon="23.499129"><ele>2749.3</ele><time>2026-03-15T12:17:41.000Z</time></trkpt>
<trkpt lat="41.723951" lon="23.49915"><ele>2747.2</ele><time>2026-03-15T12:17:42.000Z</time></trkpt>
<trkpt lat="41.723948" lon="23.499171"><ele>2747.2</ele><time>2026-03-15T12:17:43.000Z</time></trkpt>
<trkpt lat="41.723945" lon="23.499193"><ele>2747.2</ele><time>2026-03-15T12:17:44.000Z</time></trkpt>
<trkpt lat="41.723942" lon="23.499215"><ele>2747.2</ele><time>2026-03-15T12:17:45.000Z</time></trkpt>
<trkpt lat="41.723938" lon="23.499237"><ele>2747.2</ele><time>2026-03-15T12:17:46.000Z</time></trkpt>
<trkpt lat="41.723934" lon="23.499258"><ele>2746.1</ele><time>2026-03-15T12:17:47.000Z</time></trkpt>
<trkpt lat="41.72393" lon="23.499278"><ele>2746.1</ele><time>2026-03-15T12:17:48.000Z</time></trkpt>
<trkpt lat="41.723926" lon="23.499297"><ele>2746.1</ele><time>2026-03-15T12:17:49.000Z</time></trkpt>
<trkpt lat="41.723922" lon="23.499315"><ele>2746.1</ele><time>2026-03-15T12:17:50.000Z</time></trkpt>
<trkpt lat="41.72392" lon="23.499332"><ele>2746.1</ele><time>2026-03-15T12:17:51.000Z</time></trkpt>
<trkpt lat="41.723918" lon="23.499351"><ele>2743.6</ele><time>2026-03-15T12:17:52.000Z</time></trkpt>
<trkpt lat="41.723915" lon="23.499369"><ele>2743.6</ele><time>2026-03-15T12:17:53.000Z</time></trkpt>
<trkpt lat="41.723913" lon="23.499387"><ele>2743.6</ele><time>2026-03-15T12:17:54.000Z</time></trkpt>
<trkpt lat="41.723912" lon="23.499404"><ele>2743.6</ele><time>2026-03-15T12:17:55.000Z</time></trkpt>
<trkpt lat="41.72391" lon="23.499421"><ele>2743.6</ele><time>2026-03-15T12:17:56.000Z</time></trkpt>
<trkpt lat="41.723909" lon="23.499439"><ele>2741.1</ele><time>2026-03-15T12:17:57.000Z</time></trkpt>
<trkpt lat="41.723911" lon="23.499455"><ele>2741.1</ele><time>2026-03-15T12:17:58.000Z</time></trkpt>
<trkpt lat="41.723912" lon="23.49947"><ele>2741.1</ele><time>2026-03-15T12:17:59.000Z</time></trkpt>
<trkpt lat="41.723912" lon="23.499482"><ele>2741.1</ele><time>2026-03-15T12:18:00.000Z</time></trkpt>
<trkpt lat="41.723914" lon="23.499492"><ele>2741.1</ele><time>2026-03-15T12:18:01.000Z</time></trkpt>
<trkpt lat="41.723915" lon="23.499501"><ele>2740.1</ele><time>2026-03-15T12:18:02.000Z</time></trkpt>
<trkpt lat="41.723916" lon="23.49951"><ele>2740.1</ele><time>2026-03-15T12:18:03.000Z</time></trkpt>
<trkpt lat="41.723918" lon="23.499517"><ele>2740.1</ele><time>2026-03-15T12:18:04.000Z</time></trkpt>
<trkpt lat="41.72392" lon="23.499528"><ele>2740.1</ele><time>2026-03-15T12:18:05.000Z</time></trkpt>
<trkpt lat="41.723921" lon="23.499539"><ele>2740.1</ele><time>2026-03-15T12:18:06.000Z</time></trkpt>
<trkpt lat="41.723921" lon="23.49955"><ele>2738.4</ele><time>2026-03-15T12:18:07.000Z</time></trkpt>
<trkpt lat="41.723919" lon="23.49956"><ele>2738.4</ele><time>2026-03-15T12:18:08.000Z</time></trkpt>
<trkpt lat="41.723915" lon="23.499571"><ele>2738.4</ele><time>2026-03-15T12:18:09.000Z</time></trkpt>
<trkpt lat="41.72391" lon="23.499583"><ele>2738.4</ele><time>2026-03-15T12:18:10.000Z</time></trkpt>
<trkpt lat="41.723904" lon="23.499596"><ele>2738.4</ele><time>2026-03-15T12:18:11.000Z</time></trkpt>
<trkpt lat="41.723898" lon="23.49961"><ele>2737.4</ele><time>2026-03-15T12:18:12.000Z</time></trkpt>
<trkpt lat="41.723894" lon="23.499626"><ele>2737.4</ele><time>2026-03-15T12:18:13.000Z</time></trkpt>
<trkpt lat="41.723889" lon="23.499643"><ele>2737.4</ele><time>2026-03-15T12:18:14.000Z</time></trkpt>
<trkpt lat="41.723884" lon="23.499661"><ele>2737.4</ele><time>2026-03-15T12:18:15.000Z</time></trkpt>
<trkpt lat="41.723879" lon="23.499681"><ele>2737.4</ele><time>2026-03-15T12:18:16.000Z</time></trkpt>
<trkpt lat="41.723875" lon="23.499701"><ele>2736.8</ele><time>2026-03-15T12:18:17.000Z</time></trkpt>
<trkpt lat="41.723871" lon="23.499723"><ele>2736.8</ele><time>2026-03-15T12:18:18.000Z</time></trkpt>
<trkpt lat="41.723867" lon="23.499745"><ele>2736.8</ele><time>2026-03-15T12:18:19.000Z</time></trkpt>
<trkpt lat="41.723864" lon="23.499766"><ele>2736.8</ele><time>2026-03-15T12:18:20.000Z</time></trkpt>
<trkpt lat="41.72386" lon="23.499787"><ele>2736.8</ele><time>2026-03-15T12:18:21.000Z</time></trkpt>
<trkpt lat="41.723856" lon="23.499807"><ele>2735.4</ele><time>2026-03-15T12:18:22.000Z</time></trkpt>
<trkpt lat="41.723852" lon="23.499825"><ele>2735.4</ele><time>2026-03-15T12:18:23.000Z</time></trkpt>
<trkpt lat="41.723849" lon="23.499842"><ele>2735.4</ele><time>2026-03-15T12:18:24.000Z</time></trkpt>
<trkpt lat="41.723847" lon="23.499858"><ele>2735.4</ele><time>2026-03-15T12:18:25.000Z</time></trkpt>
<trkpt lat="41.723845" lon="23.499874"><ele>2735.4</ele><time>2026-03-15T12:18:26.000Z</time></trkpt>
<trkpt lat="41.723845" lon="23.499889"><ele>2733.3</ele><time>2026-03-15T12:18:27.000Z</time></trkpt>
<trkpt lat="41.723844" lon="23.499903"><ele>2733.3</ele><time>2026-03-15T12:18:28.000Z</time></trkpt>
<trkpt lat="41.723842" lon="23.499916"><ele>2733.3</ele><time>2026-03-15T12:18:29.000Z</time></trkpt>
<trkpt lat="41.723839" lon="23.499929"><ele>2733.3</ele><time>2026-03-15T12:18:30.000Z</time></trkpt>
<trkpt lat="41.723834" lon="23.49994"><ele>2733.3</ele><time>2026-03-15T12:18:31.000Z</time></trkpt>
<trkpt lat="41.723829" lon="23.499952"><ele>2732.3</ele><time>2026-03-15T12:18:32.000Z</time></trkpt>
<trkpt lat="41.723826" lon="23.499964"><ele>2732.3</ele><time>2026-03-15T12:18:33.000Z</time></trkpt>
<trkpt lat="41.723823" lon="23.499977"><ele>2732.3</ele><time>2026-03-15T12:18:34.000Z</time></trkpt>
<trkpt lat="41.723823" lon="23.499991"><ele>2732.3</ele><time>2026-03-15T12:18:35.000Z</time></trkpt>
<trkpt lat="41.723823" lon="23.500006"><ele>2732.3</ele><time>2026-03-15T12:18:36.000Z</time></trkpt>
<trkpt lat="41.723824" lon="23.500022"><ele>2730.6</ele><time>2026-03-15T12:18:37.000Z</time></trkpt>
<trkpt lat="41.723825" lon="23.50004"><ele>2730.6</ele><time>2026-03-15T12:18:38.000Z</time></trkpt>
<trkpt lat="41.723826" lon="23.500059"><ele>2730.6</ele><time>2026-03-15T12:18:39.000Z</time></trkpt>
<trkpt lat="41.723828" lon="23.500079"><ele>2730.6</ele><time>2026-03-15T12:18:40.000Z</time></trkpt>
<trkpt lat="41.72383" lon="23.5001"><ele>2730.6</ele><time>2026-03-15T12:18:41.000Z</time></trkpt>
<trkpt lat="41.723831" lon="23.500123"><ele>2729.4</ele><time>2026-03-15T12:18:42.000Z</time></trkpt>
<trkpt lat="41.723831" lon="23.500145"><ele>2729.4</ele><time>2026-03-15T12:18:43.000Z</time></trkpt>
<trkpt lat="41.72383" lon="23.500168"><ele>2729.4</ele><time>2026-03-15T12:18:44.000Z</time></trkpt>
<trkpt lat="41.723827" lon="23.500191"><ele>2729.4</ele><time>2026-03-15T12:18:45.000Z</time></trkpt>
<trkpt lat="41.723823" lon="23.500215"><ele>2729.4</ele><time>2026-03-15T12:18:46.000Z</time></trkpt>
<trkpt lat="41.723819" lon="23.500237"><ele>2728.8</ele><time>2026-03-15T12:18:47.000Z</time></trkpt>
<trkpt lat="41.723816" lon="23.500258"><ele>2728.8</ele><time>2026-03-15T12:18:48.000Z</time></trkpt>
<trkpt lat="41.723813" lon="23.500278"><ele>2728.8</ele><time>2026-03-15T12:18:49.000Z</time></trkpt>
<trkpt lat="41.723812" lon="23.500296"><ele>2728.8</ele><time>2026-03-15T12:18:50.000Z</time></trkpt>
<trkpt lat="41.723812" lon="23.500312"><ele>2728.8</ele><time>2026-03-15T12:18:51.000Z</time></trkpt>
<trkpt lat="41.723815" lon="23.500328"><ele>2727.1</ele><time>2026-03-15T12:18:52.000Z</time></trkpt>
<trkpt lat="41.723817" lon="23.500344"><ele>2727.1</ele><time>2026-03-15T12:18:53.000Z</time></trkpt>
<trkpt lat="41.72382" lon="23.500359"><ele>2727.1</ele><time>2026-03-15T12:18:54.000Z</time></trkpt>
<trkpt lat="41.723824" lon="23.500375"><ele>2727.1</ele><time>2026-03-15T12:18:55.000Z</time></trkpt>
<trkpt lat="41.723829" lon="23.500392"><ele>2727.1</ele><time>2026-03-15T12:18:56.000Z</time></trkpt>
<trkpt lat="41.723833" lon="23.50041"><ele>2725</ele><time>2026-03-15T12:18:57.000Z</time></trkpt>
<trkpt lat="41.723838" lon="23.500429"><ele>2725</ele><time>2026-03-15T12:18:58.000Z</time></trkpt>
<trkpt lat="41.723841" lon="23.50045"><ele>2725</ele><time>2026-03-15T12:18:59.000Z</time></trkpt>
<trkpt lat="41.723844" lon="23.50047"><ele>2725</ele><time>2026-03-15T12:19:00.000Z</time></trkpt>
<trkpt lat="41.723845" lon="23.500492"><ele>2725</ele><time>2026-03-15T12:19:01.000Z</time></trkpt>
<trkpt lat="41.723845" lon="23.500512"><ele>2724</ele><time>2026-03-15T12:19:02.000Z</time></trkpt>
<trkpt lat="41.723845" lon="23.500532"><ele>2724</ele><time>2026-03-15T12:19:03.000Z</time></trkpt>
<trkpt lat="41.723844" lon="23.500552"><ele>2724</ele><time>2026-03-15T12:19:04.000Z</time></trkpt>
<trkpt lat="41.723842" lon="23.500571"><ele>2724</ele><time>2026-03-15T12:19:05.000Z</time></trkpt>
<trkpt lat="41.723841" lon="23.50059"><ele>2724</ele><time>2026-03-15T12:19:06.000Z</time></trkpt>
<trkpt lat="41.72384" lon="23.50061"><ele>2721.8</ele><time>2026-03-15T12:19:07.000Z</time></trkpt>
<trkpt lat="41.72384" lon="23.500629"><ele>2721.8</ele><time>2026-03-15T12:19:08.000Z</time></trkpt>
<trkpt lat="41.723841" lon="23.500649"><ele>2721.8</ele><time>2026-03-15T12:19:09.000Z</time></trkpt>
<trkpt lat="41.723842" lon="23.500669"><ele>2721.8</ele><time>2026-03-15T12:19:10.000Z</time></trkpt>
<trkpt lat="41.723844" lon="23.500688"><ele>2721.8</ele><time>2026-03-15T12:19:11.000Z</time></trkpt>
<trkpt lat="41.723844" lon="23.500709"><ele>2719.8</ele><time>2026-03-15T12:19:12.000Z</time></trkpt>
<trkpt lat="41.723844" lon="23.50073"><ele>2719.8</ele><time>2026-03-15T12:19:13.000Z</time></trkpt>
<trkpt lat="41.723844" lon="23.500751"><ele>2719.8</ele><time>2026-03-15T12:19:14.000Z</time></trkpt>
<trkpt lat="41.723843" lon="23.500771"><ele>2719.8</ele><time>2026-03-15T12:19:15.000Z</time></trkpt>
<trkpt lat="41.723843" lon="23.500792"><ele>2719.8</ele><time>2026-03-15T12:19:16.000Z</time></trkpt>
<trkpt lat="41.723845" lon="23.500811"><ele>2718.9</ele><time>2026-03-15T12:19:17.000Z</time></trkpt>
<trkpt lat="41.723848" lon="23.50083"><ele>2718.9</ele><time>2026-03-15T12:19:18.000Z</time></trkpt>
<trkpt lat="41.72385" lon="23.500849"><ele>2718.9</ele><time>2026-03-15T12:19:19.000Z</time></trkpt>
<trkpt lat="41.723854" lon="23.500869"><ele>2718.9</ele><time>2026-03-15T12:19:20.000Z</time></trkpt>
<trkpt lat="41.723857" lon="23.50089"><ele>2718.9</ele><time>2026-03-15T12:19:21.000Z</time></trkpt>
<trkpt lat="41.723858" lon="23.500911"><ele>2717.2</ele><time>2026-03-15T12:19:22.000Z</time></trkpt>
<trkpt lat="41.723859" lon="23.500934"><ele>2717.2</ele><time>2026-03-15T12:19:23.000Z</time></trkpt>
<trkpt lat="41.723859" lon="23.500957"><ele>2717.2</ele><time>2026-03-15T12:19:24.000Z</time></trkpt>
<trkpt lat="41.723858" lon="23.500981"><ele>2717.2</ele><time>2026-03-15T12:19:25.000Z</time></trkpt>
<trkpt lat="41.723856" lon="23.501006"><ele>2717.2</ele><time>2026-03-15T12:19:26.000Z</time></trkpt>
<trkpt lat="41.723854" lon="23.50103"><ele>2715.6</ele><time>2026-03-15T12:19:27.000Z</time></trkpt>
<trkpt lat="41.723852" lon="23.501052"><ele>2715.6</ele><time>2026-03-15T12:19:28.000Z</time></trkpt>
<trkpt lat="41.72385" lon="23.501074"><ele>2715.6</ele><time>2026-03-15T12:19:29.000Z</time></trkpt>
<trkpt lat="41.72385" lon="23.501096"><ele>2715.6</ele><time>2026-03-15T12:19:30.000Z</time></trkpt>
<trkpt lat="41.723851" lon="23.501116"><ele>2715.6</ele><time>2026-03-15T12:19:31.000Z</time></trkpt>
<trkpt lat="41.723852" lon="23.501137"><ele>2714.8</ele><time>2026-03-15T12:19:32.000Z</time></trkpt>
<trkpt lat="41.723852" lon="23.501159"><ele>2714.8</ele><time>2026-03-15T12:19:33.000Z</time></trkpt>
<trkpt lat="41.723852" lon="23.501181"><ele>2714.8</ele><time>2026-03-15T12:19:34.000Z</time></trkpt>
<trkpt lat="41.723852" lon="23.501203"><ele>2714.8</ele><time>2026-03-15T12:19:35.000Z</time></trkpt>
<trkpt lat="41.723851" lon="23.501225"><ele>2714.8</ele><time>2026-03-15T12:19:36.000Z</time></trkpt>
<trkpt lat="41.723851" lon="23.501247"><ele>2713.3</ele><time>2026-03-15T12:19:37.000Z</time></trkpt>
<trkpt lat="41.723851" lon="23.501269"><ele>2713.3</ele><time>2026-03-15T12:19:38.000Z</time></trkpt>
<trkpt lat="41.72385" lon="23.501289"><ele>2713.3</ele><time>2026-03-15T12:19:39.000Z</time></trkpt>
<trkpt lat="41.72385" lon="23.501309"><ele>2713.3</ele><time>2026-03-15T12:19:40.000Z</time></trkpt>
<trkpt lat="41.72385" lon="23.501328"><ele>2713.3</ele><time>2026-03-15T12:19:41.000Z</time></trkpt>
<trkpt lat="41.723851" lon="23.501347"><ele>2711.9</ele><time>2026-03-15T12:19:42.000Z</time></trkpt>
<trkpt lat="41.723852" lon="23.501365"><ele>2711.9</ele><time>2026-03-15T12:19:43.000Z</time></trkpt>
<trkpt lat="41.723854" lon="23.501384"><ele>2711.9</ele><time>2026-03-15T12:19:44.000Z</time></trkpt>
<trkpt lat="41.723857" lon="23.501403"><ele>2711.9</ele><time>2026-03-15T12:19:45.000Z</time></trkpt>
<trkpt lat="41.723861" lon="23.501421"><ele>2711.9</ele><time>2026-03-15T12:19:46.000Z</time></trkpt>
<trkpt lat="41.723866" lon="23.501439"><ele>2711.2</ele><time>2026-03-15T12:19:47.000Z</time></trkpt>
<trkpt lat="41.723873" lon="23.501457"><ele>2711.2</ele><time>2026-03-15T12:19:48.000Z</time></trkpt>
<trkpt lat="41.72388" lon="23.501474"><ele>2711.2</ele><time>2026-03-15T12:19:49.000Z</time></trkpt>
<trkpt lat="41.723887" lon="23.501492"><ele>2711.2</ele><time>2026-03-15T12:19:50.000Z</time></trkpt>
<trkpt lat="41.723892" lon="23.501511"><ele>2711.2</ele><time>2026-03-15T12:19:51.000Z</time></trkpt>
<trkpt lat="41.723896" lon="23.501531"><ele>2709.8</ele><time>2026-03-15T12:19:52.000Z</time></trkpt>
<trkpt lat="41.7239" lon="23.501552"><ele>2709.8</ele><time>2026-03-15T12:19:53.000Z</time></trkpt>
<trkpt lat="41.723904" lon="23.501573"><ele>2709.8</ele><time>2026-03-15T12:19:54.000Z</time></trkpt>
<trkpt lat="41.723908" lon="23.501593"><ele>2709.8</ele><time>2026-03-15T12:19:55.000Z</time></trkpt>
<trkpt lat="41.723912" lon="23.501612"><ele>2709.8</ele><time>2026-03-15T12:19:56.000Z</time></trkpt>
<trkpt lat="41.723918" lon="23.501631"><ele>2708.3</ele><time>2026-03-15T12:19:57.000Z</time></trkpt>
<trkpt lat="41.723921" lon="23.501649"><ele>2708.3</ele><time>2026-03-15T12:19:58.000Z</time></trkpt>
<trkpt lat="41.723924" lon="23.501668"><ele>2708.3</ele><time>2026-03-15T12:19:59.000Z</time></trkpt>
<trkpt lat="41.723927" lon="23.501686"><ele>2708.3</ele><time>2026-03-15T12:20:00.000Z</time></trkpt>
<trkpt lat="41.723931" lon="23.501703"><ele>2708.3</ele><time>2026-03-15T12:20:01.000Z</time></trkpt>
<trkpt lat="41.723935" lon="23.50172"><ele>2707.7</ele><time>2026-03-15T12:20:02.000Z</time></trkpt>
<trkpt lat="41.72394" lon="23.501736"><ele>2707.7</ele><time>2026-03-15T12:20:03.000Z</time></trkpt>
<trkpt lat="41.723946" lon="23.501751"><ele>2707.7</ele><time>2026-03-15T12:20:04.000Z</time></trkpt>
<trkpt lat="41.723952" lon="23.501766"><ele>2707.7</ele><time>2026-03-15T12:20:05.000Z</time></trkpt>
<trkpt lat="41.723956" lon="23.501781"><ele>2707.7</ele><time>2026-03-15T12:20:06.000Z</time></trkpt>
<trkpt lat="41.72396" lon="23.501794"><ele>2706.5</ele><time>2026-03-15T12:20:07.000Z</time></trkpt>
<trkpt lat="41.723963" lon="23.501808"><ele>2706.5</ele><time>2026-03-15T12:20:08.000Z</time></trkpt>
<trkpt lat="41.723966" lon="23.501822"><ele>2706.5</ele><time>2026-03-15T12:20:09.000Z</time></trkpt>
<trkpt lat="41.723968" lon="23.501837"><ele>2706.5</ele><time>2026-03-15T12:20:10.000Z</time></trkpt>
<trkpt lat="41.723971" lon="23.501851"><ele>2706.5</ele><time>2026-03-15T12:20:11.000Z</time></trkpt>
<trkpt lat="41.723972" lon="23.501865"><ele>2706</ele><time>2026-03-15T12:20:12.000Z</time></trkpt>
<trkpt lat="41.723973" lon="23.501879"><ele>2706</ele><time>2026-03-15T12:20:13.000Z</time></trkpt>
<trkpt lat="41.723973" lon="23.501894"><ele>2706</ele><time>2026-03-15T12:20:14.000Z</time></trkpt>
<trkpt lat="41.723972" lon="23.501909"><ele>2706</ele><time>2026-03-15T12:20:15.000Z</time></trkpt>
<trkpt lat="41.723971" lon="23.501924"><ele>2706</ele><time>2026-03-15T12:20:16.000Z</time></trkpt>
<trkpt lat="41.72397" lon="23.50194"><ele>2706.1</ele><time>2026-03-15T12:20:17.000Z</time></trkpt>
<trkpt lat="41.72397" lon="23.501956"><ele>2706.1</ele><time>2026-03-15T12:20:18.000Z</time></trkpt>
<trkpt lat="41.723971" lon="23.501971"><ele>2706.1</ele><time>2026-03-15T12:20:19.000Z</time></trkpt>
<trkpt lat="41.723971" lon="23.501986"><ele>2706.1</ele><time>2026-03-15T12:20:20.000Z</time></trkpt>
<trkpt lat="41.723972" lon="23.502001"><ele>2706.1</ele><time>2026-03-15T12:20:21.000Z</time></trkpt>
<trkpt lat="41.723973" lon="23.502015"><ele>2706.8</ele><time>2026-03-15T12:20:22.000Z</time></trkpt>
<trkpt lat="41.723973" lon="23.502029"><ele>2706.8</ele><time>2026-03-15T12:20:23.000Z</time></trkpt>
<trkpt lat="41.723975" lon="23.502043"><ele>2706.8</ele><time>2026-03-15T12:20:24.000Z</time></trkpt>
<trkpt lat="41.723978" lon="23.502056"><ele>2706.8</ele><time>2026-03-15T12:20:25.000Z</time></trkpt>
<trkpt lat="41.723982" lon="23.502071"><ele>2706.8</ele><time>2026-03-15T12:20:26.000Z</time></trkpt>
<trkpt lat="41.723986" lon="23.502087"><ele>2707.3</ele><time>2026-03-15T12:20:27.000Z</time></trkpt>
<trkpt lat="41.723989" lon="23.502105"><ele>2707.3</ele><time>2026-03-15T12:20:28.000Z</time></trkpt>
<trkpt lat="41.723992" lon="23.502122"><ele>2707.3</ele><time>2026-03-15T12:20:29.000Z</time></trkpt>
<trkpt lat="41.723994" lon="23.502139"><ele>2707.3</ele><time>2026-03-15T12:20:30.000Z</time></trkpt>
<trkpt lat="41.723996" lon="23.502156"><ele>2707.3</ele><time>2026-03-15T12:20:31.000Z</time></trkpt>
<trkpt lat="41.723998" lon="23.502171"><ele>2707.4</ele><time>2026-03-15T12:20:32.000Z</time></trkpt>
<trkpt lat="41.724" lon="23.502186"><ele>2707.4</ele><time>2026-03-15T12:20:33.000Z</time></trkpt>
<trkpt lat="41.724003" lon="23.5022"><ele>2707.4</ele><time>2026-03-15T12:20:34.000Z</time></trkpt>
<trkpt lat="41.724006" lon="23.502216"><ele>2707.4</ele><time>2026-03-15T12:20:35.000Z</time></trkpt>
<trkpt lat="41.724009" lon="23.502232"><ele>2707.4</ele><time>2026-03-15T12:20:36.000Z</time></trkpt>
<trkpt lat="41.724012" lon="23.502249"><ele>2707.3</ele><time>2026-03-15T12:20:37.000Z</time></trkpt>
<trkpt lat="41.724016" lon="23.502267"><ele>2707.3</ele><time>2026-03-15T12:20:38.000Z</time></trkpt>
<trkpt lat="41.72402" lon="23.502287"><ele>2707.3</ele><time>2026-03-15T12:20:39.000Z</time></trkpt>
<trkpt lat="41.724024" lon="23.502306"><ele>2707.3</ele><time>2026-03-15T12:20:40.000Z</time></trkpt>
<trkpt lat="41.724028" lon="23.502324"><ele>2707.3</ele><time>2026-03-15T12:20:41.000Z</time></trkpt>
<trkpt lat="41.724031" lon="23.502343"><ele>2706.8</ele><time>2026-03-15T12:20:42.000Z</time></trkpt>
<trkpt lat="41.724034" lon="23.502359"><ele>2706.8</ele><time>2026-03-15T12:20:43.000Z</time></trkpt>
<trkpt lat="41.724037" lon="23.502375"><ele>2706.8</ele><time>2026-03-15T12:20:44.000Z</time></trkpt>
<trkpt lat="41.724041" lon="23.50239"><ele>2706.8</ele><time>2026-03-15T12:20:45.000Z</time></trkpt>
<trkpt lat="41.724045" lon="23.502405"><ele>2706.8</ele><time>2026-03-15T12:20:46.000Z</time></trkpt>
<trkpt lat="41.724049" lon="23.50242"><ele>2706.3</ele><time>2026-03-15T12:20:47.000Z</time></trkpt>
<trkpt lat="41.724051" lon="23.502436"><ele>2706.3</ele><time>2026-03-15T12:20:48.000Z</time></trkpt>
<trkpt lat="41.724053" lon="23.502451"><ele>2706.3</ele><time>2026-03-15T12:20:49.000Z</time></trkpt>
<trkpt lat="41.724053" lon="23.502468"><ele>2706.3</ele><time>2026-03-15T12:20:50.000Z</time></trkpt>
<trkpt lat="41.724052" lon="23.502484"><ele>2706.3</ele><time>2026-03-15T12:20:51.000Z</time></trkpt>
<trkpt lat="41.724049" lon="23.502499"><ele>2705.2</ele><time>2026-03-15T12:20:52.000Z</time></trkpt>
<trkpt lat="41.724046" lon="23.502516"><ele>2705.2</ele><time>2026-03-15T12:20:53.000Z</time></trkpt>
<trkpt lat="41.724042" lon="23.502533"><ele>2705.2</ele><time>2026-03-15T12:20:54.000Z</time></trkpt>
<trkpt lat="41.724038" lon="23.502551"><ele>2705.2</ele><time>2026-03-15T12:20:55.000Z</time></trkpt>
<trkpt lat="41.724034" lon="23.50257"><ele>2705.2</ele><time>2026-03-15T12:20:56.000Z</time></trkpt>
<trkpt lat="41.724032" lon="23.502591"><ele>2704.1</ele><time>2026-03-15T12:20:57.000Z</time></trkpt>
<trkpt lat="41.72403" lon="23.502612"><ele>2704.1</ele><time>2026-03-15T12:20:58.000Z</time></trkpt>
<trkpt lat="41.72403" lon="23.502632"><ele>2704.1</ele><time>2026-03-15T12:20:59.000Z</time></trkpt>
<trkpt lat="41.724031" lon="23.502651"><ele>2704.1</ele><time>2026-03-15T12:21:00.000Z</time></trkpt>
<trkpt lat="41.724034" lon="23.50267"><ele>2704.1</ele><time>2026-03-15T12:21:01.000Z</time></trkpt>
<trkpt lat="41.724037" lon="23.502687"><ele>2703.6</ele><time>2026-03-15T12:21:02.000Z</time></trkpt>
<trkpt lat="41.724041" lon="23.502704"><ele>2703.6</ele><time>2026-03-15T12:21:03.000Z</time></trkpt>
<trkpt lat="41.724045" lon="23.502721"><ele>2703.6</ele><time>2026-03-15T12:21:04.000Z</time></trkpt>
<trkpt lat="41.724049" lon="23.502736"><ele>2703.6</ele><time>2026-03-15T12:21:05.000Z</time></trkpt>
<trkpt lat="41.724052" lon="23.502752"><ele>2703.6</ele><time>2026-03-15T12:21:06.000Z</time></trkpt>
<trkpt lat="41.724052" lon="23.502768"><ele>2702.1</ele><time>2026-03-15T12:21:07.000Z</time></trkpt>
<trkpt lat="41.724052" lon="23.502784"><ele>2702.1</ele><time>2026-03-15T12:21:08.000Z</time></trkpt>
<trkpt lat="41.724049" lon="23.502802"><ele>2702.1</ele><time>2026-03-15T12:21:09.000Z</time></trkpt>
<trkpt lat="41.724046" lon="23.50282"><ele>2702.1</ele><time>2026-03-15T12:21:10.000Z</time></trkpt>
<trkpt lat="41.724043" lon="23.502838"><ele>2702.1</ele><time>2026-03-15T12:21:11.000Z</time></trkpt>
<trkpt lat="41.724041" lon="23.502855"><ele>2700.5</ele><time>2026-03-15T12:21:12.000Z</time></trkpt>
<trkpt lat="41.72404" lon="23.502873"><ele>2700.5</ele><time>2026-03-15T12:21:13.000Z</time></trkpt>
<trkpt lat="41.72404" lon="23.502891"><ele>2700.5</ele><time>2026-03-15T12:21:14.000Z</time></trkpt>
<trkpt lat="41.724041" lon="23.502909"><ele>2700.5</ele><time>2026-03-15T12:21:15.000Z</time></trkpt>
<trkpt lat="41.724041" lon="23.502927"><ele>2700.5</ele><time>2026-03-15T12:21:16.000Z</time></trkpt>
<trkpt lat="41.724043" lon="23.502947"><ele>2699.7</ele><time>2026-03-15T12:21:17.000Z</time></trkpt>
<trkpt lat="41.724045" lon="23.502967"><ele>2699.7</ele><time>2026-03-15T12:21:18.000Z</time></trkpt>
<trkpt lat="41.724048" lon="23.502988"><ele>2699.7</ele><time>2026-03-15T12:21:19.000Z</time></trkpt>
<trkpt lat="41.724052" lon="23.503009"><ele>2699.7</ele><time>2026-03-15T12:21:20.000Z</time></trkpt>
<trkpt lat="41.724057" lon="23.503029"><ele>2699.7</ele><time>2026-03-15T12:21:21.000Z</time></trkpt>
<trkpt lat="41.724062" lon="23.503048"><ele>2698.2</ele><time>2026-03-15T12:21:22.000Z</time></trkpt>
<trkpt lat="41.724066" lon="23.503065"><ele>2698.2</ele><time>2026-03-15T12:21:23.000Z</time></trkpt>
<trkpt lat="41.72407" lon="23.503081"><ele>2698.2</ele><time>2026-03-15T12:21:24.000Z</time></trkpt>
<trkpt lat="41.724075" lon="23.503096"><ele>2698.2</ele><time>2026-03-15T12:21:25.000Z</time></trkpt>
<trkpt lat="41.724079" lon="23.503109"><ele>2698.2</ele><time>2026-03-15T12:21:26.000Z</time></trkpt>
<trkpt lat="41.724082" lon="23.503123"><ele>2696.4</ele><time>2026-03-15T12:21:27.000Z</time></trkpt>
<trkpt lat="41.724086" lon="23.503137"><ele>2696.4</ele><time>2026-03-15T12:21:28.000Z</time></trkpt>
<trkpt lat="41.724089" lon="23.503153"><ele>2696.4</ele><time>2026-03-15T12:21:29.000Z</time></trkpt>
<trkpt lat="41.724092" lon="23.503169"><ele>2696.4</ele><time>2026-03-15T12:21:30.000Z</time></trkpt>
<trkpt lat="41.724095" lon="23.503185"><ele>2696.4</ele><time>2026-03-15T12:21:31.000Z</time></trkpt>
<trkpt lat="41.724098" lon="23.503203"><ele>2695.3</ele><time>2026-03-15T12:21:32.000Z</time></trkpt>
<trkpt lat="41.7241" lon="23.50322"><ele>2695.3</ele><time>2026-03-15T12:21:33.000Z</time></trkpt>
<trkpt lat="41.724101" lon="23.503235"><ele>2695.3</ele><time>2026-03-15T12:21:34.000Z</time></trkpt>
<trkpt lat="41.724101" lon="23.503251"><ele>2695.3</ele><time>2026-03-15T12:21:35.000Z</time></trkpt>
<trkpt lat="41.7241" lon="23.503266"><ele>2695.3</ele><time>2026-03-15T12:21:36.000Z</time></trkpt>
<trkpt lat="41.724097" lon="23.503281"><ele>2693.2</ele><time>2026-03-15T12:21:37.000Z</time></trkpt>
<trkpt lat="41.724094" lon="23.503296"><ele>2693.2</ele><time>2026-03-15T12:21:38.000Z</time></trkpt>
<trkpt lat="41.724091" lon="23.503309"><ele>2693.2</ele><time>2026-03-15T12:21:39.000Z</time></trkpt>
<trkpt lat="41.724087" lon="23.50332"><ele>2693.2</ele><time>2026-03-15T12:21:40.000Z</time></trkpt>
<trkpt lat="41.724083" lon="23.503331"><ele>2693.2</ele><time>2026-03-15T12:21:41.000Z</time></trkpt>
<trkpt lat="41.72408" lon="23.50334"><ele>2691.2</ele><time>2026-03-15T12:21:42.000Z</time></trkpt>
<trkpt lat="41.724076" lon="23.503349"><ele>2691.2</ele><time>2026-03-15T12:21:43.000Z</time></trkpt>
<trkpt lat="41.724072" lon="23.503359"><ele>2691.2</ele><time>2026-03-15T12:21:44.000Z</time></trkpt>
<trkpt lat="41.724069" lon="23.503369"><ele>2691.2</ele><time>2026-03-15T12:21:45.000Z</time></trkpt>
<trkpt lat="41.724066" lon="23.50338"><ele>2691.2</ele><time>2026-03-15T12:21:46.000Z</time></trkpt>
<trkpt lat="41.724062" lon="23.503392"><ele>2690.2</ele><time>2026-03-15T12:21:47.000Z</time></trkpt>
<trkpt lat="41.724059" lon="23.503403"><ele>2690.2</ele><time>2026-03-15T12:21:48.000Z</time></trkpt>
<trkpt lat="41.724056" lon="23.503415"><ele>2690.2</ele><time>2026-03-15T12:21:49.000Z</time></trkpt>
<trkpt lat="41.724053" lon="23.503428"><ele>2690.2</ele><time>2026-03-15T12:21:50.000Z</time></trkpt>
<trkpt lat="41.724049" lon="23.503441"><ele>2690.2</ele><time>2026-03-15T12:21:51.000Z</time></trkpt>
<trkpt lat="41.724046" lon="23.503454"><ele>2688.1</ele><time>2026-03-15T12:21:52.000Z</time></trkpt>
<trkpt lat="41.724043" lon="23.503467"><ele>2688.1</ele><time>2026-03-15T12:21:53.000Z</time></trkpt>
<trkpt lat="41.724041" lon="23.50348"><ele>2688.1</ele><time>2026-03-15T12:21:54.000Z</time></trkpt>
<trkpt lat="41.724041" lon="23.503493"><ele>2688.1</ele><time>2026-03-15T12:21:55.000Z</time></trkpt>
<trkpt lat="41.724042" lon="23.503505"><ele>2688.1</ele><time>2026-03-15T12:21:56.000Z</time></trkpt>
<trkpt lat="41.724043" lon="23.503518"><ele>2685.9</ele><time>2026-03-15T12:21:57.000Z</time></trkpt>
<trkpt lat="41.724045" lon="23.50353"><ele>2685.9</ele><time>2026-03-15T12:21:58.000Z</time></trkpt>
<trkpt lat="41.724048" lon="23.503543"><ele>2685.9</ele><time>2026-03-15T12:21:59.000Z</time></trkpt>
<trkpt lat="41.724051" lon="23.503555"><ele>2685.9</ele><time>2026-03-15T12:22:00.000Z</time></trkpt>
<trkpt lat="41.724053" lon="23.503568"><ele>2685.9</ele><time>2026-03-15T12:22:01.000Z</time></trkpt>
<trkpt lat="41.724054" lon="23.503582"><ele>2684.6</ele><time>2026-03-15T12:22:02.000Z</time></trkpt>
<trkpt lat="41.724056" lon="23.503597"><ele>2684.6</ele><time>2026-03-15T12:22:03.000Z</time></trkpt>
<trkpt lat="41.724057" lon="23.503613"><ele>2684.6</ele><time>2026-03-15T12:22:04.000Z</time></trkpt>
<trkpt lat="41.724059" lon="23.503629"><ele>2684.6</ele><time>2026-03-15T12:22:05.000Z</time></trkpt>
<trkpt lat="41.724061" lon="23.503646"><ele>2684.6</ele><time>2026-03-15T12:22:06.000Z</time></trkpt>
<trkpt lat="41.724065" lon="23.503664"><ele>2682.1</ele><time>2026-03-15T12:22:07.000Z</time></trkpt>
<trkpt lat="41.72407" lon="23.503681"><ele>2682.1</ele><time>2026-03-15T12:22:08.000Z</time></trkpt>
<trkpt lat="41.724075" lon="23.503698"><ele>2682.1</ele><time>2026-03-15T12:22:09.000Z</time></trkpt>
<trkpt lat="41.72408" lon="23.503715"><ele>2682.1</ele><time>2026-03-15T12:22:10.000Z</time></trkpt>
<trkpt lat="41.724086" lon="23.503735"><ele>2682.1</ele><time>2026-03-15T12:22:11.000Z</time></trkpt>
<trkpt lat="41.72409" lon="23.503754"><ele>2679.3</ele><time>2026-03-15T12:22:12.000Z</time></trkpt>
<trkpt lat="41.724094" lon="23.503773"><ele>2679.3</ele><time>2026-03-15T12:22:13.000Z</time></trkpt>
<trkpt lat="41.724097" lon="23.503793"><ele>2679.3</ele><time>2026-03-15T12:22:14.000Z</time></trkpt>
<trkpt lat="41.724101" lon="23.503811"><ele>2679.3</ele><time>2026-03-15T12:22:15.000Z</time></trkpt>
<trkpt lat="41.724104" lon="23.503828"><ele>2679.3</ele><time>2026-03-15T12:22:16.000Z</time></trkpt>
<trkpt lat="41.724107" lon="23.503846"><ele>2677.9</ele><time>2026-03-15T12:22:17.000Z</time></trkpt>
<trkpt lat="41.724111" lon="23.503865"><ele>2677.9</ele><time>2026-03-15T12:22:18.000Z</time></trkpt>
<trkpt lat="41.724113" lon="23.503885"><ele>2677.9</ele><time>2026-03-15T12:22:19.000Z</time></trkpt>
<trkpt lat="41.724113" lon="23.503907"><ele>2677.9</ele><time>2026-03-15T12:22:20.000Z</time></trkpt>
<trkpt lat="41.72411" lon="23.503929"><ele>2677.9</ele><time>2026-03-15T12:22:21.000Z</time></trkpt>
<trkpt lat="41.724106" lon="23.503951"><ele>2675.1</ele><time>2026-03-15T12:22:22.000Z</time></trkpt>
<trkpt lat="41.724101" lon="23.503974"><ele>2675.1</ele><time>2026-03-15T12:22:23.000Z</time></trkpt>
<trkpt lat="41.724096" lon="23.503996"><ele>2675.1</ele><time>2026-03-15T12:22:24.000Z</time></trkpt>
<trkpt lat="41.724091" lon="23.504018"><ele>2675.1</ele><time>2026-03-15T12:22:25.000Z</time></trkpt>
<trkpt lat="41.724086" lon="23.504038"><ele>2675.1</ele><time>2026-03-15T12:22:26.000Z</time></trkpt>
<trkpt lat="41.724081" lon="23.504058"><ele>2672.5</ele><time>2026-03-15T12:22:27.000Z</time></trkpt>
<trkpt lat="41.724076" lon="23.504077"><ele>2672.5</ele><time>2026-03-15T12:22:28.000Z</time></trkpt>
<trkpt lat="41.724072" lon="23.504094"><ele>2672.5</ele><time>2026-03-15T12:22:29.000Z</time></trkpt>
<trkpt lat="41.724069" lon="23.504111"><ele>2672.5</ele><time>2026-03-15T12:22:30.000Z</time></trkpt>
<trkpt lat="41.724066" lon="23.504128"><ele>2672.5</ele><time>2026-03-15T12:22:31.000Z</time></trkpt>
<trkpt lat="41.724064" lon="23.504144"><ele>2671.3</ele><time>2026-03-15T12:22:32.000Z</time></trkpt>
<trkpt lat="41.724061" lon="23.504162"><ele>2671.3</ele><time>2026-03-15T12:22:33.000Z</time></trkpt>
<trkpt lat="41.724057" lon="23.504183"><ele>2671.3</ele><time>2026-03-15T12:22:34.000Z</time></trkpt>
<trkpt lat="41.724052" lon="23.504204"><ele>2671.3</ele><time>2026-03-15T12:22:35.000Z</time></trkpt>
<trkpt lat="41.724049" lon="23.504223"><ele>2671.3</ele><time>2026-03-15T12:22:36.000Z</time></trkpt>
<trkpt lat="41.724046" lon="23.504243"><ele>2669.1</ele><time>2026-03-15T12:22:37.000Z</time></trkpt>
<trkpt lat="41.724044" lon="23.504261"><ele>2669.1</ele><time>2026-03-15T12:22:38.000Z</time></trkpt>
<trkpt lat="41.724043" lon="23.504279"><ele>2669.1</ele><time>2026-03-15T12:22:39.000Z</time></trkpt>
<trkpt lat="41.724042" lon="23.504296"><ele>2669.1</ele><time>2026-03-15T12:22:40.000Z</time></trkpt>
<trkpt lat="41.724038" lon="23.504314"><ele>2669.1</ele><time>2026-03-15T12:22:41.000Z</time></trkpt>
<trkpt lat="41.724035" lon="23.50433"><ele>2666.7</ele><time>2026-03-15T12:22:42.000Z</time></trkpt>
<trkpt lat="41.724031" lon="23.504345"><ele>2666.7</ele><time>2026-03-15T12:22:43.000Z</time></trkpt>
<trkpt lat="41.724027" lon="23.504359"><ele>2666.7</ele><time>2026-03-15T12:22:44.000Z</time></trkpt>
<trkpt lat="41.724025" lon="23.504372"><ele>2666.7</ele><time>2026-03-15T12:22:45.000Z</time></trkpt>
<trkpt lat="41.724023" lon="23.504384"><ele>2666.7</ele><time>2026-03-15T12:22:46.000Z</time></trkpt>
<trkpt lat="41.724022" lon="23.504398"><ele>2665.5</ele><time>2026-03-15T12:22:47.000Z</time></trkpt>
<trkpt lat="41.724021" lon="23.504412"><ele>2665.5</ele><time>2026-03-15T12:22:48.000Z</time></trkpt>
<trkpt lat="41.724022" lon="23.504427"><ele>2665.5</ele><time>2026-03-15T12:22:49.000Z</time></trkpt>
<trkpt lat="41.724022" lon="23.504443"><ele>2665.5</ele><time>2026-03-15T12:22:50.000Z</time></trkpt>
<trkpt lat="41.724022" lon="23.504461"><ele>2665.5</ele><time>2026-03-15T12:22:51.000Z</time></trkpt>
<trkpt lat="41.724022" lon="23.504479"><ele>2663</ele><time>2026-03-15T12:22:52.000Z</time></trkpt>
<trkpt lat="41.724022" lon="23.5045"><ele>2663</ele><time>2026-03-15T12:22:53.000Z</time></trkpt>
<trkpt lat="41.724021" lon="23.504522"><ele>2663</ele><time>2026-03-15T12:22:54.000Z</time></trkpt>
<trkpt lat="41.724019" lon="23.504547"><ele>2663</ele><time>2026-03-15T12:22:55.000Z</time></trkpt>
<trkpt lat="41.724018" lon="23.504573"><ele>2663</ele><time>2026-03-15T12:22:56.000Z</time></trkpt>
<trkpt lat="41.724016" lon="23.504597"><ele>2660.4</ele><time>2026-03-15T12:22:57.000Z</time></trkpt>
<trkpt lat="41.724013" lon="23.504622"><ele>2660.4</ele><time>2026-03-15T12:22:58.000Z</time></trkpt>
<trkpt lat="41.724011" lon="23.504648"><ele>2660.4</ele><time>2026-03-15T12:22:59.000Z</time></trkpt>
<trkpt lat="41.724009" lon="23.504672"><ele>2660.4</ele><time>2026-03-15T12:23:00.000Z</time></trkpt>
<trkpt lat="41.724006" lon="23.504696"><ele>2660.4</ele><time>2026-03-15T12:23:01.000Z</time></trkpt>
<trkpt lat="41.724003" lon="23.504719"><ele>2658.9</ele><time>2026-03-15T12:23:02.000Z</time></trkpt>
<trkpt lat="41.724" lon="23.50474"><ele>2658.9</ele><time>2026-03-15T12:23:03.000Z</time></trkpt>
<trkpt lat="41.723997" lon="23.504759"><ele>2658.9</ele><time>2026-03-15T12:23:04.000Z</time></trkpt>
<trkpt lat="41.723993" lon="23.504775"><ele>2658.9</ele><time>2026-03-15T12:23:05.000Z</time></trkpt>
<trkpt lat="41.723988" lon="23.50479"><ele>2658.9</ele><time>2026-03-15T12:23:06.000Z</time></trkpt>
<trkpt lat="41.723983" lon="23.504804"><ele>2656.1</ele><time>2026-03-15T12:23:07.000Z</time></trkpt>
<trkpt lat="41.723978" lon="23.504817"><ele>2656.1</ele><time>2026-03-15T12:23:08.000Z</time></trkpt>
<trkpt lat="41.723975" lon="23.50483"><ele>2656.1</ele><time>2026-03-15T12:23:09.000Z</time></trkpt>
<trkpt lat="41.723972" lon="23.504843"><ele>2656.1</ele><time>2026-03-15T12:23:10.000Z</time></trkpt>
<trkpt lat="41.723971" lon="23.504859"><ele>2656.1</ele><time>2026-03-15T12:23:11.000Z</time></trkpt>
<trkpt lat="41.72397" lon="23.504876"><ele>2653.3</ele><time>2026-03-15T12:23:12.000Z</time></trkpt>
<trkpt lat="41.723968" lon="23.504893"><ele>2653.3</ele><time>2026-03-15T12:23:13.000Z</time></trkpt>
<trkpt lat="41.723965" lon="23.504909"><ele>2653.3</ele><time>2026-03-15T12:23:14.000Z</time></trkpt>
<trkpt lat="41.723963" lon="23.504925"><ele>2653.3</ele><time>2026-03-15T12:23:15.000Z</time></trkpt>
<trkpt lat="41.723961" lon="23.504939"><ele>2653.3</ele><time>2026-03-15T12:23:16.000Z</time></trkpt>
<trkpt lat="41.723958" lon="23.504952"><ele>2652</ele><time>2026-03-15T12:23:17.000Z</time></trkpt>
<trkpt lat="41.723956" lon="23.504965"><ele>2652</ele><time>2026-03-15T12:23:18.000Z</time></trkpt>
<trkpt lat="41.723953" lon="23.504977"><ele>2652</ele><time>2026-03-15T12:23:19.000Z</time></trkpt>
<trkpt lat="41.723949" lon="23.504989"><ele>2652</ele><time>2026-03-15T12:23:20.000Z</time></trkpt>
<trkpt lat="41.723946" lon="23.505"><ele>2652</ele><time>2026-03-15T12:23:21.000Z</time></trkpt>
<trkpt lat="41.723945" lon="23.50501"><ele>2649.5</ele><time>2026-03-15T12:23:22.000Z</time></trkpt>
<trkpt lat="41.723945" lon="23.50502"><ele>2649.5</ele><time>2026-03-15T12:23:23.000Z</time></trkpt>
<trkpt lat="41.723946" lon="23.505031"><ele>2649.5</ele><time>2026-03-15T12:23:24.000Z</time></trkpt>
<trkpt lat="41.723947" lon="23.505041"><ele>2649.5</ele><time>2026-03-15T12:23:25.000Z</time></trkpt>
<trkpt lat="41.723951" lon="23.505052"><ele>2649.5</ele><time>2026-03-15T12:23:26.000Z</time></trkpt>
<trkpt lat="41.723954" lon="23.505064"><ele>2647.1</ele><time>2026-03-15T12:23:27.000Z</time></trkpt>
<trkpt lat="41.723956" lon="23.505078"><ele>2647.1</ele><time>2026-03-15T12:23:28.000Z</time></trkpt>
<trkpt lat="41.723957" lon="23.505092"><ele>2647.1</ele><time>2026-03-15T12:23:29.000Z</time></trkpt>
<trkpt lat="41.723956" lon="23.505106"><ele>2647.1</ele><time>2026-03-15T12:23:30.000Z</time></trkpt>
<trkpt lat="41.723954" lon="23.505119"><ele>2647.1</ele><time>2026-03-15T12:23:31.000Z</time></trkpt>
<trkpt lat="41.723949" lon="23.505131"><ele>2645.9</ele><time>2026-03-15T12:23:32.000Z</time></trkpt>
<trkpt lat="41.723945" lon="23.505144"><ele>2645.9</ele><time>2026-03-15T12:23:33.000Z</time></trkpt>
<trkpt lat="41.723941" lon="23.505156"><ele>2645.9</ele><time>2026-03-15T12:23:34.000Z</time></trkpt>
<trkpt lat="41.723937" lon="23.505169"><ele>2645.9</ele><time>2026-03-15T12:23:35.000Z</time></trkpt>
<trkpt lat="41.723935" lon="23.505183"><ele>2645.9</ele><time>2026-03-15T12:23:36.000Z</time></trkpt>
<trkpt lat="41.723932" lon="23.505197"><ele>2643.7</ele><time>2026-03-15T12:23:37.000Z</time></trkpt>
<trkpt lat="41.723928" lon="23.50521"><ele>2643.7</ele><time>2026-03-15T12:23:38.000Z</time></trkpt>
<trkpt lat="41.723924" lon="23.505225"><ele>2643.7</ele><time>2026-03-15T12:23:39.000Z</time></trkpt>
<trkpt lat="41.72392" lon="23.505238"><ele>2643.7</ele><time>2026-03-15T12:23:40.000Z</time></trkpt>
<trkpt lat="41.723915" lon="23.505253"><ele>2643.7</ele><time>2026-03-15T12:23:41.000Z</time></trkpt>
<trkpt lat="41.723912" lon="23.505267"><ele>2641.4</ele><time>2026-03-15T12:23:42.000Z</time></trkpt>
<trkpt lat="41.72391" lon="23.50528"><ele>2641.4</ele><time>2026-03-15T12:23:43.000Z</time></trkpt>
<trkpt lat="41.723908" lon="23.505291"><ele>2641.4</ele><time>2026-03-15T12:23:44.000Z</time></trkpt>
<trkpt lat="41.723909" lon="23.505302"><ele>2641.4</ele><time>2026-03-15T12:23:45.000Z</time></trkpt>
<trkpt lat="41.72391" lon="23.505311"><ele>2641.4</ele><time>2026-03-15T12:23:46.000Z</time></trkpt>
<trkpt lat="41.72391" lon="23.505322"><ele>2640.2</ele><time>2026-03-15T12:23:47.000Z</time></trkpt>
<trkpt lat="41.723912" lon="23.505334"><ele>2640.2</ele><time>2026-03-15T12:23:48.000Z</time></trkpt>
<trkpt lat="41.723915" lon="23.505346"><ele>2640.2</ele><time>2026-03-15T12:23:49.000Z</time></trkpt>
<trkpt lat="41.723917" lon="23.505361"><ele>2640.2</ele><time>2026-03-15T12:23:50.000Z</time></trkpt>
<trkpt lat="41.723918" lon="23.505376"><ele>2640.2</ele><time>2026-03-15T12:23:51.000Z</time></trkpt>
<trkpt lat="41.723921" lon="23.505391"><ele>2637.9</ele><time>2026-03-15T12:23:52.000Z</time></trkpt>
<trkpt lat="41.723923" lon="23.505407"><ele>2637.9</ele><time>2026-03-15T12:23:53.000Z</time></trkpt>
<trkpt lat="41.723923" lon="23.505422"><ele>2637.9</ele><time>2026-03-15T12:23:54.000Z</time></trkpt>
<trkpt lat="41.723924" lon="23.505436"><ele>2637.9</ele><time>2026-03-15T12:23:55.000Z</time></trkpt>
<trkpt lat="41.723925" lon="23.505448"><ele>2637.9</ele><time>2026-03-15T12:23:56.000Z</time></trkpt>
<trkpt lat="41.723925" lon="23.505458"><ele>2635.7</ele><time>2026-03-15T12:23:57.000Z</time></trkpt>
<trkpt lat="41.723924" lon="23.505469"><ele>2635.7</ele><time>2026-03-15T12:23:58.000Z</time></trkpt>
<trkpt lat="41.723923" lon="23.50548"><ele>2635.7</ele><time>2026-03-15T12:23:59.000Z</time></trkpt>
<trkpt lat="41.72392" lon="23.505487"><ele>2635.7</ele><time>2026-03-15T12:24:00.000Z</time></trkpt>
<trkpt lat="41.723916" lon="23.505495"><ele>2635.7</ele><time>2026-03-15T12:24:01.000Z</time></trkpt>
<trkpt lat="41.72391" lon="23.505504"><ele>2634.7</ele><time>2026-03-15T12:24:02.000Z</time></trkpt>
<trkpt lat="41.723905" lon="23.505512"><ele>2634.7</ele><time>2026-03-15T12:24:03.000Z</time></trkpt>
<trkpt lat="41.7239" lon="23.505523"><ele>2634.7</ele><time>2026-03-15T12:24:04.000Z</time></trkpt>
<trkpt lat="41.723896" lon="23.505537"><ele>2634.7</ele><time>2026-03-15T12:24:05.000Z</time></trkpt>
<trkpt lat="41.723895" lon="23.505553"><ele>2634.7</ele><time>2026-03-15T12:24:06.000Z</time></trkpt>
<trkpt lat="41.723894" lon="23.505569"><ele>2632.7</ele><time>2026-03-15T12:24:07.000Z</time></trkpt>
<trkpt lat="41.723893" lon="23.505586"><ele>2632.7</ele><time>2026-03-15T12:24:08.000Z</time></trkpt>
<trkpt lat="41.723894" lon="23.505602"><ele>2632.7</ele><time>2026-03-15T12:24:09.000Z</time></trkpt>
<trkpt lat="41.723897" lon="23.505619"><ele>2632.7</ele><time>2026-03-15T12:24:10.000Z</time></trkpt>
<trkpt lat="41.7239" lon="23.505635"><ele>2632.7</ele><time>2026-03-15T12:24:11.000Z</time></trkpt>
<trkpt lat="41.723903" lon="23.505651"><ele>2630.8</ele><time>2026-03-15T12:24:12.000Z</time></trkpt>
<trkpt lat="41.723905" lon="23.505669"><ele>2630.8</ele><time>2026-03-15T12:24:13.000Z</time></trkpt>
<trkpt lat="41.723906" lon="23.505687"><ele>2630.8</ele><time>2026-03-15T12:24:14.000Z</time></trkpt>
<trkpt lat="41.723905" lon="23.505705"><ele>2630.8</ele><time>2026-03-15T12:24:15.000Z</time></trkpt>
<trkpt lat="41.723905" lon="23.505723"><ele>2630.8</ele><time>2026-03-15T12:24:16.000Z</time></trkpt>
<trkpt lat="41.723906" lon="23.505739"><ele>2629.8</ele><time>2026-03-15T12:24:17.000Z</time></trkpt>
<trkpt lat="41.723908" lon="23.505753"><ele>2629.8</ele><time>2026-03-15T12:24:18.000Z</time></trkpt>
<trkpt lat="41.723909" lon="23.505767"><ele>2629.8</ele><time>2026-03-15T12:24:19.000Z</time></trkpt>
<trkpt lat="41.723912" lon="23.505781"><ele>2629.8</ele><time>2026-03-15T12:24:20.000Z</time></trkpt>
<trkpt lat="41.723914" lon="23.505794"><ele>2629.8</ele><time>2026-03-15T12:24:21.000Z</time></trkpt>
<trkpt lat="41.723915" lon="23.505808"><ele>2628</ele><time>2026-03-15T12:24:22.000Z</time></trkpt>
<trkpt lat="41.723917" lon="23.505822"><ele>2628</ele><time>2026-03-15T12:24:23.000Z</time></trkpt>
<trkpt lat="41.723919" lon="23.505836"><ele>2628</ele><time>2026-03-15T12:24:24.000Z</time></trkpt>
<trkpt lat="41.723921" lon="23.50585"><ele>2628</ele><time>2026-03-15T12:24:25.000Z</time></trkpt>
<trkpt lat="41.723922" lon="23.505865"><ele>2628</ele><time>2026-03-15T12:24:26.000Z</time></trkpt>
<trkpt lat="41.723924" lon="23.505881"><ele>2626</ele><time>2026-03-15T12:24:27.000Z</time></trkpt>
<trkpt lat="41.723923" lon="23.505898"><ele>2626</ele><time>2026-03-15T12:24:28.000Z</time></trkpt>
<trkpt lat="41.723923" lon="23.505915"><ele>2626</ele><time>2026-03-15T12:24:29.000Z</time></trkpt>
<trkpt lat="41.723921" lon="23.505933"><ele>2626</ele><time>2026-03-15T12:24:30.000Z</time></trkpt>
<trkpt lat="41.72392" lon="23.50595"><ele>2626</ele><time>2026-03-15T12:24:31.000Z</time></trkpt>
<trkpt lat="41.723918" lon="23.505967"><ele>2625</ele><time>2026-03-15T12:24:32.000Z</time></trkpt>
<trkpt lat="41.723916" lon="23.505984"><ele>2625</ele><time>2026-03-15T12:24:33.000Z</time></trkpt>
<trkpt lat="41.723915" lon="23.505999"><ele>2625</ele><time>2026-03-15T12:24:34.000Z</time></trkpt>
<trkpt lat="41.723914" lon="23.506014"><ele>2625</ele><time>2026-03-15T12:24:35.000Z</time></trkpt>
<trkpt lat="41.723913" lon="23.506027"><ele>2625</ele><time>2026-03-15T12:24:36.000Z</time></trkpt>
<trkpt lat="41.723912" lon="23.506038"><ele>2622.9</ele><time>2026-03-15T12:24:37.000Z</time></trkpt>
<trkpt lat="41.723911" lon="23.506044"><ele>2622.9</ele><time>2026-03-15T12:24:38.000Z</time></trkpt>
<trkpt lat="41.72391" lon="23.506049"><ele>2622.9</ele><time>2026-03-15T12:24:39.000Z</time></trkpt>
<trkpt lat="41.723909" lon="23.506053"><ele>2622.9</ele><time>2026-03-15T12:24:40.000Z</time></trkpt>
<trkpt lat="41.723908" lon="23.50606"><ele>2622.9</ele><time>2026-03-15T12:24:41.000Z</time></trkpt>
<trkpt lat="41.723909" lon="23.506071"><ele>2620.7</ele><time>2026-03-15T12:24:42.000Z</time></trkpt>
<trkpt lat="41.723909" lon="23.506087"><ele>2620.7</ele><time>2026-03-15T12:24:43.000Z</time></trkpt>
<trkpt lat="41.72391" lon="23.506106"><ele>2620.7</ele><time>2026-03-15T12:24:44.000Z</time></trkpt>
<trkpt lat="41.723911" lon="23.506127"><ele>2620.7</ele><time>2026-03-15T12:24:45.000Z</time></trkpt>
<trkpt lat="41.723914" lon="23.506149"><ele>2620.7</ele><time>2026-03-15T12:24:46.000Z</time></trkpt>
<trkpt lat="41.723916" lon="23.506171"><ele>2619.6</ele><time>2026-03-15T12:24:47.000Z</time></trkpt>
<trkpt lat="41.72392" lon="23.506194"><ele>2619.6</ele><time>2026-03-15T12:24:48.000Z</time></trkpt>
<trkpt lat="41.723925" lon="23.506215"><ele>2619.6</ele><time>2026-03-15T12:24:49.000Z</time></trkpt>
<trkpt lat="41.72393" lon="23.506234"><ele>2619.6</ele><time>2026-03-15T12:24:50.000Z</time></trkpt>
<trkpt lat="41.723937" lon="23.506251"><ele>2619.6</ele><time>2026-03-15T12:24:51.000Z</time></trkpt>
<trkpt lat="41.723945" lon="23.506268"><ele>2617.7</ele><time>2026-03-15T12:24:52.000Z</time></trkpt>
<trkpt lat="41.723954" lon="23.506284"><ele>2617.7</ele><time>2026-03-15T12:24:53.000Z</time></trkpt>
<trkpt lat="41.723964" lon="23.506302"><ele>2617.7</ele><time>2026-03-15T12:24:54.000Z</time></trkpt>
<trkpt lat="41.723974" lon="23.506319"><ele>2617.7</ele><time>2026-03-15T12:24:55.000Z</time></trkpt>
<trkpt lat="41.723983" lon="23.506336"><ele>2617.7</ele><time>2026-03-15T12:24:56.000Z</time></trkpt>
<trkpt lat="41.723992" lon="23.506353"><ele>2615.6</ele><time>2026-03-15T12:24:57.000Z</time></trkpt>
<trkpt lat="41.724001" lon="23.506369"><ele>2615.6</ele><time>2026-03-15T12:24:58.000Z</time></trkpt>
<trkpt lat="41.72401" lon="23.506385"><ele>2615.6</ele><time>2026-03-15T12:24:59.000Z</time></trkpt>
<trkpt lat="41.724018" lon="23.506403"><ele>2615.6</ele><time>2026-03-15T12:25:00.000Z</time></trkpt>
<trkpt lat="41.724028" lon="23.506422"><ele>2615.6</ele><time>2026-03-15T12:25:01.000Z</time></trkpt>
<trkpt lat="41.724035" lon="23.506444"><ele>2614.4</ele><time>2026-03-15T12:25:02.000Z</time></trkpt>
<trkpt lat="41.724039" lon="23.506467"><ele>2614.4</ele><time>2026-03-15T12:25:03.000Z</time></trkpt>
<trkpt lat="41.724043" lon="23.506493"><ele>2614.4</ele><time>2026-03-15T12:25:04.000Z</time></trkpt>
<trkpt lat="41.724045" lon="23.506517"><ele>2614.4</ele><time>2026-03-15T12:25:05.000Z</time></trkpt>
<trkpt lat="41.724048" lon="23.506541"><ele>2614.4</ele><time>2026-03-15T12:25:06.000Z</time></trkpt>
<trkpt lat="41.724053" lon="23.506565"><ele>2611.9</ele><time>2026-03-15T12:25:07.000Z</time></trkpt>
<trkpt lat="41.724059" lon="23.506588"><ele>2611.9</ele><time>2026-03-15T12:25:08.000Z</time></trkpt>
<trkpt lat="41.724065" lon="23.506608"><ele>2611.9</ele><time>2026-03-15T12:25:09.000Z</time></trkpt>
<trkpt lat="41.724071" lon="23.506628"><ele>2611.9</ele><time>2026-03-15T12:25:10.000Z</time></trkpt>
<trkpt lat="41.724076" lon="23.506647"><ele>2611.9</ele><time>2026-03-15T12:25:11.000Z</time></trkpt>
<trkpt lat="41.72408" lon="23.506664"><ele>2609.5</ele><time>2026-03-15T12:25:12.000Z</time></trkpt>
<trkpt lat="41.724084" lon="23.506682"><ele>2609.5</ele><time>2026-03-15T12:25:13.000Z</time></trkpt>
<trkpt lat="41.724088" lon="23.506699"><ele>2609.5</ele><time>2026-03-15T12:25:14.000Z</time></trkpt>
<trkpt lat="41.724092" lon="23.50672"><ele>2609.5</ele><time>2026-03-15T12:25:15.000Z</time></trkpt>
<trkpt lat="41.724097" lon="23.50674"><ele>2609.5</ele><time>2026-03-15T12:25:16.000Z</time></trkpt>
<trkpt lat="41.724102" lon="23.506761"><ele>2608.5</ele><time>2026-03-15T12:25:17.000Z</time></trkpt>
<trkpt lat="41.724106" lon="23.506782"><ele>2608.5</ele><time>2026-03-15T12:25:18.000Z</time></trkpt>
<trkpt lat="41.724111" lon="23.506804"><ele>2608.5</ele><time>2026-03-15T12:25:19.000Z</time></trkpt>
<trkpt lat="41.724116" lon="23.506824"><ele>2608.5</ele><time>2026-03-15T12:25:20.000Z</time></trkpt>
<trkpt lat="41.724121" lon="23.506844"><ele>2608.5</ele><time>2026-03-15T12:25:21.000Z</time></trkpt>
<trkpt lat="41.724126" lon="23.506864"><ele>2606.6</ele><time>2026-03-15T12:25:22.000Z</time></trkpt>
<trkpt lat="41.72413" lon="23.506884"><ele>2606.6</ele><time>2026-03-15T12:25:23.000Z</time></trkpt>
<trkpt lat="41.724134" lon="23.506903"><ele>2606.6</ele><time>2026-03-15T12:25:24.000Z</time></trkpt>
<trkpt lat="41.724138" lon="23.506922"><ele>2606.6</ele><time>2026-03-15T12:25:25.000Z</time></trkpt>
<trkpt lat="41.724142" lon="23.506941"><ele>2606.6</ele><time>2026-03-15T12:25:26.000Z</time></trkpt>
<trkpt lat="41.724147" lon="23.506959"><ele>2605.1</ele><time>2026-03-15T12:25:27.000Z</time></trkpt>
<trkpt lat="41.724153" lon="23.506976"><ele>2605.1</ele><time>2026-03-15T12:25:28.000Z</time></trkpt>
<trkpt lat="41.72416" lon="23.506992"><ele>2605.1</ele><time>2026-03-15T12:25:29.000Z</time></trkpt>
<trkpt lat="41.724167" lon="23.507008"><ele>2605.1</ele><time>2026-03-15T12:25:30.000Z</time></trkpt>
<trkpt lat="41.724174" lon="23.507024"><ele>2605.1</ele><time>2026-03-15T12:25:31.000Z</time></trkpt>
<trkpt lat="41.72418" lon="23.507041"><ele>2604.6</ele><time>2026-03-15T12:25:32.000Z</time></trkpt>
<trkpt lat="41.724185" lon="23.507059"><ele>2604.6</ele><time>2026-03-15T12:25:33.000Z</time></trkpt>
<trkpt lat="41.72419" lon="23.507076"><ele>2604.6</ele><time>2026-03-15T12:25:34.000Z</time></trkpt>
<trkpt lat="41.724195" lon="23.507093"><ele>2604.6</ele><time>2026-03-15T12:25:35.000Z</time></trkpt>
<trkpt lat="41.7242" lon="23.507109"><ele>2604.6</ele><time>2026-03-15T12:25:36.000Z</time></trkpt>
<trkpt lat="41.724206" lon="23.507125"><ele>2603.8</ele><time>2026-03-15T12:25:37.000Z</time></trkpt>
<trkpt lat="41.724212" lon="23.50714"><ele>2603.8</ele><time>2026-03-15T12:25:38.000Z</time></trkpt>
<trkpt lat="41.724218" lon="23.507157"><ele>2603.8</ele><time>2026-03-15T12:25:39.000Z</time></trkpt>
<trkpt lat="41.724223" lon="23.507175"><ele>2603.8</ele><time>2026-03-15T12:25:40.000Z</time></trkpt>
<trkpt lat="41.724227" lon="23.507193"><ele>2603.8</ele><time>2026-03-15T12:25:41.000Z</time></trkpt>
<trkpt lat="41.724232" lon="23.507212"><ele>2603.7</ele><time>2026-03-15T12:25:42.000Z</time></trkpt>
<trkpt lat="41.724236" lon="23.507231"><ele>2603.7</ele><time>2026-03-15T12:25:43.000Z</time></trkpt>
<trkpt lat="41.72424" lon="23.507249"><ele>2603.7</ele><time>2026-03-15T12:25:44.000Z</time></trkpt>
<trkpt lat="41.724245" lon="23.507264"><ele>2603.7</ele><time>2026-03-15T12:25:45.000Z</time></trkpt>
<trkpt lat="41.72425" lon="23.50728"><ele>2603.7</ele><time>2026-03-15T12:25:46.000Z</time></trkpt>
<trkpt lat="41.724255" lon="23.507295"><ele>2603.7</ele><time>2026-03-15T12:25:47.000Z</time></trkpt>
<trkpt lat="41.72426" lon="23.507309"><ele>2603.7</ele><time>2026-03-15T12:25:48.000Z</time></trkpt>
<trkpt lat="41.724266" lon="23.507321"><ele>2603.7</ele><time>2026-03-15T12:25:49.000Z</time></trkpt>
<trkpt lat="41.724271" lon="23.507335"><ele>2603.7</ele><time>2026-03-15T12:25:50.000Z</time></trkpt>
<trkpt lat="41.724274" lon="23.507346"><ele>2603.7</ele><time>2026-03-15T12:25:51.000Z</time></trkpt>
<trkpt lat="41.724277" lon="23.507357"><ele>2603.3</ele><time>2026-03-15T12:25:52.000Z</time></trkpt>
<trkpt lat="41.72428" lon="23.507369"><ele>2603.3</ele><time>2026-03-15T12:25:53.000Z</time></trkpt>
<trkpt lat="41.724283" lon="23.507382"><ele>2603.3</ele><time>2026-03-15T12:25:54.000Z</time></trkpt>
<trkpt lat="41.724286" lon="23.507392"><ele>2603.3</ele><time>2026-03-15T12:25:55.000Z</time></trkpt>
<trkpt lat="41.724289" lon="23.507404"><ele>2603.3</ele><time>2026-03-15T12:25:56.000Z</time></trkpt>
<trkpt lat="41.724294" lon="23.507415"><ele>2602.7</ele><time>2026-03-15T12:25:57.000Z</time></trkpt>
<trkpt lat="41.724299" lon="23.507426"><ele>2602.7</ele><time>2026-03-15T12:25:58.000Z</time></trkpt>
<trkpt lat="41.724305" lon="23.507435"><ele>2602.7</ele><time>2026-03-15T12:25:59.000Z</time></trkpt>
<trkpt lat="41.72431" lon="23.507446"><ele>2602.7</ele><time>2026-03-15T12:26:00.000Z</time></trkpt>
<trkpt lat="41.724316" lon="23.507456"><ele>2602.7</ele><time>2026-03-15T12:26:01.000Z</time></trkpt>
<trkpt lat="41.724322" lon="23.507466"><ele>2602.5</ele><time>2026-03-15T12:26:02.000Z</time></trkpt>
<trkpt lat="41.724327" lon="23.507476"><ele>2602.5</ele><time>2026-03-15T12:26:03.000Z</time></trkpt>
<trkpt lat="41.724331" lon="23.507486"><ele>2602.5</ele><time>2026-03-15T12:26:04.000Z</time></trkpt>
<trkpt lat="41.724333" lon="23.507494"><ele>2602.5</ele><time>2026-03-15T12:26:05.000Z</time></trkpt>
<trkpt lat="41.724334" lon="23.507499"><ele>2602.5</ele><time>2026-03-15T12:26:06.000Z</time></trkpt>
<trkpt lat="41.724333" lon="23.507502"><ele>2602.4</ele><time>2026-03-15T12:26:07.000Z</time></trkpt>
<trkpt lat="41.724331" lon="23.507504"><ele>2602.4</ele><time>2026-03-15T12:26:08.000Z</time></trkpt>
<trkpt lat="41.724331" lon="23.507505"><ele>2602.4</ele><time>2026-03-15T12:26:09.000Z</time></trkpt>
<trkpt lat="41.724332" lon="23.507507"><ele>2602.4</ele><time>2026-03-15T12:26:10.000Z</time></trkpt>
<trkpt lat="41.724334" lon="23.50751"><ele>2602.4</ele><time>2026-03-15T12:26:11.000Z</time></trkpt>
<trkpt lat="41.724336" lon="23.507513"><ele>2602.8</ele><time>2026-03-15T12:26:12.000Z</time></trkpt>
<trkpt lat="41.724338" lon="23.507515"><ele>2602.8</ele><time>2026-03-15T12:26:13.000Z</time></trkpt>
<trkpt lat="41.72434" lon="23.507518"><ele>2602.8</ele><time>2026-03-15T12:26:14.000Z</time></trkpt>
<trkpt lat="41.724339" lon="23.507522"><ele>2602.8</ele><time>2026-03-15T12:26:15.000Z</time></trkpt>
<trkpt lat="41.724337" lon="23.507525"><ele>2602.8</ele><time>2026-03-15T12:26:16.000Z</time></trkpt>
<trkpt lat="41.724335" lon="23.507527"><ele>2603</ele><time>2026-03-15T12:26:17.000Z</time></trkpt>
<trkpt lat="41.724334" lon="23.507529"><ele>2603</ele><time>2026-03-15T12:26:18.000Z</time></trkpt>
<trkpt lat="41.724333" lon="23.50753"><ele>2603</ele><time>2026-03-15T12:26:19.000Z</time></trkpt>
<trkpt lat="41.724334" lon="23.507529"><ele>2603</ele><time>2026-03-15T12:26:20.000Z</time></trkpt>
<trkpt lat="41.724336" lon="23.507529"><ele>2603</ele><time>2026-03-15T12:26:21.000Z</time></trkpt>
<trkpt lat="41.724338" lon="23.507529"><ele>2603.5</ele><time>2026-03-15T12:26:22.000Z</time></trkpt>
<trkpt lat="41.724339" lon="23.50753"><ele>2603.5</ele><time>2026-03-15T12:26:23.000Z</time></trkpt>
<trkpt lat="41.724341" lon="23.507531"><ele>2603.5</ele><time>2026-03-15T12:26:24.000Z</time></trkpt>
<trkpt lat="41.724342" lon="23.507532"><ele>2603.5</ele><time>2026-03-15T12:26:25.000Z</time></trkpt>
<trkpt lat="41.724342" lon="23.507532"><ele>2603.5</ele><time>2026-03-15T12:26:26.000Z</time></trkpt>
<trkpt lat="41.724344" lon="23.507531"><ele>2603.7</ele><time>2026-03-15T12:26:27.000Z</time></trkpt>
<trkpt lat="41.724345" lon="23.507527"><ele>2603.7</ele><time>2026-03-15T12:26:28.000Z</time></trkpt>
<trkpt lat="41.724347" lon="23.507523"><ele>2603.7</ele><time>2026-03-15T12:26:29.000Z</time></trkpt>
<trkpt lat="41.72435" lon="23.50752"><ele>2603.7</ele><time>2026-03-15T12:26:30.000Z</time></trkpt>
<trkpt lat="41.724353" lon="23.507517"><ele>2603.7</ele><time>2026-03-15T12:26:31.000Z</time></trkpt>
<trkpt lat="41.724357" lon="23.507515"><ele>2603.7</ele><time>2026-03-15T12:26:32.000Z</time></trkpt>
<trkpt lat="41.72436" lon="23.507517"><ele>2603.7</ele><time>2026-03-15T12:26:33.000Z</time></trkpt>
<trkpt lat="41.724363" lon="23.507519"><ele>2603.7</ele><time>2026-03-15T12:26:34.000Z</time></trkpt>
<trkpt lat="41.724365" lon="23.507523"><ele>2603.7</ele><time>2026-03-15T12:26:35.000Z</time></trkpt>
<trkpt lat="41.724368" lon="23.507525"><ele>2603.7</ele><time>2026-03-15T12:26:36.000Z</time></trkpt>
<trkpt lat="41.724372" lon="23.507529"><ele>2603.7</ele><time>2026-03-15T12:26:37.000Z</time></trkpt>
<trkpt lat="41.724376" lon="23.507534"><ele>2603.7</ele><time>2026-03-15T12:26:38.000Z</time></trkpt>
<trkpt lat="41.724381" lon="23.507541"><ele>2603.7</ele><time>2026-03-15T12:26:39.000Z</time></trkpt>
<trkpt lat="41.724387" lon="23.507549"><ele>2603.7</ele><time>2026-03-15T12:26:40.000Z</time></trkpt>
<trkpt lat="41.724393" lon="23.507558"><ele>2603.7</ele><time>2026-03-15T12:26:41.000Z</time></trkpt>
<trkpt lat="41.724398" lon="23.507569"><ele>2603.7</ele><time>2026-03-15T12:26:42.000Z</time></trkpt>
<trkpt lat="41.724402" lon="23.507578"><ele>2603.7</ele><time>2026-03-15T12:26:43.000Z</time></trkpt>
<trkpt lat="41.724407" lon="23.507586"><ele>2603.7</ele><time>2026-03-15T12:26:44.000Z</time></trkpt>
<trkpt lat="41.724411" lon="23.507596"><ele>2603.7</ele><time>2026-03-15T12:26:45.000Z</time></trkpt>
<trkpt lat="41.724416" lon="23.507607"><ele>2603.7</ele><time>2026-03-15T12:26:46.000Z</time></trkpt>
<trkpt lat="41.724421" lon="23.507618"><ele>2603.7</ele><time>2026-03-15T12:26:47.000Z</time></trkpt>
<trkpt lat="41.724428" lon="23.507629"><ele>2603.7</ele><time>2026-03-15T12:26:48.000Z</time></trkpt>
<trkpt lat="41.724435" lon="23.50764"><ele>2603.7</ele><time>2026-03-15T12:26:49.000Z</time></trkpt>
<trkpt lat="41.724441" lon="23.507649"><ele>2603.7</ele><time>2026-03-15T12:26:50.000Z</time></trkpt>
<trkpt lat="41.724446" lon="23.507658"><ele>2603.7</ele><time>2026-03-15T12:26:51.000Z</time></trkpt>
<trkpt lat="41.724451" lon="23.507667"><ele>2604.1</ele><time>2026-03-15T12:26:52.000Z</time></trkpt>
<trkpt lat="41.724456" lon="23.507676"><ele>2604.1</ele><time>2026-03-15T12:26:53.000Z</time></trkpt>
<trkpt lat="41.724461" lon="23.507685"><ele>2604.1</ele><time>2026-03-15T12:26:54.000Z</time></trkpt>
<trkpt lat="41.724466" lon="23.507692"><ele>2604.1</ele><time>2026-03-15T12:26:55.000Z</time></trkpt>
<trkpt lat="41.724474" lon="23.507698"><ele>2604.1</ele><time>2026-03-15T12:26:56.000Z</time></trkpt>
<trkpt lat="41.724482" lon="23.507702"><ele>2604.9</ele><time>2026-03-15T12:26:57.000Z</time></trkpt>
<trkpt lat="41.72449" lon="23.507706"><ele>2604.9</ele><time>2026-03-15T12:26:58.000Z</time></trkpt>
<trkpt lat="41.724498" lon="23.507709"><ele>2604.9</ele><time>2026-03-15T12:26:59.000Z</time></trkpt>
<trkpt lat="41.724505" lon="23.507712"><ele>2604.9</ele><time>2026-03-15T12:27:00.000Z</time></trkpt>
<trkpt lat="41.724514" lon="23.507714"><ele>2604.9</ele><time>2026-03-15T12:27:01.000Z</time></trkpt>
<trkpt lat="41.724522" lon="23.507716"><ele>2605.4</ele><time>2026-03-15T12:27:02.000Z</time></trkpt>
<trkpt lat="41.724531" lon="23.507719"><ele>2605.4</ele><time>2026-03-15T12:27:03.000Z</time></trkpt>
<trkpt lat="41.72454" lon="23.507723"><ele>2605.4</ele><time>2026-03-15T12:27:04.000Z</time></trkpt>
<trkpt lat="41.724549" lon="23.507727"><ele>2605.4</ele><time>2026-03-15T12:27:05.000Z</time></trkpt>
<trkpt lat="41.724557" lon="23.507734"><ele>2605.4</ele><time>2026-03-15T12:27:06.000Z</time></trkpt>
<trkpt lat="41.724562" lon="23.507744"><ele>2606.2</ele><time>2026-03-15T12:27:07.000Z</time></trkpt>
<trkpt lat="41.724566" lon="23.507753"><ele>2606.2</ele><time>2026-03-15T12:27:08.000Z</time></trkpt>
<trkpt lat="41.724567" lon="23.507761"><ele>2606.2</ele><time>2026-03-15T12:27:09.000Z</time></trkpt>
<trkpt lat="41.724568" lon="23.507767"><ele>2606.2</ele><time>2026-03-15T12:27:10.000Z</time></trkpt>
<trkpt lat="41.72457" lon="23.50777"><ele>2606.2</ele><time>2026-03-15T12:27:11.000Z</time></trkpt>
<trkpt lat="41.724573" lon="23.507773"><ele>2607</ele><time>2026-03-15T12:27:12.000Z</time></trkpt>
<trkpt lat="41.724578" lon="23.507775"><ele>2607</ele><time>2026-03-15T12:27:13.000Z</time></trkpt>
<trkpt lat="41.724585" lon="23.50778"><ele>2607</ele><time>2026-03-15T12:27:14.000Z</time></trkpt>
<trkpt lat="41.724593" lon="23.507786"><ele>2607</ele><time>2026-03-15T12:27:15.000Z</time></trkpt>
<trkpt lat="41.724601" lon="23.507796"><ele>2607</ele><time>2026-03-15T12:27:16.000Z</time></trkpt>
<trkpt lat="41.72461" lon="23.507805"><ele>2607.3</ele><time>2026-03-15T12:27:17.000Z</time></trkpt>
<trkpt lat="41.724619" lon="23.507815"><ele>2607.3</ele><time>2026-03-15T12:27:18.000Z</time></trkpt>
<trkpt lat="41.724627" lon="23.507824"><ele>2607.3</ele><time>2026-03-15T12:27:19.000Z</time></trkpt>
<trkpt lat="41.724635" lon="23.507832"><ele>2607.3</ele><time>2026-03-15T12:27:20.000Z</time></trkpt>
<trkpt lat="41.724644" lon="23.507839"><ele>2607.3</ele><time>2026-03-15T12:27:21.000Z</time></trkpt>
<trkpt lat="41.724651" lon="23.507846"><ele>2607.8</ele><time>2026-03-15T12:27:22.000Z</time></trkpt>
<trkpt lat="41.724657" lon="23.507853"><ele>2607.8</ele><time>2026-03-15T12:27:23.000Z</time></trkpt>
<trkpt lat="41.724664" lon="23.507861"><ele>2607.8</ele><time>2026-03-15T12:27:24.000Z</time></trkpt>
<trkpt lat="41.724672" lon="23.50787"><ele>2607.8</ele><time>2026-03-15T12:27:25.000Z</time></trkpt>
<trkpt lat="41.724679" lon="23.507878"><ele>2607.8</ele><time>2026-03-15T12:27:26.000Z</time></trkpt>
<trkpt lat="41.724687" lon="23.507886"><ele>2608.2</ele><time>2026-03-15T12:27:27.000Z</time></trkpt>
<trkpt lat="41.724696" lon="23.507895"><ele>2608.2</ele><time>2026-03-15T12:27:28.000Z</time></trkpt>
<trkpt lat="41.724706" lon="23.507904"><ele>2608.2</ele><time>2026-03-15T12:27:29.000Z</time></trkpt>
<trkpt lat="41.724715" lon="23.507915"><ele>2608.2</ele><time>2026-03-15T12:27:30.000Z</time></trkpt>
<trkpt lat="41.724722" lon="23.507926"><ele>2608.2</ele><time>2026-03-15T12:27:31.000Z</time></trkpt>
<trkpt lat="41.724729" lon="23.507937"><ele>2608.4</ele><time>2026-03-15T12:27:32.000Z</time></trkpt>
<trkpt lat="41.724737" lon="23.507947"><ele>2608.4</ele><time>2026-03-15T12:27:33.000Z</time></trkpt>
<trkpt lat="41.724743" lon="23.507956"><ele>2608.4</ele><time>2026-03-15T12:27:34.000Z</time></trkpt>
<trkpt lat="41.724749" lon="23.507963"><ele>2608.4</ele><time>2026-03-15T12:27:35.000Z</time></trkpt>
<trkpt lat="41.724757" lon="23.507968"><ele>2608.4</ele><time>2026-03-15T12:27:36.000Z</time></trkpt>
<trkpt lat="41.724764" lon="23.507971"><ele>2608.9</ele><time>2026-03-15T12:27:37.000Z</time></trkpt>
<trkpt lat="41.724772" lon="23.507975"><ele>2608.9</ele><time>2026-03-15T12:27:38.000Z</time></trkpt>
<trkpt lat="41.724782" lon="23.50798"><ele>2608.9</ele><time>2026-03-15T12:27:39.000Z</time></trkpt>
<trkpt lat="41.724792" lon="23.507985"><ele>2608.9</ele><time>2026-03-15T12:27:40.000Z</time></trkpt>
<trkpt lat="41.724804" lon="23.507991"><ele>2608.9</ele><time>2026-03-15T12:27:41.000Z</time></trkpt>
<trkpt lat="41.724816" lon="23.507999"><ele>2609.4</ele><time>2026-03-15T12:27:42.000Z</time></trkpt>
<trkpt lat="41.724829" lon="23.508006"><ele>2609.4</ele><time>2026-03-15T12:27:43.000Z</time></trkpt>
<trkpt lat="41.72484" lon="23.508012"><ele>2609.4</ele><time>2026-03-15T12:27:44.000Z</time></trkpt>
<trkpt lat="41.724852" lon="23.508017"><ele>2609.4</ele><time>2026-03-15T12:27:45.000Z</time></trkpt>
<trkpt lat="41.724864" lon="23.508022"><ele>2609.4</ele><time>2026-03-15T12:27:46.000Z</time></trkpt>
<trkpt lat="41.724875" lon="23.508026"><ele>2609.4</ele><time>2026-03-15T12:27:47.000Z</time></trkpt>
<trkpt lat="41.724886" lon="23.508029"><ele>2609.4</ele><time>2026-03-15T12:27:48.000Z</time></trkpt>
<trkpt lat="41.724898" lon="23.508031"><ele>2609.4</ele><time>2026-03-15T12:27:49.000Z</time></trkpt>
<trkpt lat="41.72491" lon="23.508034"><ele>2609.4</ele><time>2026-03-15T12:27:50.000Z</time></trkpt>
<trkpt lat="41.724921" lon="23.508036"><ele>2609.4</ele><time>2026-03-15T12:27:51.000Z</time></trkpt>
<trkpt lat="41.724934" lon="23.50804"><ele>2609.5</ele><time>2026-03-15T12:27:52.000Z</time></trkpt>
<trkpt lat="41.724946" lon="23.508044"><ele>2609.5</ele><time>2026-03-15T12:27:53.000Z</time></trkpt>
<trkpt lat="41.724959" lon="23.508049"><ele>2609.5</ele><time>2026-03-15T12:27:54.000Z</time></trkpt>
<trkpt lat="41.72497" lon="23.508053"><ele>2609.5</ele><time>2026-03-15T12:27:55.000Z</time></trkpt>
<trkpt lat="41.724981" lon="23.508057"><ele>2609.5</ele><time>2026-03-15T12:27:56.000Z</time></trkpt>
<trkpt lat="41.72499" lon="23.50806"><ele>2609.3</ele><time>2026-03-15T12:27:57.000Z</time></trkpt>
<trkpt lat="41.724999" lon="23.508063"><ele>2609.3</ele><time>2026-03-15T12:27:58.000Z</time></trkpt>
<trkpt lat="41.725009" lon="23.508066"><ele>2609.3</ele><time>2026-03-15T12:27:59.000Z</time></trkpt>
<trkpt lat="41.725019" lon="23.508072"><ele>2609.3</ele><time>2026-03-15T12:28:00.000Z</time></trkpt>
<trkpt lat="41.725031" lon="23.508078"><ele>2609.3</ele><time>2026-03-15T12:28:01.000Z</time></trkpt>
<trkpt lat="41.725044" lon="23.508083"><ele>2609.2</ele><time>2026-03-15T12:28:02.000Z</time></trkpt>
<trkpt lat="41.725058" lon="23.508088"><ele>2609.2</ele><time>2026-03-15T12:28:03.000Z</time></trkpt>
<trkpt lat="41.72507" lon="23.508092"><ele>2609.2</ele><time>2026-03-15T12:28:04.000Z</time></trkpt>
<trkpt lat="41.725082" lon="23.508095"><ele>2609.2</ele><time>2026-03-15T12:28:05.000Z</time></trkpt>
<trkpt lat="41.725094" lon="23.508097"><ele>2609.2</ele><time>2026-03-15T12:28:06.000Z</time></trkpt>
<trkpt lat="41.725106" lon="23.5081"><ele>2608.7</ele><time>2026-03-15T12:28:07.000Z</time></trkpt>
<trkpt lat="41.725117" lon="23.508103"><ele>2608.7</ele><time>2026-03-15T12:28:08.000Z</time></trkpt>
<trkpt lat="41.725129" lon="23.508107"><ele>2608.7</ele><time>2026-03-15T12:28:09.000Z</time></trkpt>
<trkpt lat="41.725142" lon="23.508112"><ele>2608.7</ele><time>2026-03-15T12:28:10.000Z</time></trkpt>
<trkpt lat="41.725155" lon="23.508118"><ele>2608.7</ele><time>2026-03-15T12:28:11.000Z</time></trkpt>
<trkpt lat="41.725167" lon="23.508124"><ele>2608</ele><time>2026-03-15T12:28:12.000Z</time></trkpt>
<trkpt lat="41.72518" lon="23.508132"><ele>2608</ele><time>2026-03-15T12:28:13.000Z</time></trkpt>
<trkpt lat="41.725192" lon="23.50814"><ele>2608</ele><time>2026-03-15T12:28:14.000Z</time></trkpt>
<trkpt lat="41.725203" lon="23.508149"><ele>2608</ele><time>2026-03-15T12:28:15.000Z</time></trkpt>
<trkpt lat="41.725215" lon="23.508156"><ele>2608</ele><time>2026-03-15T12:28:16.000Z</time></trkpt>
<trkpt lat="41.725227" lon="23.508162"><ele>2607.6</ele><time>2026-03-15T12:28:17.000Z</time></trkpt>
<trkpt lat="41.725239" lon="23.508168"><ele>2607.6</ele><time>2026-03-15T12:28:18.000Z</time></trkpt>
<trkpt lat="41.725252" lon="23.508174"><ele>2607.6</ele><time>2026-03-15T12:28:19.000Z</time></trkpt>
<trkpt lat="41.725264" lon="23.50818"><ele>2607.6</ele><time>2026-03-15T12:28:20.000Z</time></trkpt>
<trkpt lat="41.725275" lon="23.508187"><ele>2607.6</ele><time>2026-03-15T12:28:21.000Z</time></trkpt>
<trkpt lat="41.725287" lon="23.508194"><ele>2606.7</ele><time>2026-03-15T12:28:22.000Z</time></trkpt>
<trkpt lat="41.725298" lon="23.5082"><ele>2606.7</ele><time>2026-03-15T12:28:23.000Z</time></trkpt>
<trkpt lat="41.725309" lon="23.508204"><ele>2606.7</ele><time>2026-03-15T12:28:24.000Z</time></trkpt>
<trkpt lat="41.725321" lon="23.508206"><ele>2606.7</ele><time>2026-03-15T12:28:25.000Z</time></trkpt>
<trkpt lat="41.725333" lon="23.508208"><ele>2606.7</ele><time>2026-03-15T12:28:26.000Z</time></trkpt>
<trkpt lat="41.725343" lon="23.50821"><ele>2605.4</ele><time>2026-03-15T12:28:27.000Z</time></trkpt>
<trkpt lat="41.725354" lon="23.508214"><ele>2605.4</ele><time>2026-03-15T12:28:28.000Z</time></trkpt>
<trkpt lat="41.725364" lon="23.50822"><ele>2605.4</ele><time>2026-03-15T12:28:29.000Z</time></trkpt>
<trkpt lat="41.725374" lon="23.508227"><ele>2605.4</ele><time>2026-03-15T12:28:30.000Z</time></trkpt>
<trkpt lat="41.725384" lon="23.508237"><ele>2605.4</ele><time>2026-03-15T12:28:31.000Z</time></trkpt>
<trkpt lat="41.725394" lon="23.508248"><ele>2604.6</ele><time>2026-03-15T12:28:32.000Z</time></trkpt>
<trkpt lat="41.725404" lon="23.508258"><ele>2604.6</ele><time>2026-03-15T12:28:33.000Z</time></trkpt>
<trkpt lat="41.725415" lon="23.508268"><ele>2604.6</ele><time>2026-03-15T12:28:34.000Z</time></trkpt>
<trkpt lat="41.725426" lon="23.508275"><ele>2604.6</ele><time>2026-03-15T12:28:35.000Z</time></trkpt>
<trkpt lat="41.725437" lon="23.508281"><ele>2604.6</ele><time>2026-03-15T12:28:36.000Z</time></trkpt>
<trkpt lat="41.72545" lon="23.508286"><ele>2603.1</ele><time>2026-03-15T12:28:37.000Z</time></trkpt>
<trkpt lat="41.725462" lon="23.50829"><ele>2603.1</ele><time>2026-03-15T12:28:38.000Z</time></trkpt>
<trkpt lat="41.725475" lon="23.508296"><ele>2603.1</ele><time>2026-03-15T12:28:39.000Z</time></trkpt>
<trkpt lat="41.725488" lon="23.508302"><ele>2603.1</ele><time>2026-03-15T12:28:40.000Z</time></trkpt>
<trkpt lat="41.725501" lon="23.508309"><ele>2603.1</ele><time>2026-03-15T12:28:41.000Z</time></trkpt>
<trkpt lat="41.725513" lon="23.508316"><ele>2601.8</ele><time>2026-03-15T12:28:42.000Z</time></trkpt>
<trkpt lat="41.725525" lon="23.508324"><ele>2601.8</ele><time>2026-03-15T12:28:43.000Z</time></trkpt>
<trkpt lat="41.725536" lon="23.508332"><ele>2601.8</ele><time>2026-03-15T12:28:44.000Z</time></trkpt>
<trkpt lat="41.725548" lon="23.508338"><ele>2601.8</ele><time>2026-03-15T12:28:45.000Z</time></trkpt>
<trkpt lat="41.725558" lon="23.508344"><ele>2601.8</ele><time>2026-03-15T12:28:46.000Z</time></trkpt>
<trkpt lat="41.725571" lon="23.508349"><ele>2601.1</ele><time>2026-03-15T12:28:47.000Z</time></trkpt>
<trkpt lat="41.725584" lon="23.508351"><ele>2601.1</ele><time>2026-03-15T12:28:48.000Z</time></trkpt>
<trkpt lat="41.725597" lon="23.508353"><ele>2601.1</ele><time>2026-03-15T12:28:49.000Z</time></trkpt>
<trkpt lat="41.725609" lon="23.508358"><ele>2601.1</ele><time>2026-03-15T12:28:50.000Z</time></trkpt>
<trkpt lat="41.725621" lon="23.508363"><ele>2601.1</ele><time>2026-03-15T12:28:51.000Z</time></trkpt>
<trkpt lat="41.725632" lon="23.50837"><ele>2599.9</ele><time>2026-03-15T12:28:52.000Z</time></trkpt>
<trkpt lat="41.725641" lon="23.508378"><ele>2599.9</ele><time>2026-03-15T12:28:53.000Z</time></trkpt>
<trkpt lat="41.725651" lon="23.508386"><ele>2599.9</ele><time>2026-03-15T12:28:54.000Z</time></trkpt>
<trkpt lat="41.725662" lon="23.508394"><ele>2599.9</ele><time>2026-03-15T12:28:55.000Z</time></trkpt>
<trkpt lat="41.725673" lon="23.508401"><ele>2599.9</ele><time>2026-03-15T12:28:56.000Z</time></trkpt>
<trkpt lat="41.725683" lon="23.508408"><ele>2598.9</ele><time>2026-03-15T12:28:57.000Z</time></trkpt>
<trkpt lat="41.725694" lon="23.508414"><ele>2598.9</ele><time>2026-03-15T12:28:58.000Z</time></trkpt>
<trkpt lat="41.725705" lon="23.508421"><ele>2598.9</ele><time>2026-03-15T12:28:59.000Z</time></trkpt>
<trkpt lat="41.725715" lon="23.508427"><ele>2598.9</ele><time>2026-03-15T12:29:00.000Z</time></trkpt>
<trkpt lat="41.725726" lon="23.508433"><ele>2598.9</ele><time>2026-03-15T12:29:01.000Z</time></trkpt>
<trkpt lat="41.725738" lon="23.50844"><ele>2598.4</ele><time>2026-03-15T12:29:02.000Z</time></trkpt>
<trkpt lat="41.725749" lon="23.508448"><ele>2598.4</ele><time>2026-03-15T12:29:03.000Z</time></trkpt>
<trkpt lat="41.72576" lon="23.508456"><ele>2598.4</ele><time>2026-03-15T12:29:04.000Z</time></trkpt>
<trkpt lat="41.725771" lon="23.508463"><ele>2598.4</ele><time>2026-03-15T12:29:05.000Z</time></trkpt>
<trkpt lat="41.725783" lon="23.50847"><ele>2598.4</ele><time>2026-03-15T12:29:06.000Z</time></trkpt>
<trkpt lat="41.725794" lon="23.508476"><ele>2597.3</ele><time>2026-03-15T12:29:07.000Z</time></trkpt>
<trkpt lat="41.725805" lon="23.508483"><ele>2597.3</ele><time>2026-03-15T12:29:08.000Z</time></trkpt>
<trkpt lat="41.725815" lon="23.508489"><ele>2597.3</ele><time>2026-03-15T12:29:09.000Z</time></trkpt>
<trkpt lat="41.725825" lon="23.508495"><ele>2597.3</ele><time>2026-03-15T12:29:10.000Z</time></trkpt>
<trkpt lat="41.725834" lon="23.508503"><ele>2597.3</ele><time>2026-03-15T12:29:11.000Z</time></trkpt>
<trkpt lat="41.725843" lon="23.50851"><ele>2596.3</ele><time>2026-03-15T12:29:12.000Z</time></trkpt>
<trkpt lat="41.725854" lon="23.508519"><ele>2596.3</ele><time>2026-03-15T12:29:13.000Z</time></trkpt>
<trkpt lat="41.725865" lon="23.508529"><ele>2596.3</ele><time>2026-03-15T12:29:14.000Z</time></trkpt>
<trkpt lat="41.725875" lon="23.50854"><ele>2596.3</ele><time>2026-03-15T12:29:15.000Z</time></trkpt>
<trkpt lat="41.725886" lon="23.508551"><ele>2596.3</ele><time>2026-03-15T12:29:16.000Z</time></trkpt>
<trkpt lat="41.725896" lon="23.50856"><ele>2595.7</ele><time>2026-03-15T12:29:17.000Z</time></trkpt>
<trkpt lat="41.725906" lon="23.508568"><ele>2595.7</ele><time>2026-03-15T12:29:18.000Z</time></trkpt>
<trkpt lat="41.725916" lon="23.508576"><ele>2595.7</ele><time>2026-03-15T12:29:19.000Z</time></trkpt>
<trkpt lat="41.725928" lon="23.508585"><ele>2595.7</ele><time>2026-03-15T12:29:20.000Z</time></trkpt>
<trkpt lat="41.725939" lon="23.508594"><ele>2595.7</ele><time>2026-03-15T12:29:21.000Z</time></trkpt>
<trkpt lat="41.72595" lon="23.508604"><ele>2594.4</ele><time>2026-03-15T12:29:22.000Z</time></trkpt>
<trkpt lat="41.725962" lon="23.508614"><ele>2594.4</ele><time>2026-03-15T12:29:23.000Z</time></trkpt>
<trkpt lat="41.725973" lon="23.508622"><ele>2594.4</ele><time>2026-03-15T12:29:24.000Z</time></trkpt>
<trkpt lat="41.725984" lon="23.508631"><ele>2594.4</ele><time>2026-03-15T12:29:25.000Z</time></trkpt>
<trkpt lat="41.725995" lon="23.50864"><ele>2594.4</ele><time>2026-03-15T12:29:26.000Z</time></trkpt>
<trkpt lat="41.726006" lon="23.50865"><ele>2593.1</ele><time>2026-03-15T12:29:27.000Z</time></trkpt>
<trkpt lat="41.726017" lon="23.508661"><ele>2593.1</ele><time>2026-03-15T12:29:28.000Z</time></trkpt>
<trkpt lat="41.726028" lon="23.50867"><ele>2593.1</ele><time>2026-03-15T12:29:29.000Z</time></trkpt>
<trkpt lat="41.726039" lon="23.508679"><ele>2593.1</ele><time>2026-03-15T12:29:30.000Z</time></trkpt>
<trkpt lat="41.726049" lon="23.508688"><ele>2593.1</ele><time>2026-03-15T12:29:31.000Z</time></trkpt>
<trkpt lat="41.726061" lon="23.508695"><ele>2592.4</ele><time>2026-03-15T12:29:32.000Z</time></trkpt>
<trkpt lat="41.726073" lon="23.508703"><ele>2592.4</ele><time>2026-03-15T12:29:33.000Z</time></trkpt>
<trkpt lat="41.726086" lon="23.508711"><ele>2592.4</ele><time>2026-03-15T12:29:34.000Z</time></trkpt>
<trkpt lat="41.726099" lon="23.508719"><ele>2592.4</ele><time>2026-03-15T12:29:35.000Z</time></trkpt>
<trkpt lat="41.726113" lon="23.508726"><ele>2592.4</ele><time>2026-03-15T12:29:36.000Z</time></trkpt>
<trkpt lat="41.726126" lon="23.508733"><ele>2591.2</ele><time>2026-03-15T12:29:37.000Z</time></trkpt>
<trkpt lat="41.726139" lon="23.508738"><ele>2591.2</ele><time>2026-03-15T12:29:38.000Z</time></trkpt>
<trkpt lat="41.726153" lon="23.508743"><ele>2591.2</ele><time>2026-03-15T12:29:39.000Z</time></trkpt>
<trkpt lat="41.726165" lon="23.508748"><ele>2591.2</ele><time>2026-03-15T12:29:40.000Z</time></trkpt>
<trkpt lat="41.726179" lon="23.508754"><ele>2591.2</ele><time>2026-03-15T12:29:41.000Z</time></trkpt>
<trkpt lat="41.726191" lon="23.508762"><ele>2589.9</ele><time>2026-03-15T12:29:42.000Z</time></trkpt>
<trkpt lat="41.726203" lon="23.508772"><ele>2589.9</ele><time>2026-03-15T12:29:43.000Z</time></trkpt>
<trkpt lat="41.726212" lon="23.508781"><ele>2589.9</ele><time>2026-03-15T12:29:44.000Z</time></trkpt>
<trkpt lat="41.726221" lon="23.50879"><ele>2589.9</ele><time>2026-03-15T12:29:45.000Z</time></trkpt>
<trkpt lat="41.726228" lon="23.508797"><ele>2589.9</ele><time>2026-03-15T12:29:46.000Z</time></trkpt>
<trkpt lat="41.726234" lon="23.508802"><ele>2589.3</ele><time>2026-03-15T12:29:47.000Z</time></trkpt>
<trkpt lat="41.726238" lon="23.508805"><ele>2589.3</ele><time>2026-03-15T12:29:48.000Z</time></trkpt>
<trkpt lat="41.726241" lon="23.508808"><ele>2589.3</ele><time>2026-03-15T12:29:49.000Z</time></trkpt>
<trkpt lat="41.726242" lon="23.50881"><ele>2589.3</ele><time>2026-03-15T12:29:50.000Z</time></trkpt>
<trkpt lat="41.726243" lon="23.508812"><ele>2589.3</ele><time>2026-03-15T12:29:51.000Z</time></trkpt>
<trkpt lat="41.726243" lon="23.508813"><ele>2588</ele><time>2026-03-15T12:29:52.000Z</time></trkpt>
<trkpt lat="41.726243" lon="23.508814"><ele>2588</ele><time>2026-03-15T12:29:53.000Z</time></trkpt>
<trkpt lat="41.726243" lon="23.508814"><ele>2588</ele><time>2026-03-15T12:29:54.000Z</time></trkpt>
<trkpt lat="41.726244" lon="23.508814"><ele>2588</ele><time>2026-03-15T12:29:55.000Z</time></trkpt>
<trkpt lat="41.726244" lon="23.508815"><ele>2588</ele><time>2026-03-15T12:29:56.000Z</time></trkpt>
<trkpt lat="41.726244" lon="23.508814"><ele>2587</ele><time>2026-03-15T12:29:57.000Z</time></trkpt>
<trkpt lat="41.726245" lon="23.508815"><ele>2587</ele><time>2026-03-15T12:29:58.000Z</time></trkpt>
<trkpt lat="41.726246" lon="23.508816"><ele>2587</ele><time>2026-03-15T12:29:59.000Z</time></trkpt>
<trkpt lat="41.726249" lon="23.508816"><ele>2587</ele><time>2026-03-15T12:30:00.000Z</time></trkpt>
<trkpt lat="41.726253" lon="23.508817"><ele>2587</ele><time>2026-03-15T12:30:01.000Z</time></trkpt>
<trkpt lat="41.72626" lon="23.50882"><ele>2586.8</ele><time>2026-03-15T12:30:02.000Z</time></trkpt>
<trkpt lat="41.726267" lon="23.508824"><ele>2586.8</ele><time>2026-03-15T12:30:03.000Z</time></trkpt>
<trkpt lat="41.726276" lon="23.50883"><ele>2586.8</ele><time>2026-03-15T12:30:04.000Z</time></trkpt>
<trkpt lat="41.726284" lon="23.508837"><ele>2586.8</ele><time>2026-03-15T12:30:05.000Z</time></trkpt>
<trkpt lat="41.726291" lon="23.508845"><ele>2586.8</ele><time>2026-03-15T12:30:06.000Z</time></trkpt>
<trkpt lat="41.726299" lon="23.508852"><ele>2586.7</ele><time>2026-03-15T12:30:07.000Z</time></trkpt>
<trkpt lat="41.726307" lon="23.508858"><ele>2586.7</ele><time>2026-03-15T12:30:08.000Z</time></trkpt>
<trkpt lat="41.726316" lon="23.508863"><ele>2586.7</ele><time>2026-03-15T12:30:09.000Z</time></trkpt>
<trkpt lat="41.726326" lon="23.508869"><ele>2586.7</ele><time>2026-03-15T12:30:10.000Z</time></trkpt>
<trkpt lat="41.726337" lon="23.508876"><ele>2586.7</ele><time>2026-03-15T12:30:11.000Z</time></trkpt>
<trkpt lat="41.726348" lon="23.508883"><ele>2586.7</ele><time>2026-03-15T12:30:12.000Z</time></trkpt>
<trkpt lat="41.726359" lon="23.508892"><ele>2586.7</ele><time>2026-03-15T12:30:13.000Z</time></trkpt>
<trkpt lat="41.72637" lon="23.5089"><ele>2586.7</ele><time>2026-03-15T12:30:14.000Z</time></trkpt>
<trkpt lat="41.726382" lon="23.508906"><ele>2586.7</ele><time>2026-03-15T12:30:15.000Z</time></trkpt>
<trkpt lat="41.726395" lon="23.508912"><ele>2586.7</ele><time>2026-03-15T12:30:16.000Z</time></trkpt>
<trkpt lat="41.726407" lon="23.508919"><ele>2586.6</ele><time>2026-03-15T12:30:17.000Z</time></trkpt>
<trkpt lat="41.72642" lon="23.508925"><ele>2586.6</ele><time>2026-03-15T12:30:18.000Z</time></trkpt>
<trkpt lat="41.726433" lon="23.508932"><ele>2586.6</ele><time>2026-03-15T12:30:19.000Z</time></trkpt>
<trkpt lat="41.726446" lon="23.508941"><ele>2586.6</ele><time>2026-03-15T12:30:20.000Z</time></trkpt>
<trkpt lat="41.726459" lon="23.508951"><ele>2586.6</ele><time>2026-03-15T12:30:21.000Z</time></trkpt>
<trkpt lat="41.726471" lon="23.508961"><ele>2585.8</ele><time>2026-03-15T12:30:22.000Z</time></trkpt>
<trkpt lat="41.726483" lon="23.508971"><ele>2585.8</ele><time>2026-03-15T12:30:23.000Z</time></trkpt>
<trkpt lat="41.726494" lon="23.508981"><ele>2585.8</ele><time>2026-03-15T12:30:24.000Z</time></trkpt>
<trkpt lat="41.726506" lon="23.508989"><ele>2585.8</ele><time>2026-03-15T12:30:25.000Z</time></trkpt>
<trkpt lat="41.726518" lon="23.508997"><ele>2585.8</ele><time>2026-03-15T12:30:26.000Z</time></trkpt>
<trkpt lat="41.726529" lon="23.509005"><ele>2584.7</ele><time>2026-03-15T12:30:27.000Z</time></trkpt>
<trkpt lat="41.726541" lon="23.509012"><ele>2584.7</ele><time>2026-03-15T12:30:28.000Z</time></trkpt>
<trkpt lat="41.726553" lon="23.509019"><ele>2584.7</ele><time>2026-03-15T12:30:29.000Z</time></trkpt>
<trkpt lat="41.726564" lon="23.509025"><ele>2584.7</ele><time>2026-03-15T12:30:30.000Z</time></trkpt>
<trkpt lat="41.726576" lon="23.509033"><ele>2584.7</ele><time>2026-03-15T12:30:31.000Z</time></trkpt>
<trkpt lat="41.726588" lon="23.509039"><ele>2584.1</ele><time>2026-03-15T12:30:32.000Z</time></trkpt>
<trkpt lat="41.726601" lon="23.509047"><ele>2584.1</ele><time>2026-03-15T12:30:33.000Z</time></trkpt>
<trkpt lat="41.726613" lon="23.509056"><ele>2584.1</ele><time>2026-03-15T12:30:34.000Z</time></trkpt>
<trkpt lat="41.726626" lon="23.509065"><ele>2584.1</ele><time>2026-03-15T12:30:35.000Z</time></trkpt>
<trkpt lat="41.726639" lon="23.509074"><ele>2584.1</ele><time>2026-03-15T12:30:36.000Z</time></trkpt>
<trkpt lat="41.726651" lon="23.509081"><ele>2582.8</ele><time>2026-03-15T12:30:37.000Z</time></trkpt>
<trkpt lat="41.726664" lon="23.509088"><ele>2582.8</ele><time>2026-03-15T12:30:38.000Z</time></trkpt>
<trkpt lat="41.726675" lon="23.509095"><ele>2582.8</ele><time>2026-03-15T12:30:39.000Z</time></trkpt>
<trkpt lat="41.726686" lon="23.509102"><ele>2582.8</ele><time>2026-03-15T12:30:40.000Z</time></trkpt>
<trkpt lat="41.726696" lon="23.50911"><ele>2582.8</ele><time>2026-03-15T12:30:41.000Z</time></trkpt>
<trkpt lat="41.726707" lon="23.509119"><ele>2581.6</ele><time>2026-03-15T12:30:42.000Z</time></trkpt>
<trkpt lat="41.726716" lon="23.509129"><ele>2581.6</ele><time>2026-03-15T12:30:43.000Z</time></trkpt>
<trkpt lat="41.726726" lon="23.509137"><ele>2581.6</ele><time>2026-03-15T12:30:44.000Z</time></trkpt>
<trkpt lat="41.726737" lon="23.509146"><ele>2581.6</ele><time>2026-03-15T12:30:45.000Z</time></trkpt>
<trkpt lat="41.726749" lon="23.509155"><ele>2581.6</ele><time>2026-03-15T12:30:46.000Z</time></trkpt>
<trkpt lat="41.726761" lon="23.509165"><ele>2581</ele><time>2026-03-15T12:30:47.000Z</time></trkpt>
<trkpt lat="41.726774" lon="23.509174"><ele>2581</ele><time>2026-03-15T12:30:48.000Z</time></trkpt>
<trkpt lat="41.726787" lon="23.509184"><ele>2581</ele><time>2026-03-15T12:30:49.000Z</time></trkpt>
<trkpt lat="41.726798" lon="23.509193"><ele>2581</ele><time>2026-03-15T12:30:50.000Z</time></trkpt>
<trkpt lat="41.726809" lon="23.509202"><ele>2581</ele><time>2026-03-15T12:30:51.000Z</time></trkpt>
<trkpt lat="41.726819" lon="23.509212"><ele>2579.8</ele><time>2026-03-15T12:30:52.000Z</time></trkpt>
<trkpt lat="41.72683" lon="23.509223"><ele>2579.8</ele><time>2026-03-15T12:30:53.000Z</time></trkpt>
<trkpt lat="41.72684" lon="23.509235"><ele>2579.8</ele><time>2026-03-15T12:30:54.000Z</time></trkpt>
<trkpt lat="41.72685" lon="23.509248"><ele>2579.8</ele><time>2026-03-15T12:30:55.000Z</time></trkpt>
<trkpt lat="41.726861" lon="23.509261"><ele>2579.8</ele><time>2026-03-15T12:30:56.000Z</time></trkpt>
<trkpt lat="41.726871" lon="23.509273"><ele>2578.8</ele><time>2026-03-15T12:30:57.000Z</time></trkpt>
<trkpt lat="41.726882" lon="23.509283"><ele>2578.8</ele><time>2026-03-15T12:30:58.000Z</time></trkpt>
<trkpt lat="41.726893" lon="23.509291"><ele>2578.8</ele><time>2026-03-15T12:30:59.000Z</time></trkpt>
<trkpt lat="41.726903" lon="23.509297"><ele>2578.8</ele><time>2026-03-15T12:31:00.000Z</time></trkpt>
<trkpt lat="41.726913" lon="23.509302"><ele>2578.8</ele><time>2026-03-15T12:31:01.000Z</time></trkpt>
<trkpt lat="41.726924" lon="23.509309"><ele>2578.2</ele><time>2026-03-15T12:31:02.000Z</time></trkpt>
<trkpt lat="41.726935" lon="23.509316"><ele>2578.2</ele><time>2026-03-15T12:31:03.000Z</time></trkpt>
<trkpt lat="41.726945" lon="23.509324"><ele>2578.2</ele><time>2026-03-15T12:31:04.000Z</time></trkpt>
<trkpt lat="41.726956" lon="23.509334"><ele>2578.2</ele><time>2026-03-15T12:31:05.000Z</time></trkpt>
<trkpt lat="41.726967" lon="23.509343"><ele>2578.2</ele><time>2026-03-15T12:31:06.000Z</time></trkpt>
<trkpt lat="41.726975" lon="23.509353"><ele>2577.2</ele><time>2026-03-15T12:31:07.000Z</time></trkpt>
<trkpt lat="41.726983" lon="23.509361"><ele>2577.2</ele><time>2026-03-15T12:31:08.000Z</time></trkpt>
<trkpt lat="41.726991" lon="23.50937"><ele>2577.2</ele><time>2026-03-15T12:31:09.000Z</time></trkpt>
<trkpt lat="41.726998" lon="23.509378"><ele>2577.2</ele><time>2026-03-15T12:31:10.000Z</time></trkpt>
<trkpt lat="41.727006" lon="23.509387"><ele>2577.2</ele><time>2026-03-15T12:31:11.000Z</time></trkpt>
<trkpt lat="41.727014" lon="23.509396"><ele>2576.3</ele><time>2026-03-15T12:31:12.000Z</time></trkpt>
<trkpt lat="41.727021" lon="23.509404"><ele>2576.3</ele><time>2026-03-15T12:31:13.000Z</time></trkpt>
<trkpt lat="41.727026" lon="23.509412"><ele>2576.3</ele><time>2026-03-15T12:31:14.000Z</time></trkpt>
<trkpt lat="41.727028" lon="23.509419"><ele>2576.3</ele><time>2026-03-15T12:31:15.000Z</time></trkpt>
<trkpt lat="41.727029" lon="23.509423"><ele>2576.3</ele><time>2026-03-15T12:31:16.000Z</time></trkpt>
<trkpt lat="41.727028" lon="23.509426"><ele>2575.8</ele><time>2026-03-15T12:31:17.000Z</time></trkpt>
<trkpt lat="41.727027" lon="23.509427"><ele>2575.8</ele><time>2026-03-15T12:31:18.000Z</time></trkpt>
<trkpt lat="41.727026" lon="23.509428"><ele>2575.8</ele><time>2026-03-15T12:31:19.000Z</time></trkpt>
<trkpt lat="41.727025" lon="23.509429"><ele>2575.8</ele><time>2026-03-15T12:31:20.000Z</time></trkpt>
<trkpt lat="41.727024" lon="23.50943"><ele>2575.8</ele><time>2026-03-15T12:31:21.000Z</time></trkpt>
<trkpt lat="41.727024" lon="23.50943"><ele>2575.2</ele><time>2026-03-15T12:31:22.000Z</time></trkpt>
<trkpt lat="41.727024" lon="23.50943"><ele>2575.2</ele><time>2026-03-15T12:31:23.000Z</time></trkpt>
<trkpt lat="41.727023" lon="23.509431"><ele>2575.2</ele><time>2026-03-15T12:31:24.000Z</time></trkpt>
<trkpt lat="41.727023" lon="23.509433"><ele>2575.2</ele><time>2026-03-15T12:31:25.000Z</time></trkpt>
<trkpt lat="41.727022" lon="23.509435"><ele>2575.2</ele><time>2026-03-15T12:31:26.000Z</time></trkpt>
<trkpt lat="41.727022" lon="23.509437"><ele>2574.9</ele><time>2026-03-15T12:31:27.000Z</time></trkpt>
<trkpt lat="41.727022" lon="23.50944"><ele>2574.9</ele><time>2026-03-15T12:31:28.000Z</time></trkpt>
<trkpt lat="41.727024" lon="23.509444"><ele>2574.9</ele><time>2026-03-15T12:31:29.000Z</time></trkpt>
<trkpt lat="41.727028" lon="23.50945"><ele>2574.9</ele><time>2026-03-15T12:31:30.000Z</time></trkpt>
<trkpt lat="41.727032" lon="23.509457"><ele>2574.9</ele><time>2026-03-15T12:31:31.000Z</time></trkpt>
<trkpt lat="41.727038" lon="23.509466"><ele>2574.8</ele><time>2026-03-15T12:31:32.000Z</time></trkpt>
<trkpt lat="41.727045" lon="23.509474"><ele>2574.8</ele><time>2026-03-15T12:31:33.000Z</time></trkpt>
<trkpt lat="41.727052" lon="23.509483"><ele>2574.8</ele><time>2026-03-15T12:31:34.000Z</time></trkpt>
<trkpt lat="41.727061" lon="23.509491"><ele>2574.8</ele><time>2026-03-15T12:31:35.000Z</time></trkpt>
<trkpt lat="41.72707" lon="23.5095"><ele>2574.8</ele><time>2026-03-15T12:31:36.000Z</time></trkpt>
<trkpt lat="41.72708" lon="23.509508"><ele>2574.8</ele><time>2026-03-15T12:31:37.000Z</time></trkpt>
<trkpt lat="41.72709" lon="23.509515"><ele>2574.8</ele><time>2026-03-15T12:31:38.000Z</time></trkpt>
<trkpt lat="41.7271" lon="23.509522"><ele>2574.8</ele><time>2026-03-15T12:31:39.000Z</time></trkpt>
<trkpt lat="41.727109" lon="23.50953"><ele>2574.8</ele><time>2026-03-15T12:31:40.000Z</time></trkpt>
<trkpt lat="41.727119" lon="23.509537"><ele>2574.8</ele><time>2026-03-15T12:31:41.000Z</time></trkpt>
<trkpt lat="41.727129" lon="23.509546"><ele>2574.6</ele><time>2026-03-15T12:31:42.000Z</time></trkpt>
<trkpt lat="41.727139" lon="23.509555"><ele>2574.6</ele><time>2026-03-15T12:31:43.000Z</time></trkpt>
<trkpt lat="41.72715" lon="23.509565"><ele>2574.6</ele><time>2026-03-15T12:31:44.000Z</time></trkpt>
<trkpt lat="41.727162" lon="23.509576"><ele>2574.6</ele><time>2026-03-15T12:31:45.000Z</time></trkpt>
<trkpt lat="41.727174" lon="23.509588"><ele>2574.6</ele><time>2026-03-15T12:31:46.000Z</time></trkpt>
<trkpt lat="41.727186" lon="23.5096"><ele>2574.4</ele><time>2026-03-15T12:31:47.000Z</time></trkpt>
<trkpt lat="41.727199" lon="23.509612"><ele>2574.4</ele><time>2026-03-15T12:31:48.000Z</time></trkpt>
<trkpt lat="41.727211" lon="23.509623"><ele>2574.4</ele><time>2026-03-15T12:31:49.000Z</time></trkpt>
<trkpt lat="41.727223" lon="23.509634"><ele>2574.4</ele><time>2026-03-15T12:31:50.000Z</time></trkpt>
<trkpt lat="41.727235" lon="23.509643"><ele>2574.4</ele><time>2026-03-15T12:31:51.000Z</time></trkpt>
<trkpt lat="41.727245" lon="23.509653"><ele>2573.9</ele><time>2026-03-15T12:31:52.000Z</time></trkpt>
<trkpt lat="41.727255" lon="23.509662"><ele>2573.9</ele><time>2026-03-15T12:31:53.000Z</time></trkpt>
<trkpt lat="41.727265" lon="23.509672"><ele>2573.9</ele><time>2026-03-15T12:31:54.000Z</time></trkpt>
<trkpt lat="41.727274" lon="23.509684"><ele>2573.9</ele><time>2026-03-15T12:31:55.000Z</time></trkpt>
<trkpt lat="41.727284" lon="23.509695"><ele>2573.9</ele><time>2026-03-15T12:31:56.000Z</time></trkpt>
<trkpt lat="41.727293" lon="23.509707"><ele>2573.1</ele><time>2026-03-15T12:31:57.000Z</time></trkpt>
<trkpt lat="41.727303" lon="23.509718"><ele>2573.1</ele><time>2026-03-15T12:31:58.000Z</time></trkpt>
<trkpt lat="41.727312" lon="23.509728"><ele>2573.1</ele><time>2026-03-15T12:31:59.000Z</time></trkpt>
<trkpt lat="41.727321" lon="23.509737"><ele>2573.1</ele><time>2026-03-15T12:32:00.000Z</time></trkpt>
<trkpt lat="41.727331" lon="23.509747"><ele>2573.1</ele><time>2026-03-15T12:32:01.000Z</time></trkpt>
<trkpt lat="41.727342" lon="23.509757"><ele>2572.6</ele><time>2026-03-15T12:32:02.000Z</time></trkpt>
<trkpt lat="41.727352" lon="23.509768"><ele>2572.6</ele><time>2026-03-15T12:32:03.000Z</time></trkpt>
<trkpt lat="41.727361" lon="23.50978"><ele>2572.6</ele><time>2026-03-15T12:32:04.000Z</time></trkpt>
<trkpt lat="41.72737" lon="23.509794"><ele>2572.6</ele><time>2026-03-15T12:32:05.000Z</time></trkpt>
<trkpt lat="41.727377" lon="23.509807"><ele>2572.6</ele><time>2026-03-15T12:32:06.000Z</time></trkpt>
<trkpt lat="41.727383" lon="23.509818"><ele>2571.9</ele><time>2026-03-15T12:32:07.000Z</time></trkpt>
<trkpt lat="41.727388" lon="23.509828"><ele>2571.9</ele><time>2026-03-15T12:32:08.000Z</time></trkpt>
<trkpt lat="41.727393" lon="23.509833"><ele>2571.9</ele><time>2026-03-15T12:32:09.000Z</time></trkpt>
<trkpt lat="41.727396" lon="23.509836"><ele>2571.9</ele><time>2026-03-15T12:32:10.000Z</time></trkpt>
<trkpt lat="41.727399" lon="23.509837"><ele>2571.9</ele><time>2026-03-15T12:32:11.000Z</time></trkpt>
<trkpt lat="41.727401" lon="23.509838"><ele>2571.3</ele><time>2026-03-15T12:32:12.000Z</time></trkpt>
<trkpt lat="41.727402" lon="23.509837"><ele>2571.3</ele><time>2026-03-15T12:32:13.000Z</time></trkpt>
<trkpt lat="41.727403" lon="23.509837"><ele>2571.3</ele><time>2026-03-15T12:32:14.000Z</time></trkpt>
<trkpt lat="41.727404" lon="23.509837"><ele>2571.3</ele><time>2026-03-15T12:32:15.000Z</time></trkpt>
<trkpt lat="41.727404" lon="23.509837"><ele>2571.3</ele><time>2026-03-15T12:32:16.000Z</time></trkpt>
<trkpt lat="41.727405" lon="23.509837"><ele>2571.1</ele><time>2026-03-15T12:32:17.000Z</time></trkpt>
<trkpt lat="41.727406" lon="23.509837"><ele>2571.1</ele><time>2026-03-15T12:32:18.000Z</time></trkpt>
<trkpt lat="41.727406" lon="23.509837"><ele>2571.1</ele><time>2026-03-15T12:32:19.000Z</time></trkpt>
<trkpt lat="41.727406" lon="23.509837"><ele>2571.1</ele><time>2026-03-15T12:32:20.000Z</time></trkpt>
<trkpt lat="41.727406" lon="23.509837"><ele>2571.1</ele><time>2026-03-15T12:32:21.000Z</time></trkpt>
<trkpt lat="41.727406" lon="23.509837"><ele>2571.1</ele><time>2026-03-15T12:32:22.000Z</time></trkpt>
<trkpt lat="41.727406" lon="23.509837"><ele>2571.1</ele><time>2026-03-15T12:32:23.000Z</time></trkpt>
<trkpt lat="41.727406" lon="23.509837"><ele>2571.1</ele><time>2026-03-15T12:32:24.000Z</time></trkpt>
<trkpt lat="41.727408" lon="23.509837"><ele>2571.1</ele><time>2026-03-15T12:32:25.000Z</time></trkpt>
<trkpt lat="41.727409" lon="23.509837"><ele>2571.1</ele><time>2026-03-15T12:32:26.000Z</time></trkpt>
<trkpt lat="41.727411" lon="23.509837"><ele>2571.2</ele><time>2026-03-15T12:32:27.000Z</time></trkpt>
<trkpt lat="41.727413" lon="23.509837"><ele>2571.2</ele><time>2026-03-15T12:32:28.000Z</time></trkpt>
<trkpt lat="41.727415" lon="23.509836"><ele>2571.2</ele><time>2026-03-15T12:32:29.000Z</time></trkpt>
<trkpt lat="41.727417" lon="23.509835"><ele>2571.2</ele><time>2026-03-15T12:32:30.000Z</time></trkpt>
<trkpt lat="41.727419" lon="23.509834"><ele>2571.2</ele><time>2026-03-15T12:32:31.000Z</time></trkpt>
<trkpt lat="41.727423" lon="23.509836"><ele>2571.2</ele><time>2026-03-15T12:32:32.000Z</time></trkpt>
<trkpt lat="41.727427" lon="23.509842"><ele>2571.2</ele><time>2026-03-15T12:32:33.000Z</time></trkpt>
<trkpt lat="41.727433" lon="23.509849"><ele>2571.2</ele><time>2026-03-15T12:32:34.000Z</time></trkpt>
<trkpt lat="41.727439" lon="23.509858"><ele>2571.2</ele><time>2026-03-15T12:32:35.000Z</time></trkpt>
<trkpt lat="41.727446" lon="23.509868"><ele>2571.2</ele><time>2026-03-15T12:32:36.000Z</time></trkpt>
<trkpt lat="41.727454" lon="23.509877"><ele>2571</ele><time>2026-03-15T12:32:37.000Z</time></trkpt>
<trkpt lat="41.727461" lon="23.509885"><ele>2571</ele><time>2026-03-15T12:32:38.000Z</time></trkpt>
<trkpt lat="41.727469" lon="23.509894"><ele>2571</ele><time>2026-03-15T12:32:39.000Z</time></trkpt>
<trkpt lat="41.727477" lon="23.509903"><ele>2571</ele><time>2026-03-15T12:32:40.000Z</time></trkpt>
<trkpt lat="41.727485" lon="23.509912"><ele>2571</ele><time>2026-03-15T12:32:41.000Z</time></trkpt>
<trkpt lat="41.727493" lon="23.509921"><ele>2570.8</ele><time>2026-03-15T12:32:42.000Z</time></trkpt>
<trkpt lat="41.727502" lon="23.509932"><ele>2570.8</ele><time>2026-03-15T12:32:43.000Z</time></trkpt>
<trkpt lat="41.72751" lon="23.509943"><ele>2570.8</ele><time>2026-03-15T12:32:44.000Z</time></trkpt>
<trkpt lat="41.727518" lon="23.509954"><ele>2570.8</ele><time>2026-03-15T12:32:45.000Z</time></trkpt>
<trkpt lat="41.727525" lon="23.509966"><ele>2570.8</ele><time>2026-03-15T12:32:46.000Z</time></trkpt>
<trkpt lat="41.727533" lon="23.509978"><ele>2570.8</ele><time>2026-03-15T12:32:47.000Z</time></trkpt>
<trkpt lat="41.72754" lon="23.509992"><ele>2570.8</ele><time>2026-03-15T12:32:48.000Z</time></trkpt>
<trkpt lat="41.727548" lon="23.510007"><ele>2570.8</ele><time>2026-03-15T12:32:49.000Z</time></trkpt>
<trkpt lat="41.727555" lon="23.510022"><ele>2570.8</ele><time>2026-03-15T12:32:50.000Z</time></trkpt>
<trkpt lat="41.727563" lon="23.510036"><ele>2570.8</ele><time>2026-03-15T12:32:51.000Z</time></trkpt>
<trkpt lat="41.72757" lon="23.51005"><ele>2570.7</ele><time>2026-03-15T12:32:52.000Z</time></trkpt>
<trkpt lat="41.727577" lon="23.510063"><ele>2570.7</ele><time>2026-03-15T12:32:53.000Z</time></trkpt>
<trkpt lat="41.727584" lon="23.510076"><ele>2570.7</ele><time>2026-03-15T12:32:54.000Z</time></trkpt>
<trkpt lat="41.72759" lon="23.51009"><ele>2570.7</ele><time>2026-03-15T12:32:55.000Z</time></trkpt>
<trkpt lat="41.727596" lon="23.510106"><ele>2570.7</ele><time>2026-03-15T12:32:56.000Z</time></trkpt>
<trkpt lat="41.727601" lon="23.510122"><ele>2570.4</ele><time>2026-03-15T12:32:57.000Z</time></trkpt>
<trkpt lat="41.727607" lon="23.510139"><ele>2570.4</ele><time>2026-03-15T12:32:58.000Z</time></trkpt>
<trkpt lat="41.727612" lon="23.510156"><ele>2570.4</ele><time>2026-03-15T12:32:59.000Z</time></trkpt>
<trkpt lat="41.727616" lon="23.510172"><ele>2570.4</ele><time>2026-03-15T12:33:00.000Z</time></trkpt>
<trkpt lat="41.727621" lon="23.510186"><ele>2570.4</ele><time>2026-03-15T12:33:01.000Z</time></trkpt>
<trkpt lat="41.727625" lon="23.510199"><ele>2570.1</ele><time>2026-03-15T12:33:02.000Z</time></trkpt>
<trkpt lat="41.72763" lon="23.510212"><ele>2570.1</ele><time>2026-03-15T12:33:03.000Z</time></trkpt>
<trkpt lat="41.727636" lon="23.510225"><ele>2570.1</ele><time>2026-03-15T12:33:04.000Z</time></trkpt>
<trkpt lat="41.727641" lon="23.510238"><ele>2570.1</ele><time>2026-03-15T12:33:05.000Z</time></trkpt>
<trkpt lat="41.727647" lon="23.510252"><ele>2570.1</ele><time>2026-03-15T12:33:06.000Z</time></trkpt>
<trkpt lat="41.727653" lon="23.510267"><ele>2569.5</ele><time>2026-03-15T12:33:07.000Z</time></trkpt>
<trkpt lat="41.727659" lon="23.510282"><ele>2569.5</ele><time>2026-03-15T12:33:08.000Z</time></trkpt>
<trkpt lat="41.727665" lon="23.510297"><ele>2569.5</ele><time>2026-03-15T12:33:09.000Z</time></trkpt>
<trkpt lat="41.727672" lon="23.510313"><ele>2569.5</ele><time>2026-03-15T12:33:10.000Z</time></trkpt>
<trkpt lat="41.727679" lon="23.510328"><ele>2569.5</ele><time>2026-03-15T12:33:11.000Z</time></trkpt>
<trkpt lat="41.727686" lon="23.510342"><ele>2568.9</ele><time>2026-03-15T12:33:12.000Z</time></trkpt>
<trkpt lat="41.727693" lon="23.510354"><ele>2568.9</ele><time>2026-03-15T12:33:13.000Z</time></trkpt>
<trkpt lat="41.7277" lon="23.510366"><ele>2568.9</ele><time>2026-03-15T12:33:14.000Z</time></trkpt>
<trkpt lat="41.727705" lon="23.510378"><ele>2568.9</ele><time>2026-03-15T12:33:15.000Z</time></trkpt>
<trkpt lat="41.727712" lon="23.51039"><ele>2568.9</ele><time>2026-03-15T12:33:16.000Z</time></trkpt>
<trkpt lat="41.727718" lon="23.510404"><ele>2568.6</ele><time>2026-03-15T12:33:17.000Z</time></trkpt>
<trkpt lat="41.727725" lon="23.51042"><ele>2568.6</ele><time>2026-03-15T12:33:18.000Z</time></trkpt>
<trkpt lat="41.727731" lon="23.510436"><ele>2568.6</ele><time>2026-03-15T12:33:19.000Z</time></trkpt>
<trkpt lat="41.727737" lon="23.510453"><ele>2568.6</ele><time>2026-03-15T12:33:20.000Z</time></trkpt>
<trkpt lat="41.727742" lon="23.510469"><ele>2568.6</ele><time>2026-03-15T12:33:21.000Z</time></trkpt>
<trkpt lat="41.727748" lon="23.510484"><ele>2568</ele><time>2026-03-15T12:33:22.000Z</time></trkpt>
<trkpt lat="41.727754" lon="23.510498"><ele>2568</ele><time>2026-03-15T12:33:23.000Z</time></trkpt>
<trkpt lat="41.727761" lon="23.510512"><ele>2568</ele><time>2026-03-15T12:33:24.000Z</time></trkpt>
<trkpt lat="41.727768" lon="23.510525"><ele>2568</ele><time>2026-03-15T12:33:25.000Z</time></trkpt>
<trkpt lat="41.727775" lon="23.510538"><ele>2568</ele><time>2026-03-15T12:33:26.000Z</time></trkpt>
<trkpt lat="41.727781" lon="23.510553"><ele>2567.3</ele><time>2026-03-15T12:33:27.000Z</time></trkpt>
<trkpt lat="41.727787" lon="23.510568"><ele>2567.3</ele><time>2026-03-15T12:33:28.000Z</time></trkpt>
<trkpt lat="41.727793" lon="23.510584"><ele>2567.3</ele><time>2026-03-15T12:33:29.000Z</time></trkpt>
<trkpt lat="41.727799" lon="23.510601"><ele>2567.3</ele><time>2026-03-15T12:33:30.000Z</time></trkpt>
<trkpt lat="41.727805" lon="23.510618"><ele>2567.3</ele><time>2026-03-15T12:33:31.000Z</time></trkpt>
<trkpt lat="41.72781" lon="23.510633"><ele>2567</ele><time>2026-03-15T12:33:32.000Z</time></trkpt>
<trkpt lat="41.727816" lon="23.510647"><ele>2567</ele><time>2026-03-15T12:33:33.000Z</time></trkpt>
<trkpt lat="41.727821" lon="23.510662"><ele>2567</ele><time>2026-03-15T12:33:34.000Z</time></trkpt>
<trkpt lat="41.727826" lon="23.510676"><ele>2567</ele><time>2026-03-15T12:33:35.000Z</time></trkpt>
<trkpt lat="41.72783" lon="23.510692"><ele>2567</ele><time>2026-03-15T12:33:36.000Z</time></trkpt>
<trkpt lat="41.727835" lon="23.510709"><ele>2566.2</ele><time>2026-03-15T12:33:37.000Z</time></trkpt>
<trkpt lat="41.727839" lon="23.510727"><ele>2566.2</ele><time>2026-03-15T12:33:38.000Z</time></trkpt>
<trkpt lat="41.727843" lon="23.510744"><ele>2566.2</ele><time>2026-03-15T12:33:39.000Z</time></trkpt>
<trkpt lat="41.727847" lon="23.510761"><ele>2566.2</ele><time>2026-03-15T12:33:40.000Z</time></trkpt>
<trkpt lat="41.727852" lon="23.510778"><ele>2566.2</ele><time>2026-03-15T12:33:41.000Z</time></trkpt>
<trkpt lat="41.727856" lon="23.510793"><ele>2565.4</ele><time>2026-03-15T12:33:42.000Z</time></trkpt>
<trkpt lat="41.72786" lon="23.510809"><ele>2565.4</ele><time>2026-03-15T12:33:43.000Z</time></trkpt>
<trkpt lat="41.727864" lon="23.510825"><ele>2565.4</ele><time>2026-03-15T12:33:44.000Z</time></trkpt>
<trkpt lat="41.727869" lon="23.51084"><ele>2565.4</ele><time>2026-03-15T12:33:45.000Z</time></trkpt>
<trkpt lat="41.727873" lon="23.510856"><ele>2565.4</ele><time>2026-03-15T12:33:46.000Z</time></trkpt>
<trkpt lat="41.727877" lon="23.510872"><ele>2565</ele><time>2026-03-15T12:33:47.000Z</time></trkpt>
<trkpt lat="41.727879" lon="23.510888"><ele>2565</ele><time>2026-03-15T12:33:48.000Z</time></trkpt>
<trkpt lat="41.72788" lon="23.510904"><ele>2565</ele><time>2026-03-15T12:33:49.000Z</time></trkpt>
<trkpt lat="41.727882" lon="23.510919"><ele>2565</ele><time>2026-03-15T12:33:50.000Z</time></trkpt>
<trkpt lat="41.727885" lon="23.510935"><ele>2565</ele><time>2026-03-15T12:33:51.000Z</time></trkpt>
<trkpt lat="41.727889" lon="23.510951"><ele>2564.3</ele><time>2026-03-15T12:33:52.000Z</time></trkpt>
<trkpt lat="41.727894" lon="23.510966"><ele>2564.3</ele><time>2026-03-15T12:33:53.000Z</time></trkpt>
<trkpt lat="41.727901" lon="23.510981"><ele>2564.3</ele><time>2026-03-15T12:33:54.000Z</time></trkpt>
<trkpt lat="41.727907" lon="23.510997"><ele>2564.3</ele><time>2026-03-15T12:33:55.000Z</time></trkpt>
<trkpt lat="41.727911" lon="23.51101"><ele>2564.3</ele><time>2026-03-15T12:33:56.000Z</time></trkpt>
<trkpt lat="41.727916" lon="23.511023"><ele>2563.7</ele><time>2026-03-15T12:33:57.000Z</time></trkpt>
<trkpt lat="41.72792" lon="23.511037"><ele>2563.7</ele><time>2026-03-15T12:33:58.000Z</time></trkpt>
<trkpt lat="41.727923" lon="23.511052"><ele>2563.7</ele><time>2026-03-15T12:33:59.000Z</time></trkpt>
<trkpt lat="41.727927" lon="23.511066"><ele>2563.7</ele><time>2026-03-15T12:34:00.000Z</time></trkpt>
<trkpt lat="41.727932" lon="23.511081"><ele>2563.7</ele><time>2026-03-15T12:34:01.000Z</time></trkpt>
<trkpt lat="41.727938" lon="23.511096"><ele>2563.4</ele><time>2026-03-15T12:34:02.000Z</time></trkpt>
<trkpt lat="41.727943" lon="23.511109"><ele>2563.4</ele><time>2026-03-15T12:34:03.000Z</time></trkpt>
<trkpt lat="41.727949" lon="23.511122"><ele>2563.4</ele><time>2026-03-15T12:34:04.000Z</time></trkpt>
<trkpt lat="41.727954" lon="23.511136"><ele>2563.4</ele><time>2026-03-15T12:34:05.000Z</time></trkpt>
<trkpt lat="41.72796" lon="23.511153"><ele>2563.4</ele><time>2026-03-15T12:34:06.000Z</time></trkpt>
<trkpt lat="41.727965" lon="23.511171"><ele>2562.7</ele><time>2026-03-15T12:34:07.000Z</time></trkpt>
<trkpt lat="41.72797" lon="23.511189"><ele>2562.7</ele><time>2026-03-15T12:34:08.000Z</time></trkpt>
<trkpt lat="41.727975" lon="23.511207"><ele>2562.7</ele><time>2026-03-15T12:34:09.000Z</time></trkpt>
<trkpt lat="41.727978" lon="23.511225"><ele>2562.7</ele><time>2026-03-15T12:34:10.000Z</time></trkpt>
<trkpt lat="41.727982" lon="23.511243"><ele>2562.7</ele><time>2026-03-15T12:34:11.000Z</time></trkpt>
<trkpt lat="41.727987" lon="23.511259"><ele>2562.3</ele><time>2026-03-15T12:34:12.000Z</time></trkpt>
<trkpt lat="41.727992" lon="23.511275"><ele>2562.3</ele><time>2026-03-15T12:34:13.000Z</time></trkpt>
<trkpt lat="41.727996" lon="23.511291"><ele>2562.3</ele><time>2026-03-15T12:34:14.000Z</time></trkpt>
<trkpt lat="41.728002" lon="23.511305"><ele>2562.3</ele><time>2026-03-15T12:34:15.000Z</time></trkpt>
<trkpt lat="41.728007" lon="23.511319"><ele>2562.3</ele><time>2026-03-15T12:34:16.000Z</time></trkpt>
<trkpt lat="41.728011" lon="23.511334"><ele>2562.1</ele><time>2026-03-15T12:34:17.000Z</time></trkpt>
<trkpt lat="41.728014" lon="23.51135"><ele>2562.1</ele><time>2026-03-15T12:34:18.000Z</time></trkpt>
<trkpt lat="41.728019" lon="23.511366"><ele>2562.1</ele><time>2026-03-15T12:34:19.000Z</time></trkpt>
<trkpt lat="41.728023" lon="23.511383"><ele>2562.1</ele><time>2026-03-15T12:34:20.000Z</time></trkpt>
<trkpt lat="41.728026" lon="23.511399"><ele>2562.1</ele><time>2026-03-15T12:34:21.000Z</time></trkpt>
<trkpt lat="41.728029" lon="23.511414"><ele>2561.8</ele><time>2026-03-15T12:34:22.000Z</time></trkpt>
<trkpt lat="41.72803" lon="23.511428"><ele>2561.8</ele><time>2026-03-15T12:34:23.000Z</time></trkpt>
<trkpt lat="41.728031" lon="23.511443"><ele>2561.8</ele><time>2026-03-15T12:34:24.000Z</time></trkpt>
<trkpt lat="41.728032" lon="23.511458"><ele>2561.8</ele><time>2026-03-15T12:34:25.000Z</time></trkpt>
<trkpt lat="41.728034" lon="23.511474"><ele>2561.8</ele><time>2026-03-15T12:34:26.000Z</time></trkpt>
<trkpt lat="41.728036" lon="23.51149"><ele>2561.3</ele><time>2026-03-15T12:34:27.000Z</time></trkpt>
<trkpt lat="41.72804" lon="23.511507"><ele>2561.3</ele><time>2026-03-15T12:34:28.000Z</time></trkpt>
<trkpt lat="41.728043" lon="23.511524"><ele>2561.3</ele><time>2026-03-15T12:34:29.000Z</time></trkpt>
<trkpt lat="41.728046" lon="23.511541"><ele>2561.3</ele><time>2026-03-15T12:34:30.000Z</time></trkpt>
<trkpt lat="41.728049" lon="23.511559"><ele>2561.3</ele><time>2026-03-15T12:34:31.000Z</time></trkpt>
<trkpt lat="41.728051" lon="23.511575"><ele>2561</ele><time>2026-03-15T12:34:32.000Z</time></trkpt>
<trkpt lat="41.728053" lon="23.511591"><ele>2561</ele><time>2026-03-15T12:34:33.000Z</time></trkpt>
<trkpt lat="41.728055" lon="23.511607"><ele>2561</ele><time>2026-03-15T12:34:34.000Z</time></trkpt>
<trkpt lat="41.728056" lon="23.511621"><ele>2561</ele><time>2026-03-15T12:34:35.000Z</time></trkpt>
<trkpt lat="41.72806" lon="23.511634"><ele>2561</ele><time>2026-03-15T12:34:36.000Z</time></trkpt>
<trkpt lat="41.728065" lon="23.511649"><ele>2560.4</ele><time>2026-03-15T12:34:37.000Z</time></trkpt>
<trkpt lat="41.728069" lon="23.511664"><ele>2560.4</ele><time>2026-03-15T12:34:38.000Z</time></trkpt>
<trkpt lat="41.728072" lon="23.511679"><ele>2560.4</ele><time>2026-03-15T12:34:39.000Z</time></trkpt>
<trkpt lat="41.728076" lon="23.511694"><ele>2560.4</ele><time>2026-03-15T12:34:40.000Z</time></trkpt>
<trkpt lat="41.728079" lon="23.51171"><ele>2560.4</ele><time>2026-03-15T12:34:41.000Z</time></trkpt>
<trkpt lat="41.728082" lon="23.511725"><ele>2559.7</ele><time>2026-03-15T12:34:42.000Z</time></trkpt>
<trkpt lat="41.728085" lon="23.511739"><ele>2559.7</ele><time>2026-03-15T12:34:43.000Z</time></trkpt>
<trkpt lat="41.728089" lon="23.511752"><ele>2559.7</ele><time>2026-03-15T12:34:44.000Z</time></trkpt>
<trkpt lat="41.728094" lon="23.511765"><ele>2559.7</ele><time>2026-03-15T12:34:45.000Z</time></trkpt>
<trkpt lat="41.728098" lon="23.511778"><ele>2559.7</ele><time>2026-03-15T12:34:46.000Z</time></trkpt>
<trkpt lat="41.728101" lon="23.511791"><ele>2559.2</ele><time>2026-03-15T12:34:47.000Z</time></trkpt>
<trkpt lat="41.728105" lon="23.511804"><ele>2559.2</ele><time>2026-03-15T12:34:48.000Z</time></trkpt>
<trkpt lat="41.728107" lon="23.511817"><ele>2559.2</ele><time>2026-03-15T12:34:49.000Z</time></trkpt>
<trkpt lat="41.728109" lon="23.511829"><ele>2559.2</ele><time>2026-03-15T12:34:50.000Z</time></trkpt>
<trkpt lat="41.728112" lon="23.511839"><ele>2559.2</ele><time>2026-03-15T12:34:51.000Z</time></trkpt>
<trkpt lat="41.728114" lon="23.511849"><ele>2558.4</ele><time>2026-03-15T12:34:52.000Z</time></trkpt>
<trkpt lat="41.728117" lon="23.51186"><ele>2558.4</ele><time>2026-03-15T12:34:53.000Z</time></trkpt>
<trkpt lat="41.728121" lon="23.511873"><ele>2558.4</ele><time>2026-03-15T12:34:54.000Z</time></trkpt>
<trkpt lat="41.728125" lon="23.511889"><ele>2558.4</ele><time>2026-03-15T12:34:55.000Z</time></trkpt>
<trkpt lat="41.728127" lon="23.511908"><ele>2558.4</ele><time>2026-03-15T12:34:56.000Z</time></trkpt>
<trkpt lat="41.728131" lon="23.511926"><ele>2557.6</ele><time>2026-03-15T12:34:57.000Z</time></trkpt>
<trkpt lat="41.728135" lon="23.511943"><ele>2557.6</ele><time>2026-03-15T12:34:58.000Z</time></trkpt>
<trkpt lat="41.72814" lon="23.511961"><ele>2557.6</ele><time>2026-03-15T12:34:59.000Z</time></trkpt>
<trkpt lat="41.728144" lon="23.511976"><ele>2557.6</ele><time>2026-03-15T12:35:00.000Z</time></trkpt>
<trkpt lat="41.728149" lon="23.511989"><ele>2557.6</ele><time>2026-03-15T12:35:01.000Z</time></trkpt>
<trkpt lat="41.728155" lon="23.512003"><ele>2557.3</ele><time>2026-03-15T12:35:02.000Z</time></trkpt>
<trkpt lat="41.728158" lon="23.512017"><ele>2557.3</ele><time>2026-03-15T12:35:03.000Z</time></trkpt>
<trkpt lat="41.728162" lon="23.512031"><ele>2557.3</ele><time>2026-03-15T12:35:04.000Z</time></trkpt>
<trkpt lat="41.728166" lon="23.512047"><ele>2557.3</ele><time>2026-03-15T12:35:05.000Z</time></trkpt>
<trkpt lat="41.728169" lon="23.512063"><ele>2557.3</ele><time>2026-03-15T12:35:06.000Z</time></trkpt>
<trkpt lat="41.728174" lon="23.512078"><ele>2556.8</ele><time>2026-03-15T12:35:07.000Z</time></trkpt>
<trkpt lat="41.728178" lon="23.512095"><ele>2556.8</ele><time>2026-03-15T12:35:08.000Z</time></trkpt>
<trkpt lat="41.728183" lon="23.51211"><ele>2556.8</ele><time>2026-03-15T12:35:09.000Z</time></trkpt>
<trkpt lat="41.728187" lon="23.512127"><ele>2556.8</ele><time>2026-03-15T12:35:10.000Z</time></trkpt>
<trkpt lat="41.728191" lon="23.512143"><ele>2556.8</ele><time>2026-03-15T12:35:11.000Z</time></trkpt>
<trkpt lat="41.728194" lon="23.51216"><ele>2556.2</ele><time>2026-03-15T12:35:12.000Z</time></trkpt>
<trkpt lat="41.728199" lon="23.512175"><ele>2556.2</ele><time>2026-03-15T12:35:13.000Z</time></trkpt>
<trkpt lat="41.728204" lon="23.51219"><ele>2556.2</ele><time>2026-03-15T12:35:14.000Z</time></trkpt>
<trkpt lat="41.72821" lon="23.512205"><ele>2556.2</ele><time>2026-03-15T12:35:15.000Z</time></trkpt>
<trkpt lat="41.728216" lon="23.512219"><ele>2556.2</ele><time>2026-03-15T12:35:16.000Z</time></trkpt>
<trkpt lat="41.728221" lon="23.512234"><ele>2555.9</ele><time>2026-03-15T12:35:17.000Z</time></trkpt>
<trkpt lat="41.728225" lon="23.512249"><ele>2555.9</ele><time>2026-03-15T12:35:18.000Z</time></trkpt>
<trkpt lat="41.728229" lon="23.512265"><ele>2555.9</ele><time>2026-03-15T12:35:19.000Z</time></trkpt>
<trkpt lat="41.728234" lon="23.512281"><ele>2555.9</ele><time>2026-03-15T12:35:20.000Z</time></trkpt>
<trkpt lat="41.728238" lon="23.512297"><ele>2555.9</ele><time>2026-03-15T12:35:21.000Z</time></trkpt>
<trkpt lat="41.728242" lon="23.512313"><ele>2555.2</ele><time>2026-03-15T12:35:22.000Z</time></trkpt>
<trkpt lat="41.728247" lon="23.512329"><ele>2555.2</ele><time>2026-03-15T12:35:23.000Z</time></trkpt>
<trkpt lat="41.728251" lon="23.512344"><ele>2555.2</ele><time>2026-03-15T12:35:24.000Z</time></trkpt>
<trkpt lat="41.728255" lon="23.51236"><ele>2555.2</ele><time>2026-03-15T12:35:25.000Z</time></trkpt>
<trkpt lat="41.728258" lon="23.512375"><ele>2555.2</ele><time>2026-03-15T12:35:26.000Z</time></trkpt>
<trkpt lat="41.728262" lon="23.512391"><ele>2554.7</ele><time>2026-03-15T12:35:27.000Z</time></trkpt>
<trkpt lat="41.728265" lon="23.512407"><ele>2554.7</ele><time>2026-03-15T12:35:28.000Z</time></trkpt>
<trkpt lat="41.728269" lon="23.512422"><ele>2554.7</ele><time>2026-03-15T12:35:29.000Z</time></trkpt>
<trkpt lat="41.728274" lon="23.512438"><ele>2554.7</ele><time>2026-03-15T12:35:30.000Z</time></trkpt>
<trkpt lat="41.728277" lon="23.512453"><ele>2554.7</ele><time>2026-03-15T12:35:31.000Z</time></trkpt>
<trkpt lat="41.728281" lon="23.512467"><ele>2554.4</ele><time>2026-03-15T12:35:32.000Z</time></trkpt>
<trkpt lat="41.728284" lon="23.512481"><ele>2554.4</ele><time>2026-03-15T12:35:33.000Z</time></trkpt>
<trkpt lat="41.728287" lon="23.512496"><ele>2554.4</ele><time>2026-03-15T12:35:34.000Z</time></trkpt>
<trkpt lat="41.72829" lon="23.512512"><ele>2554.4</ele><time>2026-03-15T12:35:35.000Z</time></trkpt>
<trkpt lat="41.728295" lon="23.512527"><ele>2554.4</ele><time>2026-03-15T12:35:36.000Z</time></trkpt>
<trkpt lat="41.7283" lon="23.512544"><ele>2553.7</ele><time>2026-03-15T12:35:37.000Z</time></trkpt>
<trkpt lat="41.728304" lon="23.51256"><ele>2553.7</ele><time>2026-03-15T12:35:38.000Z</time></trkpt>
<trkpt lat="41.728307" lon="23.512576"><ele>2553.7</ele><time>2026-03-15T12:35:39.000Z</time></trkpt>
<trkpt lat="41.72831" lon="23.512592"><ele>2553.7</ele><time>2026-03-15T12:35:40.000Z</time></trkpt>
<trkpt lat="41.728314" lon="23.512608"><ele>2553.7</ele><time>2026-03-15T12:35:41.000Z</time></trkpt>
<trkpt lat="41.728317" lon="23.512622"><ele>2552.9</ele><time>2026-03-15T12:35:42.000Z</time></trkpt>
<trkpt lat="41.728321" lon="23.512638"><ele>2552.9</ele><time>2026-03-15T12:35:43.000Z</time></trkpt>
<trkpt lat="41.728326" lon="23.512652"><ele>2552.9</ele><time>2026-03-15T12:35:44.000Z</time></trkpt>
<trkpt lat="41.728332" lon="23.512666"><ele>2552.9</ele><time>2026-03-15T12:35:45.000Z</time></trkpt>
<trkpt lat="41.728336" lon="23.512682"><ele>2552.9</ele><time>2026-03-15T12:35:46.000Z</time></trkpt>
<trkpt lat="41.728341" lon="23.512699"><ele>2552.5</ele><time>2026-03-15T12:35:47.000Z</time></trkpt>
<trkpt lat="41.728347" lon="23.512716"><ele>2552.5</ele><time>2026-03-15T12:35:48.000Z</time></trkpt>
<trkpt lat="41.728351" lon="23.512733"><ele>2552.5</ele><time>2026-03-15T12:35:49.000Z</time></trkpt>
<trkpt lat="41.728355" lon="23.512752"><ele>2552.5</ele><time>2026-03-15T12:35:50.000Z</time></trkpt>
<trkpt lat="41.728359" lon="23.512771"><ele>2552.5</ele><time>2026-03-15T12:35:51.000Z</time></trkpt>
<trkpt lat="41.728363" lon="23.51279"><ele>2551.5</ele><time>2026-03-15T12:35:52.000Z</time></trkpt>
<trkpt lat="41.728366" lon="23.512808"><ele>2551.5</ele><time>2026-03-15T12:35:53.000Z</time></trkpt>
<trkpt lat="41.72837" lon="23.512827"><ele>2551.5</ele><time>2026-03-15T12:35:54.000Z</time></trkpt>
<trkpt lat="41.728375" lon="23.512845"><ele>2551.5</ele><time>2026-03-15T12:35:55.000Z</time></trkpt>
<trkpt lat="41.728379" lon="23.512863"><ele>2551.5</ele><time>2026-03-15T12:35:56.000Z</time></trkpt>
<trkpt lat="41.728384" lon="23.512881"><ele>2550.5</ele><time>2026-03-15T12:35:57.000Z</time></trkpt>
<trkpt lat="41.72839" lon="23.512899"><ele>2550.5</ele><time>2026-03-15T12:35:58.000Z</time></trkpt>
<trkpt lat="41.728394" lon="23.512917"><ele>2550.5</ele><time>2026-03-15T12:35:59.000Z</time></trkpt>
<trkpt lat="41.728398" lon="23.512935"><ele>2550.5</ele><time>2026-03-15T12:36:00.000Z</time></trkpt>
<trkpt lat="41.728403" lon="23.512952"><ele>2550.5</ele><time>2026-03-15T12:36:01.000Z</time></trkpt>
<trkpt lat="41.728407" lon="23.512969"><ele>2550</ele><time>2026-03-15T12:36:02.000Z</time></trkpt>
<trkpt lat="41.72841" lon="23.512986"><ele>2550</ele><time>2026-03-15T12:36:03.000Z</time></trkpt>
<trkpt lat="41.728414" lon="23.513003"><ele>2550</ele><time>2026-03-15T12:36:04.000Z</time></trkpt>
<trkpt lat="41.728417" lon="23.51302"><ele>2550</ele><time>2026-03-15T12:36:05.000Z</time></trkpt>
<trkpt lat="41.728419" lon="23.513039"><ele>2550</ele><time>2026-03-15T12:36:06.000Z</time></trkpt>
<trkpt lat="41.728421" lon="23.513057"><ele>2548.8</ele><time>2026-03-15T12:36:07.000Z</time></trkpt>
<trkpt lat="41.728422" lon="23.513075"><ele>2548.8</ele><time>2026-03-15T12:36:08.000Z</time></trkpt>
<trkpt lat="41.728423" lon="23.513093"><ele>2548.8</ele><time>2026-03-15T12:36:09.000Z</time></trkpt>
<trkpt lat="41.728424" lon="23.51311"><ele>2548.8</ele><time>2026-03-15T12:36:10.000Z</time></trkpt>
<trkpt lat="41.728425" lon="23.513126"><ele>2548.8</ele><time>2026-03-15T12:36:11.000Z</time></trkpt>
<trkpt lat="41.728427" lon="23.513142"><ele>2547.8</ele><time>2026-03-15T12:36:12.000Z</time></trkpt>
<trkpt lat="41.728428" lon="23.513158"><ele>2547.8</ele><time>2026-03-15T12:36:13.000Z</time></trkpt>
<trkpt lat="41.72843" lon="23.513174"><ele>2547.8</ele><time>2026-03-15T12:36:14.000Z</time></trkpt>
<trkpt lat="41.728431" lon="23.513191"><ele>2547.8</ele><time>2026-03-15T12:36:15.000Z</time></trkpt>
<trkpt lat="41.728433" lon="23.513209"><ele>2547.8</ele><time>2026-03-15T12:36:16.000Z</time></trkpt>
<trkpt lat="41.728435" lon="23.513227"><ele>2547.4</ele><time>2026-03-15T12:36:17.000Z</time></trkpt>
<trkpt lat="41.728437" lon="23.513245"><ele>2547.4</ele><time>2026-03-15T12:36:18.000Z</time></trkpt>
<trkpt lat="41.728441" lon="23.513263"><ele>2547.4</ele><time>2026-03-15T12:36:19.000Z</time></trkpt>
<trkpt lat="41.728445" lon="23.513279"><ele>2547.4</ele><time>2026-03-15T12:36:20.000Z</time></trkpt>
<trkpt lat="41.72845" lon="23.513296"><ele>2547.4</ele><time>2026-03-15T12:36:21.000Z</time></trkpt>
<trkpt lat="41.728455" lon="23.513312"><ele>2546.5</ele><time>2026-03-15T12:36:22.000Z</time></trkpt>
<trkpt lat="41.728459" lon="23.51333"><ele>2546.5</ele><time>2026-03-15T12:36:23.000Z</time></trkpt>
<trkpt lat="41.728464" lon="23.513346"><ele>2546.5</ele><time>2026-03-15T12:36:24.000Z</time></trkpt>
<trkpt lat="41.728469" lon="23.513362"><ele>2546.5</ele><time>2026-03-15T12:36:25.000Z</time></trkpt>
<trkpt lat="41.728473" lon="23.513378"><ele>2546.5</ele><time>2026-03-15T12:36:26.000Z</time></trkpt>
<trkpt lat="41.728478" lon="23.513393"><ele>2545.6</ele><time>2026-03-15T12:36:27.000Z</time></trkpt>
<trkpt lat="41.728483" lon="23.513405"><ele>2545.6</ele><time>2026-03-15T12:36:28.000Z</time></trkpt>
<trkpt lat="41.728487" lon="23.513419"><ele>2545.6</ele><time>2026-03-15T12:36:29.000Z</time></trkpt>
<trkpt lat="41.72849" lon="23.513433"><ele>2545.6</ele><time>2026-03-15T12:36:30.000Z</time></trkpt>
<trkpt lat="41.728493" lon="23.513448"><ele>2545.6</ele><time>2026-03-15T12:36:31.000Z</time></trkpt>
<trkpt lat="41.728496" lon="23.513464"><ele>2545.2</ele><time>2026-03-15T12:36:32.000Z</time></trkpt>
<trkpt lat="41.728499" lon="23.513483"><ele>2545.2</ele><time>2026-03-15T12:36:33.000Z</time></trkpt>
<trkpt lat="41.728503" lon="23.513502"><ele>2545.2</ele><time>2026-03-15T12:36:34.000Z</time></trkpt>
<trkpt lat="41.728506" lon="23.513521"><ele>2545.2</ele><time>2026-03-15T12:36:35.000Z</time></trkpt>
<trkpt lat="41.72851" lon="23.513541"><ele>2545.2</ele><time>2026-03-15T12:36:36.000Z</time></trkpt>
<trkpt lat="41.728515" lon="23.51356"><ele>2544.6</ele><time>2026-03-15T12:36:37.000Z</time></trkpt>
<trkpt lat="41.728519" lon="23.513579"><ele>2544.6</ele><time>2026-03-15T12:36:38.000Z</time></trkpt>
<trkpt lat="41.728523" lon="23.513596"><ele>2544.6</ele><time>2026-03-15T12:36:39.000Z</time></trkpt>
<trkpt lat="41.728527" lon="23.513612"><ele>2544.6</ele><time>2026-03-15T12:36:40.000Z</time></trkpt>
<trkpt lat="41.728531" lon="23.513627"><ele>2544.6</ele><time>2026-03-15T12:36:41.000Z</time></trkpt>
<trkpt lat="41.728535" lon="23.513643"><ele>2544.1</ele><time>2026-03-15T12:36:42.000Z</time></trkpt>
<trkpt lat="41.728538" lon="23.513657"><ele>2544.1</ele><time>2026-03-15T12:36:43.000Z</time></trkpt>
<trkpt lat="41.728541" lon="23.513671"><ele>2544.1</ele><time>2026-03-15T12:36:44.000Z</time></trkpt>
<trkpt lat="41.728543" lon="23.513687"><ele>2544.1</ele><time>2026-03-15T12:36:45.000Z</time></trkpt>
<trkpt lat="41.728545" lon="23.513703"><ele>2544.1</ele><time>2026-03-15T12:36:46.000Z</time></trkpt>
<trkpt lat="41.728545" lon="23.513718"><ele>2543.8</ele><time>2026-03-15T12:36:47.000Z</time></trkpt>
<trkpt lat="41.728544" lon="23.513734"><ele>2543.8</ele><time>2026-03-15T12:36:48.000Z</time></trkpt>
<trkpt lat="41.728543" lon="23.51375"><ele>2543.8</ele><time>2026-03-15T12:36:49.000Z</time></trkpt>
<trkpt lat="41.72854" lon="23.513764"><ele>2543.8</ele><time>2026-03-15T12:36:50.000Z</time></trkpt>
<trkpt lat="41.728537" lon="23.51378"><ele>2543.8</ele><time>2026-03-15T12:36:51.000Z</time></trkpt>
<trkpt lat="41.728534" lon="23.513796"><ele>2543.2</ele><time>2026-03-15T12:36:52.000Z</time></trkpt>
<trkpt lat="41.728531" lon="23.513813"><ele>2543.2</ele><time>2026-03-15T12:36:53.000Z</time></trkpt>
<trkpt lat="41.728529" lon="23.51383"><ele>2543.2</ele><time>2026-03-15T12:36:54.000Z</time></trkpt>
<trkpt lat="41.728527" lon="23.513848"><ele>2543.2</ele><time>2026-03-15T12:36:55.000Z</time></trkpt>
<trkpt lat="41.728525" lon="23.513865"><ele>2543.2</ele><time>2026-03-15T12:36:56.000Z</time></trkpt>
<trkpt lat="41.728523" lon="23.513882"><ele>2542.5</ele><time>2026-03-15T12:36:57.000Z</time></trkpt>
<trkpt lat="41.728521" lon="23.513898"><ele>2542.5</ele><time>2026-03-15T12:36:58.000Z</time></trkpt>
<trkpt lat="41.728519" lon="23.513914"><ele>2542.5</ele><time>2026-03-15T12:36:59.000Z</time></trkpt>
<trkpt lat="41.728516" lon="23.513929"><ele>2542.5</ele><time>2026-03-15T12:37:00.000Z</time></trkpt>
<trkpt lat="41.728514" lon="23.513945"><ele>2542.5</ele><time>2026-03-15T12:37:01.000Z</time></trkpt>
<trkpt lat="41.728512" lon="23.513962"><ele>2542</ele><time>2026-03-15T12:37:02.000Z</time></trkpt>
<trkpt lat="41.728509" lon="23.513978"><ele>2542</ele><time>2026-03-15T12:37:03.000Z</time></trkpt>
<trkpt lat="41.728506" lon="23.513994"><ele>2542</ele><time>2026-03-15T12:37:04.000Z</time></trkpt>
<trkpt lat="41.728502" lon="23.514011"><ele>2542</ele><time>2026-03-15T12:37:05.000Z</time></trkpt>
<trkpt lat="41.728498" lon="23.514027"><ele>2542</ele><time>2026-03-15T12:37:06.000Z</time></trkpt>
<trkpt lat="41.728493" lon="23.514042"><ele>2540.7</ele><time>2026-03-15T12:37:07.000Z</time></trkpt>
<trkpt lat="41.728489" lon="23.514057"><ele>2540.7</ele><time>2026-03-15T12:37:08.000Z</time></trkpt>
<trkpt lat="41.728487" lon="23.514073"><ele>2540.7</ele><time>2026-03-15T12:37:09.000Z</time></trkpt>
<trkpt lat="41.728485" lon="23.514089"><ele>2540.7</ele><time>2026-03-15T12:37:10.000Z</time></trkpt>
<trkpt lat="41.728483" lon="23.514104"><ele>2540.7</ele><time>2026-03-15T12:37:11.000Z</time></trkpt>
<trkpt lat="41.728481" lon="23.514121"><ele>2539</ele><time>2026-03-15T12:37:12.000Z</time></trkpt>
<trkpt lat="41.728477" lon="23.514138"><ele>2539</ele><time>2026-03-15T12:37:13.000Z</time></trkpt>
<trkpt lat="41.728474" lon="23.514154"><ele>2539</ele><time>2026-03-15T12:37:14.000Z</time></trkpt>
<trkpt lat="41.728469" lon="23.514168"><ele>2539</ele><time>2026-03-15T12:37:15.000Z</time></trkpt>
<trkpt lat="41.728465" lon="23.514183"><ele>2539</ele><time>2026-03-15T12:37:16.000Z</time></trkpt>
<trkpt lat="41.728462" lon="23.514197"><ele>2538.1</ele><time>2026-03-15T12:37:17.000Z</time></trkpt>
<trkpt lat="41.728459" lon="23.514212"><ele>2538.1</ele><time>2026-03-15T12:37:18.000Z</time></trkpt>
<trkpt lat="41.728455" lon="23.514226"><ele>2538.1</ele><time>2026-03-15T12:37:19.000Z</time></trkpt>
<trkpt lat="41.728452" lon="23.514242"><ele>2538.1</ele><time>2026-03-15T12:37:20.000Z</time></trkpt>
<trkpt lat="41.728448" lon="23.514259"><ele>2538.1</ele><time>2026-03-15T12:37:21.000Z</time></trkpt>
<trkpt lat="41.728444" lon="23.514277"><ele>2536.3</ele><time>2026-03-15T12:37:22.000Z</time></trkpt>
<trkpt lat="41.72844" lon="23.514294"><ele>2536.3</ele><time>2026-03-15T12:37:23.000Z</time></trkpt>
<trkpt lat="41.728436" lon="23.514313"><ele>2536.3</ele><time>2026-03-15T12:37:24.000Z</time></trkpt>
<trkpt lat="41.728431" lon="23.514331"><ele>2536.3</ele><time>2026-03-15T12:37:25.000Z</time></trkpt>
<trkpt lat="41.728427" lon="23.514347"><ele>2536.3</ele><time>2026-03-15T12:37:26.000Z</time></trkpt>
<trkpt lat="41.728422" lon="23.514362"><ele>2534.8</ele><time>2026-03-15T12:37:27.000Z</time></trkpt>
<trkpt lat="41.728419" lon="23.514377"><ele>2534.8</ele><time>2026-03-15T12:37:28.000Z</time></trkpt>
<trkpt lat="41.728415" lon="23.514391"><ele>2534.8</ele><time>2026-03-15T12:37:29.000Z</time></trkpt>
<trkpt lat="41.728412" lon="23.514404"><ele>2534.8</ele><time>2026-03-15T12:37:30.000Z</time></trkpt>
<trkpt lat="41.728409" lon="23.514418"><ele>2534.8</ele><time>2026-03-15T12:37:31.000Z</time></trkpt>
<trkpt lat="41.728406" lon="23.514433"><ele>2534.1</ele><time>2026-03-15T12:37:32.000Z</time></trkpt>
<trkpt lat="41.728402" lon="23.514449"><ele>2534.1</ele><time>2026-03-15T12:37:33.000Z</time></trkpt>
<trkpt lat="41.728398" lon="23.514465"><ele>2534.1</ele><time>2026-03-15T12:37:34.000Z</time></trkpt>
<trkpt lat="41.728393" lon="23.514481"><ele>2534.1</ele><time>2026-03-15T12:37:35.000Z</time></trkpt>
<trkpt lat="41.728389" lon="23.514497"><ele>2534.1</ele><time>2026-03-15T12:37:36.000Z</time></trkpt>
<trkpt lat="41.728385" lon="23.514513"><ele>2532.5</ele><time>2026-03-15T12:37:37.000Z</time></trkpt>
<trkpt lat="41.728381" lon="23.514529"><ele>2532.5</ele><time>2026-03-15T12:37:38.000Z</time></trkpt>
<trkpt lat="41.728377" lon="23.514545"><ele>2532.5</ele><time>2026-03-15T12:37:39.000Z</time></trkpt>
<trkpt lat="41.728372" lon="23.51456"><ele>2532.5</ele><time>2026-03-15T12:37:40.000Z</time></trkpt>
<trkpt lat="41.728367" lon="23.514575"><ele>2532.5</ele><time>2026-03-15T12:37:41.000Z</time></trkpt>
<trkpt lat="41.728362" lon="23.514589"><ele>2530.7</ele><time>2026-03-15T12:37:42.000Z</time></trkpt>
<trkpt lat="41.72836" lon="23.514603"><ele>2530.7</ele><time>2026-03-15T12:37:43.000Z</time></trkpt>
<trkpt lat="41.728358" lon="23.514616"><ele>2530.7</ele><time>2026-03-15T12:37:44.000Z</time></trkpt>
<trkpt lat="41.728356" lon="23.51463"><ele>2530.7</ele><time>2026-03-15T12:37:45.000Z</time></trkpt>
<trkpt lat="41.728354" lon="23.514644"><ele>2530.7</ele><time>2026-03-15T12:37:46.000Z</time></trkpt>
<trkpt lat="41.728351" lon="23.514659"><ele>2529.8</ele><time>2026-03-15T12:37:47.000Z</time></trkpt>
<trkpt lat="41.728347" lon="23.514675"><ele>2529.8</ele><time>2026-03-15T12:37:48.000Z</time></trkpt>
<trkpt lat="41.728342" lon="23.514691"><ele>2529.8</ele><time>2026-03-15T12:37:49.000Z</time></trkpt>
<trkpt lat="41.728338" lon="23.514706"><ele>2529.8</ele><time>2026-03-15T12:37:50.000Z</time></trkpt>
<trkpt lat="41.728333" lon="23.514722"><ele>2529.8</ele><time>2026-03-15T12:37:51.000Z</time></trkpt>
<trkpt lat="41.728329" lon="23.514736"><ele>2527.9</ele><time>2026-03-15T12:37:52.000Z</time></trkpt>
<trkpt lat="41.728324" lon="23.51475"><ele>2527.9</ele><time>2026-03-15T12:37:53.000Z</time></trkpt>
<trkpt lat="41.728321" lon="23.514765"><ele>2527.9</ele><time>2026-03-15T12:37:54.000Z</time></trkpt>
<trkpt lat="41.728318" lon="23.51478"><ele>2527.9</ele><time>2026-03-15T12:37:55.000Z</time></trkpt>
<trkpt lat="41.728315" lon="23.514793"><ele>2527.9</ele><time>2026-03-15T12:37:56.000Z</time></trkpt>
<trkpt lat="41.728314" lon="23.514803"><ele>2526.1</ele><time>2026-03-15T12:37:57.000Z</time></trkpt>
<trkpt lat="41.728314" lon="23.514811"><ele>2526.1</ele><time>2026-03-15T12:37:58.000Z</time></trkpt>
<trkpt lat="41.728314" lon="23.514816"><ele>2526.1</ele><time>2026-03-15T12:37:59.000Z</time></trkpt>
<trkpt lat="41.728315" lon="23.514819"><ele>2526.1</ele><time>2026-03-15T12:38:00.000Z</time></trkpt>
<trkpt lat="41.728317" lon="23.514821"><ele>2526.1</ele><time>2026-03-15T12:38:01.000Z</time></trkpt>
<trkpt lat="41.728317" lon="23.514827"><ele>2525.3</ele><time>2026-03-15T12:38:02.000Z</time></trkpt>
<trkpt lat="41.728318" lon="23.514835"><ele>2525.3</ele><time>2026-03-15T12:38:03.000Z</time></trkpt>
<trkpt lat="41.728318" lon="23.514846"><ele>2525.3</ele><time>2026-03-15T12:38:04.000Z</time></trkpt>
<trkpt lat="41.728317" lon="23.514859"><ele>2525.3</ele><time>2026-03-15T12:38:05.000Z</time></trkpt>
<trkpt lat="41.728316" lon="23.514874"><ele>2525.3</ele><time>2026-03-15T12:38:06.000Z</time></trkpt>
<trkpt lat="41.728313" lon="23.51489"><ele>2523.7</ele><time>2026-03-15T12:38:07.000Z</time></trkpt>
<trkpt lat="41.728311" lon="23.514905"><ele>2523.7</ele><time>2026-03-15T12:38:08.000Z</time></trkpt>
<trkpt lat="41.728308" lon="23.514921"><ele>2523.7</ele><time>2026-03-15T12:38:09.000Z</time></trkpt>
<trkpt lat="41.728306" lon="23.514937"><ele>2523.7</ele><time>2026-03-15T12:38:10.000Z</time></trkpt>
<trkpt lat="41.728303" lon="23.514954"><ele>2523.7</ele><time>2026-03-15T12:38:11.000Z</time></trkpt>
<trkpt lat="41.728301" lon="23.51497"><ele>2522.3</ele><time>2026-03-15T12:38:12.000Z</time></trkpt>
<trkpt lat="41.7283" lon="23.514984"><ele>2522.3</ele><time>2026-03-15T12:38:13.000Z</time></trkpt>
<trkpt lat="41.7283" lon="23.514997"><ele>2522.3</ele><time>2026-03-15T12:38:14.000Z</time></trkpt>
<trkpt lat="41.728298" lon="23.515011"><ele>2522.3</ele><time>2026-03-15T12:38:15.000Z</time></trkpt>
<trkpt lat="41.728298" lon="23.515024"><ele>2522.3</ele><time>2026-03-15T12:38:16.000Z</time></trkpt>
<trkpt lat="41.728297" lon="23.515038"><ele>2521.6</ele><time>2026-03-15T12:38:17.000Z</time></trkpt>
<trkpt lat="41.728295" lon="23.515052"><ele>2521.6</ele><time>2026-03-15T12:38:18.000Z</time></trkpt>
<trkpt lat="41.728294" lon="23.515066"><ele>2521.6</ele><time>2026-03-15T12:38:19.000Z</time></trkpt>
<trkpt lat="41.728293" lon="23.515079"><ele>2521.6</ele><time>2026-03-15T12:38:20.000Z</time></trkpt>
<trkpt lat="41.728291" lon="23.515094"><ele>2521.6</ele><time>2026-03-15T12:38:21.000Z</time></trkpt>
<trkpt lat="41.728288" lon="23.515109"><ele>2520.2</ele><time>2026-03-15T12:38:22.000Z</time></trkpt>
<trkpt lat="41.728285" lon="23.515125"><ele>2520.2</ele><time>2026-03-15T12:38:23.000Z</time></trkpt>
<trkpt lat="41.728279" lon="23.515138"><ele>2520.2</ele><time>2026-03-15T12:38:24.000Z</time></trkpt>
<trkpt lat="41.728272" lon="23.515152"><ele>2520.2</ele><time>2026-03-15T12:38:25.000Z</time></trkpt>
<trkpt lat="41.728267" lon="23.515161"><ele>2520.2</ele><time>2026-03-15T12:38:26.000Z</time></trkpt>
<trkpt lat="41.728262" lon="23.515171"><ele>2518.5</ele><time>2026-03-15T12:38:27.000Z</time></trkpt>
<trkpt lat="41.728258" lon="23.515179"><ele>2518.5</ele><time>2026-03-15T12:38:28.000Z</time></trkpt>
<trkpt lat="41.728257" lon="23.515186"><ele>2518.5</ele><time>2026-03-15T12:38:29.000Z</time></trkpt>
<trkpt lat="41.728257" lon="23.515192"><ele>2518.5</ele><time>2026-03-15T12:38:30.000Z</time></trkpt>
<trkpt lat="41.728257" lon="23.515199"><ele>2518.5</ele><time>2026-03-15T12:38:31.000Z</time></trkpt>
<trkpt lat="41.728255" lon="23.515207"><ele>2517.6</ele><time>2026-03-15T12:38:32.000Z</time></trkpt>
<trkpt lat="41.728254" lon="23.515216"><ele>2517.6</ele><time>2026-03-15T12:38:33.000Z</time></trkpt>
<trkpt lat="41.728253" lon="23.515228"><ele>2517.6</ele><time>2026-03-15T12:38:34.000Z</time></trkpt>
<trkpt lat="41.728251" lon="23.51524"><ele>2517.6</ele><time>2026-03-15T12:38:35.000Z</time></trkpt>
<trkpt lat="41.728248" lon="23.515253"><ele>2517.6</ele><time>2026-03-15T12:38:36.000Z</time></trkpt>
<trkpt lat="41.728246" lon="23.515264"><ele>2515.9</ele><time>2026-03-15T12:38:37.000Z</time></trkpt>
<trkpt lat="41.728244" lon="23.515275"><ele>2515.9</ele><time>2026-03-15T12:38:38.000Z</time></trkpt>
<trkpt lat="41.728242" lon="23.515284"><ele>2515.9</ele><time>2026-03-15T12:38:39.000Z</time></trkpt>
<trkpt lat="41.728239" lon="23.515293"><ele>2515.9</ele><time>2026-03-15T12:38:40.000Z</time></trkpt>
<trkpt lat="41.728237" lon="23.515302"><ele>2515.9</ele><time>2026-03-15T12:38:41.000Z</time></trkpt>
<trkpt lat="41.728235" lon="23.515309"><ele>2514.4</ele><time>2026-03-15T12:38:42.000Z</time></trkpt>
<trkpt lat="41.728231" lon="23.515317"><ele>2514.4</ele><time>2026-03-15T12:38:43.000Z</time></trkpt>
<trkpt lat="41.728226" lon="23.515327"><ele>2514.4</ele><time>2026-03-15T12:38:44.000Z</time></trkpt>
<trkpt lat="41.72822" lon="23.515337"><ele>2514.4</ele><time>2026-03-15T12:38:45.000Z</time></trkpt>
<trkpt lat="41.728214" lon="23.515346"><ele>2514.4</ele><time>2026-03-15T12:38:46.000Z</time></trkpt>
<trkpt lat="41.728207" lon="23.515356"><ele>2513.7</ele><time>2026-03-15T12:38:47.000Z</time></trkpt>
<trkpt lat="41.728201" lon="23.515366"><ele>2513.7</ele><time>2026-03-15T12:38:48.000Z</time></trkpt>
<trkpt lat="41.728197" lon="23.515376"><ele>2513.7</ele><time>2026-03-15T12:38:49.000Z</time></trkpt>
<trkpt lat="41.728193" lon="23.515385"><ele>2513.7</ele><time>2026-03-15T12:38:50.000Z</time></trkpt>
<trkpt lat="41.728189" lon="23.515396"><ele>2513.7</ele><time>2026-03-15T12:38:51.000Z</time></trkpt>
<trkpt lat="41.728187" lon="23.515406"><ele>2512.3</ele><time>2026-03-15T12:38:52.000Z</time></trkpt>
<trkpt lat="41.728186" lon="23.515416"><ele>2512.3</ele><time>2026-03-15T12:38:53.000Z</time></trkpt>
<trkpt lat="41.728186" lon="23.515427"><ele>2512.3</ele><time>2026-03-15T12:38:54.000Z</time></trkpt>
<trkpt lat="41.728186" lon="23.515438"><ele>2512.3</ele><time>2026-03-15T12:38:55.000Z</time></trkpt>
<trkpt lat="41.728184" lon="23.51545"><ele>2512.3</ele><time>2026-03-15T12:38:56.000Z</time></trkpt>
<trkpt lat="41.728184" lon="23.51546"><ele>2510.8</ele><time>2026-03-15T12:38:57.000Z</time></trkpt>
<trkpt lat="41.728183" lon="23.515469"><ele>2510.8</ele><time>2026-03-15T12:38:58.000Z</time></trkpt>
<trkpt lat="41.728181" lon="23.515479"><ele>2510.8</ele><time>2026-03-15T12:38:59.000Z</time></trkpt>
<trkpt lat="41.728178" lon="23.515489"><ele>2510.8</ele><time>2026-03-15T12:39:00.000Z</time></trkpt>
<trkpt lat="41.728177" lon="23.515498"><ele>2510.8</ele><time>2026-03-15T12:39:01.000Z</time></trkpt>
<trkpt lat="41.728176" lon="23.515508"><ele>2510</ele><time>2026-03-15T12:39:02.000Z</time></trkpt>
<trkpt lat="41.728176" lon="23.515517"><ele>2510</ele><time>2026-03-15T12:39:03.000Z</time></trkpt>
<trkpt lat="41.728176" lon="23.515524"><ele>2510</ele><time>2026-03-15T12:39:04.000Z</time></trkpt>
<trkpt lat="41.728176" lon="23.515528"><ele>2510</ele><time>2026-03-15T12:39:05.000Z</time></trkpt>
<trkpt lat="41.728175" lon="23.515529"><ele>2510</ele><time>2026-03-15T12:39:06.000Z</time></trkpt>
<trkpt lat="41.728176" lon="23.515529"><ele>2508.3</ele><time>2026-03-15T12:39:07.000Z</time></trkpt>
<trkpt lat="41.728176" lon="23.515529"><ele>2508.3</ele><time>2026-03-15T12:39:08.000Z</time></trkpt>
<trkpt lat="41.728176" lon="23.515528"><ele>2508.3</ele><time>2026-03-15T12:39:09.000Z</time></trkpt>
<trkpt lat="41.728176" lon="23.51553"><ele>2508.3</ele><time>2026-03-15T12:39:10.000Z</time></trkpt>
<trkpt lat="41.728176" lon="23.515537"><ele>2508.3</ele><time>2026-03-15T12:39:11.000Z</time></trkpt>
<trkpt lat="41.728175" lon="23.515546"><ele>2506.9</ele><time>2026-03-15T12:39:12.000Z</time></trkpt>
<trkpt lat="41.728175" lon="23.515558"><ele>2506.9</ele><time>2026-03-15T12:39:13.000Z</time></trkpt>
<trkpt lat="41.728174" lon="23.515573"><ele>2506.9</ele><time>2026-03-15T12:39:14.000Z</time></trkpt>
<trkpt lat="41.728173" lon="23.515587"><ele>2506.9</ele><time>2026-03-15T12:39:15.000Z</time></trkpt>
<trkpt lat="41.728173" lon="23.5156"><ele>2506.9</ele><time>2026-03-15T12:39:16.000Z</time></trkpt>
<trkpt lat="41.728171" lon="23.515613"><ele>2506.4</ele><time>2026-03-15T12:39:17.000Z</time></trkpt>
<trkpt lat="41.72817" lon="23.515626"><ele>2506.4</ele><time>2026-03-15T12:39:18.000Z</time></trkpt>
<trkpt lat="41.72817" lon="23.51564"><ele>2506.4</ele><time>2026-03-15T12:39:19.000Z</time></trkpt>
<trkpt lat="41.728169" lon="23.515653"><ele>2506.4</ele><time>2026-03-15T12:39:20.000Z</time></trkpt>
<trkpt lat="41.728169" lon="23.515665"><ele>2506.4</ele><time>2026-03-15T12:39:21.000Z</time></trkpt>
<trkpt lat="41.728169" lon="23.515675"><ele>2505.6</ele><time>2026-03-15T12:39:22.000Z</time></trkpt>
<trkpt lat="41.72817" lon="23.515681"><ele>2505.6</ele><time>2026-03-15T12:39:23.000Z</time></trkpt>
<trkpt lat="41.728169" lon="23.515684"><ele>2505.6</ele><time>2026-03-15T12:39:24.000Z</time></trkpt>
<trkpt lat="41.728168" lon="23.515686"><ele>2505.6</ele><time>2026-03-15T12:39:25.000Z</time></trkpt>
<trkpt lat="41.728165" lon="23.515689"><ele>2505.6</ele><time>2026-03-15T12:39:26.000Z</time></trkpt>
<trkpt lat="41.728162" lon="23.515693"><ele>2504.5</ele><time>2026-03-15T12:39:27.000Z</time></trkpt>
<trkpt lat="41.728158" lon="23.515701"><ele>2504.5</ele><time>2026-03-15T12:39:28.000Z</time></trkpt>
<trkpt lat="41.728154" lon="23.515709"><ele>2504.5</ele><time>2026-03-15T12:39:29.000Z</time></trkpt>
<trkpt lat="41.728149" lon="23.515718"><ele>2504.5</ele><time>2026-03-15T12:39:30.000Z</time></trkpt>
<trkpt lat="41.728145" lon="23.515724"><ele>2504.5</ele><time>2026-03-15T12:39:31.000Z</time></trkpt>
<trkpt lat="41.728143" lon="23.515729"><ele>2503.6</ele><time>2026-03-15T12:39:32.000Z</time></trkpt>
<trkpt lat="41.72814" lon="23.515731"><ele>2503.6</ele><time>2026-03-15T12:39:33.000Z</time></trkpt>
<trkpt lat="41.728139" lon="23.515732"><ele>2503.6</ele><time>2026-03-15T12:39:34.000Z</time></trkpt>
<trkpt lat="41.728137" lon="23.515733"><ele>2503.6</ele><time>2026-03-15T12:39:35.000Z</time></trkpt>
<trkpt lat="41.728134" lon="23.515735"><ele>2503.6</ele><time>2026-03-15T12:39:36.000Z</time></trkpt>
<trkpt lat="41.728131" lon="23.515741"><ele>2501.9</ele><time>2026-03-15T12:39:37.000Z</time></trkpt>
<trkpt lat="41.728127" lon="23.51575"><ele>2501.9</ele><time>2026-03-15T12:39:38.000Z</time></trkpt>
<trkpt lat="41.728122" lon="23.515761"><ele>2501.9</ele><time>2026-03-15T12:39:39.000Z</time></trkpt>
<trkpt lat="41.728117" lon="23.515774"><ele>2501.9</ele><time>2026-03-15T12:39:40.000Z</time></trkpt>
<trkpt lat="41.728112" lon="23.515788"><ele>2501.9</ele><time>2026-03-15T12:39:41.000Z</time></trkpt>
<trkpt lat="41.728107" lon="23.515801"><ele>2500.6</ele><time>2026-03-15T12:39:42.000Z</time></trkpt>
<trkpt lat="41.728102" lon="23.515813"><ele>2500.6</ele><time>2026-03-15T12:39:43.000Z</time></trkpt>
<trkpt lat="41.728096" lon="23.515823"><ele>2500.6</ele><time>2026-03-15T12:39:44.000Z</time></trkpt>
<trkpt lat="41.72809" lon="23.515833"><ele>2500.6</ele><time>2026-03-15T12:39:45.000Z</time></trkpt>
<trkpt lat="41.728085" lon="23.515842"><ele>2500.6</ele><time>2026-03-15T12:39:46.000Z</time></trkpt>
<trkpt lat="41.72808" lon="23.515852"><ele>2500.1</ele><time>2026-03-15T12:39:47.000Z</time></trkpt>
<trkpt lat="41.728074" lon="23.515862"><ele>2500.1</ele><time>2026-03-15T12:39:48.000Z</time></trkpt>
<trkpt lat="41.728069" lon="23.515874"><ele>2500.1</ele><time>2026-03-15T12:39:49.000Z</time></trkpt>
<trkpt lat="41.728064" lon="23.515886"><ele>2500.1</ele><time>2026-03-15T12:39:50.000Z</time></trkpt>
<trkpt lat="41.728058" lon="23.515898"><ele>2500.1</ele><time>2026-03-15T12:39:51.000Z</time></trkpt>
<trkpt lat="41.728052" lon="23.515911"><ele>2498.8</ele><time>2026-03-15T12:39:52.000Z</time></trkpt>
<trkpt lat="41.728047" lon="23.515926"><ele>2498.8</ele><time>2026-03-15T12:39:53.000Z</time></trkpt>
<trkpt lat="41.728043" lon="23.51594"><ele>2498.8</ele><time>2026-03-15T12:39:54.000Z</time></trkpt>
<trkpt lat="41.728037" lon="23.515954"><ele>2498.8</ele><time>2026-03-15T12:39:55.000Z</time></trkpt>
<trkpt lat="41.72803" lon="23.515966"><ele>2498.8</ele><time>2026-03-15T12:39:56.000Z</time></trkpt>
<trkpt lat="41.728023" lon="23.515977"><ele>2497</ele><time>2026-03-15T12:39:57.000Z</time></trkpt>
<trkpt lat="41.728016" lon="23.515987"><ele>2497</ele><time>2026-03-15T12:39:58.000Z</time></trkpt>
<trkpt lat="41.728009" lon="23.515996"><ele>2497</ele><time>2026-03-15T12:39:59.000Z</time></trkpt>
<trkpt lat="41.728004" lon="23.516007"><ele>2497</ele><time>2026-03-15T12:40:00.000Z</time></trkpt>
<trkpt lat="41.727999" lon="23.516019"><ele>2497</ele><time>2026-03-15T12:40:01.000Z</time></trkpt>
<trkpt lat="41.727994" lon="23.516032"><ele>2495.8</ele><time>2026-03-15T12:40:02.000Z</time></trkpt>
<trkpt lat="41.727989" lon="23.516046"><ele>2495.8</ele><time>2026-03-15T12:40:03.000Z</time></trkpt>
<trkpt lat="41.727984" lon="23.516057"><ele>2495.8</ele><time>2026-03-15T12:40:04.000Z</time></trkpt>
<trkpt lat="41.727979" lon="23.516065"><ele>2495.8</ele><time>2026-03-15T12:40:05.000Z</time></trkpt>
<trkpt lat="41.727975" lon="23.516069"><ele>2495.8</ele><time>2026-03-15T12:40:06.000Z</time></trkpt>
<trkpt lat="41.727971" lon="23.51607"><ele>2493.5</ele><time>2026-03-15T12:40:07.000Z</time></trkpt>
<trkpt lat="41.727969" lon="23.516071"><ele>2493.5</ele><time>2026-03-15T12:40:08.000Z</time></trkpt>
<trkpt lat="41.727966" lon="23.516074"><ele>2493.5</ele><time>2026-03-15T12:40:09.000Z</time></trkpt>
<trkpt lat="41.727962" lon="23.516079"><ele>2493.5</ele><time>2026-03-15T12:40:10.000Z</time></trkpt>
<trkpt lat="41.727959" lon="23.516087"><ele>2493.5</ele><time>2026-03-15T12:40:11.000Z</time></trkpt>
<trkpt lat="41.727956" lon="23.516097"><ele>2491.3</ele><time>2026-03-15T12:40:12.000Z</time></trkpt>
<trkpt lat="41.727952" lon="23.516106"><ele>2491.3</ele><time>2026-03-15T12:40:13.000Z</time></trkpt>
<trkpt lat="41.727948" lon="23.516114"><ele>2491.3</ele><time>2026-03-15T12:40:14.000Z</time></trkpt>
<trkpt lat="41.727942" lon="23.516123"><ele>2491.3</ele><time>2026-03-15T12:40:15.000Z</time></trkpt>
<trkpt lat="41.727936" lon="23.516131"><ele>2491.3</ele><time>2026-03-15T12:40:16.000Z</time></trkpt>
<trkpt lat="41.72793" lon="23.516139"><ele>2490.3</ele><time>2026-03-15T12:40:17.000Z</time></trkpt>
<trkpt lat="41.727923" lon="23.516147"><ele>2490.3</ele><time>2026-03-15T12:40:18.000Z</time></trkpt>
<trkpt lat="41.727918" lon="23.516155"><ele>2490.3</ele><time>2026-03-15T12:40:19.000Z</time></trkpt>
<trkpt lat="41.727912" lon="23.516163"><ele>2490.3</ele><time>2026-03-15T12:40:20.000Z</time></trkpt>
<trkpt lat="41.727908" lon="23.51617"><ele>2490.3</ele><time>2026-03-15T12:40:21.000Z</time></trkpt>
<trkpt lat="41.727904" lon="23.516179"><ele>2488.7</ele><time>2026-03-15T12:40:22.000Z</time></trkpt>
<trkpt lat="41.727901" lon="23.51619"><ele>2488.7</ele><time>2026-03-15T12:40:23.000Z</time></trkpt>
<trkpt lat="41.727895" lon="23.516203"><ele>2488.7</ele><time>2026-03-15T12:40:24.000Z</time></trkpt>
<trkpt lat="41.72789" lon="23.516214"><ele>2488.7</ele><time>2026-03-15T12:40:25.000Z</time></trkpt>
<trkpt lat="41.727885" lon="23.516226"><ele>2488.7</ele><time>2026-03-15T12:40:26.000Z</time></trkpt>
<trkpt lat="41.727879" lon="23.516237"><ele>2487.4</ele><time>2026-03-15T12:40:27.000Z</time></trkpt>
<trkpt lat="41.727873" lon="23.516247"><ele>2487.4</ele><time>2026-03-15T12:40:28.000Z</time></trkpt>
<trkpt lat="41.727871" lon="23.516257"><ele>2487.4</ele><time>2026-03-15T12:40:29.000Z</time></trkpt>
<trkpt lat="41.72787" lon="23.516268"><ele>2487.4</ele><time>2026-03-15T12:40:30.000Z</time></trkpt>
<trkpt lat="41.72787" lon="23.516279"><ele>2487.4</ele><time>2026-03-15T12:40:31.000Z</time></trkpt>
<trkpt lat="41.727871" lon="23.516291"><ele>2486.7</ele><time>2026-03-15T12:40:32.000Z</time></trkpt>
<trkpt lat="41.727872" lon="23.516305"><ele>2486.7</ele><time>2026-03-15T12:40:33.000Z</time></trkpt>
<trkpt lat="41.727874" lon="23.516319"><ele>2486.7</ele><time>2026-03-15T12:40:34.000Z</time></trkpt>
<trkpt lat="41.727874" lon="23.516334"><ele>2486.7</ele><time>2026-03-15T12:40:35.000Z</time></trkpt>
<trkpt lat="41.727874" lon="23.516351"><ele>2486.7</ele><time>2026-03-15T12:40:36.000Z</time></trkpt>
<trkpt lat="41.727874" lon="23.516368"><ele>2485</ele><time>2026-03-15T12:40:37.000Z</time></trkpt>
<trkpt lat="41.727872" lon="23.516383"><ele>2485</ele><time>2026-03-15T12:40:38.000Z</time></trkpt>
<trkpt lat="41.727869" lon="23.516398"><ele>2485</ele><time>2026-03-15T12:40:39.000Z</time></trkpt>
<trkpt lat="41.727864" lon="23.516411"><ele>2485</ele><time>2026-03-15T12:40:40.000Z</time></trkpt>
<trkpt lat="41.727859" lon="23.516422"><ele>2485</ele><time>2026-03-15T12:40:41.000Z</time></trkpt>
<trkpt lat="41.727853" lon="23.516432"><ele>2483.1</ele><time>2026-03-15T12:40:42.000Z</time></trkpt>
<trkpt lat="41.727846" lon="23.516442"><ele>2483.1</ele><time>2026-03-15T12:40:43.000Z</time></trkpt>
<trkpt lat="41.727841" lon="23.516452"><ele>2483.1</ele><time>2026-03-15T12:40:44.000Z</time></trkpt>
<trkpt lat="41.727835" lon="23.516462"><ele>2483.1</ele><time>2026-03-15T12:40:45.000Z</time></trkpt>
<trkpt lat="41.727829" lon="23.516473"><ele>2483.1</ele><time>2026-03-15T12:40:46.000Z</time></trkpt>
<trkpt lat="41.727824" lon="23.516485"><ele>2482.1</ele><time>2026-03-15T12:40:47.000Z</time></trkpt>
<trkpt lat="41.727819" lon="23.516497"><ele>2482.1</ele><time>2026-03-15T12:40:48.000Z</time></trkpt>
<trkpt lat="41.727813" lon="23.516507"><ele>2482.1</ele><time>2026-03-15T12:40:49.000Z</time></trkpt>
<trkpt lat="41.727807" lon="23.516517"><ele>2482.1</ele><time>2026-03-15T12:40:50.000Z</time></trkpt>
<trkpt lat="41.7278" lon="23.516526"><ele>2482.1</ele><time>2026-03-15T12:40:51.000Z</time></trkpt>
<trkpt lat="41.727792" lon="23.516535"><ele>2480.2</ele><time>2026-03-15T12:40:52.000Z</time></trkpt>
<trkpt lat="41.727786" lon="23.516544"><ele>2480.2</ele><time>2026-03-15T12:40:53.000Z</time></trkpt>
<trkpt lat="41.727781" lon="23.516553"><ele>2480.2</ele><time>2026-03-15T12:40:54.000Z</time></trkpt>
<trkpt lat="41.727778" lon="23.516563"><ele>2480.2</ele><time>2026-03-15T12:40:55.000Z</time></trkpt>
<trkpt lat="41.727776" lon="23.516573"><ele>2480.2</ele><time>2026-03-15T12:40:56.000Z</time></trkpt>
<trkpt lat="41.727775" lon="23.516584"><ele>2478.2</ele><time>2026-03-15T12:40:57.000Z</time></trkpt>
<trkpt lat="41.727772" lon="23.516595"><ele>2478.2</ele><time>2026-03-15T12:40:58.000Z</time></trkpt>
<trkpt lat="41.727766" lon="23.516605"><ele>2478.2</ele><time>2026-03-15T12:40:59.000Z</time></trkpt>
<trkpt lat="41.727758" lon="23.516615"><ele>2478.2</ele><time>2026-03-15T12:41:00.000Z</time></trkpt>
<trkpt lat="41.727749" lon="23.516624"><ele>2478.2</ele><time>2026-03-15T12:41:01.000Z</time></trkpt>
<trkpt lat="41.727741" lon="23.51663"><ele>2477.1</ele><time>2026-03-15T12:41:02.000Z</time></trkpt>
<trkpt lat="41.727734" lon="23.516636"><ele>2477.1</ele><time>2026-03-15T12:41:03.000Z</time></trkpt>
<trkpt lat="41.727728" lon="23.516642"><ele>2477.1</ele><time>2026-03-15T12:41:04.000Z</time></trkpt>
<trkpt lat="41.727723" lon="23.516649"><ele>2477.1</ele><time>2026-03-15T12:41:05.000Z</time></trkpt>
<trkpt lat="41.727719" lon="23.516654"><ele>2477.1</ele><time>2026-03-15T12:41:06.000Z</time></trkpt>
<trkpt lat="41.727715" lon="23.51666"><ele>2475</ele><time>2026-03-15T12:41:07.000Z</time></trkpt>
<trkpt lat="41.727711" lon="23.516668"><ele>2475</ele><time>2026-03-15T12:41:08.000Z</time></trkpt>
<trkpt lat="41.727708" lon="23.516675"><ele>2475</ele><time>2026-03-15T12:41:09.000Z</time></trkpt>
<trkpt lat="41.727705" lon="23.516683"><ele>2475</ele><time>2026-03-15T12:41:10.000Z</time></trkpt>
<trkpt lat="41.727702" lon="23.516693"><ele>2475</ele><time>2026-03-15T12:41:11.000Z</time></trkpt>
<trkpt lat="41.7277" lon="23.516704"><ele>2473.1</ele><time>2026-03-15T12:41:12.000Z</time></trkpt>
<trkpt lat="41.727698" lon="23.516714"><ele>2473.1</ele><time>2026-03-15T12:41:13.000Z</time></trkpt>
<trkpt lat="41.727697" lon="23.516725"><ele>2473.1</ele><time>2026-03-15T12:41:14.000Z</time></trkpt>
<trkpt lat="41.727695" lon="23.516736"><ele>2473.1</ele><time>2026-03-15T12:41:15.000Z</time></trkpt>
<trkpt lat="41.727693" lon="23.516746"><ele>2473.1</ele><time>2026-03-15T12:41:16.000Z</time></trkpt>
<trkpt lat="41.727689" lon="23.516757"><ele>2472.3</ele><time>2026-03-15T12:41:17.000Z</time></trkpt>
<trkpt lat="41.727685" lon="23.516767"><ele>2472.3</ele><time>2026-03-15T12:41:18.000Z</time></trkpt>
<trkpt lat="41.727681" lon="23.516778"><ele>2472.3</ele><time>2026-03-15T12:41:19.000Z</time></trkpt>
<trkpt lat="41.727678" lon="23.516788"><ele>2472.3</ele><time>2026-03-15T12:41:20.000Z</time></trkpt>
<trkpt lat="41.727675" lon="23.516798"><ele>2472.3</ele><time>2026-03-15T12:41:21.000Z</time></trkpt>
<trkpt lat="41.727671" lon="23.516808"><ele>2470.6</ele><time>2026-03-15T12:41:22.000Z</time></trkpt>
<trkpt lat="41.727665" lon="23.516818"><ele>2470.6</ele><time>2026-03-15T12:41:23.000Z</time></trkpt>
<trkpt lat="41.727659" lon="23.516828"><ele>2470.6</ele><time>2026-03-15T12:41:24.000Z</time></trkpt>
<trkpt lat="41.727652" lon="23.516838"><ele>2470.6</ele><time>2026-03-15T12:41:25.000Z</time></trkpt>
<trkpt lat="41.727646" lon="23.51685"><ele>2470.6</ele><time>2026-03-15T12:41:26.000Z</time></trkpt>
<trkpt lat="41.727643" lon="23.516862"><ele>2468.9</ele><time>2026-03-15T12:41:27.000Z</time></trkpt>
<trkpt lat="41.727641" lon="23.516874"><ele>2468.9</ele><time>2026-03-15T12:41:28.000Z</time></trkpt>
<trkpt lat="41.727641" lon="23.516887"><ele>2468.9</ele><time>2026-03-15T12:41:29.000Z</time></trkpt>
<trkpt lat="41.727641" lon="23.516898"><ele>2468.9</ele><time>2026-03-15T12:41:30.000Z</time></trkpt>
<trkpt lat="41.727641" lon="23.516909"><ele>2468.9</ele><time>2026-03-15T12:41:31.000Z</time></trkpt>
<trkpt lat="41.727639" lon="23.516921"><ele>2468</ele><time>2026-03-15T12:41:32.000Z</time></trkpt>
<trkpt lat="41.727637" lon="23.516934"><ele>2468</ele><time>2026-03-15T12:41:33.000Z</time></trkpt>
<trkpt lat="41.727635" lon="23.516947"><ele>2468</ele><time>2026-03-15T12:41:34.000Z</time></trkpt>
<trkpt lat="41.727632" lon="23.516961"><ele>2468</ele><time>2026-03-15T12:41:35.000Z</time></trkpt>
<trkpt lat="41.727631" lon="23.516974"><ele>2468</ele><time>2026-03-15T12:41:36.000Z</time></trkpt>
<trkpt lat="41.727631" lon="23.516988"><ele>2465.9</ele><time>2026-03-15T12:41:37.000Z</time></trkpt>
<trkpt lat="41.727631" lon="23.517001"><ele>2465.9</ele><time>2026-03-15T12:41:38.000Z</time></trkpt>
<trkpt lat="41.727632" lon="23.517014"><ele>2465.9</ele><time>2026-03-15T12:41:39.000Z</time></trkpt>
<trkpt lat="41.727632" lon="23.517028"><ele>2465.9</ele><time>2026-03-15T12:41:40.000Z</time></trkpt>
<trkpt lat="41.727631" lon="23.517043"><ele>2465.9</ele><time>2026-03-15T12:41:41.000Z</time></trkpt>
<trkpt lat="41.727628" lon="23.517057"><ele>2463.9</ele><time>2026-03-15T12:41:42.000Z</time></trkpt>
<trkpt lat="41.727624" lon="23.517071"><ele>2463.9</ele><time>2026-03-15T12:41:43.000Z</time></trkpt>
<trkpt lat="41.727618" lon="23.517085"><ele>2463.9</ele><time>2026-03-15T12:41:44.000Z</time></trkpt>
<trkpt lat="41.727612" lon="23.517099"><ele>2463.9</ele><time>2026-03-15T12:41:45.000Z</time></trkpt>
<trkpt lat="41.727605" lon="23.517113"><ele>2463.9</ele><time>2026-03-15T12:41:46.000Z</time></trkpt>
<trkpt lat="41.727598" lon="23.517126"><ele>2463</ele><time>2026-03-15T12:41:47.000Z</time></trkpt>
<trkpt lat="41.727592" lon="23.517139"><ele>2463</ele><time>2026-03-15T12:41:48.000Z</time></trkpt>
<trkpt lat="41.727584" lon="23.517151"><ele>2463</ele><time>2026-03-15T12:41:49.000Z</time></trkpt>
<trkpt lat="41.727577" lon="23.517162"><ele>2463</ele><time>2026-03-15T12:41:50.000Z</time></trkpt>
<trkpt lat="41.72757" lon="23.517173"><ele>2463</ele><time>2026-03-15T12:41:51.000Z</time></trkpt>
<trkpt lat="41.727562" lon="23.517184"><ele>2461.3</ele><time>2026-03-15T12:41:52.000Z</time></trkpt>
<trkpt lat="41.727555" lon="23.517197"><ele>2461.3</ele><time>2026-03-15T12:41:53.000Z</time></trkpt>
<trkpt lat="41.72755" lon="23.517211"><ele>2461.3</ele><time>2026-03-15T12:41:54.000Z</time></trkpt>
<trkpt lat="41.727545" lon="23.517225"><ele>2461.3</ele><time>2026-03-15T12:41:55.000Z</time></trkpt>
<trkpt lat="41.727539" lon="23.517239"><ele>2461.3</ele><time>2026-03-15T12:41:56.000Z</time></trkpt>
<trkpt lat="41.727534" lon="23.517254"><ele>2459.6</ele><time>2026-03-15T12:41:57.000Z</time></trkpt>
<trkpt lat="41.727531" lon="23.517269"><ele>2459.6</ele><time>2026-03-15T12:41:58.000Z</time></trkpt>
<trkpt lat="41.727526" lon="23.517285"><ele>2459.6</ele><time>2026-03-15T12:41:59.000Z</time></trkpt>
<trkpt lat="41.727521" lon="23.5173"><ele>2459.6</ele><time>2026-03-15T12:42:00.000Z</time></trkpt>
<trkpt lat="41.727517" lon="23.517314"><ele>2459.6</ele><time>2026-03-15T12:42:01.000Z</time></trkpt>
<trkpt lat="41.727515" lon="23.517329"><ele>2458.6</ele><time>2026-03-15T12:42:02.000Z</time></trkpt>
<trkpt lat="41.727512" lon="23.517343"><ele>2458.6</ele><time>2026-03-15T12:42:03.000Z</time></trkpt>
<trkpt lat="41.727511" lon="23.517356"><ele>2458.6</ele><time>2026-03-15T12:42:04.000Z</time></trkpt>
<trkpt lat="41.727511" lon="23.517369"><ele>2458.6</ele><time>2026-03-15T12:42:05.000Z</time></trkpt>
<trkpt lat="41.727511" lon="23.517383"><ele>2458.6</ele><time>2026-03-15T12:42:06.000Z</time></trkpt>
<trkpt lat="41.727511" lon="23.517396"><ele>2456.5</ele><time>2026-03-15T12:42:07.000Z</time></trkpt>
<trkpt lat="41.72751" lon="23.517409"><ele>2456.5</ele><time>2026-03-15T12:42:08.000Z</time></trkpt>
<trkpt lat="41.727509" lon="23.517422"><ele>2456.5</ele><time>2026-03-15T12:42:09.000Z</time></trkpt>
<trkpt lat="41.727508" lon="23.517434"><ele>2456.5</ele><time>2026-03-15T12:42:10.000Z</time></trkpt>
<trkpt lat="41.727508" lon="23.517446"><ele>2456.5</ele><time>2026-03-15T12:42:11.000Z</time></trkpt>
<trkpt lat="41.727509" lon="23.517458"><ele>2454.1</ele><time>2026-03-15T12:42:12.000Z</time></trkpt>
<trkpt lat="41.727507" lon="23.51747"><ele>2454.1</ele><time>2026-03-15T12:42:13.000Z</time></trkpt>
<trkpt lat="41.727506" lon="23.517483"><ele>2454.1</ele><time>2026-03-15T12:42:14.000Z</time></trkpt>
<trkpt lat="41.727504" lon="23.517495"><ele>2454.1</ele><time>2026-03-15T12:42:15.000Z</time></trkpt>
<trkpt lat="41.7275" lon="23.517508"><ele>2454.1</ele><time>2026-03-15T12:42:16.000Z</time></trkpt>
<trkpt lat="41.727497" lon="23.51752"><ele>2453</ele><time>2026-03-15T12:42:17.000Z</time></trkpt>
<trkpt lat="41.727493" lon="23.517532"><ele>2453</ele><time>2026-03-15T12:42:18.000Z</time></trkpt>
<trkpt lat="41.727488" lon="23.517544"><ele>2453</ele><time>2026-03-15T12:42:19.000Z</time></trkpt>
<trkpt lat="41.727482" lon="23.517555"><ele>2453</ele><time>2026-03-15T12:42:20.000Z</time></trkpt>
<trkpt lat="41.727475" lon="23.517565"><ele>2453</ele><time>2026-03-15T12:42:21.000Z</time></trkpt>
<trkpt lat="41.727467" lon="23.517575"><ele>2451</ele><time>2026-03-15T12:42:22.000Z</time></trkpt>
<trkpt lat="41.727461" lon="23.517585"><ele>2451</ele><time>2026-03-15T12:42:23.000Z</time></trkpt>
<trkpt lat="41.727456" lon="23.517594"><ele>2451</ele><time>2026-03-15T12:42:24.000Z</time></trkpt>
<trkpt lat="41.727451" lon="23.517603"><ele>2451</ele><time>2026-03-15T12:42:25.000Z</time></trkpt>
<trkpt lat="41.727447" lon="23.517612"><ele>2451</ele><time>2026-03-15T12:42:26.000Z</time></trkpt>
<trkpt lat="41.727444" lon="23.51762"><ele>2449.2</ele><time>2026-03-15T12:42:27.000Z</time></trkpt>
<trkpt lat="41.727442" lon="23.51763"><ele>2449.2</ele><time>2026-03-15T12:42:28.000Z</time></trkpt>
<trkpt lat="41.727437" lon="23.517641"><ele>2449.2</ele><time>2026-03-15T12:42:29.000Z</time></trkpt>
<trkpt lat="41.727433" lon="23.517653"><ele>2449.2</ele><time>2026-03-15T12:42:30.000Z</time></trkpt>
<trkpt lat="41.727428" lon="23.517667"><ele>2449.2</ele><time>2026-03-15T12:42:31.000Z</time></trkpt>
<trkpt lat="41.727423" lon="23.51768"><ele>2448.2</ele><time>2026-03-15T12:42:32.000Z</time></trkpt>
<trkpt lat="41.727418" lon="23.517692"><ele>2448.2</ele><time>2026-03-15T12:42:33.000Z</time></trkpt>
<trkpt lat="41.727413" lon="23.517704"><ele>2448.2</ele><time>2026-03-15T12:42:34.000Z</time></trkpt>
<trkpt lat="41.727409" lon="23.517715"><ele>2448.2</ele><time>2026-03-15T12:42:35.000Z</time></trkpt>
<trkpt lat="41.727405" lon="23.517727"><ele>2448.2</ele><time>2026-03-15T12:42:36.000Z</time></trkpt>
<trkpt lat="41.7274" lon="23.517739"><ele>2446.4</ele><time>2026-03-15T12:42:37.000Z</time></trkpt>
<trkpt lat="41.727396" lon="23.517752"><ele>2446.4</ele><time>2026-03-15T12:42:38.000Z</time></trkpt>
<trkpt lat="41.727391" lon="23.517763"><ele>2446.4</ele><time>2026-03-15T12:42:39.000Z</time></trkpt>
<trkpt lat="41.727386" lon="23.517774"><ele>2446.4</ele><time>2026-03-15T12:42:40.000Z</time></trkpt>
<trkpt lat="41.727383" lon="23.517785"><ele>2446.4</ele><time>2026-03-15T12:42:41.000Z</time></trkpt>
<trkpt lat="41.727379" lon="23.517795"><ele>2444.5</ele><time>2026-03-15T12:42:42.000Z</time></trkpt>
<trkpt lat="41.727376" lon="23.517806"><ele>2444.5</ele><time>2026-03-15T12:42:43.000Z</time></trkpt>
<trkpt lat="41.727374" lon="23.517817"><ele>2444.5</ele><time>2026-03-15T12:42:44.000Z</time></trkpt>
<trkpt lat="41.72737" lon="23.517829"><ele>2444.5</ele><time>2026-03-15T12:42:45.000Z</time></trkpt>
<trkpt lat="41.727366" lon="23.517841"><ele>2444.5</ele><time>2026-03-15T12:42:46.000Z</time></trkpt>
<trkpt lat="41.727362" lon="23.517854"><ele>2443.6</ele><time>2026-03-15T12:42:47.000Z</time></trkpt>
<trkpt lat="41.727359" lon="23.517867"><ele>2443.6</ele><time>2026-03-15T12:42:48.000Z</time></trkpt>
<trkpt lat="41.727357" lon="23.517879"><ele>2443.6</ele><time>2026-03-15T12:42:49.000Z</time></trkpt>
<trkpt lat="41.727357" lon="23.51789"><ele>2443.6</ele><time>2026-03-15T12:42:50.000Z</time></trkpt>
<trkpt lat="41.727359" lon="23.517902"><ele>2443.6</ele><time>2026-03-15T12:42:51.000Z</time></trkpt>
<trkpt lat="41.727361" lon="23.517914"><ele>2441.7</ele><time>2026-03-15T12:42:52.000Z</time></trkpt>
<trkpt lat="41.727364" lon="23.517925"><ele>2441.7</ele><time>2026-03-15T12:42:53.000Z</time></trkpt>
<trkpt lat="41.727366" lon="23.517936"><ele>2441.7</ele><time>2026-03-15T12:42:54.000Z</time></trkpt>
<trkpt lat="41.727366" lon="23.517948"><ele>2441.7</ele><time>2026-03-15T12:42:55.000Z</time></trkpt>
<trkpt lat="41.727364" lon="23.517961"><ele>2441.7</ele><time>2026-03-15T12:42:56.000Z</time></trkpt>
<trkpt lat="41.72736" lon="23.517974"><ele>2439.6</ele><time>2026-03-15T12:42:57.000Z</time></trkpt>
<trkpt lat="41.727356" lon="23.517989"><ele>2439.6</ele><time>2026-03-15T12:42:58.000Z</time></trkpt>
<trkpt lat="41.727351" lon="23.518006"><ele>2439.6</ele><time>2026-03-15T12:42:59.000Z</time></trkpt>
<trkpt lat="41.727347" lon="23.518023"><ele>2439.6</ele><time>2026-03-15T12:43:00.000Z</time></trkpt>
<trkpt lat="41.727344" lon="23.518039"><ele>2439.6</ele><time>2026-03-15T12:43:01.000Z</time></trkpt>
<trkpt lat="41.727341" lon="23.518054"><ele>2438.6</ele><time>2026-03-15T12:43:02.000Z</time></trkpt>
<trkpt lat="41.727338" lon="23.518067"><ele>2438.6</ele><time>2026-03-15T12:43:03.000Z</time></trkpt>
<trkpt lat="41.727334" lon="23.518081"><ele>2438.6</ele><time>2026-03-15T12:43:04.000Z</time></trkpt>
<trkpt lat="41.72733" lon="23.518095"><ele>2438.6</ele><time>2026-03-15T12:43:05.000Z</time></trkpt>
<trkpt lat="41.727325" lon="23.518109"><ele>2438.6</ele><time>2026-03-15T12:43:06.000Z</time></trkpt>
<trkpt lat="41.727321" lon="23.518123"><ele>2436.5</ele><time>2026-03-15T12:43:07.000Z</time></trkpt>
<trkpt lat="41.727317" lon="23.518138"><ele>2436.5</ele><time>2026-03-15T12:43:08.000Z</time></trkpt>
<trkpt lat="41.727312" lon="23.518152"><ele>2436.5</ele><time>2026-03-15T12:43:09.000Z</time></trkpt>
<trkpt lat="41.727308" lon="23.518166"><ele>2436.5</ele><time>2026-03-15T12:43:10.000Z</time></trkpt>
<trkpt lat="41.727303" lon="23.51818"><ele>2436.5</ele><time>2026-03-15T12:43:11.000Z</time></trkpt>
<trkpt lat="41.727299" lon="23.518194"><ele>2434.6</ele><time>2026-03-15T12:43:12.000Z</time></trkpt>
<trkpt lat="41.727294" lon="23.518207"><ele>2434.6</ele><time>2026-03-15T12:43:13.000Z</time></trkpt>
<trkpt lat="41.72729" lon="23.51822"><ele>2434.6</ele><time>2026-03-15T12:43:14.000Z</time></trkpt>
<trkpt lat="41.727286" lon="23.518231"><ele>2434.6</ele><time>2026-03-15T12:43:15.000Z</time></trkpt>
<trkpt lat="41.727283" lon="23.518242"><ele>2434.6</ele><time>2026-03-15T12:43:16.000Z</time></trkpt>
<trkpt lat="41.72728" lon="23.518254"><ele>2433.6</ele><time>2026-03-15T12:43:17.000Z</time></trkpt>
<trkpt lat="41.727278" lon="23.518267"><ele>2433.6</ele><time>2026-03-15T12:43:18.000Z</time></trkpt>
<trkpt lat="41.727274" lon="23.51828"><ele>2433.6</ele><time>2026-03-15T12:43:19.000Z</time></trkpt>
<trkpt lat="41.727269" lon="23.518296"><ele>2433.6</ele><time>2026-03-15T12:43:20.000Z</time></trkpt>
<trkpt lat="41.727263" lon="23.518313"><ele>2433.6</ele><time>2026-03-15T12:43:21.000Z</time></trkpt>
<trkpt lat="41.727257" lon="23.518329"><ele>2431.6</ele><time>2026-03-15T12:43:22.000Z</time></trkpt>
<trkpt lat="41.727251" lon="23.518345"><ele>2431.6</ele><time>2026-03-15T12:43:23.000Z</time></trkpt>
<trkpt lat="41.727246" lon="23.518361"><ele>2431.6</ele><time>2026-03-15T12:43:24.000Z</time></trkpt>
<trkpt lat="41.727241" lon="23.518377"><ele>2431.6</ele><time>2026-03-15T12:43:25.000Z</time></trkpt>
<trkpt lat="41.727235" lon="23.518392"><ele>2431.6</ele><time>2026-03-15T12:43:26.000Z</time></trkpt>
<trkpt lat="41.727229" lon="23.518409"><ele>2429.5</ele><time>2026-03-15T12:43:27.000Z</time></trkpt>
<trkpt lat="41.727224" lon="23.518426"><ele>2429.5</ele><time>2026-03-15T12:43:28.000Z</time></trkpt>
<trkpt lat="41.727218" lon="23.518443"><ele>2429.5</ele><time>2026-03-15T12:43:29.000Z</time></trkpt>
<trkpt lat="41.727212" lon="23.518461"><ele>2429.5</ele><time>2026-03-15T12:43:30.000Z</time></trkpt>
<trkpt lat="41.727207" lon="23.51848"><ele>2429.5</ele><time>2026-03-15T12:43:31.000Z</time></trkpt>
<trkpt lat="41.727203" lon="23.518499"><ele>2428.4</ele><time>2026-03-15T12:43:32.000Z</time></trkpt>
<trkpt lat="41.7272" lon="23.518518"><ele>2428.4</ele><time>2026-03-15T12:43:33.000Z</time></trkpt>
<trkpt lat="41.727197" lon="23.518535"><ele>2428.4</ele><time>2026-03-15T12:43:34.000Z</time></trkpt>
<trkpt lat="41.727194" lon="23.518553"><ele>2428.4</ele><time>2026-03-15T12:43:35.000Z</time></trkpt>
<trkpt lat="41.727191" lon="23.51857"><ele>2428.4</ele><time>2026-03-15T12:43:36.000Z</time></trkpt>
<trkpt lat="41.727187" lon="23.518586"><ele>2426.2</ele><time>2026-03-15T12:43:37.000Z</time></trkpt>
<trkpt lat="41.727183" lon="23.518604"><ele>2426.2</ele><time>2026-03-15T12:43:38.000Z</time></trkpt>
<trkpt lat="41.727179" lon="23.518622"><ele>2426.2</ele><time>2026-03-15T12:43:39.000Z</time></trkpt>
<trkpt lat="41.727176" lon="23.51864"><ele>2426.2</ele><time>2026-03-15T12:43:40.000Z</time></trkpt>
<trkpt lat="41.727173" lon="23.518659"><ele>2426.2</ele><time>2026-03-15T12:43:41.000Z</time></trkpt>
<trkpt lat="41.727169" lon="23.518679"><ele>2424.3</ele><time>2026-03-15T12:43:42.000Z</time></trkpt>
<trkpt lat="41.727165" lon="23.518698"><ele>2424.3</ele><time>2026-03-15T12:43:43.000Z</time></trkpt>
<trkpt lat="41.727161" lon="23.518716"><ele>2424.3</ele><time>2026-03-15T12:43:44.000Z</time></trkpt>
<trkpt lat="41.727156" lon="23.518735"><ele>2424.3</ele><time>2026-03-15T12:43:45.000Z</time></trkpt>
<trkpt lat="41.727152" lon="23.518752"><ele>2424.3</ele><time>2026-03-15T12:43:46.000Z</time></trkpt>
<trkpt lat="41.727149" lon="23.51877"><ele>2423.4</ele><time>2026-03-15T12:43:47.000Z</time></trkpt>
<trkpt lat="41.727147" lon="23.518787"><ele>2423.4</ele><time>2026-03-15T12:43:48.000Z</time></trkpt>
<trkpt lat="41.727144" lon="23.518802"><ele>2423.4</ele><time>2026-03-15T12:43:49.000Z</time></trkpt>
<trkpt lat="41.727142" lon="23.518818"><ele>2423.4</ele><time>2026-03-15T12:43:50.000Z</time></trkpt>
<trkpt lat="41.727139" lon="23.518833"><ele>2423.4</ele><time>2026-03-15T12:43:51.000Z</time></trkpt>
<trkpt lat="41.727136" lon="23.518847"><ele>2421.5</ele><time>2026-03-15T12:43:52.000Z</time></trkpt>
<trkpt lat="41.727132" lon="23.518861"><ele>2421.5</ele><time>2026-03-15T12:43:53.000Z</time></trkpt>
<trkpt lat="41.727129" lon="23.518875"><ele>2421.5</ele><time>2026-03-15T12:43:54.000Z</time></trkpt>
<trkpt lat="41.727125" lon="23.518889"><ele>2421.5</ele><time>2026-03-15T12:43:55.000Z</time></trkpt>
<trkpt lat="41.727123" lon="23.518904"><ele>2421.5</ele><time>2026-03-15T12:43:56.000Z</time></trkpt>
<trkpt lat="41.727121" lon="23.518918"><ele>2419.5</ele><time>2026-03-15T12:43:57.000Z</time></trkpt>
<trkpt lat="41.72712" lon="23.518933"><ele>2419.5</ele><time>2026-03-15T12:43:58.000Z</time></trkpt>
<trkpt lat="41.727119" lon="23.51895"><ele>2419.5</ele><time>2026-03-15T12:43:59.000Z</time></trkpt>
<trkpt lat="41.727117" lon="23.518967"><ele>2419.5</ele><time>2026-03-15T12:44:00.000Z</time></trkpt>
<trkpt lat="41.727114" lon="23.518984"><ele>2419.5</ele><time>2026-03-15T12:44:01.000Z</time></trkpt>
<trkpt lat="41.72711" lon="23.519001"><ele>2418.5</ele><time>2026-03-15T12:44:02.000Z</time></trkpt>
<trkpt lat="41.727106" lon="23.519019"><ele>2418.5</ele><time>2026-03-15T12:44:03.000Z</time></trkpt>
<trkpt lat="41.727102" lon="23.519036"><ele>2418.5</ele><time>2026-03-15T12:44:04.000Z</time></trkpt>
<trkpt lat="41.727098" lon="23.519054"><ele>2418.5</ele><time>2026-03-15T12:44:05.000Z</time></trkpt>
<trkpt lat="41.727094" lon="23.519071"><ele>2418.5</ele><time>2026-03-15T12:44:06.000Z</time></trkpt>
<trkpt lat="41.727091" lon="23.519089"><ele>2416.5</ele><time>2026-03-15T12:44:07.000Z</time></trkpt>
<trkpt lat="41.727089" lon="23.519107"><ele>2416.5</ele><time>2026-03-15T12:44:08.000Z</time></trkpt>
<trkpt lat="41.727087" lon="23.519124"><ele>2416.5</ele><time>2026-03-15T12:44:09.000Z</time></trkpt>
<trkpt lat="41.727084" lon="23.51914"><ele>2416.5</ele><time>2026-03-15T12:44:10.000Z</time></trkpt>
<trkpt lat="41.727083" lon="23.519155"><ele>2416.5</ele><time>2026-03-15T12:44:11.000Z</time></trkpt>
<trkpt lat="41.727081" lon="23.519171"><ele>2414.6</ele><time>2026-03-15T12:44:12.000Z</time></trkpt>
<trkpt lat="41.727078" lon="23.519186"><ele>2414.6</ele><time>2026-03-15T12:44:13.000Z</time></trkpt>
<trkpt lat="41.727076" lon="23.519202"><ele>2414.6</ele><time>2026-03-15T12:44:14.000Z</time></trkpt>
<trkpt lat="41.727072" lon="23.519217"><ele>2414.6</ele><time>2026-03-15T12:44:15.000Z</time></trkpt>
<trkpt lat="41.727068" lon="23.519233"><ele>2414.6</ele><time>2026-03-15T12:44:16.000Z</time></trkpt>
<trkpt lat="41.727063" lon="23.519249"><ele>2413.7</ele><time>2026-03-15T12:44:17.000Z</time></trkpt>
<trkpt lat="41.727059" lon="23.519265"><ele>2413.7</ele><time>2026-03-15T12:44:18.000Z</time></trkpt>
<trkpt lat="41.727054" lon="23.519282"><ele>2413.7</ele><time>2026-03-15T12:44:19.000Z</time></trkpt>
<trkpt lat="41.727051" lon="23.5193"><ele>2413.7</ele><time>2026-03-15T12:44:20.000Z</time></trkpt>
<trkpt lat="41.727048" lon="23.519319"><ele>2413.7</ele><time>2026-03-15T12:44:21.000Z</time></trkpt>
<trkpt lat="41.727044" lon="23.519338"><ele>2411.9</ele><time>2026-03-15T12:44:22.000Z</time></trkpt>
<trkpt lat="41.727042" lon="23.519357"><ele>2411.9</ele><time>2026-03-15T12:44:23.000Z</time></trkpt>
<trkpt lat="41.72704" lon="23.519377"><ele>2411.9</ele><time>2026-03-15T12:44:24.000Z</time></trkpt>
<trkpt lat="41.72704" lon="23.519397"><ele>2411.9</ele><time>2026-03-15T12:44:25.000Z</time></trkpt>
<trkpt lat="41.72704" lon="23.519418"><ele>2411.9</ele><time>2026-03-15T12:44:26.000Z</time></trkpt>
<trkpt lat="41.727042" lon="23.51944"><ele>2410.1</ele><time>2026-03-15T12:44:27.000Z</time></trkpt>
<trkpt lat="41.727044" lon="23.519463"><ele>2410.1</ele><time>2026-03-15T12:44:28.000Z</time></trkpt>
<trkpt lat="41.727046" lon="23.519483"><ele>2410.1</ele><time>2026-03-15T12:44:29.000Z</time></trkpt>
<trkpt lat="41.727047" lon="23.519501"><ele>2410.1</ele><time>2026-03-15T12:44:30.000Z</time></trkpt>
<trkpt lat="41.727047" lon="23.519518"><ele>2410.1</ele><time>2026-03-15T12:44:31.000Z</time></trkpt>
<trkpt lat="41.727045" lon="23.519534"><ele>2409.2</ele><time>2026-03-15T12:44:32.000Z</time></trkpt>
<trkpt lat="41.727044" lon="23.519551"><ele>2409.2</ele><time>2026-03-15T12:44:33.000Z</time></trkpt>
<trkpt lat="41.727041" lon="23.51957"><ele>2409.2</ele><time>2026-03-15T12:44:34.000Z</time></trkpt>
<trkpt lat="41.72704" lon="23.51959"><ele>2409.2</ele><time>2026-03-15T12:44:35.000Z</time></trkpt>
<trkpt lat="41.727037" lon="23.519609"><ele>2409.2</ele><time>2026-03-15T12:44:36.000Z</time></trkpt>
<trkpt lat="41.727036" lon="23.519629"><ele>2407.4</ele><time>2026-03-15T12:44:37.000Z</time></trkpt>
<trkpt lat="41.727033" lon="23.519648"><ele>2407.4</ele><time>2026-03-15T12:44:38.000Z</time></trkpt>
<trkpt lat="41.727031" lon="23.519668"><ele>2407.4</ele><time>2026-03-15T12:44:39.000Z</time></trkpt>
<trkpt lat="41.727028" lon="23.519688"><ele>2407.4</ele><time>2026-03-15T12:44:40.000Z</time></trkpt>
<trkpt lat="41.727025" lon="23.51971"><ele>2407.4</ele><time>2026-03-15T12:44:41.000Z</time></trkpt>
<trkpt lat="41.727021" lon="23.519732"><ele>2405.6</ele><time>2026-03-15T12:44:42.000Z</time></trkpt>
<trkpt lat="41.727017" lon="23.519753"><ele>2405.6</ele><time>2026-03-15T12:44:43.000Z</time></trkpt>
<trkpt lat="41.727012" lon="23.519772"><ele>2405.6</ele><time>2026-03-15T12:44:44.000Z</time></trkpt>
<trkpt lat="41.727008" lon="23.519791"><ele>2405.6</ele><time>2026-03-15T12:44:45.000Z</time></trkpt>
<trkpt lat="41.727005" lon="23.51981"><ele>2405.6</ele><time>2026-03-15T12:44:46.000Z</time></trkpt>
<trkpt lat="41.727003" lon="23.519828"><ele>2404.7</ele><time>2026-03-15T12:44:47.000Z</time></trkpt>
<trkpt lat="41.727003" lon="23.519847"><ele>2404.7</ele><time>2026-03-15T12:44:48.000Z</time></trkpt>
<trkpt lat="41.727002" lon="23.519866"><ele>2404.7</ele><time>2026-03-15T12:44:49.000Z</time></trkpt>
<trkpt lat="41.727002" lon="23.519884"><ele>2404.7</ele><time>2026-03-15T12:44:50.000Z</time></trkpt>
<trkpt lat="41.727" lon="23.519904"><ele>2404.7</ele><time>2026-03-15T12:44:51.000Z</time></trkpt>
<trkpt lat="41.726999" lon="23.519923"><ele>2402.8</ele><time>2026-03-15T12:44:52.000Z</time></trkpt>
<trkpt lat="41.726996" lon="23.519941"><ele>2402.8</ele><time>2026-03-15T12:44:53.000Z</time></trkpt>
<trkpt lat="41.726994" lon="23.519961"><ele>2402.8</ele><time>2026-03-15T12:44:54.000Z</time></trkpt>
<trkpt lat="41.726993" lon="23.519982"><ele>2402.8</ele><time>2026-03-15T12:44:55.000Z</time></trkpt>
<trkpt lat="41.726994" lon="23.520001"><ele>2402.8</ele><time>2026-03-15T12:44:56.000Z</time></trkpt>
<trkpt lat="41.726995" lon="23.52002"><ele>2400.8</ele><time>2026-03-15T12:44:57.000Z</time></trkpt>
<trkpt lat="41.726998" lon="23.52004"><ele>2400.8</ele><time>2026-03-15T12:44:58.000Z</time></trkpt>
<trkpt lat="41.727001" lon="23.520059"><ele>2400.8</ele><time>2026-03-15T12:44:59.000Z</time></trkpt>
<trkpt lat="41.727004" lon="23.52008"><ele>2400.8</ele><time>2026-03-15T12:45:00.000Z</time></trkpt>
<trkpt lat="41.727005" lon="23.520102"><ele>2400.8</ele><time>2026-03-15T12:45:01.000Z</time></trkpt>
<trkpt lat="41.727007" lon="23.520124"><ele>2399.9</ele><time>2026-03-15T12:45:02.000Z</time></trkpt>
<trkpt lat="41.727008" lon="23.520145"><ele>2399.9</ele><time>2026-03-15T12:45:03.000Z</time></trkpt>
<trkpt lat="41.727008" lon="23.520166"><ele>2399.9</ele><time>2026-03-15T12:45:04.000Z</time></trkpt>
<trkpt lat="41.727006" lon="23.520186"><ele>2399.9</ele><time>2026-03-15T12:45:05.000Z</time></trkpt>
<trkpt lat="41.727004" lon="23.520205"><ele>2399.9</ele><time>2026-03-15T12:45:06.000Z</time></trkpt>
<trkpt lat="41.727002" lon="23.520224"><ele>2398</ele><time>2026-03-15T12:45:07.000Z</time></trkpt>
<trkpt lat="41.726999" lon="23.520244"><ele>2398</ele><time>2026-03-15T12:45:08.000Z</time></trkpt>
<trkpt lat="41.726996" lon="23.520264"><ele>2398</ele><time>2026-03-15T12:45:09.000Z</time></trkpt>
<trkpt lat="41.726994" lon="23.520283"><ele>2398</ele><time>2026-03-15T12:45:10.000Z</time></trkpt>
<trkpt lat="41.726991" lon="23.520302"><ele>2398</ele><time>2026-03-15T12:45:11.000Z</time></trkpt>
<trkpt lat="41.72699" lon="23.520321"><ele>2396.1</ele><time>2026-03-15T12:45:12.000Z</time></trkpt>
<trkpt lat="41.72699" lon="23.52034"><ele>2396.1</ele><time>2026-03-15T12:45:13.000Z</time></trkpt>
<trkpt lat="41.726992" lon="23.520359"><ele>2396.1</ele><time>2026-03-15T12:45:14.000Z</time></trkpt>
<trkpt lat="41.726995" lon="23.520378"><ele>2396.1</ele><time>2026-03-15T12:45:15.000Z</time></trkpt>
<trkpt lat="41.727" lon="23.520398"><ele>2396.1</ele><time>2026-03-15T12:45:16.000Z</time></trkpt>
<trkpt lat="41.727005" lon="23.520417"><ele>2395.1</ele><time>2026-03-15T12:45:17.000Z</time></trkpt>
<trkpt lat="41.727009" lon="23.520436"><ele>2395.1</ele><time>2026-03-15T12:45:18.000Z</time></trkpt>
<trkpt lat="41.727013" lon="23.520455"><ele>2395.1</ele><time>2026-03-15T12:45:19.000Z</time></trkpt>
<trkpt lat="41.727017" lon="23.520475"><ele>2395.1</ele><time>2026-03-15T12:45:20.000Z</time></trkpt>
<trkpt lat="41.72702" lon="23.520494"><ele>2395.1</ele><time>2026-03-15T12:45:21.000Z</time></trkpt>
<trkpt lat="41.727021" lon="23.520513"><ele>2393.1</ele><time>2026-03-15T12:45:22.000Z</time></trkpt>
<trkpt lat="41.727023" lon="23.520533"><ele>2393.1</ele><time>2026-03-15T12:45:23.000Z</time></trkpt>
<trkpt lat="41.727024" lon="23.520554"><ele>2393.1</ele><time>2026-03-15T12:45:24.000Z</time></trkpt>
<trkpt lat="41.727023" lon="23.520573"><ele>2393.1</ele><time>2026-03-15T12:45:25.000Z</time></trkpt>
<trkpt lat="41.727022" lon="23.520593"><ele>2393.1</ele><time>2026-03-15T12:45:26.000Z</time></trkpt>
<trkpt lat="41.727021" lon="23.520614"><ele>2391.4</ele><time>2026-03-15T12:45:27.000Z</time></trkpt>
<trkpt lat="41.727019" lon="23.520634"><ele>2391.4</ele><time>2026-03-15T12:45:28.000Z</time></trkpt>
<trkpt lat="41.727018" lon="23.520652"><ele>2391.4</ele><time>2026-03-15T12:45:29.000Z</time></trkpt>
<trkpt lat="41.727018" lon="23.520671"><ele>2391.4</ele><time>2026-03-15T12:45:30.000Z</time></trkpt>
<trkpt lat="41.72702" lon="23.520689"><ele>2391.4</ele><time>2026-03-15T12:45:31.000Z</time></trkpt>
<trkpt lat="41.727022" lon="23.520707"><ele>2390.5</ele><time>2026-03-15T12:45:32.000Z</time></trkpt>
<trkpt lat="41.727025" lon="23.520725"><ele>2390.5</ele><time>2026-03-15T12:45:33.000Z</time></trkpt>
<trkpt lat="41.727029" lon="23.520743"><ele>2390.5</ele><time>2026-03-15T12:45:34.000Z</time></trkpt>
<trkpt lat="41.727033" lon="23.520762"><ele>2390.5</ele><time>2026-03-15T12:45:35.000Z</time></trkpt>
<trkpt lat="41.727035" lon="23.520781"><ele>2390.5</ele><time>2026-03-15T12:45:36.000Z</time></trkpt>
<trkpt lat="41.727037" lon="23.520801"><ele>2388.9</ele><time>2026-03-15T12:45:37.000Z</time></trkpt>
<trkpt lat="41.727038" lon="23.520821"><ele>2388.9</ele><time>2026-03-15T12:45:38.000Z</time></trkpt>
<trkpt lat="41.727038" lon="23.520841"><ele>2388.9</ele><time>2026-03-15T12:45:39.000Z</time></trkpt>
<trkpt lat="41.727038" lon="23.520861"><ele>2388.9</ele><time>2026-03-15T12:45:40.000Z</time></trkpt>
<trkpt lat="41.727038" lon="23.52088"><ele>2388.9</ele><time>2026-03-15T12:45:41.000Z</time></trkpt>
<trkpt lat="41.727039" lon="23.520899"><ele>2387.3</ele><time>2026-03-15T12:45:42.000Z</time></trkpt>
<trkpt lat="41.727039" lon="23.520918"><ele>2387.3</ele><time>2026-03-15T12:45:43.000Z</time></trkpt>
<trkpt lat="41.72704" lon="23.520936"><ele>2387.3</ele><time>2026-03-15T12:45:44.000Z</time></trkpt>
<trkpt lat="41.727042" lon="23.520956"><ele>2387.3</ele><time>2026-03-15T12:45:45.000Z</time></trkpt>
<trkpt lat="41.727043" lon="23.520975"><ele>2387.3</ele><time>2026-03-15T12:45:46.000Z</time></trkpt>
<trkpt lat="41.727044" lon="23.520995"><ele>2386.5</ele><time>2026-03-15T12:45:47.000Z</time></trkpt>
<trkpt lat="41.727046" lon="23.521015"><ele>2386.5</ele><time>2026-03-15T12:45:48.000Z</time></trkpt>
<trkpt lat="41.727046" lon="23.521034"><ele>2386.5</ele><time>2026-03-15T12:45:49.000Z</time></trkpt>
<trkpt lat="41.727044" lon="23.521055"><ele>2386.5</ele><time>2026-03-15T12:45:50.000Z</time></trkpt>
<trkpt lat="41.727041" lon="23.521075"><ele>2386.5</ele><time>2026-03-15T12:45:51.000Z</time></trkpt>
<trkpt lat="41.727039" lon="23.521095"><ele>2384.6</ele><time>2026-03-15T12:45:52.000Z</time></trkpt>
<trkpt lat="41.727037" lon="23.521114"><ele>2384.6</ele><time>2026-03-15T12:45:53.000Z</time></trkpt>
<trkpt lat="41.727036" lon="23.521134"><ele>2384.6</ele><time>2026-03-15T12:45:54.000Z</time></trkpt>
<trkpt lat="41.727036" lon="23.521154"><ele>2384.6</ele><time>2026-03-15T12:45:55.000Z</time></trkpt>
<trkpt lat="41.727036" lon="23.521173"><ele>2384.6</ele><time>2026-03-15T12:45:56.000Z</time></trkpt>
<trkpt lat="41.727036" lon="23.521193"><ele>2382.5</ele><time>2026-03-15T12:45:57.000Z</time></trkpt>
<trkpt lat="41.727037" lon="23.521212"><ele>2382.5</ele><time>2026-03-15T12:45:58.000Z</time></trkpt>
<trkpt lat="41.727036" lon="23.521232"><ele>2382.5</ele><time>2026-03-15T12:45:59.000Z</time></trkpt>
<trkpt lat="41.727035" lon="23.521252"><ele>2382.5</ele><time>2026-03-15T12:46:00.000Z</time></trkpt>
<trkpt lat="41.727033" lon="23.521273"><ele>2382.5</ele><time>2026-03-15T12:46:01.000Z</time></trkpt>
<trkpt lat="41.727032" lon="23.521293"><ele>2381.5</ele><time>2026-03-15T12:46:02.000Z</time></trkpt>
<trkpt lat="41.727031" lon="23.521314"><ele>2381.5</ele><time>2026-03-15T12:46:03.000Z</time></trkpt>
<trkpt lat="41.72703" lon="23.521335"><ele>2381.5</ele><time>2026-03-15T12:46:04.000Z</time></trkpt>
<trkpt lat="41.72703" lon="23.521355"><ele>2381.5</ele><time>2026-03-15T12:46:05.000Z</time></trkpt>
<trkpt lat="41.727031" lon="23.521373"><ele>2381.5</ele><time>2026-03-15T12:46:06.000Z</time></trkpt>
<trkpt lat="41.727031" lon="23.521392"><ele>2379.4</ele><time>2026-03-15T12:46:07.000Z</time></trkpt>
<trkpt lat="41.72703" lon="23.52141"><ele>2379.4</ele><time>2026-03-15T12:46:08.000Z</time></trkpt>
<trkpt lat="41.727029" lon="23.521429"><ele>2379.4</ele><time>2026-03-15T12:46:09.000Z</time></trkpt>
<trkpt lat="41.727028" lon="23.521447"><ele>2379.4</ele><time>2026-03-15T12:46:10.000Z</time></trkpt>
<trkpt lat="41.727027" lon="23.521467"><ele>2379.4</ele><time>2026-03-15T12:46:11.000Z</time></trkpt>
<trkpt lat="41.727026" lon="23.521487"><ele>2377.3</ele><time>2026-03-15T12:46:12.000Z</time></trkpt>
<trkpt lat="41.727027" lon="23.521506"><ele>2377.3</ele><time>2026-03-15T12:46:13.000Z</time></trkpt>
<trkpt lat="41.72703" lon="23.521525"><ele>2377.3</ele><time>2026-03-15T12:46:14.000Z</time></trkpt>
<trkpt lat="41.727035" lon="23.521545"><ele>2377.3</ele><time>2026-03-15T12:46:15.000Z</time></trkpt>
<trkpt lat="41.72704" lon="23.521565"><ele>2377.3</ele><time>2026-03-15T12:46:16.000Z</time></trkpt>
<trkpt lat="41.727046" lon="23.521584"><ele>2376.2</ele><time>2026-03-15T12:46:17.000Z</time></trkpt>
<trkpt lat="41.727052" lon="23.521603"><ele>2376.2</ele><time>2026-03-15T12:46:18.000Z</time></trkpt>
<trkpt lat="41.727058" lon="23.521623"><ele>2376.2</ele><time>2026-03-15T12:46:19.000Z</time></trkpt>
<trkpt lat="41.727063" lon="23.521642"><ele>2376.2</ele><time>2026-03-15T12:46:20.000Z</time></trkpt>
<trkpt lat="41.727069" lon="23.521661"><ele>2376.2</ele><time>2026-03-15T12:46:21.000Z</time></trkpt>
<trkpt lat="41.727074" lon="23.52168"><ele>2374</ele><time>2026-03-15T12:46:22.000Z</time></trkpt>
<trkpt lat="41.727081" lon="23.521698"><ele>2374</ele><time>2026-03-15T12:46:23.000Z</time></trkpt>
<trkpt lat="41.727087" lon="23.521716"><ele>2374</ele><time>2026-03-15T12:46:24.000Z</time></trkpt>
<trkpt lat="41.727093" lon="23.521734"><ele>2374</ele><time>2026-03-15T12:46:25.000Z</time></trkpt>
<trkpt lat="41.727098" lon="23.521752"><ele>2374</ele><time>2026-03-15T12:46:26.000Z</time></trkpt>
<trkpt lat="41.727103" lon="23.521771"><ele>2371.9</ele><time>2026-03-15T12:46:27.000Z</time></trkpt>
<trkpt lat="41.727107" lon="23.52179"><ele>2371.9</ele><time>2026-03-15T12:46:28.000Z</time></trkpt>
<trkpt lat="41.727111" lon="23.521809"><ele>2371.9</ele><time>2026-03-15T12:46:29.000Z</time></trkpt>
<trkpt lat="41.727113" lon="23.521829"><ele>2371.9</ele><time>2026-03-15T12:46:30.000Z</time></trkpt>
<trkpt lat="41.727115" lon="23.52185"><ele>2371.9</ele><time>2026-03-15T12:46:31.000Z</time></trkpt>
<trkpt lat="41.727116" lon="23.521871"><ele>2370.8</ele><time>2026-03-15T12:46:32.000Z</time></trkpt>
<trkpt lat="41.727117" lon="23.521894"><ele>2370.8</ele><time>2026-03-15T12:46:33.000Z</time></trkpt>
<trkpt lat="41.727119" lon="23.521918"><ele>2370.8</ele><time>2026-03-15T12:46:34.000Z</time></trkpt>
<trkpt lat="41.727121" lon="23.521941"><ele>2370.8</ele><time>2026-03-15T12:46:35.000Z</time></trkpt>
<trkpt lat="41.727123" lon="23.521963"><ele>2370.8</ele><time>2026-03-15T12:46:36.000Z</time></trkpt>
<trkpt lat="41.727126" lon="23.521983"><ele>2368.8</ele><time>2026-03-15T12:46:37.000Z</time></trkpt>
<trkpt lat="41.727129" lon="23.522003"><ele>2368.8</ele><time>2026-03-15T12:46:38.000Z</time></trkpt>
<trkpt lat="41.727133" lon="23.522022"><ele>2368.8</ele><time>2026-03-15T12:46:39.000Z</time></trkpt>
<trkpt lat="41.727136" lon="23.522041"><ele>2368.8</ele><time>2026-03-15T12:46:40.000Z</time></trkpt>
<trkpt lat="41.727139" lon="23.52206"><ele>2368.8</ele><time>2026-03-15T12:46:41.000Z</time></trkpt>
<trkpt lat="41.727143" lon="23.522078"><ele>2366.8</ele><time>2026-03-15T12:46:42.000Z</time></trkpt>
<trkpt lat="41.727148" lon="23.522096"><ele>2366.8</ele><time>2026-03-15T12:46:43.000Z</time></trkpt>
<trkpt lat="41.727154" lon="23.522115"><ele>2366.8</ele><time>2026-03-15T12:46:44.000Z</time></trkpt>
<trkpt lat="41.727161" lon="23.522134"><ele>2366.8</ele><time>2026-03-15T12:46:45.000Z</time></trkpt>
<trkpt lat="41.727168" lon="23.522153"><ele>2366.8</ele><time>2026-03-15T12:46:46.000Z</time></trkpt>
<trkpt lat="41.727174" lon="23.522173"><ele>2365.9</ele><time>2026-03-15T12:46:47.000Z</time></trkpt>
<trkpt lat="41.72718" lon="23.522193"><ele>2365.9</ele><time>2026-03-15T12:46:48.000Z</time></trkpt>
<trkpt lat="41.727184" lon="23.522213"><ele>2365.9</ele><time>2026-03-15T12:46:49.000Z</time></trkpt>
<trkpt lat="41.727187" lon="23.522232"><ele>2365.9</ele><time>2026-03-15T12:46:50.000Z</time></trkpt>
<trkpt lat="41.727191" lon="23.522252"><ele>2365.9</ele><time>2026-03-15T12:46:51.000Z</time></trkpt>
<trkpt lat="41.727195" lon="23.522272"><ele>2364.1</ele><time>2026-03-15T12:46:52.000Z</time></trkpt>
<trkpt lat="41.7272" lon="23.522292"><ele>2364.1</ele><time>2026-03-15T12:46:53.000Z</time></trkpt>
<trkpt lat="41.727203" lon="23.522314"><ele>2364.1</ele><time>2026-03-15T12:46:54.000Z</time></trkpt>
<trkpt lat="41.727207" lon="23.522336"><ele>2364.1</ele><time>2026-03-15T12:46:55.000Z</time></trkpt>
<trkpt lat="41.72721" lon="23.522358"><ele>2364.1</ele><time>2026-03-15T12:46:56.000Z</time></trkpt>
<trkpt lat="41.727212" lon="23.522381"><ele>2362.5</ele><time>2026-03-15T12:46:57.000Z</time></trkpt>
<trkpt lat="41.727215" lon="23.522402"><ele>2362.5</ele><time>2026-03-15T12:46:58.000Z</time></trkpt>
<trkpt lat="41.727217" lon="23.522422"><ele>2362.5</ele><time>2026-03-15T12:46:59.000Z</time></trkpt>
<trkpt lat="41.727221" lon="23.522439"><ele>2362.5</ele><time>2026-03-15T12:47:00.000Z</time></trkpt>
<trkpt lat="41.727224" lon="23.522457"><ele>2362.5</ele><time>2026-03-15T12:47:01.000Z</time></trkpt>
<trkpt lat="41.727228" lon="23.522476"><ele>2361.9</ele><time>2026-03-15T12:47:02.000Z</time></trkpt>
<trkpt lat="41.727234" lon="23.522494"><ele>2361.9</ele><time>2026-03-15T12:47:03.000Z</time></trkpt>
<trkpt lat="41.72724" lon="23.522513"><ele>2361.9</ele><time>2026-03-15T12:47:04.000Z</time></trkpt>
<trkpt lat="41.727245" lon="23.522532"><ele>2361.9</ele><time>2026-03-15T12:47:05.000Z</time></trkpt>
<trkpt lat="41.727253" lon="23.522549"><ele>2361.9</ele><time>2026-03-15T12:47:06.000Z</time></trkpt>
<trkpt lat="41.72726" lon="23.522564"><ele>2360.8</ele><time>2026-03-15T12:47:07.000Z</time></trkpt>
<trkpt lat="41.727266" lon="23.522579"><ele>2360.8</ele><time>2026-03-15T12:47:08.000Z</time></trkpt>
<trkpt lat="41.727272" lon="23.522594"><ele>2360.8</ele><time>2026-03-15T12:47:09.000Z</time></trkpt>
<trkpt lat="41.727278" lon="23.52261"><ele>2360.8</ele><time>2026-03-15T12:47:10.000Z</time></trkpt>
<trkpt lat="41.727283" lon="23.522627"><ele>2360.8</ele><time>2026-03-15T12:47:11.000Z</time></trkpt>
<trkpt lat="41.727288" lon="23.522645"><ele>2359.8</ele><time>2026-03-15T12:47:12.000Z</time></trkpt>
<trkpt lat="41.727294" lon="23.522662"><ele>2359.8</ele><time>2026-03-15T12:47:13.000Z</time></trkpt>
<trkpt lat="41.727299" lon="23.52268"><ele>2359.8</ele><time>2026-03-15T12:47:14.000Z</time></trkpt>
<trkpt lat="41.727303" lon="23.5227"><ele>2359.8</ele><time>2026-03-15T12:47:15.000Z</time></trkpt>
<trkpt lat="41.727307" lon="23.522718"><ele>2359.8</ele><time>2026-03-15T12:47:16.000Z</time></trkpt>
<trkpt lat="41.727312" lon="23.522737"><ele>2359.4</ele><time>2026-03-15T12:47:17.000Z</time></trkpt>
<trkpt lat="41.727316" lon="23.522755"><ele>2359.4</ele><time>2026-03-15T12:47:18.000Z</time></trkpt>
<trkpt lat="41.72732" lon="23.522771"><ele>2359.4</ele><time>2026-03-15T12:47:19.000Z</time></trkpt>
<trkpt lat="41.727324" lon="23.522788"><ele>2359.4</ele><time>2026-03-15T12:47:20.000Z</time></trkpt>
<trkpt lat="41.727327" lon="23.522805"><ele>2359.4</ele><time>2026-03-15T12:47:21.000Z</time></trkpt>
<trkpt lat="41.727332" lon="23.522822"><ele>2358.7</ele><time>2026-03-15T12:47:22.000Z</time></trkpt>
<trkpt lat="41.727336" lon="23.522839"><ele>2358.7</ele><time>2026-03-15T12:47:23.000Z</time></trkpt>
<trkpt lat="41.727341" lon="23.522858"><ele>2358.7</ele><time>2026-03-15T12:47:24.000Z</time></trkpt>
<trkpt lat="41.727346" lon="23.522876"><ele>2358.7</ele><time>2026-03-15T12:47:25.000Z</time></trkpt>
<trkpt lat="41.727353" lon="23.522894"><ele>2358.7</ele><time>2026-03-15T12:47:26.000Z</time></trkpt>
<trkpt lat="41.727358" lon="23.522912"><ele>2358.1</ele><time>2026-03-15T12:47:27.000Z</time></trkpt>
<trkpt lat="41.727364" lon="23.522931"><ele>2358.1</ele><time>2026-03-15T12:47:28.000Z</time></trkpt>
<trkpt lat="41.727368" lon="23.522951"><ele>2358.1</ele><time>2026-03-15T12:47:29.000Z</time></trkpt>
<trkpt lat="41.727373" lon="23.52297"><ele>2358.1</ele><time>2026-03-15T12:47:30.000Z</time></trkpt>
<trkpt lat="41.727377" lon="23.522991"><ele>2358.1</ele><time>2026-03-15T12:47:31.000Z</time></trkpt>
<trkpt lat="41.727381" lon="23.52301"><ele>2357.7</ele><time>2026-03-15T12:47:32.000Z</time></trkpt>
<trkpt lat="41.727385" lon="23.523028"><ele>2357.7</ele><time>2026-03-15T12:47:33.000Z</time></trkpt>
<trkpt lat="41.72739" lon="23.523045"><ele>2357.7</ele><time>2026-03-15T12:47:34.000Z</time></trkpt>
<trkpt lat="41.727395" lon="23.523062"><ele>2357.7</ele><time>2026-03-15T12:47:35.000Z</time></trkpt>
<trkpt lat="41.7274" lon="23.523079"><ele>2357.7</ele><time>2026-03-15T12:47:36.000Z</time></trkpt>
<trkpt lat="41.727405" lon="23.523097"><ele>2356.9</ele><time>2026-03-15T12:47:37.000Z</time></trkpt>
<trkpt lat="41.72741" lon="23.523115"><ele>2356.9</ele><time>2026-03-15T12:47:38.000Z</time></trkpt>
<trkpt lat="41.727415" lon="23.523133"><ele>2356.9</ele><time>2026-03-15T12:47:39.000Z</time></trkpt>
<trkpt lat="41.72742" lon="23.523151"><ele>2356.9</ele><time>2026-03-15T12:47:40.000Z</time></trkpt>
<trkpt lat="41.727426" lon="23.523169"><ele>2356.9</ele><time>2026-03-15T12:47:41.000Z</time></trkpt>
<trkpt lat="41.727432" lon="23.523185"><ele>2356</ele><time>2026-03-15T12:47:42.000Z</time></trkpt>
<trkpt lat="41.727438" lon="23.523201"><ele>2356</ele><time>2026-03-15T12:47:43.000Z</time></trkpt>
<trkpt lat="41.727444" lon="23.523217"><ele>2356</ele><time>2026-03-15T12:47:44.000Z</time></trkpt>
<trkpt lat="41.727449" lon="23.523234"><ele>2356</ele><time>2026-03-15T12:47:45.000Z</time></trkpt>
<trkpt lat="41.727455" lon="23.52325"><ele>2356</ele><time>2026-03-15T12:47:46.000Z</time></trkpt>
<trkpt lat="41.727461" lon="23.523266"><ele>2355.6</ele><time>2026-03-15T12:47:47.000Z</time></trkpt>
<trkpt lat="41.727468" lon="23.523282"><ele>2355.6</ele><time>2026-03-15T12:47:48.000Z</time></trkpt>
<trkpt lat="41.727475" lon="23.523297"><ele>2355.6</ele><time>2026-03-15T12:47:49.000Z</time></trkpt>
<trkpt lat="41.727482" lon="23.523312"><ele>2355.6</ele><time>2026-03-15T12:47:50.000Z</time></trkpt>
<trkpt lat="41.727489" lon="23.523327"><ele>2355.6</ele><time>2026-03-15T12:47:51.000Z</time></trkpt>
<trkpt lat="41.727496" lon="23.523343"><ele>2354.9</ele><time>2026-03-15T12:47:52.000Z</time></trkpt>
<trkpt lat="41.727501" lon="23.523358"><ele>2354.9</ele><time>2026-03-15T12:47:53.000Z</time></trkpt>
<trkpt lat="41.727507" lon="23.523374"><ele>2354.9</ele><time>2026-03-15T12:47:54.000Z</time></trkpt>
<trkpt lat="41.727512" lon="23.523391"><ele>2354.9</ele><time>2026-03-15T12:47:55.000Z</time></trkpt>
<trkpt lat="41.727518" lon="23.523407"><ele>2354.9</ele><time>2026-03-15T12:47:56.000Z</time></trkpt>
<trkpt lat="41.727523" lon="23.523422"><ele>2354.2</ele><time>2026-03-15T12:47:57.000Z</time></trkpt>
<trkpt lat="41.72753" lon="23.52344"><ele>2354.2</ele><time>2026-03-15T12:47:58.000Z</time></trkpt>
<trkpt lat="41.727537" lon="23.523457"><ele>2354.2</ele><time>2026-03-15T12:47:59.000Z</time></trkpt>
<trkpt lat="41.727544" lon="23.523474"><ele>2354.2</ele><time>2026-03-15T12:48:00.000Z</time></trkpt>
<trkpt lat="41.727552" lon="23.52349"><ele>2354.2</ele><time>2026-03-15T12:48:01.000Z</time></trkpt>
<trkpt lat="41.727558" lon="23.523507"><ele>2353.8</ele><time>2026-03-15T12:48:02.000Z</time></trkpt>
<trkpt lat="41.727564" lon="23.523524"><ele>2353.8</ele><time>2026-03-15T12:48:03.000Z</time></trkpt>
<trkpt lat="41.72757" lon="23.523538"><ele>2353.8</ele><time>2026-03-15T12:48:04.000Z</time></trkpt>
<trkpt lat="41.727577" lon="23.523553"><ele>2353.8</ele><time>2026-03-15T12:48:05.000Z</time></trkpt>
<trkpt lat="41.727584" lon="23.523569"><ele>2353.8</ele><time>2026-03-15T12:48:06.000Z</time></trkpt>
<trkpt lat="41.727591" lon="23.523584"><ele>2353</ele><time>2026-03-15T12:48:07.000Z</time></trkpt>
<trkpt lat="41.727599" lon="23.5236"><ele>2353</ele><time>2026-03-15T12:48:08.000Z</time></trkpt>
<trkpt lat="41.727606" lon="23.523618"><ele>2353</ele><time>2026-03-15T12:48:09.000Z</time></trkpt>
<trkpt lat="41.727614" lon="23.523635"><ele>2353</ele><time>2026-03-15T12:48:10.000Z</time></trkpt>
<trkpt lat="41.727622" lon="23.523652"><ele>2353</ele><time>2026-03-15T12:48:11.000Z</time></trkpt>
<trkpt lat="41.727631" lon="23.523668"><ele>2352.3</ele><time>2026-03-15T12:48:12.000Z</time></trkpt>
<trkpt lat="41.727638" lon="23.523683"><ele>2352.3</ele><time>2026-03-15T12:48:13.000Z</time></trkpt>
<trkpt lat="41.727646" lon="23.523698"><ele>2352.3</ele><time>2026-03-15T12:48:14.000Z</time></trkpt>
<trkpt lat="41.727652" lon="23.523713"><ele>2352.3</ele><time>2026-03-15T12:48:15.000Z</time></trkpt>
<trkpt lat="41.727658" lon="23.523728"><ele>2352.3</ele><time>2026-03-15T12:48:16.000Z</time></trkpt>
<trkpt lat="41.727664" lon="23.523744"><ele>2352</ele><time>2026-03-15T12:48:17.000Z</time></trkpt>
<trkpt lat="41.727671" lon="23.523762"><ele>2352</ele><time>2026-03-15T12:48:18.000Z</time></trkpt>
<trkpt lat="41.72768" lon="23.52378"><ele>2352</ele><time>2026-03-15T12:48:19.000Z</time></trkpt>
<trkpt lat="41.727687" lon="23.523798"><ele>2352</ele><time>2026-03-15T12:48:20.000Z</time></trkpt>
<trkpt lat="41.727695" lon="23.523816"><ele>2352</ele><time>2026-03-15T12:48:21.000Z</time></trkpt>
<trkpt lat="41.727701" lon="23.523835"><ele>2351.1</ele><time>2026-03-15T12:48:22.000Z</time></trkpt>
<trkpt lat="41.727708" lon="23.523852"><ele>2351.1</ele><time>2026-03-15T12:48:23.000Z</time></trkpt>
<trkpt lat="41.727716" lon="23.523869"><ele>2351.1</ele><time>2026-03-15T12:48:24.000Z</time></trkpt>
<trkpt lat="41.727724" lon="23.523885"><ele>2351.1</ele><time>2026-03-15T12:48:25.000Z</time></trkpt>
<trkpt lat="41.727732" lon="23.5239"><ele>2351.1</ele><time>2026-03-15T12:48:26.000Z</time></trkpt>
<trkpt lat="41.72774" lon="23.523913"><ele>2350.1</ele><time>2026-03-15T12:48:27.000Z</time></trkpt>
<trkpt lat="41.727748" lon="23.523925"><ele>2350.1</ele><time>2026-03-15T12:48:28.000Z</time></trkpt>
<trkpt lat="41.727755" lon="23.523938"><ele>2350.1</ele><time>2026-03-15T12:48:29.000Z</time></trkpt>
<trkpt lat="41.727763" lon="23.52395"><ele>2350.1</ele><time>2026-03-15T12:48:30.000Z</time></trkpt>
<trkpt lat="41.727771" lon="23.523962"><ele>2350.1</ele><time>2026-03-15T12:48:31.000Z</time></trkpt>
<trkpt lat="41.72778" lon="23.523975"><ele>2349.6</ele><time>2026-03-15T12:48:32.000Z</time></trkpt>
<trkpt lat="41.727789" lon="23.523987"><ele>2349.6</ele><time>2026-03-15T12:48:33.000Z</time></trkpt>
<trkpt lat="41.7278" lon="23.523999"><ele>2349.6</ele><time>2026-03-15T12:48:34.000Z</time></trkpt>
<trkpt lat="41.72781" lon="23.52401"><ele>2349.6</ele><time>2026-03-15T12:48:35.000Z</time></trkpt>
<trkpt lat="41.727821" lon="23.524021"><ele>2349.6</ele><time>2026-03-15T12:48:36.000Z</time></trkpt>
<trkpt lat="41.727832" lon="23.524033"><ele>2348.7</ele><time>2026-03-15T12:48:37.000Z</time></trkpt>
<trkpt lat="41.727844" lon="23.524045"><ele>2348.7</ele><time>2026-03-15T12:48:38.000Z</time></trkpt>
<trkpt lat="41.727856" lon="23.524057"><ele>2348.7</ele><time>2026-03-15T12:48:39.000Z</time></trkpt>
<trkpt lat="41.727869" lon="23.524069"><ele>2348.7</ele><time>2026-03-15T12:48:40.000Z</time></trkpt>
<trkpt lat="41.727882" lon="23.524082"><ele>2348.7</ele><time>2026-03-15T12:48:41.000Z</time></trkpt>
<trkpt lat="41.727894" lon="23.524097"><ele>2347.6</ele><time>2026-03-15T12:48:42.000Z</time></trkpt>
<trkpt lat="41.727905" lon="23.524111"><ele>2347.6</ele><time>2026-03-15T12:48:43.000Z</time></trkpt>
<trkpt lat="41.727916" lon="23.524126"><ele>2347.6</ele><time>2026-03-15T12:48:44.000Z</time></trkpt>
<trkpt lat="41.727925" lon="23.524142"><ele>2347.6</ele><time>2026-03-15T12:48:45.000Z</time></trkpt>
<trkpt lat="41.727934" lon="23.524159"><ele>2347.6</ele><time>2026-03-15T12:48:46.000Z</time></trkpt>
<trkpt lat="41.727943" lon="23.524175"><ele>2346.9</ele><time>2026-03-15T12:48:47.000Z</time></trkpt>
<trkpt lat="41.727952" lon="23.52419"><ele>2346.9</ele><time>2026-03-15T12:48:48.000Z</time></trkpt>
<trkpt lat="41.72796" lon="23.524205"><ele>2346.9</ele><time>2026-03-15T12:48:49.000Z</time></trkpt>
<trkpt lat="41.727969" lon="23.524219"><ele>2346.9</ele><time>2026-03-15T12:48:50.000Z</time></trkpt>
<trkpt lat="41.727979" lon="23.524232"><ele>2346.9</ele><time>2026-03-15T12:48:51.000Z</time></trkpt>
<trkpt lat="41.727989" lon="23.524243"><ele>2345.4</ele><time>2026-03-15T12:48:52.000Z</time></trkpt>
<trkpt lat="41.728" lon="23.524254"><ele>2345.4</ele><time>2026-03-15T12:48:53.000Z</time></trkpt>
<trkpt lat="41.728012" lon="23.524263"><ele>2345.4</ele><time>2026-03-15T12:48:54.000Z</time></trkpt>
<trkpt lat="41.728024" lon="23.524271"><ele>2345.4</ele><time>2026-03-15T12:48:55.000Z</time></trkpt>
<trkpt lat="41.728038" lon="23.524279"><ele>2345.4</ele><time>2026-03-15T12:48:56.000Z</time></trkpt>
<trkpt lat="41.728051" lon="23.524287"><ele>2343.7</ele><time>2026-03-15T12:48:57.000Z</time></trkpt>
<trkpt lat="41.728065" lon="23.524296"><ele>2343.7</ele><time>2026-03-15T12:48:58.000Z</time></trkpt>
<trkpt lat="41.728079" lon="23.524305"><ele>2343.7</ele><time>2026-03-15T12:48:59.000Z</time></trkpt>
<trkpt lat="41.72809" lon="23.524317"><ele>2343.7</ele><time>2026-03-15T12:49:00.000Z</time></trkpt>
<trkpt lat="41.7281" lon="23.52433"><ele>2343.7</ele><time>2026-03-15T12:49:01.000Z</time></trkpt>
<trkpt lat="41.72811" lon="23.524343"><ele>2342.7</ele><time>2026-03-15T12:49:02.000Z</time></trkpt>
<trkpt lat="41.72812" lon="23.524356"><ele>2342.7</ele><time>2026-03-15T12:49:03.000Z</time></trkpt>
<trkpt lat="41.728129" lon="23.524369"><ele>2342.7</ele><time>2026-03-15T12:49:04.000Z</time></trkpt>
<trkpt lat="41.728139" lon="23.524381"><ele>2342.7</ele><time>2026-03-15T12:49:05.000Z</time></trkpt>
<trkpt lat="41.728149" lon="23.524393"><ele>2342.7</ele><time>2026-03-15T12:49:06.000Z</time></trkpt>
<trkpt lat="41.72816" lon="23.524405"><ele>2340.5</ele><time>2026-03-15T12:49:07.000Z</time></trkpt>
<trkpt lat="41.728172" lon="23.524417"><ele>2340.5</ele><time>2026-03-15T12:49:08.000Z</time></trkpt>
<trkpt lat="41.728183" lon="23.524429"><ele>2340.5</ele><time>2026-03-15T12:49:09.000Z</time></trkpt>
<trkpt lat="41.728195" lon="23.524441"><ele>2340.5</ele><time>2026-03-15T12:49:10.000Z</time></trkpt>
<trkpt lat="41.728206" lon="23.524453"><ele>2340.5</ele><time>2026-03-15T12:49:11.000Z</time></trkpt>
<trkpt lat="41.728217" lon="23.524463"><ele>2338</ele><time>2026-03-15T12:49:12.000Z</time></trkpt>
<trkpt lat="41.728227" lon="23.524473"><ele>2338</ele><time>2026-03-15T12:49:13.000Z</time></trkpt>
<trkpt lat="41.728238" lon="23.524482"><ele>2338</ele><time>2026-03-15T12:49:14.000Z</time></trkpt>
<trkpt lat="41.728248" lon="23.524491"><ele>2338</ele><time>2026-03-15T12:49:15.000Z</time></trkpt>
<trkpt lat="41.72826" lon="23.524499"><ele>2338</ele><time>2026-03-15T12:49:16.000Z</time></trkpt>
<trkpt lat="41.728272" lon="23.524508"><ele>2336.8</ele><time>2026-03-15T12:49:17.000Z</time></trkpt>
<trkpt lat="41.728283" lon="23.524516"><ele>2336.8</ele><time>2026-03-15T12:49:18.000Z</time></trkpt>
<trkpt lat="41.728294" lon="23.524525"><ele>2336.8</ele><time>2026-03-15T12:49:19.000Z</time></trkpt>
<trkpt lat="41.728304" lon="23.524532"><ele>2336.8</ele><time>2026-03-15T12:49:20.000Z</time></trkpt>
<trkpt lat="41.728314" lon="23.52454"><ele>2336.8</ele><time>2026-03-15T12:49:21.000Z</time></trkpt>
<trkpt lat="41.728323" lon="23.524546"><ele>2334.5</ele><time>2026-03-15T12:49:22.000Z</time></trkpt>
<trkpt lat="41.728333" lon="23.524551"><ele>2334.5</ele><time>2026-03-15T12:49:23.000Z</time></trkpt>
<trkpt lat="41.728344" lon="23.524558"><ele>2334.5</ele><time>2026-03-15T12:49:24.000Z</time></trkpt>
<trkpt lat="41.728355" lon="23.524565"><ele>2334.5</ele><time>2026-03-15T12:49:25.000Z</time></trkpt>
<trkpt lat="41.728366" lon="23.524574"><ele>2334.5</ele><time>2026-03-15T12:49:26.000Z</time></trkpt>
<trkpt lat="41.728378" lon="23.524584"><ele>2332.3</ele><time>2026-03-15T12:49:27.000Z</time></trkpt>
<trkpt lat="41.728389" lon="23.524595"><ele>2332.3</ele><time>2026-03-15T12:49:28.000Z</time></trkpt>
<trkpt lat="41.7284" lon="23.524605"><ele>2332.3</ele><time>2026-03-15T12:49:29.000Z</time></trkpt>
<trkpt lat="41.72841" lon="23.524616"><ele>2332.3</ele><time>2026-03-15T12:49:30.000Z</time></trkpt>
<trkpt lat="41.728421" lon="23.524625"><ele>2332.3</ele><time>2026-03-15T12:49:31.000Z</time></trkpt>
<trkpt lat="41.728432" lon="23.524633"><ele>2331.2</ele><time>2026-03-15T12:49:32.000Z</time></trkpt>
<trkpt lat="41.728444" lon="23.52464"><ele>2331.2</ele><time>2026-03-15T12:49:33.000Z</time></trkpt>
<trkpt lat="41.728455" lon="23.524646"><ele>2331.2</ele><time>2026-03-15T12:49:34.000Z</time></trkpt>
<trkpt lat="41.728466" lon="23.524651"><ele>2331.2</ele><time>2026-03-15T12:49:35.000Z</time></trkpt>
<trkpt lat="41.728477" lon="23.524655"><ele>2331.2</ele><time>2026-03-15T12:49:36.000Z</time></trkpt>
<trkpt lat="41.728487" lon="23.524659"><ele>2328.7</ele><time>2026-03-15T12:49:37.000Z</time></trkpt>
<trkpt lat="41.728497" lon="23.524665"><ele>2328.7</ele><time>2026-03-15T12:49:38.000Z</time></trkpt>
<trkpt lat="41.728507" lon="23.524673"><ele>2328.7</ele><time>2026-03-15T12:49:39.000Z</time></trkpt>
<trkpt lat="41.728517" lon="23.524683"><ele>2328.7</ele><time>2026-03-15T12:49:40.000Z</time></trkpt>
<trkpt lat="41.728527" lon="23.524693"><ele>2328.7</ele><time>2026-03-15T12:49:41.000Z</time></trkpt>
<trkpt lat="41.728537" lon="23.524701"><ele>2326.1</ele><time>2026-03-15T12:49:42.000Z</time></trkpt>
<trkpt lat="41.728547" lon="23.524707"><ele>2326.1</ele><time>2026-03-15T12:49:43.000Z</time></trkpt>
<trkpt lat="41.728558" lon="23.524713"><ele>2326.1</ele><time>2026-03-15T12:49:44.000Z</time></trkpt>
<trkpt lat="41.72857" lon="23.524719"><ele>2326.1</ele><time>2026-03-15T12:49:45.000Z</time></trkpt>
<trkpt lat="41.728583" lon="23.524727"><ele>2326.1</ele><time>2026-03-15T12:49:46.000Z</time></trkpt>
<trkpt lat="41.728594" lon="23.524735"><ele>2324.7</ele><time>2026-03-15T12:49:47.000Z</time></trkpt>
<trkpt lat="41.728605" lon="23.524744"><ele>2324.7</ele><time>2026-03-15T12:49:48.000Z</time></trkpt>
<trkpt lat="41.728615" lon="23.524752"><ele>2324.7</ele><time>2026-03-15T12:49:49.000Z</time></trkpt>
<trkpt lat="41.728626" lon="23.524757"><ele>2324.7</ele><time>2026-03-15T12:49:50.000Z</time></trkpt>
<trkpt lat="41.728637" lon="23.524762"><ele>2324.7</ele><time>2026-03-15T12:49:51.000Z</time></trkpt>
<trkpt lat="41.728648" lon="23.524766"><ele>2322.1</ele><time>2026-03-15T12:49:52.000Z</time></trkpt>
<trkpt lat="41.72866" lon="23.524769"><ele>2322.1</ele><time>2026-03-15T12:49:53.000Z</time></trkpt>
<trkpt lat="41.728671" lon="23.524773"><ele>2322.1</ele><time>2026-03-15T12:49:54.000Z</time></trkpt>
<trkpt lat="41.728684" lon="23.524779"><ele>2322.1</ele><time>2026-03-15T12:49:55.000Z</time></trkpt>
<trkpt lat="41.728697" lon="23.524786"><ele>2322.1</ele><time>2026-03-15T12:49:56.000Z</time></trkpt>
<trkpt lat="41.728711" lon="23.524793"><ele>2319.6</ele><time>2026-03-15T12:49:57.000Z</time></trkpt>
<trkpt lat="41.728726" lon="23.524803"><ele>2319.6</ele><time>2026-03-15T12:49:58.000Z</time></trkpt>
<trkpt lat="41.728739" lon="23.524811"><ele>2319.6</ele><time>2026-03-15T12:49:59.000Z</time></trkpt>
<trkpt lat="41.728753" lon="23.524818"><ele>2319.6</ele><time>2026-03-15T12:50:00.000Z</time></trkpt>
<trkpt lat="41.728765" lon="23.524822"><ele>2319.6</ele><time>2026-03-15T12:50:01.000Z</time></trkpt>
<trkpt lat="41.728778" lon="23.524826"><ele>2318.3</ele><time>2026-03-15T12:50:02.000Z</time></trkpt>
<trkpt lat="41.728791" lon="23.524829"><ele>2318.3</ele><time>2026-03-15T12:50:03.000Z</time></trkpt>
<trkpt lat="41.728804" lon="23.52483"><ele>2318.3</ele><time>2026-03-15T12:50:04.000Z</time></trkpt>
<trkpt lat="41.728818" lon="23.524834"><ele>2318.3</ele><time>2026-03-15T12:50:05.000Z</time></trkpt>
<trkpt lat="41.728831" lon="23.52484"><ele>2318.3</ele><time>2026-03-15T12:50:06.000Z</time></trkpt>
<trkpt lat="41.728844" lon="23.524845"><ele>2316.1</ele><time>2026-03-15T12:50:07.000Z</time></trkpt>
<trkpt lat="41.728857" lon="23.524849"><ele>2316.1</ele><time>2026-03-15T12:50:08.000Z</time></trkpt>
<trkpt lat="41.72887" lon="23.524854"><ele>2316.1</ele><time>2026-03-15T12:50:09.000Z</time></trkpt>
<trkpt lat="41.728884" lon="23.524858"><ele>2316.1</ele><time>2026-03-15T12:50:10.000Z</time></trkpt>
<trkpt lat="41.728897" lon="23.524861"><ele>2316.1</ele><time>2026-03-15T12:50:11.000Z</time></trkpt>
<trkpt lat="41.728911" lon="23.524864"><ele>2313.8</ele><time>2026-03-15T12:50:12.000Z</time></trkpt>
<trkpt lat="41.728924" lon="23.524868"><ele>2313.8</ele><time>2026-03-15T12:50:13.000Z</time></trkpt>
<trkpt lat="41.728938" lon="23.524871"><ele>2313.8</ele><time>2026-03-15T12:50:14.000Z</time></trkpt>
<trkpt lat="41.728951" lon="23.524874"><ele>2313.8</ele><time>2026-03-15T12:50:15.000Z</time></trkpt>
<trkpt lat="41.728964" lon="23.524877"><ele>2313.8</ele><time>2026-03-15T12:50:16.000Z</time></trkpt>
<trkpt lat="41.728977" lon="23.524881"><ele>2312.7</ele><time>2026-03-15T12:50:17.000Z</time></trkpt>
<trkpt lat="41.728991" lon="23.524885"><ele>2312.7</ele><time>2026-03-15T12:50:18.000Z</time></trkpt>
<trkpt lat="41.729005" lon="23.524889"><ele>2312.7</ele><time>2026-03-15T12:50:19.000Z</time></trkpt>
<trkpt lat="41.72902" lon="23.524892"><ele>2312.7</ele><time>2026-03-15T12:50:20.000Z</time></trkpt>
<trkpt lat="41.729035" lon="23.524894"><ele>2312.7</ele><time>2026-03-15T12:50:21.000Z</time></trkpt>
<trkpt lat="41.729049" lon="23.524894"><ele>2310.7</ele><time>2026-03-15T12:50:22.000Z</time></trkpt>
<trkpt lat="41.729063" lon="23.524893"><ele>2310.7</ele><time>2026-03-15T12:50:23.000Z</time></trkpt>
<trkpt lat="41.729077" lon="23.524892"><ele>2310.7</ele><time>2026-03-15T12:50:24.000Z</time></trkpt>
<trkpt lat="41.729091" lon="23.524891"><ele>2310.7</ele><time>2026-03-15T12:50:25.000Z</time></trkpt>
<trkpt lat="41.729105" lon="23.524889"><ele>2310.7</ele><time>2026-03-15T12:50:26.000Z</time></trkpt>
<trkpt lat="41.729119" lon="23.524889"><ele>2308.9</ele><time>2026-03-15T12:50:27.000Z</time></trkpt>
<trkpt lat="41.729134" lon="23.524889"><ele>2308.9</ele><time>2026-03-15T12:50:28.000Z</time></trkpt>
<trkpt lat="41.729149" lon="23.524889"><ele>2308.9</ele><time>2026-03-15T12:50:29.000Z</time></trkpt>
<trkpt lat="41.729162" lon="23.524888"><ele>2308.9</ele><time>2026-03-15T12:50:30.000Z</time></trkpt>
<trkpt lat="41.729176" lon="23.524888"><ele>2308.9</ele><time>2026-03-15T12:50:31.000Z</time></trkpt>
<trkpt lat="41.729189" lon="23.524888"><ele>2308.2</ele><time>2026-03-15T12:50:32.000Z</time></trkpt>
<trkpt lat="41.729201" lon="23.524886"><ele>2308.2</ele><time>2026-03-15T12:50:33.000Z</time></trkpt>
<trkpt lat="41.729212" lon="23.524885"><ele>2308.2</ele><time>2026-03-15T12:50:34.000Z</time></trkpt>
<trkpt lat="41.729224" lon="23.524885"><ele>2308.2</ele><time>2026-03-15T12:50:35.000Z</time></trkpt>
<trkpt lat="41.729237" lon="23.524885"><ele>2308.2</ele><time>2026-03-15T12:50:36.000Z</time></trkpt>
<trkpt lat="41.72925" lon="23.524885"><ele>2306.6</ele><time>2026-03-15T12:50:37.000Z</time></trkpt>
<trkpt lat="41.729264" lon="23.524886"><ele>2306.6</ele><time>2026-03-15T12:50:38.000Z</time></trkpt>
<trkpt lat="41.729279" lon="23.524886"><ele>2306.6</ele><time>2026-03-15T12:50:39.000Z</time></trkpt>
<trkpt lat="41.729293" lon="23.524886"><ele>2306.6</ele><time>2026-03-15T12:50:40.000Z</time></trkpt>
<trkpt lat="41.729309" lon="23.524887"><ele>2306.6</ele><time>2026-03-15T12:50:41.000Z</time></trkpt>
<trkpt lat="41.729323" lon="23.524891"><ele>2305.1</ele><time>2026-03-15T12:50:42.000Z</time></trkpt>
<trkpt lat="41.729337" lon="23.524895"><ele>2305.1</ele><time>2026-03-15T12:50:43.000Z</time></trkpt>
<trkpt lat="41.729351" lon="23.524899"><ele>2305.1</ele><time>2026-03-15T12:50:44.000Z</time></trkpt>
<trkpt lat="41.729364" lon="23.524904"><ele>2305.1</ele><time>2026-03-15T12:50:45.000Z</time></trkpt>
<trkpt lat="41.729376" lon="23.524909"><ele>2305.1</ele><time>2026-03-15T12:50:46.000Z</time></trkpt>
<trkpt lat="41.729388" lon="23.524911"><ele>2304.3</ele><time>2026-03-15T12:50:47.000Z</time></trkpt>
<trkpt lat="41.7294" lon="23.524913"><ele>2304.3</ele><time>2026-03-15T12:50:48.000Z</time></trkpt>
<trkpt lat="41.729413" lon="23.524916"><ele>2304.3</ele><time>2026-03-15T12:50:49.000Z</time></trkpt>
<trkpt lat="41.729427" lon="23.524919"><ele>2304.3</ele><time>2026-03-15T12:50:50.000Z</time></trkpt>
<trkpt lat="41.72944" lon="23.524923"><ele>2304.3</ele><time>2026-03-15T12:50:51.000Z</time></trkpt>
<trkpt lat="41.729454" lon="23.524928"><ele>2302.6</ele><time>2026-03-15T12:50:52.000Z</time></trkpt>
<trkpt lat="41.729469" lon="23.524931"><ele>2302.6</ele><time>2026-03-15T12:50:53.000Z</time></trkpt>
<trkpt lat="41.729484" lon="23.524934"><ele>2302.6</ele><time>2026-03-15T12:50:54.000Z</time></trkpt>
<trkpt lat="41.7295" lon="23.524935"><ele>2302.6</ele><time>2026-03-15T12:50:55.000Z</time></trkpt>
<trkpt lat="41.729517" lon="23.524937"><ele>2302.6</ele><time>2026-03-15T12:50:56.000Z</time></trkpt>
<trkpt lat="41.729532" lon="23.524938"><ele>2301</ele><time>2026-03-15T12:50:57.000Z</time></trkpt>
<trkpt lat="41.729547" lon="23.524939"><ele>2301</ele><time>2026-03-15T12:50:58.000Z</time></trkpt>
<trkpt lat="41.729561" lon="23.524939"><ele>2301</ele><time>2026-03-15T12:50:59.000Z</time></trkpt>
<trkpt lat="41.729574" lon="23.524941"><ele>2301</ele><time>2026-03-15T12:51:00.000Z</time></trkpt>
<trkpt lat="41.729587" lon="23.524942"><ele>2301</ele><time>2026-03-15T12:51:01.000Z</time></trkpt>
<trkpt lat="41.7296" lon="23.524942"><ele>2300.4</ele><time>2026-03-15T12:51:02.000Z</time></trkpt>
<trkpt lat="41.729614" lon="23.524946"><ele>2300.4</ele><time>2026-03-15T12:51:03.000Z</time></trkpt>
<trkpt lat="41.729627" lon="23.52495"><ele>2300.4</ele><time>2026-03-15T12:51:04.000Z</time></trkpt>
<trkpt lat="41.729641" lon="23.524955"><ele>2300.4</ele><time>2026-03-15T12:51:05.000Z</time></trkpt>
<trkpt lat="41.729655" lon="23.524961"><ele>2300.4</ele><time>2026-03-15T12:51:06.000Z</time></trkpt>
<trkpt lat="41.729669" lon="23.524966"><ele>2299</ele><time>2026-03-15T12:51:07.000Z</time></trkpt>
<trkpt lat="41.729685" lon="23.524972"><ele>2299</ele><time>2026-03-15T12:51:08.000Z</time></trkpt>
<trkpt lat="41.729701" lon="23.524977"><ele>2299</ele><time>2026-03-15T12:51:09.000Z</time></trkpt>
<trkpt lat="41.729717" lon="23.524982"><ele>2299</ele><time>2026-03-15T12:51:10.000Z</time></trkpt>
<trkpt lat="41.729733" lon="23.524986"><ele>2299</ele><time>2026-03-15T12:51:11.000Z</time></trkpt>
<trkpt lat="41.729748" lon="23.524991"><ele>2297.6</ele><time>2026-03-15T12:51:12.000Z</time></trkpt>
<trkpt lat="41.729762" lon="23.524996"><ele>2297.6</ele><time>2026-03-15T12:51:13.000Z</time></trkpt>
<trkpt lat="41.729775" lon="23.525001"><ele>2297.6</ele><time>2026-03-15T12:51:14.000Z</time></trkpt>
<trkpt lat="41.729788" lon="23.525006"><ele>2297.6</ele><time>2026-03-15T12:51:15.000Z</time></trkpt>
<trkpt lat="41.7298" lon="23.52501"><ele>2297.6</ele><time>2026-03-15T12:51:16.000Z</time></trkpt>
<trkpt lat="41.729814" lon="23.525013"><ele>2296.9</ele><time>2026-03-15T12:51:17.000Z</time></trkpt>
<trkpt lat="41.729828" lon="23.525016"><ele>2296.9</ele><time>2026-03-15T12:51:18.000Z</time></trkpt>
<trkpt lat="41.729843" lon="23.525019"><ele>2296.9</ele><time>2026-03-15T12:51:19.000Z</time></trkpt>
<trkpt lat="41.729858" lon="23.525022"><ele>2296.9</ele><time>2026-03-15T12:51:20.000Z</time></trkpt>
<trkpt lat="41.729874" lon="23.525025"><ele>2296.9</ele><time>2026-03-15T12:51:21.000Z</time></trkpt>
<trkpt lat="41.729889" lon="23.525029"><ele>2295.4</ele><time>2026-03-15T12:51:22.000Z</time></trkpt>
<trkpt lat="41.729903" lon="23.525032"><ele>2295.4</ele><time>2026-03-15T12:51:23.000Z</time></trkpt>
<trkpt lat="41.729917" lon="23.525035"><ele>2295.4</ele><time>2026-03-15T12:51:24.000Z</time></trkpt>
<trkpt lat="41.72993" lon="23.525039"><ele>2295.4</ele><time>2026-03-15T12:51:25.000Z</time></trkpt>
<trkpt lat="41.729943" lon="23.525044"><ele>2295.4</ele><time>2026-03-15T12:51:26.000Z</time></trkpt>
<trkpt lat="41.729955" lon="23.525049"><ele>2293.9</ele><time>2026-03-15T12:51:27.000Z</time></trkpt>
<trkpt lat="41.729968" lon="23.525054"><ele>2293.9</ele><time>2026-03-15T12:51:28.000Z</time></trkpt>
<trkpt lat="41.729981" lon="23.52506"><ele>2293.9</ele><time>2026-03-15T12:51:29.000Z</time></trkpt>
<trkpt lat="41.729995" lon="23.525065"><ele>2293.9</ele><time>2026-03-15T12:51:30.000Z</time></trkpt>
<trkpt lat="41.730009" lon="23.52507"><ele>2293.9</ele><time>2026-03-15T12:51:31.000Z</time></trkpt>
<trkpt lat="41.730023" lon="23.525074"><ele>2293.2</ele><time>2026-03-15T12:51:32.000Z</time></trkpt>
<trkpt lat="41.730037" lon="23.525079"><ele>2293.2</ele><time>2026-03-15T12:51:33.000Z</time></trkpt>
<trkpt lat="41.73005" lon="23.525082"><ele>2293.2</ele><time>2026-03-15T12:51:34.000Z</time></trkpt>
<trkpt lat="41.730064" lon="23.525085"><ele>2293.2</ele><time>2026-03-15T12:51:35.000Z</time></trkpt>
<trkpt lat="41.730078" lon="23.525087"><ele>2293.2</ele><time>2026-03-15T12:51:36.000Z</time></trkpt>
<trkpt lat="41.730091" lon="23.52509"><ele>2291.6</ele><time>2026-03-15T12:51:37.000Z</time></trkpt>
<trkpt lat="41.730104" lon="23.525094"><ele>2291.6</ele><time>2026-03-15T12:51:38.000Z</time></trkpt>
<trkpt lat="41.730117" lon="23.525099"><ele>2291.6</ele><time>2026-03-15T12:51:39.000Z</time></trkpt>
<trkpt lat="41.730129" lon="23.525105"><ele>2291.6</ele><time>2026-03-15T12:51:40.000Z</time></trkpt>
<trkpt lat="41.730141" lon="23.525112"><ele>2291.6</ele><time>2026-03-15T12:51:41.000Z</time></trkpt>
<trkpt lat="41.730154" lon="23.525119"><ele>2290</ele><time>2026-03-15T12:51:42.000Z</time></trkpt>
<trkpt lat="41.730167" lon="23.525125"><ele>2290</ele><time>2026-03-15T12:51:43.000Z</time></trkpt>
<trkpt lat="41.73018" lon="23.525132"><ele>2290</ele><time>2026-03-15T12:51:44.000Z</time></trkpt>
<trkpt lat="41.730193" lon="23.525139"><ele>2290</ele><time>2026-03-15T12:51:45.000Z</time></trkpt>
<trkpt lat="41.730206" lon="23.525146"><ele>2290</ele><time>2026-03-15T12:51:46.000Z</time></trkpt>
<trkpt lat="41.73022" lon="23.525154"><ele>2289.2</ele><time>2026-03-15T12:51:47.000Z</time></trkpt>
<trkpt lat="41.730234" lon="23.525161"><ele>2289.2</ele><time>2026-03-15T12:51:48.000Z</time></trkpt>
<trkpt lat="41.730248" lon="23.525169"><ele>2289.2</ele><time>2026-03-15T12:51:49.000Z</time></trkpt>
<trkpt lat="41.730262" lon="23.525178"><ele>2289.2</ele><time>2026-03-15T12:51:50.000Z</time></trkpt>
<trkpt lat="41.730277" lon="23.525186"><ele>2289.2</ele><time>2026-03-15T12:51:51.000Z</time></trkpt>
<trkpt lat="41.730292" lon="23.525193"><ele>2287.8</ele><time>2026-03-15T12:51:52.000Z</time></trkpt>
<trkpt lat="41.730307" lon="23.5252"><ele>2287.8</ele><time>2026-03-15T12:51:53.000Z</time></trkpt>
<trkpt lat="41.730323" lon="23.525207"><ele>2287.8</ele><time>2026-03-15T12:51:54.000Z</time></trkpt>
<trkpt lat="41.730339" lon="23.525211"><ele>2287.8</ele><time>2026-03-15T12:51:55.000Z</time></trkpt>
<trkpt lat="41.730354" lon="23.525216"><ele>2287.8</ele><time>2026-03-15T12:51:56.000Z</time></trkpt>
<trkpt lat="41.730367" lon="23.525221"><ele>2286.7</ele><time>2026-03-15T12:51:57.000Z</time></trkpt>
<trkpt lat="41.730381" lon="23.525226"><ele>2286.7</ele><time>2026-03-15T12:51:58.000Z</time></trkpt>
<trkpt lat="41.730393" lon="23.525232"><ele>2286.7</ele><time>2026-03-15T12:51:59.000Z</time></trkpt>
<trkpt lat="41.730405" lon="23.525238"><ele>2286.7</ele><time>2026-03-15T12:52:00.000Z</time></trkpt>
<trkpt lat="41.730418" lon="23.525244"><ele>2286.7</ele><time>2026-03-15T12:52:01.000Z</time></trkpt>
<trkpt lat="41.730431" lon="23.52525"><ele>2286.1</ele><time>2026-03-15T12:52:02.000Z</time></trkpt>
<trkpt lat="41.730445" lon="23.525257"><ele>2286.1</ele><time>2026-03-15T12:52:03.000Z</time></trkpt>
<trkpt lat="41.730458" lon="23.525265"><ele>2286.1</ele><time>2026-03-15T12:52:04.000Z</time></trkpt>
<trkpt lat="41.730471" lon="23.525273"><ele>2286.1</ele><time>2026-03-15T12:52:05.000Z</time></trkpt>
<trkpt lat="41.730483" lon="23.52528"><ele>2286.1</ele><time>2026-03-15T12:52:06.000Z</time></trkpt>
<trkpt lat="41.730496" lon="23.525287"><ele>2284.8</ele><time>2026-03-15T12:52:07.000Z</time></trkpt>
<trkpt lat="41.730508" lon="23.525294"><ele>2284.8</ele><time>2026-03-15T12:52:08.000Z</time></trkpt>
<trkpt lat="41.730521" lon="23.525299"><ele>2284.8</ele><time>2026-03-15T12:52:09.000Z</time></trkpt>
<trkpt lat="41.730534" lon="23.525304"><ele>2284.8</ele><time>2026-03-15T12:52:10.000Z</time></trkpt>
<trkpt lat="41.730547" lon="23.525308"><ele>2284.8</ele><time>2026-03-15T12:52:11.000Z</time></trkpt>
<trkpt lat="41.730561" lon="23.525312"><ele>2283.5</ele><time>2026-03-15T12:52:12.000Z</time></trkpt>
<trkpt lat="41.730574" lon="23.525316"><ele>2283.5</ele><time>2026-03-15T12:52:13.000Z</time></trkpt>
<trkpt lat="41.730588" lon="23.525319"><ele>2283.5</ele><time>2026-03-15T12:52:14.000Z</time></trkpt>
<trkpt lat="41.730602" lon="23.525322"><ele>2283.5</ele><time>2026-03-15T12:52:15.000Z</time></trkpt>
<trkpt lat="41.730616" lon="23.525325"><ele>2283.5</ele><time>2026-03-15T12:52:16.000Z</time></trkpt>
<trkpt lat="41.730629" lon="23.525327"><ele>2282.8</ele><time>2026-03-15T12:52:17.000Z</time></trkpt>
<trkpt lat="41.730642" lon="23.525329"><ele>2282.8</ele><time>2026-03-15T12:52:18.000Z</time></trkpt>
<trkpt lat="41.730655" lon="23.525331"><ele>2282.8</ele><time>2026-03-15T12:52:19.000Z</time></trkpt>
<trkpt lat="41.730668" lon="23.525334"><ele>2282.8</ele><time>2026-03-15T12:52:20.000Z</time></trkpt>
<trkpt lat="41.730682" lon="23.525337"><ele>2282.8</ele><time>2026-03-15T12:52:21.000Z</time></trkpt>
<trkpt lat="41.730696" lon="23.52534"><ele>2281.7</ele><time>2026-03-15T12:52:22.000Z</time></trkpt>
<trkpt lat="41.730709" lon="23.525343"><ele>2281.7</ele><time>2026-03-15T12:52:23.000Z</time></trkpt>
<trkpt lat="41.730722" lon="23.525347"><ele>2281.7</ele><time>2026-03-15T12:52:24.000Z</time></trkpt>
<trkpt lat="41.730735" lon="23.525351"><ele>2281.7</ele><time>2026-03-15T12:52:25.000Z</time></trkpt>
<trkpt lat="41.730748" lon="23.525355"><ele>2281.7</ele><time>2026-03-15T12:52:26.000Z</time></trkpt>
<trkpt lat="41.730762" lon="23.52536"><ele>2280.8</ele><time>2026-03-15T12:52:27.000Z</time></trkpt>
<trkpt lat="41.730775" lon="23.525364"><ele>2280.8</ele><time>2026-03-15T12:52:28.000Z</time></trkpt>
<trkpt lat="41.730789" lon="23.525366"><ele>2280.8</ele><time>2026-03-15T12:52:29.000Z</time></trkpt>
<trkpt lat="41.730803" lon="23.525369"><ele>2280.8</ele><time>2026-03-15T12:52:30.000Z</time></trkpt>
<trkpt lat="41.730816" lon="23.525371"><ele>2280.8</ele><time>2026-03-15T12:52:31.000Z</time></trkpt>
<trkpt lat="41.730829" lon="23.525373"><ele>2280.4</ele><time>2026-03-15T12:52:32.000Z</time></trkpt>
<trkpt lat="41.730843" lon="23.525377"><ele>2280.4</ele><time>2026-03-15T12:52:33.000Z</time></trkpt>
<trkpt lat="41.730855" lon="23.52538"><ele>2280.4</ele><time>2026-03-15T12:52:34.000Z</time></trkpt>
<trkpt lat="41.730869" lon="23.525382"><ele>2280.4</ele><time>2026-03-15T12:52:35.000Z</time></trkpt>
<trkpt lat="41.730882" lon="23.525384"><ele>2280.4</ele><time>2026-03-15T12:52:36.000Z</time></trkpt>
<trkpt lat="41.730894" lon="23.525384"><ele>2279.5</ele><time>2026-03-15T12:52:37.000Z</time></trkpt>
<trkpt lat="41.730906" lon="23.525383"><ele>2279.5</ele><time>2026-03-15T12:52:38.000Z</time></trkpt>
<trkpt lat="41.730918" lon="23.525383"><ele>2279.5</ele><time>2026-03-15T12:52:39.000Z</time></trkpt>
<trkpt lat="41.730929" lon="23.525383"><ele>2279.5</ele><time>2026-03-15T12:52:40.000Z</time></trkpt>
<trkpt lat="41.73094" lon="23.525384"><ele>2279.5</ele><time>2026-03-15T12:52:41.000Z</time></trkpt>
<trkpt lat="41.730952" lon="23.525385"><ele>2278.5</ele><time>2026-03-15T12:52:42.000Z</time></trkpt>
<trkpt lat="41.730964" lon="23.525387"><ele>2278.5</ele><time>2026-03-15T12:52:43.000Z</time></trkpt>
<trkpt lat="41.730977" lon="23.525388"><ele>2278.5</ele><time>2026-03-15T12:52:44.000Z</time></trkpt>
<trkpt lat="41.73099" lon="23.52539"><ele>2278.5</ele><time>2026-03-15T12:52:45.000Z</time></trkpt>
<trkpt lat="41.731003" lon="23.525393"><ele>2278.5</ele><time>2026-03-15T12:52:46.000Z</time></trkpt>
<trkpt lat="41.731016" lon="23.525395"><ele>2277.9</ele><time>2026-03-15T12:52:47.000Z</time></trkpt>
<trkpt lat="41.73103" lon="23.525398"><ele>2277.9</ele><time>2026-03-15T12:52:48.000Z</time></trkpt>
<trkpt lat="41.731043" lon="23.525401"><ele>2277.9</ele><time>2026-03-15T12:52:49.000Z</time></trkpt>
<trkpt lat="41.731055" lon="23.525403"><ele>2277.9</ele><time>2026-03-15T12:52:50.000Z</time></trkpt>
<trkpt lat="41.731068" lon="23.525404"><ele>2277.9</ele><time>2026-03-15T12:52:51.000Z</time></trkpt>
<trkpt lat="41.73108" lon="23.525405"><ele>2276.6</ele><time>2026-03-15T12:52:52.000Z</time></trkpt>
<trkpt lat="41.731092" lon="23.525405"><ele>2276.6</ele><time>2026-03-15T12:52:53.000Z</time></trkpt>
<trkpt lat="41.731102" lon="23.525403"><ele>2276.6</ele><time>2026-03-15T12:52:54.000Z</time></trkpt>
<trkpt lat="41.731113" lon="23.525402"><ele>2276.6</ele><time>2026-03-15T12:52:55.000Z</time></trkpt>
<trkpt lat="41.731124" lon="23.525398"><ele>2276.6</ele><time>2026-03-15T12:52:56.000Z</time></trkpt>
<trkpt lat="41.731136" lon="23.525394"><ele>2275.3</ele><time>2026-03-15T12:52:57.000Z</time></trkpt>
<trkpt lat="41.731147" lon="23.52539"><ele>2275.3</ele><time>2026-03-15T12:52:58.000Z</time></trkpt>
<trkpt lat="41.731159" lon="23.525385"><ele>2275.3</ele><time>2026-03-15T12:52:59.000Z</time></trkpt>
<trkpt lat="41.731174" lon="23.525378"><ele>2275.3</ele><time>2026-03-15T12:53:00.000Z</time></trkpt>
<trkpt lat="41.731189" lon="23.525371"><ele>2275.3</ele><time>2026-03-15T12:53:01.000Z</time></trkpt>
<trkpt lat="41.731203" lon="23.525365"><ele>2274.7</ele><time>2026-03-15T12:53:02.000Z</time></trkpt>
<trkpt lat="41.731218" lon="23.525358"><ele>2274.7</ele><time>2026-03-15T12:53:03.000Z</time></trkpt>
<trkpt lat="41.731233" lon="23.525352"><ele>2274.7</ele><time>2026-03-15T12:53:04.000Z</time></trkpt>
<trkpt lat="41.731248" lon="23.525347"><ele>2274.7</ele><time>2026-03-15T12:53:05.000Z</time></trkpt>
<trkpt lat="41.731262" lon="23.525342"><ele>2274.7</ele><time>2026-03-15T12:53:06.000Z</time></trkpt>
<trkpt lat="41.731277" lon="23.525337"><ele>2273.3</ele><time>2026-03-15T12:53:07.000Z</time></trkpt>
<trkpt lat="41.731292" lon="23.525335"><ele>2273.3</ele><time>2026-03-15T12:53:08.000Z</time></trkpt>
<trkpt lat="41.731306" lon="23.525332"><ele>2273.3</ele><time>2026-03-15T12:53:09.000Z</time></trkpt>
<trkpt lat="41.73132" lon="23.525331"><ele>2273.3</ele><time>2026-03-15T12:53:10.000Z</time></trkpt>
<trkpt lat="41.731334" lon="23.525331"><ele>2273.3</ele><time>2026-03-15T12:53:11.000Z</time></trkpt>
<trkpt lat="41.731347" lon="23.525329"><ele>2271.8</ele><time>2026-03-15T12:53:12.000Z</time></trkpt>
<trkpt lat="41.731361" lon="23.525327"><ele>2271.8</ele><time>2026-03-15T12:53:13.000Z</time></trkpt>
<trkpt lat="41.731374" lon="23.525325"><ele>2271.8</ele><time>2026-03-15T12:53:14.000Z</time></trkpt>
<trkpt lat="41.731386" lon="23.525323"><ele>2271.8</ele><time>2026-03-15T12:53:15.000Z</time></trkpt>
<trkpt lat="41.731398" lon="23.525322"><ele>2271.8</ele><time>2026-03-15T12:53:16.000Z</time></trkpt>
<trkpt lat="41.731412" lon="23.525321"><ele>2270.9</ele><time>2026-03-15T12:53:17.000Z</time></trkpt>
<trkpt lat="41.731425" lon="23.525322"><ele>2270.9</ele><time>2026-03-15T12:53:18.000Z</time></trkpt>
<trkpt lat="41.731439" lon="23.525321"><ele>2270.9</ele><time>2026-03-15T12:53:19.000Z</time></trkpt>
<trkpt lat="41.731453" lon="23.52532"><ele>2270.9</ele><time>2026-03-15T12:53:20.000Z</time></trkpt>
<trkpt lat="41.731467" lon="23.525318"><ele>2270.9</ele><time>2026-03-15T12:53:21.000Z</time></trkpt>
<trkpt lat="41.73148" lon="23.525317"><ele>2269.3</ele><time>2026-03-15T12:53:22.000Z</time></trkpt>
<trkpt lat="41.731494" lon="23.525315"><ele>2269.3</ele><time>2026-03-15T12:53:23.000Z</time></trkpt>
<trkpt lat="41.731507" lon="23.525314"><ele>2269.3</ele><time>2026-03-15T12:53:24.000Z</time></trkpt>
<trkpt lat="41.73152" lon="23.525314"><ele>2269.3</ele><time>2026-03-15T12:53:25.000Z</time></trkpt>
<trkpt lat="41.731533" lon="23.525314"><ele>2269.3</ele><time>2026-03-15T12:53:26.000Z</time></trkpt>
<trkpt lat="41.731546" lon="23.525315"><ele>2267.9</ele><time>2026-03-15T12:53:27.000Z</time></trkpt>
<trkpt lat="41.731558" lon="23.525316"><ele>2267.9</ele><time>2026-03-15T12:53:28.000Z</time></trkpt>
<trkpt lat="41.731571" lon="23.525317"><ele>2267.9</ele><time>2026-03-15T12:53:29.000Z</time></trkpt>
<trkpt lat="41.731584" lon="23.525317"><ele>2267.9</ele><time>2026-03-15T12:53:30.000Z</time></trkpt>
<trkpt lat="41.731595" lon="23.525316"><ele>2267.9</ele><time>2026-03-15T12:53:31.000Z</time></trkpt>
<trkpt lat="41.731607" lon="23.525313"><ele>2267.3</ele><time>2026-03-15T12:53:32.000Z</time></trkpt>
<trkpt lat="41.73162" lon="23.525308"><ele>2267.3</ele><time>2026-03-15T12:53:33.000Z</time></trkpt>
<trkpt lat="41.731633" lon="23.525303"><ele>2267.3</ele><time>2026-03-15T12:53:34.000Z</time></trkpt>
<trkpt lat="41.731645" lon="23.525297"><ele>2267.3</ele><time>2026-03-15T12:53:35.000Z</time></trkpt>
<trkpt lat="41.731656" lon="23.525292"><ele>2267.3</ele><time>2026-03-15T12:53:36.000Z</time></trkpt>
<trkpt lat="41.731668" lon="23.525286"><ele>2266.2</ele><time>2026-03-15T12:53:37.000Z</time></trkpt>
<trkpt lat="41.731678" lon="23.52528"><ele>2266.2</ele><time>2026-03-15T12:53:38.000Z</time></trkpt>
<trkpt lat="41.731689" lon="23.525275"><ele>2266.2</ele><time>2026-03-15T12:53:39.000Z</time></trkpt>
<trkpt lat="41.7317" lon="23.52527"><ele>2266.2</ele><time>2026-03-15T12:53:40.000Z</time></trkpt>
<trkpt lat="41.731712" lon="23.525265"><ele>2266.2</ele><time>2026-03-15T12:53:41.000Z</time></trkpt>
<trkpt lat="41.731724" lon="23.525261"><ele>2265.2</ele><time>2026-03-15T12:53:42.000Z</time></trkpt>
<trkpt lat="41.731736" lon="23.525256"><ele>2265.2</ele><time>2026-03-15T12:53:43.000Z</time></trkpt>
<trkpt lat="41.731748" lon="23.525252"><ele>2265.2</ele><time>2026-03-15T12:53:44.000Z</time></trkpt>
<trkpt lat="41.73176" lon="23.525249"><ele>2265.2</ele><time>2026-03-15T12:53:45.000Z</time></trkpt>
<trkpt lat="41.731771" lon="23.525246"><ele>2265.2</ele><time>2026-03-15T12:53:46.000Z</time></trkpt>
<trkpt lat="41.731784" lon="23.525244"><ele>2264.7</ele><time>2026-03-15T12:53:47.000Z</time></trkpt>
<trkpt lat="41.731796" lon="23.525242"><ele>2264.7</ele><time>2026-03-15T12:53:48.000Z</time></trkpt>
<trkpt lat="41.731809" lon="23.525239"><ele>2264.7</ele><time>2026-03-15T12:53:49.000Z</time></trkpt>
<trkpt lat="41.731822" lon="23.525237"><ele>2264.7</ele><time>2026-03-15T12:53:50.000Z</time></trkpt>
<trkpt lat="41.731836" lon="23.525235"><ele>2264.7</ele><time>2026-03-15T12:53:51.000Z</time></trkpt>
<trkpt lat="41.731849" lon="23.525232"><ele>2263.7</ele><time>2026-03-15T12:53:52.000Z</time></trkpt>
<trkpt lat="41.731863" lon="23.52523"><ele>2263.7</ele><time>2026-03-15T12:53:53.000Z</time></trkpt>
<trkpt lat="41.731877" lon="23.525228"><ele>2263.7</ele><time>2026-03-15T12:53:54.000Z</time></trkpt>
<trkpt lat="41.731891" lon="23.525227"><ele>2263.7</ele><time>2026-03-15T12:53:55.000Z</time></trkpt>
<trkpt lat="41.731904" lon="23.525228"><ele>2263.7</ele><time>2026-03-15T12:53:56.000Z</time></trkpt>
<trkpt lat="41.731917" lon="23.52523"><ele>2262.6</ele><time>2026-03-15T12:53:57.000Z</time></trkpt>
<trkpt lat="41.73193" lon="23.525232"><ele>2262.6</ele><time>2026-03-15T12:53:58.000Z</time></trkpt>
<trkpt lat="41.731943" lon="23.525235"><ele>2262.6</ele><time>2026-03-15T12:53:59.000Z</time></trkpt>
<trkpt lat="41.731956" lon="23.525237"><ele>2262.6</ele><time>2026-03-15T12:54:00.000Z</time></trkpt>
<trkpt lat="41.731969" lon="23.525237"><ele>2262.6</ele><time>2026-03-15T12:54:01.000Z</time></trkpt>
<trkpt lat="41.731982" lon="23.525236"><ele>2262</ele><time>2026-03-15T12:54:02.000Z</time></trkpt>
<trkpt lat="41.731995" lon="23.525233"><ele>2262</ele><time>2026-03-15T12:54:03.000Z</time></trkpt>
<trkpt lat="41.732007" lon="23.52523"><ele>2262</ele><time>2026-03-15T12:54:04.000Z</time></trkpt>
<trkpt lat="41.732018" lon="23.525227"><ele>2262</ele><time>2026-03-15T12:54:05.000Z</time></trkpt>
<trkpt lat="41.73203" lon="23.525223"><ele>2262</ele><time>2026-03-15T12:54:06.000Z</time></trkpt>
<trkpt lat="41.732042" lon="23.525219"><ele>2260.8</ele><time>2026-03-15T12:54:07.000Z</time></trkpt>
<trkpt lat="41.732055" lon="23.525216"><ele>2260.8</ele><time>2026-03-15T12:54:08.000Z</time></trkpt>
<trkpt lat="41.732069" lon="23.525213"><ele>2260.8</ele><time>2026-03-15T12:54:09.000Z</time></trkpt>
<trkpt lat="41.732084" lon="23.525211"><ele>2260.8</ele><time>2026-03-15T12:54:10.000Z</time></trkpt>
<trkpt lat="41.732099" lon="23.525208"><ele>2260.8</ele><time>2026-03-15T12:54:11.000Z</time></trkpt>
<trkpt lat="41.732113" lon="23.525206"><ele>2259.6</ele><time>2026-03-15T12:54:12.000Z</time></trkpt>
<trkpt lat="41.732127" lon="23.525202"><ele>2259.6</ele><time>2026-03-15T12:54:13.000Z</time></trkpt>
<trkpt lat="41.732141" lon="23.525198"><ele>2259.6</ele><time>2026-03-15T12:54:14.000Z</time></trkpt>
<trkpt lat="41.732154" lon="23.525193"><ele>2259.6</ele><time>2026-03-15T12:54:15.000Z</time></trkpt>
<trkpt lat="41.732168" lon="23.525189"><ele>2259.6</ele><time>2026-03-15T12:54:16.000Z</time></trkpt>
<trkpt lat="41.732182" lon="23.525185"><ele>2259.1</ele><time>2026-03-15T12:54:17.000Z</time></trkpt>
<trkpt lat="41.732195" lon="23.525184"><ele>2259.1</ele><time>2026-03-15T12:54:18.000Z</time></trkpt>
<trkpt lat="41.732209" lon="23.525183"><ele>2259.1</ele><time>2026-03-15T12:54:19.000Z</time></trkpt>
<trkpt lat="41.732221" lon="23.525182"><ele>2259.1</ele><time>2026-03-15T12:54:20.000Z</time></trkpt>
<trkpt lat="41.732234" lon="23.525182"><ele>2259.1</ele><time>2026-03-15T12:54:21.000Z</time></trkpt>
<trkpt lat="41.732247" lon="23.525181"><ele>2258.3</ele><time>2026-03-15T12:54:22.000Z</time></trkpt>
<trkpt lat="41.73226" lon="23.525178"><ele>2258.3</ele><time>2026-03-15T12:54:23.000Z</time></trkpt>
<trkpt lat="41.732274" lon="23.525175"><ele>2258.3</ele><time>2026-03-15T12:54:24.000Z</time></trkpt>
<trkpt lat="41.732287" lon="23.52517"><ele>2258.3</ele><time>2026-03-15T12:54:25.000Z</time></trkpt>
<trkpt lat="41.732298" lon="23.525165"><ele>2258.3</ele><time>2026-03-15T12:54:26.000Z</time></trkpt>
<trkpt lat="41.732309" lon="23.525158"><ele>2257.7</ele><time>2026-03-15T12:54:27.000Z</time></trkpt>
<trkpt lat="41.732319" lon="23.52515"><ele>2257.7</ele><time>2026-03-15T12:54:28.000Z</time></trkpt>
<trkpt lat="41.73233" lon="23.525143"><ele>2257.7</ele><time>2026-03-15T12:54:29.000Z</time></trkpt>
<trkpt lat="41.732341" lon="23.525136"><ele>2257.7</ele><time>2026-03-15T12:54:30.000Z</time></trkpt>
<trkpt lat="41.732354" lon="23.52513"><ele>2257.7</ele><time>2026-03-15T12:54:31.000Z</time></trkpt>
<trkpt lat="41.732368" lon="23.525125"><ele>2257.4</ele><time>2026-03-15T12:54:32.000Z</time></trkpt>
<trkpt lat="41.732382" lon="23.525122"><ele>2257.4</ele><time>2026-03-15T12:54:33.000Z</time></trkpt>
<trkpt lat="41.732396" lon="23.52512"><ele>2257.4</ele><time>2026-03-15T12:54:34.000Z</time></trkpt>
<trkpt lat="41.732411" lon="23.52512"><ele>2257.4</ele><time>2026-03-15T12:54:35.000Z</time></trkpt>
<trkpt lat="41.732424" lon="23.52512"><ele>2257.4</ele><time>2026-03-15T12:54:36.000Z</time></trkpt>
<trkpt lat="41.732437" lon="23.525119"><ele>2256.9</ele><time>2026-03-15T12:54:37.000Z</time></trkpt>
<trkpt lat="41.732451" lon="23.525118"><ele>2256.9</ele><time>2026-03-15T12:54:38.000Z</time></trkpt>
<trkpt lat="41.732463" lon="23.525116"><ele>2256.9</ele><time>2026-03-15T12:54:39.000Z</time></trkpt>
<trkpt lat="41.732475" lon="23.525114"><ele>2256.9</ele><time>2026-03-15T12:54:40.000Z</time></trkpt>
<trkpt lat="41.732487" lon="23.525112"><ele>2256.9</ele><time>2026-03-15T12:54:41.000Z</time></trkpt>
<trkpt lat="41.732501" lon="23.525111"><ele>2256.2</ele><time>2026-03-15T12:54:42.000Z</time></trkpt>
<trkpt lat="41.732514" lon="23.52511"><ele>2256.2</ele><time>2026-03-15T12:54:43.000Z</time></trkpt>
<trkpt lat="41.732528" lon="23.52511"><ele>2256.2</ele><time>2026-03-15T12:54:44.000Z</time></trkpt>
<trkpt lat="41.732543" lon="23.525109"><ele>2256.2</ele><time>2026-03-15T12:54:45.000Z</time></trkpt>
<trkpt lat="41.732558" lon="23.525107"><ele>2256.2</ele><time>2026-03-15T12:54:46.000Z</time></trkpt>
<trkpt lat="41.732573" lon="23.525105"><ele>2255.9</ele><time>2026-03-15T12:54:47.000Z</time></trkpt>
<trkpt lat="41.732586" lon="23.525102"><ele>2255.9</ele><time>2026-03-15T12:54:48.000Z</time></trkpt>
<trkpt lat="41.732599" lon="23.525099"><ele>2255.9</ele><time>2026-03-15T12:54:49.000Z</time></trkpt>
<trkpt lat="41.732612" lon="23.525097"><ele>2255.9</ele><time>2026-03-15T12:54:50.000Z</time></trkpt>
<trkpt lat="41.732625" lon="23.525096"><ele>2255.9</ele><time>2026-03-15T12:54:51.000Z</time></trkpt>
<trkpt lat="41.732638" lon="23.525095"><ele>2255.2</ele><time>2026-03-15T12:54:52.000Z</time></trkpt>
<trkpt lat="41.732652" lon="23.525096"><ele>2255.2</ele><time>2026-03-15T12:54:53.000Z</time></trkpt>
<trkpt lat="41.732665" lon="23.525097"><ele>2255.2</ele><time>2026-03-15T12:54:54.000Z</time></trkpt>
<trkpt lat="41.732678" lon="23.525098"><ele>2255.2</ele><time>2026-03-15T12:54:55.000Z</time></trkpt>
<trkpt lat="41.732691" lon="23.525097"><ele>2255.2</ele><time>2026-03-15T12:54:56.000Z</time></trkpt>
<trkpt lat="41.732703" lon="23.525096"><ele>2254.9</ele><time>2026-03-15T12:54:57.000Z</time></trkpt>
<trkpt lat="41.732714" lon="23.525094"><ele>2254.9</ele><time>2026-03-15T12:54:58.000Z</time></trkpt>
<trkpt lat="41.732725" lon="23.525092"><ele>2254.9</ele><time>2026-03-15T12:54:59.000Z</time></trkpt>
<trkpt lat="41.732736" lon="23.525089"><ele>2254.9</ele><time>2026-03-15T12:55:00.000Z</time></trkpt>
<trkpt lat="41.732749" lon="23.525087"><ele>2254.9</ele><time>2026-03-15T12:55:01.000Z</time></trkpt>
<trkpt lat="41.732761" lon="23.525083"><ele>2254.7</ele><time>2026-03-15T12:55:02.000Z</time></trkpt>
<trkpt lat="41.732775" lon="23.525078"><ele>2254.7</ele><time>2026-03-15T12:55:03.000Z</time></trkpt>
<trkpt lat="41.732789" lon="23.52507"><ele>2254.7</ele><time>2026-03-15T12:55:04.000Z</time></trkpt>
<trkpt lat="41.732803" lon="23.525063"><ele>2254.7</ele><time>2026-03-15T12:55:05.000Z</time></trkpt>
<trkpt lat="41.732817" lon="23.525056"><ele>2254.7</ele><time>2026-03-15T12:55:06.000Z</time></trkpt>
<trkpt lat="41.732832" lon="23.525049"><ele>2254.3</ele><time>2026-03-15T12:55:07.000Z</time></trkpt>
<trkpt lat="41.732847" lon="23.525043"><ele>2254.3</ele><time>2026-03-15T12:55:08.000Z</time></trkpt>
<trkpt lat="41.732862" lon="23.525038"><ele>2254.3</ele><time>2026-03-15T12:55:09.000Z</time></trkpt>
<trkpt lat="41.732875" lon="23.525033"><ele>2254.3</ele><time>2026-03-15T12:55:10.000Z</time></trkpt>
<trkpt lat="41.732888" lon="23.525027"><ele>2254.3</ele><time>2026-03-15T12:55:11.000Z</time></trkpt>
<trkpt lat="41.7329" lon="23.525022"><ele>2253.5</ele><time>2026-03-15T12:55:12.000Z</time></trkpt>
<trkpt lat="41.732911" lon="23.525015"><ele>2253.5</ele><time>2026-03-15T12:55:13.000Z</time></trkpt>
<trkpt lat="41.732922" lon="23.525008"><ele>2253.5</ele><time>2026-03-15T12:55:14.000Z</time></trkpt>
<trkpt lat="41.732933" lon="23.524999"><ele>2253.5</ele><time>2026-03-15T12:55:15.000Z</time></trkpt>
<trkpt lat="41.732945" lon="23.524991"><ele>2253.5</ele><time>2026-03-15T12:55:16.000Z</time></trkpt>
<trkpt lat="41.732958" lon="23.524983"><ele>2252.9</ele><time>2026-03-15T12:55:17.000Z</time></trkpt>
<trkpt lat="41.732972" lon="23.524976"><ele>2252.9</ele><time>2026-03-15T12:55:18.000Z</time></trkpt>
<trkpt lat="41.732988" lon="23.52497"><ele>2252.9</ele><time>2026-03-15T12:55:19.000Z</time></trkpt>
<trkpt lat="41.733003" lon="23.524965"><ele>2252.9</ele><time>2026-03-15T12:55:20.000Z</time></trkpt>
<trkpt lat="41.733017" lon="23.524961"><ele>2252.9</ele><time>2026-03-15T12:55:21.000Z</time></trkpt>
<trkpt lat="41.733031" lon="23.524956"><ele>2251.4</ele><time>2026-03-15T12:55:22.000Z</time></trkpt>
<trkpt lat="41.733044" lon="23.524951"><ele>2251.4</ele><time>2026-03-15T12:55:23.000Z</time></trkpt>
<trkpt lat="41.733056" lon="23.524946"><ele>2251.4</ele><time>2026-03-15T12:55:24.000Z</time></trkpt>
<trkpt lat="41.733068" lon="23.524941"><ele>2251.4</ele><time>2026-03-15T12:55:25.000Z</time></trkpt>
<trkpt lat="41.73308" lon="23.524936"><ele>2251.4</ele><time>2026-03-15T12:55:26.000Z</time></trkpt>
<trkpt lat="41.733093" lon="23.524931"><ele>2249.9</ele><time>2026-03-15T12:55:27.000Z</time></trkpt>
<trkpt lat="41.733106" lon="23.524926"><ele>2249.9</ele><time>2026-03-15T12:55:28.000Z</time></trkpt>
<trkpt lat="41.733119" lon="23.524921"><ele>2249.9</ele><time>2026-03-15T12:55:29.000Z</time></trkpt>
<trkpt lat="41.733132" lon="23.524916"><ele>2249.9</ele><time>2026-03-15T12:55:30.000Z</time></trkpt>
<trkpt lat="41.733145" lon="23.524912"><ele>2249.9</ele><time>2026-03-15T12:55:31.000Z</time></trkpt>
<trkpt lat="41.733158" lon="23.524906"><ele>2249.3</ele><time>2026-03-15T12:55:32.000Z</time></trkpt>
<trkpt lat="41.733171" lon="23.5249"><ele>2249.3</ele><time>2026-03-15T12:55:33.000Z</time></trkpt>
<trkpt lat="41.733185" lon="23.524895"><ele>2249.3</ele><time>2026-03-15T12:55:34.000Z</time></trkpt>
<trkpt lat="41.733197" lon="23.52489"><ele>2249.3</ele><time>2026-03-15T12:55:35.000Z</time></trkpt>
<trkpt lat="41.733209" lon="23.524886"><ele>2249.3</ele><time>2026-03-15T12:55:36.000Z</time></trkpt>
<trkpt lat="41.733221" lon="23.524882"><ele>2248.6</ele><time>2026-03-15T12:55:37.000Z</time></trkpt>
<trkpt lat="41.733233" lon="23.524878"><ele>2248.6</ele><time>2026-03-15T12:55:38.000Z</time></trkpt>
<trkpt lat="41.733245" lon="23.524873"><ele>2248.6</ele><time>2026-03-15T12:55:39.000Z</time></trkpt>
<trkpt lat="41.733258" lon="23.524868"><ele>2248.6</ele><time>2026-03-15T12:55:40.000Z</time></trkpt>
<trkpt lat="41.733271" lon="23.524863"><ele>2248.6</ele><time>2026-03-15T12:55:41.000Z</time></trkpt>
<trkpt lat="41.733282" lon="23.524858"><ele>2248.3</ele><time>2026-03-15T12:55:42.000Z</time></trkpt>
<trkpt lat="41.733293" lon="23.524855"><ele>2248.3</ele><time>2026-03-15T12:55:43.000Z</time></trkpt>
<trkpt lat="41.733304" lon="23.524851"><ele>2248.3</ele><time>2026-03-15T12:55:44.000Z</time></trkpt>
<trkpt lat="41.733316" lon="23.524846"><ele>2248.3</ele><time>2026-03-15T12:55:45.000Z</time></trkpt>
<trkpt lat="41.733328" lon="23.52484"><ele>2248.3</ele><time>2026-03-15T12:55:46.000Z</time></trkpt>
<trkpt lat="41.73334" lon="23.524834"><ele>2248.2</ele><time>2026-03-15T12:55:47.000Z</time></trkpt>
<trkpt lat="41.733351" lon="23.524826"><ele>2248.2</ele><time>2026-03-15T12:55:48.000Z</time></trkpt>
<trkpt lat="41.733362" lon="23.524818"><ele>2248.2</ele><time>2026-03-15T12:55:49.000Z</time></trkpt>
<trkpt lat="41.733371" lon="23.524813"><ele>2248.2</ele><time>2026-03-15T12:55:50.000Z</time></trkpt>
<trkpt lat="41.733381" lon="23.524808"><ele>2248.2</ele><time>2026-03-15T12:55:51.000Z</time></trkpt>
<trkpt lat="41.73339" lon="23.524805"><ele>2248</ele><time>2026-03-15T12:55:52.000Z</time></trkpt>
<trkpt lat="41.7334" lon="23.524803"><ele>2248</ele><time>2026-03-15T12:55:53.000Z</time></trkpt>
<trkpt lat="41.73341" lon="23.5248"><ele>2248</ele><time>2026-03-15T12:55:54.000Z</time></trkpt>
<trkpt lat="41.73342" lon="23.524798"><ele>2248</ele><time>2026-03-15T12:55:55.000Z</time></trkpt>
<trkpt lat="41.73343" lon="23.524797"><ele>2248</ele><time>2026-03-15T12:55:56.000Z</time></trkpt>
<trkpt lat="41.73344" lon="23.524797"><ele>2247.7</ele><time>2026-03-15T12:55:57.000Z</time></trkpt>
<trkpt lat="41.73345" lon="23.524796"><ele>2247.7</ele><time>2026-03-15T12:55:58.000Z</time></trkpt>
<trkpt lat="41.73346" lon="23.524794"><ele>2247.7</ele><time>2026-03-15T12:55:59.000Z</time></trkpt>
<trkpt lat="41.733471" lon="23.524791"><ele>2247.7</ele><time>2026-03-15T12:56:00.000Z</time></trkpt>
<trkpt lat="41.733482" lon="23.524786"><ele>2247.7</ele><time>2026-03-15T12:56:01.000Z</time></trkpt>
<trkpt lat="41.733493" lon="23.524781"><ele>2247.6</ele><time>2026-03-15T12:56:02.000Z</time></trkpt>
<trkpt lat="41.733505" lon="23.524777"><ele>2247.6</ele><time>2026-03-15T12:56:03.000Z</time></trkpt>
<trkpt lat="41.733517" lon="23.524775"><ele>2247.6</ele><time>2026-03-15T12:56:04.000Z</time></trkpt>
<trkpt lat="41.733529" lon="23.524772"><ele>2247.6</ele><time>2026-03-15T12:56:05.000Z</time></trkpt>
<trkpt lat="41.73354" lon="23.52477"><ele>2247.6</ele><time>2026-03-15T12:56:06.000Z</time></trkpt>
<trkpt lat="41.733552" lon="23.524768"><ele>2247.5</ele><time>2026-03-15T12:56:07.000Z</time></trkpt>
<trkpt lat="41.733562" lon="23.524767"><ele>2247.5</ele><time>2026-03-15T12:56:08.000Z</time></trkpt>
<trkpt lat="41.733573" lon="23.524765"><ele>2247.5</ele><time>2026-03-15T12:56:09.000Z</time></trkpt>
<trkpt lat="41.733584" lon="23.524762"><ele>2247.5</ele><time>2026-03-15T12:56:10.000Z</time></trkpt>
<trkpt lat="41.733594" lon="23.52476"><ele>2247.5</ele><time>2026-03-15T12:56:11.000Z</time></trkpt>
<trkpt lat="41.733604" lon="23.524759"><ele>2247.6</ele><time>2026-03-15T12:56:12.000Z</time></trkpt>
<trkpt lat="41.733613" lon="23.524756"><ele>2247.6</ele><time>2026-03-15T12:56:13.000Z</time></trkpt>
<trkpt lat="41.733621" lon="23.524752"><ele>2247.6</ele><time>2026-03-15T12:56:14.000Z</time></trkpt>
<trkpt lat="41.73363" lon="23.524748"><ele>2247.6</ele><time>2026-03-15T12:56:15.000Z</time></trkpt>
<trkpt lat="41.733641" lon="23.524743"><ele>2247.6</ele><time>2026-03-15T12:56:16.000Z</time></trkpt>
<trkpt lat="41.733652" lon="23.524739"><ele>2247.7</ele><time>2026-03-15T12:56:17.000Z</time></trkpt>
<trkpt lat="41.733664" lon="23.524736"><ele>2247.7</ele><time>2026-03-15T12:56:18.000Z</time></trkpt>
<trkpt lat="41.733676" lon="23.524735"><ele>2247.7</ele><time>2026-03-15T12:56:19.000Z</time></trkpt>
<trkpt lat="41.733688" lon="23.524734"><ele>2247.7</ele><time>2026-03-15T12:56:20.000Z</time></trkpt>
<trkpt lat="41.733699" lon="23.524733"><ele>2247.7</ele><time>2026-03-15T12:56:21.000Z</time></trkpt>
<trkpt lat="41.733709" lon="23.524731"><ele>2247.8</ele><time>2026-03-15T12:56:22.000Z</time></trkpt>
<trkpt lat="41.733719" lon="23.524727"><ele>2247.8</ele><time>2026-03-15T12:56:23.000Z</time></trkpt>
<trkpt lat="41.733729" lon="23.524721"><ele>2247.8</ele><time>2026-03-15T12:56:24.000Z</time></trkpt>
<trkpt lat="41.733739" lon="23.524717"><ele>2247.8</ele><time>2026-03-15T12:56:25.000Z</time></trkpt>
<trkpt lat="41.733749" lon="23.524713"><ele>2247.8</ele><time>2026-03-15T12:56:26.000Z</time></trkpt>
<trkpt lat="41.733758" lon="23.52471"><ele>2248</ele><time>2026-03-15T12:56:27.000Z</time></trkpt>
<trkpt lat="41.733768" lon="23.524708"><ele>2248</ele><time>2026-03-15T12:56:28.000Z</time></trkpt>
<trkpt lat="41.733778" lon="23.524708"><ele>2248</ele><time>2026-03-15T12:56:29.000Z</time></trkpt>
<trkpt lat="41.733787" lon="23.524707"><ele>2248</ele><time>2026-03-15T12:56:30.000Z</time></trkpt>
<trkpt lat="41.733797" lon="23.524708"><ele>2248</ele><time>2026-03-15T12:56:31.000Z</time></trkpt>
<trkpt lat="41.733808" lon="23.524708"><ele>2248</ele><time>2026-03-15T12:56:32.000Z</time></trkpt>
<trkpt lat="41.733819" lon="23.52471"><ele>2248</ele><time>2026-03-15T12:56:33.000Z</time></trkpt>
<trkpt lat="41.733831" lon="23.524712"><ele>2248</ele><time>2026-03-15T12:56:34.000Z</time></trkpt>
<trkpt lat="41.733843" lon="23.524713"><ele>2248</ele><time>2026-03-15T12:56:35.000Z</time></trkpt>
<trkpt lat="41.733855" lon="23.524715"><ele>2248</ele><time>2026-03-15T12:56:36.000Z</time></trkpt>
<trkpt lat="41.733867" lon="23.524718"><ele>2248.1</ele><time>2026-03-15T12:56:37.000Z</time></trkpt>
<trkpt lat="41.733879" lon="23.524721"><ele>2248.1</ele><time>2026-03-15T12:56:38.000Z</time></trkpt>
<trkpt lat="41.73389" lon="23.524724"><ele>2248.1</ele><time>2026-03-15T12:56:39.000Z</time></trkpt>
<trkpt lat="41.733903" lon="23.524728"><ele>2248.1</ele><time>2026-03-15T12:56:40.000Z</time></trkpt>
<trkpt lat="41.733916" lon="23.524732"><ele>2248.1</ele><time>2026-03-15T12:56:41.000Z</time></trkpt>
<trkpt lat="41.733928" lon="23.524735"><ele>2248.1</ele><time>2026-03-15T12:56:42.000Z</time></trkpt>
<trkpt lat="41.73394" lon="23.524738"><ele>2248.1</ele><time>2026-03-15T12:56:43.000Z</time></trkpt>
<trkpt lat="41.733952" lon="23.524742"><ele>2248.1</ele><time>2026-03-15T12:56:44.000Z</time></trkpt>
<trkpt lat="41.733963" lon="23.524746"><ele>2248.1</ele><time>2026-03-15T12:56:45.000Z</time></trkpt>
<trkpt lat="41.733973" lon="23.524751"><ele>2248.1</ele><time>2026-03-15T12:56:46.000Z</time></trkpt>
<trkpt lat="41.733984" lon="23.524757"><ele>2248.1</ele><time>2026-03-15T12:56:47.000Z</time></trkpt>
<trkpt lat="41.733994" lon="23.524762"><ele>2248.1</ele><time>2026-03-15T12:56:48.000Z</time></trkpt>
<trkpt lat="41.734004" lon="23.524767"><ele>2248.1</ele><time>2026-03-15T12:56:49.000Z</time></trkpt>
<trkpt lat="41.734013" lon="23.524772"><ele>2248.1</ele><time>2026-03-15T12:56:50.000Z</time></trkpt>
<trkpt lat="41.734022" lon="23.524778"><ele>2248.1</ele><time>2026-03-15T12:56:51.000Z</time></trkpt>
<trkpt lat="41.734031" lon="23.524786"><ele>2247.9</ele><time>2026-03-15T12:56:52.000Z</time></trkpt>
<trkpt lat="41.734041" lon="23.524794"><ele>2247.9</ele><time>2026-03-15T12:56:53.000Z</time></trkpt>
<trkpt lat="41.73405" lon="23.524802"><ele>2247.9</ele><time>2026-03-15T12:56:54.000Z</time></trkpt>
<trkpt lat="41.734058" lon="23.524812"><ele>2247.9</ele><time>2026-03-15T12:56:55.000Z</time></trkpt>
<trkpt lat="41.734066" lon="23.524822"><ele>2247.9</ele><time>2026-03-15T12:56:56.000Z</time></trkpt>
<trkpt lat="41.734074" lon="23.524832"><ele>2247.6</ele><time>2026-03-15T12:56:57.000Z</time></trkpt>
<trkpt lat="41.734083" lon="23.524842"><ele>2247.6</ele><time>2026-03-15T12:56:58.000Z</time></trkpt>
<trkpt lat="41.734093" lon="23.524849"><ele>2247.6</ele><time>2026-03-15T12:56:59.000Z</time></trkpt>
<trkpt lat="41.734103" lon="23.524854"><ele>2247.6</ele><time>2026-03-15T12:57:00.000Z</time></trkpt>
<trkpt lat="41.734113" lon="23.524858"><ele>2247.6</ele><time>2026-03-15T12:57:01.000Z</time></trkpt>
<trkpt lat="41.734123" lon="23.524861"><ele>2247.4</ele><time>2026-03-15T12:57:02.000Z</time></trkpt>
<trkpt lat="41.734134" lon="23.524867"><ele>2247.4</ele><time>2026-03-15T12:57:03.000Z</time></trkpt>
<trkpt lat="41.734145" lon="23.524873"><ele>2247.4</ele><time>2026-03-15T12:57:04.000Z</time></trkpt>
<trkpt lat="41.734156" lon="23.524879"><ele>2247.4</ele><time>2026-03-15T12:57:05.000Z</time></trkpt>
<trkpt lat="41.734166" lon="23.524886"><ele>2247.4</ele><time>2026-03-15T12:57:06.000Z</time></trkpt>
<trkpt lat="41.734176" lon="23.524892"><ele>2246.8</ele><time>2026-03-15T12:57:07.000Z</time></trkpt>
<trkpt lat="41.734187" lon="23.524899"><ele>2246.8</ele><time>2026-03-15T12:57:08.000Z</time></trkpt>
<trkpt lat="41.734197" lon="23.524907"><ele>2246.8</ele><time>2026-03-15T12:57:09.000Z</time></trkpt>
<trkpt lat="41.734208" lon="23.524916"><ele>2246.8</ele><time>2026-03-15T12:57:10.000Z</time></trkpt>
<trkpt lat="41.734218" lon="23.524927"><ele>2246.8</ele><time>2026-03-15T12:57:11.000Z</time></trkpt>
<trkpt lat="41.734228" lon="23.524937"><ele>2246.1</ele><time>2026-03-15T12:57:12.000Z</time></trkpt>
<trkpt lat="41.734238" lon="23.524946"><ele>2246.1</ele><time>2026-03-15T12:57:13.000Z</time></trkpt>
<trkpt lat="41.734247" lon="23.524954"><ele>2246.1</ele><time>2026-03-15T12:57:14.000Z</time></trkpt>
<trkpt lat="41.734257" lon="23.524961"><ele>2246.1</ele><time>2026-03-15T12:57:15.000Z</time></trkpt>
<trkpt lat="41.734267" lon="23.524969"><ele>2246.1</ele><time>2026-03-15T12:57:16.000Z</time></trkpt>
<trkpt lat="41.734277" lon="23.524977"><ele>2245.6</ele><time>2026-03-15T12:57:17.000Z</time></trkpt>
<trkpt lat="41.734287" lon="23.524986"><ele>2245.6</ele><time>2026-03-15T12:57:18.000Z</time></trkpt>
<trkpt lat="41.734296" lon="23.524997"><ele>2245.6</ele><time>2026-03-15T12:57:19.000Z</time></trkpt>
<trkpt lat="41.734304" lon="23.525007"><ele>2245.6</ele><time>2026-03-15T12:57:20.000Z</time></trkpt>
<trkpt lat="41.734312" lon="23.525018"><ele>2245.6</ele><time>2026-03-15T12:57:21.000Z</time></trkpt>
<trkpt lat="41.734321" lon="23.525027"><ele>2244.8</ele><time>2026-03-15T12:57:22.000Z</time></trkpt>
<trkpt lat="41.73433" lon="23.525035"><ele>2244.8</ele><time>2026-03-15T12:57:23.000Z</time></trkpt>
<trkpt lat="41.73434" lon="23.52504"><ele>2244.8</ele><time>2026-03-15T12:57:24.000Z</time></trkpt>
<trkpt lat="41.73435" lon="23.525043"><ele>2244.8</ele><time>2026-03-15T12:57:25.000Z</time></trkpt>
<trkpt lat="41.734359" lon="23.525044"><ele>2244.8</ele><time>2026-03-15T12:57:26.000Z</time></trkpt>
<trkpt lat="41.734368" lon="23.525046"><ele>2243.9</ele><time>2026-03-15T12:57:27.000Z</time></trkpt>
<trkpt lat="41.734378" lon="23.525049"><ele>2243.9</ele><time>2026-03-15T12:57:28.000Z</time></trkpt>
<trkpt lat="41.734388" lon="23.525055"><ele>2243.9</ele><time>2026-03-15T12:57:29.000Z</time></trkpt>
<trkpt lat="41.734398" lon="23.525063"><ele>2243.9</ele><time>2026-03-15T12:57:30.000Z</time></trkpt>
<trkpt lat="41.734408" lon="23.525073"><ele>2243.9</ele><time>2026-03-15T12:57:31.000Z</time></trkpt>
<trkpt lat="41.734418" lon="23.525083"><ele>2243.5</ele><time>2026-03-15T12:57:32.000Z</time></trkpt>
<trkpt lat="41.734427" lon="23.525093"><ele>2243.5</ele><time>2026-03-15T12:57:33.000Z</time></trkpt>
<trkpt lat="41.734437" lon="23.525101"><ele>2243.5</ele><time>2026-03-15T12:57:34.000Z</time></trkpt>
<trkpt lat="41.734447" lon="23.52511"><ele>2243.5</ele><time>2026-03-15T12:57:35.000Z</time></trkpt>
<trkpt lat="41.734459" lon="23.525119"><ele>2243.5</ele><time>2026-03-15T12:57:36.000Z</time></trkpt>
<trkpt lat="41.734471" lon="23.525129"><ele>2242.7</ele><time>2026-03-15T12:57:37.000Z</time></trkpt>
<trkpt lat="41.734484" lon="23.52514"><ele>2242.7</ele><time>2026-03-15T12:57:38.000Z</time></trkpt>
<trkpt lat="41.734496" lon="23.525152"><ele>2242.7</ele><time>2026-03-15T12:57:39.000Z</time></trkpt>
<trkpt lat="41.734507" lon="23.525164"><ele>2242.7</ele><time>2026-03-15T12:57:40.000Z</time></trkpt>
<trkpt lat="41.734517" lon="23.525176"><ele>2242.7</ele><time>2026-03-15T12:57:41.000Z</time></trkpt>
<trkpt lat="41.734527" lon="23.525186"><ele>2241.7</ele><time>2026-03-15T12:57:42.000Z</time></trkpt>
<trkpt lat="41.734537" lon="23.525195"><ele>2241.7</ele><time>2026-03-15T12:57:43.000Z</time></trkpt>
<trkpt lat="41.734549" lon="23.525204"><ele>2241.7</ele><time>2026-03-15T12:57:44.000Z</time></trkpt>
<trkpt lat="41.734563" lon="23.525213"><ele>2241.7</ele><time>2026-03-15T12:57:45.000Z</time></trkpt>
<trkpt lat="41.734577" lon="23.525222"><ele>2241.7</ele><time>2026-03-15T12:57:46.000Z</time></trkpt>
<trkpt lat="41.73459" lon="23.525232"><ele>2241.1</ele><time>2026-03-15T12:57:47.000Z</time></trkpt>
<trkpt lat="41.734603" lon="23.525244"><ele>2241.1</ele><time>2026-03-15T12:57:48.000Z</time></trkpt>
<trkpt lat="41.734614" lon="23.525255"><ele>2241.1</ele><time>2026-03-15T12:57:49.000Z</time></trkpt>
<trkpt lat="41.734621" lon="23.525268"><ele>2241.1</ele><time>2026-03-15T12:57:50.000Z</time></trkpt>
<trkpt lat="41.734628" lon="23.525281"><ele>2241.1</ele><time>2026-03-15T12:57:51.000Z</time></trkpt>
<trkpt lat="41.734634" lon="23.525295"><ele>2240.1</ele><time>2026-03-15T12:57:52.000Z</time></trkpt>
<trkpt lat="41.734639" lon="23.52531"><ele>2240.1</ele><time>2026-03-15T12:57:53.000Z</time></trkpt>
<trkpt lat="41.734644" lon="23.525325"><ele>2240.1</ele><time>2026-03-15T12:57:54.000Z</time></trkpt>
<trkpt lat="41.734649" lon="23.52534"><ele>2240.1</ele><time>2026-03-15T12:57:55.000Z</time></trkpt>
<trkpt lat="41.734654" lon="23.525356"><ele>2240.1</ele><time>2026-03-15T12:57:56.000Z</time></trkpt>
<trkpt lat="41.73466" lon="23.52537"><ele>2238.9</ele><time>2026-03-15T12:57:57.000Z</time></trkpt>
<trkpt lat="41.734665" lon="23.525384"><ele>2238.9</ele><time>2026-03-15T12:57:58.000Z</time></trkpt>
<trkpt lat="41.734671" lon="23.525398"><ele>2238.9</ele><time>2026-03-15T12:57:59.000Z</time></trkpt>
<trkpt lat="41.734677" lon="23.525411"><ele>2238.9</ele><time>2026-03-15T12:58:00.000Z</time></trkpt>
<trkpt lat="41.734681" lon="23.525424"><ele>2238.9</ele><time>2026-03-15T12:58:01.000Z</time></trkpt>
<trkpt lat="41.734683" lon="23.525435"><ele>2238.3</ele><time>2026-03-15T12:58:02.000Z</time></trkpt>
<trkpt lat="41.734684" lon="23.525444"><ele>2238.3</ele><time>2026-03-15T12:58:03.000Z</time></trkpt>
<trkpt lat="41.734683" lon="23.525451"><ele>2238.3</ele><time>2026-03-15T12:58:04.000Z</time></trkpt>
<trkpt lat="41.734682" lon="23.525457"><ele>2238.3</ele><time>2026-03-15T12:58:05.000Z</time></trkpt>
<trkpt lat="41.73468" lon="23.525461"><ele>2238.3</ele><time>2026-03-15T12:58:06.000Z</time></trkpt>
<trkpt lat="41.734679" lon="23.525464"><ele>2236.8</ele><time>2026-03-15T12:58:07.000Z</time></trkpt>
<trkpt lat="41.734679" lon="23.525466"><ele>2236.8</ele><time>2026-03-15T12:58:08.000Z</time></trkpt>
<trkpt lat="41.734678" lon="23.525467"><ele>2236.8</ele><time>2026-03-15T12:58:09.000Z</time></trkpt>
<trkpt lat="41.734677" lon="23.525467"><ele>2236.8</ele><time>2026-03-15T12:58:10.000Z</time></trkpt>
<trkpt lat="41.734676" lon="23.525467"><ele>2236.8</ele><time>2026-03-15T12:58:11.000Z</time></trkpt>
<trkpt lat="41.734676" lon="23.525467"><ele>2235.3</ele><time>2026-03-15T12:58:12.000Z</time></trkpt>
<trkpt lat="41.734675" lon="23.525467"><ele>2235.3</ele><time>2026-03-15T12:58:13.000Z</time></trkpt>
<trkpt lat="41.734675" lon="23.525467"><ele>2235.3</ele><time>2026-03-15T12:58:14.000Z</time></trkpt>
<trkpt lat="41.734675" lon="23.525467"><ele>2235.3</ele><time>2026-03-15T12:58:15.000Z</time></trkpt>
<trkpt lat="41.734675" lon="23.525467"><ele>2235.3</ele><time>2026-03-15T12:58:16.000Z</time></trkpt>
<trkpt lat="41.734675" lon="23.525467"><ele>2234.7</ele><time>2026-03-15T12:58:17.000Z</time></trkpt>
<trkpt lat="41.734675" lon="23.525467"><ele>2234.7</ele><time>2026-03-15T12:58:18.000Z</time></trkpt>
<trkpt lat="41.734674" lon="23.525467"><ele>2234.7</ele><time>2026-03-15T12:58:19.000Z</time></trkpt>
<trkpt lat="41.734674" lon="23.525467"><ele>2234.7</ele><time>2026-03-15T12:58:20.000Z</time></trkpt>
<trkpt lat="41.734674" lon="23.525467"><ele>2234.7</ele><time>2026-03-15T12:58:21.000Z</time></trkpt>
<trkpt lat="41.734674" lon="23.525467"><ele>2234</ele><time>2026-03-15T12:58:22.000Z</time></trkpt>
<trkpt lat="41.734674" lon="23.525467"><ele>2234</ele><time>2026-03-15T12:58:23.000Z</time></trkpt>
<trkpt lat="41.734673" lon="23.525467"><ele>2234</ele><time>2026-03-15T12:58:24.000Z</time></trkpt>
<trkpt lat="41.734673" lon="23.525467"><ele>2234</ele><time>2026-03-15T12:58:25.000Z</time></trkpt>
<trkpt lat="41.734673" lon="23.525467"><ele>2234</ele><time>2026-03-15T12:58:26.000Z</time></trkpt>
<trkpt lat="41.734673" lon="23.525468"><ele>2233.9</ele><time>2026-03-15T12:58:27.000Z</time></trkpt>
<trkpt lat="41.734673" lon="23.525468"><ele>2233.9</ele><time>2026-03-15T12:58:28.000Z</time></trkpt>
<trkpt lat="41.734673" lon="23.525468"><ele>2233.9</ele><time>2026-03-15T12:58:29.000Z</time></trkpt>
<trkpt lat="41.734673" lon="23.525468"><ele>2233.9</ele><time>2026-03-15T12:58:30.000Z</time></trkpt>
<trkpt lat="41.734673" lon="23.525468"><ele>2233.9</ele><time>2026-03-15T12:58:31.000Z</time></trkpt>
<trkpt lat="41.734673" lon="23.525468"><ele>2233.9</ele><time>2026-03-15T12:58:32.000Z</time></trkpt>
<trkpt lat="41.734673" lon="23.525467"><ele>2233.9</ele><time>2026-03-15T12:58:33.000Z</time></trkpt>
<trkpt lat="41.734673" lon="23.525467"><ele>2233.9</ele><time>2026-03-15T12:58:34.000Z</time></trkpt>
<trkpt lat="41.734674" lon="23.525467"><ele>2233.9</ele><time>2026-03-15T12:58:35.000Z</time></trkpt>
<trkpt lat="41.734674" lon="23.525467"><ele>2233.9</ele><time>2026-03-15T12:58:36.000Z</time></trkpt>
<trkpt lat="41.734675" lon="23.525468"><ele>2234.2</ele><time>2026-03-15T12:58:37.000Z</time></trkpt>
<trkpt lat="41.734675" lon="23.525468"><ele>2234.2</ele><time>2026-03-15T12:58:38.000Z</time></trkpt>
<trkpt lat="41.734676" lon="23.525468"><ele>2234.2</ele><time>2026-03-15T12:58:39.000Z</time></trkpt>
<trkpt lat="41.734677" lon="23.525468"><ele>2234.2</ele><time>2026-03-15T12:58:40.000Z</time></trkpt>
<trkpt lat="41.734678" lon="23.525468"><ele>2234.2</ele><time>2026-03-15T12:58:41.000Z</time></trkpt>
<trkpt lat="41.734679" lon="23.525467"><ele>2234.4</ele><time>2026-03-15T12:58:42.000Z</time></trkpt>
<trkpt lat="41.73468" lon="23.525467"><ele>2234.4</ele><time>2026-03-15T12:58:43.000Z</time></trkpt>
<trkpt lat="41.734681" lon="23.525466"><ele>2234.4</ele><time>2026-03-15T12:58:44.000Z</time></trkpt>
<trkpt lat="41.73468" lon="23.525465"><ele>2234.4</ele><time>2026-03-15T12:58:45.000Z</time></trkpt>
<trkpt lat="41.734679" lon="23.525465"><ele>2234.4</ele><time>2026-03-15T12:58:46.000Z</time></trkpt>
<trkpt lat="41.734678" lon="23.525465"><ele>2234.5</ele><time>2026-03-15T12:58:47.000Z</time></trkpt>
<trkpt lat="41.734677" lon="23.525465"><ele>2234.5</ele><time>2026-03-15T12:58:48.000Z</time></trkpt>
<trkpt lat="41.734676" lon="23.525465"><ele>2234.5</ele><time>2026-03-15T12:58:49.000Z</time></trkpt>
<trkpt lat="41.734676" lon="23.525466"><ele>2234.5</ele><time>2026-03-15T12:58:50.000Z</time></trkpt>
<trkpt lat="41.734676" lon="23.525467"><ele>2234.5</ele><time>2026-03-15T12:58:51.000Z</time></trkpt>
<trkpt lat="41.734675" lon="23.525468"><ele>2234.6</ele><time>2026-03-15T12:58:52.000Z</time></trkpt>
<trkpt lat="41.734675" lon="23.525469"><ele>2234.6</ele><time>2026-03-15T12:58:53.000Z</time></trkpt>
<trkpt lat="41.734675" lon="23.52547"><ele>2234.6</ele><time>2026-03-15T12:58:54.000Z</time></trkpt>
<trkpt lat="41.734675" lon="23.52547"><ele>2234.6</ele><time>2026-03-15T12:58:55.000Z</time></trkpt>
<trkpt lat="41.734675" lon="23.52547"><ele>2234.6</ele><time>2026-03-15T12:58:56.000Z</time></trkpt>
<trkpt lat="41.734675" lon="23.525471"><ele>2234.4</ele><time>2026-03-15T12:58:57.000Z</time></trkpt>
<trkpt lat="41.734676" lon="23.525472"><ele>2234.4</ele><time>2026-03-15T12:58:58.000Z</time></trkpt>
<trkpt lat="41.734676" lon="23.525473"><ele>2234.4</ele><time>2026-03-15T12:58:59.000Z</time></trkpt>
<trkpt lat="41.734676" lon="23.525474"><ele>2234.4</ele><time>2026-03-15T12:59:00.000Z</time></trkpt>
<trkpt lat="41.734676" lon="23.525475"><ele>2234.4</ele><time>2026-03-15T12:59:01.000Z</time></trkpt>
<trkpt lat="41.734677" lon="23.525476"><ele>2234.3</ele><time>2026-03-15T12:59:02.000Z</time></trkpt>
<trkpt lat="41.734677" lon="23.525476"><ele>2234.3</ele><time>2026-03-15T12:59:03.000Z</time></trkpt>
<trkpt lat="41.734676" lon="23.525475"><ele>2234.3</ele><time>2026-03-15T12:59:04.000Z</time></trkpt>
<trkpt lat="41.734676" lon="23.525474"><ele>2234.3</ele><time>2026-03-15T12:59:05.000Z</time></trkpt>
<trkpt lat="41.734675" lon="23.525473"><ele>2234.3</ele><time>2026-03-15T12:59:06.000Z</time></trkpt>
<trkpt lat="41.734674" lon="23.525473"><ele>2234.1</ele><time>2026-03-15T12:59:07.000Z</time></trkpt>
<trkpt lat="41.734673" lon="23.525472"><ele>2234.1</ele><time>2026-03-15T12:59:08.000Z</time></trkpt>
<trkpt lat="41.734672" lon="23.525472"><ele>2234.1</ele><time>2026-03-15T12:59:09.000Z</time></trkpt>
<trkpt lat="41.734672" lon="23.525472"><ele>2234.1</ele><time>2026-03-15T12:59:10.000Z</time></trkpt>
<trkpt lat="41.734673" lon="23.525472"><ele>2234.1</ele><time>2026-03-15T12:59:11.000Z</time></trkpt>
<trkpt lat="41.734673" lon="23.525472"><ele>2234.3</ele><time>2026-03-15T12:59:12.000Z</time></trkpt>
<trkpt lat="41.734673" lon="23.525472"><ele>2234.3</ele><time>2026-03-15T12:59:13.000Z</time></trkpt>
<trkpt lat="41.734673" lon="23.525472"><ele>2234.3</ele><time>2026-03-15T12:59:14.000Z</time></trkpt>
<trkpt lat="41.734674" lon="23.525472"><ele>2234.3</ele><time>2026-03-15T12:59:15.000Z</time></trkpt>
<trkpt lat="41.734674" lon="23.525472"><ele>2234.3</ele><time>2026-03-15T12:59:16.000Z</time></trkpt>
<trkpt lat="41.734674" lon="23.525472"><ele>2234.4</ele><time>2026-03-15T12:59:17.000Z</time></trkpt>
<trkpt lat="41.734674" lon="23.525471"><ele>2234.4</ele><time>2026-03-15T12:59:18.000Z</time></trkpt>
<trkpt lat="41.734674" lon="23.525471"><ele>2234.4</ele><time>2026-03-15T12:59:19.000Z</time></trkpt>
<trkpt lat="41.734674" lon="23.525471"><ele>2234.4</ele><time>2026-03-15T12:59:20.000Z</time></trkpt>
<trkpt lat="41.734673" lon="23.525471"><ele>2234.4</ele><time>2026-03-15T12:59:21.000Z</time></trkpt>
<trkpt lat="41.734673" lon="23.52547"><ele>2234.5</ele><time>2026-03-15T12:59:22.000Z</time></trkpt>
<trkpt lat="41.734673" lon="23.52547"><ele>2234.5</ele><time>2026-03-15T12:59:23.000Z</time></trkpt>
<trkpt lat="41.734673" lon="23.52547"><ele>2234.5</ele><time>2026-03-15T12:59:24.000Z</time></trkpt>
<trkpt lat="41.734673" lon="23.52547"><ele>2234.5</ele><time>2026-03-15T12:59:25.000Z</time></trkpt>
<trkpt lat="41.734673" lon="23.52547"><ele>2234.5</ele><time>2026-03-15T12:59:26.000Z</time></trkpt>
<trkpt lat="41.734673" lon="23.52547"><ele>2234.2</ele><time>2026-03-15T12:59:27.000Z</time></trkpt>
<trkpt lat="41.734673" lon="23.525469"><ele>2234.2</ele><time>2026-03-15T12:59:28.000Z</time></trkpt>
<trkpt lat="41.734674" lon="23.525469"><ele>2234.2</ele><time>2026-03-15T12:59:29.000Z</time></trkpt>
<trkpt lat="41.734674" lon="23.525468"><ele>2234.2</ele><time>2026-03-15T12:59:30.000Z</time></trkpt>
<trkpt lat="41.734674" lon="23.525468"><ele>2234.2</ele><time>2026-03-15T12:59:31.000Z</time></trkpt>
<trkpt lat="41.734674" lon="23.525467"><ele>2234.1</ele><time>2026-03-15T12:59:32.000Z</time></trkpt>
<trkpt lat="41.734674" lon="23.525467"><ele>2234.1</ele><time>2026-03-15T12:59:33.000Z</time></trkpt>
<trkpt lat="41.734674" lon="23.525467"><ele>2234.1</ele><time>2026-03-15T12:59:34.000Z</time></trkpt>
<trkpt lat="41.734674" lon="23.525467"><ele>2234.1</ele><time>2026-03-15T12:59:35.000Z</time></trkpt>
<trkpt lat="41.734674" lon="23.525467"><ele>2234.1</ele><time>2026-03-15T12:59:36.000Z</time></trkpt>
<trkpt lat="41.734674" lon="23.525467"><ele>2234</ele><time>2026-03-15T12:59:37.000Z</time></trkpt>
<trkpt lat="41.734674" lon="23.525467"><ele>2234</ele><time>2026-03-15T12:59:38.000Z</time></trkpt>
<trkpt lat="41.734674" lon="23.525467"><ele>2234</ele><time>2026-03-15T12:59:39.000Z</time></trkpt>
<trkpt lat="41.734674" lon="23.525467"><ele>2234</ele><time>2026-03-15T12:59:40.000Z</time></trkpt>
<trkpt lat="41.734674" lon="23.525467"><ele>2234</ele><time>2026-03-15T12:59:41.000Z</time></trkpt>
<trkpt lat="41.734674" lon="23.525467"><ele>2234</ele><time>2026-03-15T12:59:42.000Z</time></trkpt>
<trkpt lat="41.734674" lon="23.525467"><ele>2234</ele><time>2026-03-15T12:59:43.000Z</time></trkpt>
<trkpt lat="41.734674" lon="23.525467"><ele>2234</ele><time>2026-03-15T12:59:44.000Z</time></trkpt>
<trkpt lat="41.734674" lon="23.525468"><ele>2234</ele><time>2026-03-15T12:59:45.000Z</time></trkpt>
<trkpt lat="41.734673" lon="23.525468"><ele>2234</ele><time>2026-03-15T12:59:46.000Z</time></trkpt>
<trkpt lat="41.734673" lon="23.525467"><ele>2234</ele><time>2026-03-15T12:59:47.000Z</time></trkpt>
<trkpt lat="41.734673" lon="23.525467"><ele>2234</ele><time>2026-03-15T12:59:48.000Z</time></trkpt>
<trkpt lat="41.734674" lon="23.525466"><ele>2234</ele><time>2026-03-15T12:59:49.000Z</time></trkpt>
<trkpt lat="41.734673" lon="23.525465"><ele>2234</ele><time>2026-03-15T12:59:50.000Z</time></trkpt>
<trkpt lat="41.734674" lon="23.525465"><ele>2234</ele><time>2026-03-15T12:59:51.000Z</time></trkpt>
<trkpt lat="41.734673" lon="23.525465"><ele>2234.1</ele><time>2026-03-15T12:59:52.000Z</time></trkpt>
<trkpt lat="41.734673" lon="23.525465"><ele>2234.1</ele><time>2026-03-15T12:59:53.000Z</time></trkpt>
<trkpt lat="41.734673" lon="23.525465"><ele>2234.1</ele><time>2026-03-15T12:59:54.000Z</time></trkpt>
<trkpt lat="41.734673" lon="23.525466"><ele>2234.1</ele><time>2026-03-15T12:59:55.000Z</time></trkpt>
<trkpt lat="41.734673" lon="23.525466"><ele>2234.1</ele><time>2026-03-15T12:59:56.000Z</time></trkpt>
<trkpt lat="41.734673" lon="23.525467"><ele>2234.3</ele><time>2026-03-15T12:59:57.000Z</time></trkpt>
<trkpt lat="41.734673" lon="23.525467"><ele>2234.3</ele><time>2026-03-15T12:59:58.000Z</time></trkpt>
<trkpt lat="41.734673" lon="23.525468"><ele>2234.3</ele><time>2026-03-15T12:59:59.000Z</time></trkpt>
<trkpt lat="41.734673" lon="23.525468"><ele>2234.3</ele><time>2026-03-15T13:00:00.000Z</time></trkpt>
<trkpt lat="41.734673" lon="23.525468"><ele>2234.3</ele><time>2026-03-15T13:00:01.000Z</time></trkpt>
<trkpt lat="41.734673" lon="23.525468"><ele>2234.4</ele><time>2026-03-15T13:00:02.000Z</time></trkpt>
<trkpt lat="41.734673" lon="23.525468"><ele>2234.4</ele><time>2026-03-15T13:00:03.000Z</time></trkpt>
<trkpt lat="41.734673" lon="23.525469"><ele>2234.4</ele><time>2026-03-15T13:00:04.000Z</time></trkpt>
<trkpt lat="41.734672" lon="23.525468"><ele>2234.4</ele><time>2026-03-15T13:00:05.000Z</time></trkpt>
<trkpt lat="41.734672" lon="23.525468"><ele>2234.4</ele><time>2026-03-15T13:00:06.000Z</time></trkpt>
<trkpt lat="41.734672" lon="23.525467"><ele>2234.6</ele><time>2026-03-15T13:00:07.000Z</time></trkpt>
<trkpt lat="41.734672" lon="23.525467"><ele>2234.6</ele><time>2026-03-15T13:00:08.000Z</time></trkpt>
<trkpt lat="41.734672" lon="23.525467"><ele>2234.6</ele><time>2026-03-15T13:00:09.000Z</time></trkpt>
<trkpt lat="41.734672" lon="23.525466"><ele>2234.6</ele><time>2026-03-15T13:00:10.000Z</time></trkpt>
<trkpt lat="41.734672" lon="23.525466"><ele>2234.6</ele><time>2026-03-15T13:00:11.000Z</time></trkpt>
<trkpt lat="41.734672" lon="23.525467"><ele>2234.5</ele><time>2026-03-15T13:00:12.000Z</time></trkpt>
<trkpt lat="41.734672" lon="23.525467"><ele>2234.5</ele><time>2026-03-15T13:00:13.000Z</time></trkpt>
<trkpt lat="41.734672" lon="23.525467"><ele>2234.5</ele><time>2026-03-15T13:00:14.000Z</time></trkpt>
<trkpt lat="41.734672" lon="23.525467"><ele>2234.5</ele><time>2026-03-15T13:00:15.000Z</time></trkpt>
<trkpt lat="41.734672" lon="23.525467"><ele>2234.5</ele><time>2026-03-15T13:00:16.000Z</time></trkpt>
<trkpt lat="41.734673" lon="23.525467"><ele>2234.3</ele><time>2026-03-15T13:00:17.000Z</time></trkpt>
<trkpt lat="41.734673" lon="23.525467"><ele>2234.3</ele><time>2026-03-15T13:00:18.000Z</time></trkpt>
<trkpt lat="41.734673" lon="23.525467"><ele>2234.3</ele><time>2026-03-15T13:00:19.000Z</time></trkpt>
<trkpt lat="41.734673" lon="23.525467"><ele>2234.3</ele><time>2026-03-15T13:00:20.000Z</time></trkpt>
<trkpt lat="41.734673" lon="23.525467"><ele>2234.3</ele><time>2026-03-15T13:00:21.000Z</time></trkpt>
<trkpt lat="41.734673" lon="23.525467"><ele>2234.1</ele><time>2026-03-15T13:00:22.000Z</time></trkpt>
<trkpt lat="41.734673" lon="23.525467"><ele>2234.1</ele><time>2026-03-15T13:00:23.000Z</time></trkpt>
<trkpt lat="41.734673" lon="23.525467"><ele>2234.1</ele><time>2026-03-15T13:00:24.000Z</time></trkpt>
<trkpt lat="41.734673" lon="23.525467"><ele>2234.1</ele><time>2026-03-15T13:00:25.000Z</time></trkpt>
<trkpt lat="41.734672" lon="23.525467"><ele>2234.1</ele><time>2026-03-15T13:00:26.000Z</time></trkpt>
<trkpt lat="41.734672" lon="23.525467"><ele>2234</ele><time>2026-03-15T13:00:27.000Z</time></trkpt>
<trkpt lat="41.734672" lon="23.525467"><ele>2234</ele><time>2026-03-15T13:00:28.000Z</time></trkpt>
<trkpt lat="41.734672" lon="23.525468"><ele>2234</ele><time>2026-03-15T13:00:29.000Z</time></trkpt>
<trkpt lat="41.734672" lon="23.525468"><ele>2234</ele><time>2026-03-15T13:00:30.000Z</time></trkpt>
<trkpt lat="41.734671" lon="23.525469"><ele>2234</ele><time>2026-03-15T13:00:31.000Z</time></trkpt>
<trkpt lat="41.734671" lon="23.525469"><ele>2233.9</ele><time>2026-03-15T13:00:32.000Z</time></trkpt>
<trkpt lat="41.734671" lon="23.525469"><ele>2233.9</ele><time>2026-03-15T13:00:33.000Z</time></trkpt>
<trkpt lat="41.734671" lon="23.525468"><ele>2233.9</ele><time>2026-03-15T13:00:34.000Z</time></trkpt>
<trkpt lat="41.734671" lon="23.525468"><ele>2233.9</ele><time>2026-03-15T13:00:35.000Z</time></trkpt>
<trkpt lat="41.734671" lon="23.525468"><ele>2233.9</ele><time>2026-03-15T13:00:36.000Z</time></trkpt>
<trkpt lat="41.734671" lon="23.525467"><ele>2233.7</ele><time>2026-03-15T13:00:37.000Z</time></trkpt>
<trkpt lat="41.734671" lon="23.525467"><ele>2233.7</ele><time>2026-03-15T13:00:38.000Z</time></trkpt>
<trkpt lat="41.734671" lon="23.525467"><ele>2233.7</ele><time>2026-03-15T13:00:39.000Z</time></trkpt>
<trkpt lat="41.734671" lon="23.525467"><ele>2233.7</ele><time>2026-03-15T13:00:40.000Z</time></trkpt>
<trkpt lat="41.734671" lon="23.525467"><ele>2233.7</ele><time>2026-03-15T13:00:41.000Z</time></trkpt>
<trkpt lat="41.734671" lon="23.525467"><ele>2233.6</ele><time>2026-03-15T13:00:42.000Z</time></trkpt>
<trkpt lat="41.734671" lon="23.525467"><ele>2233.6</ele><time>2026-03-15T13:00:43.000Z</time></trkpt>
<trkpt lat="41.734671" lon="23.525467"><ele>2233.6</ele><time>2026-03-15T13:00:44.000Z</time></trkpt>
<trkpt lat="41.734671" lon="23.525467"><ele>2233.6</ele><time>2026-03-15T13:00:45.000Z</time></trkpt>
<trkpt lat="41.734671" lon="23.525467"><ele>2233.6</ele><time>2026-03-15T13:00:46.000Z</time></trkpt>
<trkpt lat="41.734671" lon="23.525467"><ele>2233.6</ele><time>2026-03-15T13:00:47.000Z</time></trkpt>
<trkpt lat="41.734671" lon="23.525467"><ele>2233.6</ele><time>2026-03-15T13:00:48.000Z</time></trkpt>
<trkpt lat="41.734671" lon="23.525467"><ele>2233.6</ele><time>2026-03-15T13:00:49.000Z</time></trkpt>
<trkpt lat="41.734671" lon="23.525467"><ele>2233.6</ele><time>2026-03-15T13:00:50.000Z</time></trkpt>
<trkpt lat="41.734671" lon="23.525467"><ele>2233.6</ele><time>2026-03-15T13:00:51.000Z</time></trkpt>
<trkpt lat="41.734671" lon="23.525467"><ele>2233.5</ele><time>2026-03-15T13:00:52.000Z</time></trkpt>
<trkpt lat="41.734671" lon="23.525466"><ele>2233.5</ele><time>2026-03-15T13:00:53.000Z</time></trkpt>
<trkpt lat="41.734671" lon="23.525466"><ele>2233.5</ele><time>2026-03-15T13:00:54.000Z</time></trkpt>
<trkpt lat="41.734671" lon="23.525465"><ele>2233.5</ele><time>2026-03-15T13:00:55.000Z</time></trkpt>
<trkpt lat="41.734671" lon="23.525464"><ele>2233.5</ele><time>2026-03-15T13:00:56.000Z</time></trkpt>
<trkpt lat="41.734671" lon="23.525464"><ele>2233.4</ele><time>2026-03-15T13:00:57.000Z</time></trkpt>
<trkpt lat="41.734671" lon="23.525464"><ele>2233.4</ele><time>2026-03-15T13:00:58.000Z</time></trkpt>
<trkpt lat="41.734671" lon="23.525464"><ele>2233.4</ele><time>2026-03-15T13:00:59.000Z</time></trkpt>
<trkpt lat="41.734671" lon="23.525464"><ele>2233.4</ele><time>2026-03-15T13:01:00.000Z</time></trkpt>
<trkpt lat="41.734671" lon="23.525464"><ele>2233.4</ele><time>2026-03-15T13:01:01.000Z</time></trkpt>
<trkpt lat="41.734671" lon="23.525464"><ele>2233.3</ele><time>2026-03-15T13:01:02.000Z</time></trkpt>
<trkpt lat="41.734671" lon="23.525465"><ele>2233.3</ele><time>2026-03-15T13:01:03.000Z</time></trkpt>
<trkpt lat="41.73467" lon="23.525465"><ele>2233.3</ele><time>2026-03-15T13:01:04.000Z</time></trkpt>
<trkpt lat="41.73467" lon="23.525465"><ele>2233.3</ele><time>2026-03-15T13:01:05.000Z</time></trkpt>
<trkpt lat="41.734669" lon="23.525465"><ele>2233.3</ele><time>2026-03-15T13:01:06.000Z</time></trkpt>
<trkpt lat="41.734669" lon="23.525466"><ele>2233.4</ele><time>2026-03-15T13:01:07.000Z</time></trkpt>
<trkpt lat="41.734669" lon="23.525466"><ele>2233.4</ele><time>2026-03-15T13:01:08.000Z</time></trkpt>
<trkpt lat="41.734669" lon="23.525466"><ele>2233.4</ele><time>2026-03-15T13:01:09.000Z</time></trkpt>
<trkpt lat="41.734669" lon="23.525466"><ele>2233.4</ele><time>2026-03-15T13:01:10.000Z</time></trkpt>
<trkpt lat="41.734669" lon="23.525466"><ele>2233.4</ele><time>2026-03-15T13:01:11.000Z</time></trkpt>
<trkpt lat="41.734669" lon="23.525467"><ele>2233.5</ele><time>2026-03-15T13:01:12.000Z</time></trkpt>
<trkpt lat="41.734669" lon="23.525467"><ele>2233.5</ele><time>2026-03-15T13:01:13.000Z</time></trkpt>
<trkpt lat="41.73467" lon="23.525467"><ele>2233.5</ele><time>2026-03-15T13:01:14.000Z</time></trkpt>
<trkpt lat="41.73467" lon="23.525468"><ele>2233.5</ele><time>2026-03-15T13:01:15.000Z</time></trkpt>
<trkpt lat="41.734671" lon="23.525469"><ele>2233.5</ele><time>2026-03-15T13:01:16.000Z</time></trkpt>
<trkpt lat="41.734671" lon="23.525469"><ele>2233.5</ele><time>2026-03-15T13:01:17.000Z</time></trkpt>
<trkpt lat="41.734671" lon="23.52547"><ele>2233.5</ele><time>2026-03-15T13:01:18.000Z</time></trkpt>
<trkpt lat="41.734671" lon="23.52547"><ele>2233.5</ele><time>2026-03-15T13:01:19.000Z</time></trkpt>
<trkpt lat="41.734671" lon="23.52547"><ele>2233.5</ele><time>2026-03-15T13:01:20.000Z</time></trkpt>
<trkpt lat="41.734671" lon="23.52547"><ele>2233.5</ele><time>2026-03-15T13:01:21.000Z</time></trkpt>
<trkpt lat="41.734672" lon="23.52547"><ele>2233.6</ele><time>2026-03-15T13:01:22.000Z</time></trkpt>
<trkpt lat="41.734672" lon="23.525471"><ele>2233.6</ele><time>2026-03-15T13:01:23.000Z</time></trkpt>
<trkpt lat="41.734672" lon="23.525471"><ele>2233.6</ele><time>2026-03-15T13:01:24.000Z</time></trkpt>
<trkpt lat="41.734673" lon="23.52547"><ele>2233.6</ele><time>2026-03-15T13:01:25.000Z</time></trkpt>
<trkpt lat="41.734673" lon="23.52547"><ele>2233.6</ele><time>2026-03-15T13:01:26.000Z</time></trkpt>
<trkpt lat="41.734673" lon="23.525469"><ele>2233.6</ele><time>2026-03-15T13:01:27.000Z</time></trkpt>
<trkpt lat="41.734673" lon="23.525469"><ele>2233.6</ele><time>2026-03-15T13:01:28.000Z</time></trkpt>
<trkpt lat="41.734673" lon="23.525468"><ele>2233.6</ele><time>2026-03-15T13:01:29.000Z</time></trkpt>
<trkpt lat="41.734673" lon="23.525467"><ele>2233.6</ele><time>2026-03-15T13:01:30.000Z</time></trkpt>
<trkpt lat="41.734672" lon="23.525467"><ele>2233.6</ele><time>2026-03-15T13:01:31.000Z</time></trkpt>
<trkpt lat="41.734672" lon="23.525466"><ele>2233.7</ele><time>2026-03-15T13:01:32.000Z</time></trkpt>
<trkpt lat="41.734671" lon="23.525465"><ele>2233.7</ele><time>2026-03-15T13:01:33.000Z</time></trkpt>
<trkpt lat="41.73467" lon="23.525464"><ele>2233.7</ele><time>2026-03-15T13:01:34.000Z</time></trkpt>
<trkpt lat="41.734669" lon="23.525463"><ele>2233.7</ele><time>2026-03-15T13:01:35.000Z</time></trkpt>
<trkpt lat="41.73467" lon="23.525463"><ele>2233.7</ele><time>2026-03-15T13:01:36.000Z</time></trkpt>
<trkpt lat="41.734669" lon="23.525463"><ele>2233.6</ele><time>2026-03-15T13:01:37.000Z</time></trkpt>
<trkpt lat="41.734669" lon="23.525464"><ele>2233.6</ele><time>2026-03-15T13:01:38.000Z</time></trkpt>
<trkpt lat="41.73467" lon="23.525465"><ele>2233.6</ele><time>2026-03-15T13:01:39.000Z</time></trkpt>
<trkpt lat="41.73467" lon="23.525466"><ele>2233.6</ele><time>2026-03-15T13:01:40.000Z</time></trkpt>
<trkpt lat="41.734669" lon="23.525466"><ele>2233.6</ele><time>2026-03-15T13:01:41.000Z</time></trkpt>
<trkpt lat="41.734669" lon="23.525467"><ele>2233.5</ele><time>2026-03-15T13:01:42.000Z</time></trkpt>
<trkpt lat="41.734669" lon="23.525467"><ele>2233.5</ele><time>2026-03-15T13:01:43.000Z</time></trkpt>
<trkpt lat="41.734669" lon="23.525468"><ele>2233.5</ele><time>2026-03-15T13:01:44.000Z</time></trkpt>
<trkpt lat="41.734669" lon="23.525468"><ele>2233.5</ele><time>2026-03-15T13:01:45.000Z</time></trkpt>
<trkpt lat="41.734669" lon="23.525468"><ele>2233.5</ele><time>2026-03-15T13:01:46.000Z</time></trkpt>
<trkpt lat="41.734669" lon="23.525468"><ele>2233.5</ele><time>2026-03-15T13:01:47.000Z</time></trkpt>
<trkpt lat="41.734669" lon="23.525468"><ele>2233.5</ele><time>2026-03-15T13:01:48.000Z</time></trkpt>
<trkpt lat="41.734669" lon="23.525468"><ele>2233.5</ele><time>2026-03-15T13:01:49.000Z</time></trkpt>
<trkpt lat="41.73467" lon="23.525467"><ele>2233.5</ele><time>2026-03-15T13:01:50.000Z</time></trkpt>
<trkpt lat="41.73467" lon="23.525466"><ele>2233.5</ele><time>2026-03-15T13:01:51.000Z</time></trkpt>
<trkpt lat="41.73467" lon="23.525465"><ele>2233.5</ele><time>2026-03-15T13:01:52.000Z</time></trkpt>
<trkpt lat="41.734671" lon="23.525464"><ele>2233.5</ele><time>2026-03-15T13:01:53.000Z</time></trkpt>
<trkpt lat="41.734671" lon="23.525463"><ele>2233.5</ele><time>2026-03-15T13:01:54.000Z</time></trkpt>
<trkpt lat="41.734671" lon="23.525463"><ele>2233.5</ele><time>2026-03-15T13:01:55.000Z</time></trkpt>
<trkpt lat="41.734672" lon="23.525463"><ele>2233.5</ele><time>2026-03-15T13:01:56.000Z</time></trkpt>
<trkpt lat="41.734672" lon="23.525462"><ele>2233.7</ele><time>2026-03-15T13:01:57.000Z</time></trkpt>
<trkpt lat="41.734672" lon="23.525462"><ele>2233.7</ele><time>2026-03-15T13:01:58.000Z</time></trkpt>
<trkpt lat="41.734672" lon="23.525461"><ele>2233.7</ele><time>2026-03-15T13:01:59.000Z</time></trkpt>
<trkpt lat="41.734672" lon="23.525461"><ele>2233.7</ele><time>2026-03-15T13:02:00.000Z</time></trkpt>
<trkpt lat="41.734672" lon="23.525461"><ele>2233.7</ele><time>2026-03-15T13:02:01.000Z</time></trkpt>
<trkpt lat="41.734672" lon="23.525461"><ele>2233.8</ele><time>2026-03-15T13:02:02.000Z</time></trkpt>
<trkpt lat="41.734673" lon="23.52546"><ele>2233.8</ele><time>2026-03-15T13:02:03.000Z</time></trkpt>
<trkpt lat="41.734673" lon="23.52546"><ele>2233.8</ele><time>2026-03-15T13:02:04.000Z</time></trkpt>
<trkpt lat="41.734674" lon="23.52546"><ele>2233.8</ele><time>2026-03-15T13:02:05.000Z</time></trkpt>
<trkpt lat="41.734674" lon="23.525459"><ele>2233.8</ele><time>2026-03-15T13:02:06.000Z</time></trkpt>
<trkpt lat="41.734674" lon="23.525459"><ele>2234.1</ele><time>2026-03-15T13:02:07.000Z</time></trkpt>
<trkpt lat="41.734674" lon="23.525459"><ele>2234.1</ele><time>2026-03-15T13:02:08.000Z</time></trkpt>
<trkpt lat="41.734673" lon="23.525459"><ele>2234.1</ele><time>2026-03-15T13:02:09.000Z</time></trkpt>
<trkpt lat="41.734673" lon="23.525458"><ele>2234.1</ele><time>2026-03-15T13:02:10.000Z</time></trkpt>
<trkpt lat="41.734673" lon="23.525458"><ele>2234.1</ele><time>2026-03-15T13:02:11.000Z</time></trkpt>
<trkpt lat="41.734672" lon="23.525458"><ele>2234.3</ele><time>2026-03-15T13:02:12.000Z</time></trkpt>
<trkpt lat="41.734672" lon="23.525457"><ele>2234.3</ele><time>2026-03-15T13:02:13.000Z</time></trkpt>
<trkpt lat="41.734672" lon="23.525457"><ele>2234.3</ele><time>2026-03-15T13:02:14.000Z</time></trkpt>
<trkpt lat="41.734672" lon="23.525457"><ele>2234.3</ele><time>2026-03-15T13:02:15.000Z</time></trkpt>
<trkpt lat="41.734672" lon="23.525457"><ele>2234.3</ele><time>2026-03-15T13:02:16.000Z</time></trkpt>
<trkpt lat="41.734672" lon="23.525457"><ele>2234.2</ele><time>2026-03-15T13:02:17.000Z</time></trkpt>
<trkpt lat="41.734672" lon="23.525458"><ele>2234.2</ele><time>2026-03-15T13:02:18.000Z</time></trkpt>
<trkpt lat="41.734672" lon="23.525457"><ele>2234.2</ele><time>2026-03-15T13:02:19.000Z</time></trkpt>
<trkpt lat="41.734672" lon="23.525457"><ele>2234.2</ele><time>2026-03-15T13:02:20.000Z</time></trkpt>
<trkpt lat="41.734672" lon="23.525457"><ele>2234.2</ele><time>2026-03-15T13:02:21.000Z</time></trkpt>
<trkpt lat="41.734672" lon="23.525457"><ele>2234.2</ele><time>2026-03-15T13:02:22.000Z</time></trkpt>
<trkpt lat="41.734671" lon="23.525457"><ele>2234.2</ele><time>2026-03-15T13:02:23.000Z</time></trkpt>
<trkpt lat="41.734671" lon="23.525458"><ele>2234.2</ele><time>2026-03-15T13:02:24.000Z</time></trkpt>
<trkpt lat="41.73467" lon="23.525457"><ele>2234.2</ele><time>2026-03-15T13:02:25.000Z</time></trkpt>
<trkpt lat="41.73467" lon="23.525457"><ele>2234.2</ele><time>2026-03-15T13:02:26.000Z</time></trkpt>
<trkpt lat="41.734669" lon="23.525457"><ele>2233.9</ele><time>2026-03-15T13:02:27.000Z</time></trkpt>
<trkpt lat="41.734669" lon="23.525456"><ele>2233.9</ele><time>2026-03-15T13:02:28.000Z</time></trkpt>
<trkpt lat="41.734668" lon="23.525457"><ele>2233.9</ele><time>2026-03-15T13:02:29.000Z</time></trkpt>
<trkpt lat="41.734668" lon="23.525457"><ele>2233.9</ele><time>2026-03-15T13:02:30.000Z</time></trkpt>
<trkpt lat="41.734668" lon="23.525457"><ele>2233.9</ele><time>2026-03-15T13:02:31.000Z</time></trkpt>
<trkpt lat="41.734667" lon="23.525457"><ele>2233.8</ele><time>2026-03-15T13:02:32.000Z</time></trkpt>
<trkpt lat="41.734667" lon="23.525457"><ele>2233.8</ele><time>2026-03-15T13:02:33.000Z</time></trkpt>
<trkpt lat="41.734667" lon="23.525457"><ele>2233.8</ele><time>2026-03-15T13:02:34.000Z</time></trkpt>
<trkpt lat="41.734667" lon="23.525457"><ele>2233.8</ele><time>2026-03-15T13:02:35.000Z</time></trkpt>
<trkpt lat="41.734667" lon="23.525457"><ele>2233.8</ele><time>2026-03-15T13:02:36.000Z</time></trkpt>
<trkpt lat="41.734667" lon="23.525457"><ele>2233.4</ele><time>2026-03-15T13:02:37.000Z</time></trkpt>
<trkpt lat="41.734667" lon="23.525457"><ele>2233.4</ele><time>2026-03-15T13:02:38.000Z</time></trkpt>
<trkpt lat="41.734667" lon="23.525457"><ele>2233.4</ele><time>2026-03-15T13:02:39.000Z</time></trkpt>
<trkpt lat="41.734667" lon="23.525458"><ele>2233.4</ele><time>2026-03-15T13:02:40.000Z</time></trkpt>
<trkpt lat="41.734667" lon="23.525458"><ele>2233.4</ele><time>2026-03-15T13:02:41.000Z</time></trkpt>
<trkpt lat="41.734668" lon="23.525459"><ele>2233.2</ele><time>2026-03-15T13:02:42.000Z</time></trkpt>
<trkpt lat="41.734668" lon="23.52546"><ele>2233.2</ele><time>2026-03-15T13:02:43.000Z</time></trkpt>
<trkpt lat="41.734668" lon="23.525462"><ele>2233.2</ele><time>2026-03-15T13:02:44.000Z</time></trkpt>
<trkpt lat="41.734668" lon="23.525462"><ele>2233.2</ele><time>2026-03-15T13:02:45.000Z</time></trkpt>
<trkpt lat="41.734668" lon="23.525462"><ele>2233.2</ele><time>2026-03-15T13:02:46.000Z</time></trkpt>
<trkpt lat="41.734668" lon="23.525463"><ele>2233.2</ele><time>2026-03-15T13:02:47.000Z</time></trkpt>
<trkpt lat="41.734668" lon="23.525463"><ele>2233.2</ele><time>2026-03-15T13:02:48.000Z</time></trkpt>
<trkpt lat="41.734668" lon="23.525463"><ele>2233.2</ele><time>2026-03-15T13:02:49.000Z</time></trkpt>
<trkpt lat="41.734668" lon="23.525463"><ele>2233.2</ele><time>2026-03-15T13:02:50.000Z</time></trkpt>
<trkpt lat="41.734668" lon="23.525463"><ele>2233.2</ele><time>2026-03-15T13:02:51.000Z</time></trkpt>
<trkpt lat="41.734668" lon="23.525463"><ele>2233.2</ele><time>2026-03-15T13:02:52.000Z</time></trkpt>
<trkpt lat="41.734668" lon="23.525463"><ele>2233.2</ele><time>2026-03-15T13:02:53.000Z</time></trkpt>
<trkpt lat="41.734668" lon="23.525463"><ele>2233.2</ele><time>2026-03-15T13:02:54.000Z</time></trkpt>
<trkpt lat="41.734668" lon="23.525463"><ele>2233.2</ele><time>2026-03-15T13:02:55.000Z</time></trkpt>
<trkpt lat="41.734668" lon="23.525463"><ele>2233.2</ele><time>2026-03-15T13:02:56.000Z</time></trkpt>
<trkpt lat="41.734668" lon="23.525463"><ele>2233.3</ele><time>2026-03-15T13:02:57.000Z</time></trkpt>
<trkpt lat="41.734668" lon="23.525463"><ele>2233.3</ele><time>2026-03-15T13:02:58.000Z</time></trkpt>
<trkpt lat="41.734668" lon="23.525463"><ele>2233.3</ele><time>2026-03-15T13:02:59.000Z</time></trkpt>
<trkpt lat="41.734668" lon="23.525463"><ele>2233.3</ele><time>2026-03-15T13:03:00.000Z</time></trkpt>
<trkpt lat="41.734668" lon="23.525464"><ele>2233.3</ele><time>2026-03-15T13:03:01.000Z</time></trkpt>
<trkpt lat="41.734667" lon="23.525464"><ele>2233.2</ele><time>2026-03-15T13:03:02.000Z</time></trkpt>
<trkpt lat="41.734667" lon="23.525465"><ele>2233.2</ele><time>2026-03-15T13:03:03.000Z</time></trkpt>
<trkpt lat="41.734667" lon="23.525466"><ele>2233.2</ele><time>2026-03-15T13:03:04.000Z</time></trkpt>
<trkpt lat="41.734667" lon="23.525466"><ele>2233.2</ele><time>2026-03-15T13:03:05.000Z</time></trkpt>
<trkpt lat="41.734666" lon="23.525466"><ele>2233.2</ele><time>2026-03-15T13:03:06.000Z</time></trkpt>
<trkpt lat="41.734666" lon="23.525466"><ele>2233.2</ele><time>2026-03-15T13:03:07.000Z</time></trkpt>
<trkpt lat="41.734665" lon="23.525467"><ele>2233.2</ele><time>2026-03-15T13:03:08.000Z</time></trkpt>
<trkpt lat="41.734664" lon="23.525468"><ele>2233.2</ele><time>2026-03-15T13:03:09.000Z</time></trkpt>
<trkpt lat="41.734663" lon="23.525469"><ele>2233.2</ele><time>2026-03-15T13:03:10.000Z</time></trkpt>
<trkpt lat="41.734663" lon="23.52547"><ele>2233.2</ele><time>2026-03-15T13:03:11.000Z</time></trkpt>
<trkpt lat="41.734663" lon="23.52547"><ele>2233.2</ele><time>2026-03-15T13:03:12.000Z</time></trkpt>
<trkpt lat="41.734664" lon="23.525469"><ele>2233.2</ele><time>2026-03-15T13:03:13.000Z</time></trkpt>
<trkpt lat="41.734664" lon="23.525468"><ele>2233.2</ele><time>2026-03-15T13:03:14.000Z</time></trkpt>
<trkpt lat="41.734664" lon="23.525468"><ele>2233.2</ele><time>2026-03-15T13:03:15.000Z</time></trkpt>
<trkpt lat="41.734665" lon="23.525466"><ele>2233.2</ele><time>2026-03-15T13:03:16.000Z</time></trkpt>
<trkpt lat="41.734666" lon="23.525466"><ele>2233.2</ele><time>2026-03-15T13:03:17.000Z</time></trkpt>
<trkpt lat="41.734668" lon="23.525464"><ele>2233.2</ele><time>2026-03-15T13:03:18.000Z</time></trkpt>
<trkpt lat="41.73467" lon="23.525461"><ele>2233.2</ele><time>2026-03-15T13:03:19.000Z</time></trkpt>
<trkpt lat="41.734672" lon="23.525457"><ele>2233.2</ele><time>2026-03-15T13:03:20.000Z</time></trkpt>
<trkpt lat="41.734673" lon="23.525454"><ele>2233.2</ele><time>2026-03-15T13:03:21.000Z</time></trkpt>
<trkpt lat="41.734675" lon="23.52545"><ele>2233.2</ele><time>2026-03-15T13:03:22.000Z</time></trkpt>
<trkpt lat="41.734675" lon="23.525449"><ele>2233.2</ele><time>2026-03-15T13:03:23.000Z</time></trkpt>
<trkpt lat="41.734674" lon="23.525447"><ele>2233.2</ele><time>2026-03-15T13:03:24.000Z</time></trkpt>
<trkpt lat="41.734675" lon="23.525447"><ele>2233.2</ele><time>2026-03-15T13:03:25.000Z</time></trkpt>
<trkpt lat="41.734675" lon="23.525447"><ele>2233.2</ele><time>2026-03-15T13:03:26.000Z</time></trkpt>
<trkpt lat="41.734675" lon="23.525449"><ele>2233.3</ele><time>2026-03-15T13:03:27.000Z</time></trkpt>
<trkpt lat="41.734674" lon="23.52545"><ele>2233.3</ele><time>2026-03-15T13:03:28.000Z</time></trkpt>
<trkpt lat="41.734674" lon="23.525452"><ele>2233.3</ele><time>2026-03-15T13:03:29.000Z</time></trkpt>
<trkpt lat="41.734673" lon="23.525453"><ele>2233.3</ele><time>2026-03-15T13:03:30.000Z</time></trkpt>
<trkpt lat="41.734674" lon="23.525453"><ele>2233.3</ele><time>2026-03-15T13:03:31.000Z</time></trkpt>
<trkpt lat="41.734674" lon="23.525452"><ele>2233.3</ele><time>2026-03-15T13:03:32.000Z</time></trkpt>
<trkpt lat="41.734675" lon="23.525451"><ele>2233.3</ele><time>2026-03-15T13:03:33.000Z</time></trkpt>
<trkpt lat="41.734676" lon="23.525451"><ele>2233.3</ele><time>2026-03-15T13:03:34.000Z</time></trkpt>
<trkpt lat="41.734676" lon="23.52545"><ele>2233.3</ele><time>2026-03-15T13:03:35.000Z</time></trkpt>
<trkpt lat="41.734677" lon="23.525449"><ele>2233.3</ele><time>2026-03-15T13:03:36.000Z</time></trkpt>
<trkpt lat="41.734677" lon="23.525448"><ele>2233.5</ele><time>2026-03-15T13:03:37.000Z</time></trkpt>
<trkpt lat="41.734677" lon="23.525447"><ele>2233.5</ele><time>2026-03-15T13:03:38.000Z</time></trkpt>
<trkpt lat="41.734678" lon="23.525446"><ele>2233.5</ele><time>2026-03-15T13:03:39.000Z</time></trkpt>
<trkpt lat="41.734678" lon="23.525445"><ele>2233.5</ele><time>2026-03-15T13:03:40.000Z</time></trkpt>
<trkpt lat="41.734678" lon="23.525444"><ele>2233.5</ele><time>2026-03-15T13:03:41.000Z</time></trkpt>
<trkpt lat="41.734678" lon="23.525444"><ele>2233.6</ele><time>2026-03-15T13:03:42.000Z</time></trkpt>
<trkpt lat="41.734678" lon="23.525444"><ele>2233.6</ele><time>2026-03-15T13:03:43.000Z</time></trkpt>
<trkpt lat="41.734678" lon="23.525443"><ele>2233.6</ele><time>2026-03-15T13:03:44.000Z</time></trkpt>
<trkpt lat="41.734678" lon="23.525443"><ele>2233.6</ele><time>2026-03-15T13:03:45.000Z</time></trkpt>
<trkpt lat="41.734678" lon="23.525444"><ele>2233.6</ele><time>2026-03-15T13:03:46.000Z</time></trkpt>
<trkpt lat="41.734678" lon="23.525445"><ele>2233.6</ele><time>2026-03-15T13:03:47.000Z</time></trkpt>
<trkpt lat="41.734678" lon="23.525446"><ele>2233.6</ele><time>2026-03-15T13:03:48.000Z</time></trkpt>
<trkpt lat="41.734678" lon="23.525448"><ele>2233.6</ele><time>2026-03-15T13:03:49.000Z</time></trkpt>
<trkpt lat="41.734678" lon="23.525449"><ele>2233.6</ele><time>2026-03-15T13:03:50.000Z</time></trkpt>
<trkpt lat="41.734678" lon="23.52545"><ele>2233.6</ele><time>2026-03-15T13:03:51.000Z</time></trkpt>
<trkpt lat="41.734678" lon="23.52545"><ele>2233.7</ele><time>2026-03-15T13:03:52.000Z</time></trkpt>
<trkpt lat="41.734678" lon="23.52545"><ele>2233.7</ele><time>2026-03-15T13:03:53.000Z</time></trkpt>
<trkpt lat="41.734678" lon="23.52545"><ele>2233.7</ele><time>2026-03-15T13:03:54.000Z</time></trkpt>
<trkpt lat="41.734678" lon="23.525451"><ele>2233.7</ele><time>2026-03-15T13:03:55.000Z</time></trkpt>
<trkpt lat="41.734679" lon="23.525451"><ele>2233.7</ele><time>2026-03-15T13:03:56.000Z</time></trkpt>
<trkpt lat="41.734679" lon="23.52545"><ele>2233.7</ele><time>2026-03-15T13:03:57.000Z</time></trkpt>
<trkpt lat="41.73468" lon="23.52545"><ele>2233.7</ele><time>2026-03-15T13:03:58.000Z</time></trkpt>
<trkpt lat="41.73468" lon="23.525449"><ele>2233.7</ele><time>2026-03-15T13:03:59.000Z</time></trkpt>
<trkpt lat="41.73468" lon="23.525448"><ele>2233.7</ele><time>2026-03-15T13:04:00.000Z</time></trkpt>
<trkpt lat="41.734681" lon="23.525448"><ele>2233.7</ele><time>2026-03-15T13:04:01.000Z</time></trkpt>
<trkpt lat="41.734681" lon="23.525448"><ele>2233.8</ele><time>2026-03-15T13:04:02.000Z</time></trkpt>
<trkpt lat="41.734681" lon="23.525448"><ele>2233.8</ele><time>2026-03-15T13:04:03.000Z</time></trkpt>
<trkpt lat="41.734681" lon="23.525449"><ele>2233.8</ele><time>2026-03-15T13:04:04.000Z</time></trkpt>
<trkpt lat="41.734681" lon="23.525449"><ele>2233.8</ele><time>2026-03-15T13:04:05.000Z</time></trkpt>
<trkpt lat="41.734681" lon="23.52545"><ele>2233.8</ele><time>2026-03-15T13:04:06.000Z</time></trkpt>
<trkpt lat="41.73468" lon="23.525451"><ele>2233.9</ele><time>2026-03-15T13:04:07.000Z</time></trkpt>
<trkpt lat="41.73468" lon="23.525452"><ele>2233.9</ele><time>2026-03-15T13:04:08.000Z</time></trkpt>
<trkpt lat="41.73468" lon="23.525452"><ele>2233.9</ele><time>2026-03-15T13:04:09.000Z</time></trkpt>
<trkpt lat="41.734679" lon="23.525451"><ele>2233.9</ele><time>2026-03-15T13:04:10.000Z</time></trkpt>
<trkpt lat="41.73468" lon="23.525451"><ele>2233.9</ele><time>2026-03-15T13:04:11.000Z</time></trkpt>
<trkpt lat="41.73468" lon="23.525451"><ele>2233.8</ele><time>2026-03-15T13:04:12.000Z</time></trkpt>
<trkpt lat="41.73468" lon="23.52545"><ele>2233.8</ele><time>2026-03-15T13:04:13.000Z</time></trkpt>
<trkpt lat="41.73468" lon="23.52545"><ele>2233.8</ele><time>2026-03-15T13:04:14.000Z</time></trkpt>
<trkpt lat="41.734681" lon="23.525449"><ele>2233.8</ele><time>2026-03-15T13:04:15.000Z</time></trkpt>
<trkpt lat="41.734683" lon="23.525448"><ele>2233.8</ele><time>2026-03-15T13:04:16.000Z</time></trkpt>
<trkpt lat="41.734687" lon="23.525448"><ele>2233.5</ele><time>2026-03-15T13:04:17.000Z</time></trkpt>
<trkpt lat="41.734692" lon="23.525447"><ele>2233.5</ele><time>2026-03-15T13:04:18.000Z</time></trkpt>
<trkpt lat="41.734698" lon="23.525445"><ele>2233.5</ele><time>2026-03-15T13:04:19.000Z</time></trkpt>
<trkpt lat="41.734706" lon="23.525445"><ele>2233.5</ele><time>2026-03-15T13:04:20.000Z</time></trkpt>
<trkpt lat="41.734713" lon="23.525445"><ele>2233.5</ele><time>2026-03-15T13:04:21.000Z</time></trkpt>
<trkpt lat="41.73472" lon="23.525444"><ele>2232.9</ele><time>2026-03-15T13:04:22.000Z</time></trkpt>
<trkpt lat="41.734726" lon="23.525444"><ele>2232.9</ele><time>2026-03-15T13:04:23.000Z</time></trkpt>
<trkpt lat="41.734731" lon="23.525445"><ele>2232.9</ele><time>2026-03-15T13:04:24.000Z</time></trkpt>
<trkpt lat="41.734735" lon="23.525446"><ele>2232.9</ele><time>2026-03-15T13:04:25.000Z</time></trkpt>
<trkpt lat="41.734738" lon="23.525447"><ele>2232.9</ele><time>2026-03-15T13:04:26.000Z</time></trkpt>
<trkpt lat="41.73474" lon="23.525449"><ele>2232.5</ele><time>2026-03-15T13:04:27.000Z</time></trkpt>
<trkpt lat="41.734742" lon="23.525449"><ele>2232.5</ele><time>2026-03-15T13:04:28.000Z</time></trkpt>
<trkpt lat="41.734743" lon="23.52545"><ele>2232.5</ele><time>2026-03-15T13:04:29.000Z</time></trkpt>
<trkpt lat="41.734744" lon="23.525449"><ele>2232.5</ele><time>2026-03-15T13:04:30.000Z</time></trkpt>
<trkpt lat="41.734744" lon="23.525448"><ele>2232.5</ele><time>2026-03-15T13:04:31.000Z</time></trkpt>
<trkpt lat="41.734746" lon="23.525446"><ele>2232.4</ele><time>2026-03-15T13:04:32.000Z</time></trkpt>
<trkpt lat="41.734749" lon="23.525446"><ele>2232.4</ele><time>2026-03-15T13:04:33.000Z</time></trkpt>
<trkpt lat="41.734755" lon="23.525447"><ele>2232.4</ele><time>2026-03-15T13:04:34.000Z</time></trkpt>
<trkpt lat="41.734761" lon="23.525449"><ele>2232.4</ele><time>2026-03-15T13:04:35.000Z</time></trkpt>
<trkpt lat="41.73477" lon="23.525454"><ele>2232.4</ele><time>2026-03-15T13:04:36.000Z</time></trkpt>
<trkpt lat="41.734778" lon="23.525459"><ele>2232.3</ele><time>2026-03-15T13:04:37.000Z</time></trkpt>
<trkpt lat="41.734784" lon="23.525466"><ele>2232.3</ele><time>2026-03-15T13:04:38.000Z</time></trkpt>
<trkpt lat="41.734789" lon="23.525473"><ele>2232.3</ele><time>2026-03-15T13:04:39.000Z</time></trkpt>
<trkpt lat="41.734793" lon="23.525479"><ele>2232.3</ele><time>2026-03-15T13:04:40.000Z</time></trkpt>
<trkpt lat="41.734795" lon="23.525483"><ele>2232.3</ele><time>2026-03-15T13:04:41.000Z</time></trkpt>
<trkpt lat="41.734798" lon="23.525486"><ele>2232.1</ele><time>2026-03-15T13:04:42.000Z</time></trkpt>
<trkpt lat="41.734799" lon="23.525487"><ele>2232.1</ele><time>2026-03-15T13:04:43.000Z</time></trkpt>
<trkpt lat="41.7348" lon="23.525487"><ele>2232.1</ele><time>2026-03-15T13:04:44.000Z</time></trkpt>
<trkpt lat="41.734801" lon="23.525487"><ele>2232.1</ele><time>2026-03-15T13:04:45.000Z</time></trkpt>
<trkpt lat="41.734801" lon="23.525487"><ele>2232.1</ele><time>2026-03-15T13:04:46.000Z</time></trkpt>
<trkpt lat="41.734801" lon="23.525487"><ele>2232.1</ele><time>2026-03-15T13:04:47.000Z</time></trkpt>
<trkpt lat="41.734801" lon="23.525487"><ele>2232.1</ele><time>2026-03-15T13:04:48.000Z</time></trkpt>
<trkpt lat="41.734801" lon="23.525487"><ele>2232.1</ele><time>2026-03-15T13:04:49.000Z</time></trkpt>
<trkpt lat="41.734801" lon="23.525487"><ele>2232.1</ele><time>2026-03-15T13:04:50.000Z</time></trkpt>
<trkpt lat="41.734801" lon="23.525487"><ele>2232.1</ele><time>2026-03-15T13:04:51.000Z</time></trkpt>
<trkpt lat="41.734801" lon="23.525487"><ele>2232</ele><time>2026-03-15T13:04:52.000Z</time></trkpt>
<trkpt lat="41.734801" lon="23.525487"><ele>2232</ele><time>2026-03-15T13:04:53.000Z</time></trkpt>
<trkpt lat="41.734802" lon="23.525487"><ele>2232</ele><time>2026-03-15T13:04:54.000Z</time></trkpt>
<trkpt lat="41.734802" lon="23.525488"><ele>2232</ele><time>2026-03-15T13:04:55.000Z</time></trkpt>
<trkpt lat="41.734802" lon="23.525489"><ele>2232</ele><time>2026-03-15T13:04:56.000Z</time></trkpt>
<trkpt lat="41.734803" lon="23.52549"><ele>2232</ele><time>2026-03-15T13:04:57.000Z</time></trkpt>
<trkpt lat="41.734803" lon="23.525491"><ele>2232</ele><time>2026-03-15T13:04:58.000Z</time></trkpt>
<trkpt lat="41.734803" lon="23.525491"><ele>2232</ele><time>2026-03-15T13:04:59.000Z</time></trkpt>
<trkpt lat="41.734803" lon="23.525491"><ele>2232</ele><time>2026-03-15T13:05:00.000Z</time></trkpt>
<trkpt lat="41.734805" lon="23.525489"><ele>2232</ele><time>2026-03-15T13:05:01.000Z</time></trkpt>
<trkpt lat="41.734807" lon="23.525485"><ele>2232</ele><time>2026-03-15T13:05:02.000Z</time></trkpt>
<trkpt lat="41.73481" lon="23.525481"><ele>2232</ele><time>2026-03-15T13:05:03.000Z</time></trkpt>
<trkpt lat="41.734813" lon="23.525475"><ele>2232</ele><time>2026-03-15T13:05:04.000Z</time></trkpt>
<trkpt lat="41.734815" lon="23.525469"><ele>2232</ele><time>2026-03-15T13:05:05.000Z</time></trkpt>
<trkpt lat="41.734815" lon="23.525464"><ele>2232</ele><time>2026-03-15T13:05:06.000Z</time></trkpt>
<trkpt lat="41.734815" lon="23.525461"><ele>2232.1</ele><time>2026-03-15T13:05:07.000Z</time></trkpt>
<trkpt lat="41.734814" lon="23.525457"><ele>2232.1</ele><time>2026-03-15T13:05:08.000Z</time></trkpt>
<trkpt lat="41.734813" lon="23.525455"><ele>2232.1</ele><time>2026-03-15T13:05:09.000Z</time></trkpt>
<trkpt lat="41.734813" lon="23.525454"><ele>2232.1</ele><time>2026-03-15T13:05:10.000Z</time></trkpt>
<trkpt lat="41.734813" lon="23.525453"><ele>2232.1</ele><time>2026-03-15T13:05:11.000Z</time></trkpt>
<trkpt lat="41.734813" lon="23.525453"><ele>2232.2</ele><time>2026-03-15T13:05:12.000Z</time></trkpt>
<trkpt lat="41.734813" lon="23.525453"><ele>2232.2</ele><time>2026-03-15T13:05:13.000Z</time></trkpt>
<trkpt lat="41.734813" lon="23.525453"><ele>2232.2</ele><time>2026-03-15T13:05:14.000Z</time></trkpt>
<trkpt lat="41.734813" lon="23.525454"><ele>2232.2</ele><time>2026-03-15T13:05:15.000Z</time></trkpt>
<trkpt lat="41.734816" lon="23.525459"><ele>2232.2</ele><time>2026-03-15T13:05:16.000Z</time></trkpt>
<trkpt lat="41.734824" lon="23.525468"><ele>2232.3</ele><time>2026-03-15T13:05:17.000Z</time></trkpt>
<trkpt lat="41.734835" lon="23.525479"><ele>2232.3</ele><time>2026-03-15T13:05:18.000Z</time></trkpt>
<trkpt lat="41.73485" lon="23.525492"><ele>2232.3</ele><time>2026-03-15T13:05:19.000Z</time></trkpt>
<trkpt lat="41.734868" lon="23.525508"><ele>2232.3</ele><time>2026-03-15T13:05:20.000Z</time></trkpt>
<trkpt lat="41.734886" lon="23.525522"><ele>2232.3</ele><time>2026-03-15T13:05:21.000Z</time></trkpt>
<trkpt lat="41.734902" lon="23.525533"><ele>2232.2</ele><time>2026-03-15T13:05:22.000Z</time></trkpt>
<trkpt lat="41.734919" lon="23.525546"><ele>2232.2</ele><time>2026-03-15T13:05:23.000Z</time></trkpt>
<trkpt lat="41.734938" lon="23.52556"><ele>2232.2</ele><time>2026-03-15T13:05:24.000Z</time></trkpt>
<trkpt lat="41.734955" lon="23.525572"><ele>2232.2</ele><time>2026-03-15T13:05:25.000Z</time></trkpt>
<trkpt lat="41.734972" lon="23.525584"><ele>2232.2</ele><time>2026-03-15T13:05:26.000Z</time></trkpt>
<trkpt lat="41.734992" lon="23.525598"><ele>2232.1</ele><time>2026-03-15T13:05:27.000Z</time></trkpt>
<trkpt lat="41.735008" lon="23.525611"><ele>2232.1</ele><time>2026-03-15T13:05:28.000Z</time></trkpt>
<trkpt lat="41.735023" lon="23.525621"><ele>2232.1</ele><time>2026-03-15T13:05:29.000Z</time></trkpt>
<trkpt lat="41.73504" lon="23.525633"><ele>2232.1</ele><time>2026-03-15T13:05:30.000Z</time></trkpt>
<trkpt lat="41.735056" lon="23.525644"><ele>2232.1</ele><time>2026-03-15T13:05:31.000Z</time></trkpt>
<trkpt lat="41.735071" lon="23.525656"><ele>2232.1</ele><time>2026-03-15T13:05:32.000Z</time></trkpt>
<trkpt lat="41.735087" lon="23.525668"><ele>2232.1</ele><time>2026-03-15T13:05:33.000Z</time></trkpt>
<trkpt lat="41.735102" lon="23.525681"><ele>2232.1</ele><time>2026-03-15T13:05:34.000Z</time></trkpt>
<trkpt lat="41.735115" lon="23.525693"><ele>2232.1</ele><time>2026-03-15T13:05:35.000Z</time></trkpt>
<trkpt lat="41.73513" lon="23.525706"><ele>2232.1</ele><time>2026-03-15T13:05:36.000Z</time></trkpt>
<trkpt lat="41.735146" lon="23.525718"><ele>2231.5</ele><time>2026-03-15T13:05:37.000Z</time></trkpt>
<trkpt lat="41.73516" lon="23.525731"><ele>2231.5</ele><time>2026-03-15T13:05:38.000Z</time></trkpt>
<trkpt lat="41.735175" lon="23.525744"><ele>2231.5</ele><time>2026-03-15T13:05:39.000Z</time></trkpt>
<trkpt lat="41.73519" lon="23.525758"><ele>2231.5</ele><time>2026-03-15T13:05:40.000Z</time></trkpt>
<trkpt lat="41.735204" lon="23.525772"><ele>2231.5</ele><time>2026-03-15T13:05:41.000Z</time></trkpt>
<trkpt lat="41.735218" lon="23.525786"><ele>2230.1</ele><time>2026-03-15T13:05:42.000Z</time></trkpt>
<trkpt lat="41.735233" lon="23.5258"><ele>2230.1</ele><time>2026-03-15T13:05:43.000Z</time></trkpt>
<trkpt lat="41.735248" lon="23.525813"><ele>2230.1</ele><time>2026-03-15T13:05:44.000Z</time></trkpt>
<trkpt lat="41.735262" lon="23.525826"><ele>2230.1</ele><time>2026-03-15T13:05:45.000Z</time></trkpt>
<trkpt lat="41.735276" lon="23.525838"><ele>2230.1</ele><time>2026-03-15T13:05:46.000Z</time></trkpt>
<trkpt lat="41.735291" lon="23.52585"><ele>2229</ele><time>2026-03-15T13:05:47.000Z</time></trkpt>
<trkpt lat="41.735305" lon="23.525862"><ele>2229</ele><time>2026-03-15T13:05:48.000Z</time></trkpt>
<trkpt lat="41.735318" lon="23.525875"><ele>2229</ele><time>2026-03-15T13:05:49.000Z</time></trkpt>
<trkpt lat="41.735333" lon="23.525887"><ele>2229</ele><time>2026-03-15T13:05:50.000Z</time></trkpt>
<trkpt lat="41.735347" lon="23.525899"><ele>2229</ele><time>2026-03-15T13:05:51.000Z</time></trkpt>
<trkpt lat="41.735362" lon="23.525911"><ele>2226.1</ele><time>2026-03-15T13:05:52.000Z</time></trkpt>
<trkpt lat="41.735376" lon="23.525923"><ele>2226.1</ele><time>2026-03-15T13:05:53.000Z</time></trkpt>
<trkpt lat="41.735392" lon="23.525935"><ele>2226.1</ele><time>2026-03-15T13:05:54.000Z</time></trkpt>
<trkpt lat="41.735407" lon="23.525947"><ele>2226.1</ele><time>2026-03-15T13:05:55.000Z</time></trkpt>
<trkpt lat="41.735422" lon="23.525959"><ele>2226.1</ele><time>2026-03-15T13:05:56.000Z</time></trkpt>
<trkpt lat="41.735436" lon="23.525972"><ele>2222.7</ele><time>2026-03-15T13:05:57.000Z</time></trkpt>
<trkpt lat="41.735452" lon="23.525984"><ele>2222.7</ele><time>2026-03-15T13:05:58.000Z</time></trkpt>
<trkpt lat="41.735466" lon="23.525997"><ele>2222.7</ele><time>2026-03-15T13:05:59.000Z</time></trkpt>
<trkpt lat="41.735481" lon="23.526011"><ele>2222.7</ele><time>2026-03-15T13:06:00.000Z</time></trkpt>
<trkpt lat="41.735497" lon="23.526023"><ele>2222.7</ele><time>2026-03-15T13:06:01.000Z</time></trkpt>
<trkpt lat="41.735512" lon="23.526035"><ele>2220.9</ele><time>2026-03-15T13:06:02.000Z</time></trkpt>
<trkpt lat="41.735528" lon="23.526048"><ele>2220.9</ele><time>2026-03-15T13:06:03.000Z</time></trkpt>
<trkpt lat="41.735544" lon="23.52606"><ele>2220.9</ele><time>2026-03-15T13:06:04.000Z</time></trkpt>
<trkpt lat="41.735561" lon="23.526072"><ele>2220.9</ele><time>2026-03-15T13:06:05.000Z</time></trkpt>
<trkpt lat="41.735577" lon="23.526085"><ele>2220.9</ele><time>2026-03-15T13:06:06.000Z</time></trkpt>
<trkpt lat="41.735594" lon="23.526098"><ele>2217.7</ele><time>2026-03-15T13:06:07.000Z</time></trkpt>
<trkpt lat="41.73561" lon="23.526111"><ele>2217.7</ele><time>2026-03-15T13:06:08.000Z</time></trkpt>
<trkpt lat="41.735626" lon="23.526124"><ele>2217.7</ele><time>2026-03-15T13:06:09.000Z</time></trkpt>
<trkpt lat="41.735642" lon="23.526137"><ele>2217.7</ele><time>2026-03-15T13:06:10.000Z</time></trkpt>
<trkpt lat="41.735658" lon="23.526149"><ele>2217.7</ele><time>2026-03-15T13:06:11.000Z</time></trkpt>
<trkpt lat="41.735674" lon="23.526162"><ele>2214.9</ele><time>2026-03-15T13:06:12.000Z</time></trkpt>
<trkpt lat="41.735687" lon="23.526177"><ele>2214.9</ele><time>2026-03-15T13:06:13.000Z</time></trkpt>
<trkpt lat="41.735701" lon="23.52619"><ele>2214.9</ele><time>2026-03-15T13:06:14.000Z</time></trkpt>
<trkpt lat="41.735715" lon="23.526204"><ele>2214.9</ele><time>2026-03-15T13:06:15.000Z</time></trkpt>
<trkpt lat="41.735729" lon="23.526217"><ele>2214.9</ele><time>2026-03-15T13:06:16.000Z</time></trkpt>
<trkpt lat="41.735743" lon="23.52623"><ele>2213.6</ele><time>2026-03-15T13:06:17.000Z</time></trkpt>
<trkpt lat="41.735758" lon="23.526241"><ele>2213.6</ele><time>2026-03-15T13:06:18.000Z</time></trkpt>
<trkpt lat="41.735774" lon="23.526252"><ele>2213.6</ele><time>2026-03-15T13:06:19.000Z</time></trkpt>
<trkpt lat="41.73579" lon="23.526264"><ele>2213.6</ele><time>2026-03-15T13:06:20.000Z</time></trkpt>
<trkpt lat="41.735806" lon="23.526274"><ele>2213.6</ele><time>2026-03-15T13:06:21.000Z</time></trkpt>
<trkpt lat="41.735821" lon="23.526286"><ele>2210.9</ele><time>2026-03-15T13:06:22.000Z</time></trkpt>
<trkpt lat="41.735837" lon="23.526297"><ele>2210.9</ele><time>2026-03-15T13:06:23.000Z</time></trkpt>
<trkpt lat="41.735852" lon="23.526309"><ele>2210.9</ele><time>2026-03-15T13:06:24.000Z</time></trkpt>
<trkpt lat="41.735868" lon="23.526321"><ele>2210.9</ele><time>2026-03-15T13:06:25.000Z</time></trkpt>
<trkpt lat="41.735883" lon="23.526334"><ele>2210.9</ele><time>2026-03-15T13:06:26.000Z</time></trkpt>
<trkpt lat="41.735898" lon="23.526346"><ele>2207.9</ele><time>2026-03-15T13:06:27.000Z</time></trkpt>
<trkpt lat="41.735913" lon="23.526358"><ele>2207.9</ele><time>2026-03-15T13:06:28.000Z</time></trkpt>
<trkpt lat="41.735926" lon="23.52637"><ele>2207.9</ele><time>2026-03-15T13:06:29.000Z</time></trkpt>
<trkpt lat="41.73594" lon="23.526383"><ele>2207.9</ele><time>2026-03-15T13:06:30.000Z</time></trkpt>
<trkpt lat="41.735954" lon="23.526395"><ele>2207.9</ele><time>2026-03-15T13:06:31.000Z</time></trkpt>
<trkpt lat="41.735968" lon="23.526408"><ele>2206.2</ele><time>2026-03-15T13:06:32.000Z</time></trkpt>
<trkpt lat="41.735982" lon="23.526422"><ele>2206.2</ele><time>2026-03-15T13:06:33.000Z</time></trkpt>
<trkpt lat="41.735996" lon="23.526437"><ele>2206.2</ele><time>2026-03-15T13:06:34.000Z</time></trkpt>
<trkpt lat="41.736011" lon="23.526451"><ele>2206.2</ele><time>2026-03-15T13:06:35.000Z</time></trkpt>
<trkpt lat="41.736025" lon="23.526464"><ele>2206.2</ele><time>2026-03-15T13:06:36.000Z</time></trkpt>
<trkpt lat="41.736039" lon="23.526477"><ele>2202.4</ele><time>2026-03-15T13:06:37.000Z</time></trkpt>
<trkpt lat="41.736055" lon="23.52649"><ele>2202.4</ele><time>2026-03-15T13:06:38.000Z</time></trkpt>
<trkpt lat="41.73607" lon="23.526502"><ele>2202.4</ele><time>2026-03-15T13:06:39.000Z</time></trkpt>
<trkpt lat="41.736086" lon="23.526513"><ele>2202.4</ele><time>2026-03-15T13:06:40.000Z</time></trkpt>
<trkpt lat="41.736101" lon="23.526524"><ele>2202.4</ele><time>2026-03-15T13:06:41.000Z</time></trkpt>
<trkpt lat="41.736117" lon="23.526534"><ele>2198.4</ele><time>2026-03-15T13:06:42.000Z</time></trkpt>
<trkpt lat="41.736133" lon="23.526545"><ele>2198.4</ele><time>2026-03-15T13:06:43.000Z</time></trkpt>
<trkpt lat="41.736148" lon="23.526555"><ele>2198.4</ele><time>2026-03-15T13:06:44.000Z</time></trkpt>
<trkpt lat="41.736164" lon="23.526566"><ele>2198.4</ele><time>2026-03-15T13:06:45.000Z</time></trkpt>
<trkpt lat="41.736179" lon="23.526578"><ele>2198.4</ele><time>2026-03-15T13:06:46.000Z</time></trkpt>
<trkpt lat="41.736194" lon="23.526592"><ele>2196.5</ele><time>2026-03-15T13:06:47.000Z</time></trkpt>
<trkpt lat="41.736208" lon="23.526605"><ele>2196.5</ele><time>2026-03-15T13:06:48.000Z</time></trkpt>
<trkpt lat="41.736222" lon="23.52662"><ele>2196.5</ele><time>2026-03-15T13:06:49.000Z</time></trkpt>
<trkpt lat="41.736236" lon="23.526635"><ele>2196.5</ele><time>2026-03-15T13:06:50.000Z</time></trkpt>
<trkpt lat="41.736249" lon="23.52665"><ele>2196.5</ele><time>2026-03-15T13:06:51.000Z</time></trkpt>
<trkpt lat="41.736263" lon="23.526663"><ele>2192.9</ele><time>2026-03-15T13:06:52.000Z</time></trkpt>
<trkpt lat="41.736276" lon="23.526676"><ele>2192.9</ele><time>2026-03-15T13:06:53.000Z</time></trkpt>
<trkpt lat="41.73629" lon="23.526688"><ele>2192.9</ele><time>2026-03-15T13:06:54.000Z</time></trkpt>
<trkpt lat="41.736304" lon="23.5267"><ele>2192.9</ele><time>2026-03-15T13:06:55.000Z</time></trkpt>
<trkpt lat="41.736319" lon="23.526711"><ele>2192.9</ele><time>2026-03-15T13:06:56.000Z</time></trkpt>
<trkpt lat="41.736334" lon="23.526724"><ele>2189.3</ele><time>2026-03-15T13:06:57.000Z</time></trkpt>
<trkpt lat="41.73635" lon="23.526736"><ele>2189.3</ele><time>2026-03-15T13:06:58.000Z</time></trkpt>
<trkpt lat="41.736365" lon="23.526749"><ele>2189.3</ele><time>2026-03-15T13:06:59.000Z</time></trkpt>
<trkpt lat="41.73638" lon="23.526763"><ele>2189.3</ele><time>2026-03-15T13:07:00.000Z</time></trkpt>
<trkpt lat="41.736395" lon="23.526776"><ele>2189.3</ele><time>2026-03-15T13:07:01.000Z</time></trkpt>
<trkpt lat="41.73641" lon="23.526789"><ele>2187.6</ele><time>2026-03-15T13:07:02.000Z</time></trkpt>
<trkpt lat="41.736425" lon="23.526801"><ele>2187.6</ele><time>2026-03-15T13:07:03.000Z</time></trkpt>
<trkpt lat="41.73644" lon="23.526814"><ele>2187.6</ele><time>2026-03-15T13:07:04.000Z</time></trkpt>
<trkpt lat="41.736456" lon="23.526827"><ele>2187.6</ele><time>2026-03-15T13:07:05.000Z</time></trkpt>
<trkpt lat="41.736471" lon="23.526841"><ele>2187.6</ele><time>2026-03-15T13:07:06.000Z</time></trkpt>
<trkpt lat="41.736486" lon="23.526854"><ele>2184.2</ele><time>2026-03-15T13:07:07.000Z</time></trkpt>
<trkpt lat="41.736501" lon="23.526867"><ele>2184.2</ele><time>2026-03-15T13:07:08.000Z</time></trkpt>
<trkpt lat="41.736516" lon="23.526881"><ele>2184.2</ele><time>2026-03-15T13:07:09.000Z</time></trkpt>
<trkpt lat="41.736531" lon="23.526894"><ele>2184.2</ele><time>2026-03-15T13:07:10.000Z</time></trkpt>
<trkpt lat="41.736546" lon="23.526907"><ele>2184.2</ele><time>2026-03-15T13:07:11.000Z</time></trkpt>
<trkpt lat="41.736562" lon="23.526922"><ele>2180.8</ele><time>2026-03-15T13:07:12.000Z</time></trkpt>
<trkpt lat="41.736577" lon="23.526937"><ele>2180.8</ele><time>2026-03-15T13:07:13.000Z</time></trkpt>
<trkpt lat="41.736593" lon="23.526951"><ele>2180.8</ele><time>2026-03-15T13:07:14.000Z</time></trkpt>
<trkpt lat="41.736608" lon="23.526964"><ele>2180.8</ele><time>2026-03-15T13:07:15.000Z</time></trkpt>
<trkpt lat="41.736623" lon="23.526976"><ele>2180.8</ele><time>2026-03-15T13:07:16.000Z</time></trkpt>
<trkpt lat="41.736638" lon="23.526988"><ele>2179.1</ele><time>2026-03-15T13:07:17.000Z</time></trkpt>
<trkpt lat="41.736652" lon="23.526998"><ele>2179.1</ele><time>2026-03-15T13:07:18.000Z</time></trkpt>
<trkpt lat="41.736666" lon="23.527007"><ele>2179.1</ele><time>2026-03-15T13:07:19.000Z</time></trkpt>
<trkpt lat="41.736681" lon="23.527017"><ele>2179.1</ele><time>2026-03-15T13:07:20.000Z</time></trkpt>
<trkpt lat="41.736695" lon="23.527028"><ele>2179.1</ele><time>2026-03-15T13:07:21.000Z</time></trkpt>
<trkpt lat="41.73671" lon="23.527039"><ele>2175.9</ele><time>2026-03-15T13:07:22.000Z</time></trkpt>
<trkpt lat="41.736725" lon="23.527051"><ele>2175.9</ele><time>2026-03-15T13:07:23.000Z</time></trkpt>
<trkpt lat="41.736741" lon="23.527062"><ele>2175.9</ele><time>2026-03-15T13:07:24.000Z</time></trkpt>
<trkpt lat="41.736756" lon="23.527074"><ele>2175.9</ele><time>2026-03-15T13:07:25.000Z</time></trkpt>
<trkpt lat="41.736772" lon="23.527085"><ele>2175.9</ele><time>2026-03-15T13:07:26.000Z</time></trkpt>
<trkpt lat="41.736787" lon="23.527095"><ele>2172.9</ele><time>2026-03-15T13:07:27.000Z</time></trkpt>
<trkpt lat="41.736801" lon="23.527107"><ele>2172.9</ele><time>2026-03-15T13:07:28.000Z</time></trkpt>
<trkpt lat="41.736815" lon="23.527119"><ele>2172.9</ele><time>2026-03-15T13:07:29.000Z</time></trkpt>
<trkpt lat="41.73683" lon="23.527131"><ele>2172.9</ele><time>2026-03-15T13:07:30.000Z</time></trkpt>
<trkpt lat="41.736844" lon="23.527144"><ele>2172.9</ele><time>2026-03-15T13:07:31.000Z</time></trkpt>
<trkpt lat="41.736859" lon="23.527158"><ele>2171.4</ele><time>2026-03-15T13:07:32.000Z</time></trkpt>
<trkpt lat="41.736875" lon="23.527172"><ele>2171.4</ele><time>2026-03-15T13:07:33.000Z</time></trkpt>
<trkpt lat="41.736891" lon="23.527187"><ele>2171.4</ele><time>2026-03-15T13:07:34.000Z</time></trkpt>
<trkpt lat="41.736907" lon="23.527202"><ele>2171.4</ele><time>2026-03-15T13:07:35.000Z</time></trkpt>
<trkpt lat="41.736923" lon="23.527218"><ele>2171.4</ele><time>2026-03-15T13:07:36.000Z</time></trkpt>
<trkpt lat="41.73694" lon="23.527233"><ele>2168.5</ele><time>2026-03-15T13:07:37.000Z</time></trkpt>
<trkpt lat="41.736957" lon="23.527248"><ele>2168.5</ele><time>2026-03-15T13:07:38.000Z</time></trkpt>
<trkpt lat="41.736974" lon="23.527261"><ele>2168.5</ele><time>2026-03-15T13:07:39.000Z</time></trkpt>
<trkpt lat="41.736991" lon="23.527273"><ele>2168.5</ele><time>2026-03-15T13:07:40.000Z</time></trkpt>
<trkpt lat="41.737008" lon="23.527284"><ele>2168.5</ele><time>2026-03-15T13:07:41.000Z</time></trkpt>
<trkpt lat="41.737025" lon="23.527296"><ele>2166</ele><time>2026-03-15T13:07:42.000Z</time></trkpt>
<trkpt lat="41.737041" lon="23.527308"><ele>2166</ele><time>2026-03-15T13:07:43.000Z</time></trkpt>
<trkpt lat="41.737057" lon="23.52732"><ele>2166</ele><time>2026-03-15T13:07:44.000Z</time></trkpt>
<trkpt lat="41.737073" lon="23.527333"><ele>2166</ele><time>2026-03-15T13:07:45.000Z</time></trkpt>
<trkpt lat="41.737088" lon="23.527346"><ele>2166</ele><time>2026-03-15T13:07:46.000Z</time></trkpt>
<trkpt lat="41.737103" lon="23.52736"><ele>2165</ele><time>2026-03-15T13:07:47.000Z</time></trkpt>
<trkpt lat="41.737118" lon="23.527372"><ele>2165</ele><time>2026-03-15T13:07:48.000Z</time></trkpt>
<trkpt lat="41.737132" lon="23.527386"><ele>2165</ele><time>2026-03-15T13:07:49.000Z</time></trkpt>
<trkpt lat="41.737147" lon="23.527398"><ele>2165</ele><time>2026-03-15T13:07:50.000Z</time></trkpt>
<trkpt lat="41.73716" lon="23.527415"><ele>2165</ele><time>2026-03-15T13:07:51.000Z</time></trkpt>
<trkpt lat="41.73716" lon="23.527415"><ele>2163.7</ele><time>2026-03-15T13:07:52.000Z</time></trkpt>
</trkseg></trk></gpx>